<?xml version="1.0" encoding="UTF-8" standalone="no" ?>
<gpx xmlns="http://www.topografix.com/GPX/1/1" xmlns:xsi="http://www.w3.org/2001/XMLSchema-instance" xsi:schemaLocation="http://www.topografix.com/GPX/1/1 http://www.topografix.com/GPX/1/1/gpx.xsd" version="1.1" creator="VisuGPX - https://www.visugpx.com">
  <metadata>
    <name>Turquie: itinéraire prévisionnel</name>
  </metadata>
  <trk>
    <name><![CDATA[1_De Batoumi à Malatya]]></name>
    <extensions>
      <line xmlns="http://www.topografix.com/GPX/gpx_style/0/2">
        <color>0000FF</color>
        <width>4</width>
      </line>
    </extensions>
    <trkseg>
      <trkpt lat="41.64577" lon="41.6257">
        <ele>9.364217</ele>
        <time>2021-11-15T11:31:59.255Z</time>
      </trkpt>
      <trkpt lat="41.64568" lon="41.62576">
        <ele>9.364217</ele>
        <time>2021-11-15T11:32:01.399Z</time>
      </trkpt>
      <trkpt lat="41.64541" lon="41.62493">
        <ele>9.364217</ele>
        <time>2021-11-15T11:32:19.533Z</time>
      </trkpt>
      <trkpt lat="41.64525" lon="41.62441">
        <ele>9.147881</ele>
        <time>2021-11-15T11:32:30.749Z</time>
      </trkpt>
      <trkpt lat="41.64533" lon="41.62437">
        <ele>9.087156</ele>
        <time>2021-11-15T11:32:32.379Z</time>
      </trkpt>
      <trkpt lat="41.64579" lon="41.62409">
        <ele>8.716134</ele>
        <time>2021-11-15T11:32:42.814Z</time>
      </trkpt>
      <trkpt lat="41.64616" lon="41.62385">
        <ele>8.419514</ele>
        <time>2021-11-15T11:32:51.184Z</time>
      </trkpt>
      <trkpt lat="41.64622" lon="41.62381">
        <ele>8.36627</ele>
        <time>2021-11-15T11:32:52.682Z</time>
      </trkpt>
      <trkpt lat="41.64627" lon="41.62372">
        <ele>8.305824</ele>
        <time>2021-11-15T11:32:54.299Z</time>
      </trkpt>
      <trkpt lat="41.64633" lon="41.62363">
        <ele>8.241407</ele>
        <time>2021-11-15T11:32:56.038Z</time>
      </trkpt>
      <trkpt lat="41.64652" lon="41.62337">
        <ele>8.052947</ele>
        <time>2021-11-15T11:33:01.572Z</time>
      </trkpt>
      <trkpt lat="41.64664" lon="41.62331">
        <ele>8.083989</ele>
        <time>2021-11-15T11:33:04.101Z</time>
      </trkpt>
      <trkpt lat="41.64701" lon="41.62311">
        <ele>8.183986</ele>
        <time>2021-11-15T11:33:13.057Z</time>
      </trkpt>
      <trkpt lat="41.64725" lon="41.62298">
        <ele>8.249102</ele>
        <time>2021-11-15T11:33:19.335Z</time>
      </trkpt>
      <trkpt lat="41.64731" lon="41.62294">
        <ele>8.264552</ele>
        <time>2021-11-15T11:33:20.773Z</time>
      </trkpt>
      <trkpt lat="41.64734" lon="41.62302">
        <ele>8.28103</ele>
        <time>2021-11-15T11:33:22.359Z</time>
      </trkpt>
      <trkpt lat="41.64738" lon="41.62303">
        <ele>8.292076</ele>
        <time>2021-11-15T11:33:23.462Z</time>
      </trkpt>
      <trkpt lat="41.64742" lon="41.623">
        <ele>8.302451</ele>
        <time>2021-11-15T11:33:24.444Z</time>
      </trkpt>
      <trkpt lat="41.64754" lon="41.62289">
        <ele>8.340421</ele>
        <time>2021-11-15T11:33:28.095Z</time>
      </trkpt>
      <trkpt lat="41.64763" lon="41.62282">
        <ele>8.364799</ele>
        <time>2021-11-15T11:33:30.383Z</time>
      </trkpt>
      <trkpt lat="41.64786" lon="41.62264">
        <ele>8.432787</ele>
        <time>2021-11-15T11:33:37.145Z</time>
      </trkpt>
      <trkpt lat="41.64787" lon="41.62266">
        <ele>8.437303</ele>
        <time>2021-11-15T11:33:37.581Z</time>
      </trkpt>
      <trkpt lat="41.64792" lon="41.6226">
        <ele>8.454524</ele>
        <time>2021-11-15T11:33:42.357Z</time>
      </trkpt>
      <trkpt lat="41.64832" lon="41.62217">
        <ele>8.661841</ele>
        <time>2021-11-15T11:34:17.730Z</time>
      </trkpt>
      <trkpt lat="41.64847" lon="41.62198">
        <ele>8.767489</ele>
        <time>2021-11-15T11:34:32.610Z</time>
      </trkpt>
      <trkpt lat="41.64809" lon="41.62141">
        <ele>9.049381</ele>
        <time>2021-11-15T11:34:47.430Z</time>
      </trkpt>
      <trkpt lat="41.64741" lon="41.62039">
        <ele>9.105658</ele>
        <time>2021-11-15T11:35:13.236Z</time>
      </trkpt>
      <trkpt lat="41.64618" lon="41.61852">
        <ele>7.099634</ele>
        <time>2021-11-15T11:35:50.138Z</time>
      </trkpt>
      <trkpt lat="41.64595" lon="41.61818">
        <ele>6.426202</ele>
        <time>2021-11-15T11:35:56.295Z</time>
      </trkpt>
      <trkpt lat="41.64578" lon="41.61793">
        <ele>5.923335</ele>
        <time>2021-11-15T11:36:00.849Z</time>
      </trkpt>
      <trkpt lat="41.64547" lon="41.61756">
        <ele>5.108734</ele>
        <time>2021-11-15T11:36:08.279Z</time>
      </trkpt>
      <trkpt lat="41.64477" lon="41.61669">
        <ele>3.470246</ele>
        <time>2021-11-15T11:36:25.759Z</time>
      </trkpt>
      <trkpt lat="41.6437" lon="41.61538">
        <ele>1.25095</ele>
        <time>2021-11-15T11:36:54.440Z</time>
      </trkpt>
      <trkpt lat="41.64334" lon="41.61494">
        <ele>0.463481</ele>
        <time>2021-11-15T11:37:03.739Z</time>
      </trkpt>
      <trkpt lat="41.64222" lon="41.61357">
        <ele>-1.396428</ele>
        <time>2021-11-15T11:37:32.203Z</time>
      </trkpt>
      <trkpt lat="41.64179" lon="41.61303">
        <ele>-1.573159</ele>
        <time>2021-11-15T11:37:44.603Z</time>
      </trkpt>
      <trkpt lat="41.64171" lon="41.61292">
        <ele>-1.606293</ele>
        <time>2021-11-15T11:37:47.171Z</time>
      </trkpt>
      <trkpt lat="41.6408" lon="41.61182">
        <ele>-1.144629</ele>
        <time>2021-11-15T11:38:20.441Z</time>
      </trkpt>
      <trkpt lat="41.64068" lon="41.61167">
        <ele>-0.950631</ele>
        <time>2021-11-15T11:38:25.235Z</time>
      </trkpt>
      <trkpt lat="41.64054" lon="41.6115">
        <ele>-0.721025</ele>
        <time>2021-11-15T11:38:31.023Z</time>
      </trkpt>
      <trkpt lat="41.64045" lon="41.61138">
        <ele>-0.570301</ele>
        <time>2021-11-15T11:38:34.749Z</time>
      </trkpt>
      <trkpt lat="41.64004" lon="41.6109">
        <ele>0.07024</ele>
        <time>2021-11-15T11:38:50.563Z</time>
      </trkpt>
      <trkpt lat="41.63964" lon="41.61042">
        <ele>0.386914</ele>
        <time>2021-11-15T11:39:05.012Z</time>
      </trkpt>
      <trkpt lat="41.63882" lon="41.60947">
        <ele>0.592907</ele>
        <time>2021-11-15T11:39:29.617Z</time>
      </trkpt>
      <trkpt lat="41.6384" lon="41.609">
        <ele>0.71938</ele>
        <time>2021-11-15T11:39:42.120Z</time>
      </trkpt>
      <trkpt lat="41.63774" lon="41.60825">
        <ele>1.012144</ele>
        <time>2021-11-15T11:40:03.479Z</time>
      </trkpt>
      <trkpt lat="41.63697" lon="41.60735">
        <ele>1.359919</ele>
        <time>2021-11-15T11:40:28.848Z</time>
      </trkpt>
      <trkpt lat="41.63594" lon="41.60618">
        <ele>1.826432</ele>
        <time>2021-11-15T11:41:02.746Z</time>
      </trkpt>
      <trkpt lat="41.6356" lon="41.60578">
        <ele>1.904203</ele>
        <time>2021-11-15T11:41:12.719Z</time>
      </trkpt>
      <trkpt lat="41.63344" lon="41.60373">
        <ele>1.897117</ele>
        <time>2021-11-15T11:42:14.532Z</time>
      </trkpt>
      <trkpt lat="41.63342" lon="41.60366">
        <ele>1.893904</ele>
        <time>2021-11-15T11:42:15.665Z</time>
      </trkpt>
      <trkpt lat="41.6334" lon="41.6036">
        <ele>1.891334</ele>
        <time>2021-11-15T11:42:17.006Z</time>
      </trkpt>
      <trkpt lat="41.63235" lon="41.60258">
        <ele>1.923499</ele>
        <time>2021-11-15T11:42:46.070Z</time>
      </trkpt>
      <trkpt lat="41.63162" lon="41.60188">
        <ele>2.006967</ele>
        <time>2021-11-15T11:43:07.717Z</time>
      </trkpt>
      <trkpt lat="41.63089" lon="41.60119">
        <ele>2.562359</ele>
        <time>2021-11-15T11:43:29.905Z</time>
      </trkpt>
      <trkpt lat="41.62974" lon="41.60013">
        <ele>3.56236</ele>
        <time>2021-11-15T11:44:08.507Z</time>
      </trkpt>
      <trkpt lat="41.62829" lon="41.59865">
        <ele>4.300759</ele>
        <time>2021-11-15T11:44:53.621Z</time>
      </trkpt>
      <trkpt lat="41.62746" lon="41.59767">
        <ele>4.224492</ele>
        <time>2021-11-15T11:45:18.359Z</time>
      </trkpt>
      <trkpt lat="41.62743" lon="41.59764">
        <ele>4.221771</ele>
        <time>2021-11-15T11:45:19.131Z</time>
      </trkpt>
      <trkpt lat="41.62742" lon="41.59762">
        <ele>4.220411</ele>
        <time>2021-11-15T11:45:19.561Z</time>
      </trkpt>
      <trkpt lat="41.62693" lon="41.59706">
        <ele>4.129173</ele>
        <time>2021-11-15T11:45:33.878Z</time>
      </trkpt>
      <trkpt lat="41.6241" lon="41.59379">
        <ele>3.4902</ele>
        <time>2021-11-15T11:46:57.596Z</time>
      </trkpt>
      <trkpt lat="41.62404" lon="41.59372">
        <ele>3.488577</ele>
        <time>2021-11-15T11:46:59.630Z</time>
      </trkpt>
      <trkpt lat="41.6227" lon="41.59199">
        <ele>3.434045</ele>
        <time>2021-11-15T11:47:43.484Z</time>
      </trkpt>
      <trkpt lat="41.62185" lon="41.59085">
        <ele>3.372271</ele>
        <time>2021-11-15T11:48:10.941Z</time>
      </trkpt>
      <trkpt lat="41.61956" lon="41.58827">
        <ele>2.88308</ele>
        <time>2021-11-15T11:49:17.902Z</time>
      </trkpt>
      <trkpt lat="41.61898" lon="41.58765">
        <ele>2.82117</ele>
        <time>2021-11-15T11:49:35.105Z</time>
      </trkpt>
      <trkpt lat="41.61956" lon="41.58827">
        <ele>2.893078</ele>
        <time>2021-11-15T11:49:52.574Z</time>
      </trkpt>
      <trkpt lat="41.62185" lon="41.59085">
        <ele>3.351692</ele>
        <time>2021-11-15T11:51:04.083Z</time>
      </trkpt>
      <trkpt lat="41.6227" lon="41.59199">
        <ele>3.447195</ele>
        <time>2021-11-15T11:51:32.552Z</time>
      </trkpt>
      <trkpt lat="41.62404" lon="41.59372">
        <ele>3.464315</ele>
        <time>2021-11-15T11:52:15.190Z</time>
      </trkpt>
      <trkpt lat="41.6241" lon="41.59379">
        <ele>3.464001</ele>
        <time>2021-11-15T11:52:16.965Z</time>
      </trkpt>
      <trkpt lat="41.62693" lon="41.59706">
        <ele>4.123916</ele>
        <time>2021-11-15T11:53:46.273Z</time>
      </trkpt>
      <trkpt lat="41.62742" lon="41.59762">
        <ele>4.213485</ele>
        <time>2021-11-15T11:54:02.001Z</time>
      </trkpt>
      <trkpt lat="41.62743" lon="41.59764">
        <ele>4.216186</ele>
        <time>2021-11-15T11:54:02.475Z</time>
      </trkpt>
      <trkpt lat="41.62746" lon="41.59767">
        <ele>4.221589</ele>
        <time>2021-11-15T11:54:03.611Z</time>
      </trkpt>
      <trkpt lat="41.62829" lon="41.59865">
        <ele>4.372691</ele>
        <time>2021-11-15T11:54:29.983Z</time>
      </trkpt>
      <trkpt lat="41.62974" lon="41.60013">
        <ele>3.64522</ele>
        <time>2021-11-15T11:55:09.716Z</time>
      </trkpt>
      <trkpt lat="41.63089" lon="41.60119">
        <ele>2.611392</ele>
        <time>2021-11-15T11:55:37.709Z</time>
      </trkpt>
      <trkpt lat="41.63162" lon="41.60188">
        <ele>2.349692</ele>
        <time>2021-11-15T11:55:57.849Z</time>
      </trkpt>
      <trkpt lat="41.63235" lon="41.60258">
        <ele>2.372523</ele>
        <time>2021-11-15T11:56:18.775Z</time>
      </trkpt>
      <trkpt lat="41.63223" lon="41.60278">
        <ele>2.377387</ele>
        <time>2021-11-15T11:56:32.174Z</time>
      </trkpt>
      <trkpt lat="41.63218" lon="41.60286">
        <ele>2.379358</ele>
        <time>2021-11-15T11:56:37.627Z</time>
      </trkpt>
      <trkpt lat="41.63197" lon="41.6026">
        <ele>2.447258</ele>
        <time>2021-11-15T11:56:44.237Z</time>
      </trkpt>
      <trkpt lat="41.63196" lon="41.60256">
        <ele>2.459807</ele>
        <time>2021-11-15T11:56:45.187Z</time>
      </trkpt>
      <trkpt lat="41.63193" lon="41.60252">
        <ele>2.472265</ele>
        <time>2021-11-15T11:56:46.272Z</time>
      </trkpt>
      <trkpt lat="41.6319" lon="41.6025">
        <ele>2.485876</ele>
        <time>2021-11-15T11:56:47.089Z</time>
      </trkpt>
      <trkpt lat="41.63172" lon="41.60233">
        <ele>2.566366</ele>
        <time>2021-11-15T11:56:52.396Z</time>
      </trkpt>
      <trkpt lat="41.63061" lon="41.60137">
        <ele>3.07428</ele>
        <time>2021-11-15T11:57:22.944Z</time>
      </trkpt>
      <trkpt lat="41.63025" lon="41.60133">
        <ele>3.554319</ele>
        <time>2021-11-15T11:57:32.076Z</time>
      </trkpt>
      <trkpt lat="41.63004" lon="41.60146">
        <ele>3.857808</ele>
        <time>2021-11-15T11:57:38.212Z</time>
      </trkpt>
      <trkpt lat="41.62945" lon="41.60214">
        <ele>4.890552</ele>
        <time>2021-11-15T11:58:01.263Z</time>
      </trkpt>
      <trkpt lat="41.62941" lon="41.60213">
        <ele>4.944844</ele>
        <time>2021-11-15T11:58:02.543Z</time>
      </trkpt>
      <trkpt lat="41.62933" lon="41.60214">
        <ele>5.051894</ele>
        <time>2021-11-15T11:58:05.108Z</time>
      </trkpt>
      <trkpt lat="41.62929" lon="41.60216">
        <ele>5.106207</ele>
        <time>2021-11-15T11:58:06.334Z</time>
      </trkpt>
      <trkpt lat="41.62878" lon="41.60159">
        <ele>5.627976</ele>
        <time>2021-11-15T11:58:25.238Z</time>
      </trkpt>
      <trkpt lat="41.62821" lon="41.60094">
        <ele>5.996497</ele>
        <time>2021-11-15T11:58:43.028Z</time>
      </trkpt>
      <trkpt lat="41.62716" lon="41.59975">
        <ele>5.867366</ele>
        <time>2021-11-15T11:59:12.511Z</time>
      </trkpt>
      <trkpt lat="41.62679" lon="41.59932">
        <ele>5.590646</ele>
        <time>2021-11-15T11:59:21.632Z</time>
      </trkpt>
      <trkpt lat="41.62652" lon="41.59901">
        <ele>5.390024</ele>
        <time>2021-11-15T11:59:28.478Z</time>
      </trkpt>
      <trkpt lat="41.62303" lon="41.59494">
        <ele>4.607919</ele>
        <time>2021-11-15T12:01:08.943Z</time>
      </trkpt>
      <trkpt lat="41.62295" lon="41.59486">
        <ele>4.605658</ele>
        <time>2021-11-15T12:01:11.084Z</time>
      </trkpt>
      <trkpt lat="41.62295" lon="41.59481">
        <ele>4.604788</ele>
        <time>2021-11-15T12:01:11.912Z</time>
      </trkpt>
      <trkpt lat="41.62292" lon="41.59473">
        <ele>4.603071</ele>
        <time>2021-11-15T12:01:13.561Z</time>
      </trkpt>
      <trkpt lat="41.62289" lon="41.5947">
        <ele>4.602219</ele>
        <time>2021-11-15T12:01:14.394Z</time>
      </trkpt>
      <trkpt lat="41.62286" lon="41.59452">
        <ele>4.599031</ele>
        <time>2021-11-15T12:01:17.867Z</time>
      </trkpt>
      <trkpt lat="41.62262" lon="41.59307">
        <ele>4.467728</ele>
        <time>2021-11-15T12:01:42.665Z</time>
      </trkpt>
      <trkpt lat="41.62252" lon="41.5925">
        <ele>4.371209</ele>
        <time>2021-11-15T12:01:52.240Z</time>
      </trkpt>
      <trkpt lat="41.62227" lon="41.59174">
        <ele>4.234383</ele>
        <time>2021-11-15T12:02:05.247Z</time>
      </trkpt>
      <trkpt lat="41.62183" lon="41.59099">
        <ele>4.053753</ele>
        <time>2021-11-15T12:02:19.311Z</time>
      </trkpt>
      <trkpt lat="41.61964" lon="41.58873">
        <ele>3.806732</ele>
        <time>2021-11-15T12:03:19.856Z</time>
      </trkpt>
      <trkpt lat="41.61951" lon="41.58858">
        <ele>3.818717</ele>
        <time>2021-11-15T12:03:24.030Z</time>
      </trkpt>
      <trkpt lat="41.61946" lon="41.58851">
        <ele>3.823858</ele>
        <time>2021-11-15T12:03:25.862Z</time>
      </trkpt>
      <trkpt lat="41.61939" lon="41.58849">
        <ele>3.82858</ele>
        <time>2021-11-15T12:03:27.605Z</time>
      </trkpt>
      <trkpt lat="41.61932" lon="41.5885">
        <ele>3.864997</ele>
        <time>2021-11-15T12:03:29.249Z</time>
      </trkpt>
      <trkpt lat="41.61922" lon="41.58862">
        <ele>3.94771</ele>
        <time>2021-11-15T12:03:32.512Z</time>
      </trkpt>
      <trkpt lat="41.6192" lon="41.58871">
        <ele>3.990407</ele>
        <time>2021-11-15T12:03:34.261Z</time>
      </trkpt>
      <trkpt lat="41.61921" lon="41.58878">
        <ele>4.023992</ele>
        <time>2021-11-15T12:03:35.641Z</time>
      </trkpt>
      <trkpt lat="41.61904" lon="41.589">
        <ele>4.168974</ele>
        <time>2021-11-15T12:03:41.486Z</time>
      </trkpt>
      <trkpt lat="41.61881" lon="41.58936">
        <ele>4.384195</ele>
        <time>2021-11-15T12:03:50.324Z</time>
      </trkpt>
      <trkpt lat="41.61826" lon="41.5903">
        <ele>4.926867</ele>
        <time>2021-11-15T12:04:12.883Z</time>
      </trkpt>
      <trkpt lat="41.61812" lon="41.59054">
        <ele>5.032306</ele>
        <time>2021-11-15T12:04:18.580Z</time>
      </trkpt>
      <trkpt lat="41.61749" lon="41.59164">
        <ele>5.506976</ele>
        <time>2021-11-15T12:04:43.255Z</time>
      </trkpt>
      <trkpt lat="41.61626" lon="41.59377">
        <ele>6.029838</ele>
        <time>2021-11-15T12:05:30.588Z</time>
      </trkpt>
      <trkpt lat="41.61621" lon="41.59385">
        <ele>6.04503</ele>
        <time>2021-11-15T12:05:32.326Z</time>
      </trkpt>
      <trkpt lat="41.61607" lon="41.59408">
        <ele>6.086445</ele>
        <time>2021-11-15T12:05:37.287Z</time>
      </trkpt>
      <trkpt lat="41.61582" lon="41.59446">
        <ele>6.014102</ele>
        <time>2021-11-15T12:05:45.355Z</time>
      </trkpt>
      <trkpt lat="41.61579" lon="41.59451">
        <ele>6.005211</ele>
        <time>2021-11-15T12:05:46.123Z</time>
      </trkpt>
      <trkpt lat="41.61546" lon="41.59502">
        <ele>5.898651</ele>
        <time>2021-11-15T12:05:57.072Z</time>
      </trkpt>
      <trkpt lat="41.61512" lon="41.59555">
        <ele>5.790093</ele>
        <time>2021-11-15T12:06:08.121Z</time>
      </trkpt>
      <trkpt lat="41.61426" lon="41.59688">
        <ele>5.847068</ele>
        <time>2021-11-15T12:06:36.335Z</time>
      </trkpt>
      <trkpt lat="41.61402" lon="41.59719">
        <ele>5.893316</ele>
        <time>2021-11-15T12:06:44.309Z</time>
      </trkpt>
      <trkpt lat="41.61397" lon="41.59726">
        <ele>5.903427</ele>
        <time>2021-11-15T12:06:46.103Z</time>
      </trkpt>
      <trkpt lat="41.61364" lon="41.59771">
        <ele>5.971231</ele>
        <time>2021-11-15T12:06:57.604Z</time>
      </trkpt>
      <trkpt lat="41.61347" lon="41.59791">
        <ele>6.027165</ele>
        <time>2021-11-15T12:07:03.238Z</time>
      </trkpt>
      <trkpt lat="41.61281" lon="41.59878">
        <ele>6.254483</ele>
        <time>2021-11-15T12:07:25.811Z</time>
      </trkpt>
      <trkpt lat="41.61155" lon="41.6004">
        <ele>6.067896</ele>
        <time>2021-11-15T12:08:02.762Z</time>
      </trkpt>
      <trkpt lat="41.61126" lon="41.60088">
        <ele>5.928473</ele>
        <time>2021-11-15T12:08:12.433Z</time>
      </trkpt>
      <trkpt lat="41.61105" lon="41.60128">
        <ele>5.88237</ele>
        <time>2021-11-15T12:08:20.122Z</time>
      </trkpt>
      <trkpt lat="41.61088" lon="41.60172">
        <ele>5.917629</ele>
        <time>2021-11-15T12:08:28.102Z</time>
      </trkpt>
      <trkpt lat="41.61068" lon="41.60253">
        <ele>5.978428</ele>
        <time>2021-11-15T12:08:41.744Z</time>
      </trkpt>
      <trkpt lat="41.61057" lon="41.6036">
        <ele>6.172051</ele>
        <time>2021-11-15T12:09:01.724Z</time>
      </trkpt>
      <trkpt lat="41.61053" lon="41.60472">
        <ele>6.806205</ele>
        <time>2021-11-15T12:09:23.341Z</time>
      </trkpt>
      <trkpt lat="41.61056" lon="41.60552">
        <ele>7.259826</ele>
        <time>2021-11-15T12:09:38.606Z</time>
      </trkpt>
      <trkpt lat="41.61052" lon="41.60593">
        <ele>7.441437</ele>
        <time>2021-11-15T12:09:46.314Z</time>
      </trkpt>
      <trkpt lat="41.61044" lon="41.60631">
        <ele>7.532279</ele>
        <time>2021-11-15T12:09:53.770Z</time>
      </trkpt>
      <trkpt lat="41.6103" lon="41.60681">
        <ele>7.653547</ele>
        <time>2021-11-15T12:10:03.558Z</time>
      </trkpt>
      <trkpt lat="41.61" lon="41.60762">
        <ele>7.861145</ele>
        <time>2021-11-15T12:10:19.249Z</time>
      </trkpt>
      <trkpt lat="41.60989" lon="41.60792">
        <ele>7.937019</ele>
        <time>2021-11-15T12:10:24.530Z</time>
      </trkpt>
      <trkpt lat="41.60974" lon="41.60843">
        <ele>7.956326</ele>
        <time>2021-11-15T12:10:32.855Z</time>
      </trkpt>
      <trkpt lat="41.60945" lon="41.6101">
        <ele>7.964813</ele>
        <time>2021-11-15T12:11:01.001Z</time>
      </trkpt>
      <trkpt lat="41.60942" lon="41.61029">
        <ele>7.965758</ele>
        <time>2021-11-15T12:11:04.080Z</time>
      </trkpt>
      <trkpt lat="41.60937" lon="41.61061">
        <ele>8.239721</ele>
        <time>2021-11-15T12:11:10.108Z</time>
      </trkpt>
      <trkpt lat="41.6092" lon="41.61171">
        <ele>9.279394</ele>
        <time>2021-11-15T12:11:33.389Z</time>
      </trkpt>
      <trkpt lat="41.60916" lon="41.61193">
        <ele>9.483169</ele>
        <time>2021-11-15T12:11:38.394Z</time>
      </trkpt>
      <trkpt lat="41.60909" lon="41.61243">
        <ele>9.949014</ele>
        <time>2021-11-15T12:11:49.426Z</time>
      </trkpt>
      <trkpt lat="41.60905" lon="41.61263">
        <ele>10.142644</ele>
        <time>2021-11-15T12:11:54.100Z</time>
      </trkpt>
      <trkpt lat="41.60903" lon="41.61279">
        <ele>10.261031</ele>
        <time>2021-11-15T12:11:57.416Z</time>
      </trkpt>
      <trkpt lat="41.60901" lon="41.61289">
        <ele>10.33061</ele>
        <time>2021-11-15T12:11:59.355Z</time>
      </trkpt>
      <trkpt lat="41.609" lon="41.61298">
        <ele>10.394092</ele>
        <time>2021-11-15T12:12:01.538Z</time>
      </trkpt>
      <trkpt lat="41.60895" lon="41.61319">
        <ele>10.538482</ele>
        <time>2021-11-15T12:12:05.932Z</time>
      </trkpt>
      <trkpt lat="41.60893" lon="41.61332">
        <ele>10.628166</ele>
        <time>2021-11-15T12:12:08.456Z</time>
      </trkpt>
      <trkpt lat="41.6089" lon="41.61354">
        <ele>10.774839</ele>
        <time>2021-11-15T12:12:13.076Z</time>
      </trkpt>
      <trkpt lat="41.60888" lon="41.61356">
        <ele>10.797216</ele>
        <time>2021-11-15T12:12:13.748Z</time>
      </trkpt>
      <trkpt lat="41.60887" lon="41.61359">
        <ele>10.822134</ele>
        <time>2021-11-15T12:12:14.481Z</time>
      </trkpt>
      <trkpt lat="41.60886" lon="41.61363">
        <ele>10.846267</ele>
        <time>2021-11-15T12:12:15.219Z</time>
      </trkpt>
      <trkpt lat="41.60886" lon="41.61365">
        <ele>10.859739</ele>
        <time>2021-11-15T12:12:15.594Z</time>
      </trkpt>
      <trkpt lat="41.60867" lon="41.61376">
        <ele>11.053221</ele>
        <time>2021-11-15T12:12:21.285Z</time>
      </trkpt>
      <trkpt lat="41.6085" lon="41.61387">
        <ele>11.218568</ele>
        <time>2021-11-15T12:12:25.975Z</time>
      </trkpt>
      <trkpt lat="41.60845" lon="41.61389">
        <ele>11.26772</ele>
        <time>2021-11-15T12:12:27.267Z</time>
      </trkpt>
      <trkpt lat="41.60805" lon="41.61402">
        <ele>11.633853</ele>
        <time>2021-11-15T12:12:37.442Z</time>
      </trkpt>
      <trkpt lat="41.60749" lon="41.61415">
        <ele>11.771126</ele>
        <time>2021-11-15T12:12:50.313Z</time>
      </trkpt>
      <trkpt lat="41.60744" lon="41.61415">
        <ele>11.768172</ele>
        <time>2021-11-15T12:12:51.284Z</time>
      </trkpt>
      <trkpt lat="41.60734" lon="41.61415">
        <ele>11.762092</ele>
        <time>2021-11-15T12:12:53.496Z</time>
      </trkpt>
      <trkpt lat="41.60708" lon="41.61417">
        <ele>11.746916</ele>
        <time>2021-11-15T12:12:58.774Z</time>
      </trkpt>
      <trkpt lat="41.60675" lon="41.61419">
        <ele>11.727747</ele>
        <time>2021-11-15T12:13:05.799Z</time>
      </trkpt>
      <trkpt lat="41.60669" lon="41.61419">
        <ele>11.724272</ele>
        <time>2021-11-15T12:13:07.060Z</time>
      </trkpt>
      <trkpt lat="41.60607" lon="41.61421">
        <ele>11.694344</ele>
        <time>2021-11-15T12:13:20.745Z</time>
      </trkpt>
      <trkpt lat="41.60594" lon="41.61422">
        <ele>11.751787</ele>
        <time>2021-11-15T12:13:23.731Z</time>
      </trkpt>
      <trkpt lat="41.60579" lon="41.61422">
        <ele>11.814371</ele>
        <time>2021-11-15T12:13:27.186Z</time>
      </trkpt>
      <trkpt lat="41.60534" lon="41.61423">
        <ele>12.007233</ele>
        <time>2021-11-15T12:13:37.989Z</time>
      </trkpt>
      <trkpt lat="41.60486" lon="41.61421">
        <ele>12.214385</ele>
        <time>2021-11-15T12:13:50.074Z</time>
      </trkpt>
      <trkpt lat="41.60458" lon="41.614">
        <ele>12.350796</ele>
        <time>2021-11-15T12:13:57.749Z</time>
      </trkpt>
      <trkpt lat="41.60442" lon="41.61382">
        <ele>12.439529</ele>
        <time>2021-11-15T12:14:02.842Z</time>
      </trkpt>
      <trkpt lat="41.60429" lon="41.6137">
        <ele>12.490134</ele>
        <time>2021-11-15T12:14:06.773Z</time>
      </trkpt>
      <trkpt lat="41.604" lon="41.61357">
        <ele>12.566019</ele>
        <time>2021-11-15T12:14:13.856Z</time>
      </trkpt>
      <trkpt lat="41.60387" lon="41.61353">
        <ele>12.598582</ele>
        <time>2021-11-15T12:14:17.031Z</time>
      </trkpt>
      <trkpt lat="41.60375" lon="41.61352">
        <ele>12.627978</ele>
        <time>2021-11-15T12:14:19.867Z</time>
      </trkpt>
      <trkpt lat="41.60361" lon="41.61354">
        <ele>12.664206</ele>
        <time>2021-11-15T12:14:23.097Z</time>
      </trkpt>
      <trkpt lat="41.60346" lon="41.61357">
        <ele>12.701625</ele>
        <time>2021-11-15T12:14:26.750Z</time>
      </trkpt>
      <trkpt lat="41.60332" lon="41.61365">
        <ele>12.740421</ele>
        <time>2021-11-15T12:14:30.258Z</time>
      </trkpt>
      <trkpt lat="41.60301" lon="41.61396">
        <ele>12.836999</ele>
        <time>2021-11-15T12:14:39.243Z</time>
      </trkpt>
      <trkpt lat="41.60267" lon="41.6143">
        <ele>12.853623</ele>
        <time>2021-11-15T12:14:48.788Z</time>
      </trkpt>
      <trkpt lat="41.60256" lon="41.61441">
        <ele>12.786887</ele>
        <time>2021-11-15T12:14:52.133Z</time>
      </trkpt>
      <trkpt lat="41.60235" lon="41.61454">
        <ele>12.682878</ele>
        <time>2021-11-15T12:14:56.699Z</time>
      </trkpt>
      <trkpt lat="41.6019" lon="41.61467">
        <ele>12.468996</ele>
        <time>2021-11-15T12:15:06.060Z</time>
      </trkpt>
      <trkpt lat="41.60169" lon="41.6147">
        <ele>12.370329</ele>
        <time>2021-11-15T12:15:10.533Z</time>
      </trkpt>
      <trkpt lat="41.60127" lon="41.61464">
        <ele>12.177089</ele>
        <time>2021-11-15T12:15:18.969Z</time>
      </trkpt>
      <trkpt lat="41.60114" lon="41.61459">
        <ele>12.11544</ele>
        <time>2021-11-15T12:15:21.661Z</time>
      </trkpt>
      <trkpt lat="41.60106" lon="41.61453">
        <ele>12.062619</ele>
        <time>2021-11-15T12:15:23.601Z</time>
      </trkpt>
      <trkpt lat="41.60099" lon="41.61448">
        <ele>11.989655</ele>
        <time>2021-11-15T12:15:25.264Z</time>
      </trkpt>
      <trkpt lat="41.6009" lon="41.61437">
        <ele>11.886302</ele>
        <time>2021-11-15T12:15:27.423Z</time>
      </trkpt>
      <trkpt lat="41.60067" lon="41.61384">
        <ele>11.481966</ele>
        <time>2021-11-15T12:15:36.404Z</time>
      </trkpt>
      <trkpt lat="41.60037" lon="41.61265">
        <ele>10.640066</ele>
        <time>2021-11-15T12:15:54.660Z</time>
      </trkpt>
      <trkpt lat="41.60034" lon="41.61251">
        <ele>10.545795</ele>
        <time>2021-11-15T12:15:56.701Z</time>
      </trkpt>
      <trkpt lat="41.6001" lon="41.61091">
        <ele>9.607977</ele>
        <time>2021-11-15T12:16:20.834Z</time>
      </trkpt>
      <trkpt lat="41.59997" lon="41.60971">
        <ele>9.071578</ele>
        <time>2021-11-15T12:16:39.005Z</time>
      </trkpt>
      <trkpt lat="41.59996" lon="41.60964">
        <ele>9.062428</ele>
        <time>2021-11-15T12:16:40.106Z</time>
      </trkpt>
      <trkpt lat="41.59994" lon="41.60948">
        <ele>9.042546</ele>
        <time>2021-11-15T12:16:42.559Z</time>
      </trkpt>
      <trkpt lat="41.59974" lon="41.60774">
        <ele>8.821609</ele>
        <time>2021-11-15T12:17:11.328Z</time>
      </trkpt>
      <trkpt lat="41.59971" lon="41.60747">
        <ele>8.855362</ele>
        <time>2021-11-15T12:17:16.092Z</time>
      </trkpt>
      <trkpt lat="41.59966" lon="41.60703">
        <ele>8.951159</ele>
        <time>2021-11-15T12:17:24.199Z</time>
      </trkpt>
      <trkpt lat="41.59954" lon="41.60602">
        <ele>9.166767</ele>
        <time>2021-11-15T12:17:42.530Z</time>
      </trkpt>
      <trkpt lat="41.59927" lon="41.60374">
        <ele>9.241569</ele>
        <time>2021-11-15T12:18:22.323Z</time>
      </trkpt>
      <trkpt lat="41.59923" lon="41.6034">
        <ele>9.223671</ele>
        <time>2021-11-15T12:18:27.698Z</time>
      </trkpt>
      <trkpt lat="41.5991" lon="41.60232">
        <ele>8.874934</ele>
        <time>2021-11-15T12:18:44.030Z</time>
      </trkpt>
      <trkpt lat="41.59909" lon="41.60223">
        <ele>8.821831</ele>
        <time>2021-11-15T12:18:45.458Z</time>
      </trkpt>
      <trkpt lat="41.59902" lon="41.60162">
        <ele>8.493881</ele>
        <time>2021-11-15T12:18:54.487Z</time>
      </trkpt>
      <trkpt lat="41.59893" lon="41.6009">
        <ele>8.09958</ele>
        <time>2021-11-15T12:19:05.555Z</time>
      </trkpt>
      <trkpt lat="41.59878" lon="41.60019">
        <ele>7.876485</ele>
        <time>2021-11-15T12:19:16.367Z</time>
      </trkpt>
      <trkpt lat="41.59866" lon="41.59988">
        <ele>7.845892</ele>
        <time>2021-11-15T12:19:21.516Z</time>
      </trkpt>
      <trkpt lat="41.5986" lon="41.59971">
        <ele>7.828196</ele>
        <time>2021-11-15T12:19:24.571Z</time>
      </trkpt>
      <trkpt lat="41.59839" lon="41.59933">
        <ele>7.786746</ele>
        <time>2021-11-15T12:19:31.980Z</time>
      </trkpt>
      <trkpt lat="41.59818" lon="41.59906">
        <ele>7.751599</ele>
        <time>2021-11-15T12:19:38.655Z</time>
      </trkpt>
      <trkpt lat="41.59781" lon="41.59873">
        <ele>7.699204</ele>
        <time>2021-11-15T12:19:49.357Z</time>
      </trkpt>
      <trkpt lat="41.5973" lon="41.59845">
        <ele>8.111332</ele>
        <time>2021-11-15T12:20:03.459Z</time>
      </trkpt>
      <trkpt lat="41.59692" lon="41.5983">
        <ele>8.419141</ele>
        <time>2021-11-15T12:20:13.448Z</time>
      </trkpt>
      <trkpt lat="41.59584" lon="41.59797">
        <ele>9.222856</ele>
        <time>2021-11-15T12:20:42.081Z</time>
      </trkpt>
      <trkpt lat="41.59567" lon="41.59792">
        <ele>9.306485</ele>
        <time>2021-11-15T12:20:46.585Z</time>
      </trkpt>
      <trkpt lat="41.5947" lon="41.59765">
        <ele>9.787619</ele>
        <time>2021-11-15T12:21:10.876Z</time>
      </trkpt>
      <trkpt lat="41.5918" lon="41.59682">
        <ele>9.880023</ele>
        <time>2021-11-15T12:22:16.822Z</time>
      </trkpt>
      <trkpt lat="41.59053" lon="41.59646">
        <ele>9.497741</ele>
        <time>2021-11-15T12:22:43.729Z</time>
      </trkpt>
      <trkpt lat="41.58782" lon="41.59572">
        <ele>8.493519</ele>
        <time>2021-11-15T12:23:40.675Z</time>
      </trkpt>
      <trkpt lat="41.58705" lon="41.59547">
        <ele>8.509263</ele>
        <time>2021-11-15T12:23:58.984Z</time>
      </trkpt>
      <trkpt lat="41.58677" lon="41.59537">
        <ele>8.699934</ele>
        <time>2021-11-15T12:24:06.151Z</time>
      </trkpt>
      <trkpt lat="41.58625" lon="41.59505">
        <ele>9.079589</ele>
        <time>2021-11-15T12:24:20.377Z</time>
      </trkpt>
      <trkpt lat="41.58613" lon="41.59493">
        <ele>9.179036</ele>
        <time>2021-11-15T12:24:24.419Z</time>
      </trkpt>
      <trkpt lat="41.58602" lon="41.59481">
        <ele>9.274519</ele>
        <time>2021-11-15T12:24:28.071Z</time>
      </trkpt>
      <trkpt lat="41.58587" lon="41.59462">
        <ele>9.410049</ele>
        <time>2021-11-15T12:24:33.666Z</time>
      </trkpt>
      <trkpt lat="41.58575" lon="41.59444">
        <ele>9.530147</ele>
        <time>2021-11-15T12:24:38.432Z</time>
      </trkpt>
      <trkpt lat="41.58566" lon="41.5943">
        <ele>9.575421</ele>
        <time>2021-11-15T12:24:42.042Z</time>
      </trkpt>
      <trkpt lat="41.58559" lon="41.59414">
        <ele>9.610736</ele>
        <time>2021-11-15T12:24:45.503Z</time>
      </trkpt>
      <trkpt lat="41.58556" lon="41.59405">
        <ele>9.629974</ele>
        <time>2021-11-15T12:24:47.374Z</time>
      </trkpt>
      <trkpt lat="41.58553" lon="41.59394">
        <ele>9.651597</ele>
        <time>2021-11-15T12:24:49.520Z</time>
      </trkpt>
      <trkpt lat="41.5855" lon="41.59371">
        <ele>9.695959</ele>
        <time>2021-11-15T12:24:53.627Z</time>
      </trkpt>
      <trkpt lat="41.58549" lon="41.59358">
        <ele>9.720331</ele>
        <time>2021-11-15T12:24:55.870Z</time>
      </trkpt>
      <trkpt lat="41.58547" lon="41.59317">
        <ele>9.797428</ele>
        <time>2021-11-15T12:25:02.769Z</time>
      </trkpt>
      <trkpt lat="41.58549" lon="41.59253">
        <ele>9.917527</ele>
        <time>2021-11-15T12:25:12.763Z</time>
      </trkpt>
      <trkpt lat="41.58549" lon="41.59238">
        <ele>9.947316</ele>
        <time>2021-11-15T12:25:15.293Z</time>
      </trkpt>
      <trkpt lat="41.5855" lon="41.59211">
        <ele>9.998035</ele>
        <time>2021-11-15T12:25:19.720Z</time>
      </trkpt>
      <trkpt lat="41.58551" lon="41.5917">
        <ele>10.093893</ele>
        <time>2021-11-15T12:25:26.915Z</time>
      </trkpt>
      <trkpt lat="41.58552" lon="41.59109">
        <ele>10.241232</ele>
        <time>2021-11-15T12:25:38.370Z</time>
      </trkpt>
      <trkpt lat="41.58553" lon="41.59089">
        <ele>10.29123</ele>
        <time>2021-11-15T12:25:41.961Z</time>
      </trkpt>
      <trkpt lat="41.58553" lon="41.59059">
        <ele>10.362471</ele>
        <time>2021-11-15T12:25:47.060Z</time>
      </trkpt>
      <trkpt lat="41.58555" lon="41.58985">
        <ele>10.541713</ele>
        <time>2021-11-15T12:25:59.744Z</time>
      </trkpt>
      <trkpt lat="41.58556" lon="41.58967">
        <ele>10.586366</ele>
        <time>2021-11-15T12:26:03.152Z</time>
      </trkpt>
      <trkpt lat="41.58556" lon="41.58941">
        <ele>10.646366</ele>
        <time>2021-11-15T12:26:07.628Z</time>
      </trkpt>
      <trkpt lat="41.58557" lon="41.58913">
        <ele>10.714255</ele>
        <time>2021-11-15T12:26:12.706Z</time>
      </trkpt>
      <trkpt lat="41.5856" lon="41.58754">
        <ele>11.093449</ele>
        <time>2021-11-15T12:26:41.743Z</time>
      </trkpt>
      <trkpt lat="41.58546" lon="41.5868">
        <ele>11.067016</ele>
        <time>2021-11-15T12:26:53.525Z</time>
      </trkpt>
      <trkpt lat="41.58533" lon="41.58648">
        <ele>11.00306</ele>
        <time>2021-11-15T12:26:59.152Z</time>
      </trkpt>
      <trkpt lat="41.58495" lon="41.58571">
        <ele>10.836147</ele>
        <time>2021-11-15T12:27:14.021Z</time>
      </trkpt>
      <trkpt lat="41.58398" lon="41.58384">
        <ele>10.879739</ele>
        <time>2021-11-15T12:27:50.807Z</time>
      </trkpt>
      <trkpt lat="41.58315" lon="41.58223">
        <ele>11.346638</ele>
        <time>2021-11-15T12:28:27.631Z</time>
      </trkpt>
      <trkpt lat="41.58292" lon="41.5818">
        <ele>11.520678</ele>
        <time>2021-11-15T12:28:37.084Z</time>
      </trkpt>
      <trkpt lat="41.58285" lon="41.58166">
        <ele>11.575447</ele>
        <time>2021-11-15T12:28:40.513Z</time>
      </trkpt>
      <trkpt lat="41.58263" lon="41.58125">
        <ele>11.739055</ele>
        <time>2021-11-15T12:28:48.975Z</time>
      </trkpt>
      <trkpt lat="41.58239" lon="41.58078">
        <ele>11.248226</ele>
        <time>2021-11-15T12:28:58.038Z</time>
      </trkpt>
      <trkpt lat="41.5814" lon="41.57887">
        <ele>9.224784</ele>
        <time>2021-11-15T12:29:29.680Z</time>
      </trkpt>
      <trkpt lat="41.58122" lon="41.57852">
        <ele>8.839357</ele>
        <time>2021-11-15T12:29:35.425Z</time>
      </trkpt>
      <trkpt lat="41.5811" lon="41.57828">
        <ele>8.579401</ele>
        <time>2021-11-15T12:29:39.421Z</time>
      </trkpt>
      <trkpt lat="41.58103" lon="41.57814">
        <ele>8.428698</ele>
        <time>2021-11-15T12:29:41.677Z</time>
      </trkpt>
      <trkpt lat="41.581" lon="41.57808">
        <ele>8.358773</ele>
        <time>2021-11-15T12:29:42.698Z</time>
      </trkpt>
      <trkpt lat="41.5809" lon="41.57788">
        <ele>8.138148</ele>
        <time>2021-11-15T12:29:46.300Z</time>
      </trkpt>
      <trkpt lat="41.58084" lon="41.57776">
        <ele>8.006359</ele>
        <time>2021-11-15T12:29:48.312Z</time>
      </trkpt>
      <trkpt lat="41.58067" lon="41.57743">
        <ele>7.646638</ele>
        <time>2021-11-15T12:29:54.202Z</time>
      </trkpt>
      <trkpt lat="41.58062" lon="41.57733">
        <ele>7.533764</ele>
        <time>2021-11-15T12:29:56.030Z</time>
      </trkpt>
      <trkpt lat="41.58052" lon="41.57713">
        <ele>7.495528</ele>
        <time>2021-11-15T12:29:59.756Z</time>
      </trkpt>
      <trkpt lat="41.58019" lon="41.57648">
        <ele>7.533652</ele>
        <time>2021-11-15T12:30:12.052Z</time>
      </trkpt>
      <trkpt lat="41.57983" lon="41.57584">
        <ele>7.572551</ele>
        <time>2021-11-15T12:30:26.221Z</time>
      </trkpt>
      <trkpt lat="41.57944" lon="41.57537">
        <ele>7.643147</ele>
        <time>2021-11-15T12:30:38.867Z</time>
      </trkpt>
      <trkpt lat="41.57824" lon="41.57457">
        <ele>8.743776</ele>
        <time>2021-11-15T12:31:12.498Z</time>
      </trkpt>
      <trkpt lat="41.57786" lon="41.57434">
        <ele>9.100428</ele>
        <time>2021-11-15T12:31:23.488Z</time>
      </trkpt>
      <trkpt lat="41.57769" lon="41.57423">
        <ele>9.390676</ele>
        <time>2021-11-15T12:31:28.500Z</time>
      </trkpt>
      <trkpt lat="41.57745" lon="41.57407">
        <ele>9.82235</ele>
        <time>2021-11-15T12:31:36.338Z</time>
      </trkpt>
      <trkpt lat="41.57742" lon="41.57405">
        <ele>9.884838</ele>
        <time>2021-11-15T12:31:37.458Z</time>
      </trkpt>
      <trkpt lat="41.57661" lon="41.57351">
        <ele>11.325785</ele>
        <time>2021-11-15T12:32:05.361Z</time>
      </trkpt>
      <trkpt lat="41.57565" lon="41.57292">
        <ele>11.759292</ele>
        <time>2021-11-15T12:32:33.150Z</time>
      </trkpt>
      <trkpt lat="41.57549" lon="41.57283">
        <ele>11.70798</ele>
        <time>2021-11-15T12:32:36.737Z</time>
      </trkpt>
      <trkpt lat="41.57484" lon="41.5724">
        <ele>11.491785</ele>
        <time>2021-11-15T12:32:50.929Z</time>
      </trkpt>
      <trkpt lat="41.57467" lon="41.57233">
        <ele>11.437161</ele>
        <time>2021-11-15T12:32:54.246Z</time>
      </trkpt>
      <trkpt lat="41.57437" lon="41.57221">
        <ele>11.140474</ele>
        <time>2021-11-15T12:32:59.730Z</time>
      </trkpt>
      <trkpt lat="41.5742" lon="41.57216">
        <ele>10.948648</ele>
        <time>2021-11-15T12:33:02.744Z</time>
      </trkpt>
      <trkpt lat="41.57397" lon="41.57213">
        <ele>10.693082</ele>
        <time>2021-11-15T12:33:06.832Z</time>
      </trkpt>
      <trkpt lat="41.57337" lon="41.57207">
        <ele>10.033693</ele>
        <time>2021-11-15T12:33:18.115Z</time>
      </trkpt>
      <trkpt lat="41.57326" lon="41.57205">
        <ele>9.916074</ele>
        <time>2021-11-15T12:33:20.298Z</time>
      </trkpt>
      <trkpt lat="41.57284" lon="41.57201">
        <ele>9.456514</ele>
        <time>2021-11-15T12:33:28.998Z</time>
      </trkpt>
      <trkpt lat="41.57264" lon="41.57198">
        <ele>9.586708</ele>
        <time>2021-11-15T12:33:33.707Z</time>
      </trkpt>
      <trkpt lat="41.57235" lon="41.57195">
        <ele>9.779947</ele>
        <time>2021-11-15T12:33:40.853Z</time>
      </trkpt>
      <trkpt lat="41.57205" lon="41.57193">
        <ele>9.984833</ele>
        <time>2021-11-15T12:33:48.668Z</time>
      </trkpt>
      <trkpt lat="41.57173" lon="41.57191">
        <ele>10.195772</ele>
        <time>2021-11-15T12:33:56.947Z</time>
      </trkpt>
      <trkpt lat="41.57123" lon="41.57185">
        <ele>10.533545</ele>
        <time>2021-11-15T12:34:10.417Z</time>
      </trkpt>
      <trkpt lat="41.57119" lon="41.57184">
        <ele>10.563324</ele>
        <time>2021-11-15T12:34:11.531Z</time>
      </trkpt>
      <trkpt lat="41.57105" lon="41.57182">
        <ele>10.658741</ele>
        <time>2021-11-15T12:34:15.293Z</time>
      </trkpt>
      <trkpt lat="41.5708" lon="41.57179">
        <ele>10.65959</ele>
        <time>2021-11-15T12:34:21.571Z</time>
      </trkpt>
      <trkpt lat="41.5706" lon="41.57176">
        <ele>10.657937</ele>
        <time>2021-11-15T12:34:26.469Z</time>
      </trkpt>
      <trkpt lat="41.5701" lon="41.5717">
        <ele>10.653856</ele>
        <time>2021-11-15T12:34:37.642Z</time>
      </trkpt>
      <trkpt lat="41.57006" lon="41.5717">
        <ele>10.653488</ele>
        <time>2021-11-15T12:34:38.727Z</time>
      </trkpt>
      <trkpt lat="41.56996" lon="41.57168">
        <ele>10.652686</ele>
        <time>2021-11-15T12:34:40.717Z</time>
      </trkpt>
      <trkpt lat="41.56968" lon="41.57166">
        <ele>10.650418</ele>
        <time>2021-11-15T12:34:46.708Z</time>
      </trkpt>
      <trkpt lat="41.5696" lon="41.57165">
        <ele>10.649795</ele>
        <time>2021-11-15T12:34:48.178Z</time>
      </trkpt>
      <trkpt lat="41.56957" lon="41.57164">
        <ele>10.649476</ele>
        <time>2021-11-15T12:34:48.983Z</time>
      </trkpt>
      <trkpt lat="41.56927" lon="41.57161">
        <ele>10.647067</ele>
        <time>2021-11-15T12:34:54.986Z</time>
      </trkpt>
      <trkpt lat="41.56887" lon="41.57157">
        <ele>10.342072</ele>
        <time>2021-11-15T12:35:02.893Z</time>
      </trkpt>
      <trkpt lat="41.56861" lon="41.57152">
        <ele>10.135925</ele>
        <time>2021-11-15T12:35:08.090Z</time>
      </trkpt>
      <trkpt lat="41.56854" lon="41.57151">
        <ele>10.083129</ele>
        <time>2021-11-15T12:35:09.330Z</time>
      </trkpt>
      <trkpt lat="41.56841" lon="41.57147">
        <ele>9.970989</ele>
        <time>2021-11-15T12:35:12.057Z</time>
      </trkpt>
      <trkpt lat="41.56819" lon="41.57137">
        <ele>9.787258</ele>
        <time>2021-11-15T12:35:16.719Z</time>
      </trkpt>
      <trkpt lat="41.56795" lon="41.57126">
        <ele>9.587975</ele>
        <time>2021-11-15T12:35:21.952Z</time>
      </trkpt>
      <trkpt lat="41.56771" lon="41.57114">
        <ele>9.387492</ele>
        <time>2021-11-15T12:35:26.999Z</time>
      </trkpt>
      <trkpt lat="41.56765" lon="41.57111">
        <ele>9.338056</ele>
        <time>2021-11-15T12:35:28.272Z</time>
      </trkpt>
      <trkpt lat="41.56753" lon="41.57103">
        <ele>9.23025</ele>
        <time>2021-11-15T12:35:30.948Z</time>
      </trkpt>
      <trkpt lat="41.56742" lon="41.57095">
        <ele>9.095259</ele>
        <time>2021-11-15T12:35:33.272Z</time>
      </trkpt>
      <trkpt lat="41.56698" lon="41.57066">
        <ele>8.526268</ele>
        <time>2021-11-15T12:35:42.556Z</time>
      </trkpt>
      <trkpt lat="41.56692" lon="41.57062">
        <ele>8.446791</ele>
        <time>2021-11-15T12:35:43.816Z</time>
      </trkpt>
      <trkpt lat="41.56682" lon="41.57055">
        <ele>8.325909</ele>
        <time>2021-11-15T12:35:45.735Z</time>
      </trkpt>
      <trkpt lat="41.56667" lon="41.57047">
        <ele>8.132632</ele>
        <time>2021-11-15T12:35:48.885Z</time>
      </trkpt>
      <trkpt lat="41.56618" lon="41.56991">
        <ele>7.399543</ele>
        <time>2021-11-15T12:36:01.661Z</time>
      </trkpt>
      <trkpt lat="41.56582" lon="41.56979">
        <ele>6.985863</ele>
        <time>2021-11-15T12:36:09.353Z</time>
      </trkpt>
      <trkpt lat="41.56546" lon="41.56967">
        <ele>6.584749</ele>
        <time>2021-11-15T12:36:16.914Z</time>
      </trkpt>
      <trkpt lat="41.56523" lon="41.56953">
        <ele>6.31905</ele>
        <time>2021-11-15T12:36:21.512Z</time>
      </trkpt>
      <trkpt lat="41.56513" lon="41.56946">
        <ele>6.202188</ele>
        <time>2021-11-15T12:36:23.415Z</time>
      </trkpt>
      <trkpt lat="41.56486" lon="41.5693">
        <ele>5.883126</ele>
        <time>2021-11-15T12:36:28.959Z</time>
      </trkpt>
      <trkpt lat="41.56472" lon="41.56922">
        <ele>5.718118</ele>
        <time>2021-11-15T12:36:31.817Z</time>
      </trkpt>
      <trkpt lat="41.56423" lon="41.56897">
        <ele>5.208396</ele>
        <time>2021-11-15T12:36:42.237Z</time>
      </trkpt>
      <trkpt lat="41.56408" lon="41.5689">
        <ele>5.143868</ele>
        <time>2021-11-15T12:36:45.466Z</time>
      </trkpt>
      <trkpt lat="41.56375" lon="41.56873">
        <ele>5.00344</ele>
        <time>2021-11-15T12:36:52.930Z</time>
      </trkpt>
      <trkpt lat="41.56349" lon="41.5686">
        <ele>4.894306</ele>
        <time>2021-11-15T12:36:58.782Z</time>
      </trkpt>
      <trkpt lat="41.56319" lon="41.56846">
        <ele>4.77126</ele>
        <time>2021-11-15T12:37:05.313Z</time>
      </trkpt>
      <trkpt lat="41.56296" lon="41.56835">
        <ele>4.6735</ele>
        <time>2021-11-15T12:37:10.434Z</time>
      </trkpt>
      <trkpt lat="41.56281" lon="41.56827">
        <ele>4.609387</ele>
        <time>2021-11-15T12:37:13.797Z</time>
      </trkpt>
      <trkpt lat="41.56273" lon="41.56824">
        <ele>4.575739</ele>
        <time>2021-11-15T12:37:15.508Z</time>
      </trkpt>
      <trkpt lat="41.56244" lon="41.5681">
        <ele>4.542638</ele>
        <time>2021-11-15T12:37:22.108Z</time>
      </trkpt>
      <trkpt lat="41.56235" lon="41.56806">
        <ele>4.551496</ele>
        <time>2021-11-15T12:37:24.390Z</time>
      </trkpt>
      <trkpt lat="41.56194" lon="41.5679">
        <ele>4.58803</ele>
        <time>2021-11-15T12:37:34.053Z</time>
      </trkpt>
      <trkpt lat="41.56183" lon="41.56785">
        <ele>4.598508</ele>
        <time>2021-11-15T12:37:36.826Z</time>
      </trkpt>
      <trkpt lat="41.56168" lon="41.56779">
        <ele>4.611629</ele>
        <time>2021-11-15T12:37:40.304Z</time>
      </trkpt>
      <trkpt lat="41.56133" lon="41.56764">
        <ele>4.643214</ele>
        <time>2021-11-15T12:37:48.484Z</time>
      </trkpt>
      <trkpt lat="41.56127" lon="41.56761">
        <ele>4.64885</ele>
        <time>2021-11-15T12:37:49.854Z</time>
      </trkpt>
      <trkpt lat="41.55983" lon="41.56698">
        <ele>5.135124</ele>
        <time>2021-11-15T12:38:26.087Z</time>
      </trkpt>
      <trkpt lat="41.55949" lon="41.56682">
        <ele>5.279582</ele>
        <time>2021-11-15T12:38:34.918Z</time>
      </trkpt>
      <trkpt lat="41.55911" lon="41.56668">
        <ele>5.415722</ele>
        <time>2021-11-15T12:38:44.616Z</time>
      </trkpt>
      <trkpt lat="41.55894" lon="41.56661">
        <ele>5.439389</ele>
        <time>2021-11-15T12:38:48.797Z</time>
      </trkpt>
      <trkpt lat="41.55851" lon="41.56644">
        <ele>5.499794</ele>
        <time>2021-11-15T12:38:58.832Z</time>
      </trkpt>
      <trkpt lat="41.55813" lon="41.56628">
        <ele>5.553104</ele>
        <time>2021-11-15T12:39:07.745Z</time>
      </trkpt>
      <trkpt lat="41.55794" lon="41.56621">
        <ele>5.579952</ele>
        <time>2021-11-15T12:39:12.142Z</time>
      </trkpt>
      <trkpt lat="41.55747" lon="41.56603">
        <ele>5.645149</ele>
        <time>2021-11-15T12:39:22.255Z</time>
      </trkpt>
      <trkpt lat="41.55735" lon="41.56598">
        <ele>5.92884</ele>
        <time>2021-11-15T12:39:25.369Z</time>
      </trkpt>
      <trkpt lat="41.55731" lon="41.56597">
        <ele>6.018245</ele>
        <time>2021-11-15T12:39:26.293Z</time>
      </trkpt>
      <trkpt lat="41.55715" lon="41.5659">
        <ele>6.428981</ele>
        <time>2021-11-15T12:39:30.305Z</time>
      </trkpt>
      <trkpt lat="41.55699" lon="41.56583">
        <ele>6.824639</ele>
        <time>2021-11-15T12:39:34.602Z</time>
      </trkpt>
      <trkpt lat="41.55675" lon="41.56573">
        <ele>7.423151</ele>
        <time>2021-11-15T12:39:40.830Z</time>
      </trkpt>
      <trkpt lat="41.55654" lon="41.56564">
        <ele>7.92275</ele>
        <time>2021-11-15T12:39:46.276Z</time>
      </trkpt>
      <trkpt lat="41.5564" lon="41.56558">
        <ele>8.269761</ele>
        <time>2021-11-15T12:39:50.609Z</time>
      </trkpt>
      <trkpt lat="41.5561" lon="41.56544">
        <ele>9.01741</ele>
        <time>2021-11-15T12:40:01.023Z</time>
      </trkpt>
      <trkpt lat="41.55568" lon="41.56524">
        <ele>10.563973</ele>
        <time>2021-11-15T12:40:21.248Z</time>
      </trkpt>
      <trkpt lat="41.55516" lon="41.56503">
        <ele>14.924369</ele>
        <time>2021-11-15T12:40:50.317Z</time>
      </trkpt>
      <trkpt lat="41.55499" lon="41.56496">
        <ele>16.372228</ele>
        <time>2021-11-15T12:41:01.438Z</time>
      </trkpt>
      <trkpt lat="41.55486" lon="41.56491">
        <ele>17.417854</ele>
        <time>2021-11-15T12:41:08.590Z</time>
      </trkpt>
      <trkpt lat="41.55452" lon="41.56481">
        <ele>20.198955</ele>
        <time>2021-11-15T12:41:29.333Z</time>
      </trkpt>
      <trkpt lat="41.55422" lon="41.56475">
        <ele>22.683019</ele>
        <time>2021-11-15T12:41:48.117Z</time>
      </trkpt>
      <trkpt lat="41.55366" lon="41.5646">
        <ele>26.192236</ele>
        <time>2021-11-15T12:42:20.150Z</time>
      </trkpt>
      <trkpt lat="41.55252" lon="41.56436">
        <ele>32.240343</ele>
        <time>2021-11-15T12:43:09.492Z</time>
      </trkpt>
      <trkpt lat="41.55217" lon="41.56433">
        <ele>33.848371</ele>
        <time>2021-11-15T12:43:19.410Z</time>
      </trkpt>
      <trkpt lat="41.55146" lon="41.56431">
        <ele>35.575496</ele>
        <time>2021-11-15T12:43:37.992Z</time>
      </trkpt>
      <trkpt lat="41.54852" lon="41.56436">
        <ele>42.587068</ele>
        <time>2021-11-15T12:45:18.882Z</time>
      </trkpt>
      <trkpt lat="41.54808" lon="41.56436">
        <ele>41.820125</ele>
        <time>2021-11-15T12:45:28.275Z</time>
      </trkpt>
      <trkpt lat="41.5478" lon="41.56435">
        <ele>41.324357</ele>
        <time>2021-11-15T12:45:32.955Z</time>
      </trkpt>
      <trkpt lat="41.54734" lon="41.5643">
        <ele>40.504138</ele>
        <time>2021-11-15T12:45:40.946Z</time>
      </trkpt>
      <trkpt lat="41.54688" lon="41.56425">
        <ele>39.688793</ele>
        <time>2021-11-15T12:45:48.308Z</time>
      </trkpt>
      <trkpt lat="41.54668" lon="41.56423">
        <ele>39.406472</ele>
        <time>2021-11-15T12:45:51.386Z</time>
      </trkpt>
      <trkpt lat="41.54642" lon="41.5642">
        <ele>39.044477</ele>
        <time>2021-11-15T12:45:55.259Z</time>
      </trkpt>
      <trkpt lat="41.54635" lon="41.56419">
        <ele>38.953578</ele>
        <time>2021-11-15T12:45:56.226Z</time>
      </trkpt>
      <trkpt lat="41.54626" lon="41.56418">
        <ele>38.825396</ele>
        <time>2021-11-15T12:45:57.634Z</time>
      </trkpt>
      <trkpt lat="41.54598" lon="41.56413">
        <ele>38.43699</ele>
        <time>2021-11-15T12:46:01.837Z</time>
      </trkpt>
      <trkpt lat="41.54564" lon="41.56401">
        <ele>37.960274</ele>
        <time>2021-11-15T12:46:07.366Z</time>
      </trkpt>
      <trkpt lat="41.54537" lon="41.56379">
        <ele>37.521503</ele>
        <time>2021-11-15T12:46:15.322Z</time>
      </trkpt>
      <trkpt lat="41.54497" lon="41.56323">
        <ele>41.87315</ele>
        <time>2021-11-15T12:46:43.257Z</time>
      </trkpt>
      <trkpt lat="41.5448" lon="41.56292">
        <ele>45.992554</ele>
        <time>2021-11-15T12:47:01.408Z</time>
      </trkpt>
      <trkpt lat="41.54469" lon="41.56262">
        <ele>49.620244</ele>
        <time>2021-11-15T12:47:20.434Z</time>
      </trkpt>
      <trkpt lat="41.54461" lon="41.56237">
        <ele>52.595414</ele>
        <time>2021-11-15T12:47:37.511Z</time>
      </trkpt>
      <trkpt lat="41.54451" lon="41.56191">
        <ele>57.860609</ele>
        <time>2021-11-15T12:48:11.901Z</time>
      </trkpt>
      <trkpt lat="41.5442" lon="41.5605">
        <ele>77.316829</ele>
        <time>2021-11-15T12:50:17.167Z</time>
      </trkpt>
      <trkpt lat="41.54382" lon="41.55992">
        <ele>88.392175</ele>
        <time>2021-11-15T12:51:20.101Z</time>
      </trkpt>
      <trkpt lat="41.54331" lon="41.55937">
        <ele>98.229843</ele>
        <time>2021-11-15T12:52:16.800Z</time>
      </trkpt>
      <trkpt lat="41.54232" lon="41.55763">
        <ele>100.773932</ele>
        <time>2021-11-15T12:52:58.010Z</time>
      </trkpt>
      <trkpt lat="41.54142" lon="41.55591">
        <ele>81.718027</ele>
        <time>2021-11-15T12:53:18.394Z</time>
      </trkpt>
      <trkpt lat="41.54074" lon="41.55409">
        <ele>69.950731</ele>
        <time>2021-11-15T12:53:38.722Z</time>
      </trkpt>
      <trkpt lat="41.54061" lon="41.55383">
        <ele>68.315141</ele>
        <time>2021-11-15T12:53:43.253Z</time>
      </trkpt>
      <trkpt lat="41.54027" lon="41.55351">
        <ele>67.882663</ele>
        <time>2021-11-15T12:53:55.957Z</time>
      </trkpt>
      <trkpt lat="41.53769" lon="41.55229">
        <ele>97.107583</ele>
        <time>2021-11-15T12:57:22.606Z</time>
      </trkpt>
      <trkpt lat="41.53613" lon="41.55142">
        <ele>104.493611</ele>
        <time>2021-11-15T12:58:39.167Z</time>
      </trkpt>
      <trkpt lat="41.53547" lon="41.55098">
        <ele>104.496553</ele>
        <time>2021-11-15T12:58:50.285Z</time>
      </trkpt>
      <trkpt lat="41.53433" lon="41.54999">
        <ele>93.30472</ele>
        <time>2021-11-15T12:59:08.672Z</time>
      </trkpt>
      <trkpt lat="41.53401" lon="41.5498">
        <ele>90.213533</ele>
        <time>2021-11-15T12:59:13.447Z</time>
      </trkpt>
      <trkpt lat="41.53357" lon="41.54973">
        <ele>87.502478</ele>
        <time>2021-11-15T12:59:19.762Z</time>
      </trkpt>
      <trkpt lat="41.53286" lon="41.54985">
        <ele>84.623294</ele>
        <time>2021-11-15T12:59:30.831Z</time>
      </trkpt>
      <trkpt lat="41.5325" lon="41.54973">
        <ele>83.120314</ele>
        <time>2021-11-15T12:59:37.327Z</time>
      </trkpt>
      <trkpt lat="41.53159" lon="41.54926">
        <ele>78.843527</ele>
        <time>2021-11-15T12:59:54.871Z</time>
      </trkpt>
      <trkpt lat="41.53124" lon="41.54919">
        <ele>77.19702</ele>
        <time>2021-11-15T13:00:00.800Z</time>
      </trkpt>
      <trkpt lat="41.52806" lon="41.54892">
        <ele>56.065215</ele>
        <time>2021-11-15T13:00:46.275Z</time>
      </trkpt>
      <trkpt lat="41.52659" lon="41.54894">
        <ele>43.236257</ele>
        <time>2021-11-15T13:01:06.500Z</time>
      </trkpt>
      <trkpt lat="41.52554" lon="41.54898">
        <ele>33.010738</ele>
        <time>2021-11-15T13:01:20.892Z</time>
      </trkpt>
      <trkpt lat="41.52502" lon="41.54896">
        <ele>27.975417</ele>
        <time>2021-11-15T13:01:27.915Z</time>
      </trkpt>
      <trkpt lat="41.52406" lon="41.54883">
        <ele>20.81158</ele>
        <time>2021-11-15T13:01:41.198Z</time>
      </trkpt>
      <trkpt lat="41.52362" lon="41.54874">
        <ele>17.583612</ele>
        <time>2021-11-15T13:01:47.520Z</time>
      </trkpt>
      <trkpt lat="41.52212" lon="41.54846">
        <ele>11.934663</ele>
        <time>2021-11-15T13:02:11.564Z</time>
      </trkpt>
      <trkpt lat="41.52194" lon="41.54845">
        <ele>11.56953</ele>
        <time>2021-11-15T13:02:15.499Z</time>
      </trkpt>
      <trkpt lat="41.52184" lon="41.54843">
        <ele>11.364656</ele>
        <time>2021-11-15T13:02:17.823Z</time>
      </trkpt>
      <trkpt lat="41.52167" lon="41.54839">
        <ele>11.005557</ele>
        <time>2021-11-15T13:02:22.113Z</time>
      </trkpt>
      <trkpt lat="41.52152" lon="41.54835">
        <ele>10.686726</ele>
        <time>2021-11-15T13:02:25.669Z</time>
      </trkpt>
      <trkpt lat="41.52145" lon="41.54833">
        <ele>10.531965</ele>
        <time>2021-11-15T13:02:27.599Z</time>
      </trkpt>
      <trkpt lat="41.52132" lon="41.54829">
        <ele>10.412339</ele>
        <time>2021-11-15T13:02:30.964Z</time>
      </trkpt>
      <trkpt lat="41.52122" lon="41.54827">
        <ele>10.56133</ele>
        <time>2021-11-15T13:02:33.519Z</time>
      </trkpt>
      <trkpt lat="41.521" lon="41.54824">
        <ele>10.869467</ele>
        <time>2021-11-15T13:02:39.531Z</time>
      </trkpt>
      <trkpt lat="41.52085" lon="41.54822">
        <ele>11.070773</ele>
        <time>2021-11-15T13:02:43.073Z</time>
      </trkpt>
      <trkpt lat="41.52069" lon="41.5482">
        <ele>11.299409</ele>
        <time>2021-11-15T13:02:47.163Z</time>
      </trkpt>
      <trkpt lat="41.52053" lon="41.54808">
        <ele>11.557915</ele>
        <time>2021-11-15T13:02:52.098Z</time>
      </trkpt>
      <trkpt lat="41.52044" lon="41.548">
        <ele>11.707131</ele>
        <time>2021-11-15T13:02:54.740Z</time>
      </trkpt>
      <trkpt lat="41.52038" lon="41.54792">
        <ele>11.824883</ele>
        <time>2021-11-15T13:02:57.222Z</time>
      </trkpt>
      <trkpt lat="41.52021" lon="41.54777">
        <ele>12.103306</ele>
        <time>2021-11-15T13:03:02.762Z</time>
      </trkpt>
      <trkpt lat="41.51997" lon="41.54766">
        <ele>12.462969</ele>
        <time>2021-11-15T13:03:10.480Z</time>
      </trkpt>
      <trkpt lat="41.51957" lon="41.54748">
        <ele>13.447457</ele>
        <time>2021-11-15T13:03:23.773Z</time>
      </trkpt>
      <trkpt lat="41.51942" lon="41.54741">
        <ele>14.117493</ele>
        <time>2021-11-15T13:03:28.194Z</time>
      </trkpt>
      <trkpt lat="41.51772" lon="41.54671">
        <ele>22.481037</ele>
        <time>2021-11-15T13:04:41.530Z</time>
      </trkpt>
      <trkpt lat="41.51742" lon="41.54637">
        <ele>25.170846</ele>
        <time>2021-11-15T13:05:02.607Z</time>
      </trkpt>
      <trkpt lat="41.51738" lon="41.54627">
        <ele>25.763999</ele>
        <time>2021-11-15T13:05:08.833Z</time>
      </trkpt>
      <trkpt lat="41.51735" lon="41.54617">
        <ele>26.292538</ele>
        <time>2021-11-15T13:05:12.400Z</time>
      </trkpt>
      <trkpt lat="41.51734" lon="41.54602">
        <ele>27.059516</ele>
        <time>2021-11-15T13:05:17.165Z</time>
      </trkpt>
      <trkpt lat="41.51734" lon="41.54588">
        <ele>27.780853</ele>
        <time>2021-11-15T13:05:23.729Z</time>
      </trkpt>
      <trkpt lat="41.51728" lon="41.54555">
        <ele>29.532115</ele>
        <time>2021-11-15T13:05:36.626Z</time>
      </trkpt>
      <trkpt lat="41.51716" lon="41.54525">
        <ele>31.304073</ele>
        <time>2021-11-15T13:05:51.293Z</time>
      </trkpt>
      <trkpt lat="41.51691" lon="41.54498">
        <ele>33.132346</ele>
        <time>2021-11-15T13:06:08.354Z</time>
      </trkpt>
      <trkpt lat="41.51608" lon="41.54473">
        <ele>34.99332</ele>
        <time>2021-11-15T13:06:41.682Z</time>
      </trkpt>
      <trkpt lat="41.51501" lon="41.54422">
        <ele>36.315769</ele>
        <time>2021-11-15T13:07:03.649Z</time>
      </trkpt>
      <trkpt lat="41.51473" lon="41.54415">
        <ele>35.733001</ele>
        <time>2021-11-15T13:07:08.431Z</time>
      </trkpt>
      <trkpt lat="41.51433" lon="41.54405">
        <ele>34.899258</ele>
        <time>2021-11-15T13:07:15.438Z</time>
      </trkpt>
      <trkpt lat="41.51406" lon="41.54389">
        <ele>34.290106</ele>
        <time>2021-11-15T13:07:20.437Z</time>
      </trkpt>
      <trkpt lat="41.51373" lon="41.54356">
        <ele>33.454854</ele>
        <time>2021-11-15T13:07:27.336Z</time>
      </trkpt>
      <trkpt lat="41.51345" lon="41.54338">
        <ele>33.202547</ele>
        <time>2021-11-15T13:07:32.557Z</time>
      </trkpt>
      <trkpt lat="41.51329" lon="41.54332">
        <ele>33.217312</ele>
        <time>2021-11-15T13:07:35.873Z</time>
      </trkpt>
      <trkpt lat="41.51267" lon="41.54333">
        <ele>33.270966</ele>
        <time>2021-11-15T13:07:48.431Z</time>
      </trkpt>
      <trkpt lat="41.51252" lon="41.54332">
        <ele>33.284392</ele>
        <time>2021-11-15T13:07:51.855Z</time>
      </trkpt>
      <trkpt lat="41.51229" lon="41.54319">
        <ele>33.305904</ele>
        <time>2021-11-15T13:07:57.474Z</time>
      </trkpt>
      <trkpt lat="41.51178" lon="41.54282">
        <ele>34.073873</ele>
        <time>2021-11-15T13:08:15.367Z</time>
      </trkpt>
      <trkpt lat="41.51158" lon="41.54254">
        <ele>35.495455</ele>
        <time>2021-11-15T13:08:26.743Z</time>
      </trkpt>
      <trkpt lat="41.51134" lon="41.54199">
        <ele>37.827336</ele>
        <time>2021-11-15T13:08:45.936Z</time>
      </trkpt>
      <trkpt lat="41.51126" lon="41.54187">
        <ele>38.384904</ele>
        <time>2021-11-15T13:08:51.059Z</time>
      </trkpt>
      <trkpt lat="41.51124" lon="41.54173">
        <ele>38.921073</ele>
        <time>2021-11-15T13:08:56.346Z</time>
      </trkpt>
      <trkpt lat="41.51119" lon="41.54138">
        <ele>40.197933</ele>
        <time>2021-11-15T13:09:08.524Z</time>
      </trkpt>
      <trkpt lat="41.51117" lon="41.54101">
        <ele>41.538137</ele>
        <time>2021-11-15T13:09:22.018Z</time>
      </trkpt>
      <trkpt lat="41.51107" lon="41.54018">
        <ele>43.749835</ele>
        <time>2021-11-15T13:09:52.770Z</time>
      </trkpt>
      <trkpt lat="41.51092" lon="41.53976">
        <ele>44.848136</ele>
        <time>2021-11-15T13:10:08.611Z</time>
      </trkpt>
      <trkpt lat="41.51041" lon="41.53897">
        <ele>47.324902</ele>
        <time>2021-11-15T13:10:32.646Z</time>
      </trkpt>
      <trkpt lat="41.50967" lon="41.53808">
        <ele>44.347928</ele>
        <time>2021-11-15T13:10:48.800Z</time>
      </trkpt>
      <trkpt lat="41.5094" lon="41.53787">
        <ele>43.084389</ele>
        <time>2021-11-15T13:10:53.357Z</time>
      </trkpt>
      <trkpt lat="41.50851" lon="41.53732">
        <ele>39.666618</ele>
        <time>2021-11-15T13:11:07.776Z</time>
      </trkpt>
      <trkpt lat="41.50758" lon="41.53682">
        <ele>37.344692</ele>
        <time>2021-11-15T13:11:24.508Z</time>
      </trkpt>
      <trkpt lat="41.50683" lon="41.53598">
        <ele>37.251516</ele>
        <time>2021-11-15T13:11:52.096Z</time>
      </trkpt>
      <trkpt lat="41.50627" lon="41.53545">
        <ele>38.518273</ele>
        <time>2021-11-15T13:12:15.337Z</time>
      </trkpt>
      <trkpt lat="41.50556" lon="41.5351">
        <ele>39.640451</ele>
        <time>2021-11-15T13:12:37.533Z</time>
      </trkpt>
      <trkpt lat="41.50498" lon="41.53491">
        <ele>39.753453</ele>
        <time>2021-11-15T13:12:51.531Z</time>
      </trkpt>
      <trkpt lat="41.50404" lon="41.53451">
        <ele>39.937057</ele>
        <time>2021-11-15T13:13:10.626Z</time>
      </trkpt>
      <trkpt lat="41.50291" lon="41.53383">
        <ele>41.850615</ele>
        <time>2021-11-15T13:13:45.414Z</time>
      </trkpt>
      <trkpt lat="41.50262" lon="41.5337">
        <ele>42.33958</ele>
        <time>2021-11-15T13:13:55.235Z</time>
      </trkpt>
      <trkpt lat="41.50245" lon="41.53361">
        <ele>42.624391</ele>
        <time>2021-11-15T13:14:01.855Z</time>
      </trkpt>
      <trkpt lat="41.50229" lon="41.53348">
        <ele>42.823752</ele>
        <time>2021-11-15T13:14:07.986Z</time>
      </trkpt>
      <trkpt lat="41.5018" lon="41.53309">
        <ele>42.899007</ele>
        <time>2021-11-15T13:14:26.917Z</time>
      </trkpt>
      <trkpt lat="41.50084" lon="41.53248">
        <ele>43.039253</ele>
        <time>2021-11-15T13:14:51.101Z</time>
      </trkpt>
      <trkpt lat="41.49903" lon="41.53186">
        <ele>33.067133</ele>
        <time>2021-11-15T13:15:18.389Z</time>
      </trkpt>
      <trkpt lat="41.49839" lon="41.53182">
        <ele>30.438313</ele>
        <time>2021-11-15T13:15:27.617Z</time>
      </trkpt>
      <trkpt lat="41.49811" lon="41.53184">
        <ele>29.33058</ele>
        <time>2021-11-15T13:15:31.599Z</time>
      </trkpt>
      <trkpt lat="41.4978" lon="41.53185">
        <ele>28.045835</ele>
        <time>2021-11-15T13:15:36.525Z</time>
      </trkpt>
      <trkpt lat="41.49608" lon="41.53193">
        <ele>25.621457</ele>
        <time>2021-11-15T13:16:12.417Z</time>
      </trkpt>
      <trkpt lat="41.49523" lon="41.53182">
        <ele>25.1974</ele>
        <time>2021-11-15T13:16:35.596Z</time>
      </trkpt>
      <trkpt lat="41.49469" lon="41.53167">
        <ele>23.954968</ele>
        <time>2021-11-15T13:16:46.288Z</time>
      </trkpt>
      <trkpt lat="41.49448" lon="41.53162">
        <ele>23.479351</ele>
        <time>2021-11-15T13:16:49.889Z</time>
      </trkpt>
      <trkpt lat="41.49379" lon="41.53139">
        <ele>21.889428</ele>
        <time>2021-11-15T13:17:01.303Z</time>
      </trkpt>
      <trkpt lat="41.49324" lon="41.5312">
        <ele>19.698313</ele>
        <time>2021-11-15T13:17:09.830Z</time>
      </trkpt>
      <trkpt lat="41.49254" lon="41.53098">
        <ele>16.540986</ele>
        <time>2021-11-15T13:17:20.620Z</time>
      </trkpt>
      <trkpt lat="41.492" lon="41.53078">
        <ele>14.095184</ele>
        <time>2021-11-15T13:17:29.281Z</time>
      </trkpt>
      <trkpt lat="41.49198" lon="41.53077">
        <ele>13.976654</ele>
        <time>2021-11-15T13:17:29.730Z</time>
      </trkpt>
      <trkpt lat="41.4916" lon="41.53064">
        <ele>13.503531</ele>
        <time>2021-11-15T13:17:36.371Z</time>
      </trkpt>
      <trkpt lat="41.49047" lon="41.53026">
        <ele>12.847953</ele>
        <time>2021-11-15T13:18:00.966Z</time>
      </trkpt>
      <trkpt lat="41.49029" lon="41.5302">
        <ele>12.740533</ele>
        <time>2021-11-15T13:18:06.669Z</time>
      </trkpt>
      <trkpt lat="41.48979" lon="41.53004">
        <ele>13.017993</ele>
        <time>2021-11-15T13:18:20.983Z</time>
      </trkpt>
      <trkpt lat="41.48907" lon="41.52978">
        <ele>13.696159</ele>
        <time>2021-11-15T13:18:41.451Z</time>
      </trkpt>
      <trkpt lat="41.489" lon="41.52974">
        <ele>13.768061</ele>
        <time>2021-11-15T13:18:44.094Z</time>
      </trkpt>
      <trkpt lat="41.48895" lon="41.52972">
        <ele>13.815296</ele>
        <time>2021-11-15T13:18:45.278Z</time>
      </trkpt>
      <trkpt lat="41.48844" lon="41.52946">
        <ele>14.28724</ele>
        <time>2021-11-15T13:18:58.392Z</time>
      </trkpt>
      <trkpt lat="41.48791" lon="41.52908">
        <ele>13.520016</ele>
        <time>2021-11-15T13:19:10.844Z</time>
      </trkpt>
      <trkpt lat="41.48666" lon="41.52778">
        <ele>11.355467</ele>
        <time>2021-11-15T13:19:38.756Z</time>
      </trkpt>
      <trkpt lat="41.48503" lon="41.52592">
        <ele>8.930392</ele>
        <time>2021-11-15T13:20:17.919Z</time>
      </trkpt>
      <trkpt lat="41.48465" lon="41.52552">
        <ele>8.85283</ele>
        <time>2021-11-15T13:20:29.001Z</time>
      </trkpt>
      <trkpt lat="41.48416" lon="41.52499">
        <ele>9.088394</ele>
        <time>2021-11-15T13:20:44.475Z</time>
      </trkpt>
      <trkpt lat="41.48374" lon="41.52446">
        <ele>12.111567</ele>
        <time>2021-11-15T13:21:03.716Z</time>
      </trkpt>
      <trkpt lat="41.48301" lon="41.52375">
        <ele>16.859557</ele>
        <time>2021-11-15T13:21:45.035Z</time>
      </trkpt>
      <trkpt lat="41.48264" lon="41.52332">
        <ele>20.972202</ele>
        <time>2021-11-15T13:22:14.122Z</time>
      </trkpt>
      <trkpt lat="41.48245" lon="41.52307">
        <ele>24.051059</ele>
        <time>2021-11-15T13:22:31.690Z</time>
      </trkpt>
      <trkpt lat="41.48211" lon="41.5225">
        <ele>30.478652</ele>
        <time>2021-11-15T13:23:09.118Z</time>
      </trkpt>
      <trkpt lat="41.48197" lon="41.52216">
        <ele>33.949539</ele>
        <time>2021-11-15T13:23:31.779Z</time>
      </trkpt>
      <trkpt lat="41.48183" lon="41.5218">
        <ele>37.506876</ele>
        <time>2021-11-15T13:23:56.178Z</time>
      </trkpt>
      <trkpt lat="41.48156" lon="41.52081">
        <ele>46.866928</ele>
        <time>2021-11-15T13:24:55.700Z</time>
      </trkpt>
      <trkpt lat="41.48117" lon="41.51834">
        <ele>65.806294</ele>
        <time>2021-11-15T13:27:02.537Z</time>
      </trkpt>
      <trkpt lat="41.48105" lon="41.51793">
        <ele>68.054813</ele>
        <time>2021-11-15T13:27:20.067Z</time>
      </trkpt>
      <trkpt lat="41.48091" lon="41.51762">
        <ele>69.852873</ele>
        <time>2021-11-15T13:27:33.047Z</time>
      </trkpt>
      <trkpt lat="41.47979" lon="41.5159">
        <ele>70.991392</ele>
        <time>2021-11-15T13:28:12.602Z</time>
      </trkpt>
      <trkpt lat="41.47936" lon="41.51497">
        <ele>68.288576</ele>
        <time>2021-11-15T13:28:24.673Z</time>
      </trkpt>
      <trkpt lat="41.47892" lon="41.51419">
        <ele>63.155842</ele>
        <time>2021-11-15T13:28:35.031Z</time>
      </trkpt>
      <trkpt lat="41.47844" lon="41.51298">
        <ele>56.362043</ele>
        <time>2021-11-15T13:28:49.564Z</time>
      </trkpt>
      <trkpt lat="41.47828" lon="41.51244">
        <ele>54.113912</ele>
        <time>2021-11-15T13:28:55.995Z</time>
      </trkpt>
      <trkpt lat="41.47805" lon="41.51099">
        <ele>48.449431</ele>
        <time>2021-11-15T13:29:12.944Z</time>
      </trkpt>
      <trkpt lat="41.47799" lon="41.51072">
        <ele>48.096375</ele>
        <time>2021-11-15T13:29:16.311Z</time>
      </trkpt>
      <trkpt lat="41.47787" lon="41.51045">
        <ele>47.905241</ele>
        <time>2021-11-15T13:29:20.351Z</time>
      </trkpt>
      <trkpt lat="41.47711" lon="41.50936">
        <ele>47.007801</ele>
        <time>2021-11-15T13:29:43.645Z</time>
      </trkpt>
      <trkpt lat="41.47632" lon="41.50854">
        <ele>48.615058</ele>
        <time>2021-11-15T13:30:12.187Z</time>
      </trkpt>
      <trkpt lat="41.4755" lon="41.50707">
        <ele>52.695758</ele>
        <time>2021-11-15T13:31:00.726Z</time>
      </trkpt>
      <trkpt lat="41.47523" lon="41.50671">
        <ele>54.486976</ele>
        <time>2021-11-15T13:31:15.447Z</time>
      </trkpt>
      <trkpt lat="41.47416" lon="41.50566">
        <ele>60.739466</ele>
        <time>2021-11-15T13:32:12.795Z</time>
      </trkpt>
      <trkpt lat="41.47374" lon="41.50509">
        <ele>63.641737</ele>
        <time>2021-11-15T13:32:40.461Z</time>
      </trkpt>
      <trkpt lat="41.47238" lon="41.50369">
        <ele>67.938482</ele>
        <time>2021-11-15T13:33:47.914Z</time>
      </trkpt>
      <trkpt lat="41.47197" lon="41.50318">
        <ele>67.551685</ele>
        <time>2021-11-15T13:33:56.703Z</time>
      </trkpt>
      <trkpt lat="41.47144" lon="41.5027">
        <ele>66.727547</ele>
        <time>2021-11-15T13:34:06.617Z</time>
      </trkpt>
      <trkpt lat="41.47132" lon="41.50251">
        <ele>66.003507</ele>
        <time>2021-11-15T13:34:09.622Z</time>
      </trkpt>
      <trkpt lat="41.47121" lon="41.50226">
        <ele>65.15904</ele>
        <time>2021-11-15T13:34:12.828Z</time>
      </trkpt>
      <trkpt lat="41.47113" lon="41.50204">
        <ele>64.437659</ele>
        <time>2021-11-15T13:34:15.674Z</time>
      </trkpt>
      <trkpt lat="41.47095" lon="41.50145">
        <ele>62.625614</ele>
        <time>2021-11-15T13:34:22.858Z</time>
      </trkpt>
      <trkpt lat="41.47084" lon="41.5008">
        <ele>60.709147</ele>
        <time>2021-11-15T13:34:30.692Z</time>
      </trkpt>
      <trkpt lat="41.47082" lon="41.4986">
        <ele>58.913547</ele>
        <time>2021-11-15T13:35:05.497Z</time>
      </trkpt>
      <trkpt lat="41.47073" lon="41.49809">
        <ele>58.394104</ele>
        <time>2021-11-15T13:35:13.986Z</time>
      </trkpt>
      <trkpt lat="41.46995" lon="41.4962">
        <ele>54.855636</ele>
        <time>2021-11-15T13:35:41.498Z</time>
      </trkpt>
      <trkpt lat="41.46974" lon="41.49554">
        <ele>54.386286</ele>
        <time>2021-11-15T13:35:50.230Z</time>
      </trkpt>
      <trkpt lat="41.46966" lon="41.49501">
        <ele>54.084013</ele>
        <time>2021-11-15T13:35:57.182Z</time>
      </trkpt>
      <trkpt lat="41.46966" lon="41.49418">
        <ele>53.614954</ele>
        <time>2021-11-15T13:36:09.570Z</time>
      </trkpt>
      <trkpt lat="41.46988" lon="41.49278">
        <ele>57.196575</ele>
        <time>2021-11-15T13:36:48.858Z</time>
      </trkpt>
      <trkpt lat="41.46987" lon="41.49221">
        <ele>59.252403</ele>
        <time>2021-11-15T13:37:09.962Z</time>
      </trkpt>
      <trkpt lat="41.46974" lon="41.49165">
        <ele>61.336192</ele>
        <time>2021-11-15T13:37:31.047Z</time>
      </trkpt>
      <trkpt lat="41.46948" lon="41.49112">
        <ele>62.469501</ele>
        <time>2021-11-15T13:37:52.444Z</time>
      </trkpt>
      <trkpt lat="41.46921" lon="41.49072">
        <ele>63.003702</ele>
        <time>2021-11-15T13:38:08.976Z</time>
      </trkpt>
      <trkpt lat="41.46783" lon="41.489">
        <ele>61.350861</ele>
        <time>2021-11-15T13:38:43.379Z</time>
      </trkpt>
      <trkpt lat="41.46745" lon="41.48861">
        <ele>59.587593</ele>
        <time>2021-11-15T13:38:50.346Z</time>
      </trkpt>
      <trkpt lat="41.46615" lon="41.4877">
        <ele>54.425943</ele>
        <time>2021-11-15T13:39:12.558Z</time>
      </trkpt>
      <trkpt lat="41.46587" lon="41.48737">
        <ele>53.148175</ele>
        <time>2021-11-15T13:39:18.878Z</time>
      </trkpt>
      <trkpt lat="41.46508" lon="41.4863">
        <ele>51.981729</ele>
        <time>2021-11-15T13:39:41.207Z</time>
      </trkpt>
      <trkpt lat="41.46482" lon="41.48586">
        <ele>52.211258</ele>
        <time>2021-11-15T13:39:52.362Z</time>
      </trkpt>
      <trkpt lat="41.46362" lon="41.4835">
        <ele>54.942747</ele>
        <time>2021-11-15T13:40:54.274Z</time>
      </trkpt>
      <trkpt lat="41.46246" lon="41.48194">
        <ele>55.430748</ele>
        <time>2021-11-15T13:41:40.712Z</time>
      </trkpt>
      <trkpt lat="41.4618" lon="41.48116">
        <ele>52.773806</ele>
        <time>2021-11-15T13:41:55.226Z</time>
      </trkpt>
      <trkpt lat="41.46152" lon="41.48057">
        <ele>49.048831</ele>
        <time>2021-11-15T13:42:02.787Z</time>
      </trkpt>
      <trkpt lat="41.46136" lon="41.47959">
        <ele>43.728871</ele>
        <time>2021-11-15T13:42:13.124Z</time>
      </trkpt>
      <trkpt lat="41.46132" lon="41.47894">
        <ele>39.751776</ele>
        <time>2021-11-15T13:42:19.713Z</time>
      </trkpt>
      <trkpt lat="41.46142" lon="41.47675">
        <ele>26.182525</ele>
        <time>2021-11-15T13:42:42.525Z</time>
      </trkpt>
      <trkpt lat="41.46131" lon="41.47613">
        <ele>23.827758</ele>
        <time>2021-11-15T13:42:49.609Z</time>
      </trkpt>
      <trkpt lat="41.46124" lon="41.47591">
        <ele>22.917226</ele>
        <time>2021-11-15T13:42:52.394Z</time>
      </trkpt>
      <trkpt lat="41.4606" lon="41.47471">
        <ele>17.891006</ele>
        <time>2021-11-15T13:43:10.006Z</time>
      </trkpt>
      <trkpt lat="41.46015" lon="41.47416">
        <ele>16.52696</ele>
        <time>2021-11-15T13:43:20.542Z</time>
      </trkpt>
      <trkpt lat="41.45962" lon="41.47379">
        <ele>15.212205</ele>
        <time>2021-11-15T13:43:30.913Z</time>
      </trkpt>
      <trkpt lat="41.45852" lon="41.47339">
        <ele>14.560687</ele>
        <time>2021-11-15T13:43:51.671Z</time>
      </trkpt>
      <trkpt lat="41.45733" lon="41.4729">
        <ele>16.041266</ele>
        <time>2021-11-15T13:44:26.153Z</time>
      </trkpt>
      <trkpt lat="41.45728" lon="41.47289">
        <ele>16.394559</ele>
        <time>2021-11-15T13:44:28.127Z</time>
      </trkpt>
      <trkpt lat="41.45665" lon="41.47279">
        <ele>20.589846</ele>
        <time>2021-11-15T13:44:55.877Z</time>
      </trkpt>
      <trkpt lat="41.45538" lon="41.4726">
        <ele>29.116981</ele>
        <time>2021-11-15T13:46:09.656Z</time>
      </trkpt>
      <trkpt lat="41.45483" lon="41.47238">
        <ele>33.129374</ele>
        <time>2021-11-15T13:46:43.387Z</time>
      </trkpt>
      <trkpt lat="41.454" lon="41.47181">
        <ele>39.595011</ele>
        <time>2021-11-15T13:47:27.785Z</time>
      </trkpt>
      <trkpt lat="41.45301" lon="41.47092">
        <ele>40.528024</ele>
        <time>2021-11-15T13:47:59.489Z</time>
      </trkpt>
      <trkpt lat="41.45265" lon="41.47044">
        <ele>40.925028</ele>
        <time>2021-11-15T13:48:08.468Z</time>
      </trkpt>
      <trkpt lat="41.45228" lon="41.46981">
        <ele>41.085086</ele>
        <time>2021-11-15T13:48:19.452Z</time>
      </trkpt>
      <trkpt lat="41.45206" lon="41.46919">
        <ele>41.176923</ele>
        <time>2021-11-15T13:48:29.181Z</time>
      </trkpt>
      <trkpt lat="41.45079" lon="41.46465">
        <ele>47.952728</ele>
        <time>2021-11-15T13:50:21.848Z</time>
      </trkpt>
      <trkpt lat="41.45057" lon="41.46396">
        <ele>49.381938</ele>
        <time>2021-11-15T13:50:40.375Z</time>
      </trkpt>
      <trkpt lat="41.45026" lon="41.46342">
        <ele>51.862732</ele>
        <time>2021-11-15T13:50:58.768Z</time>
      </trkpt>
      <trkpt lat="41.44982" lon="41.46298">
        <ele>55.15005</ele>
        <time>2021-11-15T13:51:20.254Z</time>
      </trkpt>
      <trkpt lat="41.44878" lon="41.46214">
        <ele>63.623853</ele>
        <time>2021-11-15T13:52:25.812Z</time>
      </trkpt>
      <trkpt lat="41.44741" lon="41.46081">
        <ele>79.139055</ele>
        <time>2021-11-15T13:54:18.054Z</time>
      </trkpt>
      <trkpt lat="41.44645" lon="41.45997">
        <ele>83.091812</ele>
        <time>2021-11-15T13:55:09.704Z</time>
      </trkpt>
      <trkpt lat="41.44502" lon="41.4585">
        <ele>74.397886</ele>
        <time>2021-11-15T13:55:36.354Z</time>
      </trkpt>
      <trkpt lat="41.44448" lon="41.45809">
        <ele>68.600523</ele>
        <time>2021-11-15T13:55:44.452Z</time>
      </trkpt>
      <trkpt lat="41.44389" lon="41.45777">
        <ele>59.47277</ele>
        <time>2021-11-15T13:55:52.810Z</time>
      </trkpt>
      <trkpt lat="41.44201" lon="41.45699">
        <ele>34.027791</ele>
        <time>2021-11-15T13:56:18.387Z</time>
      </trkpt>
      <trkpt lat="41.44142" lon="41.45659">
        <ele>26.241863</ele>
        <time>2021-11-15T13:56:27.526Z</time>
      </trkpt>
      <trkpt lat="41.441" lon="41.4562">
        <ele>24.430972</ele>
        <time>2021-11-15T13:56:34.893Z</time>
      </trkpt>
      <trkpt lat="41.44068" lon="41.45591">
        <ele>24.327159</ele>
        <time>2021-11-15T13:56:41.210Z</time>
      </trkpt>
      <trkpt lat="41.43979" lon="41.45508">
        <ele>24.381731</ele>
        <time>2021-11-15T13:57:14.150Z</time>
      </trkpt>
      <trkpt lat="41.43884" lon="41.45412">
        <ele>36.679674</ele>
        <time>2021-11-15T13:58:29.580Z</time>
      </trkpt>
      <trkpt lat="41.43858" lon="41.45368">
        <ele>41.006879</ele>
        <time>2021-11-15T13:59:01.735Z</time>
      </trkpt>
      <trkpt lat="41.4383" lon="41.45306">
        <ele>47.007833</ele>
        <time>2021-11-15T13:59:44.530Z</time>
      </trkpt>
      <trkpt lat="41.438" lon="41.45258">
        <ele>52.381332</ele>
        <time>2021-11-15T14:00:20.776Z</time>
      </trkpt>
      <trkpt lat="41.43755" lon="41.45211">
        <ele>58.790558</ele>
        <time>2021-11-15T14:00:59.996Z</time>
      </trkpt>
      <trkpt lat="41.43686" lon="41.45161">
        <ele>64.237324</ele>
        <time>2021-11-15T14:01:41.192Z</time>
      </trkpt>
      <trkpt lat="41.43553" lon="41.45078">
        <ele>67.956355</ele>
        <time>2021-11-15T14:02:22.517Z</time>
      </trkpt>
      <trkpt lat="41.43443" lon="41.45022">
        <ele>65.66254</ele>
        <time>2021-11-15T14:02:42.227Z</time>
      </trkpt>
      <trkpt lat="41.43346" lon="41.44981">
        <ele>64.690946</ele>
        <time>2021-11-15T14:02:59.463Z</time>
      </trkpt>
      <trkpt lat="41.43283" lon="41.4494">
        <ele>64.806966</ele>
        <time>2021-11-15T14:03:12.900Z</time>
      </trkpt>
      <trkpt lat="41.43042" lon="41.4476">
        <ele>72.125037</ele>
        <time>2021-11-15T14:04:54.268Z</time>
      </trkpt>
      <trkpt lat="41.42929" lon="41.44653">
        <ele>75.64334</ele>
        <time>2021-11-15T14:05:43.770Z</time>
      </trkpt>
      <trkpt lat="41.4277" lon="41.44471">
        <ele>70.327624</ele>
        <time>2021-11-15T14:06:18.757Z</time>
      </trkpt>
      <trkpt lat="41.42657" lon="41.44354">
        <ele>62.652805</ele>
        <time>2021-11-15T14:06:39.731Z</time>
      </trkpt>
      <trkpt lat="41.42532" lon="41.44257">
        <ele>52.353212</ele>
        <time>2021-11-15T14:07:00.539Z</time>
      </trkpt>
      <trkpt lat="41.42185" lon="41.44033">
        <ele>19.698781</ele>
        <time>2021-11-15T14:07:53.918Z</time>
      </trkpt>
      <trkpt lat="41.42116" lon="41.43957">
        <ele>14.572104</ele>
        <time>2021-11-15T14:08:06.745Z</time>
      </trkpt>
      <trkpt lat="41.42033" lon="41.43844">
        <ele>9.178744</ele>
        <time>2021-11-15T14:08:25.473Z</time>
      </trkpt>
      <trkpt lat="41.41997" lon="41.43811">
        <ele>9.407237</ele>
        <time>2021-11-15T14:08:33.916Z</time>
      </trkpt>
      <trkpt lat="41.41923" lon="41.43778">
        <ele>9.817685</ele>
        <time>2021-11-15T14:08:53.994Z</time>
      </trkpt>
      <trkpt lat="41.41894" lon="41.43774">
        <ele>9.972904</ele>
        <time>2021-11-15T14:09:03.199Z</time>
      </trkpt>
      <trkpt lat="41.41783" lon="41.43781">
        <ele>12.59769</ele>
        <time>2021-11-15T14:09:41.860Z</time>
      </trkpt>
      <trkpt lat="41.4174" lon="41.43768">
        <ele>13.847321</ele>
        <time>2021-11-15T14:09:57.412Z</time>
      </trkpt>
      <trkpt lat="41.41524" lon="41.43625">
        <ele>19.436082</ele>
        <time>2021-11-15T14:11:14.078Z</time>
      </trkpt>
      <trkpt lat="41.4138" lon="41.43539">
        <ele>20.654128</ele>
        <time>2021-11-15T14:11:54.995Z</time>
      </trkpt>
      <trkpt lat="41.4073" lon="41.43085">
        <ele>10.068689</ele>
        <time>2021-11-15T14:14:08.931Z</time>
      </trkpt>
      <trkpt lat="41.40607" lon="41.42989">
        <ele>8.606095</ele>
        <time>2021-11-15T14:14:35.655Z</time>
      </trkpt>
      <trkpt lat="41.40558" lon="41.42939">
        <ele>9.086483</ele>
        <time>2021-11-15T14:14:48.178Z</time>
      </trkpt>
      <trkpt lat="41.40529" lon="41.429">
        <ele>10.225955</ele>
        <time>2021-11-15T14:15:00.629Z</time>
      </trkpt>
      <trkpt lat="41.40524" lon="41.42893">
        <ele>10.413382</ele>
        <time>2021-11-15T14:15:02.917Z</time>
      </trkpt>
      <trkpt lat="41.40517" lon="41.42885">
        <ele>10.668928</ele>
        <time>2021-11-15T14:15:06.393Z</time>
      </trkpt>
      <trkpt lat="41.4051" lon="41.42878">
        <ele>10.90406</ele>
        <time>2021-11-15T14:15:09.969Z</time>
      </trkpt>
      <trkpt lat="41.40506" lon="41.42873">
        <ele>11.061525</ele>
        <time>2021-11-15T14:15:12.229Z</time>
      </trkpt>
      <trkpt lat="41.40502" lon="41.42874">
        <ele>11.15747</ele>
        <time>2021-11-15T14:15:13.945Z</time>
      </trkpt>
      <trkpt lat="41.40492" lon="41.42885">
        <ele>11.504913</ele>
        <time>2021-11-15T14:15:19.370Z</time>
      </trkpt>
      <trkpt lat="41.4049" lon="41.42889">
        <ele>11.621645</ele>
        <time>2021-11-15T14:15:20.923Z</time>
      </trkpt>
      <trkpt lat="41.40484" lon="41.42897">
        <ele>11.83903</ele>
        <time>2021-11-15T14:15:24.003Z</time>
      </trkpt>
      <trkpt lat="41.4048" lon="41.42903">
        <ele>12.014865</ele>
        <time>2021-11-15T14:15:26.406Z</time>
      </trkpt>
      <trkpt lat="41.40477" lon="41.42906">
        <ele>12.11295</ele>
        <time>2021-11-15T14:15:28.012Z</time>
      </trkpt>
      <trkpt lat="41.4047" lon="41.42912">
        <ele>12.33474</ele>
        <time>2021-11-15T14:15:31.382Z</time>
      </trkpt>
      <trkpt lat="41.40467" lon="41.42915">
        <ele>12.440462</ele>
        <time>2021-11-15T14:15:33.074Z</time>
      </trkpt>
      <trkpt lat="41.40463" lon="41.42919">
        <ele>12.582563</ele>
        <time>2021-11-15T14:15:34.902Z</time>
      </trkpt>
      <trkpt lat="41.40459" lon="41.42925">
        <ele>12.753077</ele>
        <time>2021-11-15T14:15:37.192Z</time>
      </trkpt>
      <trkpt lat="41.40452" lon="41.4293">
        <ele>12.966313</ele>
        <time>2021-11-15T14:15:40.102Z</time>
      </trkpt>
      <trkpt lat="41.40408" lon="41.42959">
        <ele>14.259579</ele>
        <time>2021-11-15T14:15:59.183Z</time>
      </trkpt>
      <trkpt lat="41.40373" lon="41.42984">
        <ele>15.303496</ele>
        <time>2021-11-15T14:16:14.426Z</time>
      </trkpt>
      <trkpt lat="41.40344" lon="41.42949">
        <ele>16.327417</ele>
        <time>2021-11-15T14:16:29.123Z</time>
      </trkpt>
      <trkpt lat="41.40229" lon="41.42793">
        <ele>17.147225</ele>
        <time>2021-11-15T14:17:05.822Z</time>
      </trkpt>
      <trkpt lat="41.40199" lon="41.42749">
        <ele>16.825598</ele>
        <time>2021-11-15T14:17:13.473Z</time>
      </trkpt>
      <trkpt lat="41.40148" lon="41.42657">
        <ele>16.401222</ele>
        <time>2021-11-15T14:17:28.803Z</time>
      </trkpt>
      <trkpt lat="41.39936" lon="41.42478">
        <ele>17.291255</ele>
        <time>2021-11-15T14:18:28.304Z</time>
      </trkpt>
      <trkpt lat="41.39921" lon="41.42466">
        <ele>17.477734</ele>
        <time>2021-11-15T14:18:33.973Z</time>
      </trkpt>
      <trkpt lat="41.39897" lon="41.42441">
        <ele>17.806312</ele>
        <time>2021-11-15T14:18:44.309Z</time>
      </trkpt>
      <trkpt lat="41.3976" lon="41.42295">
        <ele>21.084536</ele>
        <time>2021-11-15T14:19:39.975Z</time>
      </trkpt>
      <trkpt lat="41.39596" lon="41.42152">
        <ele>20.419002</ele>
        <time>2021-11-15T14:20:18.998Z</time>
      </trkpt>
      <trkpt lat="41.39519" lon="41.42077">
        <ele>19.055694</ele>
        <time>2021-11-15T14:20:37.538Z</time>
      </trkpt>
      <trkpt lat="41.39509" lon="41.42061">
        <ele>18.827248</ele>
        <time>2021-11-15T14:20:40.272Z</time>
      </trkpt>
      <trkpt lat="41.39493" lon="41.42092">
        <ele>18.437156</ele>
        <time>2021-11-15T14:20:45.628Z</time>
      </trkpt>
      <trkpt lat="41.39408" lon="41.42042">
        <ele>16.30494</ele>
        <time>2021-11-15T14:21:02.350Z</time>
      </trkpt>
      <trkpt lat="41.39381" lon="41.42088">
        <ele>15.090136</ele>
        <time>2021-11-15T14:21:09.931Z</time>
      </trkpt>
      <trkpt lat="41.39366" lon="41.42108">
        <ele>14.465021</ele>
        <time>2021-11-15T14:21:13.611Z</time>
      </trkpt>
      <trkpt lat="41.39333" lon="41.42127">
        <ele>13.459261</ele>
        <time>2021-11-15T14:21:19.589Z</time>
      </trkpt>
      <trkpt lat="41.39291" lon="41.42137">
        <ele>12.488059</ele>
        <time>2021-11-15T14:21:26.997Z</time>
      </trkpt>
      <trkpt lat="41.39224" lon="41.42152">
        <ele>11.322883</ele>
        <time>2021-11-15T14:21:39.054Z</time>
      </trkpt>
      <trkpt lat="41.39182" lon="41.42247">
        <ele>9.905314</ele>
        <time>2021-11-15T14:21:55.190Z</time>
      </trkpt>
      <trkpt lat="41.39155" lon="41.42329">
        <ele>10.136163</ele>
        <time>2021-11-15T14:22:09.723Z</time>
      </trkpt>
      <trkpt lat="41.39144" lon="41.42379">
        <ele>10.377925</ele>
        <time>2021-11-15T14:22:19.432Z</time>
      </trkpt>
      <trkpt lat="41.39134" lon="41.42493">
        <ele>10.972837</ele>
        <time>2021-11-15T14:22:42.963Z</time>
      </trkpt>
      <trkpt lat="41.39123" lon="41.42551">
        <ele>11.784845</ele>
        <time>2021-11-15T14:22:55.574Z</time>
      </trkpt>
      <trkpt lat="41.39111" lon="41.42613">
        <ele>12.65266</ele>
        <time>2021-11-15T14:23:10.287Z</time>
      </trkpt>
      <trkpt lat="41.39098" lon="41.42745">
        <ele>14.389182</ele>
        <time>2021-11-15T14:23:40.220Z</time>
      </trkpt>
      <trkpt lat="41.3908" lon="41.42782">
        <ele>14.872106</ele>
        <time>2021-11-15T14:23:50.663Z</time>
      </trkpt>
      <trkpt lat="41.39076" lon="41.42815">
        <ele>15.227118</ele>
        <time>2021-11-15T14:23:57.566Z</time>
      </trkpt>
      <trkpt lat="41.39046" lon="41.42948">
        <ele>16.721135</ele>
        <time>2021-11-15T14:24:25.308Z</time>
      </trkpt>
      <trkpt lat="41.39029" lon="41.42982">
        <ele>17.31844</ele>
        <time>2021-11-15T14:24:33.400Z</time>
      </trkpt>
      <trkpt lat="41.38997" lon="41.43023">
        <ele>18.177375</ele>
        <time>2021-11-15T14:24:45.475Z</time>
      </trkpt>
      <trkpt lat="41.38972" lon="41.43086">
        <ele>19.229119</ele>
        <time>2021-11-15T14:25:01.536Z</time>
      </trkpt>
      <trkpt lat="41.38965" lon="41.43123">
        <ele>19.776706</ele>
        <time>2021-11-15T14:25:10.398Z</time>
      </trkpt>
      <trkpt lat="41.38959" lon="41.43192">
        <ele>21.072769</ele>
        <time>2021-11-15T14:25:29.916Z</time>
      </trkpt>
      <trkpt lat="41.3896" lon="41.4328">
        <ele>22.946168</ele>
        <time>2021-11-15T14:25:51.986Z</time>
      </trkpt>
      <trkpt lat="41.38984" lon="41.43325">
        <ele>24.13799</ele>
        <time>2021-11-15T14:26:08.192Z</time>
      </trkpt>
      <trkpt lat="41.38988" lon="41.43365">
        <ele>25.000184</ele>
        <time>2021-11-15T14:26:16.210Z</time>
      </trkpt>
      <trkpt lat="41.38984" lon="41.43371">
        <ele>25.159583</ele>
        <time>2021-11-15T14:26:19.809Z</time>
      </trkpt>
      <trkpt lat="41.38979" lon="41.43381">
        <ele>25.384118</ele>
        <time>2021-11-15T14:26:21.503Z</time>
      </trkpt>
      <trkpt lat="41.3896" lon="41.43395">
        <ele>25.612203</ele>
        <time>2021-11-15T14:26:27.400Z</time>
      </trkpt>
      <trkpt lat="41.38924" lon="41.43392">
        <ele>25.990794</ele>
        <time>2021-11-15T14:26:37.935Z</time>
      </trkpt>
      <trkpt lat="41.38912" lon="41.43397">
        <ele>26.12215</ele>
        <time>2021-11-15T14:26:42.079Z</time>
      </trkpt>
      <trkpt lat="41.38902" lon="41.43413">
        <ele>26.286324</ele>
        <time>2021-11-15T14:26:45.849Z</time>
      </trkpt>
      <trkpt lat="41.38884" lon="41.4351">
        <ele>27.075012</ele>
        <time>2021-11-15T14:27:04.886Z</time>
      </trkpt>
      <trkpt lat="41.38878" lon="41.43533">
        <ele>27.25036</ele>
        <time>2021-11-15T14:27:08.446Z</time>
      </trkpt>
      <trkpt lat="41.38871" lon="41.43561">
        <ele>27.237908</ele>
        <time>2021-11-15T14:27:13.220Z</time>
      </trkpt>
      <trkpt lat="41.38865" lon="41.4358">
        <ele>27.229241</ele>
        <time>2021-11-15T14:27:16.330Z</time>
      </trkpt>
      <trkpt lat="41.38845" lon="41.43598">
        <ele>27.215097</ele>
        <time>2021-11-15T14:27:21.784Z</time>
      </trkpt>
      <trkpt lat="41.38835" lon="41.43625">
        <ele>27.202399</ele>
        <time>2021-11-15T14:27:26.664Z</time>
      </trkpt>
      <trkpt lat="41.3882" lon="41.43718">
        <ele>27.161937</ele>
        <time>2021-11-15T14:27:42.494Z</time>
      </trkpt>
      <trkpt lat="41.38818" lon="41.43768">
        <ele>27.124036</ele>
        <time>2021-11-15T14:27:50.862Z</time>
      </trkpt>
      <trkpt lat="41.38807" lon="41.43804">
        <ele>27.074602</ele>
        <time>2021-11-15T14:27:57.092Z</time>
      </trkpt>
      <trkpt lat="41.38801" lon="41.43894">
        <ele>26.958902</ele>
        <time>2021-11-15T14:28:11.524Z</time>
      </trkpt>
      <trkpt lat="41.38804" lon="41.4395">
        <ele>26.888089</ele>
        <time>2021-11-15T14:28:20.500Z</time>
      </trkpt>
      <trkpt lat="41.38787" lon="41.44017">
        <ele>27.07087</ele>
        <time>2021-11-15T14:28:32.221Z</time>
      </trkpt>
      <trkpt lat="41.38787" lon="41.44046">
        <ele>27.248801</ele>
        <time>2021-11-15T14:28:37.159Z</time>
      </trkpt>
      <trkpt lat="41.38798" lon="41.44074">
        <ele>27.44607</ele>
        <time>2021-11-15T14:28:42.678Z</time>
      </trkpt>
      <trkpt lat="41.38803" lon="41.44102">
        <ele>27.621692</ele>
        <time>2021-11-15T14:28:47.650Z</time>
      </trkpt>
      <trkpt lat="41.3882" lon="41.44405">
        <ele>31.329628</ele>
        <time>2021-11-15T14:29:53.311Z</time>
      </trkpt>
      <trkpt lat="41.38827" lon="41.44431">
        <ele>31.768201</ele>
        <time>2021-11-15T14:30:00.403Z</time>
      </trkpt>
      <trkpt lat="41.38842" lon="41.44467">
        <ele>32.63174</ele>
        <time>2021-11-15T14:30:11.521Z</time>
      </trkpt>
      <trkpt lat="41.3885" lon="41.44486">
        <ele>33.21487</ele>
        <time>2021-11-15T14:30:17.823Z</time>
      </trkpt>
      <trkpt lat="41.38934" lon="41.44629">
        <ele>38.092416</ele>
        <time>2021-11-15T14:31:09.642Z</time>
      </trkpt>
      <trkpt lat="41.38957" lon="41.4472">
        <ele>39.676818</ele>
        <time>2021-11-15T14:31:33.835Z</time>
      </trkpt>
      <trkpt lat="41.38957" lon="41.44759">
        <ele>40.236271</ele>
        <time>2021-11-15T14:31:42.872Z</time>
      </trkpt>
      <trkpt lat="41.38933" lon="41.44833">
        <ele>41.382716</ele>
        <time>2021-11-15T14:31:59.776Z</time>
      </trkpt>
      <trkpt lat="41.389" lon="41.44863">
        <ele>42.004269</ele>
        <time>2021-11-15T14:32:09.830Z</time>
      </trkpt>
      <trkpt lat="41.38886" lon="41.44889">
        <ele>42.069181</ele>
        <time>2021-11-15T14:32:15.551Z</time>
      </trkpt>
      <trkpt lat="41.38871" lon="41.44944">
        <ele>42.183901</ele>
        <time>2021-11-15T14:32:25.269Z</time>
      </trkpt>
      <trkpt lat="41.38864" lon="41.45003">
        <ele>42.304281</ele>
        <time>2021-11-15T14:32:35.448Z</time>
      </trkpt>
      <trkpt lat="41.3887" lon="41.45013">
        <ele>42.329382</ele>
        <time>2021-11-15T14:32:37.738Z</time>
      </trkpt>
      <trkpt lat="41.3893" lon="41.44999">
        <ele>42.496112</ele>
        <time>2021-11-15T14:32:51.862Z</time>
      </trkpt>
      <trkpt lat="41.38964" lon="41.45005">
        <ele>42.598854</ele>
        <time>2021-11-15T14:32:59.589Z</time>
      </trkpt>
      <trkpt lat="41.38981" lon="41.45021">
        <ele>42.6613</ele>
        <time>2021-11-15T14:33:04.372Z</time>
      </trkpt>
      <trkpt lat="41.38985" lon="41.45037">
        <ele>42.699762</ele>
        <time>2021-11-15T14:33:07.252Z</time>
      </trkpt>
      <trkpt lat="41.38985" lon="41.45051">
        <ele>42.732465</ele>
        <time>2021-11-15T14:33:09.776Z</time>
      </trkpt>
      <trkpt lat="41.3898" lon="41.45074">
        <ele>42.785681</ele>
        <time>2021-11-15T14:33:14.116Z</time>
      </trkpt>
      <trkpt lat="41.38954" lon="41.45096">
        <ele>42.877687</ele>
        <time>2021-11-15T14:33:21.283Z</time>
      </trkpt>
      <trkpt lat="41.38919" lon="41.45121">
        <ele>42.999413</ele>
        <time>2021-11-15T14:33:30.959Z</time>
      </trkpt>
      <trkpt lat="41.38913" lon="41.45137">
        <ele>43.030094</ele>
        <time>2021-11-15T14:33:34.012Z</time>
      </trkpt>
      <trkpt lat="41.3891" lon="41.45161">
        <ele>43.072067</ele>
        <time>2021-11-15T14:33:38.532Z</time>
      </trkpt>
      <trkpt lat="41.38917" lon="41.45186">
        <ele>43.116667</ele>
        <time>2021-11-15T14:33:43.151Z</time>
      </trkpt>
      <trkpt lat="41.38915" lon="41.45205">
        <ele>43.150069</ele>
        <time>2021-11-15T14:33:46.705Z</time>
      </trkpt>
      <trkpt lat="41.38896" lon="41.45249">
        <ele>43.237416</ele>
        <time>2021-11-15T14:33:55.204Z</time>
      </trkpt>
      <trkpt lat="41.38891" lon="41.45275">
        <ele>43.282637</ele>
        <time>2021-11-15T14:33:59.682Z</time>
      </trkpt>
      <trkpt lat="41.38893" lon="41.45304">
        <ele>43.331915</ele>
        <time>2021-11-15T14:34:04.599Z</time>
      </trkpt>
      <trkpt lat="41.38913" lon="41.45382">
        <ele>43.500112</ele>
        <time>2021-11-15T14:34:18.926Z</time>
      </trkpt>
      <trkpt lat="41.38897" lon="41.4542">
        <ele>43.608154</ele>
        <time>2021-11-15T14:34:26.367Z</time>
      </trkpt>
      <trkpt lat="41.38896" lon="41.45467">
        <ele>43.724788</ele>
        <time>2021-11-15T14:34:34.561Z</time>
      </trkpt>
      <trkpt lat="41.38911" lon="41.45537">
        <ele>43.903614</ele>
        <time>2021-11-15T14:34:47.465Z</time>
      </trkpt>
      <trkpt lat="41.38911" lon="41.45553">
        <ele>43.94223</ele>
        <time>2021-11-15T14:34:50.301Z</time>
      </trkpt>
      <trkpt lat="41.38904" lon="41.45574">
        <ele>43.999202</ele>
        <time>2021-11-15T14:34:54.479Z</time>
      </trkpt>
      <trkpt lat="41.38911" lon="41.45605">
        <ele>44.281226</ele>
        <time>2021-11-15T14:35:00.463Z</time>
      </trkpt>
      <trkpt lat="41.3891" lon="41.45648">
        <ele>44.673069</ele>
        <time>2021-11-15T14:35:08.916Z</time>
      </trkpt>
      <trkpt lat="41.38915" lon="41.4568">
        <ele>44.958159</ele>
        <time>2021-11-15T14:35:15.197Z</time>
      </trkpt>
      <trkpt lat="41.38936" lon="41.45757">
        <ele>45.69652</ele>
        <time>2021-11-15T14:35:32.143Z</time>
      </trkpt>
      <trkpt lat="41.3896" lon="41.45791">
        <ele>46.11689</ele>
        <time>2021-11-15T14:35:42.316Z</time>
      </trkpt>
      <trkpt lat="41.38961" lon="41.45801">
        <ele>46.256205</ele>
        <time>2021-11-15T14:35:44.575Z</time>
      </trkpt>
      <trkpt lat="41.38942" lon="41.45838">
        <ele>46.99702</ele>
        <time>2021-11-15T14:35:54.622Z</time>
      </trkpt>
      <trkpt lat="41.38938" lon="41.45853">
        <ele>47.25716</ele>
        <time>2021-11-15T14:35:58.245Z</time>
      </trkpt>
      <trkpt lat="41.38943" lon="41.45872">
        <ele>47.597233</ele>
        <time>2021-11-15T14:36:03.001Z</time>
      </trkpt>
      <trkpt lat="41.38983" lon="41.45905">
        <ele>48.648881</ele>
        <time>2021-11-15T14:36:18.026Z</time>
      </trkpt>
      <trkpt lat="41.38985" lon="41.45916">
        <ele>48.830064</ele>
        <time>2021-11-15T14:36:20.634Z</time>
      </trkpt>
      <trkpt lat="41.3898" lon="41.4593">
        <ele>49.090493</ele>
        <time>2021-11-15T14:36:24.354Z</time>
      </trkpt>
      <trkpt lat="41.38968" lon="41.45938">
        <ele>49.385613</ele>
        <time>2021-11-15T14:36:28.613Z</time>
      </trkpt>
      <trkpt lat="41.38946" lon="41.45942">
        <ele>49.880256</ele>
        <time>2021-11-15T14:36:35.684Z</time>
      </trkpt>
      <trkpt lat="41.38937" lon="41.45955">
        <ele>50.173025</ele>
        <time>2021-11-15T14:36:39.928Z</time>
      </trkpt>
      <trkpt lat="41.3893" lon="41.45992">
        <ele>50.785504</ele>
        <time>2021-11-15T14:36:49.123Z</time>
      </trkpt>
      <trkpt lat="41.3892" lon="41.46009">
        <ele>51.137531</ele>
        <time>2021-11-15T14:36:54.456Z</time>
      </trkpt>
      <trkpt lat="41.38915" lon="41.46028">
        <ele>51.452588</ele>
        <time>2021-11-15T14:36:59.067Z</time>
      </trkpt>
      <trkpt lat="41.38926" lon="41.46055">
        <ele>51.944823</ele>
        <time>2021-11-15T14:37:06.438Z</time>
      </trkpt>
      <trkpt lat="41.38943" lon="41.46079">
        <ele>52.478569</ele>
        <time>2021-11-15T14:37:14.150Z</time>
      </trkpt>
      <trkpt lat="41.38974" lon="41.46104">
        <ele>53.25403</ele>
        <time>2021-11-15T14:37:25.361Z</time>
      </trkpt>
      <trkpt lat="41.38981" lon="41.46115">
        <ele>53.485513</ele>
        <time>2021-11-15T14:37:28.716Z</time>
      </trkpt>
      <trkpt lat="41.38988" lon="41.46197">
        <ele>54.242699</ele>
        <time>2021-11-15T14:37:46.315Z</time>
      </trkpt>
      <trkpt lat="41.38998" lon="41.46216">
        <ele>54.358175</ele>
        <time>2021-11-15T14:37:50.939Z</time>
      </trkpt>
      <trkpt lat="41.39009" lon="41.46225">
        <ele>54.442664</ele>
        <time>2021-11-15T14:37:54.179Z</time>
      </trkpt>
      <trkpt lat="41.39011" lon="41.46234">
        <ele>54.490406</ele>
        <time>2021-11-15T14:37:56.005Z</time>
      </trkpt>
      <trkpt lat="41.39004" lon="41.46271">
        <ele>54.675973</ele>
        <time>2021-11-15T14:38:02.823Z</time>
      </trkpt>
      <trkpt lat="41.39019" lon="41.46325">
        <ele>54.956121</ele>
        <time>2021-11-15T14:38:12.706Z</time>
      </trkpt>
      <trkpt lat="41.39032" lon="41.46353">
        <ele>55.115419</ele>
        <time>2021-11-15T14:38:18.126Z</time>
      </trkpt>
      <trkpt lat="41.39058" lon="41.46414">
        <ele>55.325569</ele>
        <time>2021-11-15T14:38:29.636Z</time>
      </trkpt>
      <trkpt lat="41.39085" lon="41.4646">
        <ele>55.477008</ele>
        <time>2021-11-15T14:38:39.358Z</time>
      </trkpt>
      <trkpt lat="41.39101" lon="41.46474">
        <ele>55.545137</ele>
        <time>2021-11-15T14:38:43.877Z</time>
      </trkpt>
      <trkpt lat="41.39124" lon="41.46556">
        <ele>55.773966</ele>
        <time>2021-11-15T14:38:59.830Z</time>
      </trkpt>
      <trkpt lat="41.39123" lon="41.46605">
        <ele>56.23018</ele>
        <time>2021-11-15T14:39:09.874Z</time>
      </trkpt>
      <trkpt lat="41.39128" lon="41.46637">
        <ele>56.575909</ele>
        <time>2021-11-15T14:39:16.885Z</time>
      </trkpt>
      <trkpt lat="41.39122" lon="41.46668">
        <ele>56.9258</ele>
        <time>2021-11-15T14:39:24.053Z</time>
      </trkpt>
      <trkpt lat="41.39122" lon="41.46699">
        <ele>57.256075</ele>
        <time>2021-11-15T14:39:30.818Z</time>
      </trkpt>
      <trkpt lat="41.39094" lon="41.46768">
        <ele>58.093095</ele>
        <time>2021-11-15T14:39:47.674Z</time>
      </trkpt>
      <trkpt lat="41.39088" lon="41.46868">
        <ele>59.6541</ele>
        <time>2021-11-15T14:40:08.064Z</time>
      </trkpt>
      <trkpt lat="41.39066" lon="41.46923">
        <ele>60.719208</ele>
        <time>2021-11-15T14:40:19.881Z</time>
      </trkpt>
      <trkpt lat="41.3906" lon="41.46949">
        <ele>61.175673</ele>
        <time>2021-11-15T14:40:25.195Z</time>
      </trkpt>
      <trkpt lat="41.39061" lon="41.46991">
        <ele>61.903783</ele>
        <time>2021-11-15T14:40:36.205Z</time>
      </trkpt>
      <trkpt lat="41.39065" lon="41.47086">
        <ele>65.602143</ele>
        <time>2021-11-15T14:41:07.636Z</time>
      </trkpt>
      <trkpt lat="41.39062" lon="41.4711">
        <ele>66.808822</ele>
        <time>2021-11-15T14:41:17.281Z</time>
      </trkpt>
      <trkpt lat="41.39049" lon="41.47106">
        <ele>67.751395</ele>
        <time>2021-11-15T14:41:22.747Z</time>
      </trkpt>
      <trkpt lat="41.39019" lon="41.47096">
        <ele>69.822305</ele>
        <time>2021-11-15T14:41:38.585Z</time>
      </trkpt>
      <trkpt lat="41.3901" lon="41.47094">
        <ele>70.411861</ele>
        <time>2021-11-15T14:41:42.801Z</time>
      </trkpt>
      <trkpt lat="41.39007" lon="41.47114">
        <ele>71.454817</ele>
        <time>2021-11-15T14:41:52.389Z</time>
      </trkpt>
      <trkpt lat="41.38983" lon="41.47233">
        <ele>77.728638</ele>
        <time>2021-11-15T14:42:42.034Z</time>
      </trkpt>
      <trkpt lat="41.38973" lon="41.47313">
        <ele>81.944176</ele>
        <time>2021-11-15T14:43:16.376Z</time>
      </trkpt>
      <trkpt lat="41.3899" lon="41.47456">
        <ele>88.750784</ele>
        <time>2021-11-15T14:44:02.302Z</time>
      </trkpt>
      <trkpt lat="41.38992" lon="41.47522">
        <ele>91.154977</ele>
        <time>2021-11-15T14:44:22.714Z</time>
      </trkpt>
      <trkpt lat="41.38974" lon="41.476">
        <ele>94.154389</ele>
        <time>2021-11-15T14:44:48.450Z</time>
      </trkpt>
      <trkpt lat="41.38945" lon="41.47692">
        <ele>97.421391</ele>
        <time>2021-11-15T14:45:20.540Z</time>
      </trkpt>
      <trkpt lat="41.38921" lon="41.4786">
        <ele>102.369549</ele>
        <time>2021-11-15T14:46:06.850Z</time>
      </trkpt>
      <trkpt lat="41.3892" lon="41.47886">
        <ele>103.022955</ele>
        <time>2021-11-15T14:46:13.880Z</time>
      </trkpt>
      <trkpt lat="41.38918" lon="41.47913">
        <ele>103.595229</ele>
        <time>2021-11-15T14:46:20.927Z</time>
      </trkpt>
      <trkpt lat="41.38921" lon="41.47953">
        <ele>104.422776</ele>
        <time>2021-11-15T14:46:31.517Z</time>
      </trkpt>
      <trkpt lat="41.38922" lon="41.47968">
        <ele>104.737289</ele>
        <time>2021-11-15T14:46:34.717Z</time>
      </trkpt>
      <trkpt lat="41.38922" lon="41.47972">
        <ele>104.818565</ele>
        <time>2021-11-15T14:46:35.855Z</time>
      </trkpt>
      <trkpt lat="41.38923" lon="41.47988">
        <ele>105.138256</ele>
        <time>2021-11-15T14:46:39.712Z</time>
      </trkpt>
      <trkpt lat="41.38923" lon="41.47992">
        <ele>105.223433</ele>
        <time>2021-11-15T14:46:41.189Z</time>
      </trkpt>
      <trkpt lat="41.38923" lon="41.48014">
        <ele>105.683674</ele>
        <time>2021-11-15T14:46:45.728Z</time>
      </trkpt>
      <trkpt lat="41.38921" lon="41.48052">
        <ele>106.47048</ele>
        <time>2021-11-15T14:46:54.803Z</time>
      </trkpt>
      <trkpt lat="41.38918" lon="41.48075">
        <ele>106.964666</ele>
        <time>2021-11-15T14:47:00.130Z</time>
      </trkpt>
      <trkpt lat="41.38852" lon="41.48496">
        <ele>117.711283</ele>
        <time>2021-11-15T14:48:50.098Z</time>
      </trkpt>
      <trkpt lat="41.38843" lon="41.48563">
        <ele>119.827307</ele>
        <time>2021-11-15T14:49:08.774Z</time>
      </trkpt>
      <trkpt lat="41.38834" lon="41.48609">
        <ele>123.889893</ele>
        <time>2021-11-15T14:49:23.532Z</time>
      </trkpt>
      <trkpt lat="41.38809" lon="41.48718">
        <ele>137.754383</ele>
        <time>2021-11-15T14:50:33.367Z</time>
      </trkpt>
      <trkpt lat="41.3879" lon="41.48774">
        <ele>145.321854</ele>
        <time>2021-11-15T14:51:26.084Z</time>
      </trkpt>
      <trkpt lat="41.38778" lon="41.4881">
        <ele>150.24763</ele>
        <time>2021-11-15T14:52:00.151Z</time>
      </trkpt>
      <trkpt lat="41.3874" lon="41.48892">
        <ele>163.297054</ele>
        <time>2021-11-15T14:53:21.353Z</time>
      </trkpt>
      <trkpt lat="41.38718" lon="41.4893">
        <ele>169.86327</ele>
        <time>2021-11-15T14:54:02.060Z</time>
      </trkpt>
      <trkpt lat="41.38614" lon="41.49125">
        <ele>189.273144</ele>
        <time>2021-11-15T14:56:03.123Z</time>
      </trkpt>
      <trkpt lat="41.38457" lon="41.49446">
        <ele>190.423097</ele>
        <time>2021-11-15T14:56:58.148Z</time>
      </trkpt>
      <trkpt lat="41.38389" lon="41.49666">
        <ele>189.64034</ele>
        <time>2021-11-15T14:57:32.186Z</time>
      </trkpt>
      <trkpt lat="41.38366" lon="41.49784">
        <ele>192.863788</ele>
        <time>2021-11-15T14:57:59.523Z</time>
      </trkpt>
      <trkpt lat="41.38349" lon="41.49907">
        <ele>198.159364</ele>
        <time>2021-11-15T14:58:59.568Z</time>
      </trkpt>
      <trkpt lat="41.38345" lon="41.49968">
        <ele>201.982474</ele>
        <time>2021-11-15T14:59:27.968Z</time>
      </trkpt>
      <trkpt lat="41.38344" lon="41.50008">
        <ele>204.47448</ele>
        <time>2021-11-15T14:59:45.057Z</time>
      </trkpt>
      <trkpt lat="41.38346" lon="41.50041">
        <ele>206.557364</ele>
        <time>2021-11-15T14:59:59.925Z</time>
      </trkpt>
      <trkpt lat="41.38347" lon="41.50087">
        <ele>209.442855</ele>
        <time>2021-11-15T15:00:18.466Z</time>
      </trkpt>
      <trkpt lat="41.38359" lon="41.50213">
        <ele>208.096293</ele>
        <time>2021-11-15T15:00:51.070Z</time>
      </trkpt>
      <trkpt lat="41.38382" lon="41.50349">
        <ele>205.570071</ele>
        <time>2021-11-15T15:01:06.518Z</time>
      </trkpt>
      <trkpt lat="41.38418" lon="41.50497">
        <ele>198.296969</ele>
        <time>2021-11-15T15:01:24.042Z</time>
      </trkpt>
      <trkpt lat="41.38428" lon="41.50547">
        <ele>195.886925</ele>
        <time>2021-11-15T15:01:29.866Z</time>
      </trkpt>
      <trkpt lat="41.38449" lon="41.50644">
        <ele>195.136899</ele>
        <time>2021-11-15T15:01:42.478Z</time>
      </trkpt>
      <trkpt lat="41.38459" lon="41.50696">
        <ele>194.944668</ele>
        <time>2021-11-15T15:01:50.819Z</time>
      </trkpt>
      <trkpt lat="41.38473" lon="41.5077">
        <ele>194.669581</ele>
        <time>2021-11-15T15:02:07.160Z</time>
      </trkpt>
      <trkpt lat="41.38518" lon="41.51095">
        <ele>203.9277</ele>
        <time>2021-11-15T15:03:45.169Z</time>
      </trkpt>
      <trkpt lat="41.38525" lon="41.51213">
        <ele>207.870783</ele>
        <time>2021-11-15T15:04:22.203Z</time>
      </trkpt>
      <trkpt lat="41.38527" lon="41.51336">
        <ele>212.115857</ele>
        <time>2021-11-15T15:05:00.923Z</time>
      </trkpt>
      <trkpt lat="41.38355" lon="41.56533">
        <ele>393.987386</ele>
        <time>2021-11-15T15:32:14.188Z</time>
      </trkpt>
      <trkpt lat="41.38395" lon="41.56797">
        <ele>400.889628</ele>
        <time>2021-11-15T15:33:31.413Z</time>
      </trkpt>
      <trkpt lat="41.38396" lon="41.56858">
        <ele>401.407481</ele>
        <time>2021-11-15T15:33:44.594Z</time>
      </trkpt>
      <trkpt lat="41.38392" lon="41.56894">
        <ele>401.714377</ele>
        <time>2021-11-15T15:33:52.211Z</time>
      </trkpt>
      <trkpt lat="41.38385" lon="41.56937">
        <ele>402.091377</ele>
        <time>2021-11-15T15:34:00.562Z</time>
      </trkpt>
      <trkpt lat="41.38376" lon="41.56977">
        <ele>402.45085</ele>
        <time>2021-11-15T15:34:07.560Z</time>
      </trkpt>
      <trkpt lat="41.3836" lon="41.57026">
        <ele>402.55415</ele>
        <time>2021-11-15T15:34:15.449Z</time>
      </trkpt>
      <trkpt lat="41.38331" lon="41.57117">
        <ele>402.22406</ele>
        <time>2021-11-15T15:34:29.142Z</time>
      </trkpt>
      <trkpt lat="41.38286" lon="41.57161">
        <ele>401.975045</ele>
        <time>2021-11-15T15:34:41.360Z</time>
      </trkpt>
      <trkpt lat="41.38256" lon="41.57191">
        <ele>401.667678</ele>
        <time>2021-11-15T15:34:50.169Z</time>
      </trkpt>
      <trkpt lat="41.38221" lon="41.5725">
        <ele>400.568061</ele>
        <time>2021-11-15T15:35:04.814Z</time>
      </trkpt>
      <trkpt lat="41.38209" lon="41.57285">
        <ele>400.010036</ele>
        <time>2021-11-15T15:35:11.387Z</time>
      </trkpt>
      <trkpt lat="41.38201" lon="41.57341">
        <ele>399.179272</ele>
        <time>2021-11-15T15:35:18.570Z</time>
      </trkpt>
      <trkpt lat="41.38205" lon="41.57391">
        <ele>398.439233</ele>
        <time>2021-11-15T15:35:24.224Z</time>
      </trkpt>
      <trkpt lat="41.38217" lon="41.57419">
        <ele>396.802468</ele>
        <time>2021-11-15T15:35:27.893Z</time>
      </trkpt>
      <trkpt lat="41.38232" lon="41.57456">
        <ele>394.345097</ele>
        <time>2021-11-15T15:35:32.327Z</time>
      </trkpt>
      <trkpt lat="41.38244" lon="41.57487">
        <ele>392.291595</ele>
        <time>2021-11-15T15:35:35.905Z</time>
      </trkpt>
      <trkpt lat="41.38258" lon="41.57536">
        <ele>389.223527</ele>
        <time>2021-11-15T15:35:41.383Z</time>
      </trkpt>
      <trkpt lat="41.3826" lon="41.57569">
        <ele>387.290276</ele>
        <time>2021-11-15T15:35:44.728Z</time>
      </trkpt>
      <trkpt lat="41.3825" lon="41.57607">
        <ele>384.904581</ele>
        <time>2021-11-15T15:35:48.946Z</time>
      </trkpt>
      <trkpt lat="41.38232" lon="41.57644">
        <ele>383.196023</ele>
        <time>2021-11-15T15:35:53.426Z</time>
      </trkpt>
      <trkpt lat="41.38124" lon="41.57783">
        <ele>376.716663</ele>
        <time>2021-11-15T15:36:17.493Z</time>
      </trkpt>
      <trkpt lat="41.3809" lon="41.57839">
        <ele>374.089562</ele>
        <time>2021-11-15T15:36:31.221Z</time>
      </trkpt>
      <trkpt lat="41.38063" lon="41.57913">
        <ele>371.092113</ele>
        <time>2021-11-15T15:36:41.048Z</time>
      </trkpt>
      <trkpt lat="41.38058" lon="41.57954">
        <ele>369.567606</ele>
        <time>2021-11-15T15:36:45.527Z</time>
      </trkpt>
      <trkpt lat="41.38059" lon="41.57987">
        <ele>368.350428</ele>
        <time>2021-11-15T15:36:48.951Z</time>
      </trkpt>
      <trkpt lat="41.38056" lon="41.58036">
        <ele>364.962941</ele>
        <time>2021-11-15T15:36:53.872Z</time>
      </trkpt>
      <trkpt lat="41.38054" lon="41.58102">
        <ele>359.108155</ele>
        <time>2021-11-15T15:37:00.561Z</time>
      </trkpt>
      <trkpt lat="41.38047" lon="41.58156">
        <ele>354.294007</ele>
        <time>2021-11-15T15:37:05.964Z</time>
      </trkpt>
      <trkpt lat="41.38041" lon="41.58205">
        <ele>349.923285</ele>
        <time>2021-11-15T15:37:10.801Z</time>
      </trkpt>
      <trkpt lat="41.38041" lon="41.5824">
        <ele>346.853039</ele>
        <time>2021-11-15T15:37:14.254Z</time>
      </trkpt>
      <trkpt lat="41.38049" lon="41.58291">
        <ele>344.290011</ele>
        <time>2021-11-15T15:37:19.570Z</time>
      </trkpt>
      <trkpt lat="41.38089" lon="41.58403">
        <ele>338.460964</ele>
        <time>2021-11-15T15:37:33.356Z</time>
      </trkpt>
      <trkpt lat="41.38102" lon="41.58464">
        <ele>335.456649</ele>
        <time>2021-11-15T15:37:41.444Z</time>
      </trkpt>
      <trkpt lat="41.38102" lon="41.58523">
        <ele>334.756595</ele>
        <time>2021-11-15T15:37:48.982Z</time>
      </trkpt>
      <trkpt lat="41.38068" lon="41.58714">
        <ele>332.647</ele>
        <time>2021-11-15T15:38:17.071Z</time>
      </trkpt>
      <trkpt lat="41.38067" lon="41.58777">
        <ele>331.762537</ele>
        <time>2021-11-15T15:38:28.812Z</time>
      </trkpt>
      <trkpt lat="41.3807" lon="41.58829">
        <ele>331.028365</ele>
        <time>2021-11-15T15:38:36.026Z</time>
      </trkpt>
      <trkpt lat="41.381" lon="41.58955">
        <ele>329.047886</ele>
        <time>2021-11-15T15:38:52.202Z</time>
      </trkpt>
      <trkpt lat="41.38124" lon="41.59005">
        <ele>327.852594</ele>
        <time>2021-11-15T15:38:59.277Z</time>
      </trkpt>
      <trkpt lat="41.38131" lon="41.5905">
        <ele>326.921743</ele>
        <time>2021-11-15T15:39:05.075Z</time>
      </trkpt>
      <trkpt lat="41.38137" lon="41.591">
        <ele>325.918532</ele>
        <time>2021-11-15T15:39:11.321Z</time>
      </trkpt>
      <trkpt lat="41.38125" lon="41.59146">
        <ele>324.94655</ele>
        <time>2021-11-15T15:39:17.411Z</time>
      </trkpt>
      <trkpt lat="41.38102" lon="41.59179">
        <ele>324.698011</ele>
        <time>2021-11-15T15:39:23.329Z</time>
      </trkpt>
      <trkpt lat="41.38023" lon="41.59264">
        <ele>324.879662</ele>
        <time>2021-11-15T15:39:52.441Z</time>
      </trkpt>
      <trkpt lat="41.38004" lon="41.593">
        <ele>324.939012</ele>
        <time>2021-11-15T15:40:01.328Z</time>
      </trkpt>
      <trkpt lat="41.37997" lon="41.59329">
        <ele>324.947028</ele>
        <time>2021-11-15T15:40:06.241Z</time>
      </trkpt>
      <trkpt lat="41.37997" lon="41.59357">
        <ele>323.943846</ele>
        <time>2021-11-15T15:40:10.395Z</time>
      </trkpt>
      <trkpt lat="41.38013" lon="41.59407">
        <ele>322.0145</ele>
        <time>2021-11-15T15:40:17.216Z</time>
      </trkpt>
      <trkpt lat="41.38029" lon="41.59429">
        <ele>320.890539</ele>
        <time>2021-11-15T15:40:20.878Z</time>
      </trkpt>
      <trkpt lat="41.38129" lon="41.59502">
        <ele>315.125839</ele>
        <time>2021-11-15T15:40:36.993Z</time>
      </trkpt>
      <trkpt lat="41.3814" lon="41.59517">
        <ele>314.023376</ele>
        <time>2021-11-15T15:40:39.271Z</time>
      </trkpt>
      <trkpt lat="41.38148" lon="41.59531">
        <ele>313.132865</ele>
        <time>2021-11-15T15:40:41.112Z</time>
      </trkpt>
      <trkpt lat="41.38149" lon="41.59566">
        <ele>311.345093</ele>
        <time>2021-11-15T15:40:44.802Z</time>
      </trkpt>
      <trkpt lat="41.38142" lon="41.59596">
        <ele>309.796136</ele>
        <time>2021-11-15T15:40:48.040Z</time>
      </trkpt>
      <trkpt lat="41.38126" lon="41.5963">
        <ele>307.752355</ele>
        <time>2021-11-15T15:40:52.388Z</time>
      </trkpt>
      <trkpt lat="41.38075" lon="41.59721">
        <ele>302.72304</ele>
        <time>2021-11-15T15:41:05.269Z</time>
      </trkpt>
      <trkpt lat="41.38067" lon="41.59751">
        <ele>301.639562</ele>
        <time>2021-11-15T15:41:08.916Z</time>
      </trkpt>
      <trkpt lat="41.38058" lon="41.59861">
        <ele>297.872199</ele>
        <time>2021-11-15T15:41:21.796Z</time>
      </trkpt>
      <trkpt lat="41.38046" lon="41.59911">
        <ele>296.073725</ele>
        <time>2021-11-15T15:41:27.927Z</time>
      </trkpt>
      <trkpt lat="41.38019" lon="41.59989">
        <ele>293.440576</ele>
        <time>2021-11-15T15:41:37.817Z</time>
      </trkpt>
      <trkpt lat="41.37995" lon="41.6004">
        <ele>291.570047</ele>
        <time>2021-11-15T15:41:44.771Z</time>
      </trkpt>
      <trkpt lat="41.37919" lon="41.60144">
        <ele>288.032249</ele>
        <time>2021-11-15T15:42:02.061Z</time>
      </trkpt>
      <trkpt lat="41.37894" lon="41.602">
        <ele>287.218733</ele>
        <time>2021-11-15T15:42:10.499Z</time>
      </trkpt>
      <trkpt lat="41.37885" lon="41.6024">
        <ele>286.694444</ele>
        <time>2021-11-15T15:42:16.170Z</time>
      </trkpt>
      <trkpt lat="41.37876" lon="41.60337">
        <ele>285.834587</ele>
        <time>2021-11-15T15:42:32.856Z</time>
      </trkpt>
      <trkpt lat="41.37884" lon="41.60414">
        <ele>286.519342</ele>
        <time>2021-11-15T15:42:47.956Z</time>
      </trkpt>
      <trkpt lat="41.37896" lon="41.60446">
        <ele>286.834179</ele>
        <time>2021-11-15T15:42:55.557Z</time>
      </trkpt>
      <trkpt lat="41.37908" lon="41.60479">
        <ele>287.164749</ele>
        <time>2021-11-15T15:43:03.757Z</time>
      </trkpt>
      <trkpt lat="41.37913" lon="41.60488">
        <ele>287.259612</ele>
        <time>2021-11-15T15:43:05.865Z</time>
      </trkpt>
      <trkpt lat="41.37957" lon="41.60559">
        <ele>287.829537</ele>
        <time>2021-11-15T15:43:25.557Z</time>
      </trkpt>
      <trkpt lat="41.37977" lon="41.60593">
        <ele>287.863787</ele>
        <time>2021-11-15T15:43:35.038Z</time>
      </trkpt>
      <trkpt lat="41.37987" lon="41.6063">
        <ele>287.895771</ele>
        <time>2021-11-15T15:43:43.646Z</time>
      </trkpt>
      <trkpt lat="41.37988" lon="41.60799">
        <ele>286.160057</ele>
        <time>2021-11-15T15:44:08.668Z</time>
      </trkpt>
      <trkpt lat="41.37992" lon="41.6084">
        <ele>284.329518</ele>
        <time>2021-11-15T15:44:13.376Z</time>
      </trkpt>
      <trkpt lat="41.37996" lon="41.60869">
        <ele>283.028203</ele>
        <time>2021-11-15T15:44:16.568Z</time>
      </trkpt>
      <trkpt lat="41.38018" lon="41.60925">
        <ele>280.285987</ele>
        <time>2021-11-15T15:44:23.249Z</time>
      </trkpt>
      <trkpt lat="41.38046" lon="41.60981">
        <ele>277.294654</ele>
        <time>2021-11-15T15:44:30.300Z</time>
      </trkpt>
      <trkpt lat="41.38069" lon="41.61024">
        <ele>274.338506</ele>
        <time>2021-11-15T15:44:35.832Z</time>
      </trkpt>
      <trkpt lat="41.38082" lon="41.61068">
        <ele>271.713074</ele>
        <time>2021-11-15T15:44:40.755Z</time>
      </trkpt>
      <trkpt lat="41.38086" lon="41.61093">
        <ele>270.335471</ele>
        <time>2021-11-15T15:44:43.345Z</time>
      </trkpt>
      <trkpt lat="41.38083" lon="41.61122">
        <ele>268.673159</ele>
        <time>2021-11-15T15:44:46.444Z</time>
      </trkpt>
      <trkpt lat="41.38036" lon="41.61277">
        <ele>260.918226</ele>
        <time>2021-11-15T15:45:05.223Z</time>
      </trkpt>
      <trkpt lat="41.38028" lon="41.61317">
        <ele>259.376405</ele>
        <time>2021-11-15T15:45:10.102Z</time>
      </trkpt>
      <trkpt lat="41.38027" lon="41.61354">
        <ele>257.992689</ele>
        <time>2021-11-15T15:45:14.431Z</time>
      </trkpt>
      <trkpt lat="41.38038" lon="41.61419">
        <ele>255.486879</ele>
        <time>2021-11-15T15:45:22.077Z</time>
      </trkpt>
      <trkpt lat="41.38103" lon="41.61594">
        <ele>245.535972</ele>
        <time>2021-11-15T15:45:43.209Z</time>
      </trkpt>
      <trkpt lat="41.38109" lon="41.61653">
        <ele>242.492011</ele>
        <time>2021-11-15T15:45:49.384Z</time>
      </trkpt>
      <trkpt lat="41.38103" lon="41.6168">
        <ele>240.973254</ele>
        <time>2021-11-15T15:45:52.411Z</time>
      </trkpt>
      <trkpt lat="41.38065" lon="41.61746">
        <ele>236.613055</ele>
        <time>2021-11-15T15:46:01.171Z</time>
      </trkpt>
      <trkpt lat="41.37983" lon="41.618">
        <ele>230.168294</ele>
        <time>2021-11-15T15:46:14.313Z</time>
      </trkpt>
      <trkpt lat="41.37943" lon="41.61849">
        <ele>227.585918</ele>
        <time>2021-11-15T15:46:22.364Z</time>
      </trkpt>
      <trkpt lat="41.3789" lon="41.61934">
        <ele>223.674866</ele>
        <time>2021-11-15T15:46:35.217Z</time>
      </trkpt>
      <trkpt lat="41.3787" lon="41.61951">
        <ele>222.550668</ele>
        <time>2021-11-15T15:46:39.033Z</time>
      </trkpt>
      <trkpt lat="41.37825" lon="41.61957">
        <ele>220.950167</ele>
        <time>2021-11-15T15:46:46.253Z</time>
      </trkpt>
      <trkpt lat="41.37742" lon="41.6195">
        <ele>218.683837</ele>
        <time>2021-11-15T15:46:59.964Z</time>
      </trkpt>
      <trkpt lat="41.37718" lon="41.61958">
        <ele>217.98132</ele>
        <time>2021-11-15T15:47:04.348Z</time>
      </trkpt>
      <trkpt lat="41.3769" lon="41.61984">
        <ele>217.058258</ele>
        <time>2021-11-15T15:47:10.298Z</time>
      </trkpt>
      <trkpt lat="41.37666" lon="41.62044">
        <ele>215.644414</ele>
        <time>2021-11-15T15:47:19.470Z</time>
      </trkpt>
      <trkpt lat="41.37621" lon="41.62234">
        <ele>211.659918</ele>
        <time>2021-11-15T15:47:43.892Z</time>
      </trkpt>
      <trkpt lat="41.376" lon="41.62284">
        <ele>211.159981</ele>
        <time>2021-11-15T15:47:51.099Z</time>
      </trkpt>
      <trkpt lat="41.37581" lon="41.62316">
        <ele>210.805674</ele>
        <time>2021-11-15T15:47:56.613Z</time>
      </trkpt>
      <trkpt lat="41.37575" lon="41.62323">
        <ele>210.720428</ele>
        <time>2021-11-15T15:47:57.790Z</time>
      </trkpt>
      <trkpt lat="41.37547" lon="41.62357">
        <ele>210.283625</ele>
        <time>2021-11-15T15:48:04.886Z</time>
      </trkpt>
      <trkpt lat="41.37449" lon="41.62433">
        <ele>211.721266</ele>
        <time>2021-11-15T15:48:36.656Z</time>
      </trkpt>
      <trkpt lat="41.37423" lon="41.62462">
        <ele>212.807272</ele>
        <time>2021-11-15T15:48:50.122Z</time>
      </trkpt>
      <trkpt lat="41.37406" lon="41.62491">
        <ele>213.700281</ele>
        <time>2021-11-15T15:49:01.733Z</time>
      </trkpt>
      <trkpt lat="41.37403" lon="41.62499">
        <ele>213.908316</ele>
        <time>2021-11-15T15:49:04.658Z</time>
      </trkpt>
      <trkpt lat="41.37394" lon="41.62525">
        <ele>214.616578</ele>
        <time>2021-11-15T15:49:13.392Z</time>
      </trkpt>
      <trkpt lat="41.3738" lon="41.62577">
        <ele>215.550538</ele>
        <time>2021-11-15T15:49:29.683Z</time>
      </trkpt>
      <trkpt lat="41.37374" lon="41.62622">
        <ele>215.612254</ele>
        <time>2021-11-15T15:49:41.634Z</time>
      </trkpt>
      <trkpt lat="41.37377" lon="41.62683">
        <ele>215.69431</ele>
        <time>2021-11-15T15:49:55.224Z</time>
      </trkpt>
      <trkpt lat="41.37396" lon="41.62753">
        <ele>215.79472</ele>
        <time>2021-11-15T15:50:06.152Z</time>
      </trkpt>
      <trkpt lat="41.3745" lon="41.62844">
        <ele>212.339207</ele>
        <time>2021-11-15T15:50:19.417Z</time>
      </trkpt>
      <trkpt lat="41.37464" lon="41.62877">
        <ele>210.5935</ele>
        <time>2021-11-15T15:50:23.490Z</time>
      </trkpt>
      <trkpt lat="41.37473" lon="41.62918">
        <ele>208.648702</ele>
        <time>2021-11-15T15:50:28.004Z</time>
      </trkpt>
      <trkpt lat="41.37466" lon="41.62972">
        <ele>206.158902</ele>
        <time>2021-11-15T15:50:33.784Z</time>
      </trkpt>
      <trkpt lat="41.37442" lon="41.63009">
        <ele>204.246619</ele>
        <time>2021-11-15T15:50:39.135Z</time>
      </trkpt>
      <trkpt lat="41.37399" lon="41.63042">
        <ele>202.358701</ele>
        <time>2021-11-15T15:50:46.369Z</time>
      </trkpt>
      <trkpt lat="41.37358" lon="41.63062">
        <ele>200.674888</ele>
        <time>2021-11-15T15:50:53.145Z</time>
      </trkpt>
      <trkpt lat="41.37258" lon="41.63094">
        <ele>197.930056</ele>
        <time>2021-11-15T15:51:12.108Z</time>
      </trkpt>
      <trkpt lat="41.37134" lon="41.63146">
        <ele>197.920827</ele>
        <time>2021-11-15T15:51:44.238Z</time>
      </trkpt>
      <trkpt lat="41.37077" lon="41.63188">
        <ele>196.960633</ele>
        <time>2021-11-15T15:51:58.555Z</time>
      </trkpt>
      <trkpt lat="41.37051" lon="41.63228">
        <ele>196.147332</ele>
        <time>2021-11-15T15:52:06.259Z</time>
      </trkpt>
      <trkpt lat="41.37045" lon="41.63252">
        <ele>195.747767</ele>
        <time>2021-11-15T15:52:09.710Z</time>
      </trkpt>
      <trkpt lat="41.37041" lon="41.63277">
        <ele>195.369258</ele>
        <time>2021-11-15T15:52:12.999Z</time>
      </trkpt>
      <trkpt lat="41.37051" lon="41.63397">
        <ele>192.419711</ele>
        <time>2021-11-15T15:52:26.943Z</time>
      </trkpt>
      <trkpt lat="41.37047" lon="41.63427">
        <ele>191.259582</ele>
        <time>2021-11-15T15:52:30.338Z</time>
      </trkpt>
      <trkpt lat="41.3704" lon="41.63467">
        <ele>189.684116</ele>
        <time>2021-11-15T15:52:34.944Z</time>
      </trkpt>
      <trkpt lat="41.37011" lon="41.6352">
        <ele>187.183579</ele>
        <time>2021-11-15T15:52:42.198Z</time>
      </trkpt>
      <trkpt lat="41.3698" lon="41.63546">
        <ele>185.330882</ele>
        <time>2021-11-15T15:52:47.661Z</time>
      </trkpt>
      <trkpt lat="41.36946" lon="41.63574">
        <ele>184.173523</ele>
        <time>2021-11-15T15:52:53.790Z</time>
      </trkpt>
      <trkpt lat="41.36926" lon="41.63599">
        <ele>183.462378</ele>
        <time>2021-11-15T15:52:58.179Z</time>
      </trkpt>
      <trkpt lat="41.36917" lon="41.6361">
        <ele>183.149154</ele>
        <time>2021-11-15T15:53:00.040Z</time>
      </trkpt>
      <trkpt lat="41.36869" lon="41.63672">
        <ele>181.434992</ele>
        <time>2021-11-15T15:53:11.594Z</time>
      </trkpt>
      <trkpt lat="41.36859" lon="41.63703">
        <ele>180.797037</ele>
        <time>2021-11-15T15:53:17.491Z</time>
      </trkpt>
      <trkpt lat="41.36857" lon="41.63727">
        <ele>180.467839</ele>
        <time>2021-11-15T15:53:21.343Z</time>
      </trkpt>
      <trkpt lat="41.36861" lon="41.63776">
        <ele>180.602166</ele>
        <time>2021-11-15T15:53:30.047Z</time>
      </trkpt>
      <trkpt lat="41.36913" lon="41.63971">
        <ele>180.835759</ele>
        <time>2021-11-15T15:54:08.693Z</time>
      </trkpt>
      <trkpt lat="41.36919" lon="41.64017">
        <ele>180.300247</ele>
        <time>2021-11-15T15:54:16.150Z</time>
      </trkpt>
      <trkpt lat="41.36914" lon="41.64068">
        <ele>179.719398</ele>
        <time>2021-11-15T15:54:23.633Z</time>
      </trkpt>
      <trkpt lat="41.36803" lon="41.6438">
        <ele>173.320836</ele>
        <time>2021-11-15T15:55:06.800Z</time>
      </trkpt>
      <trkpt lat="41.36784" lon="41.6447">
        <ele>171.177345</ele>
        <time>2021-11-15T15:55:17.989Z</time>
      </trkpt>
      <trkpt lat="41.36776" lon="41.64575">
        <ele>168.738269</ele>
        <time>2021-11-15T15:55:30.889Z</time>
      </trkpt>
      <trkpt lat="41.36776" lon="41.64625">
        <ele>167.572513</ele>
        <time>2021-11-15T15:55:37.187Z</time>
      </trkpt>
      <trkpt lat="41.36782" lon="41.64679">
        <ele>166.767832</ele>
        <time>2021-11-15T15:55:44.107Z</time>
      </trkpt>
      <trkpt lat="41.36834" lon="41.64812">
        <ele>164.629578</ele>
        <time>2021-11-15T15:56:04.014Z</time>
      </trkpt>
      <trkpt lat="41.36864" lon="41.64906">
        <ele>163.541262</ele>
        <time>2021-11-15T15:56:18.645Z</time>
      </trkpt>
      <trkpt lat="41.36866" lon="41.6494">
        <ele>163.247756</ele>
        <time>2021-11-15T15:56:23.666Z</time>
      </trkpt>
      <trkpt lat="41.36861" lon="41.64973">
        <ele>162.963871</ele>
        <time>2021-11-15T15:56:28.584Z</time>
      </trkpt>
      <trkpt lat="41.36851" lon="41.65">
        <ele>162.697946</ele>
        <time>2021-11-15T15:56:33.160Z</time>
      </trkpt>
      <trkpt lat="41.36836" lon="41.65025">
        <ele>162.436888</ele>
        <time>2021-11-15T15:56:37.523Z</time>
      </trkpt>
      <trkpt lat="41.36778" lon="41.65093">
        <ele>161.327436</ele>
        <time>2021-11-15T15:56:52.117Z</time>
      </trkpt>
      <trkpt lat="41.3677" lon="41.65112">
        <ele>161.051644</ele>
        <time>2021-11-15T15:56:55.225Z</time>
      </trkpt>
      <trkpt lat="41.36768" lon="41.65142">
        <ele>160.684173</ele>
        <time>2021-11-15T15:56:59.334Z</time>
      </trkpt>
      <trkpt lat="41.36779" lon="41.65167">
        <ele>160.318946</ele>
        <time>2021-11-15T15:57:03.371Z</time>
      </trkpt>
      <trkpt lat="41.36797" lon="41.65185">
        <ele>159.943395</ele>
        <time>2021-11-15T15:57:07.289Z</time>
      </trkpt>
      <trkpt lat="41.36916" lon="41.65214">
        <ele>158.227016</ele>
        <time>2021-11-15T15:57:28.199Z</time>
      </trkpt>
      <trkpt lat="41.3694" lon="41.65227">
        <ele>157.906402</ele>
        <time>2021-11-15T15:57:32.978Z</time>
      </trkpt>
      <trkpt lat="41.3696" lon="41.65247">
        <ele>157.600124</ele>
        <time>2021-11-15T15:57:37.795Z</time>
      </trkpt>
      <trkpt lat="41.36978" lon="41.65274">
        <ele>157.272646</ele>
        <time>2021-11-15T15:57:43.259Z</time>
      </trkpt>
      <trkpt lat="41.3704" lon="41.65419">
        <ele>157.667225</ele>
        <time>2021-11-15T15:58:11.881Z</time>
      </trkpt>
      <trkpt lat="41.37056" lon="41.6547">
        <ele>158.050725</ele>
        <time>2021-11-15T15:58:23.839Z</time>
      </trkpt>
      <trkpt lat="41.37057" lon="41.65496">
        <ele>158.225733</ele>
        <time>2021-11-15T15:58:29.382Z</time>
      </trkpt>
      <trkpt lat="41.37054" lon="41.65518">
        <ele>158.385757</ele>
        <time>2021-11-15T15:58:34.899Z</time>
      </trkpt>
      <trkpt lat="41.37045" lon="41.65538">
        <ele>158.514053</ele>
        <time>2021-11-15T15:58:39.846Z</time>
      </trkpt>
      <trkpt lat="41.3703" lon="41.65557">
        <ele>158.606983</ele>
        <time>2021-11-15T15:58:46.667Z</time>
      </trkpt>
      <trkpt lat="41.37008" lon="41.65571">
        <ele>158.709372</ele>
        <time>2021-11-15T15:58:53.353Z</time>
      </trkpt>
      <trkpt lat="41.36978" lon="41.65575">
        <ele>158.841471</ele>
        <time>2021-11-15T15:59:01.524Z</time>
      </trkpt>
      <trkpt lat="41.36903" lon="41.65537">
        <ele>159.187081</ele>
        <time>2021-11-15T15:59:18.575Z</time>
      </trkpt>
      <trkpt lat="41.36886" lon="41.65534">
        <ele>159.261736</ele>
        <time>2021-11-15T15:59:22.113Z</time>
      </trkpt>
      <trkpt lat="41.36873" lon="41.65535">
        <ele>158.841975</ele>
        <time>2021-11-15T15:59:24.626Z</time>
      </trkpt>
      <trkpt lat="41.36861" lon="41.65545">
        <ele>158.358463</ele>
        <time>2021-11-15T15:59:27.359Z</time>
      </trkpt>
      <trkpt lat="41.36853" lon="41.65561">
        <ele>157.828334</ele>
        <time>2021-11-15T15:59:30.163Z</time>
      </trkpt>
      <trkpt lat="41.36843" lon="41.65603">
        <ele>156.652103</ele>
        <time>2021-11-15T15:59:35.970Z</time>
      </trkpt>
      <trkpt lat="41.3683" lon="41.65724">
        <ele>153.406947</ele>
        <time>2021-11-15T15:59:49.929Z</time>
      </trkpt>
      <trkpt lat="41.36814" lon="41.6577">
        <ele>151.324622</ele>
        <time>2021-11-15T15:59:55.487Z</time>
      </trkpt>
      <trkpt lat="41.36796" lon="41.658">
        <ele>149.445848</ele>
        <time>2021-11-15T15:59:59.591Z</time>
      </trkpt>
      <trkpt lat="41.36746" lon="41.65853">
        <ele>145.215584</ele>
        <time>2021-11-15T16:00:08.819Z</time>
      </trkpt>
      <trkpt lat="41.36726" lon="41.65886">
        <ele>143.08555</ele>
        <time>2021-11-15T16:00:13.417Z</time>
      </trkpt>
      <trkpt lat="41.36715" lon="41.65915">
        <ele>141.494719</ele>
        <time>2021-11-15T16:00:16.835Z</time>
      </trkpt>
      <trkpt lat="41.36704" lon="41.66003">
        <ele>137.642824</ele>
        <time>2021-11-15T16:00:26.436Z</time>
      </trkpt>
      <trkpt lat="41.36696" lon="41.6603">
        <ele>136.444509</ele>
        <time>2021-11-15T16:00:29.570Z</time>
      </trkpt>
      <trkpt lat="41.36688" lon="41.66051">
        <ele>135.448482</ele>
        <time>2021-11-15T16:00:32.179Z</time>
      </trkpt>
      <trkpt lat="41.36642" lon="41.66123">
        <ele>131.470684</ele>
        <time>2021-11-15T16:00:43.002Z</time>
      </trkpt>
      <trkpt lat="41.36627" lon="41.66159">
        <ele>130.511633</ele>
        <time>2021-11-15T16:00:47.858Z</time>
      </trkpt>
      <trkpt lat="41.36623" lon="41.66188">
        <ele>130.091121</ele>
        <time>2021-11-15T16:00:51.489Z</time>
      </trkpt>
      <trkpt lat="41.36629" lon="41.66237">
        <ele>129.410543</ele>
        <time>2021-11-15T16:00:57.657Z</time>
      </trkpt>
      <trkpt lat="41.36656" lon="41.66386">
        <ele>127.621811</ele>
        <time>2021-11-15T16:01:20.642Z</time>
      </trkpt>
      <trkpt lat="41.36656" lon="41.66426">
        <ele>127.783403</ele>
        <time>2021-11-15T16:01:27.461Z</time>
      </trkpt>
      <trkpt lat="41.36647" lon="41.66456">
        <ele>127.915086</ele>
        <time>2021-11-15T16:01:33.324Z</time>
      </trkpt>
      <trkpt lat="41.36632" lon="41.66482">
        <ele>128.050239</ele>
        <time>2021-11-15T16:01:39.503Z</time>
      </trkpt>
      <trkpt lat="41.36606" lon="41.66506">
        <ele>128.219186</ele>
        <time>2021-11-15T16:01:47.314Z</time>
      </trkpt>
      <trkpt lat="41.36532" lon="41.66546">
        <ele>128.975077</ele>
        <time>2021-11-15T16:02:08.702Z</time>
      </trkpt>
      <trkpt lat="41.36433" lon="41.66579">
        <ele>130.811153</ele>
        <time>2021-11-15T16:02:39.060Z</time>
      </trkpt>
      <trkpt lat="41.36391" lon="41.66603">
        <ele>131.62535</ele>
        <time>2021-11-15T16:02:52.961Z</time>
      </trkpt>
      <trkpt lat="41.36361" lon="41.66637">
        <ele>132.044093</ele>
        <time>2021-11-15T16:03:05.693Z</time>
      </trkpt>
      <trkpt lat="41.36342" lon="41.66676">
        <ele>132.350356</ele>
        <time>2021-11-15T16:03:16.164Z</time>
      </trkpt>
      <trkpt lat="41.36338" lon="41.66708">
        <ele>132.560385</ele>
        <time>2021-11-15T16:03:22.841Z</time>
      </trkpt>
      <trkpt lat="41.36354" lon="41.66774">
        <ele>133.018531</ele>
        <time>2021-11-15T16:03:36.606Z</time>
      </trkpt>
      <trkpt lat="41.36379" lon="41.66805">
        <ele>133.318279</ele>
        <time>2021-11-15T16:03:43.563Z</time>
      </trkpt>
      <trkpt lat="41.36477" lon="41.66864">
        <ele>131.223994</ele>
        <time>2021-11-15T16:04:01.806Z</time>
      </trkpt>
      <trkpt lat="41.36495" lon="41.66887">
        <ele>130.722392</ele>
        <time>2021-11-15T16:04:06.006Z</time>
      </trkpt>
      <trkpt lat="41.3651" lon="41.6692">
        <ele>130.142685</ele>
        <time>2021-11-15T16:04:10.976Z</time>
      </trkpt>
      <trkpt lat="41.36524" lon="41.66977">
        <ele>129.491054</ele>
        <time>2021-11-15T16:04:18.904Z</time>
      </trkpt>
      <trkpt lat="41.36525" lon="41.67045">
        <ele>128.981716</ele>
        <time>2021-11-15T16:04:28.812Z</time>
      </trkpt>
      <trkpt lat="41.3655" lon="41.67271">
        <ele>125.482948</ele>
        <time>2021-11-15T16:05:03.718Z</time>
      </trkpt>
      <trkpt lat="41.36555" lon="41.67327">
        <ele>123.956555</ele>
        <time>2021-11-15T16:05:10.293Z</time>
      </trkpt>
      <trkpt lat="41.36551" lon="41.67371">
        <ele>122.72301</ele>
        <time>2021-11-15T16:05:15.253Z</time>
      </trkpt>
      <trkpt lat="41.36534" lon="41.67409">
        <ele>121.529057</ele>
        <time>2021-11-15T16:05:19.986Z</time>
      </trkpt>
      <trkpt lat="41.36508" lon="41.67449">
        <ele>119.499052</ele>
        <time>2021-11-15T16:05:25.770Z</time>
      </trkpt>
      <trkpt lat="41.36482" lon="41.67485">
        <ele>117.508118</ele>
        <time>2021-11-15T16:05:31.182Z</time>
      </trkpt>
      <trkpt lat="41.36466" lon="41.67502">
        <ele>116.449548</ele>
        <time>2021-11-15T16:05:34.034Z</time>
      </trkpt>
      <trkpt lat="41.36462" lon="41.67506">
        <ele>116.188193</ele>
        <time>2021-11-15T16:05:34.720Z</time>
      </trkpt>
      <trkpt lat="41.36453" lon="41.67513">
        <ele>115.622322</ele>
        <time>2021-11-15T16:05:36.307Z</time>
      </trkpt>
      <trkpt lat="41.36413" lon="41.67512">
        <ele>113.565175</ele>
        <time>2021-11-15T16:05:42.127Z</time>
      </trkpt>
      <trkpt lat="41.36238" lon="41.67446">
        <ele>110.826299</ele>
        <time>2021-11-15T16:06:17.258Z</time>
      </trkpt>
      <trkpt lat="41.36217" lon="41.67439">
        <ele>110.670679</ele>
        <time>2021-11-15T16:06:23.529Z</time>
      </trkpt>
      <trkpt lat="41.36207" lon="41.67435">
        <ele>110.656471</ele>
        <time>2021-11-15T16:06:25.994Z</time>
      </trkpt>
      <trkpt lat="41.36191" lon="41.67429">
        <ele>110.847144</ele>
        <time>2021-11-15T16:06:31.103Z</time>
      </trkpt>
      <trkpt lat="41.36162" lon="41.67427">
        <ele>111.187225</ele>
        <time>2021-11-15T16:06:39.407Z</time>
      </trkpt>
      <trkpt lat="41.36143" lon="41.67432">
        <ele>111.400188</ele>
        <time>2021-11-15T16:06:44.703Z</time>
      </trkpt>
      <trkpt lat="41.36096" lon="41.67466">
        <ele>112.019352</ele>
        <time>2021-11-15T16:07:00.265Z</time>
      </trkpt>
      <trkpt lat="41.35953" lon="41.67619">
        <ele>113.153903</ele>
        <time>2021-11-15T16:07:46.299Z</time>
      </trkpt>
      <trkpt lat="41.35926" lon="41.67638">
        <ele>113.269432</ele>
        <time>2021-11-15T16:07:52.894Z</time>
      </trkpt>
      <trkpt lat="41.35903" lon="41.67646">
        <ele>113.356332</ele>
        <time>2021-11-15T16:07:57.853Z</time>
      </trkpt>
      <trkpt lat="41.35892" lon="41.6765">
        <ele>113.234938</ele>
        <time>2021-11-15T16:08:00.406Z</time>
      </trkpt>
      <trkpt lat="41.35865" lon="41.67652">
        <ele>112.936984</ele>
        <time>2021-11-15T16:08:06.066Z</time>
      </trkpt>
      <trkpt lat="41.35769" lon="41.6763">
        <ele>111.856332</ele>
        <time>2021-11-15T16:08:23.692Z</time>
      </trkpt>
      <trkpt lat="41.35728" lon="41.67636">
        <ele>111.399596</ele>
        <time>2021-11-15T16:08:31.177Z</time>
      </trkpt>
      <trkpt lat="41.35704" lon="41.67643">
        <ele>111.562065</ele>
        <time>2021-11-15T16:08:35.727Z</time>
      </trkpt>
      <trkpt lat="41.35675" lon="41.67661">
        <ele>111.862127</ele>
        <time>2021-11-15T16:08:42.735Z</time>
      </trkpt>
      <trkpt lat="41.35632" lon="41.67683">
        <ele>112.292963</ele>
        <time>2021-11-15T16:08:55.628Z</time>
      </trkpt>
      <trkpt lat="41.35565" lon="41.67717">
        <ele>112.96902</ele>
        <time>2021-11-15T16:09:16.748Z</time>
      </trkpt>
      <trkpt lat="41.35541" lon="41.67726">
        <ele>113.258946</ele>
        <time>2021-11-15T16:09:24.187Z</time>
      </trkpt>
      <trkpt lat="41.3551" lon="41.6773">
        <ele>113.673624</ele>
        <time>2021-11-15T16:09:35.202Z</time>
      </trkpt>
      <trkpt lat="41.35486" lon="41.67726">
        <ele>113.985811</ele>
        <time>2021-11-15T16:09:43.084Z</time>
      </trkpt>
      <trkpt lat="41.35463" lon="41.67721">
        <ele>114.285131</ele>
        <time>2021-11-15T16:09:50.137Z</time>
      </trkpt>
      <trkpt lat="41.3538" lon="41.67674">
        <ele>115.238654</ele>
        <time>2021-11-15T16:10:13.998Z</time>
      </trkpt>
      <trkpt lat="41.35319" lon="41.67659">
        <ele>113.568529</ele>
        <time>2021-11-15T16:10:24.382Z</time>
      </trkpt>
      <trkpt lat="41.3529" lon="41.67663">
        <ele>112.804918</ele>
        <time>2021-11-15T16:10:28.903Z</time>
      </trkpt>
      <trkpt lat="41.35266" lon="41.67673">
        <ele>112.109377</ele>
        <time>2021-11-15T16:10:33.005Z</time>
      </trkpt>
      <trkpt lat="41.35244" lon="41.67695">
        <ele>111.389314</ele>
        <time>2021-11-15T16:10:37.246Z</time>
      </trkpt>
      <trkpt lat="41.35227" lon="41.67729">
        <ele>110.557008</ele>
        <time>2021-11-15T16:10:42.228Z</time>
      </trkpt>
      <trkpt lat="41.35207" lon="41.67825">
        <ele>109.929541</ele>
        <time>2021-11-15T16:10:54.606Z</time>
      </trkpt>
      <trkpt lat="41.35205" lon="41.67874">
        <ele>109.617729</ele>
        <time>2021-11-15T16:11:01.302Z</time>
      </trkpt>
      <trkpt lat="41.3522" lon="41.68039">
        <ele>112.154914</ele>
        <time>2021-11-15T16:11:38.028Z</time>
      </trkpt>
      <trkpt lat="41.35237" lon="41.68136">
        <ele>116.260729</ele>
        <time>2021-11-15T16:12:14.206Z</time>
      </trkpt>
      <trkpt lat="41.35252" lon="41.68226">
        <ele>120.658304</ele>
        <time>2021-11-15T16:12:52.606Z</time>
      </trkpt>
      <trkpt lat="41.35255" lon="41.68326">
        <ele>126.857591</ele>
        <time>2021-11-15T16:13:36.320Z</time>
      </trkpt>
      <trkpt lat="41.35261" lon="41.68342">
        <ele>128.002637</ele>
        <time>2021-11-15T16:13:44.598Z</time>
      </trkpt>
      <trkpt lat="41.3528" lon="41.68355">
        <ele>129.742654</ele>
        <time>2021-11-15T16:13:56.980Z</time>
      </trkpt>
      <trkpt lat="41.35308" lon="41.68348">
        <ele>132.133433</ele>
        <time>2021-11-15T16:14:12.875Z</time>
      </trkpt>
      <trkpt lat="41.35316" lon="41.68342">
        <ele>132.904699</ele>
        <time>2021-11-15T16:14:17.804Z</time>
      </trkpt>
      <trkpt lat="41.35327" lon="41.68314">
        <ele>134.653147</ele>
        <time>2021-11-15T16:14:29.564Z</time>
      </trkpt>
      <trkpt lat="41.35311" lon="41.68179">
        <ele>141.244799</ele>
        <time>2021-11-15T16:15:16.091Z</time>
      </trkpt>
      <trkpt lat="41.35313" lon="41.68133">
        <ele>143.448316</ele>
        <time>2021-11-15T16:15:32.745Z</time>
      </trkpt>
      <trkpt lat="41.35319" lon="41.68117">
        <ele>144.312431</ele>
        <time>2021-11-15T16:15:39.155Z</time>
      </trkpt>
      <trkpt lat="41.35341" lon="41.68092">
        <ele>146.209513</ele>
        <time>2021-11-15T16:15:53.544Z</time>
      </trkpt>
      <trkpt lat="41.35353" lon="41.68088">
        <ele>147.027999</ele>
        <time>2021-11-15T16:15:59.726Z</time>
      </trkpt>
      <trkpt lat="41.35376" lon="41.68092">
        <ele>148.544719</ele>
        <time>2021-11-15T16:16:11.168Z</time>
      </trkpt>
      <trkpt lat="41.35399" lon="41.68118">
        <ele>150.535958</ele>
        <time>2021-11-15T16:16:26.395Z</time>
      </trkpt>
      <trkpt lat="41.35407" lon="41.68161">
        <ele>152.732761</ele>
        <time>2021-11-15T16:16:43.217Z</time>
      </trkpt>
      <trkpt lat="41.3534" lon="41.68384">
        <ele>162.880364</ele>
        <time>2021-11-15T16:18:08.053Z</time>
      </trkpt>
      <trkpt lat="41.35276" lon="41.68554">
        <ele>169.65808</ele>
        <time>2021-11-15T16:18:57.765Z</time>
      </trkpt>
      <trkpt lat="41.35272" lon="41.68582">
        <ele>170.637338</ele>
        <time>2021-11-15T16:19:05.190Z</time>
      </trkpt>
      <trkpt lat="41.35282" lon="41.6868">
        <ele>173.964078</ele>
        <time>2021-11-15T16:19:34.883Z</time>
      </trkpt>
      <trkpt lat="41.35243" lon="41.68818">
        <ele>186.082376</ele>
        <time>2021-11-15T16:20:39.904Z</time>
      </trkpt>
      <trkpt lat="41.35213" lon="41.68863">
        <ele>191.278066</ele>
        <time>2021-11-15T16:21:15.610Z</time>
      </trkpt>
      <trkpt lat="41.3521" lon="41.68882">
        <ele>193.011232</ele>
        <time>2021-11-15T16:21:28.541Z</time>
      </trkpt>
      <trkpt lat="41.35212" lon="41.68923">
        <ele>197.089348</ele>
        <time>2021-11-15T16:21:55.868Z</time>
      </trkpt>
      <trkpt lat="41.35225" lon="41.68962">
        <ele>202.50125</ele>
        <time>2021-11-15T16:22:26.153Z</time>
      </trkpt>
      <trkpt lat="41.35228" lon="41.69011">
        <ele>208.611365</ele>
        <time>2021-11-15T16:23:01.127Z</time>
      </trkpt>
      <trkpt lat="41.35224" lon="41.69035">
        <ele>211.603687</ele>
        <time>2021-11-15T16:23:18.264Z</time>
      </trkpt>
      <trkpt lat="41.35215" lon="41.69048">
        <ele>213.85331</ele>
        <time>2021-11-15T16:23:30.554Z</time>
      </trkpt>
      <trkpt lat="41.35177" lon="41.69081">
        <ele>221.401479</ele>
        <time>2021-11-15T16:24:10.858Z</time>
      </trkpt>
      <trkpt lat="41.35158" lon="41.6915">
        <ele>228.371574</ele>
        <time>2021-11-15T16:24:56.397Z</time>
      </trkpt>
      <trkpt lat="41.3514" lon="41.69165">
        <ele>230.493972</ele>
        <time>2021-11-15T16:25:12.227Z</time>
      </trkpt>
      <trkpt lat="41.35072" lon="41.6914">
        <ele>237.63646</ele>
        <time>2021-11-15T16:25:55.797Z</time>
      </trkpt>
      <trkpt lat="41.35032" lon="41.69151">
        <ele>241.861831</ele>
        <time>2021-11-15T16:26:15.941Z</time>
      </trkpt>
      <trkpt lat="41.3501" lon="41.69183">
        <ele>244.213295</ele>
        <time>2021-11-15T16:26:30.269Z</time>
      </trkpt>
      <trkpt lat="41.34948" lon="41.69252">
        <ele>248.228338</ele>
        <time>2021-11-15T16:27:02.253Z</time>
      </trkpt>
      <trkpt lat="41.34926" lon="41.69286">
        <ele>249.919054</ele>
        <time>2021-11-15T16:27:16.002Z</time>
      </trkpt>
      <trkpt lat="41.3491" lon="41.69296">
        <ele>250.812863</ele>
        <time>2021-11-15T16:27:23.686Z</time>
      </trkpt>
      <trkpt lat="41.34883" lon="41.69297">
        <ele>252.147786</ele>
        <time>2021-11-15T16:27:34.540Z</time>
      </trkpt>
      <trkpt lat="41.34822" lon="41.69281">
        <ele>255.87386</ele>
        <time>2021-11-15T16:28:01.824Z</time>
      </trkpt>
      <trkpt lat="41.34794" lon="41.69284">
        <ele>257.58391</ele>
        <time>2021-11-15T16:28:15.754Z</time>
      </trkpt>
      <trkpt lat="41.34771" lon="41.6931">
        <ele>259.376755</ele>
        <time>2021-11-15T16:28:30.530Z</time>
      </trkpt>
      <trkpt lat="41.34723" lon="41.6934">
        <ele>262.555743</ele>
        <time>2021-11-15T16:28:55.792Z</time>
      </trkpt>
      <trkpt lat="41.34688" lon="41.69419">
        <ele>264.005894</ele>
        <time>2021-11-15T16:29:28.472Z</time>
      </trkpt>
      <trkpt lat="41.34652" lon="41.69443">
        <ele>264.590638</ele>
        <time>2021-11-15T16:29:43.815Z</time>
      </trkpt>
      <trkpt lat="41.34609" lon="41.69437">
        <ele>265.230709</ele>
        <time>2021-11-15T16:29:54.038Z</time>
      </trkpt>
      <trkpt lat="41.34583" lon="41.6941">
        <ele>265.713882</ele>
        <time>2021-11-15T16:29:59.326Z</time>
      </trkpt>
      <trkpt lat="41.34548" lon="41.69347">
        <ele>258.703153</ele>
        <time>2021-11-15T16:30:07.498Z</time>
      </trkpt>
      <trkpt lat="41.34527" lon="41.6933">
        <ele>255.506826</ele>
        <time>2021-11-15T16:30:10.770Z</time>
      </trkpt>
      <trkpt lat="41.34501" lon="41.69327">
        <ele>252.099398</ele>
        <time>2021-11-15T16:30:14.188Z</time>
      </trkpt>
      <trkpt lat="41.34458" lon="41.69354">
        <ele>245.925734</ele>
        <time>2021-11-15T16:30:20.306Z</time>
      </trkpt>
      <trkpt lat="41.3443" lon="41.69354">
        <ele>242.127217</ele>
        <time>2021-11-15T16:30:23.953Z</time>
      </trkpt>
      <trkpt lat="41.34335" lon="41.69326">
        <ele>225.376502</ele>
        <time>2021-11-15T16:30:36.258Z</time>
      </trkpt>
      <trkpt lat="41.34309" lon="41.6933">
        <ele>220.8711</ele>
        <time>2021-11-15T16:30:39.583Z</time>
      </trkpt>
      <trkpt lat="41.34284" lon="41.69359">
        <ele>215.179748</ele>
        <time>2021-11-15T16:30:43.832Z</time>
      </trkpt>
      <trkpt lat="41.34256" lon="41.69379">
        <ele>210.918318</ele>
        <time>2021-11-15T16:30:48.059Z</time>
      </trkpt>
      <trkpt lat="41.34247" lon="41.69402">
        <ele>210.108213</ele>
        <time>2021-11-15T16:30:50.703Z</time>
      </trkpt>
      <trkpt lat="41.34264" lon="41.69484">
        <ele>207.49925</ele>
        <time>2021-11-15T16:30:59.872Z</time>
      </trkpt>
      <trkpt lat="41.3426" lon="41.69517">
        <ele>206.476722</ele>
        <time>2021-11-15T16:31:04.052Z</time>
      </trkpt>
      <trkpt lat="41.34251" lon="41.69541">
        <ele>205.662243</ele>
        <time>2021-11-15T16:31:07.862Z</time>
      </trkpt>
      <trkpt lat="41.34219" lon="41.69565">
        <ele>204.141226</ele>
        <time>2021-11-15T16:31:19.279Z</time>
      </trkpt>
      <trkpt lat="41.3421" lon="41.69583">
        <ele>205.3518</ele>
        <time>2021-11-15T16:31:26.160Z</time>
      </trkpt>
      <trkpt lat="41.34203" lon="41.69697">
        <ele>215.401946</ele>
        <time>2021-11-15T16:32:21.147Z</time>
      </trkpt>
      <trkpt lat="41.3424" lon="41.69819">
        <ele>226.210046</ele>
        <time>2021-11-15T16:33:50.231Z</time>
      </trkpt>
      <trkpt lat="41.34247" lon="41.69858">
        <ele>228.426744</ele>
        <time>2021-11-15T16:34:11.716Z</time>
      </trkpt>
      <trkpt lat="41.34245" lon="41.69895">
        <ele>230.421356</ele>
        <time>2021-11-15T16:34:31.495Z</time>
      </trkpt>
      <trkpt lat="41.3423" lon="41.69924">
        <ele>232.439266</ele>
        <time>2021-11-15T16:34:47.458Z</time>
      </trkpt>
      <trkpt lat="41.34205" lon="41.6993">
        <ele>234.276678</ele>
        <time>2021-11-15T16:34:55.325Z</time>
      </trkpt>
      <trkpt lat="41.34118" lon="41.69921">
        <ele>236.296168</ele>
        <time>2021-11-15T16:35:18.689Z</time>
      </trkpt>
      <trkpt lat="41.34099" lon="41.69931">
        <ele>235.103566</ele>
        <time>2021-11-15T16:35:21.555Z</time>
      </trkpt>
      <trkpt lat="41.34078" lon="41.69953">
        <ele>233.591736</ele>
        <time>2021-11-15T16:35:25.139Z</time>
      </trkpt>
      <trkpt lat="41.34038" lon="41.70039">
        <ele>229.267236</ele>
        <time>2021-11-15T16:35:35.714Z</time>
      </trkpt>
      <trkpt lat="41.34023" lon="41.70062">
        <ele>227.976824</ele>
        <time>2021-11-15T16:35:39.053Z</time>
      </trkpt>
      <trkpt lat="41.3395" lon="41.70125">
        <ele>226.812465</ele>
        <time>2021-11-15T16:35:52.902Z</time>
      </trkpt>
      <trkpt lat="41.33938" lon="41.70148">
        <ele>226.536166</ele>
        <time>2021-11-15T16:35:57.235Z</time>
      </trkpt>
      <trkpt lat="41.33935" lon="41.7017">
        <ele>226.312316</ele>
        <time>2021-11-15T16:36:01.341Z</time>
      </trkpt>
      <trkpt lat="41.33936" lon="41.70221">
        <ele>225.80223</ele>
        <time>2021-11-15T16:36:13.485Z</time>
      </trkpt>
      <trkpt lat="41.33933" lon="41.70245">
        <ele>225.619889</ele>
        <time>2021-11-15T16:36:19.922Z</time>
      </trkpt>
      <trkpt lat="41.33916" lon="41.7027">
        <ele>226.409654</ele>
        <time>2021-11-15T16:36:28.921Z</time>
      </trkpt>
      <trkpt lat="41.33902" lon="41.70281">
        <ele>226.915062</ele>
        <time>2021-11-15T16:36:34.732Z</time>
      </trkpt>
      <trkpt lat="41.33781" lon="41.70335">
        <ele>230.849959</ele>
        <time>2021-11-15T16:37:19.013Z</time>
      </trkpt>
      <trkpt lat="41.33752" lon="41.70356">
        <ele>231.807121</ele>
        <time>2021-11-15T16:37:30.854Z</time>
      </trkpt>
      <trkpt lat="41.33727" lon="41.70384">
        <ele>232.734169</ele>
        <time>2021-11-15T16:37:42.671Z</time>
      </trkpt>
      <trkpt lat="41.33707" lon="41.70452">
        <ele>234.272247</ele>
        <time>2021-11-15T16:38:01.639Z</time>
      </trkpt>
      <trkpt lat="41.33697" lon="41.70467">
        <ele>234.694959</ele>
        <time>2021-11-15T16:38:06.686Z</time>
      </trkpt>
      <trkpt lat="41.33683" lon="41.70479">
        <ele>235.177149</ele>
        <time>2021-11-15T16:38:12.044Z</time>
      </trkpt>
      <trkpt lat="41.3366" lon="41.70486">
        <ele>235.834194</ele>
        <time>2021-11-15T16:38:19.241Z</time>
      </trkpt>
      <trkpt lat="41.3362" lon="41.70482">
        <ele>236.869114</ele>
        <time>2021-11-15T16:38:30.884Z</time>
      </trkpt>
      <trkpt lat="41.33574" lon="41.70506">
        <ele>238.094116</ele>
        <time>2021-11-15T16:38:45.683Z</time>
      </trkpt>
      <trkpt lat="41.33497" lon="41.70625">
        <ele>240.821913</ele>
        <time>2021-11-15T16:39:26.103Z</time>
      </trkpt>
      <trkpt lat="41.33476" lon="41.7064">
        <ele>241.123126</ele>
        <time>2021-11-15T16:39:33.636Z</time>
      </trkpt>
      <trkpt lat="41.3345" lon="41.70644">
        <ele>241.468285</ele>
        <time>2021-11-15T16:39:41.569Z</time>
      </trkpt>
      <trkpt lat="41.33405" lon="41.70623">
        <ele>242.067152</ele>
        <time>2021-11-15T16:39:54.380Z</time>
      </trkpt>
      <trkpt lat="41.33381" lon="41.70637">
        <ele>242.403334</ele>
        <time>2021-11-15T16:40:01.287Z</time>
      </trkpt>
      <trkpt lat="41.3336" lon="41.70639">
        <ele>242.669297</ele>
        <time>2021-11-15T16:40:06.346Z</time>
      </trkpt>
      <trkpt lat="41.3329" lon="41.7066">
        <ele>240.776054</ele>
        <time>2021-11-15T16:40:21.878Z</time>
      </trkpt>
      <trkpt lat="41.33228" lon="41.70667">
        <ele>238.211177</ele>
        <time>2021-11-15T16:40:31.835Z</time>
      </trkpt>
      <trkpt lat="41.33199" lon="41.7068">
        <ele>236.95507</ele>
        <time>2021-11-15T16:40:36.149Z</time>
      </trkpt>
      <trkpt lat="41.33157" lon="41.70724">
        <ele>233.650262</ele>
        <time>2021-11-15T16:40:43.718Z</time>
      </trkpt>
      <trkpt lat="41.33125" lon="41.70759">
        <ele>229.61209</ele>
        <time>2021-11-15T16:40:49.400Z</time>
      </trkpt>
      <trkpt lat="41.33099" lon="41.70783">
        <ele>226.557931</ele>
        <time>2021-11-15T16:40:53.598Z</time>
      </trkpt>
      <trkpt lat="41.33067" lon="41.70812">
        <ele>222.733127</ele>
        <time>2021-11-15T16:40:58.904Z</time>
      </trkpt>
      <trkpt lat="41.33046" lon="41.70847">
        <ele>219.478679</ele>
        <time>2021-11-15T16:41:03.374Z</time>
      </trkpt>
      <trkpt lat="41.3302" lon="41.70931">
        <ele>214.58554</ele>
        <time>2021-11-15T16:41:12.572Z</time>
      </trkpt>
      <trkpt lat="41.33015" lon="41.70973">
        <ele>212.574017</ele>
        <time>2021-11-15T16:41:17.098Z</time>
      </trkpt>
      <trkpt lat="41.33014" lon="41.71162">
        <ele>206.576369</ele>
        <time>2021-11-15T16:41:39.704Z</time>
      </trkpt>
      <trkpt lat="41.33006" lon="41.71254">
        <ele>206.722819</ele>
        <time>2021-11-15T16:41:55.756Z</time>
      </trkpt>
      <trkpt lat="41.33008" lon="41.71311">
        <ele>206.812902</ele>
        <time>2021-11-15T16:42:08.844Z</time>
      </trkpt>
      <trkpt lat="41.33015" lon="41.71355">
        <ele>207.352457</ele>
        <time>2021-11-15T16:42:21.306Z</time>
      </trkpt>
      <trkpt lat="41.33043" lon="41.71454">
        <ele>210.537926</ele>
        <time>2021-11-15T16:42:53.509Z</time>
      </trkpt>
      <trkpt lat="41.33045" lon="41.71476">
        <ele>211.212849</ele>
        <time>2021-11-15T16:43:00.237Z</time>
      </trkpt>
      <trkpt lat="41.33039" lon="41.7151">
        <ele>212.269452</ele>
        <time>2021-11-15T16:43:10.244Z</time>
      </trkpt>
      <trkpt lat="41.33019" lon="41.71573">
        <ele>214.354323</ele>
        <time>2021-11-15T16:43:29.738Z</time>
      </trkpt>
      <trkpt lat="41.32992" lon="41.71626">
        <ele>216.552033</ele>
        <time>2021-11-15T16:43:47.862Z</time>
      </trkpt>
      <trkpt lat="41.32952" lon="41.71685">
        <ele>219.338653</ele>
        <time>2021-11-15T16:44:11.352Z</time>
      </trkpt>
      <trkpt lat="41.32895" lon="41.71797">
        <ele>225.032818</ele>
        <time>2021-11-15T16:44:55.239Z</time>
      </trkpt>
      <trkpt lat="41.32886" lon="41.71836">
        <ele>227.308072</ele>
        <time>2021-11-15T16:45:10.702Z</time>
      </trkpt>
      <trkpt lat="41.32884" lon="41.7187">
        <ele>229.228656</ele>
        <time>2021-11-15T16:45:24.616Z</time>
      </trkpt>
      <trkpt lat="41.32898" lon="41.71939">
        <ele>233.253306</ele>
        <time>2021-11-15T16:45:55.133Z</time>
      </trkpt>
      <trkpt lat="41.32898" lon="41.71963">
        <ele>234.597916</ele>
        <time>2021-11-15T16:46:05.543Z</time>
      </trkpt>
      <trkpt lat="41.3289" lon="41.71989">
        <ele>236.171651</ele>
        <time>2021-11-15T16:46:17.728Z</time>
      </trkpt>
      <trkpt lat="41.32878" lon="41.7201">
        <ele>237.501292</ele>
        <time>2021-11-15T16:46:28.728Z</time>
      </trkpt>
      <trkpt lat="41.3286" lon="41.72024">
        <ele>238.952449</ele>
        <time>2021-11-15T16:46:40.484Z</time>
      </trkpt>
      <trkpt lat="41.32783" lon="41.72049">
        <ele>244.451857</ele>
        <time>2021-11-15T16:47:21.014Z</time>
      </trkpt>
      <trkpt lat="41.32692" lon="41.72106">
        <ele>248.528051</ele>
        <time>2021-11-15T16:48:05.295Z</time>
      </trkpt>
      <trkpt lat="41.32616" lon="41.72209">
        <ele>249.110602</ele>
        <time>2021-11-15T16:48:37.307Z</time>
      </trkpt>
      <trkpt lat="41.32562" lon="41.72265">
        <ele>243.984599</ele>
        <time>2021-11-15T16:48:46.838Z</time>
      </trkpt>
      <trkpt lat="41.32465" lon="41.72338">
        <ele>229.979152</ele>
        <time>2021-11-15T16:49:02.060Z</time>
      </trkpt>
      <trkpt lat="41.32434" lon="41.72352">
        <ele>225.874347</ele>
        <time>2021-11-15T16:49:06.306Z</time>
      </trkpt>
      <trkpt lat="41.32402" lon="41.72403">
        <ele>220.242016</ele>
        <time>2021-11-15T16:49:12.666Z</time>
      </trkpt>
      <trkpt lat="41.32382" lon="41.72448">
        <ele>215.770665</ele>
        <time>2021-11-15T16:49:17.821Z</time>
      </trkpt>
      <trkpt lat="41.32369" lon="41.72503">
        <ele>210.911979</ele>
        <time>2021-11-15T16:49:23.682Z</time>
      </trkpt>
      <trkpt lat="41.32375" lon="41.72602">
        <ele>207.583354</ele>
        <time>2021-11-15T16:49:36.459Z</time>
      </trkpt>
      <trkpt lat="41.32367" lon="41.72785">
        <ele>212.84579</ele>
        <time>2021-11-15T16:50:34.969Z</time>
      </trkpt>
      <trkpt lat="41.32369" lon="41.72807">
        <ele>213.804962</ele>
        <time>2021-11-15T16:50:45.860Z</time>
      </trkpt>
      <trkpt lat="41.32395" lon="41.729">
        <ele>219.450279</ele>
        <time>2021-11-15T16:51:33.385Z</time>
      </trkpt>
      <trkpt lat="41.32392" lon="41.72952">
        <ele>222.369713</ele>
        <time>2021-11-15T16:51:54.642Z</time>
      </trkpt>
      <trkpt lat="41.3238" lon="41.7298">
        <ele>224.264939</ele>
        <time>2021-11-15T16:52:07.113Z</time>
      </trkpt>
      <trkpt lat="41.32365" lon="41.72991">
        <ele>225.500211</ele>
        <time>2021-11-15T16:52:14.337Z</time>
      </trkpt>
      <trkpt lat="41.32346" lon="41.72993">
        <ele>226.84761</ele>
        <time>2021-11-15T16:52:22.501Z</time>
      </trkpt>
      <trkpt lat="41.32313" lon="41.73017">
        <ele>227.954651</ele>
        <time>2021-11-15T16:52:36.797Z</time>
      </trkpt>
      <trkpt lat="41.32243" lon="41.73102">
        <ele>230.718899</ele>
        <time>2021-11-15T16:53:02.138Z</time>
      </trkpt>
      <trkpt lat="41.32152" lon="41.73243">
        <ele>239.822732</ele>
        <time>2021-11-15T16:53:55.236Z</time>
      </trkpt>
      <trkpt lat="41.32131" lon="41.73282">
        <ele>242.767907</ele>
        <time>2021-11-15T16:54:18.968Z</time>
      </trkpt>
      <trkpt lat="41.32119" lon="41.73365">
        <ele>248.480817</ele>
        <time>2021-11-15T16:55:09.118Z</time>
      </trkpt>
      <trkpt lat="41.32104" lon="41.73415">
        <ele>253.208048</ele>
        <time>2021-11-15T16:55:42.787Z</time>
      </trkpt>
      <trkpt lat="41.32059" lon="41.73486">
        <ele>261.478679</ele>
        <time>2021-11-15T16:56:39.292Z</time>
      </trkpt>
      <trkpt lat="41.32036" lon="41.73495">
        <ele>264.282953</ele>
        <time>2021-11-15T16:56:54.752Z</time>
      </trkpt>
      <trkpt lat="41.32014" lon="41.73484">
        <ele>267.088691</ele>
        <time>2021-11-15T16:57:07.599Z</time>
      </trkpt>
      <trkpt lat="41.31962" lon="41.73396">
        <ele>267.664811</ele>
        <time>2021-11-15T16:57:33.892Z</time>
      </trkpt>
      <trkpt lat="41.31941" lon="41.73392">
        <ele>267.567707</ele>
        <time>2021-11-15T16:57:37.636Z</time>
      </trkpt>
      <trkpt lat="41.31906" lon="41.73407">
        <ele>267.402039</ele>
        <time>2021-11-15T16:57:43.405Z</time>
      </trkpt>
      <trkpt lat="41.31852" lon="41.73372">
        <ele>267.508287</ele>
        <time>2021-11-15T16:57:52.359Z</time>
      </trkpt>
      <trkpt lat="41.31826" lon="41.73363">
        <ele>268.082094</ele>
        <time>2021-11-15T16:57:56.820Z</time>
      </trkpt>
      <trkpt lat="41.31817" lon="41.73365">
        <ele>268.270019</ele>
        <time>2021-11-15T16:57:58.306Z</time>
      </trkpt>
      <trkpt lat="41.31801" lon="41.73384">
        <ele>268.732917</ele>
        <time>2021-11-15T16:58:02.421Z</time>
      </trkpt>
      <trkpt lat="41.31776" lon="41.73446">
        <ele>269.846576</ele>
        <time>2021-11-15T16:58:18.735Z</time>
      </trkpt>
      <trkpt lat="41.31764" lon="41.73465">
        <ele>270.244992</ele>
        <time>2021-11-15T16:58:27.009Z</time>
      </trkpt>
      <trkpt lat="41.31663" lon="41.73549">
        <ele>279.234225</ele>
        <time>2021-11-15T16:59:41.182Z</time>
      </trkpt>
      <trkpt lat="41.31647" lon="41.7357">
        <ele>281.543203</ele>
        <time>2021-11-15T16:59:57.963Z</time>
      </trkpt>
      <trkpt lat="41.31626" lon="41.73587">
        <ele>283.936611</ele>
        <time>2021-11-15T17:00:15.985Z</time>
      </trkpt>
      <trkpt lat="41.31592" lon="41.73598">
        <ele>287.419448</ele>
        <time>2021-11-15T17:00:39.517Z</time>
      </trkpt>
      <trkpt lat="41.31568" lon="41.73597">
        <ele>289.071722</ele>
        <time>2021-11-15T17:00:53.622Z</time>
      </trkpt>
      <trkpt lat="41.31484" lon="41.73553">
        <ele>290.578176</ele>
        <time>2021-11-15T17:01:29.580Z</time>
      </trkpt>
      <trkpt lat="41.31428" lon="41.73508">
        <ele>291.68116</ele>
        <time>2021-11-15T17:01:41.267Z</time>
      </trkpt>
      <trkpt lat="41.31345" lon="41.73463">
        <ele>286.604975</ele>
        <time>2021-11-15T17:01:54.200Z</time>
      </trkpt>
      <trkpt lat="41.31284" lon="41.73421">
        <ele>281.750392</ele>
        <time>2021-11-15T17:02:03.564Z</time>
      </trkpt>
      <trkpt lat="41.31225" lon="41.73373">
        <ele>277.551466</ele>
        <time>2021-11-15T17:02:13.510Z</time>
      </trkpt>
      <trkpt lat="41.31203" lon="41.73346">
        <ele>276.144051</ele>
        <time>2021-11-15T17:02:17.992Z</time>
      </trkpt>
      <trkpt lat="41.31197" lon="41.73338">
        <ele>275.739065</ele>
        <time>2021-11-15T17:02:19.190Z</time>
      </trkpt>
      <trkpt lat="41.31188" lon="41.73327">
        <ele>275.13434</ele>
        <time>2021-11-15T17:02:21.224Z</time>
      </trkpt>
      <trkpt lat="41.31158" lon="41.73307">
        <ele>273.522299</ele>
        <time>2021-11-15T17:02:26.539Z</time>
      </trkpt>
      <trkpt lat="41.31126" lon="41.73298">
        <ele>271.963652</ele>
        <time>2021-11-15T17:02:31.744Z</time>
      </trkpt>
      <trkpt lat="41.31104" lon="41.73299">
        <ele>270.889235</ele>
        <time>2021-11-15T17:02:35.499Z</time>
      </trkpt>
      <trkpt lat="41.31027" lon="41.73322">
        <ele>266.802218</ele>
        <time>2021-11-15T17:02:48.048Z</time>
      </trkpt>
      <trkpt lat="41.30959" lon="41.73335">
        <ele>263.25247</ele>
        <time>2021-11-15T17:02:58.136Z</time>
      </trkpt>
      <trkpt lat="41.30915" lon="41.73323">
        <ele>261.055904</ele>
        <time>2021-11-15T17:03:04.589Z</time>
      </trkpt>
      <trkpt lat="41.30864" lon="41.73289">
        <ele>260.213124</ele>
        <time>2021-11-15T17:03:12.683Z</time>
      </trkpt>
      <trkpt lat="41.3083" lon="41.73286">
        <ele>259.704293</ele>
        <time>2021-11-15T17:03:18.141Z</time>
      </trkpt>
      <trkpt lat="41.30795" lon="41.73306">
        <ele>259.12519</ele>
        <time>2021-11-15T17:03:25.990Z</time>
      </trkpt>
      <trkpt lat="41.30769" lon="41.73349">
        <ele>258.512457</ele>
        <time>2021-11-15T17:03:40.268Z</time>
      </trkpt>
      <trkpt lat="41.30684" lon="41.73603">
        <ele>272.207934</ele>
        <time>2021-11-15T17:05:42.027Z</time>
      </trkpt>
      <trkpt lat="41.30625" lon="41.73694">
        <ele>271.978196</ele>
        <time>2021-11-15T17:06:07.193Z</time>
      </trkpt>
      <trkpt lat="41.30541" lon="41.73825">
        <ele>267.263455</ele>
        <time>2021-11-15T17:06:26.641Z</time>
      </trkpt>
      <trkpt lat="41.30437" lon="41.73925">
        <ele>258.100977</ele>
        <time>2021-11-15T17:06:45.742Z</time>
      </trkpt>
      <trkpt lat="41.30302" lon="41.7403">
        <ele>246.222859</ele>
        <time>2021-11-15T17:07:08.099Z</time>
      </trkpt>
      <trkpt lat="41.30216" lon="41.74088">
        <ele>237.098816</ele>
        <time>2021-11-15T17:07:21.194Z</time>
      </trkpt>
      <trkpt lat="41.30136" lon="41.74109">
        <ele>229.13135</ele>
        <time>2021-11-15T17:07:32.159Z</time>
      </trkpt>
      <trkpt lat="41.30108" lon="41.74122">
        <ele>226.852558</ele>
        <time>2021-11-15T17:07:36.215Z</time>
      </trkpt>
      <trkpt lat="41.30082" lon="41.74149">
        <ele>224.898209</ele>
        <time>2021-11-15T17:07:40.753Z</time>
      </trkpt>
      <trkpt lat="41.30072" lon="41.74169">
        <ele>223.815834</ele>
        <time>2021-11-15T17:07:43.305Z</time>
      </trkpt>
      <trkpt lat="41.30036" lon="41.74268">
        <ele>218.889858</ele>
        <time>2021-11-15T17:07:55.623Z</time>
      </trkpt>
      <trkpt lat="41.30033" lon="41.74322">
        <ele>217.46106</ele>
        <time>2021-11-15T17:08:02.755Z</time>
      </trkpt>
      <trkpt lat="41.30042" lon="41.74396">
        <ele>219.012936</ele>
        <time>2021-11-15T17:08:17.259Z</time>
      </trkpt>
      <trkpt lat="41.30037" lon="41.74439">
        <ele>219.904356</ele>
        <time>2021-11-15T17:08:28.345Z</time>
      </trkpt>
      <trkpt lat="41.30009" lon="41.74488">
        <ele>221.195247</ele>
        <time>2021-11-15T17:08:47.500Z</time>
      </trkpt>
      <trkpt lat="41.29956" lon="41.74555">
        <ele>225.112064</ele>
        <time>2021-11-15T17:09:22.541Z</time>
      </trkpt>
      <trkpt lat="41.29945" lon="41.74593">
        <ele>227.424269</ele>
        <time>2021-11-15T17:09:38.980Z</time>
      </trkpt>
      <trkpt lat="41.29952" lon="41.74641">
        <ele>230.216631</ele>
        <time>2021-11-15T17:10:00.268Z</time>
      </trkpt>
      <trkpt lat="41.29984" lon="41.74737">
        <ele>236.004668</ele>
        <time>2021-11-15T17:10:43.603Z</time>
      </trkpt>
      <trkpt lat="41.29982" lon="41.74779">
        <ele>237.519993</ele>
        <time>2021-11-15T17:10:59.869Z</time>
      </trkpt>
      <trkpt lat="41.29964" lon="41.74814">
        <ele>239.064917</ele>
        <time>2021-11-15T17:11:15.355Z</time>
      </trkpt>
      <trkpt lat="41.29844" lon="41.74952">
        <ele>245.38023</ele>
        <time>2021-11-15T17:12:11.043Z</time>
      </trkpt>
      <trkpt lat="41.29813" lon="41.75005">
        <ele>246.479143</ele>
        <time>2021-11-15T17:12:24.449Z</time>
      </trkpt>
      <trkpt lat="41.29683" lon="41.75302">
        <ele>252.414499</ele>
        <time>2021-11-15T17:13:43.830Z</time>
      </trkpt>
      <trkpt lat="41.29666" lon="41.75331">
        <ele>253.790522</ele>
        <time>2021-11-15T17:13:53.883Z</time>
      </trkpt>
      <trkpt lat="41.2963" lon="41.75366">
        <ele>256.159208</ele>
        <time>2021-11-15T17:14:11.258Z</time>
      </trkpt>
      <trkpt lat="41.29545" lon="41.75408">
        <ele>260.916809</ele>
        <time>2021-11-15T17:14:51.519Z</time>
      </trkpt>
      <trkpt lat="41.29515" lon="41.75437">
        <ele>263.462808</ele>
        <time>2021-11-15T17:15:10.940Z</time>
      </trkpt>
      <trkpt lat="41.29475" lon="41.75495">
        <ele>268.811893</ele>
        <time>2021-11-15T17:15:46.575Z</time>
      </trkpt>
      <trkpt lat="41.29457" lon="41.75535">
        <ele>271.963248</ele>
        <time>2021-11-15T17:16:08.571Z</time>
      </trkpt>
      <trkpt lat="41.2943" lon="41.75573">
        <ele>275.529638</ele>
        <time>2021-11-15T17:16:33.786Z</time>
      </trkpt>
      <trkpt lat="41.29414" lon="41.75589">
        <ele>277.320634</ele>
        <time>2021-11-15T17:16:46.125Z</time>
      </trkpt>
      <trkpt lat="41.29374" lon="41.75611">
        <ele>279.057815</ele>
        <time>2021-11-15T17:17:10.729Z</time>
      </trkpt>
      <trkpt lat="41.29298" lon="41.75616">
        <ele>281.037934</ele>
        <time>2021-11-15T17:17:43.806Z</time>
      </trkpt>
      <trkpt lat="41.29261" lon="41.75608">
        <ele>282.02317</ele>
        <time>2021-11-15T17:17:52.485Z</time>
      </trkpt>
      <trkpt lat="41.29237" lon="41.75592">
        <ele>282.741207</ele>
        <time>2021-11-15T17:17:56.859Z</time>
      </trkpt>
      <trkpt lat="41.29199" lon="41.7555">
        <ele>277.447365</ele>
        <time>2021-11-15T17:18:03.712Z</time>
      </trkpt>
      <trkpt lat="41.29162" lon="41.75531">
        <ele>272.388049</ele>
        <time>2021-11-15T17:18:09.077Z</time>
      </trkpt>
      <trkpt lat="41.29073" lon="41.75505">
        <ele>261.068239</ele>
        <time>2021-11-15T17:18:20.742Z</time>
      </trkpt>
      <trkpt lat="41.29" lon="41.75516">
        <ele>255.21674</ele>
        <time>2021-11-15T17:18:30.248Z</time>
      </trkpt>
      <trkpt lat="41.28967" lon="41.75507">
        <ele>252.605561</ele>
        <time>2021-11-15T17:18:34.895Z</time>
      </trkpt>
      <trkpt lat="41.28944" lon="41.75513">
        <ele>250.820151</ele>
        <time>2021-11-15T17:18:38.280Z</time>
      </trkpt>
      <trkpt lat="41.28919" lon="41.75541">
        <ele>248.380066</ele>
        <time>2021-11-15T17:18:43.516Z</time>
      </trkpt>
      <trkpt lat="41.28904" lon="41.75573">
        <ele>247.380735</ele>
        <time>2021-11-15T17:18:50.554Z</time>
      </trkpt>
      <trkpt lat="41.28866" lon="41.75767">
        <ele>263.493691</ele>
        <time>2021-11-15T17:20:43.489Z</time>
      </trkpt>
      <trkpt lat="41.28852" lon="41.75803">
        <ele>266.189992</ele>
        <time>2021-11-15T17:21:06.835Z</time>
      </trkpt>
      <trkpt lat="41.28831" lon="41.75829">
        <ele>267.320241</ele>
        <time>2021-11-15T17:21:25.816Z</time>
      </trkpt>
      <trkpt lat="41.28812" lon="41.75842">
        <ele>268.155569</ele>
        <time>2021-11-15T17:21:41.439Z</time>
      </trkpt>
      <trkpt lat="41.28621" lon="41.75938">
        <ele>270.773606</ele>
        <time>2021-11-15T17:22:25.556Z</time>
      </trkpt>
      <trkpt lat="41.28603" lon="41.75945">
        <ele>270.28888</ele>
        <time>2021-11-15T17:22:28.438Z</time>
      </trkpt>
      <trkpt lat="41.28566" lon="41.75963">
        <ele>269.287763</ele>
        <time>2021-11-15T17:22:34.245Z</time>
      </trkpt>
      <trkpt lat="41.28526" lon="41.75965">
        <ele>268.259783</ele>
        <time>2021-11-15T17:22:40.440Z</time>
      </trkpt>
      <trkpt lat="41.28496" lon="41.75962">
        <ele>267.458751</ele>
        <time>2021-11-15T17:22:45.427Z</time>
      </trkpt>
      <trkpt lat="41.28395" lon="41.75923">
        <ele>264.659395</ele>
        <time>2021-11-15T17:23:03.161Z</time>
      </trkpt>
      <trkpt lat="41.28329" lon="41.75922">
        <ele>263.61022</ele>
        <time>2021-11-15T17:23:14.334Z</time>
      </trkpt>
      <trkpt lat="41.28246" lon="41.75937">
        <ele>264.107846</ele>
        <time>2021-11-15T17:23:33.869Z</time>
      </trkpt>
      <trkpt lat="41.28196" lon="41.75961">
        <ele>264.421067</ele>
        <time>2021-11-15T17:23:50.927Z</time>
      </trkpt>
      <trkpt lat="41.28169" lon="41.75984">
        <ele>264.539629</ele>
        <time>2021-11-15T17:24:00.670Z</time>
      </trkpt>
      <trkpt lat="41.28101" lon="41.76033">
        <ele>264.502293</ele>
        <time>2021-11-15T17:24:24.471Z</time>
      </trkpt>
      <trkpt lat="41.27978" lon="41.76104">
        <ele>258.630335</ele>
        <time>2021-11-15T17:24:50.278Z</time>
      </trkpt>
      <trkpt lat="41.27951" lon="41.76124">
        <ele>254.454407</ele>
        <time>2021-11-15T17:24:54.434Z</time>
      </trkpt>
      <trkpt lat="41.27599" lon="41.76197">
        <ele>198.264647</ele>
        <time>2021-11-15T17:25:41.777Z</time>
      </trkpt>
      <trkpt lat="41.27579" lon="41.76197">
        <ele>196.63297</ele>
        <time>2021-11-15T17:25:44.544Z</time>
      </trkpt>
      <trkpt lat="41.2749" lon="41.76206">
        <ele>189.524089</ele>
        <time>2021-11-15T17:26:01.663Z</time>
      </trkpt>
      <trkpt lat="41.27398" lon="41.76233">
        <ele>200.044975</ele>
        <time>2021-11-15T17:27:02.822Z</time>
      </trkpt>
      <trkpt lat="41.27338" lon="41.76264">
        <ele>207.323065</ele>
        <time>2021-11-15T17:27:58.802Z</time>
      </trkpt>
      <trkpt lat="41.27243" lon="41.76323">
        <ele>217.718213</ele>
        <time>2021-11-15T17:29:19.153Z</time>
      </trkpt>
      <trkpt lat="41.27229" lon="41.76327">
        <ele>219.049447</ele>
        <time>2021-11-15T17:29:29.321Z</time>
      </trkpt>
      <trkpt lat="41.27221" lon="41.76335">
        <ele>219.983256</ele>
        <time>2021-11-15T17:29:33.553Z</time>
      </trkpt>
      <trkpt lat="41.27203" lon="41.76346">
        <ele>221.85465</ele>
        <time>2021-11-15T17:29:45.559Z</time>
      </trkpt>
      <trkpt lat="41.27192" lon="41.76359">
        <ele>223.197191</ele>
        <time>2021-11-15T17:29:51.532Z</time>
      </trkpt>
      <trkpt lat="41.27175" lon="41.76382">
        <ele>225.496801</ele>
        <time>2021-11-15T17:30:03.319Z</time>
      </trkpt>
      <trkpt lat="41.27154" lon="41.76443">
        <ele>225.9804</ele>
        <time>2021-11-15T17:30:18.921Z</time>
      </trkpt>
      <trkpt lat="41.27081" lon="41.76736">
        <ele>217.690315</ele>
        <time>2021-11-15T17:30:54.752Z</time>
      </trkpt>
      <trkpt lat="41.27025" lon="41.76854">
        <ele>211.913041</ele>
        <time>2021-11-15T17:31:09.908Z</time>
      </trkpt>
      <trkpt lat="41.26996" lon="41.76892">
        <ele>209.554686</ele>
        <time>2021-11-15T17:31:15.899Z</time>
      </trkpt>
      <trkpt lat="41.26976" lon="41.76915">
        <ele>208.029058</ele>
        <time>2021-11-15T17:31:19.686Z</time>
      </trkpt>
      <trkpt lat="41.26915" lon="41.76993">
        <ele>203.105128</ele>
        <time>2021-11-15T17:31:32.204Z</time>
      </trkpt>
      <trkpt lat="41.26903" lon="41.77">
        <ele>202.322711</ele>
        <time>2021-11-15T17:31:34.167Z</time>
      </trkpt>
      <trkpt lat="41.26866" lon="41.77006">
        <ele>201.786631</ele>
        <time>2021-11-15T17:31:39.636Z</time>
      </trkpt>
      <trkpt lat="41.26803" lon="41.76986">
        <ele>200.906858</ele>
        <time>2021-11-15T17:31:51.005Z</time>
      </trkpt>
      <trkpt lat="41.26778" lon="41.76985">
        <ele>200.575899</ele>
        <time>2021-11-15T17:31:56.244Z</time>
      </trkpt>
      <trkpt lat="41.26661" lon="41.77042">
        <ele>202.765704</ele>
        <time>2021-11-15T17:32:35.176Z</time>
      </trkpt>
      <trkpt lat="41.2639" lon="41.77098">
        <ele>216.063324</ele>
        <time>2021-11-15T17:34:36.124Z</time>
      </trkpt>
      <trkpt lat="41.26337" lon="41.77132">
        <ele>218.185999</ele>
        <time>2021-11-15T17:35:01.256Z</time>
      </trkpt>
      <trkpt lat="41.26217" lon="41.77232">
        <ele>222.120329</ele>
        <time>2021-11-15T17:35:48.221Z</time>
      </trkpt>
      <trkpt lat="41.26155" lon="41.77276">
        <ele>220.285583</ele>
        <time>2021-11-15T17:36:01.804Z</time>
      </trkpt>
      <trkpt lat="41.25986" lon="41.77371">
        <ele>214.811503</ele>
        <time>2021-11-15T17:36:29.838Z</time>
      </trkpt>
      <trkpt lat="41.25922" lon="41.77396">
        <ele>212.498039</ele>
        <time>2021-11-15T17:36:40.131Z</time>
      </trkpt>
      <trkpt lat="41.25879" lon="41.77386">
        <ele>211.545249</ele>
        <time>2021-11-15T17:36:47.456Z</time>
      </trkpt>
      <trkpt lat="41.25689" lon="41.77268">
        <ele>218.194989</ele>
        <time>2021-11-15T17:38:01.206Z</time>
      </trkpt>
      <trkpt lat="41.25659" lon="41.77237">
        <ele>220.631574</ele>
        <time>2021-11-15T17:38:22.151Z</time>
      </trkpt>
      <trkpt lat="41.25625" lon="41.77153">
        <ele>225.23073</ele>
        <time>2021-11-15T17:39:00.769Z</time>
      </trkpt>
      <trkpt lat="41.25611" lon="41.77128">
        <ele>226.767606</ele>
        <time>2021-11-15T17:39:13.338Z</time>
      </trkpt>
      <trkpt lat="41.25575" lon="41.77105">
        <ele>228.065228</ele>
        <time>2021-11-15T17:39:32.536Z</time>
      </trkpt>
      <trkpt lat="41.25538" lon="41.77111">
        <ele>229.06446</ele>
        <time>2021-11-15T17:39:47.656Z</time>
      </trkpt>
      <trkpt lat="41.25481" lon="41.77174">
        <ele>231.015179</ele>
        <time>2021-11-15T17:40:06.822Z</time>
      </trkpt>
      <trkpt lat="41.25455" lon="41.77187">
        <ele>231.771828</ele>
        <time>2021-11-15T17:40:12.426Z</time>
      </trkpt>
      <trkpt lat="41.25334" lon="41.77198">
        <ele>233.320816</ele>
        <time>2021-11-15T17:40:39.148Z</time>
      </trkpt>
      <trkpt lat="41.25192" lon="41.77185">
        <ele>237.457678</ele>
        <time>2021-11-15T17:41:29.259Z</time>
      </trkpt>
      <trkpt lat="41.25153" lon="41.772">
        <ele>239.245511</ele>
        <time>2021-11-15T17:41:47.527Z</time>
      </trkpt>
      <trkpt lat="41.25101" lon="41.77244">
        <ele>241.950043</ele>
        <time>2021-11-15T17:42:14.180Z</time>
      </trkpt>
      <trkpt lat="41.25081" lon="41.77254">
        <ele>242.699467</ele>
        <time>2021-11-15T17:42:23.329Z</time>
      </trkpt>
      <trkpt lat="41.2505" lon="41.7725">
        <ele>243.764021</ele>
        <time>2021-11-15T17:42:36.394Z</time>
      </trkpt>
      <trkpt lat="41.24994" lon="41.77222">
        <ele>245.817302</ele>
        <time>2021-11-15T17:42:59.817Z</time>
      </trkpt>
      <trkpt lat="41.24972" lon="41.77224">
        <ele>246.573249</ele>
        <time>2021-11-15T17:43:07.257Z</time>
      </trkpt>
      <trkpt lat="41.24953" lon="41.77236">
        <ele>247.284859</ele>
        <time>2021-11-15T17:43:13.820Z</time>
      </trkpt>
      <trkpt lat="41.24936" lon="41.77267">
        <ele>248.129047</ele>
        <time>2021-11-15T17:43:22.100Z</time>
      </trkpt>
      <trkpt lat="41.24929" lon="41.77313">
        <ele>247.189083</ele>
        <time>2021-11-15T17:43:30.329Z</time>
      </trkpt>
      <trkpt lat="41.24932" lon="41.77395">
        <ele>245.537451</ele>
        <time>2021-11-15T17:43:41.510Z</time>
      </trkpt>
      <trkpt lat="41.24929" lon="41.77438">
        <ele>244.689012</ele>
        <time>2021-11-15T17:43:46.584Z</time>
      </trkpt>
      <trkpt lat="41.24913" lon="41.77486">
        <ele>243.624956</ele>
        <time>2021-11-15T17:43:52.544Z</time>
      </trkpt>
      <trkpt lat="41.24899" lon="41.77513">
        <ele>241.953681</ele>
        <time>2021-11-15T17:43:56.105Z</time>
      </trkpt>
      <trkpt lat="41.24864" lon="41.77555">
        <ele>237.795998</ele>
        <time>2021-11-15T17:44:02.701Z</time>
      </trkpt>
      <trkpt lat="41.24754" lon="41.77627">
        <ele>226.95628</ele>
        <time>2021-11-15T17:44:19.417Z</time>
      </trkpt>
      <trkpt lat="41.24648" lon="41.77671">
        <ele>217.015188</ele>
        <time>2021-11-15T17:44:34.431Z</time>
      </trkpt>
      <trkpt lat="41.24574" lon="41.77687">
        <ele>211.14439</ele>
        <time>2021-11-15T17:44:44.909Z</time>
      </trkpt>
      <trkpt lat="41.24445" lon="41.77691">
        <ele>208.555175</ele>
        <time>2021-11-15T17:45:06.357Z</time>
      </trkpt>
      <trkpt lat="41.24414" lon="41.77685">
        <ele>207.936034</ele>
        <time>2021-11-15T17:45:16.322Z</time>
      </trkpt>
      <trkpt lat="41.24364" lon="41.77661">
        <ele>210.645719</ele>
        <time>2021-11-15T17:45:38.319Z</time>
      </trkpt>
      <trkpt lat="41.24332" lon="41.77656">
        <ele>212.606939</ele>
        <time>2021-11-15T17:45:53.490Z</time>
      </trkpt>
      <trkpt lat="41.24167" lon="41.77664">
        <ele>220.968753</ele>
        <time>2021-11-15T17:47:21.760Z</time>
      </trkpt>
      <trkpt lat="41.24141" lon="41.77675">
        <ele>221.856871</ele>
        <time>2021-11-15T17:47:31.614Z</time>
      </trkpt>
      <trkpt lat="41.24128" lon="41.77686">
        <ele>222.36041</ele>
        <time>2021-11-15T17:47:39.205Z</time>
      </trkpt>
      <trkpt lat="41.24117" lon="41.77702">
        <ele>222.881684</ele>
        <time>2021-11-15T17:47:42.514Z</time>
      </trkpt>
      <trkpt lat="41.24094" lon="41.77751">
        <ele>224.300172</ele>
        <time>2021-11-15T17:47:54.125Z</time>
      </trkpt>
      <trkpt lat="41.24029" lon="41.77939">
        <ele>217.802652</ele>
        <time>2021-11-15T17:48:17.889Z</time>
      </trkpt>
      <trkpt lat="41.24007" lon="41.77985">
        <ele>215.669546</ele>
        <time>2021-11-15T17:48:23.774Z</time>
      </trkpt>
      <trkpt lat="41.23908" lon="41.78149">
        <ele>203.38993</ele>
        <time>2021-11-15T17:48:45.841Z</time>
      </trkpt>
      <trkpt lat="41.23874" lon="41.78184">
        <ele>200.748908</ele>
        <time>2021-11-15T17:48:51.865Z</time>
      </trkpt>
      <trkpt lat="41.23843" lon="41.78192">
        <ele>199.171409</ele>
        <time>2021-11-15T17:48:56.449Z</time>
      </trkpt>
      <trkpt lat="41.23822" lon="41.78187">
        <ele>198.076125</ele>
        <time>2021-11-15T17:48:59.663Z</time>
      </trkpt>
      <trkpt lat="41.23568" lon="41.78031">
        <ele>189.391906</ele>
        <time>2021-11-15T17:49:44.858Z</time>
      </trkpt>
      <trkpt lat="41.23542" lon="41.78025">
        <ele>191.976335</ele>
        <time>2021-11-15T17:49:56.774Z</time>
      </trkpt>
      <trkpt lat="41.23525" lon="41.78026">
        <ele>194.037358</ele>
        <time>2021-11-15T17:50:03.542Z</time>
      </trkpt>
      <trkpt lat="41.23509" lon="41.78035">
        <ele>196.04542</ele>
        <time>2021-11-15T17:50:14.088Z</time>
      </trkpt>
      <trkpt lat="41.23498" lon="41.78042">
        <ele>197.444088</ele>
        <time>2021-11-15T17:50:18.533Z</time>
      </trkpt>
      <trkpt lat="41.23372" lon="41.7819">
        <ele>220.505214</ele>
        <time>2021-11-15T17:52:51.014Z</time>
      </trkpt>
      <trkpt lat="41.23264" lon="41.78336">
        <ele>242.4087</ele>
        <time>2021-11-15T17:55:22.474Z</time>
      </trkpt>
      <trkpt lat="41.23258" lon="41.78346">
        <ele>242.513597</ele>
        <time>2021-11-15T17:55:28.830Z</time>
      </trkpt>
      <trkpt lat="41.23246" lon="41.78362">
        <ele>242.707957</ele>
        <time>2021-11-15T17:55:36.584Z</time>
      </trkpt>
      <trkpt lat="41.23228" lon="41.78379">
        <ele>242.954843</ele>
        <time>2021-11-15T17:55:44.521Z</time>
      </trkpt>
      <trkpt lat="41.23194" lon="41.78385">
        <ele>243.350756</ele>
        <time>2021-11-15T17:55:51.037Z</time>
      </trkpt>
      <trkpt lat="41.23173" lon="41.78376">
        <ele>243.602634</ele>
        <time>2021-11-15T17:55:54.197Z</time>
      </trkpt>
      <trkpt lat="41.23099" lon="41.78302">
        <ele>238.624943</ele>
        <time>2021-11-15T17:56:06.373Z</time>
      </trkpt>
      <trkpt lat="41.23075" lon="41.78301">
        <ele>235.924544</ele>
        <time>2021-11-15T17:56:09.521Z</time>
      </trkpt>
      <trkpt lat="41.23065" lon="41.78307">
        <ele>234.711862</ele>
        <time>2021-11-15T17:56:10.977Z</time>
      </trkpt>
      <trkpt lat="41.23045" lon="41.78324">
        <ele>232.114535</ele>
        <time>2021-11-15T17:56:14.053Z</time>
      </trkpt>
      <trkpt lat="41.22981" lon="41.78449">
        <ele>224.13686</ele>
        <time>2021-11-15T17:56:30.030Z</time>
      </trkpt>
      <trkpt lat="41.22923" lon="41.7861">
        <ele>223.419383</ele>
        <time>2021-11-15T17:57:12.211Z</time>
      </trkpt>
      <trkpt lat="41.22889" lon="41.78655">
        <ele>223.416764</ele>
        <time>2021-11-15T17:57:27.151Z</time>
      </trkpt>
      <trkpt lat="41.22796" lon="41.78727">
        <ele>223.44501</ele>
        <time>2021-11-15T17:57:52.532Z</time>
      </trkpt>
      <trkpt lat="41.22688" lon="41.788">
        <ele>223.54478</ele>
        <time>2021-11-15T17:58:12.151Z</time>
      </trkpt>
      <trkpt lat="41.22315" lon="41.79066">
        <ele>237.275338</ele>
        <time>2021-11-15T18:00:42.028Z</time>
      </trkpt>
      <trkpt lat="41.22118" lon="41.79297">
        <ele>262.667134</ele>
        <time>2021-11-15T18:03:43.572Z</time>
      </trkpt>
      <trkpt lat="41.22083" lon="41.79331">
        <ele>265.81423</ele>
        <time>2021-11-15T18:04:08.362Z</time>
      </trkpt>
      <trkpt lat="41.22033" lon="41.79352">
        <ele>269.639704</ele>
        <time>2021-11-15T18:04:33.215Z</time>
      </trkpt>
      <trkpt lat="41.21798" lon="41.79348">
        <ele>270.497053</ele>
        <time>2021-11-15T18:05:18.813Z</time>
      </trkpt>
      <trkpt lat="41.21691" lon="41.79384">
        <ele>270.603953</ele>
        <time>2021-11-15T18:05:39.046Z</time>
      </trkpt>
      <trkpt lat="41.21585" lon="41.79428">
        <ele>272.521327</ele>
        <time>2021-11-15T18:06:22.589Z</time>
      </trkpt>
      <trkpt lat="41.21536" lon="41.79465">
        <ele>273.982234</ele>
        <time>2021-11-15T18:06:45.505Z</time>
      </trkpt>
      <trkpt lat="41.21462" lon="41.79514">
        <ele>273.339068</ele>
        <time>2021-11-15T18:07:05.438Z</time>
      </trkpt>
      <trkpt lat="41.21338" lon="41.79586">
        <ele>265.214704</ele>
        <time>2021-11-15T18:07:25.739Z</time>
      </trkpt>
      <trkpt lat="41.21287" lon="41.79621">
        <ele>260.640655</ele>
        <time>2021-11-15T18:07:33.303Z</time>
      </trkpt>
      <trkpt lat="41.21207" lon="41.79673">
        <ele>253.022272</ele>
        <time>2021-11-15T18:07:45.459Z</time>
      </trkpt>
      <trkpt lat="41.21028" lon="41.79887">
        <ele>241.25272</ele>
        <time>2021-11-15T18:08:23.067Z</time>
      </trkpt>
      <trkpt lat="41.20962" lon="41.79951">
        <ele>239.49465</ele>
        <time>2021-11-15T18:08:36.856Z</time>
      </trkpt>
      <trkpt lat="41.209" lon="41.80021">
        <ele>237.763767</ele>
        <time>2021-11-15T18:08:51.667Z</time>
      </trkpt>
      <trkpt lat="41.20794" lon="41.80172">
        <ele>237.779135</ele>
        <time>2021-11-15T18:09:26.491Z</time>
      </trkpt>
      <trkpt lat="41.20752" lon="41.80234">
        <ele>237.831466</ele>
        <time>2021-11-15T18:09:43.038Z</time>
      </trkpt>
      <trkpt lat="41.20703" lon="41.80295">
        <ele>237.911506</ele>
        <time>2021-11-15T18:10:00.116Z</time>
      </trkpt>
      <trkpt lat="41.20508" lon="41.80462">
        <ele>237.485965</ele>
        <time>2021-11-15T18:10:45.991Z</time>
      </trkpt>
      <trkpt lat="41.20497" lon="41.80489">
        <ele>237.407</ele>
        <time>2021-11-15T18:10:49.950Z</time>
      </trkpt>
      <trkpt lat="41.20439" lon="41.8073">
        <ele>244.840131</ele>
        <time>2021-11-15T18:12:04.204Z</time>
      </trkpt>
      <trkpt lat="41.20386" lon="41.80855">
        <ele>250.163301</ele>
        <time>2021-11-15T18:13:10.931Z</time>
      </trkpt>
      <trkpt lat="41.19912" lon="41.81754">
        <ele>246.011594</ele>
        <time>2021-11-15T18:15:52.708Z</time>
      </trkpt>
      <trkpt lat="41.19859" lon="41.81853">
        <ele>249.326883</ele>
        <time>2021-11-15T18:16:22.926Z</time>
      </trkpt>
      <trkpt lat="41.19835" lon="41.81908">
        <ele>251.521707</ele>
        <time>2021-11-15T18:16:48.610Z</time>
      </trkpt>
      <trkpt lat="41.19797" lon="41.81946">
        <ele>259.172314</ele>
        <time>2021-11-15T18:17:20.378Z</time>
      </trkpt>
      <trkpt lat="41.19653" lon="41.82038">
        <ele>282.465725</ele>
        <time>2021-11-15T18:20:02.604Z</time>
      </trkpt>
      <trkpt lat="41.19607" lon="41.82111">
        <ele>287.759419</ele>
        <time>2021-11-15T18:21:02.999Z</time>
      </trkpt>
      <trkpt lat="41.19027" lon="41.82808">
        <ele>254.518835</ele>
        <time>2021-11-15T18:23:05.185Z</time>
      </trkpt>
      <trkpt lat="41.19006" lon="41.82836">
        <ele>252.211823</ele>
        <time>2021-11-15T18:23:09.488Z</time>
      </trkpt>
      <trkpt lat="41.18888" lon="41.8302">
        <ele>235.657916</ele>
        <time>2021-11-15T18:23:35.433Z</time>
      </trkpt>
      <trkpt lat="41.18875" lon="41.83042">
        <ele>234.10774</ele>
        <time>2021-11-15T18:23:38.224Z</time>
      </trkpt>
      <trkpt lat="41.18857" lon="41.83079">
        <ele>231.644672</ele>
        <time>2021-11-15T18:23:42.780Z</time>
      </trkpt>
      <trkpt lat="41.18817" lon="41.83179">
        <ele>225.377529</ele>
        <time>2021-11-15T18:23:54.886Z</time>
      </trkpt>
      <trkpt lat="41.18802" lon="41.83223">
        <ele>223.617566</ele>
        <time>2021-11-15T18:24:00.547Z</time>
      </trkpt>
      <trkpt lat="41.18745" lon="41.83416">
        <ele>223.557206</ele>
        <time>2021-11-15T18:24:38.925Z</time>
      </trkpt>
      <trkpt lat="41.18725" lon="41.83469">
        <ele>224.147421</ele>
        <time>2021-11-15T18:24:54.273Z</time>
      </trkpt>
      <trkpt lat="41.18699" lon="41.8351">
        <ele>224.857625</ele>
        <time>2021-11-15T18:25:07.786Z</time>
      </trkpt>
      <trkpt lat="41.18673" lon="41.8353">
        <ele>225.380682</ele>
        <time>2021-11-15T18:25:17.380Z</time>
      </trkpt>
      <trkpt lat="41.18585" lon="41.83569">
        <ele>226.365222</ele>
        <time>2021-11-15T18:25:42.850Z</time>
      </trkpt>
      <trkpt lat="41.18534" lon="41.83604">
        <ele>225.129905</ele>
        <time>2021-11-15T18:25:54.463Z</time>
      </trkpt>
      <trkpt lat="41.18483" lon="41.83621">
        <ele>224.004687</ele>
        <time>2021-11-15T18:26:03.341Z</time>
      </trkpt>
      <trkpt lat="41.18426" lon="41.83633">
        <ele>222.612525</ele>
        <time>2021-11-15T18:26:12.276Z</time>
      </trkpt>
      <trkpt lat="41.18367" lon="41.83612">
        <ele>219.257078</ele>
        <time>2021-11-15T18:26:21.183Z</time>
      </trkpt>
      <trkpt lat="41.18256" lon="41.83613">
        <ele>213.087297</ele>
        <time>2021-11-15T18:26:37.369Z</time>
      </trkpt>
      <trkpt lat="41.18214" lon="41.83631">
        <ele>211.611368</ele>
        <time>2021-11-15T18:26:44.223Z</time>
      </trkpt>
      <trkpt lat="41.18191" lon="41.83649">
        <ele>210.7849</ele>
        <time>2021-11-15T18:26:48.412Z</time>
      </trkpt>
      <trkpt lat="41.18172" lon="41.83675">
        <ele>209.924141</ele>
        <time>2021-11-15T18:26:52.961Z</time>
      </trkpt>
      <trkpt lat="41.18146" lon="41.83698">
        <ele>208.96057</ele>
        <time>2021-11-15T18:26:58.227Z</time>
      </trkpt>
      <trkpt lat="41.18083" lon="41.83729">
        <ele>207.012337</ele>
        <time>2021-11-15T18:27:10.289Z</time>
      </trkpt>
      <trkpt lat="41.18025" lon="41.83808">
        <ele>205.367716</ele>
        <time>2021-11-15T18:27:26.197Z</time>
      </trkpt>
      <trkpt lat="41.18001" lon="41.83831">
        <ele>204.800741</ele>
        <time>2021-11-15T18:27:31.446Z</time>
      </trkpt>
      <trkpt lat="41.17971" lon="41.83845">
        <ele>204.165241</ele>
        <time>2021-11-15T18:27:37.045Z</time>
      </trkpt>
      <trkpt lat="41.17823" lon="41.83878">
        <ele>199.26893</ele>
        <time>2021-11-15T18:28:00.700Z</time>
      </trkpt>
      <trkpt lat="41.178" lon="41.83894">
        <ele>198.353405</ele>
        <time>2021-11-15T18:28:04.852Z</time>
      </trkpt>
      <trkpt lat="41.17777" lon="41.83924">
        <ele>197.334565</ele>
        <time>2021-11-15T18:28:10.056Z</time>
      </trkpt>
      <trkpt lat="41.17767" lon="41.83955">
        <ele>196.923269</ele>
        <time>2021-11-15T18:28:14.198Z</time>
      </trkpt>
      <trkpt lat="41.17758" lon="41.83995">
        <ele>196.401293</ele>
        <time>2021-11-15T18:28:19.556Z</time>
      </trkpt>
      <trkpt lat="41.17747" lon="41.84089">
        <ele>195.211399</ele>
        <time>2021-11-15T18:28:32.463Z</time>
      </trkpt>
      <trkpt lat="41.17754" lon="41.84119">
        <ele>194.820162</ele>
        <time>2021-11-15T18:28:37.197Z</time>
      </trkpt>
      <trkpt lat="41.17817" lon="41.84261">
        <ele>194.927291</ele>
        <time>2021-11-15T18:29:07.595Z</time>
      </trkpt>
      <trkpt lat="41.1784" lon="41.84358">
        <ele>195.276119</ele>
        <time>2021-11-15T18:29:26.683Z</time>
      </trkpt>
      <trkpt lat="41.17855" lon="41.84394">
        <ele>195.278277</ele>
        <time>2021-11-15T18:29:34.482Z</time>
      </trkpt>
      <trkpt lat="41.1787" lon="41.84428">
        <ele>195.274213</ele>
        <time>2021-11-15T18:29:40.953Z</time>
      </trkpt>
      <trkpt lat="41.17902" lon="41.84471">
        <ele>195.267969</ele>
        <time>2021-11-15T18:29:50.761Z</time>
      </trkpt>
      <trkpt lat="41.17911" lon="41.84479">
        <ele>195.266623</ele>
        <time>2021-11-15T18:29:52.502Z</time>
      </trkpt>
      <trkpt lat="41.17913" lon="41.84485">
        <ele>195.265945</ele>
        <time>2021-11-15T18:29:53.639Z</time>
      </trkpt>
      <trkpt lat="41.17916" lon="41.84489">
        <ele>195.26535</ele>
        <time>2021-11-15T18:29:54.784Z</time>
      </trkpt>
      <trkpt lat="41.17933" lon="41.84515">
        <ele>195.261758</ele>
        <time>2021-11-15T18:30:00.252Z</time>
      </trkpt>
      <trkpt lat="41.17944" lon="41.84529">
        <ele>195.259718</ele>
        <time>2021-11-15T18:30:04.012Z</time>
      </trkpt>
      <trkpt lat="41.17949" lon="41.84535">
        <ele>195.258804</ele>
        <time>2021-11-15T18:30:05.659Z</time>
      </trkpt>
      <trkpt lat="41.17955" lon="41.84543">
        <ele>195.263029</ele>
        <time>2021-11-15T18:30:07.290Z</time>
      </trkpt>
      <trkpt lat="41.17961" lon="41.84551">
        <ele>195.308761</ele>
        <time>2021-11-15T18:30:08.834Z</time>
      </trkpt>
      <trkpt lat="41.17979" lon="41.8457">
        <ele>195.434443</ele>
        <time>2021-11-15T18:30:14.681Z</time>
      </trkpt>
      <trkpt lat="41.17985" lon="41.84573">
        <ele>195.467552</ele>
        <time>2021-11-15T18:30:15.725Z</time>
      </trkpt>
      <trkpt lat="41.17999" lon="41.84586">
        <ele>195.560322</ele>
        <time>2021-11-15T18:30:19.989Z</time>
      </trkpt>
      <trkpt lat="41.18075" lon="41.84634">
        <ele>196.007769</ele>
        <time>2021-11-15T18:30:40.284Z</time>
      </trkpt>
      <trkpt lat="41.18118" lon="41.84676">
        <ele>196.509895</ele>
        <time>2021-11-15T18:30:54.383Z</time>
      </trkpt>
      <trkpt lat="41.18136" lon="41.84703">
        <ele>197.061591</ele>
        <time>2021-11-15T18:31:02.555Z</time>
      </trkpt>
      <trkpt lat="41.18162" lon="41.84779">
        <ele>198.362148</ele>
        <time>2021-11-15T18:31:21.865Z</time>
      </trkpt>
      <trkpt lat="41.18179" lon="41.84864">
        <ele>199.713854</ele>
        <time>2021-11-15T18:31:42.535Z</time>
      </trkpt>
      <trkpt lat="41.18191" lon="41.84894">
        <ele>200.336583</ele>
        <time>2021-11-15T18:31:50.758Z</time>
      </trkpt>
      <trkpt lat="41.18214" lon="41.84982">
        <ele>202.232159</ele>
        <time>2021-11-15T18:32:14.874Z</time>
      </trkpt>
      <trkpt lat="41.18216" lon="41.85066">
        <ele>203.928069</ele>
        <time>2021-11-15T18:32:37.256Z</time>
      </trkpt>
      <trkpt lat="41.18214" lon="41.85115">
        <ele>204.786878</ele>
        <time>2021-11-15T18:32:48.678Z</time>
      </trkpt>
      <trkpt lat="41.18207" lon="41.85146">
        <ele>204.898795</ele>
        <time>2021-11-15T18:32:55.414Z</time>
      </trkpt>
      <trkpt lat="41.18189" lon="41.85196">
        <ele>205.094327</ele>
        <time>2021-11-15T18:33:06.662Z</time>
      </trkpt>
      <trkpt lat="41.18162" lon="41.85253">
        <ele>205.330959</ele>
        <time>2021-11-15T18:33:18.673Z</time>
      </trkpt>
      <trkpt lat="41.18107" lon="41.85356">
        <ele>206.251286</ele>
        <time>2021-11-15T18:33:37.179Z</time>
      </trkpt>
      <trkpt lat="41.18088" lon="41.85525">
        <ele>208.482544</ele>
        <time>2021-11-15T18:34:08.252Z</time>
      </trkpt>
      <trkpt lat="41.1807" lon="41.85557">
        <ele>210.497428</ele>
        <time>2021-11-15T18:34:26.726Z</time>
      </trkpt>
      <trkpt lat="41.18042" lon="41.8556">
        <ele>213.577317</ele>
        <time>2021-11-15T18:34:43.660Z</time>
      </trkpt>
      <trkpt lat="41.17995" lon="41.85556">
        <ele>218.648375</ele>
        <time>2021-11-15T18:35:16.316Z</time>
      </trkpt>
      <trkpt lat="41.17957" lon="41.85553">
        <ele>222.663957</ele>
        <time>2021-11-15T18:35:43.085Z</time>
      </trkpt>
      <trkpt lat="41.17927" lon="41.85554">
        <ele>225.960965</ele>
        <time>2021-11-15T18:36:06.483Z</time>
      </trkpt>
      <trkpt lat="41.1792" lon="41.85523">
        <ele>228.549528</ele>
        <time>2021-11-15T18:36:24.012Z</time>
      </trkpt>
      <trkpt lat="41.17945" lon="41.85384">
        <ele>239.426604</ele>
        <time>2021-11-15T18:37:41.711Z</time>
      </trkpt>
      <trkpt lat="41.17997" lon="41.85188">
        <ele>251.172237</ele>
        <time>2021-11-15T18:38:55.548Z</time>
      </trkpt>
      <trkpt lat="41.18022" lon="41.85111">
        <ele>254.631787</ele>
        <time>2021-11-15T18:39:23.227Z</time>
      </trkpt>
      <trkpt lat="41.18034" lon="41.85043">
        <ele>256.513772</ele>
        <time>2021-11-15T18:39:44.929Z</time>
      </trkpt>
      <trkpt lat="41.18011" lon="41.84882">
        <ele>258.334038</ele>
        <time>2021-11-15T18:40:18.679Z</time>
      </trkpt>
      <trkpt lat="41.17972" lon="41.84825">
        <ele>259.964748</ele>
        <time>2021-11-15T18:40:29.350Z</time>
      </trkpt>
      <trkpt lat="41.17913" lon="41.8479">
        <ele>262.8812</ele>
        <time>2021-11-15T18:40:42.687Z</time>
      </trkpt>
      <trkpt lat="41.17787" lon="41.84748">
        <ele>274.774388</ele>
        <time>2021-11-15T18:41:57.387Z</time>
      </trkpt>
      <trkpt lat="41.17754" lon="41.84745">
        <ele>281.152232</ele>
        <time>2021-11-15T18:42:30.550Z</time>
      </trkpt>
      <trkpt lat="41.17721" lon="41.84777">
        <ele>289.123416</ele>
        <time>2021-11-15T18:43:17.125Z</time>
      </trkpt>
      <trkpt lat="41.17697" lon="41.84838">
        <ele>299.179994</ele>
        <time>2021-11-15T18:44:16.019Z</time>
      </trkpt>
      <trkpt lat="41.17691" lon="41.84876">
        <ele>304.635391</ele>
        <time>2021-11-15T18:44:49.914Z</time>
      </trkpt>
      <trkpt lat="41.17694" lon="41.84914">
        <ele>309.662106</ele>
        <time>2021-11-15T18:45:22.749Z</time>
      </trkpt>
      <trkpt lat="41.17705" lon="41.84938">
        <ele>313.383656</ele>
        <time>2021-11-15T18:45:46.669Z</time>
      </trkpt>
      <trkpt lat="41.17725" lon="41.84959">
        <ele>317.773692</ele>
        <time>2021-11-15T18:46:12.724Z</time>
      </trkpt>
      <trkpt lat="41.1779" lon="41.84993">
        <ele>329.969983</ele>
        <time>2021-11-15T18:47:09.670Z</time>
      </trkpt>
      <trkpt lat="41.17895" lon="41.85001">
        <ele>338.475573</ele>
        <time>2021-11-15T18:47:58.449Z</time>
      </trkpt>
      <trkpt lat="41.17916" lon="41.85016">
        <ele>339.939593</ele>
        <time>2021-11-15T18:48:06.935Z</time>
      </trkpt>
      <trkpt lat="41.17932" lon="41.85038">
        <ele>341.31772</ele>
        <time>2021-11-15T18:48:15.327Z</time>
      </trkpt>
      <trkpt lat="41.17937" lon="41.85076">
        <ele>343.108787</ele>
        <time>2021-11-15T18:48:26.274Z</time>
      </trkpt>
      <trkpt lat="41.17909" lon="41.85152">
        <ele>348.635993</ele>
        <time>2021-11-15T18:48:56.062Z</time>
      </trkpt>
      <trkpt lat="41.17818" lon="41.85344">
        <ele>366.15012</ele>
        <time>2021-11-15T18:50:52.645Z</time>
      </trkpt>
      <trkpt lat="41.17791" lon="41.85469">
        <ele>377.656445</ele>
        <time>2021-11-15T18:52:04.127Z</time>
      </trkpt>
      <trkpt lat="41.1778" lon="41.85602">
        <ele>387.983396</ele>
        <time>2021-11-15T18:53:09.769Z</time>
      </trkpt>
      <trkpt lat="41.17819" lon="41.85731">
        <ele>397.491073</ele>
        <time>2021-11-15T18:54:09.261Z</time>
      </trkpt>
      <trkpt lat="41.17818" lon="41.85769">
        <ele>399.537349</ele>
        <time>2021-11-15T18:54:24.544Z</time>
      </trkpt>
      <trkpt lat="41.17806" lon="41.85848">
        <ele>401.299669</ele>
        <time>2021-11-15T18:54:53.728Z</time>
      </trkpt>
      <trkpt lat="41.17809" lon="41.85866">
        <ele>401.685154</ele>
        <time>2021-11-15T18:54:58.697Z</time>
      </trkpt>
      <trkpt lat="41.17831" lon="41.85912">
        <ele>402.883922</ele>
        <time>2021-11-15T18:55:11.640Z</time>
      </trkpt>
      <trkpt lat="41.17841" lon="41.85984">
        <ele>404.468375</ele>
        <time>2021-11-15T18:55:22.779Z</time>
      </trkpt>
      <trkpt lat="41.17843" lon="41.86007">
        <ele>403.399767</ele>
        <time>2021-11-15T18:55:25.684Z</time>
      </trkpt>
      <trkpt lat="41.1782" lon="41.861">
        <ele>398.844668</ele>
        <time>2021-11-15T18:55:36.852Z</time>
      </trkpt>
      <trkpt lat="41.17821" lon="41.86119">
        <ele>397.974247</ele>
        <time>2021-11-15T18:55:38.840Z</time>
      </trkpt>
      <trkpt lat="41.17858" lon="41.86227">
        <ele>392.874001</ele>
        <time>2021-11-15T18:55:51.041Z</time>
      </trkpt>
      <trkpt lat="41.1787" lon="41.86294">
        <ele>391.097186</ele>
        <time>2021-11-15T18:55:58.494Z</time>
      </trkpt>
      <trkpt lat="41.17873" lon="41.86345">
        <ele>389.780122</ele>
        <time>2021-11-15T18:56:04.512Z</time>
      </trkpt>
      <trkpt lat="41.17865" lon="41.86366">
        <ele>389.179969</ele>
        <time>2021-11-15T18:56:07.539Z</time>
      </trkpt>
      <trkpt lat="41.17848" lon="41.86386">
        <ele>388.422667</ele>
        <time>2021-11-15T18:56:11.795Z</time>
      </trkpt>
      <trkpt lat="41.1783" lon="41.86394">
        <ele>387.772987</ele>
        <time>2021-11-15T18:56:16.395Z</time>
      </trkpt>
      <trkpt lat="41.17794" lon="41.86384">
        <ele>388.621865</ele>
        <time>2021-11-15T18:56:28.369Z</time>
      </trkpt>
      <trkpt lat="41.17726" lon="41.86334">
        <ele>393.756124</ele>
        <time>2021-11-15T18:57:06.162Z</time>
      </trkpt>
      <trkpt lat="41.17668" lon="41.86326">
        <ele>397.550201</ele>
        <time>2021-11-15T18:57:40.153Z</time>
      </trkpt>
      <trkpt lat="41.17616" lon="41.86327">
        <ele>401.047425</ele>
        <time>2021-11-15T18:58:10.886Z</time>
      </trkpt>
      <trkpt lat="41.17555" lon="41.86316">
        <ele>405.085874</ele>
        <time>2021-11-15T18:58:43.523Z</time>
      </trkpt>
      <trkpt lat="41.1748" lon="41.863">
        <ele>410.153613</ele>
        <time>2021-11-15T18:59:18.720Z</time>
      </trkpt>
      <trkpt lat="41.1703" lon="41.86277">
        <ele>423.196288</ele>
        <time>2021-11-15T19:01:51.783Z</time>
      </trkpt>
      <trkpt lat="41.16784" lon="41.86379">
        <ele>429.329154</ele>
        <time>2021-11-15T19:03:14.655Z</time>
      </trkpt>
      <trkpt lat="41.16677" lon="41.86648">
        <ele>436.39535</ele>
        <time>2021-11-15T19:04:32.322Z</time>
      </trkpt>
      <trkpt lat="41.16592" lon="41.8681">
        <ele>444.772573</ele>
        <time>2021-11-15T19:05:40.662Z</time>
      </trkpt>
      <trkpt lat="41.1656" lon="41.86894">
        <ele>448.527792</ele>
        <time>2021-11-15T19:06:24.183Z</time>
      </trkpt>
      <trkpt lat="41.16517" lon="41.86958">
        <ele>451.924649</ele>
        <time>2021-11-15T19:06:53.007Z</time>
      </trkpt>
      <trkpt lat="41.16478" lon="41.87025">
        <ele>454.6234</ele>
        <time>2021-11-15T19:07:11.321Z</time>
      </trkpt>
      <trkpt lat="41.1643" lon="41.87107">
        <ele>454.587649</ele>
        <time>2021-11-15T19:07:27.961Z</time>
      </trkpt>
      <trkpt lat="41.16398" lon="41.87162">
        <ele>454.564019</ele>
        <time>2021-11-15T19:07:37.831Z</time>
      </trkpt>
      <trkpt lat="41.16367" lon="41.87209">
        <ele>455.162576</ele>
        <time>2021-11-15T19:07:45.839Z</time>
      </trkpt>
      <trkpt lat="41.16304" lon="41.87352">
        <ele>462.367988</ele>
        <time>2021-11-15T19:08:37.623Z</time>
      </trkpt>
      <trkpt lat="41.16301" lon="41.87426">
        <ele>466.946877</ele>
        <time>2021-11-15T19:09:15.877Z</time>
      </trkpt>
      <trkpt lat="41.16322" lon="41.87467">
        <ele>473.566584</ele>
        <time>2021-11-15T19:09:43.503Z</time>
      </trkpt>
      <trkpt lat="41.16334" lon="41.87509">
        <ele>479.574852</ele>
        <time>2021-11-15T19:10:09.797Z</time>
      </trkpt>
      <trkpt lat="41.16336" lon="41.87605">
        <ele>492.43271</ele>
        <time>2021-11-15T19:11:29.674Z</time>
      </trkpt>
      <trkpt lat="41.16326" lon="41.87703">
        <ele>504.555966</ele>
        <time>2021-11-15T19:12:54.387Z</time>
      </trkpt>
      <trkpt lat="41.16306" lon="41.87807">
        <ele>517.138366</ele>
        <time>2021-11-15T19:14:12.123Z</time>
      </trkpt>
      <trkpt lat="41.16268" lon="41.8802">
        <ele>523.619354</ele>
        <time>2021-11-15T19:15:16.640Z</time>
      </trkpt>
      <trkpt lat="41.16189" lon="41.88347">
        <ele>502.579076</ele>
        <time>2021-11-15T19:15:53.126Z</time>
      </trkpt>
      <trkpt lat="41.16169" lon="41.88454">
        <ele>493.904263</ele>
        <time>2021-11-15T19:16:04.939Z</time>
      </trkpt>
      <trkpt lat="41.1614" lon="41.88548">
        <ele>485.984125</ele>
        <time>2021-11-15T19:16:15.741Z</time>
      </trkpt>
      <trkpt lat="41.16041" lon="41.8873">
        <ele>468.721862</ele>
        <time>2021-11-15T19:16:39.788Z</time>
      </trkpt>
      <trkpt lat="41.15868" lon="41.89016">
        <ele>440.890541</ele>
        <time>2021-11-15T19:17:18.749Z</time>
      </trkpt>
      <trkpt lat="41.15845" lon="41.89058">
        <ele>437.426238</ele>
        <time>2021-11-15T19:17:24.110Z</time>
      </trkpt>
      <trkpt lat="41.1582" lon="41.89086">
        <ele>434.514917</ele>
        <time>2021-11-15T19:17:28.657Z</time>
      </trkpt>
      <trkpt lat="41.15073" lon="41.89237">
        <ele>405.245131</ele>
        <time>2021-11-15T19:19:34.209Z</time>
      </trkpt>
      <trkpt lat="41.15004" lon="41.89212">
        <ele>406.488986</ele>
        <time>2021-11-15T19:19:53.198Z</time>
      </trkpt>
      <trkpt lat="41.14908" lon="41.89179">
        <ele>408.230266</ele>
        <time>2021-11-15T19:20:28.971Z</time>
      </trkpt>
      <trkpt lat="41.14701" lon="41.89098">
        <ele>415.947168</ele>
        <time>2021-11-15T19:21:57.802Z</time>
      </trkpt>
      <trkpt lat="41.14596" lon="41.89047">
        <ele>416.342053</ele>
        <time>2021-11-15T19:22:31.576Z</time>
      </trkpt>
      <trkpt lat="41.14536" lon="41.89066">
        <ele>413.911858</ele>
        <time>2021-11-15T19:22:40.747Z</time>
      </trkpt>
      <trkpt lat="41.1437" lon="41.89085">
        <ele>399.583381</ele>
        <time>2021-11-15T19:23:04.187Z</time>
      </trkpt>
      <trkpt lat="41.14315" lon="41.89073">
        <ele>398.318527</ele>
        <time>2021-11-15T19:23:11.933Z</time>
      </trkpt>
      <trkpt lat="41.1428" lon="41.89063">
        <ele>397.503738</ele>
        <time>2021-11-15T19:23:17.639Z</time>
      </trkpt>
      <trkpt lat="41.1422" lon="41.88962">
        <ele>398.354792</ele>
        <time>2021-11-15T19:23:55.891Z</time>
      </trkpt>
      <trkpt lat="41.14177" lon="41.88941">
        <ele>403.493787</ele>
        <time>2021-11-15T19:24:25.640Z</time>
      </trkpt>
      <trkpt lat="41.14146" lon="41.88941">
        <ele>406.83178</ele>
        <time>2021-11-15T19:24:46.125Z</time>
      </trkpt>
      <trkpt lat="41.14048" lon="41.88989">
        <ele>419.681502</ele>
        <time>2021-11-15T19:26:08.281Z</time>
      </trkpt>
      <trkpt lat="41.13983" lon="41.89004">
        <ele>430.19993</ele>
        <time>2021-11-15T19:27:04.985Z</time>
      </trkpt>
      <trkpt lat="41.13956" lon="41.89004">
        <ele>434.476764</ele>
        <time>2021-11-15T19:27:29.252Z</time>
      </trkpt>
      <trkpt lat="41.13842" lon="41.89017">
        <ele>453.267998</ele>
        <time>2021-11-15T19:29:13.058Z</time>
      </trkpt>
      <trkpt lat="41.13636" lon="41.89002">
        <ele>483.01398</ele>
        <time>2021-11-15T19:32:22.578Z</time>
      </trkpt>
      <trkpt lat="41.13449" lon="41.88974">
        <ele>483.347714</ele>
        <time>2021-11-15T19:33:42.589Z</time>
      </trkpt>
      <trkpt lat="41.1327" lon="41.88947">
        <ele>447.903241</ele>
        <time>2021-11-15T19:34:06.568Z</time>
      </trkpt>
      <trkpt lat="41.13187" lon="41.88935">
        <ele>424.319841</ele>
        <time>2021-11-15T19:34:17.775Z</time>
      </trkpt>
      <trkpt lat="41.13116" lon="41.8892">
        <ele>411.247986</ele>
        <time>2021-11-15T19:34:26.782Z</time>
      </trkpt>
      <trkpt lat="41.13082" lon="41.88908">
        <ele>405.235248</ele>
        <time>2021-11-15T19:34:31.333Z</time>
      </trkpt>
      <trkpt lat="41.13043" lon="41.88895">
        <ele>398.510012</ele>
        <time>2021-11-15T19:34:36.566Z</time>
      </trkpt>
      <trkpt lat="41.13022" lon="41.88875">
        <ele>394.090336</ele>
        <time>2021-11-15T19:34:40.195Z</time>
      </trkpt>
      <trkpt lat="41.13007" lon="41.8872">
        <ele>388.29815</ele>
        <time>2021-11-15T19:34:58.414Z</time>
      </trkpt>
      <trkpt lat="41.12981" lon="41.88677">
        <ele>387.054066</ele>
        <time>2021-11-15T19:35:06.410Z</time>
      </trkpt>
      <trkpt lat="41.12943" lon="41.88626">
        <ele>386.144739</ele>
        <time>2021-11-15T19:35:19.470Z</time>
      </trkpt>
      <trkpt lat="41.12941" lon="41.88612">
        <ele>386.287892</ele>
        <time>2021-11-15T19:35:21.391Z</time>
      </trkpt>
      <trkpt lat="41.12928" lon="41.8854">
        <ele>386.975109</ele>
        <time>2021-11-15T19:35:37.733Z</time>
      </trkpt>
      <trkpt lat="41.12924" lon="41.88385">
        <ele>388.34874</ele>
        <time>2021-11-15T19:36:11.533Z</time>
      </trkpt>
      <trkpt lat="41.12931" lon="41.88217">
        <ele>389.403643</ele>
        <time>2021-11-15T19:36:45.825Z</time>
      </trkpt>
      <trkpt lat="41.12917" lon="41.88168">
        <ele>389.60933</ele>
        <time>2021-11-15T19:36:54.021Z</time>
      </trkpt>
      <trkpt lat="41.12878" lon="41.88071">
        <ele>388.896242</ele>
        <time>2021-11-15T19:37:09.827Z</time>
      </trkpt>
      <trkpt lat="41.12843" lon="41.88019">
        <ele>388.442778</ele>
        <time>2021-11-15T19:37:19.379Z</time>
      </trkpt>
      <trkpt lat="41.12748" lon="41.87933">
        <ele>389.676031</ele>
        <time>2021-11-15T19:37:43.785Z</time>
      </trkpt>
      <trkpt lat="41.12726" lon="41.87891">
        <ele>390.44207</ele>
        <time>2021-11-15T19:37:55.552Z</time>
      </trkpt>
      <trkpt lat="41.12713" lon="41.87826">
        <ele>391.458897</ele>
        <time>2021-11-15T19:38:14.842Z</time>
      </trkpt>
      <trkpt lat="41.12712" lon="41.87772">
        <ele>393.224871</ele>
        <time>2021-11-15T19:38:32.809Z</time>
      </trkpt>
      <trkpt lat="41.1273" lon="41.87729">
        <ele>395.25283</ele>
        <time>2021-11-15T19:38:50.750Z</time>
      </trkpt>
      <trkpt lat="41.12788" lon="41.87641">
        <ele>400.037221</ele>
        <time>2021-11-15T19:39:32.359Z</time>
      </trkpt>
      <trkpt lat="41.12793" lon="41.87593">
        <ele>401.608345</ele>
        <time>2021-11-15T19:39:47.483Z</time>
      </trkpt>
      <trkpt lat="41.12778" lon="41.87557">
        <ele>401.858259</ele>
        <time>2021-11-15T19:39:58.521Z</time>
      </trkpt>
      <trkpt lat="41.12757" lon="41.87533">
        <ele>402.084119</ele>
        <time>2021-11-15T19:40:07.056Z</time>
      </trkpt>
      <trkpt lat="41.12679" lon="41.87497">
        <ele>402.746259</ele>
        <time>2021-11-15T19:40:24.818Z</time>
      </trkpt>
      <trkpt lat="41.12564" lon="41.87454">
        <ele>401.259323</ele>
        <time>2021-11-15T19:40:45.057Z</time>
      </trkpt>
      <trkpt lat="41.12512" lon="41.87428">
        <ele>400.19641</ele>
        <time>2021-11-15T19:40:54.794Z</time>
      </trkpt>
      <trkpt lat="41.12491" lon="41.87404">
        <ele>399.662334</ele>
        <time>2021-11-15T19:40:59.954Z</time>
      </trkpt>
      <trkpt lat="41.12484" lon="41.87383">
        <ele>399.543993</ele>
        <time>2021-11-15T19:41:03.262Z</time>
      </trkpt>
      <trkpt lat="41.1248" lon="41.87337">
        <ele>399.535972</ele>
        <time>2021-11-15T19:41:10.540Z</time>
      </trkpt>
      <trkpt lat="41.12494" lon="41.86952">
        <ele>400.30927</ele>
        <time>2021-11-15T19:42:19.324Z</time>
      </trkpt>
      <trkpt lat="41.12478" lon="41.86864">
        <ele>402.260496</ele>
        <time>2021-11-15T19:42:35.984Z</time>
      </trkpt>
      <trkpt lat="41.1244" lon="41.86767">
        <ele>405.629811</ele>
        <time>2021-11-15T19:43:05.891Z</time>
      </trkpt>
      <trkpt lat="41.1244" lon="41.86728">
        <ele>406.836857</ele>
        <time>2021-11-15T19:43:19.315Z</time>
      </trkpt>
      <trkpt lat="41.12449" lon="41.86689">
        <ele>408.515424</ele>
        <time>2021-11-15T19:43:35.740Z</time>
      </trkpt>
      <trkpt lat="41.12574" lon="41.86561">
        <ele>423.655523</ele>
        <time>2021-11-15T19:45:18.294Z</time>
      </trkpt>
      <trkpt lat="41.12606" lon="41.86519">
        <ele>426.558925</ele>
        <time>2021-11-15T19:45:44.532Z</time>
      </trkpt>
      <trkpt lat="41.12615" lon="41.8647">
        <ele>428.373532</ele>
        <time>2021-11-15T19:46:02.983Z</time>
      </trkpt>
      <trkpt lat="41.1261" lon="41.86433">
        <ele>429.748807</ele>
        <time>2021-11-15T19:46:15.270Z</time>
      </trkpt>
      <trkpt lat="41.12596" lon="41.86384">
        <ele>431.639576</ele>
        <time>2021-11-15T19:46:29.764Z</time>
      </trkpt>
      <trkpt lat="41.12568" lon="41.86352">
        <ele>433.422402</ele>
        <time>2021-11-15T19:46:40.933Z</time>
      </trkpt>
      <trkpt lat="41.12138" lon="41.86038">
        <ele>428.116733</ele>
        <time>2021-11-15T19:48:19.548Z</time>
      </trkpt>
      <trkpt lat="41.12076" lon="41.86001">
        <ele>426.846587</ele>
        <time>2021-11-15T19:48:30.104Z</time>
      </trkpt>
      <trkpt lat="41.12048" lon="41.85971">
        <ele>426.388229</ele>
        <time>2021-11-15T19:48:35.855Z</time>
      </trkpt>
      <trkpt lat="41.11994" lon="41.8587">
        <ele>425.20598</ele>
        <time>2021-11-15T19:48:51.776Z</time>
      </trkpt>
      <trkpt lat="41.11899" lon="41.85669">
        <ele>430.362429</ele>
        <time>2021-11-15T19:49:57.692Z</time>
      </trkpt>
      <trkpt lat="41.11892" lon="41.85632">
        <ele>431.500371</ele>
        <time>2021-11-15T19:50:11.134Z</time>
      </trkpt>
      <trkpt lat="41.11898" lon="41.85517">
        <ele>434.89173</ele>
        <time>2021-11-15T19:50:50.881Z</time>
      </trkpt>
      <trkpt lat="41.11893" lon="41.85483">
        <ele>435.896108</ele>
        <time>2021-11-15T19:51:01.387Z</time>
      </trkpt>
      <trkpt lat="41.11872" lon="41.85457">
        <ele>437.011745</ele>
        <time>2021-11-15T19:51:12.459Z</time>
      </trkpt>
      <trkpt lat="41.11841" lon="41.85449">
        <ele>438.222549</ele>
        <time>2021-11-15T19:51:23.155Z</time>
      </trkpt>
      <trkpt lat="41.1182" lon="41.85453">
        <ele>438.756901</ele>
        <time>2021-11-15T19:51:29.527Z</time>
      </trkpt>
      <trkpt lat="41.11722" lon="41.85515">
        <ele>435.080616</ele>
        <time>2021-11-15T19:51:48.677Z</time>
      </trkpt>
      <trkpt lat="41.11623" lon="41.85532">
        <ele>430.320603</ele>
        <time>2021-11-15T19:52:02.896Z</time>
      </trkpt>
      <trkpt lat="41.11538" lon="41.85531">
        <ele>423.707456</ele>
        <time>2021-11-15T19:52:14.559Z</time>
      </trkpt>
      <trkpt lat="41.11509" lon="41.8552">
        <ele>421.395418</ele>
        <time>2021-11-15T19:52:18.849Z</time>
      </trkpt>
      <trkpt lat="41.11479" lon="41.8549">
        <ele>418.817411</ele>
        <time>2021-11-15T19:52:24.259Z</time>
      </trkpt>
      <trkpt lat="41.11471" lon="41.85477">
        <ele>418.593955</ele>
        <time>2021-11-15T19:52:25.957Z</time>
      </trkpt>
      <trkpt lat="41.1143" lon="41.85414">
        <ele>417.461485</ele>
        <time>2021-11-15T19:52:36.473Z</time>
      </trkpt>
      <trkpt lat="41.1139" lon="41.85322">
        <ele>416.036098</ele>
        <time>2021-11-15T19:52:52.081Z</time>
      </trkpt>
      <trkpt lat="41.11363" lon="41.85167">
        <ele>418.101844</ele>
        <time>2021-11-15T19:53:35.365Z</time>
      </trkpt>
      <trkpt lat="41.11287" lon="41.85025">
        <ele>420.099645</ele>
        <time>2021-11-15T19:54:14.532Z</time>
      </trkpt>
      <trkpt lat="41.11224" lon="41.84849">
        <ele>420.132887</ele>
        <time>2021-11-15T19:54:44.801Z</time>
      </trkpt>
      <trkpt lat="41.11166" lon="41.84722">
        <ele>419.034185</ele>
        <time>2021-11-15T19:55:05.027Z</time>
      </trkpt>
      <trkpt lat="41.1114" lon="41.84631">
        <ele>419.279715</ele>
        <time>2021-11-15T19:55:20.290Z</time>
      </trkpt>
      <trkpt lat="41.11135" lon="41.84551">
        <ele>421.101483</ele>
        <time>2021-11-15T19:55:36.818Z</time>
      </trkpt>
      <trkpt lat="41.11041" lon="41.84293">
        <ele>432.560541</ele>
        <time>2021-11-15T19:57:10.517Z</time>
      </trkpt>
      <trkpt lat="41.1098" lon="41.84159">
        <ele>440.911618</ele>
        <time>2021-11-15T19:58:27.767Z</time>
      </trkpt>
      <trkpt lat="41.10968" lon="41.83852">
        <ele>447.492963</ele>
        <time>2021-11-15T20:00:10.254Z</time>
      </trkpt>
      <trkpt lat="41.10966" lon="41.83802">
        <ele>446.817095</ele>
        <time>2021-11-15T20:00:15.387Z</time>
      </trkpt>
      <trkpt lat="41.1096" lon="41.83767">
        <ele>446.342303</ele>
        <time>2021-11-15T20:00:18.908Z</time>
      </trkpt>
      <trkpt lat="41.10948" lon="41.83729">
        <ele>442.814408</ele>
        <time>2021-11-15T20:00:22.969Z</time>
      </trkpt>
      <trkpt lat="41.10938" lon="41.83707">
        <ele>440.347149</ele>
        <time>2021-11-15T20:00:25.450Z</time>
      </trkpt>
      <trkpt lat="41.10839" lon="41.83627">
        <ele>425.50339</ele>
        <time>2021-11-15T20:00:40.450Z</time>
      </trkpt>
      <trkpt lat="41.10795" lon="41.83598">
        <ele>422.699096</ele>
        <time>2021-11-15T20:00:47.886Z</time>
      </trkpt>
      <trkpt lat="41.1077" lon="41.8356">
        <ele>422.076578</ele>
        <time>2021-11-15T20:00:54.854Z</time>
      </trkpt>
      <trkpt lat="41.10766" lon="41.83537">
        <ele>421.779679</ele>
        <time>2021-11-15T20:00:58.352Z</time>
      </trkpt>
      <trkpt lat="41.10813" lon="41.83156">
        <ele>423.402683</ele>
        <time>2021-11-15T20:02:18.155Z</time>
      </trkpt>
      <trkpt lat="41.10835" lon="41.83021">
        <ele>426.118836</ele>
        <time>2021-11-15T20:02:56.457Z</time>
      </trkpt>
      <trkpt lat="41.10836" lon="41.82983">
        <ele>426.875367</ele>
        <time>2021-11-15T20:03:06.261Z</time>
      </trkpt>
      <trkpt lat="41.10829" lon="41.82906">
        <ele>427.117615</ele>
        <time>2021-11-15T20:03:23.541Z</time>
      </trkpt>
      <trkpt lat="41.10813" lon="41.82791">
        <ele>425.634946</ele>
        <time>2021-11-15T20:03:40.567Z</time>
      </trkpt>
      <trkpt lat="41.10798" lon="41.82748">
        <ele>425.032321</ele>
        <time>2021-11-15T20:03:46.159Z</time>
      </trkpt>
      <trkpt lat="41.1075" lon="41.82707">
        <ele>423.091022</ele>
        <time>2021-11-15T20:03:54.595Z</time>
      </trkpt>
      <trkpt lat="41.10715" lon="41.82662">
        <ele>420.702973</ele>
        <time>2021-11-15T20:04:01.816Z</time>
      </trkpt>
      <trkpt lat="41.10705" lon="41.82639">
        <ele>419.687986</ele>
        <time>2021-11-15T20:04:04.887Z</time>
      </trkpt>
      <trkpt lat="41.10703" lon="41.82566">
        <ele>416.983386</ele>
        <time>2021-11-15T20:04:13.230Z</time>
      </trkpt>
      <trkpt lat="41.10694" lon="41.82534">
        <ele>415.712939</ele>
        <time>2021-11-15T20:04:17.253Z</time>
      </trkpt>
      <trkpt lat="41.10564" lon="41.82411">
        <ele>410.098107</ele>
        <time>2021-11-15T20:04:42.551Z</time>
      </trkpt>
      <trkpt lat="41.10498" lon="41.82338">
        <ele>408.072222</ele>
        <time>2021-11-15T20:04:57.293Z</time>
      </trkpt>
      <trkpt lat="41.10393" lon="41.82199">
        <ele>406.613035</ele>
        <time>2021-11-15T20:05:24.233Z</time>
      </trkpt>
      <trkpt lat="41.10376" lon="41.82161">
        <ele>407.382024</ele>
        <time>2021-11-15T20:05:30.293Z</time>
      </trkpt>
      <trkpt lat="41.10364" lon="41.82121">
        <ele>408.149333</ele>
        <time>2021-11-15T20:05:38.870Z</time>
      </trkpt>
      <trkpt lat="41.10361" lon="41.82102">
        <ele>408.475496</ele>
        <time>2021-11-15T20:05:44.764Z</time>
      </trkpt>
      <trkpt lat="41.10357" lon="41.82006">
        <ele>410.583081</ele>
        <time>2021-11-15T20:06:19.360Z</time>
      </trkpt>
      <trkpt lat="41.10348" lon="41.81949">
        <ele>413.957108</ele>
        <time>2021-11-15T20:06:40.750Z</time>
      </trkpt>
      <trkpt lat="41.10345" lon="41.81923">
        <ele>415.498887</ele>
        <time>2021-11-15T20:06:52.578Z</time>
      </trkpt>
      <trkpt lat="41.10342" lon="41.81889">
        <ele>417.435501</ele>
        <time>2021-11-15T20:07:06.073Z</time>
      </trkpt>
      <trkpt lat="41.10335" lon="41.81767">
        <ele>424.363613</ele>
        <time>2021-11-15T20:07:58.799Z</time>
      </trkpt>
      <trkpt lat="41.1031" lon="41.81662">
        <ele>429.01881</ele>
        <time>2021-11-15T20:08:42.701Z</time>
      </trkpt>
      <trkpt lat="41.10227" lon="41.81513">
        <ele>435.016355</ele>
        <time>2021-11-15T20:09:33.954Z</time>
      </trkpt>
      <trkpt lat="41.10138" lon="41.81442">
        <ele>437.161714</ele>
        <time>2021-11-15T20:10:11.094Z</time>
      </trkpt>
      <trkpt lat="41.09965" lon="41.81333">
        <ele>432.242132</ele>
        <time>2021-11-15T20:10:44.846Z</time>
      </trkpt>
      <trkpt lat="41.09906" lon="41.81302">
        <ele>428.322777</ele>
        <time>2021-11-15T20:10:53.693Z</time>
      </trkpt>
      <trkpt lat="41.09809" lon="41.81219">
        <ele>420.45082</ele>
        <time>2021-11-15T20:11:09.697Z</time>
      </trkpt>
      <trkpt lat="41.09763" lon="41.81173">
        <ele>421.351584</ele>
        <time>2021-11-15T20:11:19.712Z</time>
      </trkpt>
      <trkpt lat="41.0974" lon="41.81167">
        <ele>422.339719</ele>
        <time>2021-11-15T20:11:27.111Z</time>
      </trkpt>
      <trkpt lat="41.0971" lon="41.81169">
        <ele>423.546284</ele>
        <time>2021-11-15T20:11:38.134Z</time>
      </trkpt>
      <trkpt lat="41.09623" lon="41.81203">
        <ele>428.155863</ele>
        <time>2021-11-15T20:12:28.234Z</time>
      </trkpt>
      <trkpt lat="41.09592" lon="41.81204">
        <ele>432.47812</ele>
        <time>2021-11-15T20:12:52.220Z</time>
      </trkpt>
      <trkpt lat="41.09571" lon="41.81213">
        <ele>435.634304</ele>
        <time>2021-11-15T20:13:11.904Z</time>
      </trkpt>
      <trkpt lat="41.0949" lon="41.81271">
        <ele>448.596358</ele>
        <time>2021-11-15T20:14:34.808Z</time>
      </trkpt>
      <trkpt lat="41.09426" lon="41.81341">
        <ele>450.970213</ele>
        <time>2021-11-15T20:15:36.137Z</time>
      </trkpt>
      <trkpt lat="41.08869" lon="41.81662">
        <ele>433.542734</ele>
        <time>2021-11-15T20:17:14.956Z</time>
      </trkpt>
      <trkpt lat="41.08825" lon="41.81666">
        <ele>431.220195</ele>
        <time>2021-11-15T20:17:21.321Z</time>
      </trkpt>
      <trkpt lat="41.08733" lon="41.81644">
        <ele>425.127201</ele>
        <time>2021-11-15T20:17:34.699Z</time>
      </trkpt>
      <trkpt lat="41.08704" lon="41.81629">
        <ele>423.059496</ele>
        <time>2021-11-15T20:17:39.102Z</time>
      </trkpt>
      <trkpt lat="41.08606" lon="41.81495">
        <ele>413.27381</ele>
        <time>2021-11-15T20:18:00.717Z</time>
      </trkpt>
      <trkpt lat="41.0855" lon="41.81389">
        <ele>406.32464</ele>
        <time>2021-11-15T20:18:15.091Z</time>
      </trkpt>
      <trkpt lat="41.08522" lon="41.81287">
        <ele>400.644695</ele>
        <time>2021-11-15T20:18:26.614Z</time>
      </trkpt>
      <trkpt lat="41.085" lon="41.81206">
        <ele>396.163504</ele>
        <time>2021-11-15T20:18:35.936Z</time>
      </trkpt>
      <trkpt lat="41.08487" lon="41.8116">
        <ele>393.603911</ele>
        <time>2021-11-15T20:18:41.341Z</time>
      </trkpt>
      <trkpt lat="41.08428" lon="41.81007">
        <ele>387.681826</ele>
        <time>2021-11-15T20:19:01.036Z</time>
      </trkpt>
      <trkpt lat="41.08402" lon="41.80926">
        <ele>385.176113</ele>
        <time>2021-11-15T20:19:11.657Z</time>
      </trkpt>
      <trkpt lat="41.0837" lon="41.80848">
        <ele>384.852542</ele>
        <time>2021-11-15T20:19:22.547Z</time>
      </trkpt>
      <trkpt lat="41.08323" lon="41.80781">
        <ele>384.516905</ele>
        <time>2021-11-15T20:19:39.339Z</time>
      </trkpt>
      <trkpt lat="41.0829" lon="41.80748">
        <ele>384.75353</ele>
        <time>2021-11-15T20:19:53.662Z</time>
      </trkpt>
      <trkpt lat="41.08243" lon="41.80718">
        <ele>386.859944</ele>
        <time>2021-11-15T20:20:13.992Z</time>
      </trkpt>
      <trkpt lat="41.08188" lon="41.80698">
        <ele>389.197076</ele>
        <time>2021-11-15T20:20:37.488Z</time>
      </trkpt>
      <trkpt lat="41.08162" lon="41.80689">
        <ele>390.29594</ele>
        <time>2021-11-15T20:20:49.837Z</time>
      </trkpt>
      <trkpt lat="41.07982" lon="41.80547">
        <ele>397.317957</ele>
        <time>2021-11-15T20:22:07.382Z</time>
      </trkpt>
      <trkpt lat="41.07884" lon="41.80506">
        <ele>398.742461</ele>
        <time>2021-11-15T20:22:35.372Z</time>
      </trkpt>
      <trkpt lat="41.07673" lon="41.80366">
        <ele>401.304339</ele>
        <time>2021-11-15T20:23:39.428Z</time>
      </trkpt>
      <trkpt lat="41.07542" lon="41.80294">
        <ele>402.490575</ele>
        <time>2021-11-15T20:24:17.854Z</time>
      </trkpt>
      <trkpt lat="41.06955" lon="41.79991">
        <ele>404.617814</ele>
        <time>2021-11-15T20:26:55.890Z</time>
      </trkpt>
      <trkpt lat="41.06878" lon="41.79942">
        <ele>402.558633</ele>
        <time>2021-11-15T20:27:09.772Z</time>
      </trkpt>
      <trkpt lat="41.06811" lon="41.79915">
        <ele>400.921717</ele>
        <time>2021-11-15T20:27:20.863Z</time>
      </trkpt>
      <trkpt lat="41.06696" lon="41.79885">
        <ele>401.205865</ele>
        <time>2021-11-15T20:27:42.739Z</time>
      </trkpt>
      <trkpt lat="41.06539" lon="41.79828">
        <ele>405.998045</ele>
        <time>2021-11-15T20:28:45.263Z</time>
      </trkpt>
      <trkpt lat="41.06343" lon="41.79812">
        <ele>413.573746</ele>
        <time>2021-11-15T20:30:11.696Z</time>
      </trkpt>
      <trkpt lat="41.06297" lon="41.79821">
        <ele>415.164211</ele>
        <time>2021-11-15T20:30:24.001Z</time>
      </trkpt>
      <trkpt lat="41.0618" lon="41.79862">
        <ele>414.71736</ele>
        <time>2021-11-15T20:30:45.513Z</time>
      </trkpt>
      <trkpt lat="41.06146" lon="41.79868">
        <ele>414.419477</ele>
        <time>2021-11-15T20:30:50.920Z</time>
      </trkpt>
      <trkpt lat="41.05964" lon="41.7983">
        <ele>420.229504</ele>
        <time>2021-11-15T20:31:45.121Z</time>
      </trkpt>
      <trkpt lat="41.05928" lon="41.79805">
        <ele>422.560089</ele>
        <time>2021-11-15T20:32:12.268Z</time>
      </trkpt>
      <trkpt lat="41.05878" lon="41.79779">
        <ele>430.360495</ele>
        <time>2021-11-15T20:32:56.275Z</time>
      </trkpt>
      <trkpt lat="41.0556" lon="41.79819">
        <ele>472.123958</ele>
        <time>2021-11-15T20:37:32.928Z</time>
      </trkpt>
      <trkpt lat="41.05531" lon="41.79836">
        <ele>469.938851</ele>
        <time>2021-11-15T20:37:38.090Z</time>
      </trkpt>
      <trkpt lat="41.05496" lon="41.79855">
        <ele>467.242315</ele>
        <time>2021-11-15T20:37:43.562Z</time>
      </trkpt>
      <trkpt lat="41.05337" lon="41.79954">
        <ele>449.563227</ele>
        <time>2021-11-15T20:38:07.231Z</time>
      </trkpt>
      <trkpt lat="41.05311" lon="41.79962">
        <ele>445.993329</ele>
        <time>2021-11-15T20:38:10.698Z</time>
      </trkpt>
      <trkpt lat="41.05287" lon="41.79962">
        <ele>442.791017</ele>
        <time>2021-11-15T20:38:13.841Z</time>
      </trkpt>
      <trkpt lat="41.05063" lon="41.7991">
        <ele>423.187874</ele>
        <time>2021-11-15T20:38:47.172Z</time>
      </trkpt>
      <trkpt lat="41.04908" lon="41.79886">
        <ele>421.837133</ele>
        <time>2021-11-15T20:39:21.191Z</time>
      </trkpt>
      <trkpt lat="41.04841" lon="41.79903">
        <ele>422.256128</ele>
        <time>2021-11-15T20:39:44.384Z</time>
      </trkpt>
      <trkpt lat="41.04565" lon="41.79927">
        <ele>423.538482</ele>
        <time>2021-11-15T20:40:58.776Z</time>
      </trkpt>
      <trkpt lat="41.04491" lon="41.79941">
        <ele>420.882125</ele>
        <time>2021-11-15T20:41:10.800Z</time>
      </trkpt>
      <trkpt lat="41.04388" lon="41.79959">
        <ele>413.991174</ele>
        <time>2021-11-15T20:41:25.764Z</time>
      </trkpt>
      <trkpt lat="41.04379" lon="41.79962">
        <ele>413.374334</ele>
        <time>2021-11-15T20:41:27.092Z</time>
      </trkpt>
      <trkpt lat="41.04357" lon="41.79972">
        <ele>411.866138</ele>
        <time>2021-11-15T20:41:30.196Z</time>
      </trkpt>
      <trkpt lat="41.0433" lon="41.79992">
        <ele>409.105921</ele>
        <time>2021-11-15T20:41:34.413Z</time>
      </trkpt>
      <trkpt lat="41.04299" lon="41.80001">
        <ele>406.120806</ele>
        <time>2021-11-15T20:41:38.644Z</time>
      </trkpt>
      <trkpt lat="41.04196" lon="41.80011">
        <ele>396.526464</ele>
        <time>2021-11-15T20:41:52.389Z</time>
      </trkpt>
      <trkpt lat="41.04128" lon="41.80013">
        <ele>397.087898</ele>
        <time>2021-11-15T20:42:03.516Z</time>
      </trkpt>
      <trkpt lat="41.04057" lon="41.80073">
        <ele>401.093459</ele>
        <time>2021-11-15T20:42:37.507Z</time>
      </trkpt>
      <trkpt lat="41.03938" lon="41.80155">
        <ele>415.812039</ele>
        <time>2021-11-15T20:44:31.619Z</time>
      </trkpt>
      <trkpt lat="41.03878" lon="41.8019">
        <ele>425.24289</ele>
        <time>2021-11-15T20:45:26.829Z</time>
      </trkpt>
      <trkpt lat="41.03846" lon="41.80212">
        <ele>429.744527</ele>
        <time>2021-11-15T20:45:53.013Z</time>
      </trkpt>
      <trkpt lat="41.03825" lon="41.80217">
        <ele>431.211881</ele>
        <time>2021-11-15T20:46:07.265Z</time>
      </trkpt>
      <trkpt lat="41.03763" lon="41.80179">
        <ele>436.033998</ele>
        <time>2021-11-15T20:46:44.259Z</time>
      </trkpt>
      <trkpt lat="41.03736" lon="41.80173">
        <ele>437.991736</ele>
        <time>2021-11-15T20:46:55.869Z</time>
      </trkpt>
      <trkpt lat="41.03678" lon="41.80177">
        <ele>441.931592</ele>
        <time>2021-11-15T20:47:15.189Z</time>
      </trkpt>
      <trkpt lat="41.03505" lon="41.80211">
        <ele>448.159063</ele>
        <time>2021-11-15T20:48:16.204Z</time>
      </trkpt>
      <trkpt lat="41.03443" lon="41.80223">
        <ele>452.593613</ele>
        <time>2021-11-15T20:48:45.232Z</time>
      </trkpt>
      <trkpt lat="41.03431" lon="41.80225">
        <ele>453.48225</ele>
        <time>2021-11-15T20:48:53.642Z</time>
      </trkpt>
      <trkpt lat="41.03388" lon="41.8022">
        <ele>456.59137</ele>
        <time>2021-11-15T20:49:17.201Z</time>
      </trkpt>
      <trkpt lat="41.03304" lon="41.8017">
        <ele>462.831416</ele>
        <time>2021-11-15T20:50:08.024Z</time>
      </trkpt>
      <trkpt lat="41.03258" lon="41.80162">
        <ele>465.567729</ele>
        <time>2021-11-15T20:50:30.049Z</time>
      </trkpt>
      <trkpt lat="41.03174" lon="41.80172">
        <ele>470.662808</ele>
        <time>2021-11-15T20:51:06.757Z</time>
      </trkpt>
      <trkpt lat="41.03061" lon="41.80122">
        <ele>476.162451</ele>
        <time>2021-11-15T20:51:54.065Z</time>
      </trkpt>
      <trkpt lat="41.03009" lon="41.80118">
        <ele>478.44201</ele>
        <time>2021-11-15T20:52:14.894Z</time>
      </trkpt>
      <trkpt lat="41.02969" lon="41.80098">
        <ele>480.238431</ele>
        <time>2021-11-15T20:52:31.502Z</time>
      </trkpt>
      <trkpt lat="41.02901" lon="41.80028">
        <ele>483.626727</ele>
        <time>2021-11-15T20:53:03.283Z</time>
      </trkpt>
      <trkpt lat="41.02795" lon="41.79867">
        <ele>491.025227</ele>
        <time>2021-11-15T20:54:05.565Z</time>
      </trkpt>
      <trkpt lat="41.02776" lon="41.798">
        <ele>493.831679</ele>
        <time>2021-11-15T20:54:29.092Z</time>
      </trkpt>
      <trkpt lat="41.02761" lon="41.7972">
        <ele>497.020272</ele>
        <time>2021-11-15T20:55:00.168Z</time>
      </trkpt>
      <trkpt lat="41.02732" lon="41.79666">
        <ele>499.490028</ele>
        <time>2021-11-15T20:55:25.512Z</time>
      </trkpt>
      <trkpt lat="41.02692" lon="41.79617">
        <ele>502.187755</ele>
        <time>2021-11-15T20:55:50.862Z</time>
      </trkpt>
      <trkpt lat="41.02661" lon="41.79579">
        <ele>504.236569</ele>
        <time>2021-11-15T20:56:08.226Z</time>
      </trkpt>
      <trkpt lat="41.02408" lon="41.79236">
        <ele>500.366373</ele>
        <time>2021-11-15T20:57:18.869Z</time>
      </trkpt>
      <trkpt lat="41.02372" lon="41.79207">
        <ele>498.645004</ele>
        <time>2021-11-15T20:57:25.272Z</time>
      </trkpt>
      <trkpt lat="41.02333" lon="41.79179">
        <ele>496.441776</ele>
        <time>2021-11-15T20:57:32.083Z</time>
      </trkpt>
      <trkpt lat="41.02287" lon="41.79156">
        <ele>494.010656</ele>
        <time>2021-11-15T20:57:39.653Z</time>
      </trkpt>
      <trkpt lat="41.02219" lon="41.79122">
        <ele>489.106419</ele>
        <time>2021-11-15T20:57:51.070Z</time>
      </trkpt>
      <trkpt lat="41.02173" lon="41.79085">
        <ele>481.986586</ele>
        <time>2021-11-15T20:57:58.681Z</time>
      </trkpt>
      <trkpt lat="41.02125" lon="41.79011">
        <ele>472.258376</ele>
        <time>2021-11-15T20:58:08.711Z</time>
      </trkpt>
      <trkpt lat="41.02099" lon="41.78965">
        <ele>466.061957</ele>
        <time>2021-11-15T20:58:14.301Z</time>
      </trkpt>
      <trkpt lat="41.02046" lon="41.78878">
        <ele>450.191246</ele>
        <time>2021-11-15T20:58:24.954Z</time>
      </trkpt>
      <trkpt lat="41.01966" lon="41.78747">
        <ele>429.828306</ele>
        <time>2021-11-15T20:58:41.271Z</time>
      </trkpt>
      <trkpt lat="41.01927" lon="41.78689">
        <ele>424.316539</ele>
        <time>2021-11-15T20:58:49.076Z</time>
      </trkpt>
      <trkpt lat="41.01873" lon="41.78616">
        <ele>417.083001</ele>
        <time>2021-11-15T20:58:59.693Z</time>
      </trkpt>
      <trkpt lat="41.01776" lon="41.78581">
        <ele>430.730027</ele>
        <time>2021-11-15T20:59:58.294Z</time>
      </trkpt>
      <trkpt lat="41.01757" lon="41.78565">
        <ele>434.046622</ele>
        <time>2021-11-15T21:00:19.534Z</time>
      </trkpt>
      <trkpt lat="41.01728" lon="41.78561">
        <ele>438.441758</ele>
        <time>2021-11-15T21:00:53.202Z</time>
      </trkpt>
      <trkpt lat="41.01673" lon="41.78559">
        <ele>449.106355</ele>
        <time>2021-11-15T21:01:55.926Z</time>
      </trkpt>
      <trkpt lat="41.01629" lon="41.78565">
        <ele>460.762421</ele>
        <time>2021-11-15T21:02:46.516Z</time>
      </trkpt>
      <trkpt lat="41.01598" lon="41.78561">
        <ele>469.033032</ele>
        <time>2021-11-15T21:03:22.653Z</time>
      </trkpt>
      <trkpt lat="41.01576" lon="41.78555">
        <ele>475.10125</ele>
        <time>2021-11-15T21:03:49.304Z</time>
      </trkpt>
      <trkpt lat="41.01491" lon="41.78436">
        <ele>495.85557</ele>
        <time>2021-11-15T21:05:54.884Z</time>
      </trkpt>
      <trkpt lat="41.01464" lon="41.78414">
        <ele>498.227423</ele>
        <time>2021-11-15T21:06:07.905Z</time>
      </trkpt>
      <trkpt lat="41.01402" lon="41.7838">
        <ele>503.366804</ele>
        <time>2021-11-15T21:06:25.914Z</time>
      </trkpt>
      <trkpt lat="41.01255" lon="41.78269">
        <ele>496.214911</ele>
        <time>2021-11-15T21:06:51.344Z</time>
      </trkpt>
      <trkpt lat="41.01204" lon="41.78218">
        <ele>491.9924</ele>
        <time>2021-11-15T21:07:00.031Z</time>
      </trkpt>
      <trkpt lat="41.01189" lon="41.78122">
        <ele>486.415338</ele>
        <time>2021-11-15T21:07:10.201Z</time>
      </trkpt>
      <trkpt lat="41.01196" lon="41.78091">
        <ele>484.578566</ele>
        <time>2021-11-15T21:07:13.616Z</time>
      </trkpt>
      <trkpt lat="41.0122" lon="41.78039">
        <ele>481.117453</ele>
        <time>2021-11-15T21:07:20.250Z</time>
      </trkpt>
      <trkpt lat="41.01231" lon="41.77993">
        <ele>481.96427</ele>
        <time>2021-11-15T21:07:26.387Z</time>
      </trkpt>
      <trkpt lat="41.01231" lon="41.77967">
        <ele>482.414168</ele>
        <time>2021-11-15T21:07:30.782Z</time>
      </trkpt>
      <trkpt lat="41.0123" lon="41.7794">
        <ele>482.885474</ele>
        <time>2021-11-15T21:07:36.006Z</time>
      </trkpt>
      <trkpt lat="41.01203" lon="41.77874">
        <ele>484.177802</ele>
        <time>2021-11-15T21:07:57.921Z</time>
      </trkpt>
      <trkpt lat="41.01117" lon="41.77825">
        <ele>489.166962</ele>
        <time>2021-11-15T21:08:47.066Z</time>
      </trkpt>
      <trkpt lat="41.01061" lon="41.77819">
        <ele>493.871694</ele>
        <time>2021-11-15T21:09:21.123Z</time>
      </trkpt>
      <trkpt lat="41.00947" lon="41.77822">
        <ele>501.384357</ele>
        <time>2021-11-15T21:10:27.244Z</time>
      </trkpt>
      <trkpt lat="41.00849" lon="41.77801">
        <ele>504.045142</ele>
        <time>2021-11-15T21:11:04.177Z</time>
      </trkpt>
      <trkpt lat="41.00812" lon="41.77774">
        <ele>505.170032</ele>
        <time>2021-11-15T21:11:11.874Z</time>
      </trkpt>
      <trkpt lat="41.00734" lon="41.77693">
        <ele>491.921558</ele>
        <time>2021-11-15T21:11:25.788Z</time>
      </trkpt>
      <trkpt lat="41.0066" lon="41.77561">
        <ele>471.155191</ele>
        <time>2021-11-15T21:11:41.420Z</time>
      </trkpt>
      <trkpt lat="41.00634" lon="41.77485">
        <ele>456.602436</ele>
        <time>2021-11-15T21:11:49.412Z</time>
      </trkpt>
      <trkpt lat="41.00631" lon="41.77461">
        <ele>452.463519</ele>
        <time>2021-11-15T21:11:51.692Z</time>
      </trkpt>
      <trkpt lat="41.00607" lon="41.77327">
        <ele>433.908146</ele>
        <time>2021-11-15T21:12:04.872Z</time>
      </trkpt>
      <trkpt lat="41.00577" lon="41.7721">
        <ele>423.303932</ele>
        <time>2021-11-15T21:12:17.546Z</time>
      </trkpt>
      <trkpt lat="41.00557" lon="41.77158">
        <ele>418.656708</ele>
        <time>2021-11-15T21:12:25.300Z</time>
      </trkpt>
      <trkpt lat="41.00524" lon="41.77102">
        <ele>417.017563</ele>
        <time>2021-11-15T21:12:35.651Z</time>
      </trkpt>
      <trkpt lat="41.00513" lon="41.77083">
        <ele>416.447748</ele>
        <time>2021-11-15T21:12:39.623Z</time>
      </trkpt>
      <trkpt lat="41.00504" lon="41.77065">
        <ele>415.947394</ele>
        <time>2021-11-15T21:12:43.707Z</time>
      </trkpt>
      <trkpt lat="41.00419" lon="41.76906">
        <ele>408.341554</ele>
        <time>2021-11-15T21:13:07.272Z</time>
      </trkpt>
      <trkpt lat="41.00379" lon="41.76832">
        <ele>402.611508</ele>
        <time>2021-11-15T21:13:16.480Z</time>
      </trkpt>
      <trkpt lat="41.00359" lon="41.76796">
        <ele>399.854566</ele>
        <time>2021-11-15T21:13:20.997Z</time>
      </trkpt>
      <trkpt lat="41.00326" lon="41.76752">
        <ele>397.808031</ele>
        <time>2021-11-15T21:13:27.595Z</time>
      </trkpt>
      <trkpt lat="41.00297" lon="41.76679">
        <ele>396.575922</ele>
        <time>2021-11-15T21:13:37.126Z</time>
      </trkpt>
      <trkpt lat="41.00287" lon="41.76637">
        <ele>395.915414</ele>
        <time>2021-11-15T21:13:47.100Z</time>
      </trkpt>
      <trkpt lat="41.00289" lon="41.7657">
        <ele>394.908404</ele>
        <time>2021-11-15T21:14:05.003Z</time>
      </trkpt>
      <trkpt lat="41.00267" lon="41.76507">
        <ele>395.115729</ele>
        <time>2021-11-15T21:14:22.229Z</time>
      </trkpt>
      <trkpt lat="41.00234" lon="41.76445">
        <ele>395.473469</ele>
        <time>2021-11-15T21:14:38.732Z</time>
      </trkpt>
      <trkpt lat="41.00191" lon="41.76394">
        <ele>395.835788</ele>
        <time>2021-11-15T21:14:49.600Z</time>
      </trkpt>
      <trkpt lat="41.00105" lon="41.76251">
        <ele>395.325328</ele>
        <time>2021-11-15T21:15:13.744Z</time>
      </trkpt>
      <trkpt lat="41.00075" lon="41.76209">
        <ele>395.104691</ele>
        <time>2021-11-15T21:15:24.604Z</time>
      </trkpt>
      <trkpt lat="41.00032" lon="41.76187">
        <ele>396.861095</ele>
        <time>2021-11-15T21:15:40.716Z</time>
      </trkpt>
      <trkpt lat="40.99969" lon="41.7616">
        <ele>400.823553</ele>
        <time>2021-11-15T21:16:10.023Z</time>
      </trkpt>
      <trkpt lat="40.99845" lon="41.76163">
        <ele>409.091039</ele>
        <time>2021-11-15T21:17:20.528Z</time>
      </trkpt>
      <trkpt lat="40.99787" lon="41.76182">
        <ele>413.880339</ele>
        <time>2021-11-15T21:17:55.676Z</time>
      </trkpt>
      <trkpt lat="40.99716" lon="41.76241">
        <ele>420.264579</ele>
        <time>2021-11-15T21:18:47.277Z</time>
      </trkpt>
      <trkpt lat="40.99674" lon="41.76417">
        <ele>420.5115</ele>
        <time>2021-11-15T21:19:22.939Z</time>
      </trkpt>
      <trkpt lat="40.99652" lon="41.76542">
        <ele>417.839529</ele>
        <time>2021-11-15T21:19:36.947Z</time>
      </trkpt>
      <trkpt lat="40.99641" lon="41.76563">
        <ele>416.97062</ele>
        <time>2021-11-15T21:19:40.418Z</time>
      </trkpt>
      <trkpt lat="40.99629" lon="41.76576">
        <ele>416.289279</ele>
        <time>2021-11-15T21:19:42.432Z</time>
      </trkpt>
      <trkpt lat="40.9959" lon="41.76579">
        <ele>414.534846</ele>
        <time>2021-11-15T21:19:48.115Z</time>
      </trkpt>
      <trkpt lat="40.99551" lon="41.76593">
        <ele>412.722063</ele>
        <time>2021-11-15T21:19:54.642Z</time>
      </trkpt>
      <trkpt lat="40.99419" lon="41.76671">
        <ele>413.334471</ele>
        <time>2021-11-15T21:20:40.013Z</time>
      </trkpt>
      <trkpt lat="40.99398" lon="41.76678">
        <ele>413.46638</ele>
        <time>2021-11-15T21:20:45.159Z</time>
      </trkpt>
      <trkpt lat="40.99375" lon="41.76676">
        <ele>413.378876</ele>
        <time>2021-11-15T21:20:50.115Z</time>
      </trkpt>
      <trkpt lat="40.99364" lon="41.76676">
        <ele>412.951486</ele>
        <time>2021-11-15T21:20:51.935Z</time>
      </trkpt>
      <trkpt lat="40.99327" lon="41.76651">
        <ele>411.365661</ele>
        <time>2021-11-15T21:20:58.715Z</time>
      </trkpt>
      <trkpt lat="40.99271" lon="41.76556">
        <ele>407.830825</ele>
        <time>2021-11-15T21:21:12.109Z</time>
      </trkpt>
      <trkpt lat="40.99151" lon="41.76403">
        <ele>403.960601</ele>
        <time>2021-11-15T21:21:38.757Z</time>
      </trkpt>
      <trkpt lat="40.99123" lon="41.76351">
        <ele>403.174421</ele>
        <time>2021-11-15T21:21:53.198Z</time>
      </trkpt>
      <trkpt lat="40.98977" lon="41.76129">
        <ele>409.795814</ele>
        <time>2021-11-15T21:23:15.558Z</time>
      </trkpt>
      <trkpt lat="40.98873" lon="41.75995">
        <ele>413.649983</ele>
        <time>2021-11-15T21:24:03.018Z</time>
      </trkpt>
      <trkpt lat="40.98798" lon="41.75959">
        <ele>415.434143</ele>
        <time>2021-11-15T21:24:28.756Z</time>
      </trkpt>
      <trkpt lat="40.98509" lon="41.75874">
        <ele>421.544205</ele>
        <time>2021-11-15T21:26:03.163Z</time>
      </trkpt>
      <trkpt lat="40.98024" lon="41.7579">
        <ele>426.024665</ele>
        <time>2021-11-15T21:28:18.941Z</time>
      </trkpt>
      <trkpt lat="40.97995" lon="41.75799">
        <ele>425.9719</ele>
        <time>2021-11-15T21:28:23.583Z</time>
      </trkpt>
      <trkpt lat="40.97956" lon="41.75806">
        <ele>425.342339</ele>
        <time>2021-11-15T21:28:29.858Z</time>
      </trkpt>
      <trkpt lat="40.97851" lon="41.75794">
        <ele>423.618847</ele>
        <time>2021-11-15T21:28:47.433Z</time>
      </trkpt>
      <trkpt lat="40.97761" lon="41.75793">
        <ele>425.256209</ele>
        <time>2021-11-15T21:29:15.124Z</time>
      </trkpt>
      <trkpt lat="40.97663" lon="41.75761">
        <ele>428.781551</ele>
        <time>2021-11-15T21:29:59.026Z</time>
      </trkpt>
      <trkpt lat="40.96853" lon="41.75536">
        <ele>444.653694</ele>
        <time>2021-11-15T21:34:48.770Z</time>
      </trkpt>
      <trkpt lat="40.96804" lon="41.75533">
        <ele>441.250505</ele>
        <time>2021-11-15T21:34:54.988Z</time>
      </trkpt>
      <trkpt lat="40.96716" lon="41.75564">
        <ele>432.736956</ele>
        <time>2021-11-15T21:35:06.679Z</time>
      </trkpt>
      <trkpt lat="40.96625" lon="41.75605">
        <ele>422.055265</ele>
        <time>2021-11-15T21:35:19.301Z</time>
      </trkpt>
      <trkpt lat="40.96425" lon="41.75694">
        <ele>419.549912</ele>
        <time>2021-11-15T21:36:17.498Z</time>
      </trkpt>
      <trkpt lat="40.96409" lon="41.757">
        <ele>419.54601</ele>
        <time>2021-11-15T21:36:23.724Z</time>
      </trkpt>
      <trkpt lat="40.96328" lon="41.75731">
        <ele>419.442048</ele>
        <time>2021-11-15T21:36:46.143Z</time>
      </trkpt>
      <trkpt lat="40.96269" lon="41.75756">
        <ele>419.366949</ele>
        <time>2021-11-15T21:36:57.847Z</time>
      </trkpt>
      <trkpt lat="40.96236" lon="41.75759">
        <ele>418.93904</ele>
        <time>2021-11-15T21:37:03.304Z</time>
      </trkpt>
      <trkpt lat="40.95819" lon="41.75674">
        <ele>408.271031</ele>
        <time>2021-11-15T21:38:12.960Z</time>
      </trkpt>
      <trkpt lat="40.95771" lon="41.75655">
        <ele>407.823863</ele>
        <time>2021-11-15T21:38:22.525Z</time>
      </trkpt>
      <trkpt lat="40.9576" lon="41.75651">
        <ele>407.726588</ele>
        <time>2021-11-15T21:38:26.280Z</time>
      </trkpt>
      <trkpt lat="40.95665" lon="41.75598">
        <ele>408.322951</ele>
        <time>2021-11-15T21:38:57.272Z</time>
      </trkpt>
      <trkpt lat="40.95623" lon="41.75592">
        <ele>409.005186</ele>
        <time>2021-11-15T21:39:11.690Z</time>
      </trkpt>
      <trkpt lat="40.95611" lon="41.75596">
        <ele>409.205228</ele>
        <time>2021-11-15T21:39:16.811Z</time>
      </trkpt>
      <trkpt lat="40.95585" lon="41.75607">
        <ele>409.645492</ele>
        <time>2021-11-15T21:39:24.649Z</time>
      </trkpt>
      <trkpt lat="40.95457" lon="41.75679">
        <ele>410.169484</ele>
        <time>2021-11-15T21:39:52.765Z</time>
      </trkpt>
      <trkpt lat="40.95421" lon="41.75719">
        <ele>410.134609</ele>
        <time>2021-11-15T21:40:01.738Z</time>
      </trkpt>
      <trkpt lat="40.95409" lon="41.75752">
        <ele>410.114566</ele>
        <time>2021-11-15T21:40:06.954Z</time>
      </trkpt>
      <trkpt lat="40.9539" lon="41.75923">
        <ele>416.895366</ele>
        <time>2021-11-15T21:40:55.093Z</time>
      </trkpt>
      <trkpt lat="40.95384" lon="41.76064">
        <ele>424.682106</ele>
        <time>2021-11-15T21:42:04.799Z</time>
      </trkpt>
      <trkpt lat="40.95382" lon="41.7609">
        <ele>426.488183</ele>
        <time>2021-11-15T21:42:18.182Z</time>
      </trkpt>
      <trkpt lat="40.95378" lon="41.76118">
        <ele>428.407739</ele>
        <time>2021-11-15T21:42:31.852Z</time>
      </trkpt>
      <trkpt lat="40.95362" lon="41.76152">
        <ele>431.208772</ele>
        <time>2021-11-15T21:42:51.073Z</time>
      </trkpt>
      <trkpt lat="40.95199" lon="41.76219">
        <ele>440.361101</ele>
        <time>2021-11-15T21:44:13.131Z</time>
      </trkpt>
      <trkpt lat="40.95157" lon="41.76214">
        <ele>441.880964</ele>
        <time>2021-11-15T21:44:21.859Z</time>
      </trkpt>
      <trkpt lat="40.95081" lon="41.76162">
        <ele>441.460623</ele>
        <time>2021-11-15T21:44:36.329Z</time>
      </trkpt>
      <trkpt lat="40.95041" lon="41.76157">
        <ele>440.723548</ele>
        <time>2021-11-15T21:44:42.573Z</time>
      </trkpt>
      <trkpt lat="40.94997" lon="41.76163">
        <ele>439.909363</ele>
        <time>2021-11-15T21:44:49.681Z</time>
      </trkpt>
      <trkpt lat="40.94902" lon="41.76227">
        <ele>443.592479</ele>
        <time>2021-11-15T21:45:20.063Z</time>
      </trkpt>
      <trkpt lat="40.94813" lon="41.76308">
        <ele>449.701281</ele>
        <time>2021-11-15T21:46:23.254Z</time>
      </trkpt>
      <trkpt lat="40.94796" lon="41.76316">
        <ele>450.620521</ele>
        <time>2021-11-15T21:46:37.586Z</time>
      </trkpt>
      <trkpt lat="40.94784" lon="41.76322">
        <ele>451.237781</ele>
        <time>2021-11-15T21:46:43.150Z</time>
      </trkpt>
      <trkpt lat="40.94659" lon="41.76364">
        <ele>457.643021</ele>
        <time>2021-11-15T21:47:48.385Z</time>
      </trkpt>
      <trkpt lat="40.94523" lon="41.76456">
        <ele>446.379632</ele>
        <time>2021-11-15T21:48:09.785Z</time>
      </trkpt>
      <trkpt lat="40.94476" lon="41.76471">
        <ele>441.900311</ele>
        <time>2021-11-15T21:48:16.108Z</time>
      </trkpt>
      <trkpt lat="40.94457" lon="41.76471">
        <ele>439.671059</ele>
        <time>2021-11-15T21:48:18.522Z</time>
      </trkpt>
      <trkpt lat="40.94422" lon="41.7647">
        <ele>435.427213</ele>
        <time>2021-11-15T21:48:23.069Z</time>
      </trkpt>
      <trkpt lat="40.94354" lon="41.76437">
        <ele>426.768167</ele>
        <time>2021-11-15T21:48:32.368Z</time>
      </trkpt>
      <trkpt lat="40.94249" lon="41.76383">
        <ele>427.399537</ele>
        <time>2021-11-15T21:48:50.771Z</time>
      </trkpt>
      <trkpt lat="40.94154" lon="41.76353">
        <ele>437.201691</ele>
        <time>2021-11-15T21:50:12.345Z</time>
      </trkpt>
      <trkpt lat="40.94136" lon="41.76348">
        <ele>439.057728</ele>
        <time>2021-11-15T21:50:32.914Z</time>
      </trkpt>
      <trkpt lat="40.94071" lon="41.7634">
        <ele>457.398678</ele>
        <time>2021-11-15T21:51:49.069Z</time>
      </trkpt>
      <trkpt lat="40.94054" lon="41.76337">
        <ele>461.960284</ele>
        <time>2021-11-15T21:52:08.024Z</time>
      </trkpt>
      <trkpt lat="40.94029" lon="41.76334">
        <ele>468.954086</ele>
        <time>2021-11-15T21:52:37.308Z</time>
      </trkpt>
      <trkpt lat="40.93999" lon="41.76343">
        <ele>477.676279</ele>
        <time>2021-11-15T21:53:13.607Z</time>
      </trkpt>
      <trkpt lat="40.93938" lon="41.7638">
        <ele>489.744244</ele>
        <time>2021-11-15T21:54:30.142Z</time>
      </trkpt>
      <trkpt lat="40.93915" lon="41.76385">
        <ele>490.247781</ele>
        <time>2021-11-15T21:54:54.894Z</time>
      </trkpt>
      <trkpt lat="40.93896" lon="41.76385">
        <ele>490.638863</ele>
        <time>2021-11-15T21:55:15.847Z</time>
      </trkpt>
      <trkpt lat="40.92703" lon="41.76024">
        <ele>511.015258</ele>
        <time>2021-11-15T22:00:26.303Z</time>
      </trkpt>
      <trkpt lat="40.92671" lon="41.76015">
        <ele>509.438668</ele>
        <time>2021-11-15T22:00:31.381Z</time>
      </trkpt>
      <trkpt lat="40.92626" lon="41.75993">
        <ele>507.068704</ele>
        <time>2021-11-15T22:00:39.126Z</time>
      </trkpt>
      <trkpt lat="40.92604" lon="41.75983">
        <ele>505.926693</ele>
        <time>2021-11-15T22:00:42.425Z</time>
      </trkpt>
      <trkpt lat="40.92576" lon="41.7596">
        <ele>504.342024</ele>
        <time>2021-11-15T22:00:47.102Z</time>
      </trkpt>
      <trkpt lat="40.92555" lon="41.75932">
        <ele>502.32244</ele>
        <time>2021-11-15T22:00:51.252Z</time>
      </trkpt>
      <trkpt lat="40.92524" lon="41.75861">
        <ele>497.427587</ele>
        <time>2021-11-15T22:00:59.698Z</time>
      </trkpt>
      <trkpt lat="40.92493" lon="41.75818">
        <ele>493.901015</ele>
        <time>2021-11-15T22:01:05.744Z</time>
      </trkpt>
      <trkpt lat="40.92472" lon="41.75798">
        <ele>491.842651</ele>
        <time>2021-11-15T22:01:09.491Z</time>
      </trkpt>
      <trkpt lat="40.92441" lon="41.7578">
        <ele>489.640349</ele>
        <time>2021-11-15T22:01:14.604Z</time>
      </trkpt>
      <trkpt lat="40.92374" lon="41.75749">
        <ele>489.146721</ele>
        <time>2021-11-15T22:01:27.828Z</time>
      </trkpt>
      <trkpt lat="40.92278" lon="41.75685">
        <ele>488.474319</ele>
        <time>2021-11-15T22:01:54.270Z</time>
      </trkpt>
      <trkpt lat="40.92239" lon="41.75655">
        <ele>488.807087</ele>
        <time>2021-11-15T22:02:10.137Z</time>
      </trkpt>
      <trkpt lat="40.9217" lon="41.75529">
        <ele>489.679594</ele>
        <time>2021-11-15T22:02:42.066Z</time>
      </trkpt>
      <trkpt lat="40.92111" lon="41.75501">
        <ele>488.70195</ele>
        <time>2021-11-15T22:02:52.247Z</time>
      </trkpt>
      <trkpt lat="40.92087" lon="41.75472">
        <ele>488.000376</ele>
        <time>2021-11-15T22:02:57.661Z</time>
      </trkpt>
      <trkpt lat="40.92033" lon="41.75355">
        <ele>485.814205</ele>
        <time>2021-11-15T22:03:15.884Z</time>
      </trkpt>
      <trkpt lat="40.92022" lon="41.75288">
        <ele>485.033392</ele>
        <time>2021-11-15T22:03:24.896Z</time>
      </trkpt>
      <trkpt lat="40.91999" lon="41.75243">
        <ele>484.423521</ele>
        <time>2021-11-15T22:03:31.984Z</time>
      </trkpt>
      <trkpt lat="40.91931" lon="41.75168">
        <ele>483.396156</ele>
        <time>2021-11-15T22:03:47.877Z</time>
      </trkpt>
      <trkpt lat="40.91815" lon="41.74988">
        <ele>487.767534</ele>
        <time>2021-11-15T22:04:45.195Z</time>
      </trkpt>
      <trkpt lat="40.91801" lon="41.74947">
        <ele>489.228921</ele>
        <time>2021-11-15T22:05:02.693Z</time>
      </trkpt>
      <trkpt lat="40.918" lon="41.74917">
        <ele>490.195642</ele>
        <time>2021-11-15T22:05:14.332Z</time>
      </trkpt>
      <trkpt lat="40.91802" lon="41.74877">
        <ele>491.467939</ele>
        <time>2021-11-15T22:05:31.591Z</time>
      </trkpt>
      <trkpt lat="40.91393" lon="41.73941">
        <ele>509.793933</ele>
        <time>2021-11-15T22:09:47.235Z</time>
      </trkpt>
      <trkpt lat="40.91356" lon="41.73888">
        <ele>511.219726</ele>
        <time>2021-11-15T22:10:00.277Z</time>
      </trkpt>
      <trkpt lat="40.91328" lon="41.73854">
        <ele>512.190479</ele>
        <time>2021-11-15T22:10:10.866Z</time>
      </trkpt>
      <trkpt lat="40.91282" lon="41.73825">
        <ele>513.497538</ele>
        <time>2021-11-15T22:10:27.480Z</time>
      </trkpt>
      <trkpt lat="40.91256" lon="41.73802">
        <ele>514.519313</ele>
        <time>2021-11-15T22:10:39.712Z</time>
      </trkpt>
      <trkpt lat="40.91239" lon="41.73793">
        <ele>515.496313</ele>
        <time>2021-11-15T22:10:50.103Z</time>
      </trkpt>
      <trkpt lat="40.91206" lon="41.7377">
        <ele>517.583089</ele>
        <time>2021-11-15T22:11:10.939Z</time>
      </trkpt>
      <trkpt lat="40.91123" lon="41.73744">
        <ele>522.335373</ele>
        <time>2021-11-15T22:11:54.897Z</time>
      </trkpt>
      <trkpt lat="40.91093" lon="41.73726">
        <ele>524.096821</ele>
        <time>2021-11-15T22:12:11.375Z</time>
      </trkpt>
      <trkpt lat="40.90431" lon="41.73419">
        <ele>499.000563</ele>
        <time>2021-11-15T22:14:07.318Z</time>
      </trkpt>
      <trkpt lat="40.90304" lon="41.73356">
        <ele>493.511779</ele>
        <time>2021-11-15T22:14:27.949Z</time>
      </trkpt>
      <trkpt lat="40.90263" lon="41.73334">
        <ele>491.731053</ele>
        <time>2021-11-15T22:14:35.131Z</time>
      </trkpt>
      <trkpt lat="40.90109" lon="41.73265">
        <ele>487.509628</ele>
        <time>2021-11-15T22:15:03.532Z</time>
      </trkpt>
      <trkpt lat="40.90071" lon="41.73252">
        <ele>486.575838</ele>
        <time>2021-11-15T22:15:09.838Z</time>
      </trkpt>
      <trkpt lat="40.90005" lon="41.7324">
        <ele>485.062129</ele>
        <time>2021-11-15T22:15:20.939Z</time>
      </trkpt>
      <trkpt lat="40.8996" lon="41.73222">
        <ele>484.009103</ele>
        <time>2021-11-15T22:15:28.768Z</time>
      </trkpt>
      <trkpt lat="40.89935" lon="41.73205">
        <ele>483.38494</ele>
        <time>2021-11-15T22:15:33.478Z</time>
      </trkpt>
      <trkpt lat="40.89817" lon="41.73055">
        <ele>485.719705</ele>
        <time>2021-11-15T22:16:07.124Z</time>
      </trkpt>
      <trkpt lat="40.89727" lon="41.7295">
        <ele>493.221569</ele>
        <time>2021-11-15T22:17:18.866Z</time>
      </trkpt>
      <trkpt lat="40.89704" lon="41.72925">
        <ele>495.904807</ele>
        <time>2021-11-15T22:17:38.614Z</time>
      </trkpt>
      <trkpt lat="40.89686" lon="41.729">
        <ele>498.20733</ele>
        <time>2021-11-15T22:17:54.748Z</time>
      </trkpt>
      <trkpt lat="40.89658" lon="41.72866">
        <ele>501.672305</ele>
        <time>2021-11-15T22:18:20.210Z</time>
      </trkpt>
      <trkpt lat="40.89651" lon="41.72856">
        <ele>502.566959</ele>
        <time>2021-11-15T22:18:30.874Z</time>
      </trkpt>
      <trkpt lat="40.88928" lon="41.72171">
        <ele>522.843083</ele>
        <time>2021-11-15T22:23:01.216Z</time>
      </trkpt>
      <trkpt lat="40.88834" lon="41.72109">
        <ele>532.241267</ele>
        <time>2021-11-15T22:23:54.903Z</time>
      </trkpt>
      <trkpt lat="40.88793" lon="41.72054">
        <ele>538.159439</ele>
        <time>2021-11-15T22:24:41.470Z</time>
      </trkpt>
      <trkpt lat="40.88753" lon="41.71992">
        <ele>543.013231</ele>
        <time>2021-11-15T22:25:28.950Z</time>
      </trkpt>
      <trkpt lat="40.88747" lon="41.71986">
        <ele>543.447276</ele>
        <time>2021-11-15T22:25:35.418Z</time>
      </trkpt>
      <trkpt lat="40.88737" lon="41.71974">
        <ele>544.156913</ele>
        <time>2021-11-15T22:25:45.809Z</time>
      </trkpt>
      <trkpt lat="40.88729" lon="41.71965">
        <ele>544.72738</ele>
        <time>2021-11-15T22:25:53.862Z</time>
      </trkpt>
      <trkpt lat="40.8821" lon="41.7148">
        <ele>578.010217</ele>
        <time>2021-11-15T22:30:12.856Z</time>
      </trkpt>
      <trkpt lat="40.88187" lon="41.71431">
        <ele>579.680315</ele>
        <time>2021-11-15T22:30:31.317Z</time>
      </trkpt>
      <trkpt lat="40.88109" lon="41.71255">
        <ele>584.510552</ele>
        <time>2021-11-15T22:31:28.414Z</time>
      </trkpt>
      <trkpt lat="40.8757" lon="41.70729">
        <ele>581.851876</ele>
        <time>2021-11-15T22:33:51.035Z</time>
      </trkpt>
      <trkpt lat="40.86724" lon="41.70184">
        <ele>578.068447</ele>
        <time>2021-11-15T22:37:14.893Z</time>
      </trkpt>
      <trkpt lat="40.86655" lon="41.70113">
        <ele>577.905542</ele>
        <time>2021-11-15T22:37:36.684Z</time>
      </trkpt>
      <trkpt lat="40.86562" lon="41.7003">
        <ele>577.588926</ele>
        <time>2021-11-15T22:38:00.223Z</time>
      </trkpt>
      <trkpt lat="40.8652" lon="41.69999">
        <ele>576.543515</ele>
        <time>2021-11-15T22:38:09.017Z</time>
      </trkpt>
      <trkpt lat="40.86479" lon="41.69982">
        <ele>575.623316</ele>
        <time>2021-11-15T22:38:16.358Z</time>
      </trkpt>
      <trkpt lat="40.86435" lon="41.69978">
        <ele>574.676267</ele>
        <time>2021-11-15T22:38:23.611Z</time>
      </trkpt>
      <trkpt lat="40.86258" lon="41.7002">
        <ele>569.793051</ele>
        <time>2021-11-15T22:38:53.702Z</time>
      </trkpt>
      <trkpt lat="40.86176" lon="41.70034">
        <ele>566.538888</ele>
        <time>2021-11-15T22:39:07.527Z</time>
      </trkpt>
      <trkpt lat="40.86078" lon="41.70028">
        <ele>561.699591</ele>
        <time>2021-11-15T22:39:22.058Z</time>
      </trkpt>
      <trkpt lat="40.8587" lon="41.70025">
        <ele>551.980902</ele>
        <time>2021-11-15T22:39:54.248Z</time>
      </trkpt>
      <trkpt lat="40.85776" lon="41.70022">
        <ele>553.603465</ele>
        <time>2021-11-15T22:40:20.792Z</time>
      </trkpt>
      <trkpt lat="40.85728" lon="41.70024">
        <ele>554.781009</ele>
        <time>2021-11-15T22:40:39.476Z</time>
      </trkpt>
      <trkpt lat="40.856" lon="41.70002">
        <ele>560.000464</ele>
        <time>2021-11-15T22:41:33.876Z</time>
      </trkpt>
      <trkpt lat="40.85543" lon="41.69973">
        <ele>563.062489</ele>
        <time>2021-11-15T22:42:00.672Z</time>
      </trkpt>
      <trkpt lat="40.85495" lon="41.69941">
        <ele>565.358693</ele>
        <time>2021-11-15T22:42:22.762Z</time>
      </trkpt>
      <trkpt lat="40.85469" lon="41.69931">
        <ele>566.059314</ele>
        <time>2021-11-15T22:42:33.606Z</time>
      </trkpt>
      <trkpt lat="40.85437" lon="41.6993">
        <ele>566.866684</ele>
        <time>2021-11-15T22:42:46.364Z</time>
      </trkpt>
      <trkpt lat="40.85404" lon="41.69928">
        <ele>567.72159</ele>
        <time>2021-11-15T22:42:58.537Z</time>
      </trkpt>
      <trkpt lat="40.85237" lon="41.69856">
        <ele>568.521531</ele>
        <time>2021-11-15T22:43:39.929Z</time>
      </trkpt>
      <trkpt lat="40.8509" lon="41.69744">
        <ele>565.366161</ele>
        <time>2021-11-15T22:44:10.197Z</time>
      </trkpt>
      <trkpt lat="40.85046" lon="41.69699">
        <ele>563.964075</ele>
        <time>2021-11-15T22:44:19.911Z</time>
      </trkpt>
      <trkpt lat="40.85012" lon="41.69642">
        <ele>562.663023</ele>
        <time>2021-11-15T22:44:29.571Z</time>
      </trkpt>
      <trkpt lat="40.84851" lon="41.69241">
        <ele>557.03377</ele>
        <time>2021-11-15T22:45:33.018Z</time>
      </trkpt>
      <trkpt lat="40.84837" lon="41.69207">
        <ele>558.180673</ele>
        <time>2021-11-15T22:45:41.971Z</time>
      </trkpt>
      <trkpt lat="40.84803" lon="41.69123">
        <ele>561.112108</ele>
        <time>2021-11-15T22:46:09.338Z</time>
      </trkpt>
      <trkpt lat="40.84357" lon="41.68256">
        <ele>613.104372</ele>
        <time>2021-11-15T22:52:56.356Z</time>
      </trkpt>
      <trkpt lat="40.84333" lon="41.68197">
        <ele>612.318487</ele>
        <time>2021-11-15T22:53:11.358Z</time>
      </trkpt>
      <trkpt lat="40.84101" lon="41.67822">
        <ele>600.842833</ele>
        <time>2021-11-15T22:54:11.159Z</time>
      </trkpt>
      <trkpt lat="40.84071" lon="41.67792">
        <ele>599.683623</ele>
        <time>2021-11-15T22:54:17.119Z</time>
      </trkpt>
      <trkpt lat="40.84005" lon="41.67757">
        <ele>597.521474</ele>
        <time>2021-11-15T22:54:29.189Z</time>
      </trkpt>
      <trkpt lat="40.83933" lon="41.67733">
        <ele>596.534858</ele>
        <time>2021-11-15T22:54:44.295Z</time>
      </trkpt>
      <trkpt lat="40.83875" lon="41.6772">
        <ele>595.914679</ele>
        <time>2021-11-15T22:55:01.174Z</time>
      </trkpt>
      <trkpt lat="40.83763" lon="41.6771">
        <ele>592.49007</ele>
        <time>2021-11-15T22:55:19.472Z</time>
      </trkpt>
      <trkpt lat="40.8373" lon="41.67706">
        <ele>590.870512</ele>
        <time>2021-11-15T22:55:24.076Z</time>
      </trkpt>
      <trkpt lat="40.83712" lon="41.67694">
        <ele>589.853364</ele>
        <time>2021-11-15T22:55:26.861Z</time>
      </trkpt>
      <trkpt lat="40.8368" lon="41.6766">
        <ele>587.810538</ele>
        <time>2021-11-15T22:55:32.501Z</time>
      </trkpt>
      <trkpt lat="40.83583" lon="41.67577">
        <ele>589.133271</ele>
        <time>2021-11-15T22:55:54.969Z</time>
      </trkpt>
      <trkpt lat="40.8353" lon="41.67532">
        <ele>591.207591</ele>
        <time>2021-11-15T22:56:22.847Z</time>
      </trkpt>
      <trkpt lat="40.83501" lon="41.67513">
        <ele>592.337552</ele>
        <time>2021-11-15T22:56:43.131Z</time>
      </trkpt>
      <trkpt lat="40.83421" lon="41.67426">
        <ele>601.912313</ele>
        <time>2021-11-15T22:57:58.416Z</time>
      </trkpt>
      <trkpt lat="40.83394" lon="41.674">
        <ele>604.995874</ele>
        <time>2021-11-15T22:58:22.063Z</time>
      </trkpt>
      <trkpt lat="40.83307" lon="41.67342">
        <ele>610.362528</ele>
        <time>2021-11-15T22:58:56.500Z</time>
      </trkpt>
      <trkpt lat="40.83092" lon="41.67266">
        <ele>615.745914</ele>
        <time>2021-11-15T23:00:07.078Z</time>
      </trkpt>
      <trkpt lat="40.80876" lon="41.66625">
        <ele>657.012783</ele>
        <time>2021-11-15T23:11:37.391Z</time>
      </trkpt>
      <trkpt lat="40.80813" lon="41.6662">
        <ele>658.02962</ele>
        <time>2021-11-15T23:11:56.178Z</time>
      </trkpt>
      <trkpt lat="40.80751" lon="41.6663">
        <ele>659.018113</ele>
        <time>2021-11-15T23:12:14.201Z</time>
      </trkpt>
      <trkpt lat="40.80688" lon="41.66683">
        <ele>660.294112</ele>
        <time>2021-11-15T23:12:36.148Z</time>
      </trkpt>
      <trkpt lat="40.80645" lon="41.6674">
        <ele>661.359334</ele>
        <time>2021-11-15T23:12:54.106Z</time>
      </trkpt>
      <trkpt lat="40.7853" lon="41.69998">
        <ele>725.638744</ele>
        <time>2021-11-15T23:29:43.878Z</time>
      </trkpt>
      <trkpt lat="40.7787" lon="41.71919">
        <ele>766.063416</ele>
        <time>2021-11-15T23:38:37.167Z</time>
      </trkpt>
      <trkpt lat="40.77831" lon="41.72017">
        <ele>768.043656</ele>
        <time>2021-11-15T23:39:04.089Z</time>
      </trkpt>
      <trkpt lat="40.77802" lon="41.72071">
        <ele>768.769425</ele>
        <time>2021-11-15T23:39:20.166Z</time>
      </trkpt>
      <trkpt lat="40.77768" lon="41.72107">
        <ele>769.396581</ele>
        <time>2021-11-15T23:39:33.956Z</time>
      </trkpt>
      <trkpt lat="40.77721" lon="41.72128">
        <ele>770.113687</ele>
        <time>2021-11-15T23:39:51.518Z</time>
      </trkpt>
      <trkpt lat="40.77669" lon="41.72122">
        <ele>768.791136</ele>
        <time>2021-11-15T23:40:02.661Z</time>
      </trkpt>
      <trkpt lat="40.77627" lon="41.72113">
        <ele>765.02008</ele>
        <time>2021-11-15T23:40:09.583Z</time>
      </trkpt>
      <trkpt lat="40.77597" lon="41.72092">
        <ele>761.910391</ele>
        <time>2021-11-15T23:40:14.552Z</time>
      </trkpt>
      <trkpt lat="40.77587" lon="41.72086">
        <ele>760.947734</ele>
        <time>2021-11-15T23:40:16.088Z</time>
      </trkpt>
      <trkpt lat="40.77289" lon="41.71893">
        <ele>714.419665</ele>
        <time>2021-11-15T23:40:58.891Z</time>
      </trkpt>
      <trkpt lat="40.77196" lon="41.71782">
        <ele>700.726958</ele>
        <time>2021-11-15T23:41:15.874Z</time>
      </trkpt>
      <trkpt lat="40.77118" lon="41.7164">
        <ele>695.149657</ele>
        <time>2021-11-15T23:41:35.867Z</time>
      </trkpt>
      <trkpt lat="40.77022" lon="41.71397">
        <ele>707.420792</ele>
        <time>2021-11-15T23:42:59.529Z</time>
      </trkpt>
      <trkpt lat="40.76959" lon="41.71184">
        <ele>750.42067</ele>
        <time>2021-11-15T23:46:18.859Z</time>
      </trkpt>
      <trkpt lat="40.76947" lon="41.71158">
        <ele>753.468172</ele>
        <time>2021-11-15T23:46:45.586Z</time>
      </trkpt>
      <trkpt lat="40.76845" lon="41.70745">
        <ele>785.556207</ele>
        <time>2021-11-15T23:49:50.536Z</time>
      </trkpt>
      <trkpt lat="40.76699" lon="41.70098">
        <ele>790.818624</ele>
        <time>2021-11-15T23:52:02.411Z</time>
      </trkpt>
      <trkpt lat="40.76647" lon="41.69942">
        <ele>791.664241</ele>
        <time>2021-11-15T23:52:35.590Z</time>
      </trkpt>
      <trkpt lat="40.76603" lon="41.69849">
        <ele>792.208323</ele>
        <time>2021-11-15T23:52:56.911Z</time>
      </trkpt>
      <trkpt lat="40.76546" lon="41.69752">
        <ele>792.886905</ele>
        <time>2021-11-15T23:53:20.710Z</time>
      </trkpt>
      <trkpt lat="40.76382" lon="41.69565">
        <ele>793.896463</ele>
        <time>2021-11-15T23:54:18.560Z</time>
      </trkpt>
      <trkpt lat="40.76352" lon="41.69526">
        <ele>794.007404</ele>
        <time>2021-11-15T23:54:28.307Z</time>
      </trkpt>
      <trkpt lat="40.74904" lon="41.68011">
        <ele>753.549072</ele>
        <time>2021-11-16T00:00:02.811Z</time>
      </trkpt>
      <trkpt lat="40.74738" lon="41.67978">
        <ele>751.545724</ele>
        <time>2021-11-16T00:00:35.123Z</time>
      </trkpt>
      <trkpt lat="40.72393" lon="41.67236">
        <ele>734.24683</ele>
        <time>2021-11-16T00:09:05.394Z</time>
      </trkpt>
      <trkpt lat="40.72213" lon="41.67195">
        <ele>728.567712</ele>
        <time>2021-11-16T00:09:31.893Z</time>
      </trkpt>
      <trkpt lat="40.72193" lon="41.67183">
        <ele>727.901697</ele>
        <time>2021-11-16T00:09:35.737Z</time>
      </trkpt>
      <trkpt lat="40.72055" lon="41.67156">
        <ele>729.948174</ele>
        <time>2021-11-16T00:10:18.197Z</time>
      </trkpt>
      <trkpt lat="40.72041" lon="41.67153">
        <ele>730.586376</ele>
        <time>2021-11-16T00:10:24.809Z</time>
      </trkpt>
      <trkpt lat="40.71963" lon="41.67138">
        <ele>734.26508</ele>
        <time>2021-11-16T00:11:04.652Z</time>
      </trkpt>
      <trkpt lat="40.71891" lon="41.67139">
        <ele>738.413758</ele>
        <time>2021-11-16T00:11:41.505Z</time>
      </trkpt>
      <trkpt lat="40.71859" lon="41.67148">
        <ele>740.362637</ele>
        <time>2021-11-16T00:11:57.921Z</time>
      </trkpt>
      <trkpt lat="40.71827" lon="41.67163">
        <ele>742.35097</ele>
        <time>2021-11-16T00:12:13.306Z</time>
      </trkpt>
      <trkpt lat="40.71793" lon="41.67188">
        <ele>744.636114</ele>
        <time>2021-11-16T00:12:29.309Z</time>
      </trkpt>
      <trkpt lat="40.71769" lon="41.6723">
        <ele>745.238219</ele>
        <time>2021-11-16T00:12:43.255Z</time>
      </trkpt>
      <trkpt lat="40.71746" lon="41.67287">
        <ele>745.481619</ele>
        <time>2021-11-16T00:12:56.550Z</time>
      </trkpt>
      <trkpt lat="40.71727" lon="41.67362">
        <ele>745.782637</ele>
        <time>2021-11-16T00:13:08.355Z</time>
      </trkpt>
      <trkpt lat="40.71704" lon="41.67534">
        <ele>744.946899</ele>
        <time>2021-11-16T00:13:31.942Z</time>
      </trkpt>
      <trkpt lat="40.71692" lon="41.67561">
        <ele>744.689988</ele>
        <time>2021-11-16T00:13:36.563Z</time>
      </trkpt>
      <trkpt lat="40.71627" lon="41.67642">
        <ele>743.634783</ele>
        <time>2021-11-16T00:13:55.753Z</time>
      </trkpt>
      <trkpt lat="40.71602" lon="41.67684">
        <ele>743.085802</ele>
        <time>2021-11-16T00:14:04.229Z</time>
      </trkpt>
      <trkpt lat="40.71566" lon="41.67768">
        <ele>742.107126</ele>
        <time>2021-11-16T00:14:18.302Z</time>
      </trkpt>
      <trkpt lat="40.71526" lon="41.68011">
        <ele>736.983814</ele>
        <time>2021-11-16T00:14:48.920Z</time>
      </trkpt>
      <trkpt lat="40.7151" lon="41.68046">
        <ele>736.039913</ele>
        <time>2021-11-16T00:14:53.846Z</time>
      </trkpt>
      <trkpt lat="40.71408" lon="41.68072">
        <ele>734.722119</ele>
        <time>2021-11-16T00:15:11.816Z</time>
      </trkpt>
      <trkpt lat="40.71358" lon="41.68056">
        <ele>734.056796</ele>
        <time>2021-11-16T00:15:22.823Z</time>
      </trkpt>
      <trkpt lat="40.71302" lon="41.68054">
        <ele>734.317045</ele>
        <time>2021-11-16T00:15:37.134Z</time>
      </trkpt>
      <trkpt lat="40.71262" lon="41.68024">
        <ele>735.114438</ele>
        <time>2021-11-16T00:15:50.543Z</time>
      </trkpt>
      <trkpt lat="40.71224" lon="41.67933">
        <ele>736.483212</ele>
        <time>2021-11-16T00:16:15.282Z</time>
      </trkpt>
      <trkpt lat="40.71185" lon="41.67874">
        <ele>737.548564</ele>
        <time>2021-11-16T00:16:33.872Z</time>
      </trkpt>
      <trkpt lat="40.7114" lon="41.67853">
        <ele>738.425669</ele>
        <time>2021-11-16T00:16:48.592Z</time>
      </trkpt>
      <trkpt lat="40.7067" lon="41.67722">
        <ele>746.649461</ele>
        <time>2021-11-16T00:19:08.338Z</time>
      </trkpt>
      <trkpt lat="40.7036" lon="41.676">
        <ele>749.480301</ele>
        <time>2021-11-16T00:20:28.409Z</time>
      </trkpt>
      <trkpt lat="40.70186" lon="41.67592">
        <ele>753.732127</ele>
        <time>2021-11-16T00:21:23.940Z</time>
      </trkpt>
      <trkpt lat="40.70095" lon="41.67631">
        <ele>757.539599</ele>
        <time>2021-11-16T00:22:01.387Z</time>
      </trkpt>
      <trkpt lat="40.69894" lon="41.67814">
        <ele>767.484028</ele>
        <time>2021-11-16T00:23:40.502Z</time>
      </trkpt>
      <trkpt lat="40.6977" lon="41.67862">
        <ele>769.943807</ele>
        <time>2021-11-16T00:24:19.670Z</time>
      </trkpt>
      <trkpt lat="40.69685" lon="41.67844">
        <ele>770.876225</ele>
        <time>2021-11-16T00:24:39.041Z</time>
      </trkpt>
      <trkpt lat="40.69471" lon="41.67744">
        <ele>769.386041</ele>
        <time>2021-11-16T00:25:23.779Z</time>
      </trkpt>
      <trkpt lat="40.69379" lon="41.67726">
        <ele>768.826259</ele>
        <time>2021-11-16T00:25:42.246Z</time>
      </trkpt>
      <trkpt lat="40.69201" lon="41.67777">
        <ele>769.227708</ele>
        <time>2021-11-16T00:26:23.186Z</time>
      </trkpt>
      <trkpt lat="40.69106" lon="41.67785">
        <ele>770.88106</ele>
        <time>2021-11-16T00:26:50.854Z</time>
      </trkpt>
      <trkpt lat="40.69025" lon="41.67781">
        <ele>772.987249</ele>
        <time>2021-11-16T00:27:18.037Z</time>
      </trkpt>
      <trkpt lat="40.68972" lon="41.67741">
        <ele>774.806312</ele>
        <time>2021-11-16T00:27:40.241Z</time>
      </trkpt>
      <trkpt lat="40.68916" lon="41.67672">
        <ele>777.665309</ele>
        <time>2021-11-16T00:28:08.865Z</time>
      </trkpt>
      <trkpt lat="40.68782" lon="41.67429">
        <ele>786.065192</ele>
        <time>2021-11-16T00:29:34.516Z</time>
      </trkpt>
      <trkpt lat="40.68663" lon="41.67245">
        <ele>792.030122</ele>
        <time>2021-11-16T00:30:38.425Z</time>
      </trkpt>
      <trkpt lat="40.68584" lon="41.67167">
        <ele>795.565265</ele>
        <time>2021-11-16T00:31:11.908Z</time>
      </trkpt>
      <trkpt lat="40.68515" lon="41.67134">
        <ele>798.376328</ele>
        <time>2021-11-16T00:31:39.223Z</time>
      </trkpt>
      <trkpt lat="40.68328" lon="41.67063">
        <ele>807.911089</ele>
        <time>2021-11-16T00:33:03.258Z</time>
      </trkpt>
      <trkpt lat="40.68083" lon="41.66916">
        <ele>822.2887</ele>
        <time>2021-11-16T00:34:59.225Z</time>
      </trkpt>
      <trkpt lat="40.67853" lon="41.66653">
        <ele>841.053897</ele>
        <time>2021-11-16T00:37:21.786Z</time>
      </trkpt>
      <trkpt lat="40.67693" lon="41.6652">
        <ele>856.311137</ele>
        <time>2021-11-16T00:39:03.235Z</time>
      </trkpt>
      <trkpt lat="40.67589" lon="41.66463">
        <ele>868.653775</ele>
        <time>2021-11-16T00:40:15.517Z</time>
      </trkpt>
      <trkpt lat="40.67547" lon="41.66427">
        <ele>874.119396</ele>
        <time>2021-11-16T00:40:51.980Z</time>
      </trkpt>
      <trkpt lat="40.67525" lon="41.66379">
        <ele>880.57505</ele>
        <time>2021-11-16T00:41:26.352Z</time>
      </trkpt>
      <trkpt lat="40.6748" lon="41.66327">
        <ele>889.455485</ele>
        <time>2021-11-16T00:42:18.649Z</time>
      </trkpt>
      <trkpt lat="40.6743" lon="41.66301">
        <ele>897.553218</ele>
        <time>2021-11-16T00:43:05.330Z</time>
      </trkpt>
      <trkpt lat="40.67338" lon="41.66282">
        <ele>908.597705</ele>
        <time>2021-11-16T00:44:18.116Z</time>
      </trkpt>
      <trkpt lat="40.67241" lon="41.66262">
        <ele>919.272954</ele>
        <time>2021-11-16T00:45:19.165Z</time>
      </trkpt>
      <trkpt lat="40.66907" lon="41.66048">
        <ele>939.695748</ele>
        <time>2021-11-16T00:47:54.615Z</time>
      </trkpt>
      <trkpt lat="40.66844" lon="41.66023">
        <ele>945.394945</ele>
        <time>2021-11-16T00:48:29.777Z</time>
      </trkpt>
      <trkpt lat="40.66783" lon="41.6598">
        <ele>951.375822</ele>
        <time>2021-11-16T00:49:10.519Z</time>
      </trkpt>
      <trkpt lat="40.66736" lon="41.65965">
        <ele>955.68881</ele>
        <time>2021-11-16T00:49:41.557Z</time>
      </trkpt>
      <trkpt lat="40.66705" lon="41.65971">
        <ele>959.156917</ele>
        <time>2021-11-16T00:50:01.612Z</time>
      </trkpt>
      <trkpt lat="40.66667" lon="41.65988">
        <ele>963.572251</ele>
        <time>2021-11-16T00:50:27.543Z</time>
      </trkpt>
      <trkpt lat="40.66579" lon="41.66046">
        <ele>974.559829</ele>
        <time>2021-11-16T00:51:34.367Z</time>
      </trkpt>
      <trkpt lat="40.66526" lon="41.66056">
        <ele>981.111395</ele>
        <time>2021-11-16T00:52:12.404Z</time>
      </trkpt>
      <trkpt lat="40.6642" lon="41.66042">
        <ele>994.404521</ele>
        <time>2021-11-16T00:53:31.137Z</time>
      </trkpt>
      <trkpt lat="40.66376" lon="41.66062">
        <ele>999.622596</ele>
        <time>2021-11-16T00:54:04.875Z</time>
      </trkpt>
      <trkpt lat="40.66346" lon="41.66122">
        <ele>1004.992089</ele>
        <time>2021-11-16T00:54:42.921Z</time>
      </trkpt>
      <trkpt lat="40.66337" lon="41.66202">
        <ele>1010.994594</ele>
        <time>2021-11-16T00:55:20.220Z</time>
      </trkpt>
      <trkpt lat="40.66332" lon="41.66294">
        <ele>1016.234096</ele>
        <time>2021-11-16T00:55:55.401Z</time>
      </trkpt>
      <trkpt lat="40.66328" lon="41.66349">
        <ele>1017.683441</ele>
        <time>2021-11-16T00:56:12.466Z</time>
      </trkpt>
      <trkpt lat="40.66301" lon="41.6643">
        <ele>1020.034309</ele>
        <time>2021-11-16T00:56:35.279Z</time>
      </trkpt>
      <trkpt lat="40.66253" lon="41.66494">
        <ele>1021.448852</ele>
        <time>2021-11-16T00:56:52.777Z</time>
      </trkpt>
      <trkpt lat="40.66227" lon="41.66507">
        <ele>1021.299656</ele>
        <time>2021-11-16T00:56:58.859Z</time>
      </trkpt>
      <trkpt lat="40.66153" lon="41.66509">
        <ele>1020.898625</ele>
        <time>2021-11-16T00:57:13.531Z</time>
      </trkpt>
      <trkpt lat="40.66117" lon="41.66495">
        <ele>1020.696363</ele>
        <time>2021-11-16T00:57:20.461Z</time>
      </trkpt>
      <trkpt lat="40.66006" lon="41.66396">
        <ele>1018.979681</ele>
        <time>2021-11-16T00:57:44.950Z</time>
      </trkpt>
      <trkpt lat="40.65968" lon="41.66377">
        <ele>1018.413741</ele>
        <time>2021-11-16T00:57:52.517Z</time>
      </trkpt>
      <trkpt lat="40.6587" lon="41.66359">
        <ele>1017.959481</ele>
        <time>2021-11-16T00:58:11.373Z</time>
      </trkpt>
      <trkpt lat="40.65781" lon="41.6633">
        <ele>1017.784647</ele>
        <time>2021-11-16T00:58:32.282Z</time>
      </trkpt>
      <trkpt lat="40.65718" lon="41.66306">
        <ele>1018.584703</ele>
        <time>2021-11-16T00:58:50.420Z</time>
      </trkpt>
      <trkpt lat="40.65683" lon="41.66267">
        <ele>1019.286468</ele>
        <time>2021-11-16T00:59:03.612Z</time>
      </trkpt>
      <trkpt lat="40.65658" lon="41.66224">
        <ele>1019.915543</ele>
        <time>2021-11-16T00:59:15.756Z</time>
      </trkpt>
      <trkpt lat="40.65654" lon="41.66207">
        <ele>1020.128705</ele>
        <time>2021-11-16T00:59:20.089Z</time>
      </trkpt>
      <trkpt lat="40.65652" lon="41.6615">
        <ele>1020.643165</ele>
        <time>2021-11-16T00:59:32.996Z</time>
      </trkpt>
      <trkpt lat="40.6566" lon="41.66104">
        <ele>1020.905274</ele>
        <time>2021-11-16T00:59:43.997Z</time>
      </trkpt>
      <trkpt lat="40.65677" lon="41.66057">
        <ele>1021.193916</ele>
        <time>2021-11-16T00:59:55.058Z</time>
      </trkpt>
      <trkpt lat="40.65824" lon="41.6575">
        <ele>1020.631925</ele>
        <time>2021-11-16T01:00:52.288Z</time>
      </trkpt>
      <trkpt lat="40.65818" lon="41.65685">
        <ele>1019.829543</ele>
        <time>2021-11-16T01:01:01.067Z</time>
      </trkpt>
      <trkpt lat="40.65745" lon="41.65519">
        <ele>1017.818982</ele>
        <time>2021-11-16T01:01:26.771Z</time>
      </trkpt>
      <trkpt lat="40.65714" lon="41.65398">
        <ele>1017.674021</ele>
        <time>2021-11-16T01:01:46.391Z</time>
      </trkpt>
      <trkpt lat="40.65711" lon="41.65298">
        <ele>1017.999797</ele>
        <time>2021-11-16T01:02:07.164Z</time>
      </trkpt>
      <trkpt lat="40.6573" lon="41.65233">
        <ele>1019.211035</ele>
        <time>2021-11-16T01:02:24.107Z</time>
      </trkpt>
      <trkpt lat="40.65836" lon="41.65061">
        <ele>1022.331279</ele>
        <time>2021-11-16T01:03:19.044Z</time>
      </trkpt>
      <trkpt lat="40.65849" lon="41.65014">
        <ele>1022.72375</ele>
        <time>2021-11-16T01:03:29.390Z</time>
      </trkpt>
      <trkpt lat="40.65842" lon="41.64971">
        <ele>1023.071596</ele>
        <time>2021-11-16T01:03:37.769Z</time>
      </trkpt>
      <trkpt lat="40.65664" lon="41.64773">
        <ele>1022.361087</ele>
        <time>2021-11-16T01:04:24.096Z</time>
      </trkpt>
      <trkpt lat="40.65539" lon="41.64665">
        <ele>1021.534402</ele>
        <time>2021-11-16T01:04:54.975Z</time>
      </trkpt>
      <trkpt lat="40.655" lon="41.64642">
        <ele>1021.182959</ele>
        <time>2021-11-16T01:05:03.767Z</time>
      </trkpt>
      <trkpt lat="40.65435" lon="41.64619">
        <ele>1020.307247</ele>
        <time>2021-11-16T01:05:16.766Z</time>
      </trkpt>
      <trkpt lat="40.65387" lon="41.64567">
        <ele>1019.498519</ele>
        <time>2021-11-16T01:05:28.013Z</time>
      </trkpt>
      <trkpt lat="40.65354" lon="41.64508">
        <ele>1018.869018</ele>
        <time>2021-11-16T01:05:37.876Z</time>
      </trkpt>
      <trkpt lat="40.65338" lon="41.64412">
        <ele>1018.229951</ele>
        <time>2021-11-16T01:05:51.532Z</time>
      </trkpt>
      <trkpt lat="40.65314" lon="41.64317">
        <ele>1017.572102</ele>
        <time>2021-11-16T01:06:07.109Z</time>
      </trkpt>
      <trkpt lat="40.653" lon="41.64201">
        <ele>1018.960181</ele>
        <time>2021-11-16T01:06:30.893Z</time>
      </trkpt>
      <trkpt lat="40.65309" lon="41.64094">
        <ele>1020.430605</ele>
        <time>2021-11-16T01:06:57.328Z</time>
      </trkpt>
      <trkpt lat="40.65343" lon="41.63969">
        <ele>1022.493665</ele>
        <time>2021-11-16T01:07:31.478Z</time>
      </trkpt>
      <trkpt lat="40.65378" lon="41.6379">
        <ele>1024.640269</ele>
        <time>2021-11-16T01:08:11.218Z</time>
      </trkpt>
      <trkpt lat="40.65381" lon="41.63747">
        <ele>1024.728624</ele>
        <time>2021-11-16T01:08:18.762Z</time>
      </trkpt>
      <trkpt lat="40.65351" lon="41.63612">
        <ele>1025.001156</ele>
        <time>2021-11-16T01:08:41.611Z</time>
      </trkpt>
      <trkpt lat="40.65327" lon="41.63572">
        <ele>1024.874682</ele>
        <time>2021-11-16T01:08:49.385Z</time>
      </trkpt>
      <trkpt lat="40.653" lon="41.63548">
        <ele>1024.768063</ele>
        <time>2021-11-16T01:08:56.136Z</time>
      </trkpt>
      <trkpt lat="40.6526" lon="41.63537">
        <ele>1024.634286</ele>
        <time>2021-11-16T01:09:04.739Z</time>
      </trkpt>
      <trkpt lat="40.65202" lon="41.63539">
        <ele>1024.444332</ele>
        <time>2021-11-16T01:09:17.258Z</time>
      </trkpt>
      <trkpt lat="40.65147" lon="41.63553">
        <ele>1024.19714</ele>
        <time>2021-11-16T01:09:29.558Z</time>
      </trkpt>
      <trkpt lat="40.65092" lon="41.63566">
        <ele>1023.943208</ele>
        <time>2021-11-16T01:09:41.321Z</time>
      </trkpt>
      <trkpt lat="40.65061" lon="41.63562">
        <ele>1023.80133</ele>
        <time>2021-11-16T01:09:47.723Z</time>
      </trkpt>
      <trkpt lat="40.65038" lon="41.6355">
        <ele>1023.688658</ele>
        <time>2021-11-16T01:09:52.700Z</time>
      </trkpt>
      <trkpt lat="40.64955" lon="41.6349">
        <ele>1022.763311</ele>
        <time>2021-11-16T01:10:10.730Z</time>
      </trkpt>
      <trkpt lat="40.6493" lon="41.63484">
        <ele>1022.482157</ele>
        <time>2021-11-16T01:10:15.485Z</time>
      </trkpt>
      <trkpt lat="40.64848" lon="41.63481">
        <ele>1021.628027</ele>
        <time>2021-11-16T01:10:30.793Z</time>
      </trkpt>
      <trkpt lat="40.64812" lon="41.63461">
        <ele>1021.793877</ele>
        <time>2021-11-16T01:10:38.581Z</time>
      </trkpt>
      <trkpt lat="40.64769" lon="41.63424">
        <ele>1022.011879</ele>
        <time>2021-11-16T01:10:49.959Z</time>
      </trkpt>
      <trkpt lat="40.6473" lon="41.63368">
        <ele>1022.256718</ele>
        <time>2021-11-16T01:11:04.869Z</time>
      </trkpt>
      <trkpt lat="40.64644" lon="41.63319">
        <ele>1023.419244</ele>
        <time>2021-11-16T01:11:33.337Z</time>
      </trkpt>
      <trkpt lat="40.64547" lon="41.63272">
        <ele>1025.062995</ele>
        <time>2021-11-16T01:12:04.237Z</time>
      </trkpt>
      <trkpt lat="40.64208" lon="41.63106">
        <ele>1025.239132</ele>
        <time>2021-11-16T01:13:23.633Z</time>
      </trkpt>
      <trkpt lat="40.64174" lon="41.631">
        <ele>1025.140908</ele>
        <time>2021-11-16T01:13:30.924Z</time>
      </trkpt>
      <trkpt lat="40.64089" lon="41.63101">
        <ele>1024.845351</ele>
        <time>2021-11-16T01:13:48.799Z</time>
      </trkpt>
      <trkpt lat="40.64002" lon="41.63088">
        <ele>1024.619416</ele>
        <time>2021-11-16T01:14:06.526Z</time>
      </trkpt>
      <trkpt lat="40.63867" lon="41.63056">
        <ele>1024.747274</ele>
        <time>2021-11-16T01:14:38.057Z</time>
      </trkpt>
      <trkpt lat="40.63754" lon="41.63016">
        <ele>1025.152798</ele>
        <time>2021-11-16T01:15:06.344Z</time>
      </trkpt>
      <trkpt lat="40.63653" lon="41.63003">
        <ele>1025.533839</ele>
        <time>2021-11-16T01:15:30.988Z</time>
      </trkpt>
      <trkpt lat="40.63562" lon="41.63006">
        <ele>1025.643163</ele>
        <time>2021-11-16T01:15:50.369Z</time>
      </trkpt>
      <trkpt lat="40.6347" lon="41.63024">
        <ele>1025.808998</ele>
        <time>2021-11-16T01:16:11.812Z</time>
      </trkpt>
      <trkpt lat="40.63402" lon="41.63055">
        <ele>1026.112973</ele>
        <time>2021-11-16T01:16:30.005Z</time>
      </trkpt>
      <trkpt lat="40.63239" lon="41.63168">
        <ele>1025.915718</ele>
        <time>2021-11-16T01:17:13.217Z</time>
      </trkpt>
      <trkpt lat="40.63158" lon="41.63217">
        <ele>1025.33318</ele>
        <time>2021-11-16T01:17:29.597Z</time>
      </trkpt>
      <trkpt lat="40.63108" lon="41.63232">
        <ele>1024.482027</ele>
        <time>2021-11-16T01:17:38.530Z</time>
      </trkpt>
      <trkpt lat="40.63082" lon="41.63228">
        <ele>1024.047539</ele>
        <time>2021-11-16T01:17:43.012Z</time>
      </trkpt>
      <trkpt lat="40.63061" lon="41.63218">
        <ele>1023.676911</ele>
        <time>2021-11-16T01:17:46.897Z</time>
      </trkpt>
      <trkpt lat="40.63016" lon="41.63169">
        <ele>1022.707948</ele>
        <time>2021-11-16T01:17:57.562Z</time>
      </trkpt>
      <trkpt lat="40.62975" lon="41.6315">
        <ele>1022.386716</ele>
        <time>2021-11-16T01:18:06.010Z</time>
      </trkpt>
      <trkpt lat="40.62879" lon="41.63154">
        <ele>1022.317705</ele>
        <time>2021-11-16T01:18:26.913Z</time>
      </trkpt>
      <trkpt lat="40.62847" lon="41.63149">
        <ele>1022.294552</ele>
        <time>2021-11-16T01:18:34.863Z</time>
      </trkpt>
      <trkpt lat="40.62795" lon="41.63122">
        <ele>1022.388967</ele>
        <time>2021-11-16T01:18:49.130Z</time>
      </trkpt>
      <trkpt lat="40.62731" lon="41.63101">
        <ele>1022.642462</ele>
        <time>2021-11-16T01:19:05.809Z</time>
      </trkpt>
      <trkpt lat="40.62471" lon="41.63086">
        <ele>1022.701388</ele>
        <time>2021-11-16T01:20:03.441Z</time>
      </trkpt>
      <trkpt lat="40.62368" lon="41.63068">
        <ele>1022.156834</ele>
        <time>2021-11-16T01:20:23.690Z</time>
      </trkpt>
      <trkpt lat="40.62251" lon="41.62997">
        <ele>1021.882611</ele>
        <time>2021-11-16T01:20:50.560Z</time>
      </trkpt>
      <trkpt lat="40.62169" lon="41.62966">
        <ele>1022.156963</ele>
        <time>2021-11-16T01:21:11.004Z</time>
      </trkpt>
      <trkpt lat="40.62053" lon="41.62939">
        <ele>1023.246709</ele>
        <time>2021-11-16T01:21:41.678Z</time>
      </trkpt>
      <trkpt lat="40.61984" lon="41.62909">
        <ele>1024.197146</ele>
        <time>2021-11-16T01:22:01.507Z</time>
      </trkpt>
      <trkpt lat="40.61902" lon="41.6281">
        <ele>1026.044177</ele>
        <time>2021-11-16T01:22:34.967Z</time>
      </trkpt>
      <trkpt lat="40.61862" lon="41.62782">
        <ele>1026.870123</ele>
        <time>2021-11-16T01:22:48.973Z</time>
      </trkpt>
      <trkpt lat="40.61832" lon="41.62776">
        <ele>1027.423424</ele>
        <time>2021-11-16T01:22:58.307Z</time>
      </trkpt>
      <trkpt lat="40.61798" lon="41.62781">
        <ele>1027.936115</ele>
        <time>2021-11-16T01:23:08.408Z</time>
      </trkpt>
      <trkpt lat="40.617" lon="41.62812">
        <ele>1027.930083</ele>
        <time>2021-11-16T01:23:33.695Z</time>
      </trkpt>
      <trkpt lat="40.61659" lon="41.62819">
        <ele>1027.927609</ele>
        <time>2021-11-16T01:23:41.743Z</time>
      </trkpt>
      <trkpt lat="40.61628" lon="41.62816">
        <ele>1027.925749</ele>
        <time>2021-11-16T01:23:47.414Z</time>
      </trkpt>
      <trkpt lat="40.61583" lon="41.62795">
        <ele>1026.472615</ele>
        <time>2021-11-16T01:23:55.744Z</time>
      </trkpt>
      <trkpt lat="40.61548" lon="41.62792">
        <ele>1025.391963</ele>
        <time>2021-11-16T01:24:01.645Z</time>
      </trkpt>
      <trkpt lat="40.61517" lon="41.628">
        <ele>1024.41868</ele>
        <time>2021-11-16T01:24:06.738Z</time>
      </trkpt>
      <trkpt lat="40.61415" lon="41.62862">
        <ele>1020.581659</ele>
        <time>2021-11-16T01:24:24.271Z</time>
      </trkpt>
      <trkpt lat="40.61394" lon="41.62866">
        <ele>1019.755613</ele>
        <time>2021-11-16T01:24:27.551Z</time>
      </trkpt>
      <trkpt lat="40.61379" lon="41.6286">
        <ele>1019.145327</ele>
        <time>2021-11-16T01:24:30.015Z</time>
      </trkpt>
      <trkpt lat="40.6135" lon="41.62766">
        <ele>1016.146705</ele>
        <time>2021-11-16T01:24:42.203Z</time>
      </trkpt>
      <trkpt lat="40.61328" lon="41.6275">
        <ele>1015.25126</ele>
        <time>2021-11-16T01:24:46.196Z</time>
      </trkpt>
      <trkpt lat="40.61308" lon="41.6275">
        <ele>1014.775097</ele>
        <time>2021-11-16T01:24:49.381Z</time>
      </trkpt>
      <trkpt lat="40.61282" lon="41.62765">
        <ele>1014.099322</ele>
        <time>2021-11-16T01:24:53.982Z</time>
      </trkpt>
      <trkpt lat="40.61253" lon="41.62766">
        <ele>1013.408649</ele>
        <time>2021-11-16T01:24:58.832Z</time>
      </trkpt>
      <trkpt lat="40.61184" lon="41.62724">
        <ele>1011.598984</ele>
        <time>2021-11-16T01:25:12.284Z</time>
      </trkpt>
      <trkpt lat="40.61162" lon="41.62687">
        <ele>1011.062143</ele>
        <time>2021-11-16T01:25:19.069Z</time>
      </trkpt>
      <trkpt lat="40.61144" lon="41.62671">
        <ele>1011.006938</ele>
        <time>2021-11-16T01:25:23.316Z</time>
      </trkpt>
      <trkpt lat="40.61125" lon="41.62672">
        <ele>1010.958596</ele>
        <time>2021-11-16T01:25:27.052Z</time>
      </trkpt>
      <trkpt lat="40.61108" lon="41.62684">
        <ele>1010.909562</ele>
        <time>2021-11-16T01:25:30.917Z</time>
      </trkpt>
      <trkpt lat="40.61057" lon="41.62755">
        <ele>1010.720915</ele>
        <time>2021-11-16T01:25:46.528Z</time>
      </trkpt>
      <trkpt lat="40.61043" lon="41.62761">
        <ele>1010.683486</ele>
        <time>2021-11-16T01:25:49.903Z</time>
      </trkpt>
      <trkpt lat="40.61032" lon="41.62755">
        <ele>1010.653218</ele>
        <time>2021-11-16T01:25:52.678Z</time>
      </trkpt>
      <trkpt lat="40.61022" lon="41.6274">
        <ele>1011.075728</ele>
        <time>2021-11-16T01:25:56.326Z</time>
      </trkpt>
      <trkpt lat="40.60978" lon="41.62618">
        <ele>1015.17671</ele>
        <time>2021-11-16T01:26:30.986Z</time>
      </trkpt>
      <trkpt lat="40.60953" lon="41.62589">
        <ele>1016.509022</ele>
        <time>2021-11-16T01:26:46.659Z</time>
      </trkpt>
      <trkpt lat="40.60944" lon="41.62569">
        <ele>1017.214943</ele>
        <time>2021-11-16T01:26:55.563Z</time>
      </trkpt>
      <trkpt lat="40.60943" lon="41.62547">
        <ele>1017.922364</ele>
        <time>2021-11-16T01:27:04.006Z</time>
      </trkpt>
      <trkpt lat="40.60934" lon="41.62531">
        <ele>1019.006605</ele>
        <time>2021-11-16T01:27:11.780Z</time>
      </trkpt>
      <trkpt lat="40.60883" lon="41.62497">
        <ele>1023.106144</ele>
        <time>2021-11-16T01:27:43.240Z</time>
      </trkpt>
      <trkpt lat="40.60829" lon="41.62494">
        <ele>1026.982501</ele>
        <time>2021-11-16T01:28:13.764Z</time>
      </trkpt>
      <trkpt lat="40.60805" lon="41.6248">
        <ele>1028.865034</ele>
        <time>2021-11-16T01:28:27.697Z</time>
      </trkpt>
      <trkpt lat="40.60794" lon="41.62455">
        <ele>1030.438354</ele>
        <time>2021-11-16T01:28:38.812Z</time>
      </trkpt>
      <trkpt lat="40.60787" lon="41.62404">
        <ele>1030.077051</ele>
        <time>2021-11-16T01:28:54.595Z</time>
      </trkpt>
      <trkpt lat="40.6078" lon="41.62389">
        <ele>1029.826841</ele>
        <time>2021-11-16T01:28:58.177Z</time>
      </trkpt>
      <trkpt lat="40.60766" lon="41.62379">
        <ele>1029.528734</ele>
        <time>2021-11-16T01:29:01.749Z</time>
      </trkpt>
      <trkpt lat="40.60728" lon="41.62378">
        <ele>1028.817296</ele>
        <time>2021-11-16T01:29:07.951Z</time>
      </trkpt>
      <trkpt lat="40.60705" lon="41.6237">
        <ele>1028.372017</ele>
        <time>2021-11-16T01:29:11.522Z</time>
      </trkpt>
      <trkpt lat="40.60667" lon="41.62344">
        <ele>1027.570482</ele>
        <time>2021-11-16T01:29:17.838Z</time>
      </trkpt>
      <trkpt lat="40.60649" lon="41.6234">
        <ele>1026.929799</ele>
        <time>2021-11-16T01:29:20.440Z</time>
      </trkpt>
      <trkpt lat="40.60594" lon="41.62364">
        <ele>1023.534682</ele>
        <time>2021-11-16T01:29:28.559Z</time>
      </trkpt>
      <trkpt lat="40.60569" lon="41.62364">
        <ele>1022.069745</ele>
        <time>2021-11-16T01:29:32.058Z</time>
      </trkpt>
      <trkpt lat="40.60525" lon="41.62349">
        <ele>1019.406497</ele>
        <time>2021-11-16T01:29:38.569Z</time>
      </trkpt>
      <trkpt lat="40.60445" lon="41.62299">
        <ele>1018.848287</ele>
        <time>2021-11-16T01:29:53.229Z</time>
      </trkpt>
      <trkpt lat="40.60353" lon="41.62211">
        <ele>1023.998002</ele>
        <time>2021-11-16T01:30:43.426Z</time>
      </trkpt>
      <trkpt lat="40.60273" lon="41.62106">
        <ele>1039.237697</ele>
        <time>2021-11-16T01:32:09.740Z</time>
      </trkpt>
      <trkpt lat="40.60232" lon="41.62019">
        <ele>1051.375613</ele>
        <time>2021-11-16T01:33:24.391Z</time>
      </trkpt>
      <trkpt lat="40.60215" lon="41.61942">
        <ele>1059.625572</ele>
        <time>2021-11-16T01:34:28.953Z</time>
      </trkpt>
      <trkpt lat="40.60196" lon="41.619">
        <ele>1064.490874</ele>
        <time>2021-11-16T01:35:00.894Z</time>
      </trkpt>
      <trkpt lat="40.60196" lon="41.61873">
        <ele>1067.177787</ele>
        <time>2021-11-16T01:35:16.312Z</time>
      </trkpt>
      <trkpt lat="40.60207" lon="41.61847">
        <ele>1070.13977</ele>
        <time>2021-11-16T01:35:30.123Z</time>
      </trkpt>
      <trkpt lat="40.6021" lon="41.61817">
        <ele>1073.151006</ele>
        <time>2021-11-16T01:35:46.230Z</time>
      </trkpt>
      <trkpt lat="40.60187" lon="41.61768">
        <ele>1075.845717</ele>
        <time>2021-11-16T01:36:03.734Z</time>
      </trkpt>
      <trkpt lat="40.60162" lon="41.6169">
        <ele>1072.90149</ele>
        <time>2021-11-16T01:36:18.950Z</time>
      </trkpt>
      <trkpt lat="40.60143" lon="41.61674">
        <ele>1071.868589</ele>
        <time>2021-11-16T01:36:22.173Z</time>
      </trkpt>
      <trkpt lat="40.60088" lon="41.61651">
        <ele>1069.225573</ele>
        <time>2021-11-16T01:36:29.906Z</time>
      </trkpt>
      <trkpt lat="40.60066" lon="41.61632">
        <ele>1067.48382</ele>
        <time>2021-11-16T01:36:33.370Z</time>
      </trkpt>
      <trkpt lat="40.60049" lon="41.61578">
        <ele>1062.531169</ele>
        <time>2021-11-16T01:36:39.242Z</time>
      </trkpt>
      <trkpt lat="40.6005" lon="41.61507">
        <ele>1056.514879</ele>
        <time>2021-11-16T01:36:46.452Z</time>
      </trkpt>
      <trkpt lat="40.60044" lon="41.61499">
        <ele>1055.56219</ele>
        <time>2021-11-16T01:36:47.587Z</time>
      </trkpt>
      <trkpt lat="40.60032" lon="41.61504">
        <ele>1054.157773</ele>
        <time>2021-11-16T01:36:49.271Z</time>
      </trkpt>
      <trkpt lat="40.6002" lon="41.61529">
        <ele>1051.65196</ele>
        <time>2021-11-16T01:36:52.306Z</time>
      </trkpt>
      <trkpt lat="40.60018" lon="41.61544">
        <ele>1050.361679</ele>
        <time>2021-11-16T01:36:53.868Z</time>
      </trkpt>
      <trkpt lat="40.60025" lon="41.61644">
        <ele>1044.593347</ele>
        <time>2021-11-16T01:37:04.367Z</time>
      </trkpt>
      <trkpt lat="40.60018" lon="41.61661">
        <ele>1043.648634</ele>
        <time>2021-11-16T01:37:06.480Z</time>
      </trkpt>
      <trkpt lat="40.60007" lon="41.61664">
        <ele>1042.925897</ele>
        <time>2021-11-16T01:37:08.076Z</time>
      </trkpt>
      <trkpt lat="40.59999" lon="41.61654">
        <ele>1042.216279</ele>
        <time>2021-11-16T01:37:09.685Z</time>
      </trkpt>
      <trkpt lat="40.59994" lon="41.61596">
        <ele>1039.364756</ele>
        <time>2021-11-16T01:37:16.467Z</time>
      </trkpt>
      <trkpt lat="40.5998" lon="41.61547">
        <ele>1036.807222</ele>
        <time>2021-11-16T01:37:22.770Z</time>
      </trkpt>
      <trkpt lat="40.59989" lon="41.61487">
        <ele>1035.363366</ele>
        <time>2021-11-16T01:37:30.173Z</time>
      </trkpt>
      <trkpt lat="40.59984" lon="41.6146">
        <ele>1034.720423</ele>
        <time>2021-11-16T01:37:33.515Z</time>
      </trkpt>
      <trkpt lat="40.59969" lon="41.61434">
        <ele>1033.964985</ele>
        <time>2021-11-16T01:37:37.652Z</time>
      </trkpt>
      <trkpt lat="40.59941" lon="41.61408">
        <ele>1032.921121</ele>
        <time>2021-11-16T01:37:43.382Z</time>
      </trkpt>
      <trkpt lat="40.5989" lon="41.61392">
        <ele>1031.323707</ele>
        <time>2021-11-16T01:37:52.217Z</time>
      </trkpt>
      <trkpt lat="40.59874" lon="41.61377">
        <ele>1030.886769</ele>
        <time>2021-11-16T01:37:55.688Z</time>
      </trkpt>
      <trkpt lat="40.59867" lon="41.6136">
        <ele>1030.571537</ele>
        <time>2021-11-16T01:37:58.149Z</time>
      </trkpt>
      <trkpt lat="40.5988" lon="41.61288">
        <ele>1029.365184</ele>
        <time>2021-11-16T01:38:07.971Z</time>
      </trkpt>
      <trkpt lat="40.59876" lon="41.61254">
        <ele>1028.804358</ele>
        <time>2021-11-16T01:38:12.417Z</time>
      </trkpt>
      <trkpt lat="40.59855" lon="41.61212">
        <ele>1027.984634</ele>
        <time>2021-11-16T01:38:19.083Z</time>
      </trkpt>
      <trkpt lat="40.59827" lon="41.6118">
        <ele>1027.238516</ele>
        <time>2021-11-16T01:38:25.719Z</time>
      </trkpt>
      <trkpt lat="40.59802" lon="41.61164">
        <ele>1026.775667</ele>
        <time>2021-11-16T01:38:30.826Z</time>
      </trkpt>
      <trkpt lat="40.59773" lon="41.61156">
        <ele>1026.282281</ele>
        <time>2021-11-16T01:38:36.261Z</time>
      </trkpt>
      <trkpt lat="40.59723" lon="41.61154">
        <ele>1025.449301</ele>
        <time>2021-11-16T01:38:45.314Z</time>
      </trkpt>
      <trkpt lat="40.59637" lon="41.6113">
        <ele>1023.968041</ele>
        <time>2021-11-16T01:39:01.163Z</time>
      </trkpt>
      <trkpt lat="40.59601" lon="41.61128">
        <ele>1023.343765</ele>
        <time>2021-11-16T01:39:07.588Z</time>
      </trkpt>
      <trkpt lat="40.59567" lon="41.61133">
        <ele>1022.751035</ele>
        <time>2021-11-16T01:39:13.698Z</time>
      </trkpt>
      <trkpt lat="40.59471" lon="41.61163">
        <ele>1021.124499</ele>
        <time>2021-11-16T01:39:31.444Z</time>
      </trkpt>
      <trkpt lat="40.59434" lon="41.61163">
        <ele>1020.689761</ele>
        <time>2021-11-16T01:39:38.224Z</time>
      </trkpt>
      <trkpt lat="40.59094" lon="41.61066">
        <ele>1017.479832</ele>
        <time>2021-11-16T01:40:45.623Z</time>
      </trkpt>
      <trkpt lat="40.59002" lon="41.61035">
        <ele>1017.34166</ele>
        <time>2021-11-16T01:41:06.445Z</time>
      </trkpt>
      <trkpt lat="40.58842" lon="41.60967">
        <ele>1017.998772</ele>
        <time>2021-11-16T01:41:47.571Z</time>
      </trkpt>
      <trkpt lat="40.58744" lon="41.60917">
        <ele>1018.633041</ele>
        <time>2021-11-16T01:42:13.922Z</time>
      </trkpt>
      <trkpt lat="40.5864" lon="41.60852">
        <ele>1019.351153</ele>
        <time>2021-11-16T01:42:42.299Z</time>
      </trkpt>
      <trkpt lat="40.58068" lon="41.60441">
        <ele>1022.402855</ele>
        <time>2021-11-16T01:45:19.416Z</time>
      </trkpt>
      <trkpt lat="40.57879" lon="41.60309">
        <ele>1023.47839</ele>
        <time>2021-11-16T01:46:10.852Z</time>
      </trkpt>
      <trkpt lat="40.57428" lon="41.59995">
        <ele>1026.799676</ele>
        <time>2021-11-16T01:48:18.037Z</time>
      </trkpt>
      <trkpt lat="40.56937" lon="41.59652">
        <ele>1030.578462</ele>
        <time>2021-11-16T01:50:36.427Z</time>
      </trkpt>
      <trkpt lat="40.56432" lon="41.59228">
        <ele>1035.549887</ele>
        <time>2021-11-16T01:53:09.909Z</time>
      </trkpt>
      <trkpt lat="40.56348" lon="41.59174">
        <ele>1036.207408</ele>
        <time>2021-11-16T01:53:33.213Z</time>
      </trkpt>
      <trkpt lat="40.56305" lon="41.5916">
        <ele>1036.516727</ele>
        <time>2021-11-16T01:53:44.240Z</time>
      </trkpt>
      <trkpt lat="40.56241" lon="41.5915">
        <ele>1036.981098</ele>
        <time>2021-11-16T01:54:00.422Z</time>
      </trkpt>
      <trkpt lat="40.56218" lon="41.59149">
        <ele>1037.156514</ele>
        <time>2021-11-16T01:54:06.122Z</time>
      </trkpt>
      <trkpt lat="40.56067" lon="41.5914">
        <ele>1038.358298</ele>
        <time>2021-11-16T01:54:44.633Z</time>
      </trkpt>
      <trkpt lat="40.5598" lon="41.59108">
        <ele>1039.245887</ele>
        <time>2021-11-16T01:55:08.256Z</time>
      </trkpt>
      <trkpt lat="40.55918" lon="41.59066">
        <ele>1039.931029</ele>
        <time>2021-11-16T01:55:26.410Z</time>
      </trkpt>
      <trkpt lat="40.55863" lon="41.59004">
        <ele>1040.829353</ele>
        <time>2021-11-16T01:55:45.587Z</time>
      </trkpt>
      <trkpt lat="40.55815" lon="41.58912">
        <ele>1041.904389</ele>
        <time>2021-11-16T01:56:08.849Z</time>
      </trkpt>
      <trkpt lat="40.55776" lon="41.58803">
        <ele>1043.282611</ele>
        <time>2021-11-16T01:56:34.915Z</time>
      </trkpt>
      <trkpt lat="40.55706" lon="41.58489">
        <ele>1047.504898</ele>
        <time>2021-11-16T01:57:46.989Z</time>
      </trkpt>
      <trkpt lat="40.55663" lon="41.58372">
        <ele>1049.431849</ele>
        <time>2021-11-16T01:58:16.672Z</time>
      </trkpt>
      <trkpt lat="40.55617" lon="41.58283">
        <ele>1051.175239</ele>
        <time>2021-11-16T01:58:42.267Z</time>
      </trkpt>
      <trkpt lat="40.55436" lon="41.5809">
        <ele>1055.610065</ele>
        <time>2021-11-16T01:59:53.989Z</time>
      </trkpt>
      <trkpt lat="40.55342" lon="41.57953">
        <ele>1055.746991</ele>
        <time>2021-11-16T02:00:25.659Z</time>
      </trkpt>
      <trkpt lat="40.55284" lon="41.57874">
        <ele>1055.376308</ele>
        <time>2021-11-16T02:00:41.689Z</time>
      </trkpt>
      <trkpt lat="40.55259" lon="41.57848">
        <ele>1055.114685</ele>
        <time>2021-11-16T02:00:47.684Z</time>
      </trkpt>
      <trkpt lat="40.55239" lon="41.57832">
        <ele>1054.919424</ele>
        <time>2021-11-16T02:00:52.120Z</time>
      </trkpt>
      <trkpt lat="40.5508" lon="41.57767">
        <ele>1054.282575</ele>
        <time>2021-11-16T02:01:25.933Z</time>
      </trkpt>
      <trkpt lat="40.55029" lon="41.57734">
        <ele>1054.276088</ele>
        <time>2021-11-16T02:01:39.650Z</time>
      </trkpt>
      <trkpt lat="40.54984" lon="41.5769">
        <ele>1054.442946</ele>
        <time>2021-11-16T02:01:53.707Z</time>
      </trkpt>
      <trkpt lat="40.54855" lon="41.5745">
        <ele>1055.997751</ele>
        <time>2021-11-16T02:02:50.306Z</time>
      </trkpt>
      <trkpt lat="40.54832" lon="41.57398">
        <ele>1056.279004</ele>
        <time>2021-11-16T02:03:01.279Z</time>
      </trkpt>
      <trkpt lat="40.54809" lon="41.57349">
        <ele>1056.548272</ele>
        <time>2021-11-16T02:03:11.831Z</time>
      </trkpt>
      <trkpt lat="40.54767" lon="41.57208">
        <ele>1057.544849</ele>
        <time>2021-11-16T02:03:40.355Z</time>
      </trkpt>
      <trkpt lat="40.54661" lon="41.56772">
        <ele>1061.175936</ele>
        <time>2021-11-16T02:05:14.782Z</time>
      </trkpt>
      <trkpt lat="40.54628" lon="41.5666">
        <ele>1061.906846</ele>
        <time>2021-11-16T02:05:37.074Z</time>
      </trkpt>
      <trkpt lat="40.54605" lon="41.5661">
        <ele>1062.012014</ele>
        <time>2021-11-16T02:05:47.370Z</time>
      </trkpt>
      <trkpt lat="40.54571" lon="41.56554">
        <ele>1062.060774</ele>
        <time>2021-11-16T02:05:59.539Z</time>
      </trkpt>
      <trkpt lat="40.54388" lon="41.56386">
        <ele>1062.455139</ele>
        <time>2021-11-16T02:06:49.404Z</time>
      </trkpt>
      <trkpt lat="40.54319" lon="41.56315">
        <ele>1062.959521</ele>
        <time>2021-11-16T02:07:11.178Z</time>
      </trkpt>
      <trkpt lat="40.54288" lon="41.56271">
        <ele>1063.397418</ele>
        <time>2021-11-16T02:07:23.033Z</time>
      </trkpt>
      <trkpt lat="40.54229" lon="41.56136">
        <ele>1064.573654</ele>
        <time>2021-11-16T02:07:54.911Z</time>
      </trkpt>
      <trkpt lat="40.54214" lon="41.56054">
        <ele>1065.287003</ele>
        <time>2021-11-16T02:08:11.955Z</time>
      </trkpt>
      <trkpt lat="40.5421" lon="41.5598">
        <ele>1065.920116</ele>
        <time>2021-11-16T02:08:26.963Z</time>
      </trkpt>
      <trkpt lat="40.54211" lon="41.55763">
        <ele>1067.827564</ele>
        <time>2021-11-16T02:09:11.000Z</time>
      </trkpt>
      <trkpt lat="40.54205" lon="41.55656">
        <ele>1068.787725</ele>
        <time>2021-11-16T02:09:33.193Z</time>
      </trkpt>
      <trkpt lat="40.54181" lon="41.5555">
        <ele>1069.785317</ele>
        <time>2021-11-16T02:09:56.145Z</time>
      </trkpt>
      <trkpt lat="40.54147" lon="41.55452">
        <ele>1070.688976</ele>
        <time>2021-11-16T02:10:18.242Z</time>
      </trkpt>
      <trkpt lat="40.54126" lon="41.55402">
        <ele>1071.054349</ele>
        <time>2021-11-16T02:10:29.654Z</time>
      </trkpt>
      <trkpt lat="40.54112" lon="41.55372">
        <ele>1071.274586</ele>
        <time>2021-11-16T02:10:36.567Z</time>
      </trkpt>
      <trkpt lat="40.54039" lon="41.55224">
        <ele>1072.337668</ele>
        <time>2021-11-16T02:11:09.623Z</time>
      </trkpt>
      <trkpt lat="40.54009" lon="41.55179">
        <ele>1072.657593</ele>
        <time>2021-11-16T02:11:20.775Z</time>
      </trkpt>
      <trkpt lat="40.53963" lon="41.55108">
        <ele>1073.157837</ele>
        <time>2021-11-16T02:11:38.520Z</time>
      </trkpt>
      <trkpt lat="40.53913" lon="41.55029">
        <ele>1074.096795</ele>
        <time>2021-11-16T02:11:59.405Z</time>
      </trkpt>
      <trkpt lat="40.5387" lon="41.54963">
        <ele>1075.005341</ele>
        <time>2021-11-16T02:12:17.778Z</time>
      </trkpt>
      <trkpt lat="40.53857" lon="41.54943">
        <ele>1075.282007</ele>
        <time>2021-11-16T02:12:23.717Z</time>
      </trkpt>
      <trkpt lat="40.53826" lon="41.54905">
        <ele>1075.877788</ele>
        <time>2021-11-16T02:12:35.882Z</time>
      </trkpt>
      <trkpt lat="40.5378" lon="41.5486">
        <ele>1076.826004</ele>
        <time>2021-11-16T02:12:52.249Z</time>
      </trkpt>
      <trkpt lat="40.53614" lon="41.54724">
        <ele>1080.120945</ele>
        <time>2021-11-16T02:13:49.046Z</time>
      </trkpt>
      <trkpt lat="40.53561" lon="41.54683">
        <ele>1081.166664</ele>
        <time>2021-11-16T02:14:06.612Z</time>
      </trkpt>
      <trkpt lat="40.53511" lon="41.54638">
        <ele>1082.266263</ele>
        <time>2021-11-16T02:14:24.181Z</time>
      </trkpt>
      <trkpt lat="40.53456" lon="41.54574">
        <ele>1083.766898</ele>
        <time>2021-11-16T02:14:46.430Z</time>
      </trkpt>
      <trkpt lat="40.5341" lon="41.545">
        <ele>1085.240459</ele>
        <time>2021-11-16T02:15:08.404Z</time>
      </trkpt>
      <trkpt lat="40.53364" lon="41.5444">
        <ele>1086.866905</ele>
        <time>2021-11-16T02:15:29.204Z</time>
      </trkpt>
      <trkpt lat="40.53325" lon="41.54407">
        <ele>1088.104798</ele>
        <time>2021-11-16T02:15:44.987Z</time>
      </trkpt>
      <trkpt lat="40.53273" lon="41.54371">
        <ele>1089.668905</ele>
        <time>2021-11-16T02:16:04.982Z</time>
      </trkpt>
      <trkpt lat="40.53226" lon="41.54347">
        <ele>1090.707496</ele>
        <time>2021-11-16T02:16:21.520Z</time>
      </trkpt>
      <trkpt lat="40.53194" lon="41.54335">
        <ele>1091.243308</ele>
        <time>2021-11-16T02:16:31.895Z</time>
      </trkpt>
      <trkpt lat="40.53143" lon="41.54305">
        <ele>1092.142998</ele>
        <time>2021-11-16T02:16:48.195Z</time>
      </trkpt>
      <trkpt lat="40.53091" lon="41.54265">
        <ele>1093.110807</ele>
        <time>2021-11-16T02:17:03.837Z</time>
      </trkpt>
      <trkpt lat="40.53046" lon="41.54221">
        <ele>1093.040718</ele>
        <time>2021-11-16T02:17:16.252Z</time>
      </trkpt>
      <trkpt lat="40.52996" lon="41.54163">
        <ele>1092.902993</ele>
        <time>2021-11-16T02:17:30.048Z</time>
      </trkpt>
      <trkpt lat="40.52947" lon="41.54096">
        <ele>1092.813948</ele>
        <time>2021-11-16T02:17:44.517Z</time>
      </trkpt>
      <trkpt lat="40.5289" lon="41.54001">
        <ele>1093.088694</ele>
        <time>2021-11-16T02:18:04.876Z</time>
      </trkpt>
      <trkpt lat="40.52854" lon="41.53898">
        <ele>1093.440341</ele>
        <time>2021-11-16T02:18:26.621Z</time>
      </trkpt>
      <trkpt lat="40.52836" lon="41.53841">
        <ele>1094.062273</ele>
        <time>2021-11-16T02:18:39.242Z</time>
      </trkpt>
      <trkpt lat="40.52788" lon="41.53671">
        <ele>1095.925772</ele>
        <time>2021-11-16T02:19:18.116Z</time>
      </trkpt>
      <trkpt lat="40.52762" lon="41.53577">
        <ele>1097.179127</ele>
        <time>2021-11-16T02:19:39.830Z</time>
      </trkpt>
      <trkpt lat="40.52736" lon="41.53512">
        <ele>1098.102014</ele>
        <time>2021-11-16T02:19:56.163Z</time>
      </trkpt>
      <trkpt lat="40.52701" lon="41.53457">
        <ele>1098.981845</ele>
        <time>2021-11-16T02:20:12.089Z</time>
      </trkpt>
      <trkpt lat="40.52649" lon="41.53409">
        <ele>1099.98464</ele>
        <time>2021-11-16T02:20:30.528Z</time>
      </trkpt>
      <trkpt lat="40.52551" lon="41.53349">
        <ele>1101.664855</ele>
        <time>2021-11-16T02:21:00.931Z</time>
      </trkpt>
      <trkpt lat="40.52515" lon="41.53342">
        <ele>1102.184138</ele>
        <time>2021-11-16T02:21:11.090Z</time>
      </trkpt>
      <trkpt lat="40.52484" lon="41.53346">
        <ele>1102.611167</ele>
        <time>2021-11-16T02:21:19.359Z</time>
      </trkpt>
      <trkpt lat="40.52161" lon="41.53458">
        <ele>1108.461194</ele>
        <time>2021-11-16T02:22:52.398Z</time>
      </trkpt>
      <trkpt lat="40.52133" lon="41.53461">
        <ele>1109.437852</ele>
        <time>2021-11-16T02:23:02.296Z</time>
      </trkpt>
      <trkpt lat="40.52086" lon="41.53447">
        <ele>1111.105289</ele>
        <time>2021-11-16T02:23:20.561Z</time>
      </trkpt>
      <trkpt lat="40.52057" lon="41.53419">
        <ele>1112.3561</ele>
        <time>2021-11-16T02:23:35.740Z</time>
      </trkpt>
      <trkpt lat="40.52002" lon="41.53316">
        <ele>1116.954894</ele>
        <time>2021-11-16T02:24:19.593Z</time>
      </trkpt>
      <trkpt lat="40.51962" lon="41.53258">
        <ele>1119.965679</ele>
        <time>2021-11-16T02:24:44.514Z</time>
      </trkpt>
      <trkpt lat="40.51925" lon="41.5323">
        <ele>1121.988131</ele>
        <time>2021-11-16T02:25:01.808Z</time>
      </trkpt>
      <trkpt lat="40.51835" lon="41.53192">
        <ele>1123.968429</ele>
        <time>2021-11-16T02:25:36.434Z</time>
      </trkpt>
      <trkpt lat="40.51794" lon="41.53165">
        <ele>1124.916088</ele>
        <time>2021-11-16T02:25:48.646Z</time>
      </trkpt>
      <trkpt lat="40.5174" lon="41.53094">
        <ele>1125.01263</ele>
        <time>2021-11-16T02:26:03.193Z</time>
      </trkpt>
      <trkpt lat="40.51694" lon="41.5302">
        <ele>1123.870261</ele>
        <time>2021-11-16T02:26:17.329Z</time>
      </trkpt>
      <trkpt lat="40.51671" lon="41.52981">
        <ele>1123.295182</ele>
        <time>2021-11-16T02:26:24.110Z</time>
      </trkpt>
      <trkpt lat="40.51633" lon="41.52874">
        <ele>1121.417412</ele>
        <time>2021-11-16T02:26:38.471Z</time>
      </trkpt>
      <trkpt lat="40.51594" lon="41.52823">
        <ele>1120.159638</ele>
        <time>2021-11-16T02:26:47.497Z</time>
      </trkpt>
      <trkpt lat="40.51539" lon="41.52786">
        <ele>1118.708353</ele>
        <time>2021-11-16T02:26:58.927Z</time>
      </trkpt>
      <trkpt lat="40.51345" lon="41.5273">
        <ele>1118.642121</ele>
        <time>2021-11-16T02:27:43.094Z</time>
      </trkpt>
      <trkpt lat="40.51323" lon="41.52717">
        <ele>1118.87316</ele>
        <time>2021-11-16T02:27:49.525Z</time>
      </trkpt>
      <trkpt lat="40.51277" lon="41.52667">
        <ele>1119.448364</ele>
        <time>2021-11-16T02:28:05.412Z</time>
      </trkpt>
      <trkpt lat="40.51258" lon="41.52641">
        <ele>1119.708914</ele>
        <time>2021-11-16T02:28:12.557Z</time>
      </trkpt>
      <trkpt lat="40.51233" lon="41.52585">
        <ele>1120.184296</ele>
        <time>2021-11-16T02:28:25.539Z</time>
      </trkpt>
      <trkpt lat="40.51155" lon="41.52366">
        <ele>1124.834989</ele>
        <time>2021-11-16T02:29:19.107Z</time>
      </trkpt>
      <trkpt lat="40.5114" lon="41.5234">
        <ele>1127.796728</ele>
        <time>2021-11-16T02:29:29.772Z</time>
      </trkpt>
      <trkpt lat="40.51095" lon="41.52282">
        <ele>1135.39025</ele>
        <time>2021-11-16T02:30:13.467Z</time>
      </trkpt>
      <trkpt lat="40.51066" lon="41.52253">
        <ele>1139.722821</ele>
        <time>2021-11-16T02:30:42.719Z</time>
      </trkpt>
      <trkpt lat="40.51056" lon="41.52245">
        <ele>1141.077391</ele>
        <time>2021-11-16T02:30:52.128Z</time>
      </trkpt>
      <trkpt lat="40.51015" lon="41.52212">
        <ele>1146.99799</ele>
        <time>2021-11-16T02:31:35.345Z</time>
      </trkpt>
      <trkpt lat="40.50985" lon="41.52197">
        <ele>1151.372903</ele>
        <time>2021-11-16T02:32:05.318Z</time>
      </trkpt>
      <trkpt lat="40.50866" lon="41.52131">
        <ele>1169.290726</ele>
        <time>2021-11-16T02:33:54.849Z</time>
      </trkpt>
      <trkpt lat="40.50785" lon="41.52106">
        <ele>1170.680207</ele>
        <time>2021-11-16T02:34:23.542Z</time>
      </trkpt>
      <trkpt lat="40.50749" lon="41.52082">
        <ele>1170.468441</ele>
        <time>2021-11-16T02:34:30.339Z</time>
      </trkpt>
      <trkpt lat="40.50672" lon="41.52049">
        <ele>1169.454353</ele>
        <time>2021-11-16T02:34:42.309Z</time>
      </trkpt>
      <trkpt lat="40.50634" lon="41.52022">
        <ele>1167.027618</ele>
        <time>2021-11-16T02:34:48.430Z</time>
      </trkpt>
      <trkpt lat="40.50398" lon="41.52094">
        <ele>1155.524353</ele>
        <time>2021-11-16T02:35:24.853Z</time>
      </trkpt>
      <trkpt lat="40.50342" lon="41.52099">
        <ele>1153.389328</ele>
        <time>2021-11-16T02:35:34.825Z</time>
      </trkpt>
      <trkpt lat="40.50312" lon="41.5209">
        <ele>1153.172611</ele>
        <time>2021-11-16T02:35:40.625Z</time>
      </trkpt>
      <trkpt lat="40.50276" lon="41.5207">
        <ele>1153.219418</ele>
        <time>2021-11-16T02:35:48.870Z</time>
      </trkpt>
      <trkpt lat="40.50203" lon="41.52005">
        <ele>1153.324823</ele>
        <time>2021-11-16T02:36:10.808Z</time>
      </trkpt>
      <trkpt lat="40.5017" lon="41.51948">
        <ele>1153.721318</ele>
        <time>2021-11-16T02:36:25.138Z</time>
      </trkpt>
      <trkpt lat="40.5014" lon="41.51847">
        <ele>1154.881346</ele>
        <time>2021-11-16T02:36:46.988Z</time>
      </trkpt>
      <trkpt lat="40.50104" lon="41.51667">
        <ele>1158.032341</ele>
        <time>2021-11-16T02:37:29.413Z</time>
      </trkpt>
      <trkpt lat="40.50087" lon="41.51619">
        <ele>1159.267367</ele>
        <time>2021-11-16T02:37:43.730Z</time>
      </trkpt>
      <trkpt lat="40.50068" lon="41.51598">
        <ele>1160.028652</ele>
        <time>2021-11-16T02:37:53.083Z</time>
      </trkpt>
      <trkpt lat="40.50038" lon="41.5159">
        <ele>1160.967581</ele>
        <time>2021-11-16T02:38:05.200Z</time>
      </trkpt>
      <trkpt lat="40.50001" lon="41.516">
        <ele>1162.125845</ele>
        <time>2021-11-16T02:38:20.331Z</time>
      </trkpt>
      <trkpt lat="40.4989" lon="41.51657">
        <ele>1165.779077</ele>
        <time>2021-11-16T02:39:04.385Z</time>
      </trkpt>
      <trkpt lat="40.49855" lon="41.51659">
        <ele>1166.853106</ele>
        <time>2021-11-16T02:39:14.472Z</time>
      </trkpt>
      <trkpt lat="40.49818" lon="41.5164">
        <ele>1166.489907</ele>
        <time>2021-11-16T02:39:23.740Z</time>
      </trkpt>
      <trkpt lat="40.49787" lon="41.51607">
        <ele>1166.031477</ele>
        <time>2021-11-16T02:39:31.378Z</time>
      </trkpt>
      <trkpt lat="40.49743" lon="41.51533">
        <ele>1165.210425</ele>
        <time>2021-11-16T02:39:43.703Z</time>
      </trkpt>
      <trkpt lat="40.49712" lon="41.51502">
        <ele>1164.817162</ele>
        <time>2021-11-16T02:39:50.354Z</time>
      </trkpt>
      <trkpt lat="40.49659" lon="41.51485">
        <ele>1164.565491</ele>
        <time>2021-11-16T02:39:59.845Z</time>
      </trkpt>
      <trkpt lat="40.49466" lon="41.51494">
        <ele>1165.884938</ele>
        <time>2021-11-16T02:40:46.738Z</time>
      </trkpt>
      <trkpt lat="40.49446" lon="41.51502">
        <ele>1166.398791</ele>
        <time>2021-11-16T02:40:54.050Z</time>
      </trkpt>
      <trkpt lat="40.49366" lon="41.51556">
        <ele>1168.767758</ele>
        <time>2021-11-16T02:41:27.859Z</time>
      </trkpt>
      <trkpt lat="40.49341" lon="41.51566">
        <ele>1170.031673</ele>
        <time>2021-11-16T02:41:38.665Z</time>
      </trkpt>
      <trkpt lat="40.493" lon="41.51564">
        <ele>1172.003467</ele>
        <time>2021-11-16T02:41:55.974Z</time>
      </trkpt>
      <trkpt lat="40.49245" lon="41.51537">
        <ele>1174.781141</ele>
        <time>2021-11-16T02:42:20.962Z</time>
      </trkpt>
      <trkpt lat="40.49213" lon="41.5151">
        <ele>1176.619679</ele>
        <time>2021-11-16T02:42:37.298Z</time>
      </trkpt>
      <trkpt lat="40.4919" lon="41.51472">
        <ele>1178.007405</ele>
        <time>2021-11-16T02:42:52.386Z</time>
      </trkpt>
      <trkpt lat="40.49156" lon="41.5138">
        <ele>1180.66337</ele>
        <time>2021-11-16T02:43:22.673Z</time>
      </trkpt>
      <trkpt lat="40.49145" lon="41.51365">
        <ele>1181.197658</ele>
        <time>2021-11-16T02:43:28.336Z</time>
      </trkpt>
      <trkpt lat="40.4911" lon="41.51333">
        <ele>1182.661071</ele>
        <time>2021-11-16T02:43:41.421Z</time>
      </trkpt>
      <trkpt lat="40.49067" lon="41.51303">
        <ele>1183.290245</ele>
        <time>2021-11-16T02:43:54.837Z</time>
      </trkpt>
      <trkpt lat="40.49063" lon="41.51301">
        <ele>1183.300503</ele>
        <time>2021-11-16T02:43:57.167Z</time>
      </trkpt>
      <trkpt lat="40.49034" lon="41.5128">
        <ele>1183.399213</ele>
        <time>2021-11-16T02:44:04.949Z</time>
      </trkpt>
      <trkpt lat="40.49008" lon="41.51262">
        <ele>1183.482152</ele>
        <time>2021-11-16T02:44:10.976Z</time>
      </trkpt>
      <trkpt lat="40.48991" lon="41.51242">
        <ele>1183.55005</ele>
        <time>2021-11-16T02:44:16.629Z</time>
      </trkpt>
      <trkpt lat="40.48914" lon="41.51109">
        <ele>1183.8292</ele>
        <time>2021-11-16T02:44:41.420Z</time>
      </trkpt>
      <trkpt lat="40.4885" lon="41.51048">
        <ele>1183.954558</ele>
        <time>2021-11-16T02:44:58.896Z</time>
      </trkpt>
      <trkpt lat="40.48727" lon="41.50898">
        <ele>1187.732862</ele>
        <time>2021-11-16T02:45:51.291Z</time>
      </trkpt>
      <trkpt lat="40.48698" lon="41.50854">
        <ele>1188.958539</ele>
        <time>2021-11-16T02:46:09.794Z</time>
      </trkpt>
      <trkpt lat="40.48633" lon="41.50709">
        <ele>1192.886561</ele>
        <time>2021-11-16T02:46:58.955Z</time>
      </trkpt>
      <trkpt lat="40.4861" lon="41.50676">
        <ele>1193.941695</ele>
        <time>2021-11-16T02:47:10.082Z</time>
      </trkpt>
      <trkpt lat="40.48469" lon="41.5053">
        <ele>1193.391576</ele>
        <time>2021-11-16T02:47:46.846Z</time>
      </trkpt>
      <trkpt lat="40.48314" lon="41.5042">
        <ele>1188.32502</ele>
        <time>2021-11-16T02:48:16.111Z</time>
      </trkpt>
      <trkpt lat="40.48223" lon="41.50343">
        <ele>1184.386679</ele>
        <time>2021-11-16T02:48:32.274Z</time>
      </trkpt>
      <trkpt lat="40.48201" lon="41.50335">
        <ele>1183.520709</ele>
        <time>2021-11-16T02:48:35.898Z</time>
      </trkpt>
      <trkpt lat="40.48174" lon="41.50336">
        <ele>1182.482709</ele>
        <time>2021-11-16T02:48:40.274Z</time>
      </trkpt>
      <trkpt lat="40.48155" lon="41.50343">
        <ele>1181.740047</ele>
        <time>2021-11-16T02:48:43.198Z</time>
      </trkpt>
      <trkpt lat="40.48139" lon="41.50351">
        <ele>1181.109107</ele>
        <time>2021-11-16T02:48:46.268Z</time>
      </trkpt>
      <trkpt lat="40.4796" lon="41.50485">
        <ele>1182.03576</ele>
        <time>2021-11-16T02:49:32.088Z</time>
      </trkpt>
      <trkpt lat="40.4792" lon="41.50508">
        <ele>1184.563277</ele>
        <time>2021-11-16T02:49:50.303Z</time>
      </trkpt>
      <trkpt lat="40.47882" lon="41.50525">
        <ele>1186.864399</ele>
        <time>2021-11-16T02:50:09.016Z</time>
      </trkpt>
      <trkpt lat="40.47847" lon="41.50534">
        <ele>1188.960397</ele>
        <time>2021-11-16T02:50:27.960Z</time>
      </trkpt>
      <trkpt lat="40.47775" lon="41.50533">
        <ele>1193.792229</ele>
        <time>2021-11-16T02:51:10.249Z</time>
      </trkpt>
      <trkpt lat="40.47713" lon="41.50515">
        <ele>1198.766944</ele>
        <time>2021-11-16T02:51:48.183Z</time>
      </trkpt>
      <trkpt lat="40.4766" lon="41.50485">
        <ele>1203.281205</ele>
        <time>2021-11-16T02:52:21.028Z</time>
      </trkpt>
      <trkpt lat="40.47567" lon="41.5039">
        <ele>1205.104623</ele>
        <time>2021-11-16T02:53:04.615Z</time>
      </trkpt>
      <trkpt lat="40.47543" lon="41.50354">
        <ele>1204.971729</ele>
        <time>2021-11-16T02:53:10.806Z</time>
      </trkpt>
      <trkpt lat="40.4751" lon="41.50321">
        <ele>1204.819421</ele>
        <time>2021-11-16T02:53:17.003Z</time>
      </trkpt>
      <trkpt lat="40.47449" lon="41.50271">
        <ele>1199.474135</ele>
        <time>2021-11-16T02:53:27.125Z</time>
      </trkpt>
      <trkpt lat="40.47365" lon="41.50213">
        <ele>1191.163242</ele>
        <time>2021-11-16T02:53:40.006Z</time>
      </trkpt>
      <trkpt lat="40.47279" lon="41.50176">
        <ele>1185.094429</ele>
        <time>2021-11-16T02:53:52.513Z</time>
      </trkpt>
      <trkpt lat="40.47192" lon="41.50154">
        <ele>1179.735632</ele>
        <time>2021-11-16T02:54:05.921Z</time>
      </trkpt>
      <trkpt lat="40.47125" lon="41.50147">
        <ele>1177.977608</ele>
        <time>2021-11-16T02:54:17.252Z</time>
      </trkpt>
      <trkpt lat="40.47047" lon="41.50151">
        <ele>1177.449102</ele>
        <time>2021-11-16T02:54:33.069Z</time>
      </trkpt>
      <trkpt lat="40.46972" lon="41.50167">
        <ele>1177.454368</ele>
        <time>2021-11-16T02:54:52.719Z</time>
      </trkpt>
      <trkpt lat="40.46889" lon="41.50197">
        <ele>1179.606301</ele>
        <time>2021-11-16T02:55:18.816Z</time>
      </trkpt>
      <trkpt lat="40.46376" lon="41.50432">
        <ele>1200.037462</ele>
        <time>2021-11-16T02:58:39.135Z</time>
      </trkpt>
      <trkpt lat="40.46291" lon="41.50483">
        <ele>1205.481981</ele>
        <time>2021-11-16T02:59:23.149Z</time>
      </trkpt>
      <trkpt lat="40.4614" lon="41.50604">
        <ele>1221.723515</ele>
        <time>2021-11-16T03:01:12.884Z</time>
      </trkpt>
      <trkpt lat="40.46065" lon="41.50639">
        <ele>1228.329053</ele>
        <time>2021-11-16T03:02:03.292Z</time>
      </trkpt>
      <trkpt lat="40.46012" lon="41.50658">
        <ele>1232.922147</ele>
        <time>2021-11-16T03:02:33.046Z</time>
      </trkpt>
      <trkpt lat="40.45992" lon="41.50659">
        <ele>1234.600915</ele>
        <time>2021-11-16T03:02:42.351Z</time>
      </trkpt>
      <trkpt lat="40.45963" lon="41.50646">
        <ele>1235.305581</ele>
        <time>2021-11-16T03:02:54.786Z</time>
      </trkpt>
      <trkpt lat="40.4591" lon="41.50587">
        <ele>1235.267085</ele>
        <time>2021-11-16T03:03:16.048Z</time>
      </trkpt>
      <trkpt lat="40.45693" lon="41.50252">
        <ele>1227.536255</ele>
        <time>2021-11-16T03:04:09.058Z</time>
      </trkpt>
      <trkpt lat="40.45671" lon="41.50235">
        <ele>1227.221761</ele>
        <time>2021-11-16T03:04:13.628Z</time>
      </trkpt>
      <trkpt lat="40.4564" lon="41.50233">
        <ele>1226.830154</ele>
        <time>2021-11-16T03:04:19.917Z</time>
      </trkpt>
      <trkpt lat="40.4561" lon="41.50247">
        <ele>1226.417184</ele>
        <time>2021-11-16T03:04:27.688Z</time>
      </trkpt>
      <trkpt lat="40.45598" lon="41.50254">
        <ele>1226.262097</ele>
        <time>2021-11-16T03:04:31.038Z</time>
      </trkpt>
      <trkpt lat="40.45565" lon="41.50277">
        <ele>1226.908338</ele>
        <time>2021-11-16T03:04:42.257Z</time>
      </trkpt>
      <trkpt lat="40.45532" lon="41.50292">
        <ele>1228.048526</ele>
        <time>2021-11-16T03:04:54.115Z</time>
      </trkpt>
      <trkpt lat="40.45454" lon="41.50312">
        <ele>1230.572129</ele>
        <time>2021-11-16T03:05:23.672Z</time>
      </trkpt>
      <trkpt lat="40.45403" lon="41.50309">
        <ele>1232.237769</ele>
        <time>2021-11-16T03:05:44.827Z</time>
      </trkpt>
      <trkpt lat="40.45318" lon="41.50279">
        <ele>1235.26172</ele>
        <time>2021-11-16T03:06:14.274Z</time>
      </trkpt>
      <trkpt lat="40.45264" lon="41.50253">
        <ele>1237.206239</ele>
        <time>2021-11-16T03:06:33.567Z</time>
      </trkpt>
      <trkpt lat="40.4524" lon="41.5025">
        <ele>1238.046071</ele>
        <time>2021-11-16T03:06:42.125Z</time>
      </trkpt>
      <trkpt lat="40.45204" lon="41.50265">
        <ele>1240.493011</ele>
        <time>2021-11-16T03:06:56.804Z</time>
      </trkpt>
      <trkpt lat="40.45072" lon="41.50366">
        <ele>1250.34532</ele>
        <time>2021-11-16T03:08:15.190Z</time>
      </trkpt>
      <trkpt lat="40.45033" lon="41.50384">
        <ele>1253.069867</ele>
        <time>2021-11-16T03:08:39.332Z</time>
      </trkpt>
      <trkpt lat="40.44986" lon="41.50391">
        <ele>1256.150793</ele>
        <time>2021-11-16T03:09:04.618Z</time>
      </trkpt>
      <trkpt lat="40.4495" lon="41.5039">
        <ele>1258.446832</ele>
        <time>2021-11-16T03:09:21.518Z</time>
      </trkpt>
      <trkpt lat="40.4492" lon="41.50381">
        <ele>1260.475237</ele>
        <time>2021-11-16T03:09:34.898Z</time>
      </trkpt>
      <trkpt lat="40.44878" lon="41.50352">
        <ele>1261.827494</ele>
        <time>2021-11-16T03:09:51.907Z</time>
      </trkpt>
      <trkpt lat="40.44817" lon="41.50289">
        <ele>1262.92378</ele>
        <time>2021-11-16T03:10:11.100Z</time>
      </trkpt>
      <trkpt lat="40.44799" lon="41.50282">
        <ele>1263.184591</ele>
        <time>2021-11-16T03:10:14.906Z</time>
      </trkpt>
      <trkpt lat="40.44768" lon="41.50287">
        <ele>1263.629186</ele>
        <time>2021-11-16T03:10:21.853Z</time>
      </trkpt>
      <trkpt lat="40.44706" lon="41.50335">
        <ele>1265.789636</ele>
        <time>2021-11-16T03:10:40.736Z</time>
      </trkpt>
      <trkpt lat="40.44657" lon="41.50356">
        <ele>1267.610129</ele>
        <time>2021-11-16T03:10:57.928Z</time>
      </trkpt>
      <trkpt lat="40.44552" lon="41.50359">
        <ele>1272.592574</ele>
        <time>2021-11-16T03:11:45.390Z</time>
      </trkpt>
      <trkpt lat="40.44485" lon="41.50354">
        <ele>1277.900474</ele>
        <time>2021-11-16T03:12:23.495Z</time>
      </trkpt>
      <trkpt lat="40.44425" lon="41.50341">
        <ele>1282.704433</ele>
        <time>2021-11-16T03:12:58.465Z</time>
      </trkpt>
      <trkpt lat="40.4435" lon="41.50314">
        <ele>1287.994681</ele>
        <time>2021-11-16T03:13:41.148Z</time>
      </trkpt>
      <trkpt lat="40.44272" lon="41.5027">
        <ele>1293.414896</ele>
        <time>2021-11-16T03:14:22.740Z</time>
      </trkpt>
      <trkpt lat="40.44183" lon="41.50201">
        <ele>1296.442759</ele>
        <time>2021-11-16T03:15:00.548Z</time>
      </trkpt>
      <trkpt lat="40.44095" lon="41.50117">
        <ele>1297.36456</ele>
        <time>2021-11-16T03:15:23.907Z</time>
      </trkpt>
      <trkpt lat="40.44047" lon="41.50032">
        <ele>1294.253976</ele>
        <time>2021-11-16T03:15:36.848Z</time>
      </trkpt>
      <trkpt lat="40.43948" lon="41.49821">
        <ele>1285.592166</ele>
        <time>2021-11-16T03:16:04.936Z</time>
      </trkpt>
      <trkpt lat="40.43893" lon="41.49736">
        <ele>1281.358072</ele>
        <time>2021-11-16T03:16:17.733Z</time>
      </trkpt>
      <trkpt lat="40.43853" lon="41.49695">
        <ele>1279.983654</ele>
        <time>2021-11-16T03:16:25.799Z</time>
      </trkpt>
      <trkpt lat="40.43803" lon="41.49668">
        <ele>1278.909993</ele>
        <time>2021-11-16T03:16:34.972Z</time>
      </trkpt>
      <trkpt lat="40.43759" lon="41.4966">
        <ele>1278.027773</ele>
        <time>2021-11-16T03:16:43.086Z</time>
      </trkpt>
      <trkpt lat="40.43622" lon="41.49663">
        <ele>1277.458726</ele>
        <time>2021-11-16T03:17:15.476Z</time>
      </trkpt>
      <trkpt lat="40.43572" lon="41.49651">
        <ele>1277.611314</ele>
        <time>2021-11-16T03:17:28.258Z</time>
      </trkpt>
      <trkpt lat="40.43522" lon="41.49621">
        <ele>1277.491043</ele>
        <time>2021-11-16T03:17:40.847Z</time>
      </trkpt>
      <trkpt lat="40.43475" lon="41.49572">
        <ele>1276.818236</ele>
        <time>2021-11-16T03:17:53.199Z</time>
      </trkpt>
      <trkpt lat="40.43419" lon="41.49458">
        <ele>1275.735405</ele>
        <time>2021-11-16T03:18:11.370Z</time>
      </trkpt>
      <trkpt lat="40.43393" lon="41.49435">
        <ele>1276.061988</ele>
        <time>2021-11-16T03:18:16.786Z</time>
      </trkpt>
      <trkpt lat="40.43368" lon="41.49437">
        <ele>1276.322949</ele>
        <time>2021-11-16T03:18:21.481Z</time>
      </trkpt>
      <trkpt lat="40.43282" lon="41.49476">
        <ele>1277.270875</ele>
        <time>2021-11-16T03:18:49.405Z</time>
      </trkpt>
      <trkpt lat="40.43243" lon="41.49481">
        <ele>1277.913539</ele>
        <time>2021-11-16T03:19:03.069Z</time>
      </trkpt>
      <trkpt lat="40.43221" lon="41.4948">
        <ele>1278.636684</ele>
        <time>2021-11-16T03:19:09.932Z</time>
      </trkpt>
      <trkpt lat="40.43209" lon="41.4948">
        <ele>1279.051855</ele>
        <time>2021-11-16T03:19:15.909Z</time>
      </trkpt>
      <trkpt lat="40.4313" lon="41.4945">
        <ele>1281.804349</ele>
        <time>2021-11-16T03:19:48.205Z</time>
      </trkpt>
      <trkpt lat="40.43033" lon="41.49368">
        <ele>1283.507609</ele>
        <time>2021-11-16T03:20:24.759Z</time>
      </trkpt>
      <trkpt lat="40.42962" lon="41.49268">
        <ele>1283.36311</ele>
        <time>2021-11-16T03:20:43.627Z</time>
      </trkpt>
      <trkpt lat="40.42892" lon="41.4921">
        <ele>1283.410441</ele>
        <time>2021-11-16T03:20:58.833Z</time>
      </trkpt>
      <trkpt lat="40.4284" lon="41.49186">
        <ele>1283.463729</ele>
        <time>2021-11-16T03:21:10.696Z</time>
      </trkpt>
      <trkpt lat="40.42642" lon="41.49129">
        <ele>1286.392065</ele>
        <time>2021-11-16T03:22:14.140Z</time>
      </trkpt>
      <trkpt lat="40.42512" lon="41.49059">
        <ele>1287.400977</ele>
        <time>2021-11-16T03:22:52.572Z</time>
      </trkpt>
      <trkpt lat="40.42432" lon="41.48997">
        <ele>1287.146979</ele>
        <time>2021-11-16T03:23:10.773Z</time>
      </trkpt>
      <trkpt lat="40.42337" lon="41.48899">
        <ele>1284.285653</ele>
        <time>2021-11-16T03:23:31.216Z</time>
      </trkpt>
      <trkpt lat="40.42206" lon="41.48816">
        <ele>1279.671746</ele>
        <time>2021-11-16T03:23:54.844Z</time>
      </trkpt>
      <trkpt lat="40.42165" lon="41.48803">
        <ele>1278.206801</ele>
        <time>2021-11-16T03:24:01.511Z</time>
      </trkpt>
      <trkpt lat="40.42024" lon="41.48783">
        <ele>1274.113082</ele>
        <time>2021-11-16T03:24:23.946Z</time>
      </trkpt>
      <trkpt lat="40.41991" lon="41.48782">
        <ele>1273.186903</ele>
        <time>2021-11-16T03:24:29.480Z</time>
      </trkpt>
      <trkpt lat="40.41966" lon="41.48789">
        <ele>1272.503749</ele>
        <time>2021-11-16T03:24:33.820Z</time>
      </trkpt>
      <trkpt lat="40.41864" lon="41.48856">
        <ele>1275.258655</ele>
        <time>2021-11-16T03:25:03.692Z</time>
      </trkpt>
      <trkpt lat="40.4184" lon="41.48882">
        <ele>1276.179623</ele>
        <time>2021-11-16T03:25:16.205Z</time>
      </trkpt>
      <trkpt lat="40.41762" lon="41.48988">
        <ele>1282.765646</ele>
        <time>2021-11-16T03:26:14.098Z</time>
      </trkpt>
      <trkpt lat="40.41713" lon="41.49023">
        <ele>1287.191412</ele>
        <time>2021-11-16T03:26:47.672Z</time>
      </trkpt>
      <trkpt lat="40.41667" lon="41.49036">
        <ele>1290.882923</ele>
        <time>2021-11-16T03:27:14.073Z</time>
      </trkpt>
      <trkpt lat="40.41628" lon="41.4903">
        <ele>1292.435123</ele>
        <time>2021-11-16T03:27:33.827Z</time>
      </trkpt>
      <trkpt lat="40.41595" lon="41.49005">
        <ele>1293.4887</ele>
        <time>2021-11-16T03:27:50.746Z</time>
      </trkpt>
      <trkpt lat="40.41549" lon="41.4891">
        <ele>1295.836068</ele>
        <time>2021-11-16T03:28:15.629Z</time>
      </trkpt>
      <trkpt lat="40.41523" lon="41.4887">
        <ele>1296.117007</ele>
        <time>2021-11-16T03:28:22.727Z</time>
      </trkpt>
      <trkpt lat="40.41451" lon="41.48824">
        <ele>1293.24891</ele>
        <time>2021-11-16T03:28:35.431Z</time>
      </trkpt>
      <trkpt lat="40.41419" lon="41.4881">
        <ele>1292.049994</ele>
        <time>2021-11-16T03:28:40.573Z</time>
      </trkpt>
      <trkpt lat="40.41386" lon="41.48805">
        <ele>1290.875533</ele>
        <time>2021-11-16T03:28:45.571Z</time>
      </trkpt>
      <trkpt lat="40.41329" lon="41.48813">
        <ele>1289.78112</ele>
        <time>2021-11-16T03:28:54.362Z</time>
      </trkpt>
      <trkpt lat="40.41224" lon="41.48917">
        <ele>1288.350321</ele>
        <time>2021-11-16T03:29:20.765Z</time>
      </trkpt>
      <trkpt lat="40.41174" lon="41.48943">
        <ele>1289.383574</ele>
        <time>2021-11-16T03:29:38.698Z</time>
      </trkpt>
      <trkpt lat="40.41095" lon="41.48954">
        <ele>1291.524647</ele>
        <time>2021-11-16T03:30:06.457Z</time>
      </trkpt>
      <trkpt lat="40.41038" lon="41.48949">
        <ele>1293.07516</ele>
        <time>2021-11-16T03:30:26.339Z</time>
      </trkpt>
      <trkpt lat="40.41012" lon="41.4895">
        <ele>1293.901588</ele>
        <time>2021-11-16T03:30:35.364Z</time>
      </trkpt>
      <trkpt lat="40.40975" lon="41.48954">
        <ele>1295.086986</ele>
        <time>2021-11-16T03:30:47.805Z</time>
      </trkpt>
      <trkpt lat="40.40879" lon="41.48966">
        <ele>1298.152608</ele>
        <time>2021-11-16T03:31:20.623Z</time>
      </trkpt>
      <trkpt lat="40.40859" lon="41.48975">
        <ele>1298.856189</ele>
        <time>2021-11-16T03:31:28.360Z</time>
      </trkpt>
      <trkpt lat="40.40799" lon="41.49019">
        <ele>1302.09223</ele>
        <time>2021-11-16T03:31:55.629Z</time>
      </trkpt>
      <trkpt lat="40.40757" lon="41.49031">
        <ele>1304.120632</ele>
        <time>2021-11-16T03:32:15.546Z</time>
      </trkpt>
      <trkpt lat="40.40582" lon="41.49047">
        <ele>1309.843563</ele>
        <time>2021-11-16T03:33:27.891Z</time>
      </trkpt>
      <trkpt lat="40.4051" lon="41.49031">
        <ele>1311.496722</ele>
        <time>2021-11-16T03:33:43.461Z</time>
      </trkpt>
      <trkpt lat="40.40432" lon="41.49004">
        <ele>1308.61777</ele>
        <time>2021-11-16T03:33:56.381Z</time>
      </trkpt>
      <trkpt lat="40.40403" lon="41.49006">
        <ele>1307.601084</ele>
        <time>2021-11-16T03:34:00.628Z</time>
      </trkpt>
      <trkpt lat="40.40376" lon="41.49018">
        <ele>1306.571404</ele>
        <time>2021-11-16T03:34:04.994Z</time>
      </trkpt>
      <trkpt lat="40.40284" lon="41.49096">
        <ele>1305.237926</ele>
        <time>2021-11-16T03:34:22.826Z</time>
      </trkpt>
      <trkpt lat="40.40234" lon="41.49149">
        <ele>1305.335096</ele>
        <time>2021-11-16T03:34:38.569Z</time>
      </trkpt>
      <trkpt lat="40.40216" lon="41.49189">
        <ele>1305.388693</ele>
        <time>2021-11-16T03:34:50.560Z</time>
      </trkpt>
      <trkpt lat="40.402" lon="41.49271">
        <ele>1308.471027</ele>
        <time>2021-11-16T03:35:18.444Z</time>
      </trkpt>
      <trkpt lat="40.40183" lon="41.49322">
        <ele>1310.941367</ele>
        <time>2021-11-16T03:35:39.667Z</time>
      </trkpt>
      <trkpt lat="40.40144" lon="41.49375">
        <ele>1314.233491</ele>
        <time>2021-11-16T03:36:07.955Z</time>
      </trkpt>
      <trkpt lat="40.401" lon="41.49418">
        <ele>1316.699684</ele>
        <time>2021-11-16T03:36:32.954Z</time>
      </trkpt>
      <trkpt lat="40.40082" lon="41.4943">
        <ele>1317.341329</ele>
        <time>2021-11-16T03:36:41.704Z</time>
      </trkpt>
      <trkpt lat="40.40049" lon="41.49442">
        <ele>1318.411761</ele>
        <time>2021-11-16T03:36:54.851Z</time>
      </trkpt>
      <trkpt lat="40.39939" lon="41.49434">
        <ele>1321.673886</ele>
        <time>2021-11-16T03:37:27.053Z</time>
      </trkpt>
      <trkpt lat="40.39904" lon="41.49438">
        <ele>1322.12131</ele>
        <time>2021-11-16T03:37:34.792Z</time>
      </trkpt>
      <trkpt lat="40.3983" lon="41.49467">
        <ele>1323.110006</ele>
        <time>2021-11-16T03:37:52.970Z</time>
      </trkpt>
      <trkpt lat="40.39807" lon="41.49486">
        <ele>1323.454895</ele>
        <time>2021-11-16T03:38:00.588Z</time>
      </trkpt>
      <trkpt lat="40.3979" lon="41.49502">
        <ele>1323.726933</ele>
        <time>2021-11-16T03:38:05.723Z</time>
      </trkpt>
      <trkpt lat="40.39787" lon="41.49505">
        <ele>1323.774588</ele>
        <time>2021-11-16T03:38:07.650Z</time>
      </trkpt>
      <trkpt lat="40.39657" lon="41.49666">
        <ele>1330.881896</ele>
        <time>2021-11-16T03:39:16.985Z</time>
      </trkpt>
      <trkpt lat="40.39623" lon="41.49693">
        <ele>1332.773958</ele>
        <time>2021-11-16T03:39:35.036Z</time>
      </trkpt>
      <trkpt lat="40.39521" lon="41.49766">
        <ele>1338.45998</ele>
        <time>2021-11-16T03:40:25.197Z</time>
      </trkpt>
      <trkpt lat="40.39477" lon="41.49783">
        <ele>1340.3261</ele>
        <time>2021-11-16T03:40:43.437Z</time>
      </trkpt>
      <trkpt lat="40.39427" lon="41.49794">
        <ele>1341.550999</ele>
        <time>2021-11-16T03:41:01.943Z</time>
      </trkpt>
      <trkpt lat="40.39295" lon="41.49793">
        <ele>1344.468235</ele>
        <time>2021-11-16T03:41:39.791Z</time>
      </trkpt>
      <trkpt lat="40.39256" lon="41.49799">
        <ele>1344.846773</ele>
        <time>2021-11-16T03:41:48.795Z</time>
      </trkpt>
      <trkpt lat="40.39173" lon="41.49826">
        <ele>1345.669226</ele>
        <time>2021-11-16T03:42:08.687Z</time>
      </trkpt>
      <trkpt lat="40.39135" lon="41.49832">
        <ele>1346.085303</ele>
        <time>2021-11-16T03:42:17.942Z</time>
      </trkpt>
      <trkpt lat="40.38932" lon="41.49832">
        <ele>1354.538074</ele>
        <time>2021-11-16T03:43:34.722Z</time>
      </trkpt>
      <trkpt lat="40.38861" lon="41.49822">
        <ele>1359.758319</ele>
        <time>2021-11-16T03:44:14.856Z</time>
      </trkpt>
      <trkpt lat="40.38837" lon="41.49813">
        <ele>1361.616473</ele>
        <time>2021-11-16T03:44:29.973Z</time>
      </trkpt>
      <trkpt lat="40.38782" lon="41.49779">
        <ele>1365.929481</ele>
        <time>2021-11-16T03:45:04.734Z</time>
      </trkpt>
      <trkpt lat="40.38697" lon="41.49702">
        <ele>1367.688877</ele>
        <time>2021-11-16T03:45:48.969Z</time>
      </trkpt>
      <trkpt lat="40.38603" lon="41.4956">
        <ele>1363.796649</ele>
        <time>2021-11-16T03:46:11.217Z</time>
      </trkpt>
      <trkpt lat="40.38553" lon="41.49475">
        <ele>1357.809826</ele>
        <time>2021-11-16T03:46:22.305Z</time>
      </trkpt>
      <trkpt lat="40.38532" lon="41.49452">
        <ele>1355.778937</ele>
        <time>2021-11-16T03:46:26.091Z</time>
      </trkpt>
      <trkpt lat="40.38515" lon="41.49446">
        <ele>1354.683281</ele>
        <time>2021-11-16T03:46:28.488Z</time>
      </trkpt>
      <trkpt lat="40.38488" lon="41.4945">
        <ele>1353.011033</ele>
        <time>2021-11-16T03:46:32.233Z</time>
      </trkpt>
      <trkpt lat="40.3847" lon="41.49461">
        <ele>1351.788948</ele>
        <time>2021-11-16T03:46:34.987Z</time>
      </trkpt>
      <trkpt lat="40.38437" lon="41.49503">
        <ele>1348.950126</ele>
        <time>2021-11-16T03:46:41.527Z</time>
      </trkpt>
      <trkpt lat="40.38393" lon="41.49698">
        <ele>1345.564057</ele>
        <time>2021-11-16T03:47:07.340Z</time>
      </trkpt>
      <trkpt lat="40.38381" lon="41.49733">
        <ele>1345.901995</ele>
        <time>2021-11-16T03:47:15.713Z</time>
      </trkpt>
      <trkpt lat="40.38378" lon="41.49742">
        <ele>1345.995377</ele>
        <time>2021-11-16T03:47:18.265Z</time>
      </trkpt>
      <trkpt lat="40.38363" lon="41.49782">
        <ele>1346.392393</ele>
        <time>2021-11-16T03:47:31.669Z</time>
      </trkpt>
      <trkpt lat="40.38342" lon="41.49817">
        <ele>1347.287383</ele>
        <time>2021-11-16T03:47:48.517Z</time>
      </trkpt>
      <trkpt lat="40.38321" lon="41.49843">
        <ele>1349.392826</ele>
        <time>2021-11-16T03:48:04.115Z</time>
      </trkpt>
      <trkpt lat="40.38285" lon="41.49884">
        <ele>1352.89888</ele>
        <time>2021-11-16T03:48:30.575Z</time>
      </trkpt>
      <trkpt lat="40.38259" lon="41.49905">
        <ele>1355.085266</ele>
        <time>2021-11-16T03:48:46.153Z</time>
      </trkpt>
      <trkpt lat="40.38245" lon="41.49915">
        <ele>1356.273017</ele>
        <time>2021-11-16T03:48:55.576Z</time>
      </trkpt>
      <trkpt lat="40.38218" lon="41.49932">
        <ele>1358.424477</ele>
        <time>2021-11-16T03:49:11.176Z</time>
      </trkpt>
      <trkpt lat="40.38177" lon="41.49945">
        <ele>1360.405134</ele>
        <time>2021-11-16T03:49:32.717Z</time>
      </trkpt>
      <trkpt lat="40.38145" lon="41.49945">
        <ele>1361.275977</ele>
        <time>2021-11-16T03:49:46.456Z</time>
      </trkpt>
      <trkpt lat="40.38102" lon="41.4993">
        <ele>1362.487688</ele>
        <time>2021-11-16T03:50:00.901Z</time>
      </trkpt>
      <trkpt lat="40.38072" lon="41.4993">
        <ele>1363.293072</ele>
        <time>2021-11-16T03:50:08.161Z</time>
      </trkpt>
      <trkpt lat="40.38016" lon="41.49948">
        <ele>1364.795539</ele>
        <time>2021-11-16T03:50:19.663Z</time>
      </trkpt>
      <trkpt lat="40.37987" lon="41.49959">
        <ele>1365.384683</ele>
        <time>2021-11-16T03:50:26.375Z</time>
      </trkpt>
      <trkpt lat="40.37913" lon="41.49988">
        <ele>1366.888234</ele>
        <time>2021-11-16T03:50:48.302Z</time>
      </trkpt>
      <trkpt lat="40.37869" lon="41.50022">
        <ele>1367.867795</ele>
        <time>2021-11-16T03:51:05.727Z</time>
      </trkpt>
      <trkpt lat="40.37773" lon="41.50154">
        <ele>1372.744449</ele>
        <time>2021-11-16T03:52:03.348Z</time>
      </trkpt>
      <trkpt lat="40.37745" lon="41.50167">
        <ele>1373.836964</ele>
        <time>2021-11-16T03:52:13.896Z</time>
      </trkpt>
      <trkpt lat="40.37716" lon="41.50167">
        <ele>1374.718416</ele>
        <time>2021-11-16T03:52:23.199Z</time>
      </trkpt>
      <trkpt lat="40.37624" lon="41.50113">
        <ele>1374.274882</ele>
        <time>2021-11-16T03:52:45.498Z</time>
      </trkpt>
      <trkpt lat="40.37485" lon="41.50061">
        <ele>1372.826127</ele>
        <time>2021-11-16T03:53:10.927Z</time>
      </trkpt>
      <trkpt lat="40.37397" lon="41.50039">
        <ele>1371.403823</ele>
        <time>2021-11-16T03:53:26.995Z</time>
      </trkpt>
      <trkpt lat="40.37309" lon="41.50053">
        <ele>1371.081349</ele>
        <time>2021-11-16T03:53:45.307Z</time>
      </trkpt>
      <trkpt lat="40.37246" lon="41.50085">
        <ele>1371.080891</ele>
        <time>2021-11-16T03:54:00.940Z</time>
      </trkpt>
      <trkpt lat="40.37156" lon="41.5014">
        <ele>1371.964672</ele>
        <time>2021-11-16T03:54:25.639Z</time>
      </trkpt>
      <trkpt lat="40.37061" lon="41.50209">
        <ele>1373.728235</ele>
        <time>2021-11-16T03:54:57.377Z</time>
      </trkpt>
      <trkpt lat="40.3698" lon="41.50276">
        <ele>1376.906196</ele>
        <time>2021-11-16T03:55:30.332Z</time>
      </trkpt>
      <trkpt lat="40.36957" lon="41.50305">
        <ele>1378.092109</ele>
        <time>2021-11-16T03:55:42.594Z</time>
      </trkpt>
      <trkpt lat="40.36923" lon="41.50415">
        <ele>1381.531101</ele>
        <time>2021-11-16T03:56:18.991Z</time>
      </trkpt>
      <trkpt lat="40.36892" lon="41.50479">
        <ele>1384.01933</ele>
        <time>2021-11-16T03:56:42.748Z</time>
      </trkpt>
      <trkpt lat="40.36871" lon="41.50505">
        <ele>1385.248403</ele>
        <time>2021-11-16T03:56:54.260Z</time>
      </trkpt>
      <trkpt lat="40.36832" lon="41.50534">
        <ele>1387.152805</ele>
        <time>2021-11-16T03:57:11.531Z</time>
      </trkpt>
      <trkpt lat="40.36778" lon="41.50551">
        <ele>1389.387989</ele>
        <time>2021-11-16T03:57:31.840Z</time>
      </trkpt>
      <trkpt lat="40.36626" lon="41.50571">
        <ele>1395.258122</ele>
        <time>2021-11-16T03:58:28.125Z</time>
      </trkpt>
      <trkpt lat="40.36604" lon="41.50583">
        <ele>1396.482447</ele>
        <time>2021-11-16T03:58:38.063Z</time>
      </trkpt>
      <trkpt lat="40.36588" lon="41.50608">
        <ele>1397.760827</ele>
        <time>2021-11-16T03:58:48.681Z</time>
      </trkpt>
      <trkpt lat="40.36581" lon="41.50637">
        <ele>1398.951393</ele>
        <time>2021-11-16T03:58:58.638Z</time>
      </trkpt>
      <trkpt lat="40.36575" lon="41.50751">
        <ele>1403.397425</ele>
        <time>2021-11-16T03:59:37.141Z</time>
      </trkpt>
      <trkpt lat="40.36558" lon="41.5079">
        <ele>1404.981147</ele>
        <time>2021-11-16T03:59:52.387Z</time>
      </trkpt>
      <trkpt lat="40.36535" lon="41.50812">
        <ele>1406.108816</ele>
        <time>2021-11-16T04:00:04.863Z</time>
      </trkpt>
      <trkpt lat="40.36513" lon="41.50822">
        <ele>1407.026843</ele>
        <time>2021-11-16T04:00:14.904Z</time>
      </trkpt>
      <trkpt lat="40.36367" lon="41.50811">
        <ele>1412.073093</ele>
        <time>2021-11-16T04:01:06.299Z</time>
      </trkpt>
      <trkpt lat="40.36138" lon="41.5081">
        <ele>1416.409884</ele>
        <time>2021-11-16T04:02:10.116Z</time>
      </trkpt>
      <trkpt lat="40.36102" lon="41.50815">
        <ele>1417.138509</ele>
        <time>2021-11-16T04:02:21.012Z</time>
      </trkpt>
      <trkpt lat="40.3607" lon="41.50835">
        <ele>1417.853049</ele>
        <time>2021-11-16T04:02:32.349Z</time>
      </trkpt>
      <trkpt lat="40.36039" lon="41.50868">
        <ele>1418.779369</ele>
        <time>2021-11-16T04:02:45.509Z</time>
      </trkpt>
      <trkpt lat="40.3602" lon="41.50913">
        <ele>1419.970088</ele>
        <time>2021-11-16T04:02:59.415Z</time>
      </trkpt>
      <trkpt lat="40.36002" lon="41.50994">
        <ele>1421.919751</ele>
        <time>2021-11-16T04:03:22.389Z</time>
      </trkpt>
      <trkpt lat="40.35985" lon="41.51032">
        <ele>1422.943351</ele>
        <time>2021-11-16T04:03:33.938Z</time>
      </trkpt>
      <trkpt lat="40.35957" lon="41.51074">
        <ele>1424.104572</ele>
        <time>2021-11-16T04:03:48.215Z</time>
      </trkpt>
      <trkpt lat="40.35911" lon="41.51107">
        <ele>1425.20058</ele>
        <time>2021-11-16T04:04:05.199Z</time>
      </trkpt>
      <trkpt lat="40.35823" lon="41.51114">
        <ele>1427.04012</ele>
        <time>2021-11-16T04:04:29.627Z</time>
      </trkpt>
      <trkpt lat="40.35763" lon="41.51126">
        <ele>1428.825381</ele>
        <time>2021-11-16T04:04:48.587Z</time>
      </trkpt>
      <trkpt lat="40.35715" lon="41.51148">
        <ele>1430.671412</ele>
        <time>2021-11-16T04:05:06.323Z</time>
      </trkpt>
      <trkpt lat="40.35686" lon="41.51168">
        <ele>1431.862465</ele>
        <time>2021-11-16T04:05:19.732Z</time>
      </trkpt>
      <trkpt lat="40.35649" lon="41.51183">
        <ele>1433.24991</ele>
        <time>2021-11-16T04:05:34.592Z</time>
      </trkpt>
      <trkpt lat="40.35632" lon="41.5119">
        <ele>1433.88531</ele>
        <time>2021-11-16T04:05:43.907Z</time>
      </trkpt>
      <trkpt lat="40.3559" lon="41.51191">
        <ele>1435.267395</ele>
        <time>2021-11-16T04:05:59.674Z</time>
      </trkpt>
      <trkpt lat="40.35552" lon="41.51184">
        <ele>1436.473538</ele>
        <time>2021-11-16T04:06:13.986Z</time>
      </trkpt>
      <trkpt lat="40.35514" lon="41.5115">
        <ele>1437.941803</ele>
        <time>2021-11-16T04:06:29.802Z</time>
      </trkpt>
      <trkpt lat="40.35455" lon="41.51082">
        <ele>1440.355205</ele>
        <time>2021-11-16T04:06:54.332Z</time>
      </trkpt>
      <trkpt lat="40.35422" lon="41.51054">
        <ele>1441.440815</ele>
        <time>2021-11-16T04:07:04.639Z</time>
      </trkpt>
      <trkpt lat="40.35378" lon="41.51049">
        <ele>1442.681004</ele>
        <time>2021-11-16T04:07:17.272Z</time>
      </trkpt>
      <trkpt lat="40.35195" lon="41.51069">
        <ele>1449.47187</ele>
        <time>2021-11-16T04:08:29.757Z</time>
      </trkpt>
      <trkpt lat="40.35106" lon="41.51056">
        <ele>1452.865279</ele>
        <time>2021-11-16T04:09:07.653Z</time>
      </trkpt>
      <trkpt lat="40.35036" lon="41.51031">
        <ele>1453.882937</ele>
        <time>2021-11-16T04:09:30.163Z</time>
      </trkpt>
      <trkpt lat="40.34923" lon="41.50932">
        <ele>1455.339582</ele>
        <time>2021-11-16T04:09:58.719Z</time>
      </trkpt>
      <trkpt lat="40.34853" lon="41.50884">
        <ele>1455.662715</ele>
        <time>2021-11-16T04:10:14.415Z</time>
      </trkpt>
      <trkpt lat="40.34815" lon="41.50872">
        <ele>1455.823488</ele>
        <time>2021-11-16T04:10:24.659Z</time>
      </trkpt>
      <trkpt lat="40.34604" lon="41.50843">
        <ele>1462.91881</ele>
        <time>2021-11-16T04:11:44.106Z</time>
      </trkpt>
      <trkpt lat="40.34493" lon="41.50812">
        <ele>1467.091925</ele>
        <time>2021-11-16T04:12:27.675Z</time>
      </trkpt>
      <trkpt lat="40.34456" lon="41.50796">
        <ele>1468.549114</ele>
        <time>2021-11-16T04:12:41.906Z</time>
      </trkpt>
      <trkpt lat="40.34296" lon="41.50688">
        <ele>1472.89509</ele>
        <time>2021-11-16T04:13:39.505Z</time>
      </trkpt>
      <trkpt lat="40.34163" lon="41.50616">
        <ele>1474.074765</ele>
        <time>2021-11-16T04:14:17.275Z</time>
      </trkpt>
      <trkpt lat="40.34069" lon="41.50578">
        <ele>1473.84456</ele>
        <time>2021-11-16T04:14:37.790Z</time>
      </trkpt>
      <trkpt lat="40.33995" lon="41.50559">
        <ele>1473.022502</ele>
        <time>2021-11-16T04:14:51.943Z</time>
      </trkpt>
      <trkpt lat="40.3377" lon="41.50522">
        <ele>1470.155024</ele>
        <time>2021-11-16T04:15:33.168Z</time>
      </trkpt>
      <trkpt lat="40.33731" lon="41.50525">
        <ele>1470.436918</ele>
        <time>2021-11-16T04:15:41.690Z</time>
      </trkpt>
      <trkpt lat="40.33663" lon="41.50554">
        <ele>1471.22919</ele>
        <time>2021-11-16T04:15:59.858Z</time>
      </trkpt>
      <trkpt lat="40.33441" lon="41.50732">
        <ele>1476.357919</ele>
        <time>2021-11-16T04:17:22.954Z</time>
      </trkpt>
      <trkpt lat="40.3308" lon="41.51074">
        <ele>1483.179775</ele>
        <time>2021-11-16T04:19:28.540Z</time>
      </trkpt>
      <trkpt lat="40.32981" lon="41.51189">
        <ele>1485.457721</ele>
        <time>2021-11-16T04:20:05.311Z</time>
      </trkpt>
      <trkpt lat="40.32678" lon="41.51617">
        <ele>1495.368749</ele>
        <time>2021-11-16T04:22:27.610Z</time>
      </trkpt>
      <trkpt lat="40.32573" lon="41.5171">
        <ele>1497.308134</ele>
        <time>2021-11-16T04:23:02.637Z</time>
      </trkpt>
      <trkpt lat="40.32464" lon="41.518">
        <ele>1498.798437</ele>
        <time>2021-11-16T04:23:35.755Z</time>
      </trkpt>
      <trkpt lat="40.32339" lon="41.51946">
        <ele>1500.886593</ele>
        <time>2021-11-16T04:24:21.046Z</time>
      </trkpt>
      <trkpt lat="40.32215" lon="41.52089">
        <ele>1503.895108</ele>
        <time>2021-11-16T04:25:10.284Z</time>
      </trkpt>
      <trkpt lat="40.32185" lon="41.52123">
        <ele>1504.762273</ele>
        <time>2021-11-16T04:25:22.443Z</time>
      </trkpt>
      <trkpt lat="40.3215" lon="41.52162">
        <ele>1505.791534</ele>
        <time>2021-11-16T04:25:36.813Z</time>
      </trkpt>
      <trkpt lat="40.32127" lon="41.52184">
        <ele>1506.447072</ele>
        <time>2021-11-16T04:25:45.989Z</time>
      </trkpt>
      <trkpt lat="40.32112" lon="41.52198">
        <ele>1506.860005</ele>
        <time>2021-11-16T04:25:52.011Z</time>
      </trkpt>
      <trkpt lat="40.32069" lon="41.52225">
        <ele>1507.931126</ele>
        <time>2021-11-16T04:26:07.083Z</time>
      </trkpt>
      <trkpt lat="40.32019" lon="41.52242">
        <ele>1508.901034</ele>
        <time>2021-11-16T04:26:22.886Z</time>
      </trkpt>
      <trkpt lat="40.31682" lon="41.52344">
        <ele>1515.428357</ele>
        <time>2021-11-16T04:28:03.864Z</time>
      </trkpt>
      <trkpt lat="40.31643" lon="41.52364">
        <ele>1516.490634</ele>
        <time>2021-11-16T04:28:16.896Z</time>
      </trkpt>
      <trkpt lat="40.3159" lon="41.52406">
        <ele>1518.07135</ele>
        <time>2021-11-16T04:28:37.075Z</time>
      </trkpt>
      <trkpt lat="40.31553" lon="41.5244">
        <ele>1519.305058</ele>
        <time>2021-11-16T04:28:52.838Z</time>
      </trkpt>
      <trkpt lat="40.31499" lon="41.52489">
        <ele>1522.264675</ele>
        <time>2021-11-16T04:29:17.855Z</time>
      </trkpt>
      <trkpt lat="40.31462" lon="41.52515">
        <ele>1524.147866</ele>
        <time>2021-11-16T04:29:35.647Z</time>
      </trkpt>
      <trkpt lat="40.3139" lon="41.52531">
        <ele>1527.431757</ele>
        <time>2021-11-16T04:30:06.929Z</time>
      </trkpt>
      <trkpt lat="40.31337" lon="41.52535">
        <ele>1529.823457</ele>
        <time>2021-11-16T04:30:29.502Z</time>
      </trkpt>
      <trkpt lat="40.31249" lon="41.52535">
        <ele>1533.796172</ele>
        <time>2021-11-16T04:31:05.004Z</time>
      </trkpt>
      <trkpt lat="40.31174" lon="41.52539">
        <ele>1536.549684</ele>
        <time>2021-11-16T04:31:32.941Z</time>
      </trkpt>
      <trkpt lat="40.31076" lon="41.52547">
        <ele>1539.460426</ele>
        <time>2021-11-16T04:32:05.321Z</time>
      </trkpt>
      <trkpt lat="40.31026" lon="41.52559">
        <ele>1540.927948</ele>
        <time>2021-11-16T04:32:22.158Z</time>
      </trkpt>
      <trkpt lat="40.30906" lon="41.5262">
        <ele>1544.073456</ele>
        <time>2021-11-16T04:33:03.524Z</time>
      </trkpt>
      <trkpt lat="40.30803" lon="41.527">
        <ele>1546.938944</ele>
        <time>2021-11-16T04:33:40.733Z</time>
      </trkpt>
      <trkpt lat="40.30777" lon="41.52734">
        <ele>1547.822353</ele>
        <time>2021-11-16T04:33:52.335Z</time>
      </trkpt>
      <trkpt lat="40.30759" lon="41.52776">
        <ele>1548.701715</ele>
        <time>2021-11-16T04:34:04.088Z</time>
      </trkpt>
      <trkpt lat="40.30725" lon="41.52892">
        <ele>1551.249848</ele>
        <time>2021-11-16T04:34:35.386Z</time>
      </trkpt>
      <trkpt lat="40.30708" lon="41.52929">
        <ele>1552.174046</ele>
        <time>2021-11-16T04:34:46.581Z</time>
      </trkpt>
      <trkpt lat="40.30675" lon="41.52977">
        <ele>1553.574205</ele>
        <time>2021-11-16T04:35:03.766Z</time>
      </trkpt>
      <trkpt lat="40.30503" lon="41.53154">
        <ele>1559.094345</ele>
        <time>2021-11-16T04:36:15.405Z</time>
      </trkpt>
      <trkpt lat="40.30397" lon="41.53253">
        <ele>1561.077343</ele>
        <time>2021-11-16T04:36:51.772Z</time>
      </trkpt>
      <trkpt lat="40.30364" lon="41.53304">
        <ele>1561.851578</ele>
        <time>2021-11-16T04:37:05.237Z</time>
      </trkpt>
      <trkpt lat="40.30322" lon="41.53415">
        <ele>1563.229723</ele>
        <time>2021-11-16T04:37:30.671Z</time>
      </trkpt>
      <trkpt lat="40.30182" lon="41.53757">
        <ele>1568.957455</ele>
        <time>2021-11-16T04:38:59.052Z</time>
      </trkpt>
      <trkpt lat="40.30177" lon="41.53769">
        <ele>1569.224987</ele>
        <time>2021-11-16T04:39:02.632Z</time>
      </trkpt>
      <trkpt lat="40.30045" lon="41.54111">
        <ele>1577.838798</ele>
        <time>2021-11-16T04:40:42.949Z</time>
      </trkpt>
      <trkpt lat="40.29951" lon="41.54355">
        <ele>1585.134729</ele>
        <time>2021-11-16T04:41:58.831Z</time>
      </trkpt>
      <trkpt lat="40.29945" lon="41.54372">
        <ele>1585.678259</ele>
        <time>2021-11-16T04:42:04.882Z</time>
      </trkpt>
      <trkpt lat="40.29905" lon="41.54435">
        <ele>1587.970222</ele>
        <time>2021-11-16T04:42:28.165Z</time>
      </trkpt>
      <trkpt lat="40.29882" lon="41.54457">
        <ele>1589.023432</ele>
        <time>2021-11-16T04:42:38.825Z</time>
      </trkpt>
      <trkpt lat="40.29871" lon="41.54467">
        <ele>1589.524238</ele>
        <time>2021-11-16T04:42:43.933Z</time>
      </trkpt>
      <trkpt lat="40.29861" lon="41.54476">
        <ele>1589.966475</ele>
        <time>2021-11-16T04:42:48.476Z</time>
      </trkpt>
      <trkpt lat="40.29846" lon="41.5449">
        <ele>1590.635186</ele>
        <time>2021-11-16T04:42:54.805Z</time>
      </trkpt>
      <trkpt lat="40.29829" lon="41.54505">
        <ele>1591.369244</ele>
        <time>2021-11-16T04:43:02.504Z</time>
      </trkpt>
      <trkpt lat="40.29787" lon="41.5453">
        <ele>1592.603977</ele>
        <time>2021-11-16T04:43:18.297Z</time>
      </trkpt>
      <trkpt lat="40.29755" lon="41.54542">
        <ele>1593.494027</ele>
        <time>2021-11-16T04:43:29.987Z</time>
      </trkpt>
      <trkpt lat="40.296" lon="41.54578">
        <ele>1597.475463</ele>
        <time>2021-11-16T04:44:18.844Z</time>
      </trkpt>
      <trkpt lat="40.29552" lon="41.546">
        <ele>1598.641443</ele>
        <time>2021-11-16T04:44:34.355Z</time>
      </trkpt>
      <trkpt lat="40.29519" lon="41.54626">
        <ele>1599.520551</ele>
        <time>2021-11-16T04:44:46.598Z</time>
      </trkpt>
      <trkpt lat="40.2947" lon="41.54666">
        <ele>1600.906747</ele>
        <time>2021-11-16T04:45:05.212Z</time>
      </trkpt>
      <trkpt lat="40.29371" lon="41.54742">
        <ele>1603.84745</ele>
        <time>2021-11-16T04:45:42.463Z</time>
      </trkpt>
      <trkpt lat="40.29084" lon="41.54964">
        <ele>1613.225785</ele>
        <time>2021-11-16T04:47:32.426Z</time>
      </trkpt>
      <trkpt lat="40.29061" lon="41.54984">
        <ele>1614.081036</ele>
        <time>2021-11-16T04:47:42.640Z</time>
      </trkpt>
      <trkpt lat="40.28972" lon="41.5506">
        <ele>1618.057107</ele>
        <time>2021-11-16T04:48:22.892Z</time>
      </trkpt>
      <trkpt lat="40.28963" lon="41.55068">
        <ele>1618.48778</ele>
        <time>2021-11-16T04:48:27.075Z</time>
      </trkpt>
      <trkpt lat="40.289" lon="41.55138">
        <ele>1621.811762</ele>
        <time>2021-11-16T04:48:59.050Z</time>
      </trkpt>
      <trkpt lat="40.28666" lon="41.55501">
        <ele>1637.341256</ele>
        <time>2021-11-16T04:51:20.848Z</time>
      </trkpt>
      <trkpt lat="40.2856" lon="41.55615">
        <ele>1643.807349</ele>
        <time>2021-11-16T04:52:20.733Z</time>
      </trkpt>
      <trkpt lat="40.28525" lon="41.55638">
        <ele>1645.676601</ele>
        <time>2021-11-16T04:52:36.847Z</time>
      </trkpt>
      <trkpt lat="40.28427" lon="41.55672">
        <ele>1648.57852</ele>
        <time>2021-11-16T04:53:12.224Z</time>
      </trkpt>
      <trkpt lat="40.28297" lon="41.55707">
        <ele>1651.625256</ele>
        <time>2021-11-16T04:53:50.111Z</time>
      </trkpt>
      <trkpt lat="40.28125" lon="41.55762">
        <ele>1655.324671</ele>
        <time>2021-11-16T04:54:42.776Z</time>
      </trkpt>
      <trkpt lat="40.27987" lon="41.55798">
        <ele>1659.64919</ele>
        <time>2021-11-16T04:55:32.405Z</time>
      </trkpt>
      <trkpt lat="40.27861" lon="41.55816">
        <ele>1665.081872</ele>
        <time>2021-11-16T04:56:21.582Z</time>
      </trkpt>
      <trkpt lat="40.27772" lon="41.55815">
        <ele>1669.092573</ele>
        <time>2021-11-16T04:56:58.981Z</time>
      </trkpt>
      <trkpt lat="40.27658" lon="41.558">
        <ele>1674.60581</ele>
        <time>2021-11-16T04:57:47.769Z</time>
      </trkpt>
      <trkpt lat="40.27543" lon="41.55776">
        <ele>1679.009904</ele>
        <time>2021-11-16T04:58:33.187Z</time>
      </trkpt>
      <trkpt lat="40.27345" lon="41.55719">
        <ele>1685.045289</ele>
        <time>2021-11-16T04:59:38.905Z</time>
      </trkpt>
      <trkpt lat="40.27319" lon="41.55706">
        <ele>1685.792231</ele>
        <time>2021-11-16T04:59:47.938Z</time>
      </trkpt>
      <trkpt lat="40.27251" lon="41.55644">
        <ele>1688.248276</ele>
        <time>2021-11-16T05:00:15.778Z</time>
      </trkpt>
      <trkpt lat="40.27088" lon="41.55538">
        <ele>1694.433313</ele>
        <time>2021-11-16T05:01:22.349Z</time>
      </trkpt>
      <trkpt lat="40.27034" lon="41.5549">
        <ele>1696.642847</ele>
        <time>2021-11-16T05:01:46.157Z</time>
      </trkpt>
      <trkpt lat="40.26838" lon="41.55249">
        <ele>1705.546188</ele>
        <time>2021-11-16T05:03:20.225Z</time>
      </trkpt>
      <trkpt lat="40.26457" lon="41.54873">
        <ele>1724.107905</ele>
        <time>2021-11-16T05:06:17.754Z</time>
      </trkpt>
      <trkpt lat="40.26277" lon="41.54673">
        <ele>1737.550938</ele>
        <time>2021-11-16T05:08:06.798Z</time>
      </trkpt>
      <trkpt lat="40.262" lon="41.5458">
        <ele>1744.108011</ele>
        <time>2021-11-16T05:08:58.211Z</time>
      </trkpt>
      <trkpt lat="40.26176" lon="41.54531">
        <ele>1746.896294</ele>
        <time>2021-11-16T05:09:19.714Z</time>
      </trkpt>
      <trkpt lat="40.26092" lon="41.54228">
        <ele>1759.759619</ele>
        <time>2021-11-16T05:11:06.351Z</time>
      </trkpt>
      <trkpt lat="40.2604" lon="41.54116">
        <ele>1763.927299</ele>
        <time>2021-11-16T05:11:44.320Z</time>
      </trkpt>
      <trkpt lat="40.25996" lon="41.54061">
        <ele>1766.394994</ele>
        <time>2021-11-16T05:12:06.422Z</time>
      </trkpt>
      <trkpt lat="40.25856" lon="41.5395">
        <ele>1772.745605</ele>
        <time>2021-11-16T05:13:07.660Z</time>
      </trkpt>
      <trkpt lat="40.25831" lon="41.53914">
        <ele>1774.600256</ele>
        <time>2021-11-16T05:13:22.540Z</time>
      </trkpt>
      <trkpt lat="40.25772" lon="41.53763">
        <ele>1781.054111</ele>
        <time>2021-11-16T05:14:17.702Z</time>
      </trkpt>
      <trkpt lat="40.25683" lon="41.53591">
        <ele>1790.534199</ele>
        <time>2021-11-16T05:15:30.997Z</time>
      </trkpt>
      <trkpt lat="40.25631" lon="41.53516">
        <ele>1795.686317</ele>
        <time>2021-11-16T05:16:08.878Z</time>
      </trkpt>
      <trkpt lat="40.25561" lon="41.53433">
        <ele>1802.256881</ele>
        <time>2021-11-16T05:16:56.222Z</time>
      </trkpt>
      <trkpt lat="40.25482" lon="41.53314">
        <ele>1811.422001</ele>
        <time>2021-11-16T05:17:59.465Z</time>
      </trkpt>
      <trkpt lat="40.25429" lon="41.53209">
        <ele>1819.034358</ele>
        <time>2021-11-16T05:18:52.265Z</time>
      </trkpt>
      <trkpt lat="40.25358" lon="41.52905">
        <ele>1840.251292</ele>
        <time>2021-11-16T05:21:10.122Z</time>
      </trkpt>
      <trkpt lat="40.25306" lon="41.52781">
        <ele>1850.203743</ele>
        <time>2021-11-16T05:22:14.306Z</time>
      </trkpt>
      <trkpt lat="40.25197" lon="41.52619">
        <ele>1867.254156</ele>
        <time>2021-11-16T05:23:58.874Z</time>
      </trkpt>
      <trkpt lat="40.25181" lon="41.52574">
        <ele>1871.266689</ele>
        <time>2021-11-16T05:24:24.641Z</time>
      </trkpt>
      <trkpt lat="40.25174" lon="41.52525">
        <ele>1875.386387</ele>
        <time>2021-11-16T05:24:50.724Z</time>
      </trkpt>
      <trkpt lat="40.25155" lon="41.52449">
        <ele>1881.943229</ele>
        <time>2021-11-16T05:25:31.937Z</time>
      </trkpt>
      <trkpt lat="40.25118" lon="41.52366">
        <ele>1889.635668</ele>
        <time>2021-11-16T05:26:19.572Z</time>
      </trkpt>
      <trkpt lat="40.25049" lon="41.52266">
        <ele>1896.79905</ele>
        <time>2021-11-16T05:27:17.454Z</time>
      </trkpt>
      <trkpt lat="40.25006" lon="41.52175">
        <ele>1901.792504</ele>
        <time>2021-11-16T05:27:50.767Z</time>
      </trkpt>
      <trkpt lat="40.24964" lon="41.52108">
        <ele>1901.784424</ele>
        <time>2021-11-16T05:28:10.493Z</time>
      </trkpt>
      <trkpt lat="40.24733" lon="41.51694">
        <ele>1901.647261</ele>
        <time>2021-11-16T05:29:27.785Z</time>
      </trkpt>
      <trkpt lat="40.24714" lon="41.51669">
        <ele>1901.621507</ele>
        <time>2021-11-16T05:29:34.307Z</time>
      </trkpt>
      <trkpt lat="40.24579" lon="41.51492">
        <ele>1903.232706</ele>
        <time>2021-11-16T05:30:25.495Z</time>
      </trkpt>
      <trkpt lat="40.24396" lon="41.5123">
        <ele>1906.908668</ele>
        <time>2021-11-16T05:31:38.926Z</time>
      </trkpt>
      <trkpt lat="40.24316" lon="41.51159">
        <ele>1908.742709</ele>
        <time>2021-11-16T05:32:08.104Z</time>
      </trkpt>
      <trkpt lat="40.24256" lon="41.51126">
        <ele>1910.474772</ele>
        <time>2021-11-16T05:32:29.554Z</time>
      </trkpt>
      <trkpt lat="40.2419" lon="41.51103">
        <ele>1912.652821</ele>
        <time>2021-11-16T05:32:53.449Z</time>
      </trkpt>
      <trkpt lat="40.24005" lon="41.51085">
        <ele>1918.934613</ele>
        <time>2021-11-16T05:34:01.693Z</time>
      </trkpt>
      <trkpt lat="40.23931" lon="41.51066">
        <ele>1921.560145</ele>
        <time>2021-11-16T05:34:28.631Z</time>
      </trkpt>
      <trkpt lat="40.23867" lon="41.51032">
        <ele>1923.776428</ele>
        <time>2021-11-16T05:34:52.739Z</time>
      </trkpt>
      <trkpt lat="40.23854" lon="41.51025">
        <ele>1924.226178</ele>
        <time>2021-11-16T05:34:57.583Z</time>
      </trkpt>
      <trkpt lat="40.23814" lon="41.50993">
        <ele>1925.735573</ele>
        <time>2021-11-16T05:35:13.726Z</time>
      </trkpt>
      <trkpt lat="40.23781" lon="41.50954">
        <ele>1927.181164</ele>
        <time>2021-11-16T05:35:29.164Z</time>
      </trkpt>
      <trkpt lat="40.23682" lon="41.50832">
        <ele>1932.971822</ele>
        <time>2021-11-16T05:36:20.213Z</time>
      </trkpt>
      <trkpt lat="40.23346" lon="41.50298">
        <ele>1962.673775</ele>
        <time>2021-11-16T05:40:20.601Z</time>
      </trkpt>
      <trkpt lat="40.23243" lon="41.50097">
        <ele>1972.625581</ele>
        <time>2021-11-16T05:41:40.363Z</time>
      </trkpt>
      <trkpt lat="40.23002" lon="41.49541">
        <ele>1999.75085</ele>
        <time>2021-11-16T05:45:13.067Z</time>
      </trkpt>
      <trkpt lat="40.22847" lon="41.49199">
        <ele>2022.467366</ele>
        <time>2021-11-16T05:47:56.888Z</time>
      </trkpt>
      <trkpt lat="40.22781" lon="41.49037">
        <ele>2033.067013</ele>
        <time>2021-11-16T05:49:10.319Z</time>
      </trkpt>
      <trkpt lat="40.22638" lon="41.48632">
        <ele>2056.620118</ele>
        <time>2021-11-16T05:52:03.177Z</time>
      </trkpt>
      <trkpt lat="40.22442" lon="41.47925">
        <ele>2085.575466</ele>
        <time>2021-11-16T05:56:02.453Z</time>
      </trkpt>
      <trkpt lat="40.2241" lon="41.47832">
        <ele>2090.569855</ele>
        <time>2021-11-16T05:56:38.897Z</time>
      </trkpt>
      <trkpt lat="40.22382" lon="41.47771">
        <ele>2094.074462</ele>
        <time>2021-11-16T05:57:05.793Z</time>
      </trkpt>
      <trkpt lat="40.22326" lon="41.47669">
        <ele>2100.504244</ele>
        <time>2021-11-16T05:57:54.747Z</time>
      </trkpt>
      <trkpt lat="40.22248" lon="41.47574">
        <ele>2107.927431</ele>
        <time>2021-11-16T05:58:48.457Z</time>
      </trkpt>
      <trkpt lat="40.22174" lon="41.47511">
        <ele>2113.104236</ele>
        <time>2021-11-16T05:59:31.161Z</time>
      </trkpt>
      <trkpt lat="40.22098" lon="41.47463">
        <ele>2117.694457</ele>
        <time>2021-11-16T06:00:08.827Z</time>
      </trkpt>
      <trkpt lat="40.22031" lon="41.47442">
        <ele>2119.576906</ele>
        <time>2021-11-16T06:00:34.323Z</time>
      </trkpt>
      <trkpt lat="40.21962" lon="41.47431">
        <ele>2119.865379</ele>
        <time>2021-11-16T06:00:54.417Z</time>
      </trkpt>
      <trkpt lat="40.20472" lon="41.47317">
        <ele>2080.06165</ele>
        <time>2021-11-16T06:05:02.244Z</time>
      </trkpt>
      <trkpt lat="40.20297" lon="41.47298">
        <ele>2077.547245</ele>
        <time>2021-11-16T06:05:35.148Z</time>
      </trkpt>
      <trkpt lat="40.20117" lon="41.47257">
        <ele>2075.834414</ele>
        <time>2021-11-16T06:06:12.014Z</time>
      </trkpt>
      <trkpt lat="40.19953" lon="41.47212">
        <ele>2072.602858</ele>
        <time>2021-11-16T06:06:41.995Z</time>
      </trkpt>
      <trkpt lat="40.19762" lon="41.47122">
        <ele>2066.563991</ele>
        <time>2021-11-16T06:07:14.957Z</time>
      </trkpt>
      <trkpt lat="40.1967" lon="41.47063">
        <ele>2063.397075</ele>
        <time>2021-11-16T06:07:31.535Z</time>
      </trkpt>
      <trkpt lat="40.19546" lon="41.46962">
        <ele>2059.21802</ele>
        <time>2021-11-16T06:07:55.759Z</time>
      </trkpt>
      <trkpt lat="40.19305" lon="41.46752">
        <ele>2052.23678</ele>
        <time>2021-11-16T06:08:45.449Z</time>
      </trkpt>
      <trkpt lat="40.19068" lon="41.46545">
        <ele>2046.152068</ele>
        <time>2021-11-16T06:09:34.786Z</time>
      </trkpt>
      <trkpt lat="40.18913" lon="41.46406">
        <ele>2042.670342</ele>
        <time>2021-11-16T06:10:08.775Z</time>
      </trkpt>
      <trkpt lat="40.18603" lon="41.46104">
        <ele>2035.098417</ele>
        <time>2021-11-16T06:11:17.109Z</time>
      </trkpt>
      <trkpt lat="40.18523" lon="41.45996">
        <ele>2032.344655</ele>
        <time>2021-11-16T06:11:36.726Z</time>
      </trkpt>
      <trkpt lat="40.18317" lon="41.45668">
        <ele>2023.483573</ele>
        <time>2021-11-16T06:12:30.850Z</time>
      </trkpt>
      <trkpt lat="40.18219" lon="41.45493">
        <ele>2018.840678</ele>
        <time>2021-11-16T06:12:58.430Z</time>
      </trkpt>
      <trkpt lat="40.18082" lon="41.45186">
        <ele>2011.696847</ele>
        <time>2021-11-16T06:13:44.040Z</time>
      </trkpt>
      <trkpt lat="40.17768" lon="41.44452">
        <ele>1997.274686</ele>
        <time>2021-11-16T06:15:35.032Z</time>
      </trkpt>
      <trkpt lat="40.17655" lon="41.44202">
        <ele>1993.641313</ele>
        <time>2021-11-16T06:16:14.956Z</time>
      </trkpt>
      <trkpt lat="40.17569" lon="41.44051">
        <ele>1992.099201</ele>
        <time>2021-11-16T06:16:42.959Z</time>
      </trkpt>
      <trkpt lat="40.17473" lon="41.43938">
        <ele>1991.399626</ele>
        <time>2021-11-16T06:17:09.775Z</time>
      </trkpt>
      <trkpt lat="40.174" lon="41.43873">
        <ele>1990.758483</ele>
        <time>2021-11-16T06:17:27.945Z</time>
      </trkpt>
      <trkpt lat="40.17247" lon="41.4377">
        <ele>1989.208727</ele>
        <time>2021-11-16T06:18:01.346Z</time>
      </trkpt>
      <trkpt lat="40.17136" lon="41.43721">
        <ele>1987.890205</ele>
        <time>2021-11-16T06:18:23.414Z</time>
      </trkpt>
      <trkpt lat="40.16235" lon="41.43422">
        <ele>1976.025967</ele>
        <time>2021-11-16T06:21:18.304Z</time>
      </trkpt>
      <trkpt lat="40.1617" lon="41.434">
        <ele>1974.550866</ele>
        <time>2021-11-16T06:21:30.144Z</time>
      </trkpt>
      <trkpt lat="40.15844" lon="41.43289">
        <ele>1964.75481</ele>
        <time>2021-11-16T06:22:26.093Z</time>
      </trkpt>
      <trkpt lat="40.1575" lon="41.43263">
        <ele>1961.196493</ele>
        <time>2021-11-16T06:22:40.864Z</time>
      </trkpt>
      <trkpt lat="40.15658" lon="41.43255">
        <ele>1958.134126</ele>
        <time>2021-11-16T06:22:55.290Z</time>
      </trkpt>
      <trkpt lat="40.15572" lon="41.43262">
        <ele>1955.327181</ele>
        <time>2021-11-16T06:23:09.642Z</time>
      </trkpt>
      <trkpt lat="40.15504" lon="41.43281">
        <ele>1954.349329</ele>
        <time>2021-11-16T06:23:22.470Z</time>
      </trkpt>
      <trkpt lat="40.15414" lon="41.43318">
        <ele>1953.27554</ele>
        <time>2021-11-16T06:23:41.601Z</time>
      </trkpt>
      <trkpt lat="40.15261" lon="41.43422">
        <ele>1951.729316</ele>
        <time>2021-11-16T06:24:14.546Z</time>
      </trkpt>
      <trkpt lat="40.1522" lon="41.43442">
        <ele>1951.438133</ele>
        <time>2021-11-16T06:24:23.379Z</time>
      </trkpt>
      <trkpt lat="40.1521" lon="41.43447">
        <ele>1951.427074</ele>
        <time>2021-11-16T06:24:25.889Z</time>
      </trkpt>
      <trkpt lat="40.15143" lon="41.43464">
        <ele>1951.357111</ele>
        <time>2021-11-16T06:24:41.698Z</time>
      </trkpt>
      <trkpt lat="40.15077" lon="41.43464">
        <ele>1951.289125</ele>
        <time>2021-11-16T06:24:56.420Z</time>
      </trkpt>
      <trkpt lat="40.15013" lon="41.43455">
        <ele>1950.010697</ele>
        <time>2021-11-16T06:25:11.556Z</time>
      </trkpt>
      <trkpt lat="40.14425" lon="41.43281">
        <ele>1931.419469</ele>
        <time>2021-11-16T06:26:48.961Z</time>
      </trkpt>
      <trkpt lat="40.14335" lon="41.43243">
        <ele>1928.614465</ele>
        <time>2021-11-16T06:27:04.401Z</time>
      </trkpt>
      <trkpt lat="40.14162" lon="41.43134">
        <ele>1924.526837</ele>
        <time>2021-11-16T06:27:38.078Z</time>
      </trkpt>
      <trkpt lat="40.13919" lon="41.42991">
        <ele>1919.907446</ele>
        <time>2021-11-16T06:28:26.266Z</time>
      </trkpt>
      <trkpt lat="40.13741" lon="41.42863">
        <ele>1916.17361</ele>
        <time>2021-11-16T06:29:02.359Z</time>
      </trkpt>
      <trkpt lat="40.1363" lon="41.42764">
        <ele>1913.669272</ele>
        <time>2021-11-16T06:29:26.108Z</time>
      </trkpt>
      <trkpt lat="40.13377" lon="41.4256">
        <ele>1908.354262</ele>
        <time>2021-11-16T06:30:19.288Z</time>
      </trkpt>
      <trkpt lat="40.13224" lon="41.4245">
        <ele>1905.377522</ele>
        <time>2021-11-16T06:30:51.015Z</time>
      </trkpt>
      <trkpt lat="40.13093" lon="41.42363">
        <ele>1902.583994</ele>
        <time>2021-11-16T06:31:16.996Z</time>
      </trkpt>
      <trkpt lat="40.12948" lon="41.4228">
        <ele>1899.451122</ele>
        <time>2021-11-16T06:31:44.834Z</time>
      </trkpt>
      <trkpt lat="40.1285" lon="41.42241">
        <ele>1897.484435</ele>
        <time>2021-11-16T06:32:02.973Z</time>
      </trkpt>
      <trkpt lat="40.12652" lon="41.42178">
        <ele>1893.665759</ele>
        <time>2021-11-16T06:32:39.011Z</time>
      </trkpt>
      <trkpt lat="40.12351" lon="41.42076">
        <ele>1888.000543</ele>
        <time>2021-11-16T06:33:34.747Z</time>
      </trkpt>
      <trkpt lat="40.12277" lon="41.42023">
        <ele>1886.359793</ele>
        <time>2021-11-16T06:33:49.612Z</time>
      </trkpt>
      <trkpt lat="40.1222" lon="41.41972">
        <ele>1884.998655</ele>
        <time>2021-11-16T06:34:01.689Z</time>
      </trkpt>
      <trkpt lat="40.12153" lon="41.41888">
        <ele>1883.123927</ele>
        <time>2021-11-16T06:34:17.902Z</time>
      </trkpt>
      <trkpt lat="40.11926" lon="41.41561">
        <ele>1876.447262</ele>
        <time>2021-11-16T06:35:17.401Z</time>
      </trkpt>
      <trkpt lat="40.1163" lon="41.41151">
        <ele>1868.50674</ele>
        <time>2021-11-16T06:36:34.034Z</time>
      </trkpt>
      <trkpt lat="40.11577" lon="41.41044">
        <ele>1867.386687</ele>
        <time>2021-11-16T06:36:52.492Z</time>
      </trkpt>
      <trkpt lat="40.1155" lon="41.40968">
        <ele>1866.713147</ele>
        <time>2021-11-16T06:37:04.955Z</time>
      </trkpt>
      <trkpt lat="40.11489" lon="41.40756">
        <ele>1865.523189</ele>
        <time>2021-11-16T06:37:39.466Z</time>
      </trkpt>
      <trkpt lat="40.10805" lon="41.38328">
        <ele>1862.636385</ele>
        <time>2021-11-16T06:44:49.029Z</time>
      </trkpt>
      <trkpt lat="40.10741" lon="41.38125">
        <ele>1862.497933</ele>
        <time>2021-11-16T06:45:27.958Z</time>
      </trkpt>
      <trkpt lat="40.10663" lon="41.3794">
        <ele>1861.453952</ele>
        <time>2021-11-16T06:45:59.888Z</time>
      </trkpt>
      <trkpt lat="40.10574" lon="41.37791">
        <ele>1860.301264</ele>
        <time>2021-11-16T06:46:27.348Z</time>
      </trkpt>
      <trkpt lat="40.10509" lon="41.37704">
        <ele>1859.640622</ele>
        <time>2021-11-16T06:46:46.262Z</time>
      </trkpt>
      <trkpt lat="40.10433" lon="41.37623">
        <ele>1859.46968</ele>
        <time>2021-11-16T06:47:08.008Z</time>
      </trkpt>
      <trkpt lat="40.10304" lon="41.37516">
        <ele>1858.731702</ele>
        <time>2021-11-16T06:47:41.826Z</time>
      </trkpt>
      <trkpt lat="40.10185" lon="41.37444">
        <ele>1857.075152</ele>
        <time>2021-11-16T06:48:06.343Z</time>
      </trkpt>
      <trkpt lat="40.09521" lon="41.37117">
        <ele>1832.6952</ele>
        <time>2021-11-16T06:50:00.142Z</time>
      </trkpt>
      <trkpt lat="40.09446" lon="41.37079">
        <ele>1830.419152</ele>
        <time>2021-11-16T06:50:12.947Z</time>
      </trkpt>
      <trkpt lat="40.09116" lon="41.36912">
        <ele>1822.452717</ele>
        <time>2021-11-16T06:51:14.303Z</time>
      </trkpt>
      <trkpt lat="40.07283" lon="41.35987">
        <ele>1791.058301</ele>
        <time>2021-11-16T06:57:11.810Z</time>
      </trkpt>
      <trkpt lat="40.0667" lon="41.35668">
        <ele>1783.461718</ele>
        <time>2021-11-16T06:59:17.337Z</time>
      </trkpt>
      <trkpt lat="40.06588" lon="41.35617">
        <ele>1782.885449</ele>
        <time>2021-11-16T06:59:36.091Z</time>
      </trkpt>
      <trkpt lat="40.06512" lon="41.35569">
        <ele>1782.351308</ele>
        <time>2021-11-16T06:59:53.148Z</time>
      </trkpt>
      <trkpt lat="40.06481" lon="41.35549">
        <ele>1782.08097</ele>
        <time>2021-11-16T07:00:00.022Z</time>
      </trkpt>
      <trkpt lat="40.06416" lon="41.35508">
        <ele>1781.505989</ele>
        <time>2021-11-16T07:00:14.383Z</time>
      </trkpt>
      <trkpt lat="40.06135" lon="41.35292">
        <ele>1778.740395</ele>
        <time>2021-11-16T07:01:17.857Z</time>
      </trkpt>
      <trkpt lat="40.05839" lon="41.35007">
        <ele>1775.974332</ele>
        <time>2021-11-16T07:02:32.350Z</time>
      </trkpt>
      <trkpt lat="40.05494" lon="41.34675">
        <ele>1771.225124</ele>
        <time>2021-11-16T07:03:52.648Z</time>
      </trkpt>
      <trkpt lat="40.03118" lon="41.32429">
        <ele>1761.3954</ele>
        <time>2021-11-16T07:14:10.991Z</time>
      </trkpt>
      <trkpt lat="40.0309" lon="41.32045">
        <ele>1760.44341</ele>
        <time>2021-11-16T07:15:12.979Z</time>
      </trkpt>
      <trkpt lat="40.03091" lon="41.32009">
        <ele>1760.359511</ele>
        <time>2021-11-16T07:15:18.781Z</time>
      </trkpt>
      <trkpt lat="40.03109" lon="41.3194">
        <ele>1760.329739</ele>
        <time>2021-11-16T07:15:30.865Z</time>
      </trkpt>
      <trkpt lat="40.0311" lon="41.31903">
        <ele>1760.338948</ele>
        <time>2021-11-16T07:15:37.106Z</time>
      </trkpt>
      <trkpt lat="40.03055" lon="41.31499">
        <ele>1760.630679</ele>
        <time>2021-11-16T07:16:48.766Z</time>
      </trkpt>
      <trkpt lat="40.03045" lon="41.31437">
        <ele>1760.608628</ele>
        <time>2021-11-16T07:16:59.552Z</time>
      </trkpt>
      <trkpt lat="40.03016" lon="41.31445">
        <ele>1760.594992</ele>
        <time>2021-11-16T07:17:06.422Z</time>
      </trkpt>
      <trkpt lat="40.0295" lon="41.31445">
        <ele>1760.5651</ele>
        <time>2021-11-16T07:17:21.283Z</time>
      </trkpt>
      <trkpt lat="40.0256" lon="41.31404">
        <ele>1759.72834</ele>
        <time>2021-11-16T07:18:48.563Z</time>
      </trkpt>
      <trkpt lat="40.0248" lon="41.31384">
        <ele>1759.597486</ele>
        <time>2021-11-16T07:19:06.989Z</time>
      </trkpt>
      <trkpt lat="40.02464" lon="41.31375">
        <ele>1759.568846</ele>
        <time>2021-11-16T07:19:11.032Z</time>
      </trkpt>
      <trkpt lat="40.02338" lon="41.31256">
        <ele>1759.395479</ele>
        <time>2021-11-16T07:19:46.545Z</time>
      </trkpt>
      <trkpt lat="40.02141" lon="41.31093">
        <ele>1759.145359</ele>
        <time>2021-11-16T07:20:39.740Z</time>
      </trkpt>
      <trkpt lat="40.02098" lon="41.31066">
        <ele>1759.059148</ele>
        <time>2021-11-16T07:20:50.492Z</time>
      </trkpt>
      <trkpt lat="40.01782" lon="41.3101">
        <ele>1758.186288</ele>
        <time>2021-11-16T07:22:00.660Z</time>
      </trkpt>
      <trkpt lat="40.01543" lon="41.31011">
        <ele>1758.008981</ele>
        <time>2021-11-16T07:22:55.422Z</time>
      </trkpt>
      <trkpt lat="40.01023" lon="41.30834">
        <ele>1757.878959</ele>
        <time>2021-11-16T07:24:59.612Z</time>
      </trkpt>
      <trkpt lat="40.00988" lon="41.3083">
        <ele>1757.848704</ele>
        <time>2021-11-16T07:25:07.852Z</time>
      </trkpt>
      <trkpt lat="40.00686" lon="41.30904">
        <ele>1757.496959</ele>
        <time>2021-11-16T07:26:17.709Z</time>
      </trkpt>
      <trkpt lat="40.00478" lon="41.30871">
        <ele>1757.272834</ele>
        <time>2021-11-16T07:27:04.928Z</time>
      </trkpt>
      <trkpt lat="40.00433" lon="41.30857">
        <ele>1757.273799</ele>
        <time>2021-11-16T07:27:15.735Z</time>
      </trkpt>
      <trkpt lat="40.00235" lon="41.30692">
        <ele>1757.284611</ele>
        <time>2021-11-16T07:28:10.776Z</time>
      </trkpt>
      <trkpt lat="40.0004" lon="41.30627">
        <ele>1756.921765</ele>
        <time>2021-11-16T07:28:55.620Z</time>
      </trkpt>
      <trkpt lat="40" lon="41.3062">
        <ele>1756.870472</ele>
        <time>2021-11-16T07:29:04.552Z</time>
      </trkpt>
      <trkpt lat="39.99968" lon="41.30624">
        <ele>1756.84298</ele>
        <time>2021-11-16T07:29:11.721Z</time>
      </trkpt>
      <trkpt lat="39.99786" lon="41.30703">
        <ele>1756.803927</ele>
        <time>2021-11-16T07:29:56.158Z</time>
      </trkpt>
      <trkpt lat="39.99463" lon="41.3069">
        <ele>1757.219998</ele>
        <time>2021-11-16T07:31:13.266Z</time>
      </trkpt>
      <trkpt lat="39.9943" lon="41.30694">
        <ele>1757.220925</ele>
        <time>2021-11-16T07:31:21.066Z</time>
      </trkpt>
      <trkpt lat="39.9903" lon="41.30571">
        <ele>1757.268439</ele>
        <time>2021-11-16T07:32:51.897Z</time>
      </trkpt>
      <trkpt lat="39.97713" lon="41.30136">
        <ele>1759.109714</ele>
        <time>2021-11-16T07:38:01.492Z</time>
      </trkpt>
      <trkpt lat="39.96392" lon="41.29711">
        <ele>1761.453876</ele>
        <time>2021-11-16T07:43:12.925Z</time>
      </trkpt>
      <trkpt lat="39.96226" lon="41.29657">
        <ele>1762.483508</ele>
        <time>2021-11-16T07:43:55.192Z</time>
      </trkpt>
      <trkpt lat="39.96048" lon="41.29599">
        <ele>1764.228119</ele>
        <time>2021-11-16T07:44:43.279Z</time>
      </trkpt>
      <trkpt lat="39.95953" lon="41.29566">
        <ele>1765.19364</ele>
        <time>2021-11-16T07:45:09.733Z</time>
      </trkpt>
      <trkpt lat="39.95873" lon="41.2954">
        <ele>1765.959052</ele>
        <time>2021-11-16T07:45:31.012Z</time>
      </trkpt>
      <trkpt lat="39.95805" lon="41.29519">
        <ele>1766.588498</ele>
        <time>2021-11-16T07:45:48.841Z</time>
      </trkpt>
      <trkpt lat="39.95728" lon="41.29496">
        <ele>1767.265594</ele>
        <time>2021-11-16T07:46:08.866Z</time>
      </trkpt>
      <trkpt lat="39.95672" lon="41.29476">
        <ele>1767.765906</ele>
        <time>2021-11-16T07:46:23.510Z</time>
      </trkpt>
      <trkpt lat="39.95269" lon="41.29348">
        <ele>1773.122643</ele>
        <time>2021-11-16T07:48:17.123Z</time>
      </trkpt>
      <trkpt lat="39.95169" lon="41.29308">
        <ele>1774.744762</ele>
        <time>2021-11-16T07:48:47.723Z</time>
      </trkpt>
      <trkpt lat="39.95072" lon="41.29254">
        <ele>1776.330179</ele>
        <time>2021-11-16T07:49:17.265Z</time>
      </trkpt>
      <trkpt lat="39.95071" lon="41.29253">
        <ele>1776.346556</ele>
        <time>2021-11-16T07:49:17.864Z</time>
      </trkpt>
      <trkpt lat="39.95066" lon="41.2925">
        <ele>1776.437981</ele>
        <time>2021-11-16T07:49:19.498Z</time>
      </trkpt>
      <trkpt lat="39.95052" lon="41.29242">
        <ele>1776.658123</ele>
        <time>2021-11-16T07:49:23.711Z</time>
      </trkpt>
      <trkpt lat="39.95049" lon="41.29247">
        <ele>1776.730704</ele>
        <time>2021-11-16T07:49:24.974Z</time>
      </trkpt>
      <trkpt lat="39.95047" lon="41.29251">
        <ele>1776.788303</ele>
        <time>2021-11-16T07:49:26.007Z</time>
      </trkpt>
      <trkpt lat="39.95044" lon="41.2926">
        <ele>1776.895289</ele>
        <time>2021-11-16T07:49:28.181Z</time>
      </trkpt>
      <trkpt lat="39.95043" lon="41.29264">
        <ele>1776.945895</ele>
        <time>2021-11-16T07:49:29.069Z</time>
      </trkpt>
      <trkpt lat="39.95043" lon="41.2927">
        <ele>1777.013451</ele>
        <time>2021-11-16T07:49:30.321Z</time>
      </trkpt>
      <trkpt lat="39.95037" lon="41.29282">
        <ele>1777.177376</ele>
        <time>2021-11-16T07:49:33.552Z</time>
      </trkpt>
      <trkpt lat="39.95024" lon="41.29306">
        <ele>1777.506063</ele>
        <time>2021-11-16T07:49:39.865Z</time>
      </trkpt>
      <trkpt lat="39.95009" lon="41.29297">
        <ele>1777.760756</ele>
        <time>2021-11-16T07:49:44.689Z</time>
      </trkpt>
      <trkpt lat="39.94964" lon="41.29282">
        <ele>1778.438602</ele>
        <time>2021-11-16T07:49:57.267Z</time>
      </trkpt>
      <trkpt lat="39.94815" lon="41.29224">
        <ele>1780.753186</ele>
        <time>2021-11-16T07:50:41.104Z</time>
      </trkpt>
      <trkpt lat="39.94777" lon="41.29211">
        <ele>1781.395441</ele>
        <time>2021-11-16T07:50:52.417Z</time>
      </trkpt>
      <trkpt lat="39.94774" lon="41.2921">
        <ele>1781.45618</ele>
        <time>2021-11-16T07:50:53.785Z</time>
      </trkpt>
      <trkpt lat="39.94676" lon="41.29174">
        <ele>1783.104973</ele>
        <time>2021-11-16T07:51:22.791Z</time>
      </trkpt>
      <trkpt lat="39.9461" lon="41.29154">
        <ele>1784.199211</ele>
        <time>2021-11-16T07:51:42.333Z</time>
      </trkpt>
      <trkpt lat="39.94495" lon="41.29118">
        <ele>1786.123832</ele>
        <time>2021-11-16T07:52:16.149Z</time>
      </trkpt>
      <trkpt lat="39.94414" lon="41.29091">
        <ele>1787.622426</ele>
        <time>2021-11-16T07:52:40.540Z</time>
      </trkpt>
      <trkpt lat="39.94333" lon="41.29063">
        <ele>1789.17295</ele>
        <time>2021-11-16T07:53:05.135Z</time>
      </trkpt>
      <trkpt lat="39.94262" lon="41.29038">
        <ele>1790.777012</ele>
        <time>2021-11-16T07:53:27.575Z</time>
      </trkpt>
      <trkpt lat="39.94251" lon="41.29035">
        <ele>1791.069525</ele>
        <time>2021-11-16T07:53:31.509Z</time>
      </trkpt>
      <trkpt lat="39.94192" lon="41.29017">
        <ele>1792.575176</ele>
        <time>2021-11-16T07:53:51.164Z</time>
      </trkpt>
      <trkpt lat="39.9419" lon="41.29016">
        <ele>1792.626896</ele>
        <time>2021-11-16T07:53:52.079Z</time>
      </trkpt>
      <trkpt lat="39.94151" lon="41.29004">
        <ele>1793.63744</ele>
        <time>2021-11-16T07:54:05.580Z</time>
      </trkpt>
      <trkpt lat="39.94125" lon="41.28995">
        <ele>1794.307389</ele>
        <time>2021-11-16T07:54:14.197Z</time>
      </trkpt>
      <trkpt lat="39.94119" lon="41.28993">
        <ele>1794.457658</ele>
        <time>2021-11-16T07:54:16.431Z</time>
      </trkpt>
      <trkpt lat="39.94077" lon="41.28978">
        <ele>1795.456998</ele>
        <time>2021-11-16T07:54:30.134Z</time>
      </trkpt>
      <trkpt lat="39.94072" lon="41.28976">
        <ele>1795.581449</ele>
        <time>2021-11-16T07:54:31.802Z</time>
      </trkpt>
      <trkpt lat="39.94048" lon="41.28967">
        <ele>1796.162121</ele>
        <time>2021-11-16T07:54:39.977Z</time>
      </trkpt>
      <trkpt lat="39.94037" lon="41.28963">
        <ele>1796.419439</ele>
        <time>2021-11-16T07:54:43.358Z</time>
      </trkpt>
      <trkpt lat="39.94035" lon="41.28962">
        <ele>1796.472774</ele>
        <time>2021-11-16T07:54:44.371Z</time>
      </trkpt>
      <trkpt lat="39.94002" lon="41.28948">
        <ele>1797.261772</ele>
        <time>2021-11-16T07:54:54.820Z</time>
      </trkpt>
      <trkpt lat="39.93974" lon="41.28936">
        <ele>1797.957835</ele>
        <time>2021-11-16T07:55:04.152Z</time>
      </trkpt>
      <trkpt lat="39.93882" lon="41.28902">
        <ele>1800.085503</ele>
        <time>2021-11-16T07:55:32.933Z</time>
      </trkpt>
      <trkpt lat="39.93783" lon="41.28857">
        <ele>1802.382902</ele>
        <time>2021-11-16T07:56:05.452Z</time>
      </trkpt>
      <trkpt lat="39.93765" lon="41.2885">
        <ele>1802.941657</ele>
        <time>2021-11-16T07:56:11.652Z</time>
      </trkpt>
      <trkpt lat="39.93755" lon="41.28846">
        <ele>1803.251951</ele>
        <time>2021-11-16T07:56:14.896Z</time>
      </trkpt>
      <trkpt lat="39.93715" lon="41.2883">
        <ele>1804.585147</ele>
        <time>2021-11-16T07:56:29.389Z</time>
      </trkpt>
      <trkpt lat="39.93693" lon="41.28821">
        <ele>1805.300738</ele>
        <time>2021-11-16T07:56:37.742Z</time>
      </trkpt>
      <trkpt lat="39.93596" lon="41.28783">
        <ele>1808.442054</ele>
        <time>2021-11-16T07:57:13.789Z</time>
      </trkpt>
      <trkpt lat="39.93574" lon="41.28773">
        <ele>1809.1835</ele>
        <time>2021-11-16T07:57:22.226Z</time>
      </trkpt>
      <trkpt lat="39.93549" lon="41.28764">
        <ele>1809.977407</ele>
        <time>2021-11-16T07:57:31.213Z</time>
      </trkpt>
      <trkpt lat="39.93505" lon="41.28746">
        <ele>1811.41769</ele>
        <time>2021-11-16T07:57:47.296Z</time>
      </trkpt>
      <trkpt lat="39.93495" lon="41.28743">
        <ele>1811.730652</ele>
        <time>2021-11-16T07:57:50.720Z</time>
      </trkpt>
      <trkpt lat="39.93411" lon="41.28706">
        <ele>1814.435414</ele>
        <time>2021-11-16T07:58:20.995Z</time>
      </trkpt>
      <trkpt lat="39.93328" lon="41.2867">
        <ele>1817.011115</ele>
        <time>2021-11-16T07:58:50.334Z</time>
      </trkpt>
      <trkpt lat="39.93272" lon="41.28645">
        <ele>1818.757131</ele>
        <time>2021-11-16T07:59:10.790Z</time>
      </trkpt>
      <trkpt lat="39.93262" lon="41.28641">
        <ele>1819.055136</ele>
        <time>2021-11-16T07:59:14.369Z</time>
      </trkpt>
      <trkpt lat="39.93246" lon="41.28634">
        <ele>1819.544985</ele>
        <time>2021-11-16T07:59:20.145Z</time>
      </trkpt>
      <trkpt lat="39.93222" lon="41.28624">
        <ele>1820.264911</ele>
        <time>2021-11-16T07:59:28.726Z</time>
      </trkpt>
      <trkpt lat="39.93199" lon="41.28614">
        <ele>1820.985544</ele>
        <time>2021-11-16T07:59:37.084Z</time>
      </trkpt>
      <trkpt lat="39.93186" lon="41.28608">
        <ele>1821.389027</ele>
        <time>2021-11-16T07:59:42.038Z</time>
      </trkpt>
      <trkpt lat="39.93106" lon="41.28573">
        <ele>1823.841893</ele>
        <time>2021-11-16T08:00:10.445Z</time>
      </trkpt>
      <trkpt lat="39.93037" lon="41.28547">
        <ele>1826.009495</ele>
        <time>2021-11-16T08:00:34.081Z</time>
      </trkpt>
      <trkpt lat="39.92964" lon="41.28517">
        <ele>1828.311699</ele>
        <time>2021-11-16T08:01:00.316Z</time>
      </trkpt>
      <trkpt lat="39.92948" lon="41.2851">
        <ele>1828.81794</ele>
        <time>2021-11-16T08:01:06.671Z</time>
      </trkpt>
      <trkpt lat="39.92906" lon="41.28491">
        <ele>1830.331331</ele>
        <time>2021-11-16T08:01:23.881Z</time>
      </trkpt>
      <trkpt lat="39.92849" lon="41.28466">
        <ele>1832.623251</ele>
        <time>2021-11-16T08:01:46.366Z</time>
      </trkpt>
      <trkpt lat="39.92822" lon="41.28455">
        <ele>1833.674728</ele>
        <time>2021-11-16T08:01:56.893Z</time>
      </trkpt>
      <trkpt lat="39.92789" lon="41.28442">
        <ele>1834.992383</ele>
        <time>2021-11-16T08:02:10.240Z</time>
      </trkpt>
      <trkpt lat="39.9275" lon="41.28426">
        <ele>1836.578781</ele>
        <time>2021-11-16T08:02:26.539Z</time>
      </trkpt>
      <trkpt lat="39.92736" lon="41.28421">
        <ele>1837.168491</ele>
        <time>2021-11-16T08:02:32.447Z</time>
      </trkpt>
      <trkpt lat="39.92731" lon="41.28419">
        <ele>1837.357522</ele>
        <time>2021-11-16T08:02:34.341Z</time>
      </trkpt>
      <trkpt lat="39.92682" lon="41.284">
        <ele>1839.461791</ele>
        <time>2021-11-16T08:02:55.375Z</time>
      </trkpt>
      <trkpt lat="39.92669" lon="41.28395">
        <ele>1840.043642</ele>
        <time>2021-11-16T08:03:00.973Z</time>
      </trkpt>
      <trkpt lat="39.92645" lon="41.28386">
        <ele>1841.035841</ele>
        <time>2021-11-16T08:03:10.248Z</time>
      </trkpt>
      <trkpt lat="39.92632" lon="41.28381">
        <ele>1841.600183</ele>
        <time>2021-11-16T08:03:15.385Z</time>
      </trkpt>
      <trkpt lat="39.92609" lon="41.2837">
        <ele>1842.607676</ele>
        <time>2021-11-16T08:03:24.707Z</time>
      </trkpt>
      <trkpt lat="39.92601" lon="41.28367">
        <ele>1842.948693</ele>
        <time>2021-11-16T08:03:28.062Z</time>
      </trkpt>
      <trkpt lat="39.92542" lon="41.28341">
        <ele>1845.307486</ele>
        <time>2021-11-16T08:03:53.109Z</time>
      </trkpt>
      <trkpt lat="39.92533" lon="41.28337">
        <ele>1845.667572</ele>
        <time>2021-11-16T08:03:57.278Z</time>
      </trkpt>
      <trkpt lat="39.92527" lon="41.28335">
        <ele>1845.867965</ele>
        <time>2021-11-16T08:03:59.593Z</time>
      </trkpt>
      <trkpt lat="39.92486" lon="41.28315">
        <ele>1847.479818</ele>
        <time>2021-11-16T08:04:17.171Z</time>
      </trkpt>
      <trkpt lat="39.92457" lon="41.28302">
        <ele>1848.586333</ele>
        <time>2021-11-16T08:04:28.511Z</time>
      </trkpt>
      <trkpt lat="39.92363" lon="41.2829">
        <ele>1851.486626</ele>
        <time>2021-11-16T08:05:00.275Z</time>
      </trkpt>
      <trkpt lat="39.9235" lon="41.28203">
        <ele>1853.167024</ele>
        <time>2021-11-16T08:05:23.376Z</time>
      </trkpt>
      <trkpt lat="39.9233" lon="41.28123">
        <ele>1854.770969</ele>
        <time>2021-11-16T08:05:43.877Z</time>
      </trkpt>
      <trkpt lat="39.92296" lon="41.28037">
        <ele>1856.856067</ele>
        <time>2021-11-16T08:06:07.077Z</time>
      </trkpt>
      <trkpt lat="39.92241" lon="41.27904">
        <ele>1860.20463</ele>
        <time>2021-11-16T08:06:49.106Z</time>
      </trkpt>
      <trkpt lat="39.92234" lon="41.27908">
        <ele>1860.473136</ele>
        <time>2021-11-16T08:06:51.735Z</time>
      </trkpt>
      <trkpt lat="39.92228" lon="41.27911">
        <ele>1860.68563</ele>
        <time>2021-11-16T08:06:54.428Z</time>
      </trkpt>
      <trkpt lat="39.92225" lon="41.27911">
        <ele>1860.808118</ele>
        <time>2021-11-16T08:06:55.566Z</time>
      </trkpt>
      <trkpt lat="39.92129" lon="41.27921">
        <ele>1864.269661</ele>
        <time>2021-11-16T08:07:30.352Z</time>
      </trkpt>
      <trkpt lat="39.92121" lon="41.27911">
        <ele>1864.644766</ele>
        <time>2021-11-16T08:07:34.746Z</time>
      </trkpt>
      <trkpt lat="39.92065" lon="41.27963">
        <ele>1866.965088</ele>
        <time>2021-11-16T08:08:00.827Z</time>
      </trkpt>
      <trkpt lat="39.92042" lon="41.27936">
        <ele>1867.853724</ele>
        <time>2021-11-16T08:08:12.016Z</time>
      </trkpt>
      <trkpt lat="39.92002" lon="41.2788">
        <ele>1869.516773</ele>
        <time>2021-11-16T08:08:32.048Z</time>
      </trkpt>
      <trkpt lat="39.91943" lon="41.27886">
        <ele>1871.205417</ele>
        <time>2021-11-16T08:08:51.310Z</time>
      </trkpt>
      <trkpt lat="39.91915" lon="41.27854">
        <ele>1872.035818</ele>
        <time>2021-11-16T08:09:02.668Z</time>
      </trkpt>
      <trkpt lat="39.91902" lon="41.27839">
        <ele>1872.392936</ele>
        <time>2021-11-16T08:09:08.151Z</time>
      </trkpt>
      <trkpt lat="39.9185" lon="41.27781">
        <ele>1873.757989</ele>
        <time>2021-11-16T08:09:29.424Z</time>
      </trkpt>
      <trkpt lat="39.91795" lon="41.27835">
        <ele>1875.109001</ele>
        <time>2021-11-16T08:09:51.153Z</time>
      </trkpt>
      <trkpt lat="39.91778" lon="41.27809">
        <ele>1875.305311</ele>
        <time>2021-11-16T08:09:58.999Z</time>
      </trkpt>
      <trkpt lat="39.91754" lon="41.27769">
        <ele>1875.597333</ele>
        <time>2021-11-16T08:10:10.078Z</time>
      </trkpt>
      <trkpt lat="39.91728" lon="41.27718">
        <ele>1875.95093</ele>
        <time>2021-11-16T08:10:22.977Z</time>
      </trkpt>
      <trkpt lat="39.91644" lon="41.27549">
        <ele>1875.08638</ele>
        <time>2021-11-16T08:10:53.793Z</time>
      </trkpt>
      <trkpt lat="39.9163" lon="41.2752">
        <ele>1874.688808</ele>
        <time>2021-11-16T08:10:58.206Z</time>
      </trkpt>
      <trkpt lat="39.91626" lon="41.27512">
        <ele>1874.569847</ele>
        <time>2021-11-16T08:10:59.572Z</time>
      </trkpt>
      <trkpt lat="39.91626" lon="41.27512">
        <ele>1874.569847</ele>
        <time>2021-11-16T08:10:59.575Z</time>
      </trkpt>
      <trkpt lat="39.91607" lon="41.27476">
        <ele>1874.053414</ele>
        <time>2021-11-16T08:11:05.346Z</time>
      </trkpt>
      <trkpt lat="39.91572" lon="41.27409">
        <ele>1872.99643</ele>
        <time>2021-11-16T08:11:16.013Z</time>
      </trkpt>
      <trkpt lat="39.91559" lon="41.27387">
        <ele>1872.610358</ele>
        <time>2021-11-16T08:11:19.731Z</time>
      </trkpt>
      <trkpt lat="39.91499" lon="41.2729">
        <ele>1870.890824</ele>
        <time>2021-11-16T08:11:36.746Z</time>
      </trkpt>
      <trkpt lat="39.91456" lon="41.27219">
        <ele>1870.174653</ele>
        <time>2021-11-16T08:11:50.195Z</time>
      </trkpt>
      <trkpt lat="39.9145" lon="41.2721">
        <ele>1870.122772</ele>
        <time>2021-11-16T08:11:51.788Z</time>
      </trkpt>
      <trkpt lat="39.91449" lon="41.27204">
        <ele>1870.094065</ele>
        <time>2021-11-16T08:11:52.635Z</time>
      </trkpt>
      <trkpt lat="39.91388" lon="41.27102">
        <ele>1869.507944</ele>
        <time>2021-11-16T08:12:12.807Z</time>
      </trkpt>
      <trkpt lat="39.9137" lon="41.27072">
        <ele>1869.450683</ele>
        <time>2021-11-16T08:12:20.030Z</time>
      </trkpt>
      <trkpt lat="39.91405" lon="41.27035">
        <ele>1869.930925</ele>
        <time>2021-11-16T08:12:31.126Z</time>
      </trkpt>
      <trkpt lat="39.91394" lon="41.27019">
        <ele>1870.102605</ele>
        <time>2021-11-16T08:12:35.622Z</time>
      </trkpt>
      <trkpt lat="39.9136" lon="41.26968">
        <ele>1870.645727</ele>
        <time>2021-11-16T08:12:49.820Z</time>
      </trkpt>
      <trkpt lat="39.91263" lon="41.26825">
        <ele>1871.930881</ele>
        <time>2021-11-16T08:13:33.970Z</time>
      </trkpt>
      <trkpt lat="39.91245" lon="41.26785">
        <ele>1872.197328</ele>
        <time>2021-11-16T08:13:42.714Z</time>
      </trkpt>
      <trkpt lat="39.91232" lon="41.26766">
        <ele>1872.343988</ele>
        <time>2021-11-16T08:13:47.375Z</time>
      </trkpt>
      <trkpt lat="39.91211" lon="41.2675">
        <ele>1872.528165</ele>
        <time>2021-11-16T08:13:52.945Z</time>
      </trkpt>
      <trkpt lat="39.91206" lon="41.26693">
        <ele>1872.029705</ele>
        <time>2021-11-16T08:14:01.773Z</time>
      </trkpt>
      <trkpt lat="39.91201" lon="41.26642">
        <ele>1871.278723</ele>
        <time>2021-11-16T08:14:09.149Z</time>
      </trkpt>
      <trkpt lat="39.91197" lon="41.2661">
        <ele>1870.797531</ele>
        <time>2021-11-16T08:14:13.655Z</time>
      </trkpt>
      <trkpt lat="39.91194" lon="41.26571">
        <ele>1870.221537</ele>
        <time>2021-11-16T08:14:18.880Z</time>
      </trkpt>
      <trkpt lat="39.91193" lon="41.26548">
        <ele>1869.888601</ele>
        <time>2021-11-16T08:14:21.747Z</time>
      </trkpt>
      <trkpt lat="39.91193" lon="41.26521">
        <ele>1869.494095</ele>
        <time>2021-11-16T08:14:25.163Z</time>
      </trkpt>
      <trkpt lat="39.91196" lon="41.26518">
        <ele>1869.417136</ele>
        <time>2021-11-16T08:14:25.819Z</time>
      </trkpt>
      <trkpt lat="39.91198" lon="41.26513">
        <ele>1869.340341</ele>
        <time>2021-11-16T08:14:26.474Z</time>
      </trkpt>
      <trkpt lat="39.912" lon="41.26508">
        <ele>1869.257457</ele>
        <time>2021-11-16T08:14:27.177Z</time>
      </trkpt>
      <trkpt lat="39.91199" lon="41.26492">
        <ele>1868.914475</ele>
        <time>2021-11-16T08:14:29.263Z</time>
      </trkpt>
      <trkpt lat="39.91194" lon="41.26482">
        <ele>1868.6557</ele>
        <time>2021-11-16T08:14:30.635Z</time>
      </trkpt>
      <trkpt lat="39.91193" lon="41.26482">
        <ele>1868.620579</ele>
        <time>2021-11-16T08:14:30.805Z</time>
      </trkpt>
      <trkpt lat="39.91191" lon="41.26479">
        <ele>1868.526523</ele>
        <time>2021-11-16T08:14:31.314Z</time>
      </trkpt>
      <trkpt lat="39.91185" lon="41.26431">
        <ele>1867.401735</ele>
        <time>2021-11-16T08:14:37.339Z</time>
      </trkpt>
      <trkpt lat="39.91174" lon="41.26317">
        <ele>1864.774573</ele>
        <time>2021-11-16T08:14:51.687Z</time>
      </trkpt>
      <trkpt lat="39.91171" lon="41.26292">
        <ele>1864.182755</ele>
        <time>2021-11-16T08:14:54.972Z</time>
      </trkpt>
      <trkpt lat="39.91169" lon="41.26246">
        <ele>1863.601648</ele>
        <time>2021-11-16T08:15:00.955Z</time>
      </trkpt>
      <trkpt lat="39.91159" lon="41.26205">
        <ele>1863.300781</ele>
        <time>2021-11-16T08:15:06.998Z</time>
      </trkpt>
      <trkpt lat="39.91154" lon="41.26187">
        <ele>1863.170498</ele>
        <time>2021-11-16T08:15:09.696Z</time>
      </trkpt>
      <trkpt lat="39.91116" lon="41.261">
        <ele>1862.475847</ele>
        <time>2021-11-16T08:15:25.191Z</time>
      </trkpt>
      <trkpt lat="39.91086" lon="41.26049">
        <ele>1862.377754</ele>
        <time>2021-11-16T08:15:37.382Z</time>
      </trkpt>
      <trkpt lat="39.91055" lon="41.26014">
        <ele>1862.853148</ele>
        <time>2021-11-16T08:15:48.041Z</time>
      </trkpt>
      <trkpt lat="39.91009" lon="41.25974">
        <ele>1863.4926</ele>
        <time>2021-11-16T08:16:03.306Z</time>
      </trkpt>
      <trkpt lat="39.90943" lon="41.25932">
        <ele>1864.370539</ele>
        <time>2021-11-16T08:16:23.796Z</time>
      </trkpt>
      <trkpt lat="39.90886" lon="41.25913">
        <ele>1865.260146</ele>
        <time>2021-11-16T08:16:41.014Z</time>
      </trkpt>
      <trkpt lat="39.90858" lon="41.25911">
        <ele>1865.694879</ele>
        <time>2021-11-16T08:16:48.822Z</time>
      </trkpt>
      <trkpt lat="39.90856" lon="41.25875">
        <ele>1866.109168</ele>
        <time>2021-11-16T08:16:56.566Z</time>
      </trkpt>
      <trkpt lat="39.90836" lon="41.25876">
        <ele>1866.406857</ele>
        <time>2021-11-16T08:17:02.755Z</time>
      </trkpt>
      <trkpt lat="39.90787" lon="41.25882">
        <ele>1867.155357</ele>
        <time>2021-11-16T08:17:16.586Z</time>
      </trkpt>
      <trkpt lat="39.9078" lon="41.2587">
        <ele>1867.337094</ele>
        <time>2021-11-16T08:17:20.029Z</time>
      </trkpt>
      <trkpt lat="39.90777" lon="41.25861">
        <ele>1867.454933</ele>
        <time>2021-11-16T08:17:22.815Z</time>
      </trkpt>
      <trkpt lat="39.90773" lon="41.25847">
        <ele>1867.637798</ele>
        <time>2021-11-16T08:17:25.867Z</time>
      </trkpt>
      <trkpt lat="39.90759" lon="41.25825">
        <ele>1867.962882</ele>
        <time>2021-11-16T08:17:32.053Z</time>
      </trkpt>
      <trkpt lat="39.90745" lon="41.25789">
        <ele>1868.452317</ele>
        <time>2021-11-16T08:17:40.999Z</time>
      </trkpt>
      <trkpt lat="39.90744" lon="41.25762">
        <ele>1868.772239</ele>
        <time>2021-11-16T08:17:47.672Z</time>
      </trkpt>
      <trkpt lat="39.90751" lon="41.25749">
        <ele>1868.959474</ele>
        <time>2021-11-16T08:17:51.058Z</time>
      </trkpt>
      <trkpt lat="39.90752" lon="41.25735">
        <ele>1869.127026</ele>
        <time>2021-11-16T08:17:54.828Z</time>
      </trkpt>
      <trkpt lat="39.90741" lon="41.25677">
        <ele>1869.826299</ele>
        <time>2021-11-16T08:18:07.986Z</time>
      </trkpt>
      <trkpt lat="39.90706" lon="41.25679">
        <ele>1870.299424</ele>
        <time>2021-11-16T08:18:17.436Z</time>
      </trkpt>
      <trkpt lat="39.90701" lon="41.25651">
        <ele>1870.588006</ele>
        <time>2021-11-16T08:18:23.511Z</time>
      </trkpt>
      <trkpt lat="39.90645" lon="41.25665">
        <ele>1871.356167</ele>
        <time>2021-11-16T08:18:39.726Z</time>
      </trkpt>
      <trkpt lat="39.90633" lon="41.25666">
        <ele>1871.508469</ele>
        <time>2021-11-16T08:18:43.093Z</time>
      </trkpt>
      <trkpt lat="39.90633" lon="41.25608">
        <ele>1872.107774</ele>
        <time>2021-11-16T08:18:56.080Z</time>
      </trkpt>
      <trkpt lat="39.90629" lon="41.25591">
        <ele>1872.28413</ele>
        <time>2021-11-16T08:18:59.622Z</time>
      </trkpt>
      <trkpt lat="39.90583" lon="41.25615">
        <ele>1872.956709</ele>
        <time>2021-11-16T08:19:13.775Z</time>
      </trkpt>
      <trkpt lat="39.90569" lon="41.25618">
        <ele>1873.157739</ele>
        <time>2021-11-16T08:19:17.979Z</time>
      </trkpt>
      <trkpt lat="39.90556" lon="41.25621">
        <ele>1873.332612</ele>
        <time>2021-11-16T08:19:21.499Z</time>
      </trkpt>
      <trkpt lat="39.90531" lon="41.25613">
        <ele>1873.679811</ele>
        <time>2021-11-16T08:19:28.740Z</time>
      </trkpt>
      <trkpt lat="39.90522" lon="41.25599">
        <ele>1873.87648</ele>
        <time>2021-11-16T08:19:32.647Z</time>
      </trkpt>
      <trkpt lat="39.9051" lon="41.2559">
        <ele>1874.060948</ele>
        <time>2021-11-16T08:19:36.538Z</time>
      </trkpt>
      <trkpt lat="39.90497" lon="41.25584">
        <ele>1874.243152</ele>
        <time>2021-11-16T08:19:40.062Z</time>
      </trkpt>
      <trkpt lat="39.90484" lon="41.25584">
        <ele>1874.426807</ele>
        <time>2021-11-16T08:19:43.802Z</time>
      </trkpt>
      <trkpt lat="39.90471" lon="41.25564">
        <ele>1874.664084</ele>
        <time>2021-11-16T08:19:49.420Z</time>
      </trkpt>
      <trkpt lat="39.90469" lon="41.25556">
        <ele>1874.694649</ele>
        <time>2021-11-16T08:19:51.276Z</time>
      </trkpt>
      <trkpt lat="39.90444" lon="41.25478">
        <ele>1874.987246</ele>
        <time>2021-11-16T08:20:08.363Z</time>
      </trkpt>
      <trkpt lat="39.90412" lon="41.25374">
        <ele>1875.376728</ele>
        <time>2021-11-16T08:20:29.055Z</time>
      </trkpt>
      <trkpt lat="39.90364" lon="41.25221">
        <ele>1875.275432</ele>
        <time>2021-11-16T08:20:57.011Z</time>
      </trkpt>
      <trkpt lat="39.90321" lon="41.25072">
        <ele>1875.389088</ele>
        <time>2021-11-16T08:21:24.752Z</time>
      </trkpt>
      <trkpt lat="39.90313" lon="41.25034">
        <ele>1875.537666</ele>
        <time>2021-11-16T08:21:32.114Z</time>
      </trkpt>
      <trkpt lat="39.90299" lon="41.25001">
        <ele>1875.677842</ele>
        <time>2021-11-16T08:21:39.336Z</time>
      </trkpt>
      <trkpt lat="39.90289" lon="41.24987">
        <ele>1875.747559</ele>
        <time>2021-11-16T08:21:43.058Z</time>
      </trkpt>
      <trkpt lat="39.90265" lon="41.24971">
        <ele>1875.880048</ele>
        <time>2021-11-16T08:21:50.203Z</time>
      </trkpt>
      <trkpt lat="39.90244" lon="41.24967">
        <ele>1875.984315</ele>
        <time>2021-11-16T08:21:55.974Z</time>
      </trkpt>
      <trkpt lat="39.9017" lon="41.24947">
        <ele>1877.451489</ele>
        <time>2021-11-16T08:22:17.436Z</time>
      </trkpt>
      <trkpt lat="39.90001" lon="41.24876">
        <ele>1881.986241</ele>
        <time>2021-11-16T08:23:17.759Z</time>
      </trkpt>
      <trkpt lat="39.89991" lon="41.24872">
        <ele>1882.31463</ele>
        <time>2021-11-16T08:23:21.806Z</time>
      </trkpt>
      <trkpt lat="39.89887" lon="41.24827">
        <ele>1885.909628</ele>
        <time>2021-11-16T08:24:02.807Z</time>
      </trkpt>
      <trkpt lat="39.89787" lon="41.24778">
        <ele>1889.941646</ele>
        <time>2021-11-16T08:24:42.760Z</time>
      </trkpt>
      <trkpt lat="39.89585" lon="41.24687">
        <ele>1898.867467</ele>
        <time>2021-11-16T08:26:07.717Z</time>
      </trkpt>
      <trkpt lat="39.8957" lon="41.2468">
        <ele>1899.565559</ele>
        <time>2021-11-16T08:26:14.533Z</time>
      </trkpt>
      <trkpt lat="39.89563" lon="41.24678">
        <ele>1899.883269</ele>
        <time>2021-11-16T08:26:17.642Z</time>
      </trkpt>
      <trkpt lat="39.89555" lon="41.24678">
        <ele>1900.236995</ele>
        <time>2021-11-16T08:26:21.205Z</time>
      </trkpt>
      <trkpt lat="39.89544" lon="41.24683">
        <ele>1900.822477</ele>
        <time>2021-11-16T08:26:25.972Z</time>
      </trkpt>
      <trkpt lat="39.89538" lon="41.24688">
        <ele>1901.178414</ele>
        <time>2021-11-16T08:26:29.057Z</time>
      </trkpt>
      <trkpt lat="39.89523" lon="41.24708">
        <ele>1902.273527</ele>
        <time>2021-11-16T08:26:38.331Z</time>
      </trkpt>
      <trkpt lat="39.89422" lon="41.24769">
        <ele>1908.045352</ele>
        <time>2021-11-16T08:27:29.687Z</time>
      </trkpt>
      <trkpt lat="39.89294" lon="41.24816">
        <ele>1913.035266</ele>
        <time>2021-11-16T08:28:23.225Z</time>
      </trkpt>
      <trkpt lat="39.89287" lon="41.24819">
        <ele>1913.283924</ele>
        <time>2021-11-16T08:28:26.975Z</time>
      </trkpt>
      <trkpt lat="39.89275" lon="41.2476">
        <ele>1914.820987</ele>
        <time>2021-11-16T08:28:41.320Z</time>
      </trkpt>
      <trkpt lat="39.89253" lon="41.24651">
        <ele>1915.381433</ele>
        <time>2021-11-16T08:29:03.658Z</time>
      </trkpt>
      <trkpt lat="39.89243" lon="41.246">
        <ele>1915.231863</ele>
        <time>2021-11-16T08:29:12.331Z</time>
      </trkpt>
      <trkpt lat="39.89177" lon="41.24378">
        <ele>1913.158128</ele>
        <time>2021-11-16T08:29:45.112Z</time>
      </trkpt>
      <trkpt lat="39.89149" lon="41.24316">
        <ele>1912.235739</ele>
        <time>2021-11-16T08:29:54.875Z</time>
      </trkpt>
      <trkpt lat="39.89123" lon="41.2427">
        <ele>1911.838355</ele>
        <time>2021-11-16T08:30:02.887Z</time>
      </trkpt>
      <trkpt lat="39.8912" lon="41.24263">
        <ele>1911.821563</ele>
        <time>2021-11-16T08:30:03.968Z</time>
      </trkpt>
      <trkpt lat="39.89082" lon="41.24214">
        <ele>1911.670685</ele>
        <time>2021-11-16T08:30:14.692Z</time>
      </trkpt>
      <trkpt lat="39.89038" lon="41.24168">
        <ele>1911.511755</ele>
        <time>2021-11-16T08:30:26.757Z</time>
      </trkpt>
      <trkpt lat="39.89021" lon="41.24154">
        <ele>1911.455724</ele>
        <time>2021-11-16T08:30:31.684Z</time>
      </trkpt>
      <trkpt lat="39.89013" lon="41.24148">
        <ele>1911.430457</ele>
        <time>2021-11-16T08:30:33.888Z</time>
      </trkpt>
      <trkpt lat="39.88995" lon="41.24126">
        <ele>1911.706573</ele>
        <time>2021-11-16T08:30:40.762Z</time>
      </trkpt>
      <trkpt lat="39.88808" lon="41.24006">
        <ele>1916.01927</ele>
        <time>2021-11-16T08:31:46.151Z</time>
      </trkpt>
      <trkpt lat="39.88789" lon="41.23991">
        <ele>1916.528649</ele>
        <time>2021-11-16T08:31:53.463Z</time>
      </trkpt>
      <trkpt lat="39.88768" lon="41.23975">
        <ele>1917.076739</ele>
        <time>2021-11-16T08:32:01.199Z</time>
      </trkpt>
      <trkpt lat="39.88718" lon="41.23927">
        <ele>1918.460332</ele>
        <time>2021-11-16T08:32:20.420Z</time>
      </trkpt>
      <trkpt lat="39.887" lon="41.23906">
        <ele>1919.009436</ele>
        <time>2021-11-16T08:32:28.043Z</time>
      </trkpt>
      <trkpt lat="39.88692" lon="41.23896">
        <ele>1919.202084</ele>
        <time>2021-11-16T08:32:31.079Z</time>
      </trkpt>
      <trkpt lat="39.8868" lon="41.2388">
        <ele>1919.505683</ele>
        <time>2021-11-16T08:32:36.616Z</time>
      </trkpt>
      <trkpt lat="39.88678" lon="41.23874">
        <ele>1919.582478</ele>
        <time>2021-11-16T08:32:37.985Z</time>
      </trkpt>
      <trkpt lat="39.88673" lon="41.23867">
        <ele>1919.703923</ele>
        <time>2021-11-16T08:32:40.120Z</time>
      </trkpt>
      <trkpt lat="39.88667" lon="41.2386">
        <ele>1919.8492</ele>
        <time>2021-11-16T08:32:42.607Z</time>
      </trkpt>
      <trkpt lat="39.88654" lon="41.23844">
        <ele>1920.139208</ele>
        <time>2021-11-16T08:32:47.794Z</time>
      </trkpt>
      <trkpt lat="39.88648" lon="41.23835">
        <ele>1920.296493</ele>
        <time>2021-11-16T08:32:50.530Z</time>
      </trkpt>
      <trkpt lat="39.88573" lon="41.23722">
        <ele>1922.208062</ele>
        <time>2021-11-16T08:33:23.132Z</time>
      </trkpt>
      <trkpt lat="39.88442" lon="41.23539">
        <ele>1924.596607</ele>
        <time>2021-11-16T08:34:15.088Z</time>
      </trkpt>
      <trkpt lat="39.88429" lon="41.23527">
        <ele>1924.785069</ele>
        <time>2021-11-16T08:34:19.510Z</time>
      </trkpt>
      <trkpt lat="39.88219" lon="41.23218">
        <ele>1928.492392</ele>
        <time>2021-11-16T08:35:44.671Z</time>
      </trkpt>
      <trkpt lat="39.88168" lon="41.23141">
        <ele>1929.346963</ele>
        <time>2021-11-16T08:36:05.567Z</time>
      </trkpt>
      <trkpt lat="39.88146" lon="41.23105">
        <ele>1929.728778</ele>
        <time>2021-11-16T08:36:14.810Z</time>
      </trkpt>
      <trkpt lat="39.88138" lon="41.23094">
        <ele>1929.856</ele>
        <time>2021-11-16T08:36:17.865Z</time>
      </trkpt>
      <trkpt lat="39.88121" lon="41.23071">
        <ele>1930.120022</ele>
        <time>2021-11-16T08:36:24.223Z</time>
      </trkpt>
      <trkpt lat="39.88054" lon="41.22981">
        <ele>1931.012571</ele>
        <time>2021-11-16T08:36:49.885Z</time>
      </trkpt>
      <trkpt lat="39.88019" lon="41.22929">
        <ele>1931.453858</ele>
        <time>2021-11-16T08:37:03.879Z</time>
      </trkpt>
      <trkpt lat="39.87993" lon="41.2289">
        <ele>1931.783149</ele>
        <time>2021-11-16T08:37:13.567Z</time>
      </trkpt>
      <trkpt lat="39.87967" lon="41.22853">
        <ele>1932.047331</ele>
        <time>2021-11-16T08:37:22.942Z</time>
      </trkpt>
      <trkpt lat="39.87942" lon="41.22819">
        <ele>1932.120477</ele>
        <time>2021-11-16T08:37:31.459Z</time>
      </trkpt>
      <trkpt lat="39.87847" lon="41.22678">
        <ele>1932.403241</ele>
        <time>2021-11-16T08:38:04.258Z</time>
      </trkpt>
      <trkpt lat="39.87765" lon="41.22557">
        <ele>1932.501676</ele>
        <time>2021-11-16T08:38:32.007Z</time>
      </trkpt>
      <trkpt lat="39.87762" lon="41.22552">
        <ele>1932.505721</ele>
        <time>2021-11-16T08:38:33.137Z</time>
      </trkpt>
      <trkpt lat="39.87747" lon="41.22529">
        <ele>1932.524523</ele>
        <time>2021-11-16T08:38:38.570Z</time>
      </trkpt>
      <trkpt lat="39.87642" lon="41.22389">
        <ele>1932.538054</ele>
        <time>2021-11-16T08:39:12.457Z</time>
      </trkpt>
      <trkpt lat="39.87518" lon="41.22238">
        <ele>1932.22545</ele>
        <time>2021-11-16T08:39:48.458Z</time>
      </trkpt>
      <trkpt lat="39.87506" lon="41.22225">
        <ele>1932.183473</ele>
        <time>2021-11-16T08:39:51.826Z</time>
      </trkpt>
      <trkpt lat="39.87366" lon="41.22072">
        <ele>1931.750538</ele>
        <time>2021-11-16T08:40:30.906Z</time>
      </trkpt>
      <trkpt lat="39.87301" lon="41.22">
        <ele>1931.511554</ele>
        <time>2021-11-16T08:40:49.452Z</time>
      </trkpt>
      <trkpt lat="39.87267" lon="41.21963">
        <ele>1931.367462</ele>
        <time>2021-11-16T08:40:59.072Z</time>
      </trkpt>
      <trkpt lat="39.8705" lon="41.21738">
        <ele>1930.068333</ele>
        <time>2021-11-16T08:41:55.932Z</time>
      </trkpt>
      <trkpt lat="39.86981" lon="41.21677">
        <ele>1929.235558</ele>
        <time>2021-11-16T08:42:12.085Z</time>
      </trkpt>
      <trkpt lat="39.86874" lon="41.21598">
        <ele>1928.044495</ele>
        <time>2021-11-16T08:42:35.219Z</time>
      </trkpt>
      <trkpt lat="39.86803" lon="41.21544">
        <ele>1927.313438</ele>
        <time>2021-11-16T08:42:51.466Z</time>
      </trkpt>
      <trkpt lat="39.86781" lon="41.21525">
        <ele>1927.078345</ele>
        <time>2021-11-16T08:42:56.905Z</time>
      </trkpt>
      <trkpt lat="39.86698" lon="41.21441">
        <ele>1925.766</ele>
        <time>2021-11-16T08:43:17.677Z</time>
      </trkpt>
      <trkpt lat="39.86652" lon="41.21383">
        <ele>1924.846941</ele>
        <time>2021-11-16T08:43:29.562Z</time>
      </trkpt>
      <trkpt lat="39.86632" lon="41.21355">
        <ele>1924.421704</ele>
        <time>2021-11-16T08:43:34.797Z</time>
      </trkpt>
      <trkpt lat="39.86606" lon="41.21311">
        <ele>1923.394836</ele>
        <time>2021-11-16T08:43:42.074Z</time>
      </trkpt>
      <trkpt lat="39.86551" lon="41.21217">
        <ele>1920.545143</ele>
        <time>2021-11-16T08:43:56.814Z</time>
      </trkpt>
      <trkpt lat="39.86491" lon="41.21095">
        <ele>1916.714072</ele>
        <time>2021-11-16T08:44:14.604Z</time>
      </trkpt>
      <trkpt lat="39.86422" lon="41.20955">
        <ele>1911.823462</ele>
        <time>2021-11-16T08:44:34.815Z</time>
      </trkpt>
      <trkpt lat="39.8638" lon="41.20874">
        <ele>1908.775013</ele>
        <time>2021-11-16T08:44:46.552Z</time>
      </trkpt>
      <trkpt lat="39.86134" lon="41.20387">
        <ele>1891.118763</ele>
        <time>2021-11-16T08:45:56.417Z</time>
      </trkpt>
      <trkpt lat="39.86079" lon="41.20221">
        <ele>1888.562795</ele>
        <time>2021-11-16T08:46:20.648Z</time>
      </trkpt>
      <trkpt lat="39.85991" lon="41.19788">
        <ele>1887.448186</ele>
        <time>2021-11-16T08:47:36.600Z</time>
      </trkpt>
      <trkpt lat="39.85952" lon="41.1965">
        <ele>1887.159409</ele>
        <time>2021-11-16T08:48:01.616Z</time>
      </trkpt>
      <trkpt lat="39.85897" lon="41.19512">
        <ele>1886.335899</ele>
        <time>2021-11-16T08:48:25.729Z</time>
      </trkpt>
      <trkpt lat="39.8568" lon="41.19067">
        <ele>1879.888037</ele>
        <time>2021-11-16T08:49:39.379Z</time>
      </trkpt>
      <trkpt lat="39.85617" lon="41.1895">
        <ele>1877.041269</ele>
        <time>2021-11-16T08:49:57.991Z</time>
      </trkpt>
      <trkpt lat="39.85557" lon="41.18852">
        <ele>1874.28242</ele>
        <time>2021-11-16T08:50:13.608Z</time>
      </trkpt>
      <trkpt lat="39.85381" lon="41.18606">
        <ele>1867.324307</ele>
        <time>2021-11-16T08:50:55.538Z</time>
      </trkpt>
      <trkpt lat="39.84947" lon="41.18019">
        <ele>1866.147707</ele>
        <time>2021-11-16T08:53:14.325Z</time>
      </trkpt>
      <trkpt lat="39.84519" lon="41.17432">
        <ele>1870.401782</ele>
        <time>2021-11-16T08:55:49.159Z</time>
      </trkpt>
      <trkpt lat="39.84232" lon="41.17006">
        <ele>1876.703204</ele>
        <time>2021-11-16T08:57:53.480Z</time>
      </trkpt>
      <trkpt lat="39.84099" lon="41.16842">
        <ele>1878.542595</ele>
        <time>2021-11-16T08:58:39.692Z</time>
      </trkpt>
      <trkpt lat="39.83946" lon="41.16695">
        <ele>1882.32514</ele>
        <time>2021-11-16T08:59:34.269Z</time>
      </trkpt>
      <trkpt lat="39.83272" lon="41.16222">
        <ele>1915.961929</ele>
        <time>2021-11-16T09:04:44.541Z</time>
      </trkpt>
      <trkpt lat="39.83188" lon="41.16175">
        <ele>1919.652864</ele>
        <time>2021-11-16T09:05:18.972Z</time>
      </trkpt>
      <trkpt lat="39.82881" lon="41.16068">
        <ele>1930.841078</ele>
        <time>2021-11-16T09:07:12.223Z</time>
      </trkpt>
      <trkpt lat="39.8267" lon="41.15964">
        <ele>1939.625448</ele>
        <time>2021-11-16T09:08:39.691Z</time>
      </trkpt>
      <trkpt lat="39.82585" lon="41.15898">
        <ele>1942.553836</ele>
        <time>2021-11-16T09:09:15.699Z</time>
      </trkpt>
      <trkpt lat="39.82527" lon="41.15843">
        <ele>1944.511987</ele>
        <time>2021-11-16T09:09:39.294Z</time>
      </trkpt>
      <trkpt lat="39.82416" lon="41.15707">
        <ele>1945.544558</ele>
        <time>2021-11-16T09:10:18.759Z</time>
      </trkpt>
      <trkpt lat="39.82347" lon="41.15592">
        <ele>1943.901703</ele>
        <time>2021-11-16T09:10:39.485Z</time>
      </trkpt>
      <trkpt lat="39.82056" lon="41.15083">
        <ele>1928.494368</ele>
        <time>2021-11-16T09:11:57.791Z</time>
      </trkpt>
      <trkpt lat="39.82042" lon="41.15056">
        <ele>1928.175132</ele>
        <time>2021-11-16T09:12:02.211Z</time>
      </trkpt>
      <trkpt lat="39.81976" lon="41.14934">
        <ele>1926.702072</ele>
        <time>2021-11-16T09:12:24.069Z</time>
      </trkpt>
      <trkpt lat="39.81918" lon="41.14797">
        <ele>1925.816663</ele>
        <time>2021-11-16T09:12:49.413Z</time>
      </trkpt>
      <trkpt lat="39.81878" lon="41.14629">
        <ele>1925.025722</ele>
        <time>2021-11-16T09:13:17.070Z</time>
      </trkpt>
      <trkpt lat="39.81873" lon="41.14606">
        <ele>1924.881506</ele>
        <time>2021-11-16T09:13:20.768Z</time>
      </trkpt>
      <trkpt lat="39.81871" lon="41.14598">
        <ele>1924.832007</ele>
        <time>2021-11-16T09:13:21.995Z</time>
      </trkpt>
      <trkpt lat="39.81846" lon="41.14484">
        <ele>1924.119905</ele>
        <time>2021-11-16T09:13:39.883Z</time>
      </trkpt>
      <trkpt lat="39.81837" lon="41.14391">
        <ele>1923.309727</ele>
        <time>2021-11-16T09:13:53.636Z</time>
      </trkpt>
      <trkpt lat="39.81836" lon="41.14297">
        <ele>1922.357575</ele>
        <time>2021-11-16T09:14:07.175Z</time>
      </trkpt>
      <trkpt lat="39.81852" lon="41.14121">
        <ele>1920.434763</ele>
        <time>2021-11-16T09:14:32.044Z</time>
      </trkpt>
      <trkpt lat="39.81879" lon="41.1391">
        <ele>1917.895218</ele>
        <time>2021-11-16T09:15:02.299Z</time>
      </trkpt>
      <trkpt lat="39.81879" lon="41.13767">
        <ele>1916.118112</ele>
        <time>2021-11-16T09:15:22.183Z</time>
      </trkpt>
      <trkpt lat="39.81872" lon="41.13671">
        <ele>1914.515291</ele>
        <time>2021-11-16T09:15:35.342Z</time>
      </trkpt>
      <trkpt lat="39.81836" lon="41.1348">
        <ele>1910.855589</ele>
        <time>2021-11-16T09:16:01.037Z</time>
      </trkpt>
      <trkpt lat="39.81805" lon="41.13364">
        <ele>1908.002944</ele>
        <time>2021-11-16T09:16:16.590Z</time>
      </trkpt>
      <trkpt lat="39.81689" lon="41.13073">
        <ele>1900.105599</ele>
        <time>2021-11-16T09:16:57.265Z</time>
      </trkpt>
      <trkpt lat="39.81212" lon="41.12023">
        <ele>1880.398243</ele>
        <time>2021-11-16T09:19:39.903Z</time>
      </trkpt>
      <trkpt lat="39.81162" lon="41.11932">
        <ele>1879.906053</ele>
        <time>2021-11-16T09:19:58.962Z</time>
      </trkpt>
      <trkpt lat="39.81103" lon="41.11859">
        <ele>1880.359619</ele>
        <time>2021-11-16T09:20:19.756Z</time>
      </trkpt>
      <trkpt lat="39.81049" lon="41.11804">
        <ele>1881.335897</ele>
        <time>2021-11-16T09:20:39.159Z</time>
      </trkpt>
      <trkpt lat="39.80995" lon="41.11777">
        <ele>1882.14485</ele>
        <time>2021-11-16T09:20:55.705Z</time>
      </trkpt>
      <trkpt lat="39.80883" lon="41.11747">
        <ele>1885.415793</ele>
        <time>2021-11-16T09:21:32.099Z</time>
      </trkpt>
      <trkpt lat="39.80849" lon="41.11738">
        <ele>1886.460963</ele>
        <time>2021-11-16T09:21:44.920Z</time>
      </trkpt>
      <trkpt lat="39.80811" lon="41.11738">
        <ele>1887.593214</ele>
        <time>2021-11-16T09:21:59.218Z</time>
      </trkpt>
      <trkpt lat="39.80734" lon="41.11744">
        <ele>1891.306808</ele>
        <time>2021-11-16T09:22:30.336Z</time>
      </trkpt>
      <trkpt lat="39.80675" lon="41.11757">
        <ele>1894.240255</ele>
        <time>2021-11-16T09:22:56.560Z</time>
      </trkpt>
      <trkpt lat="39.80457" lon="41.11843">
        <ele>1905.942211</ele>
        <time>2021-11-16T09:24:34.266Z</time>
      </trkpt>
      <trkpt lat="39.80371" lon="41.11868">
        <ele>1910.856063</ele>
        <time>2021-11-16T09:25:12.635Z</time>
      </trkpt>
      <trkpt lat="39.80265" lon="41.11878">
        <ele>1916.940801</ele>
        <time>2021-11-16T09:26:00.885Z</time>
      </trkpt>
      <trkpt lat="39.80212" lon="41.11875">
        <ele>1920.399788</ele>
        <time>2021-11-16T09:26:26.324Z</time>
      </trkpt>
      <trkpt lat="39.80167" lon="41.11859">
        <ele>1923.432316</ele>
        <time>2021-11-16T09:26:49.082Z</time>
      </trkpt>
      <trkpt lat="39.80021" lon="41.11734">
        <ele>1935.220529</ele>
        <time>2021-11-16T09:28:15.953Z</time>
      </trkpt>
      <trkpt lat="39.79905" lon="41.11653">
        <ele>1944.271745</ele>
        <time>2021-11-16T09:29:21.736Z</time>
      </trkpt>
      <trkpt lat="39.79878" lon="41.11626">
        <ele>1946.623796</ele>
        <time>2021-11-16T09:29:38.839Z</time>
      </trkpt>
      <trkpt lat="39.79857" lon="41.11596">
        <ele>1948.750129</ele>
        <time>2021-11-16T09:29:54.296Z</time>
      </trkpt>
      <trkpt lat="39.79778" lon="41.11438">
        <ele>1958.060763</ele>
        <time>2021-11-16T09:31:05.569Z</time>
      </trkpt>
      <trkpt lat="39.79736" lon="41.11372">
        <ele>1962.205565</ele>
        <time>2021-11-16T09:31:36.187Z</time>
      </trkpt>
      <trkpt lat="39.79707" lon="41.11316">
        <ele>1964.720937</ele>
        <time>2021-11-16T09:31:58.512Z</time>
      </trkpt>
      <trkpt lat="39.79649" lon="41.11158">
        <ele>1970.461619</ele>
        <time>2021-11-16T09:32:50.902Z</time>
      </trkpt>
      <trkpt lat="39.79637" lon="41.11094">
        <ele>1971.761581</ele>
        <time>2021-11-16T09:33:08.615Z</time>
      </trkpt>
      <trkpt lat="39.79556" lon="41.10357">
        <ele>1982.558323</ele>
        <time>2021-11-16T09:35:57.852Z</time>
      </trkpt>
      <trkpt lat="39.79538" lon="41.10258">
        <ele>1983.539077</ele>
        <time>2021-11-16T09:36:18.346Z</time>
      </trkpt>
      <trkpt lat="39.7951" lon="41.10146">
        <ele>1984.29696</ele>
        <time>2021-11-16T09:36:40.894Z</time>
      </trkpt>
      <trkpt lat="39.79476" lon="41.10036">
        <ele>1984.879979</ele>
        <time>2021-11-16T09:37:03.028Z</time>
      </trkpt>
      <trkpt lat="39.79384" lon="41.0984">
        <ele>1986.569621</ele>
        <time>2021-11-16T09:37:47.979Z</time>
      </trkpt>
      <trkpt lat="39.79352" lon="41.09752">
        <ele>1987.907511</ele>
        <time>2021-11-16T09:38:09.460Z</time>
      </trkpt>
      <trkpt lat="39.7927" lon="41.09455">
        <ele>1993.903564</ele>
        <time>2021-11-16T09:39:29.243Z</time>
      </trkpt>
      <trkpt lat="39.79232" lon="41.09334">
        <ele>1996.487424</ele>
        <time>2021-11-16T09:40:02.508Z</time>
      </trkpt>
      <trkpt lat="39.79197" lon="41.09244">
        <ele>1998.296206</ele>
        <time>2021-11-16T09:40:27.010Z</time>
      </trkpt>
      <trkpt lat="39.7915" lon="41.09157">
        <ele>2000.172291</ele>
        <time>2021-11-16T09:40:52.335Z</time>
      </trkpt>
      <trkpt lat="39.79031" lon="41.08982">
        <ele>2003.080361</ele>
        <time>2021-11-16T09:41:44.626Z</time>
      </trkpt>
      <trkpt lat="39.79002" lon="41.08925">
        <ele>2003.121785</ele>
        <time>2021-11-16T09:41:58.116Z</time>
      </trkpt>
      <trkpt lat="39.78865" lon="41.0856">
        <ele>2002.431165</ele>
        <time>2021-11-16T09:43:02.207Z</time>
      </trkpt>
      <trkpt lat="39.78817" lon="41.08475">
        <ele>2002.731635</ele>
        <time>2021-11-16T09:43:19.793Z</time>
      </trkpt>
      <trkpt lat="39.78755" lon="41.08398">
        <ele>2003.045589</ele>
        <time>2021-11-16T09:43:41.187Z</time>
      </trkpt>
      <trkpt lat="39.78696" lon="41.08352">
        <ele>2005.198992</ele>
        <time>2021-11-16T09:44:01.877Z</time>
      </trkpt>
      <trkpt lat="39.78634" lon="41.08312">
        <ele>2007.453158</ele>
        <time>2021-11-16T09:44:26.999Z</time>
      </trkpt>
      <trkpt lat="39.78553" lon="41.08284">
        <ele>2011.297483</ele>
        <time>2021-11-16T09:45:02.258Z</time>
      </trkpt>
      <trkpt lat="39.78355" lon="41.08242">
        <ele>2023.874319</ele>
        <time>2021-11-16T09:46:40.601Z</time>
      </trkpt>
      <trkpt lat="39.78026" lon="41.08141">
        <ele>2045.275719</ele>
        <time>2021-11-16T09:49:21.837Z</time>
      </trkpt>
      <trkpt lat="39.7797" lon="41.08117">
        <ele>2048.719289</ele>
        <time>2021-11-16T09:49:49.650Z</time>
      </trkpt>
      <trkpt lat="39.7787" lon="41.08041">
        <ele>2054.606989</ele>
        <time>2021-11-16T09:50:40.592Z</time>
      </trkpt>
      <trkpt lat="39.77766" lon="41.07901">
        <ele>2059.54812</ele>
        <time>2021-11-16T09:51:33.465Z</time>
      </trkpt>
      <trkpt lat="39.77099" lon="41.06763">
        <ele>2058.582424</ele>
        <time>2021-11-16T09:55:28.738Z</time>
      </trkpt>
      <trkpt lat="39.77065" lon="41.06699">
        <ele>2059.633345</ele>
        <time>2021-11-16T09:55:45.979Z</time>
      </trkpt>
      <trkpt lat="39.77041" lon="41.06637">
        <ele>2060.555646</ele>
        <time>2021-11-16T09:56:02.542Z</time>
      </trkpt>
      <trkpt lat="39.77023" lon="41.06564">
        <ele>2061.782547</ele>
        <time>2021-11-16T09:56:22.445Z</time>
      </trkpt>
      <trkpt lat="39.77012" lon="41.06495">
        <ele>2063.382374</ele>
        <time>2021-11-16T09:56:41.496Z</time>
      </trkpt>
      <trkpt lat="39.77004" lon="41.05701">
        <ele>2080.73008</ele>
        <time>2021-11-16T10:00:08.729Z</time>
      </trkpt>
      <trkpt lat="39.76995" lon="41.05606">
        <ele>2081.880463</ele>
        <time>2021-11-16T10:00:29.729Z</time>
      </trkpt>
      <trkpt lat="39.76946" lon="41.05303">
        <ele>2082.009808</ele>
        <time>2021-11-16T10:01:23.589Z</time>
      </trkpt>
      <trkpt lat="39.76932" lon="41.05183">
        <ele>2081.342444</ele>
        <time>2021-11-16T10:01:40.967Z</time>
      </trkpt>
      <trkpt lat="39.76916" lon="41.05006">
        <ele>2079.458174</ele>
        <time>2021-11-16T10:02:05.478Z</time>
      </trkpt>
      <trkpt lat="39.76907" lon="41.04759">
        <ele>2078.445846</ele>
        <time>2021-11-16T10:02:44.105Z</time>
      </trkpt>
      <trkpt lat="39.76889" lon="41.04672">
        <ele>2079.231831</ele>
        <time>2021-11-16T10:03:01.788Z</time>
      </trkpt>
      <trkpt lat="39.76836" lon="41.04566">
        <ele>2081.178596</ele>
        <time>2021-11-16T10:03:31.149Z</time>
      </trkpt>
      <trkpt lat="39.76813" lon="41.04502">
        <ele>2082.738848</ele>
        <time>2021-11-16T10:03:50.402Z</time>
      </trkpt>
      <trkpt lat="39.76801" lon="41.04438">
        <ele>2085.34267</ele>
        <time>2021-11-16T10:04:10.315Z</time>
      </trkpt>
      <trkpt lat="39.76802" lon="41.04366">
        <ele>2088.181401</ele>
        <time>2021-11-16T10:04:34.038Z</time>
      </trkpt>
      <trkpt lat="39.76854" lon="41.04006">
        <ele>2105.728118</ele>
        <time>2021-11-16T10:06:52.025Z</time>
      </trkpt>
      <trkpt lat="39.76855" lon="41.03935">
        <ele>2108.996216</ele>
        <time>2021-11-16T10:07:17.829Z</time>
      </trkpt>
      <trkpt lat="39.76847" lon="41.03854">
        <ele>2112.717171</ele>
        <time>2021-11-16T10:07:45.936Z</time>
      </trkpt>
      <trkpt lat="39.7682" lon="41.03749">
        <ele>2117.104003</ele>
        <time>2021-11-16T10:08:22.223Z</time>
      </trkpt>
      <trkpt lat="39.76717" lon="41.03468">
        <ele>2128.8874</ele>
        <time>2021-11-16T10:10:00.514Z</time>
      </trkpt>
      <trkpt lat="39.76329" lon="41.02539">
        <ele>2174.25844</ele>
        <time>2021-11-16T10:15:58.213Z</time>
      </trkpt>
      <trkpt lat="39.76304" lon="41.02498">
        <ele>2177.748384</ele>
        <time>2021-11-16T10:16:20.533Z</time>
      </trkpt>
      <trkpt lat="39.76264" lon="41.02451">
        <ele>2182.428443</ele>
        <time>2021-11-16T10:16:52.990Z</time>
      </trkpt>
      <trkpt lat="39.7624" lon="41.02429">
        <ele>2185.025707</ele>
        <time>2021-11-16T10:17:12.257Z</time>
      </trkpt>
      <trkpt lat="39.76167" lon="41.0238">
        <ele>2193.485239</ele>
        <time>2021-11-16T10:18:07.866Z</time>
      </trkpt>
      <trkpt lat="39.76087" lon="41.02353">
        <ele>2202.30304</ele>
        <time>2021-11-16T10:19:03.882Z</time>
      </trkpt>
      <trkpt lat="39.75928" lon="41.02343">
        <ele>2216.396934</ele>
        <time>2021-11-16T10:20:36.893Z</time>
      </trkpt>
      <trkpt lat="39.7584" lon="41.02322">
        <ele>2223.306741</ele>
        <time>2021-11-16T10:21:20.034Z</time>
      </trkpt>
      <trkpt lat="39.75795" lon="41.02305">
        <ele>2226.524766</ele>
        <time>2021-11-16T10:21:42.519Z</time>
      </trkpt>
      <trkpt lat="39.75745" lon="41.02275">
        <ele>2230.289696</ele>
        <time>2021-11-16T10:22:08.938Z</time>
      </trkpt>
      <trkpt lat="39.75701" lon="41.02239">
        <ele>2234.014175</ele>
        <time>2021-11-16T10:22:35.594Z</time>
      </trkpt>
      <trkpt lat="39.75633" lon="41.02154">
        <ele>2242.176589</ele>
        <time>2021-11-16T10:23:28.604Z</time>
      </trkpt>
      <trkpt lat="39.75495" lon="41.0195">
        <ele>2260.729272</ele>
        <time>2021-11-16T10:25:34.094Z</time>
      </trkpt>
      <trkpt lat="39.75422" lon="41.01833">
        <ele>2269.539888</ele>
        <time>2021-11-16T10:26:36.983Z</time>
      </trkpt>
      <trkpt lat="39.75385" lon="41.01754">
        <ele>2274.231043</ele>
        <time>2021-11-16T10:27:10.644Z</time>
      </trkpt>
      <trkpt lat="39.75315" lon="41.01565">
        <ele>2282.705972</ele>
        <time>2021-11-16T10:28:18.249Z</time>
      </trkpt>
      <trkpt lat="39.75284" lon="41.0151">
        <ele>2285.245236</ele>
        <time>2021-11-16T10:28:39.230Z</time>
      </trkpt>
      <trkpt lat="39.75228" lon="41.01443">
        <ele>2288.999529</ele>
        <time>2021-11-16T10:29:09.720Z</time>
      </trkpt>
      <trkpt lat="39.7509" lon="41.0133">
        <ele>2297.691921</ele>
        <time>2021-11-16T10:30:20.474Z</time>
      </trkpt>
      <trkpt lat="39.74923" lon="41.01205">
        <ele>2309.373464</ele>
        <time>2021-11-16T10:31:51.388Z</time>
      </trkpt>
      <trkpt lat="39.74875" lon="41.01175">
        <ele>2312.761721</ele>
        <time>2021-11-16T10:32:17.220Z</time>
      </trkpt>
      <trkpt lat="39.7482" lon="41.01154">
        <ele>2316.397237</ele>
        <time>2021-11-16T10:32:44.761Z</time>
      </trkpt>
      <trkpt lat="39.74729" lon="41.01133">
        <ele>2321.674661</ele>
        <time>2021-11-16T10:33:28.233Z</time>
      </trkpt>
      <trkpt lat="39.74642" lon="41.0113">
        <ele>2326.66047</ele>
        <time>2021-11-16T10:34:06.600Z</time>
      </trkpt>
      <trkpt lat="39.7456" lon="41.0111">
        <ele>2329.901793</ele>
        <time>2021-11-16T10:34:39.947Z</time>
      </trkpt>
      <trkpt lat="39.74531" lon="41.01097">
        <ele>2331.06624</ele>
        <time>2021-11-16T10:34:51.370Z</time>
      </trkpt>
      <trkpt lat="39.74367" lon="41.0098">
        <ele>2336.913029</ele>
        <time>2021-11-16T10:35:54.013Z</time>
      </trkpt>
      <trkpt lat="39.74329" lon="41.00962">
        <ele>2338.016414</ele>
        <time>2021-11-16T10:36:07.257Z</time>
      </trkpt>
      <trkpt lat="39.74274" lon="41.00945">
        <ele>2339.498152</ele>
        <time>2021-11-16T10:36:25.472Z</time>
      </trkpt>
      <trkpt lat="39.74266" lon="41.00943">
        <ele>2339.696785</ele>
        <time>2021-11-16T10:36:28.135Z</time>
      </trkpt>
      <trkpt lat="39.74263" lon="41.00942">
        <ele>2339.782909</ele>
        <time>2021-11-16T10:36:29.267Z</time>
      </trkpt>
      <trkpt lat="39.7425" lon="41.00939">
        <ele>2340.11946</ele>
        <time>2021-11-16T10:36:33.070Z</time>
      </trkpt>
      <trkpt lat="39.74242" lon="41.00938">
        <ele>2340.333037</ele>
        <time>2021-11-16T10:36:36.013Z</time>
      </trkpt>
      <trkpt lat="39.74042" lon="41.00929">
        <ele>2345.68735</ele>
        <time>2021-11-16T10:37:40.973Z</time>
      </trkpt>
      <trkpt lat="39.74005" lon="41.00924">
        <ele>2346.743655</ele>
        <time>2021-11-16T10:37:53.595Z</time>
      </trkpt>
      <trkpt lat="39.73966" lon="41.00908">
        <ele>2347.902402</ele>
        <time>2021-11-16T10:38:07.846Z</time>
      </trkpt>
      <trkpt lat="39.73922" lon="41.00881">
        <ele>2349.093257</ele>
        <time>2021-11-16T10:38:25.113Z</time>
      </trkpt>
      <trkpt lat="39.73878" lon="41.00838">
        <ele>2350.348308</ele>
        <time>2021-11-16T10:38:44.502Z</time>
      </trkpt>
      <trkpt lat="39.7383" lon="41.00765">
        <ele>2352.047283</ele>
        <time>2021-11-16T10:39:07.304Z</time>
      </trkpt>
      <trkpt lat="39.73807" lon="41.00706">
        <ele>2350.987871</ele>
        <time>2021-11-16T10:39:19.249Z</time>
      </trkpt>
      <trkpt lat="39.73794" lon="41.00658">
        <ele>2349.339151</ele>
        <time>2021-11-16T10:39:26.723Z</time>
      </trkpt>
      <trkpt lat="39.73681" lon="41.00109">
        <ele>2328.940069</ele>
        <time>2021-11-16T10:40:32.119Z</time>
      </trkpt>
      <trkpt lat="39.73658" lon="40.99966">
        <ele>2322.300378</ele>
        <time>2021-11-16T10:40:48.464Z</time>
      </trkpt>
      <trkpt lat="39.73646" lon="40.99805">
        <ele>2315.174978</ele>
        <time>2021-11-16T10:41:06.675Z</time>
      </trkpt>
      <trkpt lat="39.73613" lon="40.99031">
        <ele>2287.791613</ele>
        <time>2021-11-16T10:42:37.920Z</time>
      </trkpt>
      <trkpt lat="39.73603" lon="40.9891">
        <ele>2284.239405</ele>
        <time>2021-11-16T10:42:53.031Z</time>
      </trkpt>
      <trkpt lat="39.73582" lon="40.98748">
        <ele>2280.672356</ele>
        <time>2021-11-16T10:43:14.285Z</time>
      </trkpt>
      <trkpt lat="39.73511" lon="40.98347">
        <ele>2271.233314</ele>
        <time>2021-11-16T10:44:07.014Z</time>
      </trkpt>
      <trkpt lat="39.73465" lon="40.98185">
        <ele>2266.428858</ele>
        <time>2021-11-16T10:44:27.882Z</time>
      </trkpt>
      <trkpt lat="39.73427" lon="40.98096">
        <ele>2263.079269</ele>
        <time>2021-11-16T10:44:40.042Z</time>
      </trkpt>
      <trkpt lat="39.73331" lon="40.97914">
        <ele>2255.255497</ele>
        <time>2021-11-16T10:45:06.121Z</time>
      </trkpt>
      <trkpt lat="39.73122" lon="40.97659">
        <ele>2241.304199</ele>
        <time>2021-11-16T10:45:49.210Z</time>
      </trkpt>
      <trkpt lat="39.73033" lon="40.97578">
        <ele>2237.069004</ele>
        <time>2021-11-16T10:46:06.511Z</time>
      </trkpt>
      <trkpt lat="39.73007" lon="40.97562">
        <ele>2235.976678</ele>
        <time>2021-11-16T10:46:11.070Z</time>
      </trkpt>
      <trkpt lat="39.72988" lon="40.9755">
        <ele>2235.207684</ele>
        <time>2021-11-16T10:46:14.633Z</time>
      </trkpt>
      <trkpt lat="39.72929" lon="40.97523">
        <ele>2233.291998</ele>
        <time>2021-11-16T10:46:24.879Z</time>
      </trkpt>
      <trkpt lat="39.72891" lon="40.97523">
        <ele>2232.139865</ele>
        <time>2021-11-16T10:46:31.009Z</time>
      </trkpt>
      <trkpt lat="39.72831" lon="40.97534">
        <ele>2230.290311</ele>
        <time>2021-11-16T10:46:40.916Z</time>
      </trkpt>
      <trkpt lat="39.72766" lon="40.97554">
        <ele>2228.945066</ele>
        <time>2021-11-16T10:46:52.047Z</time>
      </trkpt>
      <trkpt lat="39.72722" lon="40.97581">
        <ele>2228.073264</ele>
        <time>2021-11-16T10:47:00.368Z</time>
      </trkpt>
      <trkpt lat="39.72541" lon="40.97773">
        <ele>2226.579376</ele>
        <time>2021-11-16T10:47:48.277Z</time>
      </trkpt>
      <trkpt lat="39.72509" lon="40.97802">
        <ele>2226.952096</ele>
        <time>2021-11-16T10:47:59.328Z</time>
      </trkpt>
      <trkpt lat="39.72446" lon="40.97834">
        <ele>2228.477801</ele>
        <time>2021-11-16T10:48:19.764Z</time>
      </trkpt>
      <trkpt lat="39.72405" lon="40.97847">
        <ele>2229.453691</ele>
        <time>2021-11-16T10:48:33.884Z</time>
      </trkpt>
      <trkpt lat="39.72362" lon="40.9785">
        <ele>2230.422912</ele>
        <time>2021-11-16T10:48:48.596Z</time>
      </trkpt>
      <trkpt lat="39.72262" lon="40.97846">
        <ele>2233.560125</ele>
        <time>2021-11-16T10:49:23.876Z</time>
      </trkpt>
      <trkpt lat="39.71867" lon="40.97794">
        <ele>2246.704295</ele>
        <time>2021-11-16T10:51:44.003Z</time>
      </trkpt>
      <trkpt lat="39.71783" lon="40.97756">
        <ele>2250.007874</ele>
        <time>2021-11-16T10:52:17.207Z</time>
      </trkpt>
      <trkpt lat="39.71568" lon="40.9757">
        <ele>2261.334068</ele>
        <time>2021-11-16T10:53:58.613Z</time>
      </trkpt>
      <trkpt lat="39.71533" lon="40.97545">
        <ele>2263.185278</ele>
        <time>2021-11-16T10:54:15.426Z</time>
      </trkpt>
      <trkpt lat="39.71474" lon="40.97517">
        <ele>2266.723442</ele>
        <time>2021-11-16T10:54:43.781Z</time>
      </trkpt>
      <trkpt lat="39.71384" lon="40.97491">
        <ele>2272.489909</ele>
        <time>2021-11-16T10:55:28.226Z</time>
      </trkpt>
      <trkpt lat="39.71326" lon="40.97492">
        <ele>2276.024069</ele>
        <time>2021-11-16T10:55:56.454Z</time>
      </trkpt>
      <trkpt lat="39.7125" lon="40.97507">
        <ele>2280.283659</ele>
        <time>2021-11-16T10:56:32.833Z</time>
      </trkpt>
      <trkpt lat="39.71215" lon="40.97521">
        <ele>2282.314325</ele>
        <time>2021-11-16T10:56:49.329Z</time>
      </trkpt>
      <trkpt lat="39.71154" lon="40.9755">
        <ele>2285.684434</ele>
        <time>2021-11-16T10:57:15.746Z</time>
      </trkpt>
      <trkpt lat="39.71083" lon="40.97602">
        <ele>2287.730565</ele>
        <time>2021-11-16T10:57:45.112Z</time>
      </trkpt>
      <trkpt lat="39.70957" lon="40.97672">
        <ele>2289.77522</ele>
        <time>2021-11-16T10:58:22.689Z</time>
      </trkpt>
      <trkpt lat="39.70326" lon="40.98071">
        <ele>2285.366148</ele>
        <time>2021-11-16T11:00:43.658Z</time>
      </trkpt>
      <trkpt lat="39.70207" lon="40.98151">
        <ele>2282.394102</ele>
        <time>2021-11-16T11:01:06.253Z</time>
      </trkpt>
      <trkpt lat="39.69841" lon="40.98373">
        <ele>2271.676752</ele>
        <time>2021-11-16T11:02:12.900Z</time>
      </trkpt>
      <trkpt lat="39.69529" lon="40.9857">
        <ele>2272.748752</ele>
        <time>2021-11-16T11:03:39.423Z</time>
      </trkpt>
      <trkpt lat="39.69493" lon="40.98597">
        <ele>2272.818877</ele>
        <time>2021-11-16T11:03:49.154Z</time>
      </trkpt>
      <trkpt lat="39.69464" lon="40.98634">
        <ele>2272.887189</ele>
        <time>2021-11-16T11:03:58.339Z</time>
      </trkpt>
      <trkpt lat="39.69434" lon="40.9869">
        <ele>2272.975899</ele>
        <time>2021-11-16T11:04:09.966Z</time>
      </trkpt>
      <trkpt lat="39.69409" lon="40.98769">
        <ele>2273.088731</ele>
        <time>2021-11-16T11:04:24.350Z</time>
      </trkpt>
      <trkpt lat="39.6939" lon="40.98883">
        <ele>2273.248258</ele>
        <time>2021-11-16T11:04:45.587Z</time>
      </trkpt>
      <trkpt lat="39.69391" lon="40.99008">
        <ele>2272.67469</ele>
        <time>2021-11-16T11:05:08.162Z</time>
      </trkpt>
      <trkpt lat="39.69389" lon="40.99137">
        <ele>2270.982743</ele>
        <time>2021-11-16T11:05:26.470Z</time>
      </trkpt>
      <trkpt lat="39.69389" lon="40.99278">
        <ele>2266.715433</ele>
        <time>2021-11-16T11:05:43.485Z</time>
      </trkpt>
      <trkpt lat="39.69364" lon="40.99406">
        <ele>2261.355036</ele>
        <time>2021-11-16T11:05:58.330Z</time>
      </trkpt>
      <trkpt lat="39.69331" lon="40.99471">
        <ele>2257.593179</ele>
        <time>2021-11-16T11:06:07.005Z</time>
      </trkpt>
      <trkpt lat="39.6929" lon="40.99533">
        <ele>2253.50549</ele>
        <time>2021-11-16T11:06:16.120Z</time>
      </trkpt>
      <trkpt lat="39.69251" lon="40.99574">
        <ele>2250.227376</ele>
        <time>2021-11-16T11:06:23.428Z</time>
      </trkpt>
      <trkpt lat="39.69203" lon="40.99609">
        <ele>2246.423809</ele>
        <time>2021-11-16T11:06:31.339Z</time>
      </trkpt>
      <trkpt lat="39.69153" lon="40.99632">
        <ele>2242.622237</ele>
        <time>2021-11-16T11:06:39.006Z</time>
      </trkpt>
      <trkpt lat="39.69021" lon="40.99668">
        <ele>2232.604091</ele>
        <time>2021-11-16T11:06:58.041Z</time>
      </trkpt>
      <trkpt lat="39.68935" lon="40.99713">
        <ele>2225.124426</ele>
        <time>2021-11-16T11:07:10.981Z</time>
      </trkpt>
      <trkpt lat="39.68879" lon="40.99762">
        <ele>2219.586039</ele>
        <time>2021-11-16T11:07:20.384Z</time>
      </trkpt>
      <trkpt lat="39.68692" lon="40.99976">
        <ele>2198.419635</ele>
        <time>2021-11-16T11:07:55.084Z</time>
      </trkpt>
      <trkpt lat="39.68665" lon="41.0002">
        <ele>2194.709914</ele>
        <time>2021-11-16T11:08:01.076Z</time>
      </trkpt>
      <trkpt lat="39.6858" lon="41.00261">
        <ele>2178.649113</ele>
        <time>2021-11-16T11:08:29.574Z</time>
      </trkpt>
      <trkpt lat="39.68555" lon="41.00314">
        <ele>2176.042351</ele>
        <time>2021-11-16T11:08:36.703Z</time>
      </trkpt>
      <trkpt lat="39.68521" lon="41.00357">
        <ele>2174.059909</ele>
        <time>2021-11-16T11:08:43.960Z</time>
      </trkpt>
      <trkpt lat="39.68489" lon="41.00374">
        <ele>2172.623468</ele>
        <time>2021-11-16T11:08:49.397Z</time>
      </trkpt>
      <trkpt lat="39.68275" lon="41.00429">
        <ele>2165.09629</ele>
        <time>2021-11-16T11:09:25.667Z</time>
      </trkpt>
      <trkpt lat="39.68071" lon="41.0052">
        <ele>2156.923799</ele>
        <time>2021-11-16T11:09:59.488Z</time>
      </trkpt>
      <trkpt lat="39.67936" lon="41.00638">
        <ele>2151.798075</ele>
        <time>2021-11-16T11:10:25.859Z</time>
      </trkpt>
      <trkpt lat="39.67876" lon="41.00699">
        <ele>2150.775388</ele>
        <time>2021-11-16T11:10:39.431Z</time>
      </trkpt>
      <trkpt lat="39.67807" lon="41.00752">
        <ele>2149.915363</ele>
        <time>2021-11-16T11:10:55.307Z</time>
      </trkpt>
      <trkpt lat="39.67742" lon="41.00791">
        <ele>2149.673128</ele>
        <time>2021-11-16T11:11:11.897Z</time>
      </trkpt>
      <trkpt lat="39.6759" lon="41.00856">
        <ele>2150.078063</ele>
        <time>2021-11-16T11:11:50.604Z</time>
      </trkpt>
      <trkpt lat="39.67515" lon="41.00877">
        <ele>2149.905304</ele>
        <time>2021-11-16T11:12:07.287Z</time>
      </trkpt>
      <trkpt lat="39.67441" lon="41.00883">
        <ele>2149.738989</ele>
        <time>2021-11-16T11:12:22.101Z</time>
      </trkpt>
      <trkpt lat="39.67275" lon="41.00878">
        <ele>2149.650683</ele>
        <time>2021-11-16T11:12:56.786Z</time>
      </trkpt>
      <trkpt lat="39.67158" lon="41.00883">
        <ele>2151.250885</ele>
        <time>2021-11-16T11:13:29.483Z</time>
      </trkpt>
      <trkpt lat="39.67023" lon="41.0093">
        <ele>2153.923754</ele>
        <time>2021-11-16T11:14:13.781Z</time>
      </trkpt>
      <trkpt lat="39.66955" lon="41.00978">
        <ele>2155.649604</ele>
        <time>2021-11-16T11:14:37.983Z</time>
      </trkpt>
      <trkpt lat="39.66852" lon="41.01076">
        <ele>2158.302994</ele>
        <time>2021-11-16T11:15:16.465Z</time>
      </trkpt>
      <trkpt lat="39.66579" lon="41.013">
        <ele>2164.353948</ele>
        <time>2021-11-16T11:16:53.742Z</time>
      </trkpt>
      <trkpt lat="39.66335" lon="41.01522">
        <ele>2167.18113</ele>
        <time>2021-11-16T11:18:12.375Z</time>
      </trkpt>
      <trkpt lat="39.66074" lon="41.01783">
        <ele>2163.280335</ele>
        <time>2021-11-16T11:19:16.025Z</time>
      </trkpt>
      <trkpt lat="39.65942" lon="41.01949">
        <ele>2156.450788</ele>
        <time>2021-11-16T11:19:44.855Z</time>
      </trkpt>
      <trkpt lat="39.65908" lon="41.01963">
        <ele>2154.918385</ele>
        <time>2021-11-16T11:19:50.066Z</time>
      </trkpt>
      <trkpt lat="39.65888" lon="41.01958">
        <ele>2153.87408</ele>
        <time>2021-11-16T11:19:53.102Z</time>
      </trkpt>
      <trkpt lat="39.65873" lon="41.01946">
        <ele>2152.722312</ele>
        <time>2021-11-16T11:19:55.815Z</time>
      </trkpt>
      <trkpt lat="39.65853" lon="41.01903">
        <ele>2150.302542</ele>
        <time>2021-11-16T11:20:01.507Z</time>
      </trkpt>
      <trkpt lat="39.65788" lon="41.01546">
        <ele>2130.875193</ele>
        <time>2021-11-16T11:20:42.013Z</time>
      </trkpt>
      <trkpt lat="39.65772" lon="41.0149">
        <ele>2126.513541</ele>
        <time>2021-11-16T11:20:48.326Z</time>
      </trkpt>
      <trkpt lat="39.65756" lon="41.01468">
        <ele>2124.039585</ele>
        <time>2021-11-16T11:20:51.569Z</time>
      </trkpt>
      <trkpt lat="39.65729" lon="41.01449">
        <ele>2120.888523</ele>
        <time>2021-11-16T11:20:55.686Z</time>
      </trkpt>
      <trkpt lat="39.65706" lon="41.01447">
        <ele>2118.550955</ele>
        <time>2021-11-16T11:20:58.717Z</time>
      </trkpt>
      <trkpt lat="39.65677" lon="41.01464">
        <ele>2115.227276</ele>
        <time>2021-11-16T11:21:03.036Z</time>
      </trkpt>
      <trkpt lat="39.65632" lon="41.01529">
        <ele>2108.769006</ele>
        <time>2021-11-16T11:21:11.984Z</time>
      </trkpt>
      <trkpt lat="39.65535" lon="41.01681">
        <ele>2095.541246</ele>
        <time>2021-11-16T11:21:32.994Z</time>
      </trkpt>
      <trkpt lat="39.655" lon="41.01797">
        <ele>2093.640821</ele>
        <time>2021-11-16T11:21:48.437Z</time>
      </trkpt>
      <trkpt lat="39.65486" lon="41.01819">
        <ele>2093.216325</ele>
        <time>2021-11-16T11:21:52.666Z</time>
      </trkpt>
      <trkpt lat="39.65456" lon="41.01847">
        <ele>2092.47126</ele>
        <time>2021-11-16T11:22:02.130Z</time>
      </trkpt>
      <trkpt lat="39.65433" lon="41.01852">
        <ele>2092.020273</ele>
        <time>2021-11-16T11:22:09.240Z</time>
      </trkpt>
      <trkpt lat="39.6541" lon="41.01851">
        <ele>2092.887556</ele>
        <time>2021-11-16T11:22:16.980Z</time>
      </trkpt>
      <trkpt lat="39.65386" lon="41.01829">
        <ele>2094.024478</ele>
        <time>2021-11-16T11:22:27.649Z</time>
      </trkpt>
      <trkpt lat="39.65376" lon="41.01785">
        <ele>2095.391133</ele>
        <time>2021-11-16T11:22:41.521Z</time>
      </trkpt>
      <trkpt lat="39.65366" lon="41.01668">
        <ele>2098.885433</ele>
        <time>2021-11-16T11:23:18.786Z</time>
      </trkpt>
      <trkpt lat="39.6537" lon="41.01559">
        <ele>2101.940429</ele>
        <time>2021-11-16T11:23:51.514Z</time>
      </trkpt>
      <trkpt lat="39.65399" lon="41.01446">
        <ele>2105.328619</ele>
        <time>2021-11-16T11:24:23.454Z</time>
      </trkpt>
      <trkpt lat="39.65398" lon="41.01412">
        <ele>2106.384837</ele>
        <time>2021-11-16T11:24:32.457Z</time>
      </trkpt>
      <trkpt lat="39.65384" lon="41.01366">
        <ele>2108.002613</ele>
        <time>2021-11-16T11:24:44.976Z</time>
      </trkpt>
      <trkpt lat="39.65334" lon="41.01285">
        <ele>2111.39318</ele>
        <time>2021-11-16T11:25:15.067Z</time>
      </trkpt>
      <trkpt lat="39.65324" lon="41.01261">
        <ele>2112.270658</ele>
        <time>2021-11-16T11:25:24.127Z</time>
      </trkpt>
      <trkpt lat="39.65322" lon="41.01255">
        <ele>2112.472619</ele>
        <time>2021-11-16T11:25:26.815Z</time>
      </trkpt>
      <trkpt lat="39.65311" lon="41.01206">
        <ele>2114.671269</ele>
        <time>2021-11-16T11:25:46.270Z</time>
      </trkpt>
      <trkpt lat="39.65308" lon="41.01165">
        <ele>2116.708988</ele>
        <time>2021-11-16T11:26:02.588Z</time>
      </trkpt>
      <trkpt lat="39.65307" lon="41.01156">
        <ele>2117.15206</ele>
        <time>2021-11-16T11:26:06.260Z</time>
      </trkpt>
      <trkpt lat="39.65306" lon="41.01093">
        <ele>2120.253058</ele>
        <time>2021-11-16T11:26:31.309Z</time>
      </trkpt>
      <trkpt lat="39.65301" lon="41.0104">
        <ele>2122.912853</ele>
        <time>2021-11-16T11:26:52.284Z</time>
      </trkpt>
      <trkpt lat="39.65282" lon="41.00982">
        <ele>2124.822011</ele>
        <time>2021-11-16T11:27:15.944Z</time>
      </trkpt>
      <trkpt lat="39.65183" lon="41.00797">
        <ele>2124.680894</ele>
        <time>2021-11-16T11:27:55.528Z</time>
      </trkpt>
      <trkpt lat="39.65077" lon="41.00638">
        <ele>2112.504913</ele>
        <time>2021-11-16T11:28:17.898Z</time>
      </trkpt>
      <trkpt lat="39.6494" lon="41.00483">
        <ele>2094.732182</ele>
        <time>2021-11-16T11:28:42.600Z</time>
      </trkpt>
      <trkpt lat="39.6487" lon="41.00421">
        <ele>2088.902779</ele>
        <time>2021-11-16T11:28:54.449Z</time>
      </trkpt>
      <trkpt lat="39.64779" lon="41.00372">
        <ele>2082.182506</ele>
        <time>2021-11-16T11:29:08.959Z</time>
      </trkpt>
      <trkpt lat="39.64672" lon="41.00327">
        <ele>2078.141461</ele>
        <time>2021-11-16T11:29:26.733Z</time>
      </trkpt>
      <trkpt lat="39.64526" lon="41.00299">
        <ele>2073.628592</ele>
        <time>2021-11-16T11:29:51.761Z</time>
      </trkpt>
      <trkpt lat="39.64278" lon="41.00316">
        <ele>2067.512846</ele>
        <time>2021-11-16T11:30:33.450Z</time>
      </trkpt>
      <trkpt lat="39.64178" lon="41.0031">
        <ele>2066.817488</ele>
        <time>2021-11-16T11:30:52.302Z</time>
      </trkpt>
      <trkpt lat="39.63966" lon="41.00258">
        <ele>2067.160926</ele>
        <time>2021-11-16T11:31:48.167Z</time>
      </trkpt>
      <trkpt lat="39.63903" lon="41.00251">
        <ele>2067.364492</ele>
        <time>2021-11-16T11:32:02.481Z</time>
      </trkpt>
      <trkpt lat="39.63723" lon="41.00259">
        <ele>2064.626238</ele>
        <time>2021-11-16T11:32:35.099Z</time>
      </trkpt>
      <trkpt lat="39.63671" lon="41.00246">
        <ele>2063.368724</ele>
        <time>2021-11-16T11:32:44.065Z</time>
      </trkpt>
      <trkpt lat="39.63601" lon="41.00209">
        <ele>2061.443267</ele>
        <time>2021-11-16T11:32:56.840Z</time>
      </trkpt>
      <trkpt lat="39.6347" lon="41.0009">
        <ele>2057.625148</ele>
        <time>2021-11-16T11:33:23.672Z</time>
      </trkpt>
      <trkpt lat="39.63407" lon="41.00024">
        <ele>2055.759882</ele>
        <time>2021-11-16T11:33:37.739Z</time>
      </trkpt>
      <trkpt lat="39.63373" lon="40.99963">
        <ele>2055.294242</ele>
        <time>2021-11-16T11:33:48.420Z</time>
      </trkpt>
      <trkpt lat="39.63317" lon="40.99822">
        <ele>2054.32703</ele>
        <time>2021-11-16T11:34:13.852Z</time>
      </trkpt>
      <trkpt lat="39.63292" lon="40.9977">
        <ele>2054.063086</ele>
        <time>2021-11-16T11:34:24.734Z</time>
      </trkpt>
      <trkpt lat="39.63262" lon="40.99731">
        <ele>2053.823073</ele>
        <time>2021-11-16T11:34:34.307Z</time>
      </trkpt>
      <trkpt lat="39.63214" lon="40.99706">
        <ele>2053.530945</ele>
        <time>2021-11-16T11:34:44.956Z</time>
      </trkpt>
      <trkpt lat="39.63164" lon="40.99697">
        <ele>2052.815228</ele>
        <time>2021-11-16T11:34:54.586Z</time>
      </trkpt>
      <trkpt lat="39.6312" lon="40.99706">
        <ele>2050.998677</ele>
        <time>2021-11-16T11:35:02.232Z</time>
      </trkpt>
      <trkpt lat="39.63033" lon="40.99744">
        <ele>2047.279768</ele>
        <time>2021-11-16T11:35:16.376Z</time>
      </trkpt>
      <trkpt lat="39.62997" lon="40.99745">
        <ele>2045.582045</ele>
        <time>2021-11-16T11:35:21.713Z</time>
      </trkpt>
      <trkpt lat="39.62956" lon="40.99731">
        <ele>2042.190337</ele>
        <time>2021-11-16T11:35:27.735Z</time>
      </trkpt>
      <trkpt lat="39.62915" lon="40.997">
        <ele>2038.438659</ele>
        <time>2021-11-16T11:35:34.294Z</time>
      </trkpt>
      <trkpt lat="39.62887" lon="40.9966">
        <ele>2035.067653</ele>
        <time>2021-11-16T11:35:40.134Z</time>
      </trkpt>
      <trkpt lat="39.6287" lon="40.99622">
        <ele>2032.396962</ele>
        <time>2021-11-16T11:35:44.738Z</time>
      </trkpt>
      <trkpt lat="39.62854" lon="40.99561">
        <ele>2028.105784</ele>
        <time>2021-11-16T11:35:51.598Z</time>
      </trkpt>
      <trkpt lat="39.62812" lon="40.99328">
        <ele>2011.794744</ele>
        <time>2021-11-16T11:36:17.079Z</time>
      </trkpt>
      <trkpt lat="39.62796" lon="40.99286">
        <ele>2008.432536</ele>
        <time>2021-11-16T11:36:22.138Z</time>
      </trkpt>
      <trkpt lat="39.62763" lon="40.99243">
        <ele>2004.15249</ele>
        <time>2021-11-16T11:36:28.556Z</time>
      </trkpt>
      <trkpt lat="39.62724" lon="40.99211">
        <ele>1999.96178</ele>
        <time>2021-11-16T11:36:34.803Z</time>
      </trkpt>
      <trkpt lat="39.62677" lon="40.99197">
        <ele>1995.482573</ele>
        <time>2021-11-16T11:36:41.443Z</time>
      </trkpt>
      <trkpt lat="39.62632" lon="40.99195">
        <ele>1991.318477</ele>
        <time>2021-11-16T11:36:47.632Z</time>
      </trkpt>
      <trkpt lat="39.62584" lon="40.9922">
        <ele>1986.617246</ele>
        <time>2021-11-16T11:36:54.636Z</time>
      </trkpt>
      <trkpt lat="39.62553" lon="40.99251">
        <ele>1982.981796</ele>
        <time>2021-11-16T11:37:00.095Z</time>
      </trkpt>
      <trkpt lat="39.62411" lon="40.99417">
        <ele>1968.187408</ele>
        <time>2021-11-16T11:37:26.957Z</time>
      </trkpt>
      <trkpt lat="39.62356" lon="40.99461">
        <ele>1964.671475</ele>
        <time>2021-11-16T11:37:36.291Z</time>
      </trkpt>
      <trkpt lat="39.62299" lon="40.99483">
        <ele>1961.371038</ele>
        <time>2021-11-16T11:37:45.317Z</time>
      </trkpt>
      <trkpt lat="39.62252" lon="40.99494">
        <ele>1958.809989</ele>
        <time>2021-11-16T11:37:52.691Z</time>
      </trkpt>
      <trkpt lat="39.62188" lon="40.99489">
        <ele>1957.503744</ele>
        <time>2021-11-16T11:38:03.408Z</time>
      </trkpt>
      <trkpt lat="39.62134" lon="40.99474">
        <ele>1956.38392</ele>
        <time>2021-11-16T11:38:13.506Z</time>
      </trkpt>
      <trkpt lat="39.62094" lon="40.99452">
        <ele>1955.517236</ele>
        <time>2021-11-16T11:38:21.957Z</time>
      </trkpt>
      <trkpt lat="39.62052" lon="40.99419">
        <ele>1954.52248</ele>
        <time>2021-11-16T11:38:31.516Z</time>
      </trkpt>
      <trkpt lat="39.61989" lon="40.99349">
        <ele>1952.835136</ele>
        <time>2021-11-16T11:38:46.915Z</time>
      </trkpt>
      <trkpt lat="39.61978" lon="40.99336">
        <ele>1952.524824</ele>
        <time>2021-11-16T11:38:49.577Z</time>
      </trkpt>
      <trkpt lat="39.61881" lon="40.99216">
        <ele>1947.581115</ele>
        <time>2021-11-16T11:39:10.883Z</time>
      </trkpt>
      <trkpt lat="39.61813" lon="40.99129">
        <ele>1943.125765</ele>
        <time>2021-11-16T11:39:25.071Z</time>
      </trkpt>
      <trkpt lat="39.61681" lon="40.98915">
        <ele>1931.047685</ele>
        <time>2021-11-16T11:39:56.084Z</time>
      </trkpt>
      <trkpt lat="39.61487" lon="40.98443">
        <ele>1910.567828</ele>
        <time>2021-11-16T11:40:58.010Z</time>
      </trkpt>
      <trkpt lat="39.61479" lon="40.98428">
        <ele>1910.006771</ele>
        <time>2021-11-16T11:41:00.226Z</time>
      </trkpt>
      <trkpt lat="39.61457" lon="40.98388">
        <ele>1908.509098</ele>
        <time>2021-11-16T11:41:06.262Z</time>
      </trkpt>
      <trkpt lat="39.61416" lon="40.9833">
        <ele>1906.496326</ele>
        <time>2021-11-16T11:41:16.512Z</time>
      </trkpt>
      <trkpt lat="39.61311" lon="40.98219">
        <ele>1904.595912</ele>
        <time>2021-11-16T11:41:41.756Z</time>
      </trkpt>
      <trkpt lat="39.61244" lon="40.98184">
        <ele>1903.791272</ele>
        <time>2021-11-16T11:41:56.692Z</time>
      </trkpt>
      <trkpt lat="39.61153" lon="40.98155">
        <ele>1902.932491</ele>
        <time>2021-11-16T11:42:14.910Z</time>
      </trkpt>
      <trkpt lat="39.61137" lon="40.9815">
        <ele>1902.774227</ele>
        <time>2021-11-16T11:42:18.231Z</time>
      </trkpt>
      <trkpt lat="39.61104" lon="40.9814">
        <ele>1902.396132</ele>
        <time>2021-11-16T11:42:24.653Z</time>
      </trkpt>
      <trkpt lat="39.61052" lon="40.98128">
        <ele>1901.535704</ele>
        <time>2021-11-16T11:42:34.325Z</time>
      </trkpt>
      <trkpt lat="39.60928" lon="40.98064">
        <ele>1899.284083</ele>
        <time>2021-11-16T11:42:58.087Z</time>
      </trkpt>
      <trkpt lat="39.60854" lon="40.98005">
        <ele>1897.525241</ele>
        <time>2021-11-16T11:43:13.686Z</time>
      </trkpt>
      <trkpt lat="39.60811" lon="40.97965">
        <ele>1896.455296</ele>
        <time>2021-11-16T11:43:23.075Z</time>
      </trkpt>
      <trkpt lat="39.60719" lon="40.97863">
        <ele>1893.357349</ele>
        <time>2021-11-16T11:43:43.442Z</time>
      </trkpt>
      <trkpt lat="39.60707" lon="40.9785">
        <ele>1892.938163</ele>
        <time>2021-11-16T11:43:45.990Z</time>
      </trkpt>
      <trkpt lat="39.60659" lon="40.97799">
        <ele>1891.271066</ele>
        <time>2021-11-16T11:43:56.097Z</time>
      </trkpt>
      <trkpt lat="39.6053" lon="40.97662">
        <ele>1887.807656</ele>
        <time>2021-11-16T11:44:24.498Z</time>
      </trkpt>
      <trkpt lat="39.60481" lon="40.97612">
        <ele>1887.673399</ele>
        <time>2021-11-16T11:44:37.773Z</time>
      </trkpt>
      <trkpt lat="39.60405" lon="40.97532">
        <ele>1888.300734</ele>
        <time>2021-11-16T11:45:02.912Z</time>
      </trkpt>
      <trkpt lat="39.59829" lon="40.96952">
        <ele>1901.31225</ele>
        <time>2021-11-16T11:48:36.572Z</time>
      </trkpt>
      <trkpt lat="39.59438" lon="40.96547">
        <ele>1918.699026</ele>
        <time>2021-11-16T11:51:40.228Z</time>
      </trkpt>
      <trkpt lat="39.59295" lon="40.96393">
        <ele>1924.973596</ele>
        <time>2021-11-16T11:52:47.169Z</time>
      </trkpt>
      <trkpt lat="39.59225" lon="40.96304">
        <ele>1927.935251</ele>
        <time>2021-11-16T11:53:21.292Z</time>
      </trkpt>
      <trkpt lat="39.59157" lon="40.96189">
        <ele>1930.777962</ele>
        <time>2021-11-16T11:53:57.651Z</time>
      </trkpt>
      <trkpt lat="39.59085" lon="40.96043">
        <ele>1933.249673</ele>
        <time>2021-11-16T11:54:36.964Z</time>
      </trkpt>
      <trkpt lat="39.59026" lon="40.95881">
        <ele>1935.431085</ele>
        <time>2021-11-16T11:55:14.968Z</time>
      </trkpt>
      <trkpt lat="39.58965" lon="40.95628">
        <ele>1939.047186</ele>
        <time>2021-11-16T11:56:13.623Z</time>
      </trkpt>
      <trkpt lat="39.58951" lon="40.95532">
        <ele>1940.675505</ele>
        <time>2021-11-16T11:56:37.879Z</time>
      </trkpt>
      <trkpt lat="39.58944" lon="40.95412">
        <ele>1942.744065</ele>
        <time>2021-11-16T11:57:08.538Z</time>
      </trkpt>
      <trkpt lat="39.58941" lon="40.95234">
        <ele>1945.413171</ele>
        <time>2021-11-16T11:57:50.936Z</time>
      </trkpt>
      <trkpt lat="39.58958" lon="40.95035">
        <ele>1946.378429</ele>
        <time>2021-11-16T11:58:28.038Z</time>
      </trkpt>
      <trkpt lat="39.58982" lon="40.94899">
        <ele>1945.133056</ele>
        <time>2021-11-16T11:58:49.210Z</time>
      </trkpt>
      <trkpt lat="39.59018" lon="40.94753">
        <ele>1942.828067</ele>
        <time>2021-11-16T11:59:10.085Z</time>
      </trkpt>
      <trkpt lat="39.59051" lon="40.94598">
        <ele>1939.076366</ele>
        <time>2021-11-16T11:59:30.113Z</time>
      </trkpt>
      <trkpt lat="39.59334" lon="40.9348">
        <ele>1900.011976</ele>
        <time>2021-11-16T12:01:50.007Z</time>
      </trkpt>
      <trkpt lat="39.59453" lon="40.93037">
        <ele>1894.449122</ele>
        <time>2021-11-16T12:02:57.828Z</time>
      </trkpt>
      <trkpt lat="39.59491" lon="40.92875">
        <ele>1891.101796</ele>
        <time>2021-11-16T12:03:20.260Z</time>
      </trkpt>
      <trkpt lat="39.5963" lon="40.92341">
        <ele>1875.179519</ele>
        <time>2021-11-16T12:04:29.309Z</time>
      </trkpt>
      <trkpt lat="39.59661" lon="40.92188">
        <ele>1869.164326</ele>
        <time>2021-11-16T12:04:47.507Z</time>
      </trkpt>
      <trkpt lat="39.59677" lon="40.92051">
        <ele>1864.565671</ele>
        <time>2021-11-16T12:05:03.569Z</time>
      </trkpt>
      <trkpt lat="39.59672" lon="40.91864">
        <ele>1859.49256</ele>
        <time>2021-11-16T12:05:26.956Z</time>
      </trkpt>
      <trkpt lat="39.59657" lon="40.91741">
        <ele>1857.412091</ele>
        <time>2021-11-16T12:05:44.449Z</time>
      </trkpt>
      <trkpt lat="39.5963" lon="40.916">
        <ele>1854.796672</ele>
        <time>2021-11-16T12:06:04.090Z</time>
      </trkpt>
      <trkpt lat="39.59618" lon="40.91563">
        <ele>1854.048511</ele>
        <time>2021-11-16T12:06:09.323Z</time>
      </trkpt>
      <trkpt lat="39.5959" lon="40.91471">
        <ele>1852.179362</ele>
        <time>2021-11-16T12:06:22.119Z</time>
      </trkpt>
      <trkpt lat="39.59547" lon="40.91358">
        <ele>1849.317611</ele>
        <time>2021-11-16T12:06:37.940Z</time>
      </trkpt>
      <trkpt lat="39.59471" lon="40.91214">
        <ele>1845.441434</ele>
        <time>2021-11-16T12:07:00.250Z</time>
      </trkpt>
      <trkpt lat="39.59309" lon="40.90994">
        <ele>1839.081769</ele>
        <time>2021-11-16T12:07:39.555Z</time>
      </trkpt>
      <trkpt lat="39.59268" lon="40.90955">
        <ele>1837.74861</ele>
        <time>2021-11-16T12:07:48.145Z</time>
      </trkpt>
      <trkpt lat="39.59126" lon="40.90865">
        <ele>1833.166158</ele>
        <time>2021-11-16T12:08:14.741Z</time>
      </trkpt>
      <trkpt lat="39.58979" lon="40.90763">
        <ele>1827.43582</ele>
        <time>2021-11-16T12:08:41.425Z</time>
      </trkpt>
      <trkpt lat="39.58817" lon="40.90663">
        <ele>1820.354658</ele>
        <time>2021-11-16T12:09:09.680Z</time>
      </trkpt>
      <trkpt lat="39.58432" lon="40.90446">
        <ele>1801.600687</ele>
        <time>2021-11-16T12:10:14.288Z</time>
      </trkpt>
      <trkpt lat="39.58237" lon="40.90345">
        <ele>1791.005029</ele>
        <time>2021-11-16T12:10:45.686Z</time>
      </trkpt>
      <trkpt lat="39.58139" lon="40.90301">
        <ele>1786.560596</ele>
        <time>2021-11-16T12:11:01.826Z</time>
      </trkpt>
      <trkpt lat="39.58079" lon="40.90273">
        <ele>1784.006133</ele>
        <time>2021-11-16T12:11:11.886Z</time>
      </trkpt>
      <trkpt lat="39.57999" lon="40.90254">
        <ele>1781.219446</ele>
        <time>2021-11-16T12:11:25.280Z</time>
      </trkpt>
      <trkpt lat="39.57899" lon="40.9025">
        <ele>1777.724255</ele>
        <time>2021-11-16T12:11:41.375Z</time>
      </trkpt>
      <trkpt lat="39.57818" lon="40.90256">
        <ele>1774.390871</ele>
        <time>2021-11-16T12:11:54.059Z</time>
      </trkpt>
      <trkpt lat="39.57745" lon="40.90279">
        <ele>1771.296232</ele>
        <time>2021-11-16T12:12:05.706Z</time>
      </trkpt>
      <trkpt lat="39.57641" lon="40.90325">
        <ele>1767.631217</ele>
        <time>2021-11-16T12:12:22.971Z</time>
      </trkpt>
      <trkpt lat="39.57544" lon="40.90399">
        <ele>1764.617327</ele>
        <time>2021-11-16T12:12:42.143Z</time>
      </trkpt>
      <trkpt lat="39.57471" lon="40.90483">
        <ele>1763.29976</ele>
        <time>2021-11-16T12:13:00.456Z</time>
      </trkpt>
      <trkpt lat="39.5742" lon="40.9055">
        <ele>1762.65284</ele>
        <time>2021-11-16T12:13:14.829Z</time>
      </trkpt>
      <trkpt lat="39.57326" lon="40.90698">
        <ele>1762.546498</ele>
        <time>2021-11-16T12:13:47.043Z</time>
      </trkpt>
      <trkpt lat="39.57134" lon="40.91033">
        <ele>1766.263257</ele>
        <time>2021-11-16T12:15:14.454Z</time>
      </trkpt>
      <trkpt lat="39.57081" lon="40.91143">
        <ele>1767.755189</ele>
        <time>2021-11-16T12:15:42.561Z</time>
      </trkpt>
      <trkpt lat="39.57043" lon="40.91249">
        <ele>1769.240914</ele>
        <time>2021-11-16T12:16:08.538Z</time>
      </trkpt>
      <trkpt lat="39.57012" lon="40.91408">
        <ele>1771.585471</ele>
        <time>2021-11-16T12:16:46.680Z</time>
      </trkpt>
      <trkpt lat="39.5699" lon="40.91558">
        <ele>1773.742077</ele>
        <time>2021-11-16T12:17:22.220Z</time>
      </trkpt>
      <trkpt lat="39.56928" lon="40.91732">
        <ele>1776.08203</ele>
        <time>2021-11-16T12:18:04.090Z</time>
      </trkpt>
      <trkpt lat="39.56696" lon="40.92206">
        <ele>1781.067077</ele>
        <time>2021-11-16T12:19:58.538Z</time>
      </trkpt>
      <trkpt lat="39.5657" lon="40.92438">
        <ele>1784.696876</ele>
        <time>2021-11-16T12:21:03.206Z</time>
      </trkpt>
      <trkpt lat="39.56454" lon="40.92577">
        <ele>1787.264502</ele>
        <time>2021-11-16T12:21:49.081Z</time>
      </trkpt>
      <trkpt lat="39.56333" lon="40.92689">
        <ele>1789.373778</ele>
        <time>2021-11-16T12:22:30.047Z</time>
      </trkpt>
      <trkpt lat="39.56143" lon="40.92849">
        <ele>1792.372939</ele>
        <time>2021-11-16T12:23:32.181Z</time>
      </trkpt>
      <trkpt lat="39.55764" lon="40.93194">
        <ele>1798.74951</ele>
        <time>2021-11-16T12:25:41.705Z</time>
      </trkpt>
      <trkpt lat="39.55598" lon="40.93352">
        <ele>1800.335824</ele>
        <time>2021-11-16T12:26:33.114Z</time>
      </trkpt>
      <trkpt lat="39.55492" lon="40.93472">
        <ele>1801.166393</ele>
        <time>2021-11-16T12:27:07.279Z</time>
      </trkpt>
      <trkpt lat="39.55379" lon="40.93677">
        <ele>1802.600383</ele>
        <time>2021-11-16T12:27:55.865Z</time>
      </trkpt>
      <trkpt lat="39.55284" lon="40.93827">
        <ele>1804.063018</ele>
        <time>2021-11-16T12:28:35.388Z</time>
      </trkpt>
      <trkpt lat="39.55132" lon="40.9399">
        <ele>1806.472542</ele>
        <time>2021-11-16T12:29:29.138Z</time>
      </trkpt>
      <trkpt lat="39.5502" lon="40.94082">
        <ele>1808.031235</ele>
        <time>2021-11-16T12:30:05.027Z</time>
      </trkpt>
      <trkpt lat="39.54887" lon="40.94196">
        <ele>1809.816374</ele>
        <time>2021-11-16T12:30:46.940Z</time>
      </trkpt>
      <trkpt lat="39.54802" lon="40.9428">
        <ele>1811.199547</ele>
        <time>2021-11-16T12:31:16.218Z</time>
      </trkpt>
      <trkpt lat="39.54459" lon="40.94675">
        <ele>1817.753692</ele>
        <time>2021-11-16T12:33:25.792Z</time>
      </trkpt>
      <trkpt lat="39.54362" lon="40.94762">
        <ele>1819.255073</ele>
        <time>2021-11-16T12:33:56.481Z</time>
      </trkpt>
      <trkpt lat="39.53589" lon="40.95299">
        <ele>1832.261141</ele>
        <time>2021-11-16T12:38:01.590Z</time>
      </trkpt>
      <trkpt lat="39.53165" lon="40.95646">
        <ele>1845.338816</ele>
        <time>2021-11-16T12:40:44.847Z</time>
      </trkpt>
      <trkpt lat="39.53156" lon="40.95663">
        <ele>1846.006384</ele>
        <time>2021-11-16T12:40:53.054Z</time>
      </trkpt>
      <trkpt lat="39.53052" lon="40.95746">
        <ele>1851.074254</ele>
        <time>2021-11-16T12:41:44.603Z</time>
      </trkpt>
      <trkpt lat="39.52879" lon="40.95892">
        <ele>1855.783713</ele>
        <time>2021-11-16T12:42:47.864Z</time>
      </trkpt>
      <trkpt lat="39.52782" lon="40.95988">
        <ele>1857.290819</ele>
        <time>2021-11-16T12:43:19.392Z</time>
      </trkpt>
      <trkpt lat="39.52693" lon="40.9607">
        <ele>1859.073358</ele>
        <time>2021-11-16T12:43:49.722Z</time>
      </trkpt>
      <trkpt lat="39.52662" lon="40.96112">
        <ele>1859.906794</ele>
        <time>2021-11-16T12:44:02.727Z</time>
      </trkpt>
      <trkpt lat="39.52613" lon="40.96195">
        <ele>1861.65451</ele>
        <time>2021-11-16T12:44:28.034Z</time>
      </trkpt>
      <trkpt lat="39.52584" lon="40.9626">
        <ele>1863.834994</ele>
        <time>2021-11-16T12:44:47.940Z</time>
      </trkpt>
      <trkpt lat="39.52562" lon="40.96332">
        <ele>1866.047743</ele>
        <time>2021-11-16T12:45:11.579Z</time>
      </trkpt>
      <trkpt lat="39.52558" lon="40.96389">
        <ele>1867.693121</ele>
        <time>2021-11-16T12:45:29.327Z</time>
      </trkpt>
      <trkpt lat="39.52569" lon="40.96438">
        <ele>1869.016011</ele>
        <time>2021-11-16T12:45:45.119Z</time>
      </trkpt>
      <trkpt lat="39.52583" lon="40.96485">
        <ele>1870.306338</ele>
        <time>2021-11-16T12:46:00.519Z</time>
      </trkpt>
      <trkpt lat="39.52587" lon="40.96498">
        <ele>1870.647591</ele>
        <time>2021-11-16T12:46:05.100Z</time>
      </trkpt>
      <trkpt lat="39.52595" lon="40.96542">
        <ele>1871.793221</ele>
        <time>2021-11-16T12:46:18.053Z</time>
      </trkpt>
      <trkpt lat="39.52589" lon="40.96589">
        <ele>1873.009631</ele>
        <time>2021-11-16T12:46:31.310Z</time>
      </trkpt>
      <trkpt lat="39.52569" lon="40.96651">
        <ele>1873.202457</ele>
        <time>2021-11-16T12:46:43.979Z</time>
      </trkpt>
      <trkpt lat="39.52551" lon="40.96682">
        <ele>1872.55572</ele>
        <time>2021-11-16T12:46:50.041Z</time>
      </trkpt>
      <trkpt lat="39.5251" lon="40.96731">
        <ele>1871.362564</ele>
        <time>2021-11-16T12:46:59.273Z</time>
      </trkpt>
      <trkpt lat="39.52502" lon="40.9674">
        <ele>1871.144511</ele>
        <time>2021-11-16T12:47:00.840Z</time>
      </trkpt>
      <trkpt lat="39.52473" lon="40.96735">
        <ele>1870.521391</ele>
        <time>2021-11-16T12:47:05.569Z</time>
      </trkpt>
      <trkpt lat="39.52448" lon="40.9676">
        <ele>1869.845351</ele>
        <time>2021-11-16T12:47:10.873Z</time>
      </trkpt>
      <trkpt lat="39.52432" lon="40.96768">
        <ele>1869.480088</ele>
        <time>2021-11-16T12:47:13.653Z</time>
      </trkpt>
      <trkpt lat="39.52401" lon="40.96777">
        <ele>1868.807425</ele>
        <time>2021-11-16T12:47:19.083Z</time>
      </trkpt>
      <trkpt lat="39.52379" lon="40.96771">
        <ele>1868.349824</ele>
        <time>2021-11-16T12:47:22.839Z</time>
      </trkpt>
      <trkpt lat="39.52369" lon="40.96749">
        <ele>1867.94143</ele>
        <time>2021-11-16T12:47:26.003Z</time>
      </trkpt>
      <trkpt lat="39.52357" lon="40.96826">
        <ele>1866.669962</ele>
        <time>2021-11-16T12:47:37.829Z</time>
      </trkpt>
      <trkpt lat="39.52332" lon="40.96924">
        <ele>1867.502207</ele>
        <time>2021-11-16T12:47:58.696Z</time>
      </trkpt>
      <trkpt lat="39.52324" lon="40.96984">
        <ele>1868.607492</ele>
        <time>2021-11-16T12:48:15.987Z</time>
      </trkpt>
      <trkpt lat="39.52314" lon="40.97026">
        <ele>1869.424043</ele>
        <time>2021-11-16T12:48:28.893Z</time>
      </trkpt>
      <trkpt lat="39.52257" lon="40.97134">
        <ele>1872.230969</ele>
        <time>2021-11-16T12:49:05.158Z</time>
      </trkpt>
      <trkpt lat="39.52253" lon="40.97158">
        <ele>1872.808219</ele>
        <time>2021-11-16T12:49:12.144Z</time>
      </trkpt>
      <trkpt lat="39.52166" lon="40.97263">
        <ele>1876.451018</ele>
        <time>2021-11-16T12:49:52.235Z</time>
      </trkpt>
      <trkpt lat="39.52085" lon="40.97369">
        <ele>1880.022488</ele>
        <time>2021-11-16T12:50:31.660Z</time>
      </trkpt>
      <trkpt lat="39.51972" lon="40.97501">
        <ele>1885.350211</ele>
        <time>2021-11-16T12:51:26.428Z</time>
      </trkpt>
      <trkpt lat="39.51889" lon="40.97583">
        <ele>1889.351568</ele>
        <time>2021-11-16T12:52:06.494Z</time>
      </trkpt>
      <trkpt lat="39.51763" lon="40.97668">
        <ele>1895.152808</ele>
        <time>2021-11-16T12:53:02.263Z</time>
      </trkpt>
      <trkpt lat="39.51718" lon="40.97737">
        <ele>1897.275015</ele>
        <time>2021-11-16T12:53:28.236Z</time>
      </trkpt>
      <trkpt lat="39.51665" lon="40.97778">
        <ele>1899.035339</ele>
        <time>2021-11-16T12:53:48.808Z</time>
      </trkpt>
      <trkpt lat="39.51608" lon="40.97809">
        <ele>1900.765308</ele>
        <time>2021-11-16T12:54:07.530Z</time>
      </trkpt>
      <trkpt lat="39.51505" lon="40.97852">
        <ele>1902.52241</ele>
        <time>2021-11-16T12:54:37.826Z</time>
      </trkpt>
      <trkpt lat="39.51319" lon="40.97945">
        <ele>1905.812676</ele>
        <time>2021-11-16T12:55:35.578Z</time>
      </trkpt>
      <trkpt lat="39.51266" lon="40.97984">
        <ele>1906.808887</ele>
        <time>2021-11-16T12:55:53.336Z</time>
      </trkpt>
      <trkpt lat="39.51236" lon="40.98024">
        <ele>1907.461</ele>
        <time>2021-11-16T12:56:05.444Z</time>
      </trkpt>
      <trkpt lat="39.51107" lon="40.98235">
        <ele>1911.038264</ele>
        <time>2021-11-16T12:57:04.120Z</time>
      </trkpt>
      <trkpt lat="39.51066" lon="40.98287">
        <ele>1912.215729</ele>
        <time>2021-11-16T12:57:22.265Z</time>
      </trkpt>
      <trkpt lat="39.50915" lon="40.98438">
        <ele>1917.124481</ele>
        <time>2021-11-16T12:58:25.382Z</time>
      </trkpt>
      <trkpt lat="39.50862" lon="40.98513">
        <ele>1919.275466</ele>
        <time>2021-11-16T12:58:51.303Z</time>
      </trkpt>
      <trkpt lat="39.50757" lon="40.98701">
        <ele>1924.196352</ele>
        <time>2021-11-16T12:59:50.960Z</time>
      </trkpt>
      <trkpt lat="39.50676" lon="40.98804">
        <ele>1927.248835</ele>
        <time>2021-11-16T13:00:28.837Z</time>
      </trkpt>
      <trkpt lat="39.50597" lon="40.98893">
        <ele>1929.567313</ele>
        <time>2021-11-16T13:01:01.935Z</time>
      </trkpt>
      <trkpt lat="39.50559" lon="40.98954">
        <ele>1930.848998</ele>
        <time>2021-11-16T13:01:19.954Z</time>
      </trkpt>
      <trkpt lat="39.50516" lon="40.99037">
        <ele>1932.427208</ele>
        <time>2021-11-16T13:01:42.397Z</time>
      </trkpt>
      <trkpt lat="39.50413" lon="40.99389">
        <ele>1938.732887</ele>
        <time>2021-11-16T13:03:11.066Z</time>
      </trkpt>
      <trkpt lat="39.50379" lon="40.99466">
        <ele>1941.09625</ele>
        <time>2021-11-16T13:03:35.363Z</time>
      </trkpt>
      <trkpt lat="39.50344" lon="40.9952">
        <ele>1943.32561</ele>
        <time>2021-11-16T13:03:56.212Z</time>
      </trkpt>
      <trkpt lat="39.50293" lon="40.99584">
        <ele>1946.220206</ele>
        <time>2021-11-16T13:04:25.197Z</time>
      </trkpt>
      <trkpt lat="39.50249" lon="40.99626">
        <ele>1949.055093</ele>
        <time>2021-11-16T13:04:48.533Z</time>
      </trkpt>
      <trkpt lat="39.50193" lon="40.99667">
        <ele>1952.592877</ele>
        <time>2021-11-16T13:05:17.278Z</time>
      </trkpt>
      <trkpt lat="39.49959" lon="40.99786">
        <ele>1966.382116</ele>
        <time>2021-11-16T13:07:10.842Z</time>
      </trkpt>
      <trkpt lat="39.49883" lon="40.99841">
        <ele>1969.409246</ele>
        <time>2021-11-16T13:07:43.625Z</time>
      </trkpt>
      <trkpt lat="39.49822" lon="40.99904">
        <ele>1972.125477</ele>
        <time>2021-11-16T13:08:09.541Z</time>
      </trkpt>
      <trkpt lat="39.49768" lon="40.99976">
        <ele>1974.653802</ele>
        <time>2021-11-16T13:08:34.426Z</time>
      </trkpt>
      <trkpt lat="39.49719" lon="41.00067">
        <ele>1977.378375</ele>
        <time>2021-11-16T13:09:03.816Z</time>
      </trkpt>
      <trkpt lat="39.49636" lon="41.00194">
        <ele>1983.272247</ele>
        <time>2021-11-16T13:09:55.687Z</time>
      </trkpt>
      <trkpt lat="39.49597" lon="41.00229">
        <ele>1985.695059</ele>
        <time>2021-11-16T13:10:17.114Z</time>
      </trkpt>
      <trkpt lat="39.49444" lon="41.00327">
        <ele>1995.579909</ele>
        <time>2021-11-16T13:11:35.428Z</time>
      </trkpt>
      <trkpt lat="39.49387" lon="41.00372">
        <ele>1999.754078</ele>
        <time>2021-11-16T13:12:07.126Z</time>
      </trkpt>
      <trkpt lat="39.49311" lon="41.00493">
        <ele>2007.706051</ele>
        <time>2021-11-16T13:13:04.392Z</time>
      </trkpt>
      <trkpt lat="39.49267" lon="41.00602">
        <ele>2015.214773</ele>
        <time>2021-11-16T13:13:53.427Z</time>
      </trkpt>
      <trkpt lat="39.4926" lon="41.00665">
        <ele>2019.609486</ele>
        <time>2021-11-16T13:14:21.587Z</time>
      </trkpt>
      <trkpt lat="39.49254" lon="41.00825">
        <ele>2031.237707</ele>
        <time>2021-11-16T13:15:39.719Z</time>
      </trkpt>
      <trkpt lat="39.49245" lon="41.00862">
        <ele>2034.297927</ele>
        <time>2021-11-16T13:15:59.383Z</time>
      </trkpt>
      <trkpt lat="39.49231" lon="41.00893">
        <ele>2037.191772</ele>
        <time>2021-11-16T13:16:17.990Z</time>
      </trkpt>
      <trkpt lat="39.49209" lon="41.00924">
        <ele>2040.473458</ele>
        <time>2021-11-16T13:16:38.638Z</time>
      </trkpt>
      <trkpt lat="39.49179" lon="41.00935">
        <ele>2043.739087</ele>
        <time>2021-11-16T13:16:58.924Z</time>
      </trkpt>
      <trkpt lat="39.49066" lon="41.00908">
        <ele>2052.94543</ele>
        <time>2021-11-16T13:18:04.547Z</time>
      </trkpt>
      <trkpt lat="39.49035" lon="41.00921">
        <ele>2055.504268</ele>
        <time>2021-11-16T13:18:20.627Z</time>
      </trkpt>
      <trkpt lat="39.49002" lon="41.00947">
        <ele>2058.570674</ele>
        <time>2021-11-16T13:18:38.798Z</time>
      </trkpt>
      <trkpt lat="39.48925" lon="41.01117">
        <ele>2067.735699</ele>
        <time>2021-11-16T13:19:46.124Z</time>
      </trkpt>
      <trkpt lat="39.48841" lon="41.01218">
        <ele>2077.3208</ele>
        <time>2021-11-16T13:20:45.173Z</time>
      </trkpt>
      <trkpt lat="39.48822" lon="41.01253">
        <ele>2080.326976</ele>
        <time>2021-11-16T13:21:05.159Z</time>
      </trkpt>
      <trkpt lat="39.48813" lon="41.01302">
        <ele>2083.898615</ele>
        <time>2021-11-16T13:21:30.712Z</time>
      </trkpt>
      <trkpt lat="39.48819" lon="41.01392">
        <ele>2091.478643</ele>
        <time>2021-11-16T13:22:20.641Z</time>
      </trkpt>
      <trkpt lat="39.48814" lon="41.01423">
        <ele>2094.399796</ele>
        <time>2021-11-16T13:22:39.468Z</time>
      </trkpt>
      <trkpt lat="39.4878" lon="41.01469">
        <ele>2100.12138</ele>
        <time>2021-11-16T13:23:15.018Z</time>
      </trkpt>
      <trkpt lat="39.48756" lon="41.01493">
        <ele>2103.712303</ele>
        <time>2021-11-16T13:23:36.578Z</time>
      </trkpt>
      <trkpt lat="39.48704" lon="41.01525">
        <ele>2108.965396</ele>
        <time>2021-11-16T13:24:13.046Z</time>
      </trkpt>
      <trkpt lat="39.48629" lon="41.01548">
        <ele>2113.887528</ele>
        <time>2021-11-16T13:24:52.416Z</time>
      </trkpt>
      <trkpt lat="39.48605" lon="41.01565">
        <ele>2115.584541</ele>
        <time>2021-11-16T13:25:03.381Z</time>
      </trkpt>
      <trkpt lat="39.48493" lon="41.01695">
        <ele>2121.981981</ele>
        <time>2021-11-16T13:25:54.123Z</time>
      </trkpt>
      <trkpt lat="39.48482" lon="41.01712">
        <ele>2122.558161</ele>
        <time>2021-11-16T13:25:59.911Z</time>
      </trkpt>
      <trkpt lat="39.48448" lon="41.01766">
        <ele>2124.322966</ele>
        <time>2021-11-16T13:26:18.690Z</time>
      </trkpt>
      <trkpt lat="39.48176" lon="41.02152">
        <ele>2144.5102</ele>
        <time>2021-11-16T13:29:08.004Z</time>
      </trkpt>
      <trkpt lat="39.48152" lon="41.02205">
        <ele>2147.712752</ele>
        <time>2021-11-16T13:29:29.976Z</time>
      </trkpt>
      <trkpt lat="39.48137" lon="41.02275">
        <ele>2151.524787</ele>
        <time>2021-11-16T13:29:58.427Z</time>
      </trkpt>
      <trkpt lat="39.48129" lon="41.02348">
        <ele>2156.017543</ele>
        <time>2021-11-16T13:30:29.677Z</time>
      </trkpt>
      <trkpt lat="39.48057" lon="41.02583">
        <ele>2176.530497</ele>
        <time>2021-11-16T13:32:36.026Z</time>
      </trkpt>
      <trkpt lat="39.48025" lon="41.02766">
        <ele>2193.926021</ele>
        <time>2021-11-16T13:34:20.547Z</time>
      </trkpt>
      <trkpt lat="39.48005" lon="41.02821">
        <ele>2199.295023</ele>
        <time>2021-11-16T13:34:54.942Z</time>
      </trkpt>
      <trkpt lat="39.47979" lon="41.02873">
        <ele>2204.66868</ele>
        <time>2021-11-16T13:35:28.007Z</time>
      </trkpt>
      <trkpt lat="39.47907" lon="41.02955">
        <ele>2215.360522</ele>
        <time>2021-11-16T13:36:31.152Z</time>
      </trkpt>
      <trkpt lat="39.47761" lon="41.03086">
        <ele>2231.292933</ele>
        <time>2021-11-16T13:38:13.157Z</time>
      </trkpt>
      <trkpt lat="39.47653" lon="41.03267">
        <ele>2245.42744</ele>
        <time>2021-11-16T13:39:49.042Z</time>
      </trkpt>
      <trkpt lat="39.4762" lon="41.03313">
        <ele>2248.733208</ele>
        <time>2021-11-16T13:40:14.283Z</time>
      </trkpt>
      <trkpt lat="39.47574" lon="41.03342">
        <ele>2252.229478</ele>
        <time>2021-11-16T13:40:40.040Z</time>
      </trkpt>
      <trkpt lat="39.47461" lon="41.03366">
        <ele>2259.715929</ele>
        <time>2021-11-16T13:41:33.446Z</time>
      </trkpt>
      <trkpt lat="39.47417" lon="41.03393">
        <ele>2262.686189</ele>
        <time>2021-11-16T13:41:55.365Z</time>
      </trkpt>
      <trkpt lat="39.47381" lon="41.03453">
        <ele>2266.187617</ele>
        <time>2021-11-16T13:42:21.299Z</time>
      </trkpt>
      <trkpt lat="39.47367" lon="41.03498">
        <ele>2268.49655</ele>
        <time>2021-11-16T13:42:38.420Z</time>
      </trkpt>
      <trkpt lat="39.47372" lon="41.03662">
        <ele>2278.453045</ele>
        <time>2021-11-16T13:43:46.145Z</time>
      </trkpt>
      <trkpt lat="39.47359" lon="41.03717">
        <ele>2281.983671</ele>
        <time>2021-11-16T13:44:12.221Z</time>
      </trkpt>
      <trkpt lat="39.47345" lon="41.03752">
        <ele>2284.448492</ele>
        <time>2021-11-16T13:44:30.728Z</time>
      </trkpt>
      <trkpt lat="39.47228" lon="41.04044">
        <ele>2300.931152</ele>
        <time>2021-11-16T13:46:47.955Z</time>
      </trkpt>
      <trkpt lat="39.47202" lon="41.0409">
        <ele>2302.625654</ele>
        <time>2021-11-16T13:47:00.257Z</time>
      </trkpt>
      <trkpt lat="39.47162" lon="41.04129">
        <ele>2303.161385</ele>
        <time>2021-11-16T13:47:09.265Z</time>
      </trkpt>
      <trkpt lat="39.47092" lon="41.0417">
        <ele>2297.678549</ele>
        <time>2021-11-16T13:47:20.571Z</time>
      </trkpt>
      <trkpt lat="39.4705" lon="41.04219">
        <ele>2293.632971</ele>
        <time>2021-11-16T13:47:28.356Z</time>
      </trkpt>
      <trkpt lat="39.47021" lon="41.04277">
        <ele>2289.241781</ele>
        <time>2021-11-16T13:47:35.539Z</time>
      </trkpt>
      <trkpt lat="39.47011" lon="41.04355">
        <ele>2283.044563</ele>
        <time>2021-11-16T13:47:43.706Z</time>
      </trkpt>
      <trkpt lat="39.46994" lon="41.04734">
        <ele>2254.418816</ele>
        <time>2021-11-16T13:48:23.755Z</time>
      </trkpt>
      <trkpt lat="39.46995" lon="41.04818">
        <ele>2249.171706</ele>
        <time>2021-11-16T13:48:32.703Z</time>
      </trkpt>
      <trkpt lat="39.47007" lon="41.04889">
        <ele>2244.572724</ele>
        <time>2021-11-16T13:48:40.601Z</time>
      </trkpt>
      <trkpt lat="39.47159" lon="41.05262">
        <ele>2223.251315</ele>
        <time>2021-11-16T13:49:27.406Z</time>
      </trkpt>
      <trkpt lat="39.47172" lon="41.05313">
        <ele>2221.059148</ele>
        <time>2021-11-16T13:49:34.087Z</time>
      </trkpt>
      <trkpt lat="39.47164" lon="41.05374">
        <ele>2218.519542</ele>
        <time>2021-11-16T13:49:41.855Z</time>
      </trkpt>
      <trkpt lat="39.47138" lon="41.05422">
        <ele>2216.101281</ele>
        <time>2021-11-16T13:49:49.315Z</time>
      </trkpt>
      <trkpt lat="39.47099" lon="41.05437">
        <ele>2213.903062</ele>
        <time>2021-11-16T13:49:55.791Z</time>
      </trkpt>
      <trkpt lat="39.47061" lon="41.05432">
        <ele>2211.856049</ele>
        <time>2021-11-16T13:50:01.495Z</time>
      </trkpt>
      <trkpt lat="39.47025" lon="41.05417">
        <ele>2209.855277</ele>
        <time>2021-11-16T13:50:06.876Z</time>
      </trkpt>
      <trkpt lat="39.46976" lon="41.05359">
        <ele>2202.031609</ele>
        <time>2021-11-16T13:50:15.804Z</time>
      </trkpt>
      <trkpt lat="39.46944" lon="41.05351">
        <ele>2197.80206</ele>
        <time>2021-11-16T13:50:20.197Z</time>
      </trkpt>
      <trkpt lat="39.46908" lon="41.05362">
        <ele>2193.165433</ele>
        <time>2021-11-16T13:50:24.968Z</time>
      </trkpt>
      <trkpt lat="39.46842" lon="41.054">
        <ele>2184.233444</ele>
        <time>2021-11-16T13:50:34.287Z</time>
      </trkpt>
      <trkpt lat="39.46812" lon="41.05396">
        <ele>2180.607243</ele>
        <time>2021-11-16T13:50:38.241Z</time>
      </trkpt>
      <trkpt lat="39.46779" lon="41.05385">
        <ele>2176.521137</ele>
        <time>2021-11-16T13:50:42.721Z</time>
      </trkpt>
      <trkpt lat="39.46749" lon="41.05352">
        <ele>2171.83041</ele>
        <time>2021-11-16T13:50:47.929Z</time>
      </trkpt>
      <trkpt lat="39.46581" lon="41.05058">
        <ele>2146.121622</ele>
        <time>2021-11-16T13:51:27.341Z</time>
      </trkpt>
      <trkpt lat="39.46522" lon="41.04991">
        <ele>2139.624103</ele>
        <time>2021-11-16T13:51:38.285Z</time>
      </trkpt>
      <trkpt lat="39.46469" lon="41.04964">
        <ele>2134.93696</ele>
        <time>2021-11-16T13:51:46.180Z</time>
      </trkpt>
      <trkpt lat="39.46417" lon="41.04954">
        <ele>2130.875694</ele>
        <time>2021-11-16T13:51:53.601Z</time>
      </trkpt>
      <trkpt lat="39.46359" lon="41.04961">
        <ele>2126.428078</ele>
        <time>2021-11-16T13:52:01.763Z</time>
      </trkpt>
      <trkpt lat="39.46297" lon="41.04981">
        <ele>2121.556577</ele>
        <time>2021-11-16T13:52:10.841Z</time>
      </trkpt>
      <trkpt lat="39.46251" lon="41.05022">
        <ele>2118.119103</ele>
        <time>2021-11-16T13:52:18.909Z</time>
      </trkpt>
      <trkpt lat="39.46135" lon="41.05201">
        <ele>2107.413464</ele>
        <time>2021-11-16T13:52:45.499Z</time>
      </trkpt>
      <trkpt lat="39.45802" lon="41.05597">
        <ele>2082.709014</ele>
        <time>2021-11-16T13:53:52.790Z</time>
      </trkpt>
      <trkpt lat="39.45739" lon="41.05638">
        <ele>2079.673363</ele>
        <time>2021-11-16T13:54:03.738Z</time>
      </trkpt>
      <trkpt lat="39.45422" lon="41.05871">
        <ele>2067.004857</ele>
        <time>2021-11-16T13:55:03.149Z</time>
      </trkpt>
      <trkpt lat="39.45363" lon="41.05889">
        <ele>2064.34599</ele>
        <time>2021-11-16T13:55:12.419Z</time>
      </trkpt>
      <trkpt lat="39.45232" lon="41.0589">
        <ele>2058.532393</ele>
        <time>2021-11-16T13:55:32.101Z</time>
      </trkpt>
      <trkpt lat="39.45185" lon="41.05876">
        <ele>2056.362306</ele>
        <time>2021-11-16T13:55:39.407Z</time>
      </trkpt>
      <trkpt lat="39.45165" lon="41.05859">
        <ele>2055.273251</ele>
        <time>2021-11-16T13:55:43.123Z</time>
      </trkpt>
      <trkpt lat="39.45126" lon="41.05795">
        <ele>2052.54456</ele>
        <time>2021-11-16T13:55:53.126Z</time>
      </trkpt>
      <trkpt lat="39.45104" lon="41.05771">
        <ele>2051.619431</ele>
        <time>2021-11-16T13:55:57.785Z</time>
      </trkpt>
      <trkpt lat="39.45081" lon="41.05755">
        <ele>2050.752386</ele>
        <time>2021-11-16T13:56:02.215Z</time>
      </trkpt>
      <trkpt lat="39.44982" lon="41.05734">
        <ele>2047.506351</ele>
        <time>2021-11-16T13:56:18.680Z</time>
      </trkpt>
      <trkpt lat="39.44955" lon="41.05733">
        <ele>2046.402711</ele>
        <time>2021-11-16T13:56:23.135Z</time>
      </trkpt>
      <trkpt lat="39.44899" lon="41.0574">
        <ele>2043.613272</ele>
        <time>2021-11-16T13:56:31.903Z</time>
      </trkpt>
      <trkpt lat="39.44867" lon="41.05738">
        <ele>2042.000977</ele>
        <time>2021-11-16T13:56:36.824Z</time>
      </trkpt>
      <trkpt lat="39.44773" lon="41.05714">
        <ele>2036.690919</ele>
        <time>2021-11-16T13:56:50.836Z</time>
      </trkpt>
      <trkpt lat="39.44704" lon="41.0571">
        <ele>2030.859389</ele>
        <time>2021-11-16T13:57:00.633Z</time>
      </trkpt>
      <trkpt lat="39.44519" lon="41.05619">
        <ele>2012.089539</ele>
        <time>2021-11-16T13:57:27.611Z</time>
      </trkpt>
      <trkpt lat="39.44401" lon="41.05577">
        <ele>1999.770355</ele>
        <time>2021-11-16T13:57:43.998Z</time>
      </trkpt>
      <trkpt lat="39.44294" lon="41.05526">
        <ele>1989.047185</ele>
        <time>2021-11-16T13:57:59.564Z</time>
      </trkpt>
      <trkpt lat="39.44088" lon="41.05497">
        <ele>1975.27457</ele>
        <time>2021-11-16T13:58:29.945Z</time>
      </trkpt>
      <trkpt lat="39.4406" lon="41.05501">
        <ele>1973.625892</ele>
        <time>2021-11-16T13:58:34.112Z</time>
      </trkpt>
      <trkpt lat="39.43943" lon="41.05552">
        <ele>1966.402523</ele>
        <time>2021-11-16T13:58:52.165Z</time>
      </trkpt>
      <trkpt lat="39.43875" lon="41.056">
        <ele>1962.524694</ele>
        <time>2021-11-16T13:59:03.603Z</time>
      </trkpt>
      <trkpt lat="39.43843" lon="41.05634">
        <ele>1960.560024</ele>
        <time>2021-11-16T13:59:09.969Z</time>
      </trkpt>
      <trkpt lat="39.43779" lon="41.05735">
        <ele>1955.985559</ele>
        <time>2021-11-16T13:59:25.860Z</time>
      </trkpt>
      <trkpt lat="39.43712" lon="41.05811">
        <ele>1952.544526</ele>
        <time>2021-11-16T13:59:40.141Z</time>
      </trkpt>
      <trkpt lat="39.43669" lon="41.05846">
        <ele>1950.577614</ele>
        <time>2021-11-16T13:59:48.154Z</time>
      </trkpt>
      <trkpt lat="39.43614" lon="41.05919">
        <ele>1946.954683</ele>
        <time>2021-11-16T14:00:00.228Z</time>
      </trkpt>
      <trkpt lat="39.43576" lon="41.05951">
        <ele>1944.723873</ele>
        <time>2021-11-16T14:00:07.065Z</time>
      </trkpt>
      <trkpt lat="39.43537" lon="41.05973">
        <ele>1942.680707</ele>
        <time>2021-11-16T14:00:13.275Z</time>
      </trkpt>
      <trkpt lat="39.43248" lon="41.05997">
        <ele>1930.248461</ele>
        <time>2021-11-16T14:00:57.424Z</time>
      </trkpt>
      <trkpt lat="39.432" lon="41.05997">
        <ele>1928.97989</ele>
        <time>2021-11-16T14:01:05.505Z</time>
      </trkpt>
      <trkpt lat="39.42974" lon="41.05977">
        <ele>1928.204929</ele>
        <time>2021-11-16T14:01:55.981Z</time>
      </trkpt>
      <trkpt lat="39.42934" lon="41.05971">
        <ele>1929.317699</ele>
        <time>2021-11-16T14:02:09.228Z</time>
      </trkpt>
      <trkpt lat="39.42892" lon="41.05957">
        <ele>1930.867634</ele>
        <time>2021-11-16T14:02:24.783Z</time>
      </trkpt>
      <trkpt lat="39.42784" lon="41.05894">
        <ele>1935.184002</ele>
        <time>2021-11-16T14:03:12.208Z</time>
      </trkpt>
      <trkpt lat="39.42754" lon="41.05866">
        <ele>1936.656638</ele>
        <time>2021-11-16T14:03:27.163Z</time>
      </trkpt>
      <trkpt lat="39.42714" lon="41.05821">
        <ele>1938.830196</ele>
        <time>2021-11-16T14:03:48.278Z</time>
      </trkpt>
      <trkpt lat="39.4259" lon="41.05655">
        <ele>1944.905876</ele>
        <time>2021-11-16T14:04:52.826Z</time>
      </trkpt>
      <trkpt lat="39.42544" lon="41.05611">
        <ele>1946.616406</ele>
        <time>2021-11-16T14:05:12.105Z</time>
      </trkpt>
      <trkpt lat="39.42449" lon="41.05552">
        <ele>1947.225257</ele>
        <time>2021-11-16T14:05:41.955Z</time>
      </trkpt>
      <trkpt lat="39.424" lon="41.05533">
        <ele>1947.193242</ele>
        <time>2021-11-16T14:05:52.405Z</time>
      </trkpt>
      <trkpt lat="39.42347" lon="41.05525">
        <ele>1946.846988</ele>
        <time>2021-11-16T14:06:01.936Z</time>
      </trkpt>
      <trkpt lat="39.42307" lon="41.0552">
        <ele>1945.145176</ele>
        <time>2021-11-16T14:06:08.591Z</time>
      </trkpt>
      <trkpt lat="39.42049" lon="41.05487">
        <ele>1933.031897</ele>
        <time>2021-11-16T14:06:47.734Z</time>
      </trkpt>
      <trkpt lat="39.41711" lon="41.05448">
        <ele>1915.004288</ele>
        <time>2021-11-16T14:07:38.212Z</time>
      </trkpt>
      <trkpt lat="39.41482" lon="41.05435">
        <ele>1903.670107</ele>
        <time>2021-11-16T14:08:12.919Z</time>
      </trkpt>
      <trkpt lat="39.41124" lon="41.05433">
        <ele>1888.86801</ele>
        <time>2021-11-16T14:09:08.834Z</time>
      </trkpt>
      <trkpt lat="39.4103" lon="41.05426">
        <ele>1885.437927</ele>
        <time>2021-11-16T14:09:23.962Z</time>
      </trkpt>
      <trkpt lat="39.40931" lon="41.05402">
        <ele>1881.94752</ele>
        <time>2021-11-16T14:09:40.267Z</time>
      </trkpt>
      <trkpt lat="39.40858" lon="41.05372">
        <ele>1878.972703</ele>
        <time>2021-11-16T14:09:52.510Z</time>
      </trkpt>
      <trkpt lat="39.40799" lon="41.05336">
        <ele>1876.391434</ele>
        <time>2021-11-16T14:10:02.832Z</time>
      </trkpt>
      <trkpt lat="39.40758" lon="41.05312">
        <ele>1874.612178</ele>
        <time>2021-11-16T14:10:09.807Z</time>
      </trkpt>
      <trkpt lat="39.40704" lon="41.05259">
        <ele>1871.486654</ele>
        <time>2021-11-16T14:10:20.069Z</time>
      </trkpt>
      <trkpt lat="39.40649" lon="41.05182">
        <ele>1867.709138</ele>
        <time>2021-11-16T14:10:32.231Z</time>
      </trkpt>
      <trkpt lat="39.40561" lon="41.05031">
        <ele>1862.524543</ele>
        <time>2021-11-16T14:10:55.161Z</time>
      </trkpt>
      <trkpt lat="39.40409" lon="41.04733">
        <ele>1856.961074</ele>
        <time>2021-11-16T14:11:44.697Z</time>
      </trkpt>
      <trkpt lat="39.4011" lon="41.04023">
        <ele>1850.458178</ele>
        <time>2021-11-16T14:13:45.115Z</time>
      </trkpt>
      <trkpt lat="39.40064" lon="41.03924">
        <ele>1849.738553</ele>
        <time>2021-11-16T14:14:02.757Z</time>
      </trkpt>
      <trkpt lat="39.39935" lon="41.03706">
        <ele>1848.459478</ele>
        <time>2021-11-16T14:14:46.000Z</time>
      </trkpt>
      <trkpt lat="39.39783" lon="41.03464">
        <ele>1846.736908</ele>
        <time>2021-11-16T14:15:34.563Z</time>
      </trkpt>
      <trkpt lat="39.39736" lon="41.03381">
        <ele>1846.044551</ele>
        <time>2021-11-16T14:15:49.869Z</time>
      </trkpt>
      <trkpt lat="39.39656" lon="41.03153">
        <ele>1843.856779</ele>
        <time>2021-11-16T14:16:26.538Z</time>
      </trkpt>
      <trkpt lat="39.39581" lon="41.02988">
        <ele>1842.304121</ele>
        <time>2021-11-16T14:16:54.991Z</time>
      </trkpt>
      <trkpt lat="39.39543" lon="41.02884">
        <ele>1841.494798</ele>
        <time>2021-11-16T14:17:12.269Z</time>
      </trkpt>
      <trkpt lat="39.39519" lon="41.02756">
        <ele>1840.613721</ele>
        <time>2021-11-16T14:17:32.072Z</time>
      </trkpt>
      <trkpt lat="39.39474" lon="41.02348">
        <ele>1839.212449</ele>
        <time>2021-11-16T14:18:37.961Z</time>
      </trkpt>
      <trkpt lat="39.39451" lon="41.02258">
        <ele>1839.080726</ele>
        <time>2021-11-16T14:18:53.868Z</time>
      </trkpt>
      <trkpt lat="39.39417" lon="41.0215">
        <ele>1839.058036</ele>
        <time>2021-11-16T14:19:13.801Z</time>
      </trkpt>
      <trkpt lat="39.39395" lon="41.02104">
        <ele>1839.047365</ele>
        <time>2021-11-16T14:19:23.308Z</time>
      </trkpt>
      <trkpt lat="39.39323" lon="41.01985">
        <ele>1839.318779</ele>
        <time>2021-11-16T14:19:49.856Z</time>
      </trkpt>
      <trkpt lat="39.39253" lon="41.01884">
        <ele>1839.714838</ele>
        <time>2021-11-16T14:20:14.935Z</time>
      </trkpt>
      <trkpt lat="39.39208" lon="41.01806">
        <ele>1840.196031</ele>
        <time>2021-11-16T14:20:33.543Z</time>
      </trkpt>
      <trkpt lat="39.39166" lon="41.01709">
        <ele>1840.798839</ele>
        <time>2021-11-16T14:20:55.332Z</time>
      </trkpt>
      <trkpt lat="39.39" lon="41.01197">
        <ele>1845.368867</ele>
        <time>2021-11-16T14:22:48.802Z</time>
      </trkpt>
      <trkpt lat="39.389" lon="41.00978">
        <ele>1847.675184</ele>
        <time>2021-11-16T14:23:43.638Z</time>
      </trkpt>
      <trkpt lat="39.38807" lon="41.00813">
        <ele>1848.08185</ele>
        <time>2021-11-16T14:24:23.147Z</time>
      </trkpt>
      <trkpt lat="39.38794" lon="41.00786">
        <ele>1847.93763</ele>
        <time>2021-11-16T14:24:28.309Z</time>
      </trkpt>
      <trkpt lat="39.38752" lon="41.00697">
        <ele>1847.34396</ele>
        <time>2021-11-16T14:24:43.027Z</time>
      </trkpt>
      <trkpt lat="39.38725" lon="41.00633">
        <ele>1845.374139</ele>
        <time>2021-11-16T14:24:52.301Z</time>
      </trkpt>
      <trkpt lat="39.38714" lon="41.00571">
        <ele>1843.660263</ele>
        <time>2021-11-16T14:24:59.985Z</time>
      </trkpt>
      <trkpt lat="39.3871" lon="41.00497">
        <ele>1841.670356</ele>
        <time>2021-11-16T14:25:08.946Z</time>
      </trkpt>
      <trkpt lat="39.38714" lon="41.00427">
        <ele>1839.781631</ele>
        <time>2021-11-16T14:25:17.455Z</time>
      </trkpt>
      <trkpt lat="39.38713" lon="41.00342">
        <ele>1837.490033</ele>
        <time>2021-11-16T14:25:27.846Z</time>
      </trkpt>
      <trkpt lat="39.38702" lon="41.00275">
        <ele>1835.652656</ele>
        <time>2021-11-16T14:25:36.412Z</time>
      </trkpt>
      <trkpt lat="39.38681" lon="41.00212">
        <ele>1834.288936</ele>
        <time>2021-11-16T14:25:45.450Z</time>
      </trkpt>
      <trkpt lat="39.38639" lon="41.00128">
        <ele>1832.720485</ele>
        <time>2021-11-16T14:25:58.987Z</time>
      </trkpt>
      <trkpt lat="39.38526" lon="40.99971">
        <ele>1830.23282</ele>
        <time>2021-11-16T14:26:29.291Z</time>
      </trkpt>
      <trkpt lat="39.38491" lon="40.99909">
        <ele>1829.566567</ele>
        <time>2021-11-16T14:26:40.929Z</time>
      </trkpt>
      <trkpt lat="39.38453" lon="40.99733">
        <ele>1829.099036</ele>
        <time>2021-11-16T14:27:10.814Z</time>
      </trkpt>
      <trkpt lat="39.3844" lon="40.99627">
        <ele>1829.041224</ele>
        <time>2021-11-16T14:27:29.934Z</time>
      </trkpt>
      <trkpt lat="39.38441" lon="40.99551">
        <ele>1829.183015</ele>
        <time>2021-11-16T14:27:43.394Z</time>
      </trkpt>
      <trkpt lat="39.38449" lon="40.99461">
        <ele>1829.351377</ele>
        <time>2021-11-16T14:27:59.612Z</time>
      </trkpt>
      <trkpt lat="39.38464" lon="40.9936">
        <ele>1829.62398</ele>
        <time>2021-11-16T14:28:18.533Z</time>
      </trkpt>
      <trkpt lat="39.38531" lon="40.99064">
        <ele>1830.257218</ele>
        <time>2021-11-16T14:29:15.457Z</time>
      </trkpt>
      <trkpt lat="39.38539" lon="40.9901">
        <ele>1830.300863</ele>
        <time>2021-11-16T14:29:24.729Z</time>
      </trkpt>
      <trkpt lat="39.38535" lon="40.98948">
        <ele>1830.188279</ele>
        <time>2021-11-16T14:29:34.862Z</time>
      </trkpt>
      <trkpt lat="39.38517" lon="40.98862">
        <ele>1829.673743</ele>
        <time>2021-11-16T14:29:48.657Z</time>
      </trkpt>
      <trkpt lat="39.38471" lon="40.98787">
        <ele>1829.120689</ele>
        <time>2021-11-16T14:30:02.984Z</time>
      </trkpt>
      <trkpt lat="39.38427" lon="40.98743">
        <ele>1828.590862</ele>
        <time>2021-11-16T14:30:13.567Z</time>
      </trkpt>
      <trkpt lat="39.37988" lon="40.9861">
        <ele>1823.862338</ele>
        <time>2021-11-16T14:31:40.123Z</time>
      </trkpt>
      <trkpt lat="39.37895" lon="40.98569">
        <ele>1822.866535</ele>
        <time>2021-11-16T14:31:59.286Z</time>
      </trkpt>
      <trkpt lat="39.37809" lon="40.98516">
        <ele>1821.912226</ele>
        <time>2021-11-16T14:32:17.828Z</time>
      </trkpt>
      <trkpt lat="39.37709" lon="40.98383">
        <ele>1820.131968</ele>
        <time>2021-11-16T14:32:44.594Z</time>
      </trkpt>
      <trkpt lat="39.37676" lon="40.98367">
        <ele>1819.667301</ele>
        <time>2021-11-16T14:32:51.081Z</time>
      </trkpt>
      <trkpt lat="39.37662" lon="40.98361">
        <ele>1819.470521</ele>
        <time>2021-11-16T14:32:53.708Z</time>
      </trkpt>
      <trkpt lat="39.37614" lon="40.98368">
        <ele>1819.253371</ele>
        <time>2021-11-16T14:33:02.802Z</time>
      </trkpt>
      <trkpt lat="39.3757" lon="40.98395">
        <ele>1819.456292</ele>
        <time>2021-11-16T14:33:12.280Z</time>
      </trkpt>
      <trkpt lat="39.37522" lon="40.98448">
        <ele>1819.717554</ele>
        <time>2021-11-16T14:33:26.365Z</time>
      </trkpt>
      <trkpt lat="39.37463" lon="40.98538">
        <ele>1822.163869</ele>
        <time>2021-11-16T14:33:57.617Z</time>
      </trkpt>
      <trkpt lat="39.37441" lon="40.98575">
        <ele>1823.866465</ele>
        <time>2021-11-16T14:34:12.167Z</time>
      </trkpt>
      <trkpt lat="39.37422" lon="40.98607">
        <ele>1825.370128</ele>
        <time>2021-11-16T14:34:25.820Z</time>
      </trkpt>
      <trkpt lat="39.37409" lon="40.98629">
        <ele>1826.391099</ele>
        <time>2021-11-16T14:34:36.046Z</time>
      </trkpt>
      <trkpt lat="39.37357" lon="40.98671">
        <ele>1829.327103</ele>
        <time>2021-11-16T14:35:05.110Z</time>
      </trkpt>
      <trkpt lat="39.37282" lon="40.98735">
        <ele>1833.647267</ele>
        <time>2021-11-16T14:35:46.803Z</time>
      </trkpt>
      <trkpt lat="39.37257" lon="40.98759">
        <ele>1835.163306</ele>
        <time>2021-11-16T14:35:59.112Z</time>
      </trkpt>
      <trkpt lat="39.37204" lon="40.98798">
        <ele>1837.315931</ele>
        <time>2021-11-16T14:36:20.020Z</time>
      </trkpt>
      <trkpt lat="39.36891" lon="40.989">
        <ele>1838.850295</ele>
        <time>2021-11-16T14:37:36.910Z</time>
      </trkpt>
      <trkpt lat="39.36734" lon="40.99025">
        <ele>1836.2691</ele>
        <time>2021-11-16T14:38:09.913Z</time>
      </trkpt>
      <trkpt lat="39.36605" lon="40.99197">
        <ele>1834.520313</ele>
        <time>2021-11-16T14:38:45.147Z</time>
      </trkpt>
      <trkpt lat="39.3622" lon="40.99834">
        <ele>1840.617681</ele>
        <time>2021-11-16T14:41:26.948Z</time>
      </trkpt>
      <trkpt lat="39.36161" lon="40.99948">
        <ele>1842.859128</ele>
        <time>2021-11-16T14:42:02.386Z</time>
      </trkpt>
      <trkpt lat="39.36112" lon="41.00086">
        <ele>1846.428496</ele>
        <time>2021-11-16T14:42:45.400Z</time>
      </trkpt>
      <trkpt lat="39.3609" lon="41.00238">
        <ele>1848.9776</ele>
        <time>2021-11-16T14:43:23.159Z</time>
      </trkpt>
      <trkpt lat="39.36051" lon="41.00481">
        <ele>1850.960384</ele>
        <time>2021-11-16T14:44:11.213Z</time>
      </trkpt>
      <trkpt lat="39.36026" lon="41.00572">
        <ele>1851.424652</ele>
        <time>2021-11-16T14:44:29.424Z</time>
      </trkpt>
      <trkpt lat="39.35999" lon="41.0065">
        <ele>1851.815127</ele>
        <time>2021-11-16T14:44:45.486Z</time>
      </trkpt>
      <trkpt lat="39.35965" lon="41.00729">
        <ele>1852.211542</ele>
        <time>2021-11-16T14:45:02.199Z</time>
      </trkpt>
      <trkpt lat="39.35928" lon="41.00788">
        <ele>1852.547532</ele>
        <time>2021-11-16T14:45:16.046Z</time>
      </trkpt>
      <trkpt lat="39.35867" lon="41.00867">
        <ele>1854.471818</ele>
        <time>2021-11-16T14:45:39.548Z</time>
      </trkpt>
      <trkpt lat="39.35733" lon="41.01023">
        <ele>1859.924781</ele>
        <time>2021-11-16T14:46:45.744Z</time>
      </trkpt>
      <trkpt lat="39.35694" lon="41.01085">
        <ele>1862.221134</ele>
        <time>2021-11-16T14:47:10.207Z</time>
      </trkpt>
      <trkpt lat="39.35654" lon="41.01169">
        <ele>1864.516077</ele>
        <time>2021-11-16T14:47:37.535Z</time>
      </trkpt>
      <trkpt lat="39.35603" lon="41.01347">
        <ele>1867.217335</ele>
        <time>2021-11-16T14:48:19.450Z</time>
      </trkpt>
      <trkpt lat="39.35592" lon="41.01413">
        <ele>1867.919949</ele>
        <time>2021-11-16T14:48:32.116Z</time>
      </trkpt>
      <trkpt lat="39.35585" lon="41.01534">
        <ele>1869.13553</ele>
        <time>2021-11-16T14:48:56.583Z</time>
      </trkpt>
      <trkpt lat="39.35584" lon="41.01793">
        <ele>1873.83987</ele>
        <time>2021-11-16T14:50:00.053Z</time>
      </trkpt>
      <trkpt lat="39.35566" lon="41.01992">
        <ele>1879.540667</ele>
        <time>2021-11-16T14:50:58.728Z</time>
      </trkpt>
      <trkpt lat="39.35549" lon="41.02075">
        <ele>1881.993302</ele>
        <time>2021-11-16T14:51:24.820Z</time>
      </trkpt>
      <trkpt lat="39.35512" lon="41.02204">
        <ele>1885.672575</ele>
        <time>2021-11-16T14:52:04.426Z</time>
      </trkpt>
      <trkpt lat="39.35455" lon="41.02328">
        <ele>1888.331373</ele>
        <time>2021-11-16T14:52:40.504Z</time>
      </trkpt>
      <trkpt lat="39.3538" lon="41.02474">
        <ele>1890.121955</ele>
        <time>2021-11-16T14:53:15.929Z</time>
      </trkpt>
      <trkpt lat="39.3504" lon="41.03088">
        <ele>1891.383403</ele>
        <time>2021-11-16T14:55:26.590Z</time>
      </trkpt>
      <trkpt lat="39.34991" lon="41.03194">
        <ele>1892.587113</ele>
        <time>2021-11-16T14:55:54.414Z</time>
      </trkpt>
      <trkpt lat="39.34926" lon="41.03306">
        <ele>1895.102567</ele>
        <time>2021-11-16T14:56:29.350Z</time>
      </trkpt>
      <trkpt lat="39.34711" lon="41.03712">
        <ele>1905.156081</ele>
        <time>2021-11-16T14:58:34.522Z</time>
      </trkpt>
      <trkpt lat="39.34652" lon="41.03797">
        <ele>1907.547763</ele>
        <time>2021-11-16T14:59:04.059Z</time>
      </trkpt>
      <trkpt lat="39.34597" lon="41.03861">
        <ele>1909.510687</ele>
        <time>2021-11-16T14:59:28.877Z</time>
      </trkpt>
      <trkpt lat="39.34534" lon="41.03924">
        <ele>1911.612785</ele>
        <time>2021-11-16T14:59:55.014Z</time>
      </trkpt>
      <trkpt lat="39.34383" lon="41.04029">
        <ele>1915.669491</ele>
        <time>2021-11-16T15:00:49.057Z</time>
      </trkpt>
      <trkpt lat="39.34272" lon="41.04087">
        <ele>1918.528208</ele>
        <time>2021-11-16T15:01:26.588Z</time>
      </trkpt>
      <trkpt lat="39.34211" lon="41.04131">
        <ele>1920.201975</ele>
        <time>2021-11-16T15:01:49.017Z</time>
      </trkpt>
      <trkpt lat="39.3416" lon="41.04185">
        <ele>1922.03727</ele>
        <time>2021-11-16T15:02:10.511Z</time>
      </trkpt>
      <trkpt lat="39.34084" lon="41.04297">
        <ele>1925.370856</ele>
        <time>2021-11-16T15:02:49.883Z</time>
      </trkpt>
      <trkpt lat="39.3405" lon="41.0437">
        <ele>1927.399274</ele>
        <time>2021-11-16T15:03:12.842Z</time>
      </trkpt>
      <trkpt lat="39.34015" lon="41.0447">
        <ele>1930.018686</ele>
        <time>2021-11-16T15:03:42.415Z</time>
      </trkpt>
      <trkpt lat="39.33875" lon="41.04941">
        <ele>1941.135527</ele>
        <time>2021-11-16T15:05:55.331Z</time>
      </trkpt>
      <trkpt lat="39.33842" lon="41.05033">
        <ele>1941.70569</ele>
        <time>2021-11-16T15:06:16.500Z</time>
      </trkpt>
      <trkpt lat="39.3383" lon="41.05065">
        <ele>1941.846003</ele>
        <time>2021-11-16T15:06:23.128Z</time>
      </trkpt>
      <trkpt lat="39.338" lon="41.05124">
        <ele>1942.121067</ele>
        <time>2021-11-16T15:06:35.385Z</time>
      </trkpt>
      <trkpt lat="39.33737" lon="41.05196">
        <ele>1940.773403</ele>
        <time>2021-11-16T15:06:51.767Z</time>
      </trkpt>
      <trkpt lat="39.33667" lon="41.05254">
        <ele>1938.591716</ele>
        <time>2021-11-16T15:07:05.823Z</time>
      </trkpt>
      <trkpt lat="39.33611" lon="41.05284">
        <ele>1936.145835</ele>
        <time>2021-11-16T15:07:15.183Z</time>
      </trkpt>
      <trkpt lat="39.33507" lon="41.05298">
        <ele>1928.972451</ele>
        <time>2021-11-16T15:07:30.247Z</time>
      </trkpt>
      <trkpt lat="39.33459" lon="41.0529">
        <ele>1925.652128</ele>
        <time>2021-11-16T15:07:36.950Z</time>
      </trkpt>
      <trkpt lat="39.33314" lon="41.05229">
        <ele>1913.254005</ele>
        <time>2021-11-16T15:07:58.090Z</time>
      </trkpt>
      <trkpt lat="39.33237" lon="41.05215">
        <ele>1908.035287</ele>
        <time>2021-11-16T15:08:09.280Z</time>
      </trkpt>
      <trkpt lat="39.33096" lon="41.05216">
        <ele>1900.359998</ele>
        <time>2021-11-16T15:08:30.546Z</time>
      </trkpt>
      <trkpt lat="39.32979" lon="41.05256">
        <ele>1895.318402</ele>
        <time>2021-11-16T15:08:49.604Z</time>
      </trkpt>
      <trkpt lat="39.32753" lon="41.05405">
        <ele>1884.188659</ele>
        <time>2021-11-16T15:09:28.987Z</time>
      </trkpt>
      <trkpt lat="39.32679" lon="41.05443">
        <ele>1880.042274</ele>
        <time>2021-11-16T15:09:40.953Z</time>
      </trkpt>
      <trkpt lat="39.32574" lon="41.05486">
        <ele>1874.362377</ele>
        <time>2021-11-16T15:09:57.308Z</time>
      </trkpt>
      <trkpt lat="39.32496" lon="41.05506">
        <ele>1870.346117</ele>
        <time>2021-11-16T15:10:09.160Z</time>
      </trkpt>
      <trkpt lat="39.32383" lon="41.05525">
        <ele>1864.953697</ele>
        <time>2021-11-16T15:10:26.584Z</time>
      </trkpt>
      <trkpt lat="39.32176" lon="41.05538">
        <ele>1856.568173</ele>
        <time>2021-11-16T15:10:59.208Z</time>
      </trkpt>
      <trkpt lat="39.32094" lon="41.05562">
        <ele>1853.423904</ele>
        <time>2021-11-16T15:11:12.491Z</time>
      </trkpt>
      <trkpt lat="39.3195" lon="41.0559">
        <ele>1848.075927</ele>
        <time>2021-11-16T15:11:35.708Z</time>
      </trkpt>
      <trkpt lat="39.31869" lon="41.05596">
        <ele>1845.122742</ele>
        <time>2021-11-16T15:11:48.613Z</time>
      </trkpt>
      <trkpt lat="39.31787" lon="41.05592">
        <ele>1842.141974</ele>
        <time>2021-11-16T15:12:01.665Z</time>
      </trkpt>
      <trkpt lat="39.31642" lon="41.05555">
        <ele>1837.195238</ele>
        <time>2021-11-16T15:12:25.330Z</time>
      </trkpt>
      <trkpt lat="39.31571" lon="41.05519">
        <ele>1834.862472</ele>
        <time>2021-11-16T15:12:37.987Z</time>
      </trkpt>
      <trkpt lat="39.31494" lon="41.05471">
        <ele>1833.127266</ele>
        <time>2021-11-16T15:12:52.730Z</time>
      </trkpt>
      <trkpt lat="39.31397" lon="41.0538">
        <ele>1831.378557</ele>
        <time>2021-11-16T15:13:15.296Z</time>
      </trkpt>
      <trkpt lat="39.31187" lon="41.0515">
        <ele>1828.907112</ele>
        <time>2021-11-16T15:14:11.603Z</time>
      </trkpt>
      <trkpt lat="39.31059" lon="41.04998">
        <ele>1824.882833</ele>
        <time>2021-11-16T15:14:41.520Z</time>
      </trkpt>
      <trkpt lat="39.31043" lon="41.04979">
        <ele>1824.146768</ele>
        <time>2021-11-16T15:14:45.081Z</time>
      </trkpt>
      <trkpt lat="39.30941" lon="41.04838">
        <ele>1818.446163</ele>
        <time>2021-11-16T15:15:08.197Z</time>
      </trkpt>
      <trkpt lat="39.30856" lon="41.04691">
        <ele>1812.418393</ele>
        <time>2021-11-16T15:15:30.027Z</time>
      </trkpt>
      <trkpt lat="39.30803" lon="41.04584">
        <ele>1808.551425</ele>
        <time>2021-11-16T15:15:45.448Z</time>
      </trkpt>
      <trkpt lat="39.30763" lon="41.04473">
        <ele>1805.125591</ele>
        <time>2021-11-16T15:16:00.717Z</time>
      </trkpt>
      <trkpt lat="39.30729" lon="41.04375">
        <ele>1802.368554</ele>
        <time>2021-11-16T15:16:14.267Z</time>
      </trkpt>
      <trkpt lat="39.30669" lon="41.04173">
        <ele>1797.21608</ele>
        <time>2021-11-16T15:16:41.646Z</time>
      </trkpt>
      <trkpt lat="39.30618" lon="41.03994">
        <ele>1793.544373</ele>
        <time>2021-11-16T15:17:06.454Z</time>
      </trkpt>
      <trkpt lat="39.30533" lon="41.03696">
        <ele>1789.625289</ele>
        <time>2021-11-16T15:17:50.755Z</time>
      </trkpt>
      <trkpt lat="39.30084" lon="41.02132">
        <ele>1793.14465</ele>
        <time>2021-11-16T15:22:52.749Z</time>
      </trkpt>
      <trkpt lat="39.30054" lon="41.02027">
        <ele>1795.133726</ele>
        <time>2021-11-16T15:23:18.791Z</time>
      </trkpt>
      <trkpt lat="39.30016" lon="41.01893">
        <ele>1797.892923</ele>
        <time>2021-11-16T15:23:56.869Z</time>
      </trkpt>
      <trkpt lat="39.2997" lon="41.01729">
        <ele>1802.349382</ele>
        <time>2021-11-16T15:24:45.173Z</time>
      </trkpt>
      <trkpt lat="39.29956" lon="41.01666">
        <ele>1803.974766</ele>
        <time>2021-11-16T15:25:03.268Z</time>
      </trkpt>
      <trkpt lat="39.29935" lon="41.0162">
        <ele>1805.231793</ele>
        <time>2021-11-16T15:25:17.671Z</time>
      </trkpt>
      <trkpt lat="39.29892" lon="41.01561">
        <ele>1807.171309</ele>
        <time>2021-11-16T15:25:39.689Z</time>
      </trkpt>
      <trkpt lat="39.29814" lon="41.0146">
        <ele>1810.025115</ele>
        <time>2021-11-16T15:26:15.939Z</time>
      </trkpt>
      <trkpt lat="39.29803" lon="41.01445">
        <ele>1810.400921</ele>
        <time>2021-11-16T15:26:21.329Z</time>
      </trkpt>
      <trkpt lat="39.2977" lon="41.01404">
        <ele>1811.434197</ele>
        <time>2021-11-16T15:26:35.703Z</time>
      </trkpt>
      <trkpt lat="39.29691" lon="41.01305">
        <ele>1813.791142</ele>
        <time>2021-11-16T15:27:07.512Z</time>
      </trkpt>
      <trkpt lat="39.2965" lon="41.01255">
        <ele>1814.939371</ele>
        <time>2021-11-16T15:27:23.604Z</time>
      </trkpt>
      <trkpt lat="39.29606" lon="41.01199">
        <ele>1816.201877</ele>
        <time>2021-11-16T15:27:43.011Z</time>
      </trkpt>
      <trkpt lat="39.29583" lon="41.01171">
        <ele>1817.263496</ele>
        <time>2021-11-16T15:27:53.621Z</time>
      </trkpt>
      <trkpt lat="39.29575" lon="41.01161">
        <ele>1817.666243</ele>
        <time>2021-11-16T15:27:57.399Z</time>
      </trkpt>
      <trkpt lat="39.29499" lon="41.01071">
        <ele>1821.520203</ele>
        <time>2021-11-16T15:28:37.255Z</time>
      </trkpt>
      <trkpt lat="39.29476" lon="41.01032">
        <ele>1822.926809</ele>
        <time>2021-11-16T15:28:52.011Z</time>
      </trkpt>
      <trkpt lat="39.29457" lon="41.01009">
        <ele>1823.750405</ele>
        <time>2021-11-16T15:29:01.938Z</time>
      </trkpt>
      <trkpt lat="39.29453" lon="41.01004">
        <ele>1823.927383</ele>
        <time>2021-11-16T15:29:04.452Z</time>
      </trkpt>
      <trkpt lat="39.29389" lon="41.00971">
        <ele>1826.075517</ele>
        <time>2021-11-16T15:29:29.547Z</time>
      </trkpt>
      <trkpt lat="39.2936" lon="41.00951">
        <ele>1827.112503</ele>
        <time>2021-11-16T15:29:40.824Z</time>
      </trkpt>
      <trkpt lat="39.29314" lon="41.00908">
        <ele>1828.742384</ele>
        <time>2021-11-16T15:29:58.989Z</time>
      </trkpt>
      <trkpt lat="39.29139" lon="41.00696">
        <ele>1831.920755</ele>
        <time>2021-11-16T15:31:03.175Z</time>
      </trkpt>
      <trkpt lat="39.29001" lon="41.00534">
        <ele>1834.512406</ele>
        <time>2021-11-16T15:31:54.934Z</time>
      </trkpt>
      <trkpt lat="39.28959" lon="41.00485">
        <ele>1835.391133</ele>
        <time>2021-11-16T15:32:11.892Z</time>
      </trkpt>
      <trkpt lat="39.28934" lon="41.00458">
        <ele>1835.894123</ele>
        <time>2021-11-16T15:32:21.527Z</time>
      </trkpt>
      <trkpt lat="39.28761" lon="41.00263">
        <ele>1838.036177</ele>
        <time>2021-11-16T15:33:22.376Z</time>
      </trkpt>
      <trkpt lat="39.28632" lon="41.00125">
        <ele>1837.811641</ele>
        <time>2021-11-16T15:33:57.974Z</time>
      </trkpt>
      <trkpt lat="39.28555" lon="41.00039">
        <ele>1836.685801</ele>
        <time>2021-11-16T15:34:17.638Z</time>
      </trkpt>
      <trkpt lat="39.28489" lon="40.99981">
        <ele>1835.419338</ele>
        <time>2021-11-16T15:34:32.115Z</time>
      </trkpt>
      <trkpt lat="39.28418" lon="40.99929">
        <ele>1833.193737</ele>
        <time>2021-11-16T15:34:45.964Z</time>
      </trkpt>
      <trkpt lat="39.28017" lon="40.99711">
        <ele>1818.650103</ele>
        <time>2021-11-16T15:35:55.796Z</time>
      </trkpt>
      <trkpt lat="39.2708" lon="40.99212">
        <ele>1794.000366</ele>
        <time>2021-11-16T15:38:48.394Z</time>
      </trkpt>
      <trkpt lat="39.26739" lon="40.99031">
        <ele>1787.797493</ele>
        <time>2021-11-16T15:39:54.768Z</time>
      </trkpt>
      <trkpt lat="39.26685" lon="40.99003">
        <ele>1787.044363</ele>
        <time>2021-11-16T15:40:06.375Z</time>
      </trkpt>
      <trkpt lat="39.266" lon="40.9897">
        <ele>1787.053626</ele>
        <time>2021-11-16T15:40:25.254Z</time>
      </trkpt>
      <trkpt lat="39.26263" lon="40.98875">
        <ele>1788.033452</ele>
        <time>2021-11-16T15:41:47.659Z</time>
      </trkpt>
      <trkpt lat="39.26115" lon="40.98834">
        <ele>1788.42048</ele>
        <time>2021-11-16T15:42:22.909Z</time>
      </trkpt>
      <trkpt lat="39.25962" lon="40.98787">
        <ele>1788.57952</ele>
        <time>2021-11-16T15:42:58.212Z</time>
      </trkpt>
      <trkpt lat="39.25919" lon="40.98771">
        <ele>1788.584527</ele>
        <time>2021-11-16T15:43:08.125Z</time>
      </trkpt>
      <trkpt lat="39.25848" lon="40.98731">
        <ele>1788.593277</ele>
        <time>2021-11-16T15:43:25.597Z</time>
      </trkpt>
      <trkpt lat="39.25792" lon="40.98694">
        <ele>1788.492926</ele>
        <time>2021-11-16T15:43:39.741Z</time>
      </trkpt>
      <trkpt lat="39.25754" lon="40.98668">
        <ele>1788.345614</ele>
        <time>2021-11-16T15:43:49.187Z</time>
      </trkpt>
      <trkpt lat="39.24991" lon="40.98083">
        <ele>1784.60235</ele>
        <time>2021-11-16T15:46:54.381Z</time>
      </trkpt>
      <trkpt lat="39.249" lon="40.98013">
        <ele>1783.204812</ele>
        <time>2021-11-16T15:47:13.505Z</time>
      </trkpt>
      <trkpt lat="39.24858" lon="40.97989">
        <ele>1782.387444</ele>
        <time>2021-11-16T15:47:21.590Z</time>
      </trkpt>
      <trkpt lat="39.24815" lon="40.97975">
        <ele>1781.536832</ele>
        <time>2021-11-16T15:47:29.192Z</time>
      </trkpt>
      <trkpt lat="39.24784" lon="40.97972">
        <ele>1780.937429</ele>
        <time>2021-11-16T15:47:34.574Z</time>
      </trkpt>
      <trkpt lat="39.24344" lon="40.97988">
        <ele>1773.676521</ele>
        <time>2021-11-16T15:48:54.456Z</time>
      </trkpt>
      <trkpt lat="39.2382" lon="40.9808">
        <ele>1766.632967</ele>
        <time>2021-11-16T15:50:33.005Z</time>
      </trkpt>
      <trkpt lat="39.23771" lon="40.98073">
        <ele>1766.098252</ele>
        <time>2021-11-16T15:50:42.418Z</time>
      </trkpt>
      <trkpt lat="39.23372" lon="40.9795">
        <ele>1761.451455</ele>
        <time>2021-11-16T15:52:01.242Z</time>
      </trkpt>
      <trkpt lat="39.23299" lon="40.9792">
        <ele>1760.458843</ele>
        <time>2021-11-16T15:52:15.214Z</time>
      </trkpt>
      <trkpt lat="39.23107" lon="40.97835">
        <ele>1756.816425</ele>
        <time>2021-11-16T15:52:51.756Z</time>
      </trkpt>
      <trkpt lat="39.23074" lon="40.97831">
        <ele>1755.921545</ele>
        <time>2021-11-16T15:52:57.541Z</time>
      </trkpt>
      <trkpt lat="39.23056" lon="40.97835">
        <ele>1755.423185</ele>
        <time>2021-11-16T15:53:00.703Z</time>
      </trkpt>
      <trkpt lat="39.23013" lon="40.97863">
        <ele>1754.1372</ele>
        <time>2021-11-16T15:53:08.660Z</time>
      </trkpt>
      <trkpt lat="39.22975" lon="40.97878">
        <ele>1753.077941</ele>
        <time>2021-11-16T15:53:15.001Z</time>
      </trkpt>
      <trkpt lat="39.22926" lon="40.97871">
        <ele>1752.221732</ele>
        <time>2021-11-16T15:53:22.878Z</time>
      </trkpt>
      <trkpt lat="39.22828" lon="40.97836">
        <ele>1751.255535</ele>
        <time>2021-11-16T15:53:40.725Z</time>
      </trkpt>
      <trkpt lat="39.22795" lon="40.97825">
        <ele>1750.936686</ele>
        <time>2021-11-16T15:53:49.852Z</time>
      </trkpt>
      <trkpt lat="39.22724" lon="40.97799">
        <ele>1754.213533</ele>
        <time>2021-11-16T15:54:15.989Z</time>
      </trkpt>
      <trkpt lat="39.22699" lon="40.97787">
        <ele>1755.847225</ele>
        <time>2021-11-16T15:54:28.139Z</time>
      </trkpt>
      <trkpt lat="39.22667" lon="40.97763">
        <ele>1758.052879</ele>
        <time>2021-11-16T15:54:46.519Z</time>
      </trkpt>
      <trkpt lat="39.22618" lon="40.97708">
        <ele>1762.189913</ele>
        <time>2021-11-16T15:55:24.057Z</time>
      </trkpt>
      <trkpt lat="39.22528" lon="40.97579">
        <ele>1774.746862</ele>
        <time>2021-11-16T15:56:46.587Z</time>
      </trkpt>
      <trkpt lat="39.22422" lon="40.97442">
        <ele>1786.793627</ele>
        <time>2021-11-16T15:58:11.971Z</time>
      </trkpt>
      <trkpt lat="39.22379" lon="40.97413">
        <ele>1790.443123</ele>
        <time>2021-11-16T15:58:35.970Z</time>
      </trkpt>
      <trkpt lat="39.22301" lon="40.97396">
        <ele>1793.275382</ele>
        <time>2021-11-16T15:59:09.025Z</time>
      </trkpt>
      <trkpt lat="39.22242" lon="40.97371">
        <ele>1794.574733</ele>
        <time>2021-11-16T15:59:28.180Z</time>
      </trkpt>
      <trkpt lat="39.22189" lon="40.97315">
        <ele>1795.610129</ele>
        <time>2021-11-16T15:59:42.702Z</time>
      </trkpt>
      <trkpt lat="39.22041" lon="40.97126">
        <ele>1790.274173</ele>
        <time>2021-11-16T16:00:17.053Z</time>
      </trkpt>
      <trkpt lat="39.22016" lon="40.97089">
        <ele>1789.274323</ele>
        <time>2021-11-16T16:00:23.366Z</time>
      </trkpt>
      <trkpt lat="39.21987" lon="40.97028">
        <ele>1787.814816</ele>
        <time>2021-11-16T16:00:32.850Z</time>
      </trkpt>
      <trkpt lat="39.21934" lon="40.96825">
        <ele>1782.203171</ele>
        <time>2021-11-16T16:01:00.940Z</time>
      </trkpt>
      <trkpt lat="39.21907" lon="40.96761">
        <ele>1780.137712</ele>
        <time>2021-11-16T16:01:09.560Z</time>
      </trkpt>
      <trkpt lat="39.21763" lon="40.96597">
        <ele>1766.70389</ele>
        <time>2021-11-16T16:01:36.857Z</time>
      </trkpt>
      <trkpt lat="39.21705" lon="40.96542">
        <ele>1762.214579</ele>
        <time>2021-11-16T16:01:46.910Z</time>
      </trkpt>
      <trkpt lat="39.21619" lon="40.96473">
        <ele>1755.914063</ele>
        <time>2021-11-16T16:02:01.645Z</time>
      </trkpt>
      <trkpt lat="39.21184" lon="40.96127">
        <ele>1750.53174</ele>
        <time>2021-11-16T16:03:40.687Z</time>
      </trkpt>
      <trkpt lat="39.21071" lon="40.96039">
        <ele>1752.25233</ele>
        <time>2021-11-16T16:04:17.961Z</time>
      </trkpt>
      <trkpt lat="39.20969" lon="40.95959">
        <ele>1754.29963</ele>
        <time>2021-11-16T16:04:56.425Z</time>
      </trkpt>
      <trkpt lat="39.20934" lon="40.95924">
        <ele>1754.990731</ele>
        <time>2021-11-16T16:05:10.685Z</time>
      </trkpt>
      <trkpt lat="39.20914" lon="40.95885">
        <ele>1755.543897</ele>
        <time>2021-11-16T16:05:21.193Z</time>
      </trkpt>
      <trkpt lat="39.20907" lon="40.95836">
        <ele>1756.147697</ele>
        <time>2021-11-16T16:05:31.159Z</time>
      </trkpt>
      <trkpt lat="39.20907" lon="40.95764">
        <ele>1756.081249</ele>
        <time>2021-11-16T16:05:42.883Z</time>
      </trkpt>
      <trkpt lat="39.20903" lon="40.95738">
        <ele>1755.875754</ele>
        <time>2021-11-16T16:05:46.791Z</time>
      </trkpt>
      <trkpt lat="39.20892" lon="40.95713">
        <ele>1755.652701</ele>
        <time>2021-11-16T16:05:50.960Z</time>
      </trkpt>
      <trkpt lat="39.20878" lon="40.95688">
        <ele>1755.408633</ele>
        <time>2021-11-16T16:05:55.392Z</time>
      </trkpt>
      <trkpt lat="39.20811" lon="40.95602">
        <ele>1754.617525</ele>
        <time>2021-11-16T16:06:12.785Z</time>
      </trkpt>
      <trkpt lat="39.20793" lon="40.9557">
        <ele>1754.581904</ele>
        <time>2021-11-16T16:06:18.605Z</time>
      </trkpt>
      <trkpt lat="39.20786" lon="40.9555">
        <ele>1754.561941</ele>
        <time>2021-11-16T16:06:21.949Z</time>
      </trkpt>
      <trkpt lat="39.20782" lon="40.95528">
        <ele>1754.541844</ele>
        <time>2021-11-16T16:06:25.487Z</time>
      </trkpt>
      <trkpt lat="39.20788" lon="40.95473">
        <ele>1754.491844</ele>
        <time>2021-11-16T16:06:35.130Z</time>
      </trkpt>
      <trkpt lat="39.208" lon="40.95362">
        <ele>1755.056767</ele>
        <time>2021-11-16T16:06:57.951Z</time>
      </trkpt>
      <trkpt lat="39.20798" lon="40.9534">
        <ele>1755.390202</ele>
        <time>2021-11-16T16:07:02.928Z</time>
      </trkpt>
      <trkpt lat="39.20794" lon="40.9532">
        <ele>1755.695418</ele>
        <time>2021-11-16T16:07:07.495Z</time>
      </trkpt>
      <trkpt lat="39.20784" lon="40.95299">
        <ele>1756.07339</ele>
        <time>2021-11-16T16:07:13.267Z</time>
      </trkpt>
      <trkpt lat="39.20765" lon="40.95274">
        <ele>1756.593872</ele>
        <time>2021-11-16T16:07:21.021Z</time>
      </trkpt>
      <trkpt lat="39.20617" lon="40.9512">
        <ele>1762.129449</ele>
        <time>2021-11-16T16:08:24.465Z</time>
      </trkpt>
      <trkpt lat="39.20612" lon="40.95115">
        <ele>1762.353094</ele>
        <time>2021-11-16T16:08:27.269Z</time>
      </trkpt>
      <trkpt lat="39.20541" lon="40.95042">
        <ele>1766.294271</ele>
        <time>2021-11-16T16:09:04.058Z</time>
      </trkpt>
      <trkpt lat="39.20266" lon="40.94813">
        <ele>1785.051738</ele>
        <time>2021-11-16T16:11:34.091Z</time>
      </trkpt>
      <trkpt lat="39.20239" lon="40.94757">
        <ele>1787.672458</ele>
        <time>2021-11-16T16:11:58.063Z</time>
      </trkpt>
      <trkpt lat="39.20217" lon="40.94663">
        <ele>1791.524873</ele>
        <time>2021-11-16T16:12:30.961Z</time>
      </trkpt>
      <trkpt lat="39.20196" lon="40.94607">
        <ele>1793.940874</ele>
        <time>2021-11-16T16:12:50.536Z</time>
      </trkpt>
      <trkpt lat="39.20179" lon="40.94582">
        <ele>1794.527629</ele>
        <time>2021-11-16T16:13:00.185Z</time>
      </trkpt>
      <trkpt lat="39.19959" lon="40.94386">
        <ele>1799.620089</ele>
        <time>2021-11-16T16:14:18.189Z</time>
      </trkpt>
      <trkpt lat="39.19923" lon="40.94346">
        <ele>1800.276857</ele>
        <time>2021-11-16T16:14:30.102Z</time>
      </trkpt>
      <trkpt lat="39.19911" lon="40.94326">
        <ele>1800.549767</ele>
        <time>2021-11-16T16:14:35.175Z</time>
      </trkpt>
      <trkpt lat="39.19879" lon="40.9424">
        <ele>1801.434742</ele>
        <time>2021-11-16T16:14:54.004Z</time>
      </trkpt>
      <trkpt lat="39.19843" lon="40.94178">
        <ele>1802.16601</ele>
        <time>2021-11-16T16:15:09.957Z</time>
      </trkpt>
      <trkpt lat="39.19455" lon="40.93656">
        <ele>1812.707851</ele>
        <time>2021-11-16T16:17:57.751Z</time>
      </trkpt>
      <trkpt lat="39.19413" lon="40.93618">
        <ele>1813.777488</ele>
        <time>2021-11-16T16:18:13.913Z</time>
      </trkpt>
      <trkpt lat="39.19275" lon="40.93562">
        <ele>1816.893976</ele>
        <time>2021-11-16T16:18:58.616Z</time>
      </trkpt>
      <trkpt lat="39.19239" lon="40.93541">
        <ele>1817.831518</ele>
        <time>2021-11-16T16:19:10.644Z</time>
      </trkpt>
      <trkpt lat="39.19221" lon="40.93522">
        <ele>1818.402992</ele>
        <time>2021-11-16T16:19:17.990Z</time>
      </trkpt>
      <trkpt lat="39.1921" lon="40.93496">
        <ele>1818.96434</ele>
        <time>2021-11-16T16:19:25.343Z</time>
      </trkpt>
      <trkpt lat="39.19195" lon="40.93421">
        <ele>1820.402339</ele>
        <time>2021-11-16T16:19:44.793Z</time>
      </trkpt>
      <trkpt lat="39.19166" lon="40.93354">
        <ele>1821.760663</ele>
        <time>2021-11-16T16:20:04.373Z</time>
      </trkpt>
      <trkpt lat="39.19101" lon="40.93278">
        <ele>1823.482995</ele>
        <time>2021-11-16T16:20:32.967Z</time>
      </trkpt>
      <trkpt lat="39.18749" lon="40.92901">
        <ele>1827.459205</ele>
        <time>2021-11-16T16:22:32.817Z</time>
      </trkpt>
      <trkpt lat="39.1872" lon="40.92863">
        <ele>1826.394723</ele>
        <time>2021-11-16T16:22:40.214Z</time>
      </trkpt>
      <trkpt lat="39.18702" lon="40.92827">
        <ele>1825.537754</ele>
        <time>2021-11-16T16:22:45.892Z</time>
      </trkpt>
      <trkpt lat="39.18692" lon="40.928">
        <ele>1824.953146</ele>
        <time>2021-11-16T16:22:49.725Z</time>
      </trkpt>
      <trkpt lat="39.18691" lon="40.92795">
        <ele>1824.843725</ele>
        <time>2021-11-16T16:22:50.339Z</time>
      </trkpt>
      <trkpt lat="39.18637" lon="40.92591">
        <ele>1817.18184</ele>
        <time>2021-11-16T16:23:15.525Z</time>
      </trkpt>
      <trkpt lat="39.18611" lon="40.92528">
        <ele>1814.127374</ele>
        <time>2021-11-16T16:23:23.574Z</time>
      </trkpt>
      <trkpt lat="39.18575" lon="40.92492">
        <ele>1811.330795</ele>
        <time>2021-11-16T16:23:30.079Z</time>
      </trkpt>
      <trkpt lat="39.18464" lon="40.9244">
        <ele>1803.774171</ele>
        <time>2021-11-16T16:23:47.101Z</time>
      </trkpt>
      <trkpt lat="39.18422" lon="40.92412">
        <ele>1801.338606</ele>
        <time>2021-11-16T16:23:54.141Z</time>
      </trkpt>
      <trkpt lat="39.18393" lon="40.92372">
        <ele>1799.866813</ele>
        <time>2021-11-16T16:24:00.495Z</time>
      </trkpt>
      <trkpt lat="39.18238" lon="40.92114">
        <ele>1792.97896</ele>
        <time>2021-11-16T16:24:43.746Z</time>
      </trkpt>
      <trkpt lat="39.18206" lon="40.92033">
        <ele>1791.945723</ele>
        <time>2021-11-16T16:24:57.334Z</time>
      </trkpt>
      <trkpt lat="39.18173" lon="40.91924">
        <ele>1791.410489</ele>
        <time>2021-11-16T16:25:15.701Z</time>
      </trkpt>
      <trkpt lat="39.18141" lon="40.9185">
        <ele>1791.036023</ele>
        <time>2021-11-16T16:25:29.379Z</time>
      </trkpt>
      <trkpt lat="39.17857" lon="40.91488">
        <ele>1791.181384</ele>
        <time>2021-11-16T16:26:55.746Z</time>
      </trkpt>
      <trkpt lat="39.17829" lon="40.91463">
        <ele>1791.718796</ele>
        <time>2021-11-16T16:27:05.696Z</time>
      </trkpt>
      <trkpt lat="39.17812" lon="40.91454">
        <ele>1792.019508</ele>
        <time>2021-11-16T16:27:12.308Z</time>
      </trkpt>
      <trkpt lat="39.17711" lon="40.91416">
        <ele>1793.482737</ele>
        <time>2021-11-16T16:27:45.499Z</time>
      </trkpt>
      <trkpt lat="39.17655" lon="40.91388">
        <ele>1793.834221</ele>
        <time>2021-11-16T16:28:02.901Z</time>
      </trkpt>
      <trkpt lat="39.17608" lon="40.9136">
        <ele>1794.139622</ele>
        <time>2021-11-16T16:28:14.749Z</time>
      </trkpt>
      <trkpt lat="39.17556" lon="40.91322">
        <ele>1794.137789</ele>
        <time>2021-11-16T16:28:26.763Z</time>
      </trkpt>
      <trkpt lat="39.1743" lon="40.91212">
        <ele>1790.628025</ele>
        <time>2021-11-16T16:28:52.530Z</time>
      </trkpt>
      <trkpt lat="39.17237" lon="40.91117">
        <ele>1784.345858</ele>
        <time>2021-11-16T16:29:26.678Z</time>
      </trkpt>
      <trkpt lat="39.16871" lon="40.90889">
        <ele>1768.82004</ele>
        <time>2021-11-16T16:30:30.607Z</time>
      </trkpt>
      <trkpt lat="39.16817" lon="40.90875">
        <ele>1766.842979</ele>
        <time>2021-11-16T16:30:39.443Z</time>
      </trkpt>
      <trkpt lat="39.16683" lon="40.90908">
        <ele>1762.263153</ele>
        <time>2021-11-16T16:31:01.516Z</time>
      </trkpt>
      <trkpt lat="39.1664" lon="40.909">
        <ele>1760.912285</ele>
        <time>2021-11-16T16:31:08.502Z</time>
      </trkpt>
      <trkpt lat="39.16606" lon="40.90881">
        <ele>1759.741998</ele>
        <time>2021-11-16T16:31:14.614Z</time>
      </trkpt>
      <trkpt lat="39.16561" lon="40.90846">
        <ele>1758.277843</ele>
        <time>2021-11-16T16:31:23.363Z</time>
      </trkpt>
      <trkpt lat="39.16401" lon="40.90709">
        <ele>1754.046997</ele>
        <time>2021-11-16T16:31:56.656Z</time>
      </trkpt>
      <trkpt lat="39.16374" lon="40.90681">
        <ele>1753.384529</ele>
        <time>2021-11-16T16:32:03.082Z</time>
      </trkpt>
      <trkpt lat="39.16354" lon="40.9065">
        <ele>1752.79666</ele>
        <time>2021-11-16T16:32:08.787Z</time>
      </trkpt>
      <trkpt lat="39.16319" lon="40.90571">
        <ele>1751.46498</ele>
        <time>2021-11-16T16:32:21.359Z</time>
      </trkpt>
      <trkpt lat="39.16263" lon="40.90488">
        <ele>1749.370227</ele>
        <time>2021-11-16T16:32:35.956Z</time>
      </trkpt>
      <trkpt lat="39.16214" lon="40.90369">
        <ele>1746.738111</ele>
        <time>2021-11-16T16:32:53.434Z</time>
      </trkpt>
      <trkpt lat="39.16192" lon="40.90336">
        <ele>1746.198437</ele>
        <time>2021-11-16T16:32:59.142Z</time>
      </trkpt>
      <trkpt lat="39.1614" lon="40.90283">
        <ele>1745.142527</ele>
        <time>2021-11-16T16:33:10.639Z</time>
      </trkpt>
      <trkpt lat="39.16133" lon="40.90275">
        <ele>1744.9923</ele>
        <time>2021-11-16T16:33:12.235Z</time>
      </trkpt>
      <trkpt lat="39.16019" lon="40.90187">
        <ele>1744.403029</ele>
        <time>2021-11-16T16:33:40.044Z</time>
      </trkpt>
      <trkpt lat="39.15865" lon="40.90088">
        <ele>1746.689621</ele>
        <time>2021-11-16T16:34:28.039Z</time>
      </trkpt>
      <trkpt lat="39.15848" lon="40.9007">
        <ele>1747.252501</ele>
        <time>2021-11-16T16:34:35.114Z</time>
      </trkpt>
      <trkpt lat="39.15772" lon="40.89962">
        <ele>1750.341908</ele>
        <time>2021-11-16T16:35:12.840Z</time>
      </trkpt>
      <trkpt lat="39.15724" lon="40.89911">
        <ele>1753.546944</ele>
        <time>2021-11-16T16:35:38.347Z</time>
      </trkpt>
      <trkpt lat="39.15663" lon="40.89832">
        <ele>1758.050345</ele>
        <time>2021-11-16T16:36:17.796Z</time>
      </trkpt>
      <trkpt lat="39.15628" lon="40.89769">
        <ele>1761.46981</ele>
        <time>2021-11-16T16:36:46.723Z</time>
      </trkpt>
      <trkpt lat="39.15552" lon="40.89575">
        <ele>1771.149044</ele>
        <time>2021-11-16T16:38:05.691Z</time>
      </trkpt>
      <trkpt lat="39.15509" lon="40.8944">
        <ele>1775.920524</ele>
        <time>2021-11-16T16:38:49.071Z</time>
      </trkpt>
      <trkpt lat="39.15499" lon="40.89207">
        <ele>1781.645293</ele>
        <time>2021-11-16T16:39:50.494Z</time>
      </trkpt>
      <trkpt lat="39.15494" lon="40.89166">
        <ele>1782.579552</ele>
        <time>2021-11-16T16:40:01.108Z</time>
      </trkpt>
      <trkpt lat="39.15492" lon="40.8915">
        <ele>1782.952003</ele>
        <time>2021-11-16T16:40:05.027Z</time>
      </trkpt>
      <trkpt lat="39.1549" lon="40.8914">
        <ele>1783.185112</ele>
        <time>2021-11-16T16:40:07.575Z</time>
      </trkpt>
      <trkpt lat="39.15481" lon="40.89106">
        <ele>1784.012843</ele>
        <time>2021-11-16T16:40:16.449Z</time>
      </trkpt>
      <trkpt lat="39.15468" lon="40.89075">
        <ele>1784.838572</ele>
        <time>2021-11-16T16:40:25.590Z</time>
      </trkpt>
      <trkpt lat="39.15441" lon="40.89012">
        <ele>1786.526742</ele>
        <time>2021-11-16T16:40:44.461Z</time>
      </trkpt>
      <trkpt lat="39.15408" lon="40.88934">
        <ele>1788.603318</ele>
        <time>2021-11-16T16:41:09.544Z</time>
      </trkpt>
      <trkpt lat="39.15377" lon="40.88861">
        <ele>1790.522509</ele>
        <time>2021-11-16T16:41:33.877Z</time>
      </trkpt>
      <trkpt lat="39.15374" lon="40.88853">
        <ele>1790.720614</ele>
        <time>2021-11-16T16:41:36.363Z</time>
      </trkpt>
      <trkpt lat="39.15339" lon="40.8877">
        <ele>1792.924148</ele>
        <time>2021-11-16T16:42:01.555Z</time>
      </trkpt>
      <trkpt lat="39.15325" lon="40.88731">
        <ele>1793.30248</ele>
        <time>2021-11-16T16:42:10.992Z</time>
      </trkpt>
      <trkpt lat="39.15319" lon="40.88708">
        <ele>1793.073734</ele>
        <time>2021-11-16T16:42:16.371Z</time>
      </trkpt>
      <trkpt lat="39.15308" lon="40.88648">
        <ele>1792.495722</ele>
        <time>2021-11-16T16:42:26.779Z</time>
      </trkpt>
      <trkpt lat="39.15305" lon="40.88609">
        <ele>1792.121182</ele>
        <time>2021-11-16T16:42:32.591Z</time>
      </trkpt>
      <trkpt lat="39.15286" lon="40.88406">
        <ele>1787.359891</ele>
        <time>2021-11-16T16:42:57.589Z</time>
      </trkpt>
      <trkpt lat="39.15258" lon="40.88072">
        <ele>1774.972135</ele>
        <time>2021-11-16T16:43:37.112Z</time>
      </trkpt>
      <trkpt lat="39.15242" lon="40.87982">
        <ele>1770.59164</ele>
        <time>2021-11-16T16:43:47.785Z</time>
      </trkpt>
      <trkpt lat="39.15224" lon="40.87927">
        <ele>1767.696922</ele>
        <time>2021-11-16T16:43:54.559Z</time>
      </trkpt>
      <trkpt lat="39.15199" lon="40.8787">
        <ele>1764.512075</ele>
        <time>2021-11-16T16:44:01.845Z</time>
      </trkpt>
      <trkpt lat="39.15174" lon="40.87828">
        <ele>1761.936786</ele>
        <time>2021-11-16T16:44:07.631Z</time>
      </trkpt>
      <trkpt lat="39.15143" lon="40.87786">
        <ele>1759.02055</ele>
        <time>2021-11-16T16:44:14.099Z</time>
      </trkpt>
      <trkpt lat="39.15107" lon="40.8775">
        <ele>1756.07529</ele>
        <time>2021-11-16T16:44:20.646Z</time>
      </trkpt>
      <trkpt lat="39.14914" lon="40.87572">
        <ele>1742.710164</ele>
        <time>2021-11-16T16:44:55.961Z</time>
      </trkpt>
      <trkpt lat="39.14745" lon="40.87418">
        <ele>1732.930936</ele>
        <time>2021-11-16T16:45:27.998Z</time>
      </trkpt>
      <trkpt lat="39.14709" lon="40.87386">
        <ele>1730.211345</ele>
        <time>2021-11-16T16:45:34.351Z</time>
      </trkpt>
      <trkpt lat="39.1442" lon="40.87123">
        <ele>1708.028552</ele>
        <time>2021-11-16T16:46:25.169Z</time>
      </trkpt>
      <trkpt lat="39.142" lon="40.86923">
        <ele>1698.786757</ele>
        <time>2021-11-16T16:47:09.759Z</time>
      </trkpt>
      <trkpt lat="39.13749" lon="40.86512">
        <ele>1684.685542</ele>
        <time>2021-11-16T16:48:44.341Z</time>
      </trkpt>
      <trkpt lat="39.13725" lon="40.86485">
        <ele>1683.584275</ele>
        <time>2021-11-16T16:48:49.210Z</time>
      </trkpt>
      <trkpt lat="39.13715" lon="40.86469">
        <ele>1682.722067</ele>
        <time>2021-11-16T16:48:51.594Z</time>
      </trkpt>
      <trkpt lat="39.13667" lon="40.86356">
        <ele>1677.328196</ele>
        <time>2021-11-16T16:49:06.504Z</time>
      </trkpt>
      <trkpt lat="39.13534" lon="40.85994">
        <ele>1659.360507</ele>
        <time>2021-11-16T16:49:51.884Z</time>
      </trkpt>
      <trkpt lat="39.13449" lon="40.85774">
        <ele>1652.668816</ele>
        <time>2021-11-16T16:50:21.252Z</time>
      </trkpt>
      <trkpt lat="39.13431" lon="40.85737">
        <ele>1652.180067</ele>
        <time>2021-11-16T16:50:27.764Z</time>
      </trkpt>
      <trkpt lat="39.1341" lon="40.85709">
        <ele>1651.733205</ele>
        <time>2021-11-16T16:50:34.938Z</time>
      </trkpt>
      <trkpt lat="39.13383" lon="40.85683">
        <ele>1651.499639</ele>
        <time>2021-11-16T16:50:44.852Z</time>
      </trkpt>
      <trkpt lat="39.13286" lon="40.85627">
        <ele>1657.6214</ele>
        <time>2021-11-16T16:51:30.063Z</time>
      </trkpt>
      <trkpt lat="39.13188" lon="40.85578">
        <ele>1664.48655</ele>
        <time>2021-11-16T16:52:27.508Z</time>
      </trkpt>
      <trkpt lat="39.13146" lon="40.85564">
        <ele>1668.013932</ele>
        <time>2021-11-16T16:52:52.361Z</time>
      </trkpt>
      <trkpt lat="39.13106" lon="40.85567">
        <ele>1671.250806</ele>
        <time>2021-11-16T16:53:15.215Z</time>
      </trkpt>
      <trkpt lat="39.12996" lon="40.85608">
        <ele>1678.9626</ele>
        <time>2021-11-16T16:54:15.795Z</time>
      </trkpt>
      <trkpt lat="39.12949" lon="40.85619">
        <ele>1681.426677</ele>
        <time>2021-11-16T16:54:37.666Z</time>
      </trkpt>
      <trkpt lat="39.12892" lon="40.85619">
        <ele>1684.322405</ele>
        <time>2021-11-16T16:54:58.774Z</time>
      </trkpt>
      <trkpt lat="39.12878" lon="40.85616">
        <ele>1685.074036</ele>
        <time>2021-11-16T16:55:04.277Z</time>
      </trkpt>
      <trkpt lat="39.12849" lon="40.85609">
        <ele>1685.283425</ele>
        <time>2021-11-16T16:55:12.857Z</time>
      </trkpt>
      <trkpt lat="39.12829" lon="40.85601">
        <ele>1685.094921</ele>
        <time>2021-11-16T16:55:18.268Z</time>
      </trkpt>
      <trkpt lat="39.12812" lon="40.85594">
        <ele>1684.945628</ele>
        <time>2021-11-16T16:55:22.510Z</time>
      </trkpt>
      <trkpt lat="39.12777" lon="40.85574">
        <ele>1684.597951</ele>
        <time>2021-11-16T16:55:30.602Z</time>
      </trkpt>
      <trkpt lat="39.12759" lon="40.85564">
        <ele>1684.430776</ele>
        <time>2021-11-16T16:55:33.925Z</time>
      </trkpt>
      <trkpt lat="39.12705" lon="40.85535">
        <ele>1683.909958</ele>
        <time>2021-11-16T16:55:43.813Z</time>
      </trkpt>
      <trkpt lat="39.12563" lon="40.85453">
        <ele>1675.810488</ele>
        <time>2021-11-16T16:56:07.230Z</time>
      </trkpt>
      <trkpt lat="39.12486" lon="40.85405">
        <ele>1669.636882</ele>
        <time>2021-11-16T16:56:19.338Z</time>
      </trkpt>
      <trkpt lat="39.12246" lon="40.8523">
        <ele>1646.12555</ele>
        <time>2021-11-16T16:56:57.469Z</time>
      </trkpt>
      <trkpt lat="39.12016" lon="40.85066">
        <ele>1625.36427</ele>
        <time>2021-11-16T16:57:34.257Z</time>
      </trkpt>
      <trkpt lat="39.11959" lon="40.85032">
        <ele>1621.302413</ele>
        <time>2021-11-16T16:57:43.363Z</time>
      </trkpt>
      <trkpt lat="39.11817" lon="40.84955">
        <ele>1614.422114</ele>
        <time>2021-11-16T16:58:06.956Z</time>
      </trkpt>
      <trkpt lat="39.11797" lon="40.84943">
        <ele>1613.68927</ele>
        <time>2021-11-16T16:58:10.767Z</time>
      </trkpt>
      <trkpt lat="39.11748" lon="40.84917">
        <ele>1611.962373</ele>
        <time>2021-11-16T16:58:20.092Z</time>
      </trkpt>
      <trkpt lat="39.11711" lon="40.84892">
        <ele>1611.241471</ele>
        <time>2021-11-16T16:58:27.854Z</time>
      </trkpt>
      <trkpt lat="39.11654" lon="40.84842">
        <ele>1610.416281</ele>
        <time>2021-11-16T16:58:41.362Z</time>
      </trkpt>
      <trkpt lat="39.11614" lon="40.84794">
        <ele>1609.763622</ele>
        <time>2021-11-16T16:58:52.059Z</time>
      </trkpt>
      <trkpt lat="39.11576" lon="40.84735">
        <ele>1608.962645</ele>
        <time>2021-11-16T16:59:02.973Z</time>
      </trkpt>
      <trkpt lat="39.11529" lon="40.84636">
        <ele>1607.673787</ele>
        <time>2021-11-16T16:59:18.955Z</time>
      </trkpt>
      <trkpt lat="39.115" lon="40.84564">
        <ele>1606.929974</ele>
        <time>2021-11-16T16:59:30.890Z</time>
      </trkpt>
      <trkpt lat="39.11491" lon="40.84539">
        <ele>1607.0852</ele>
        <time>2021-11-16T16:59:35.016Z</time>
      </trkpt>
      <trkpt lat="39.11472" lon="40.84486">
        <ele>1607.419057</ele>
        <time>2021-11-16T16:59:44.874Z</time>
      </trkpt>
      <trkpt lat="39.11447" lon="40.84434">
        <ele>1607.769033</ele>
        <time>2021-11-16T16:59:56.287Z</time>
      </trkpt>
      <trkpt lat="39.11353" lon="40.8428">
        <ele>1611.316395</ele>
        <time>2021-11-16T17:00:46.021Z</time>
      </trkpt>
      <trkpt lat="39.11238" lon="40.84005">
        <ele>1620.467639</ele>
        <time>2021-11-16T17:02:20.424Z</time>
      </trkpt>
      <trkpt lat="39.11057" lon="40.83671">
        <ele>1629.628539</ele>
        <time>2021-11-16T17:04:14.104Z</time>
      </trkpt>
      <trkpt lat="39.10716" lon="40.83362">
        <ele>1627.479927</ele>
        <time>2021-11-16T17:05:35.077Z</time>
      </trkpt>
      <trkpt lat="39.10609" lon="40.83253">
        <ele>1625.051955</ele>
        <time>2021-11-16T17:06:00.377Z</time>
      </trkpt>
      <trkpt lat="39.10554" lon="40.8318">
        <ele>1622.970677</ele>
        <time>2021-11-16T17:06:13.740Z</time>
      </trkpt>
      <trkpt lat="39.10239" lon="40.82704">
        <ele>1602.180085</ele>
        <time>2021-11-16T17:07:28.354Z</time>
      </trkpt>
      <trkpt lat="39.10216" lon="40.82677">
        <ele>1600.928608</ele>
        <time>2021-11-16T17:07:33.355Z</time>
      </trkpt>
      <trkpt lat="39.10077" lon="40.82551">
        <ele>1595.744425</ele>
        <time>2021-11-16T17:08:01.893Z</time>
      </trkpt>
      <trkpt lat="39.10024" lon="40.82498">
        <ele>1591.987731</ele>
        <time>2021-11-16T17:08:12.272Z</time>
      </trkpt>
      <trkpt lat="39.10008" lon="40.82476">
        <ele>1590.595179</ele>
        <time>2021-11-16T17:08:15.712Z</time>
      </trkpt>
      <trkpt lat="39.10003" lon="40.82463">
        <ele>1589.891616</ele>
        <time>2021-11-16T17:08:17.529Z</time>
      </trkpt>
      <trkpt lat="39.09998" lon="40.82451">
        <ele>1589.294659</ele>
        <time>2021-11-16T17:08:18.904Z</time>
      </trkpt>
      <trkpt lat="39.09959" lon="40.82291">
        <ele>1580.808805</ele>
        <time>2021-11-16T17:08:37.468Z</time>
      </trkpt>
      <trkpt lat="39.09945" lon="40.82257">
        <ele>1578.622447</ele>
        <time>2021-11-16T17:08:41.595Z</time>
      </trkpt>
      <trkpt lat="39.0987" lon="40.82142">
        <ele>1570.408003</ele>
        <time>2021-11-16T17:08:58.264Z</time>
      </trkpt>
      <trkpt lat="39.09756" lon="40.81898">
        <ele>1557.962406</ele>
        <time>2021-11-16T17:09:30.938Z</time>
      </trkpt>
      <trkpt lat="39.09745" lon="40.81885">
        <ele>1557.220662</ele>
        <time>2021-11-16T17:09:33.331Z</time>
      </trkpt>
      <trkpt lat="39.09728" lon="40.81874">
        <ele>1556.293558</ele>
        <time>2021-11-16T17:09:36.268Z</time>
      </trkpt>
      <trkpt lat="39.09713" lon="40.81879">
        <ele>1555.538247</ele>
        <time>2021-11-16T17:09:38.702Z</time>
      </trkpt>
      <trkpt lat="39.09671" lon="40.81953">
        <ele>1552.027102</ele>
        <time>2021-11-16T17:09:49.724Z</time>
      </trkpt>
      <trkpt lat="39.09651" lon="40.81965">
        <ele>1550.617618</ele>
        <time>2021-11-16T17:09:53.015Z</time>
      </trkpt>
      <trkpt lat="39.09638" lon="40.81959">
        <ele>1549.699708</ele>
        <time>2021-11-16T17:09:55.174Z</time>
      </trkpt>
      <trkpt lat="39.09543" lon="40.81841">
        <ele>1540.95799</ele>
        <time>2021-11-16T17:10:14.330Z</time>
      </trkpt>
      <trkpt lat="39.09532" lon="40.81807">
        <ele>1537.986194</ele>
        <time>2021-11-16T17:10:18.148Z</time>
      </trkpt>
      <trkpt lat="39.09523" lon="40.81725">
        <ele>1529.995446</ele>
        <time>2021-11-16T17:10:26.776Z</time>
      </trkpt>
      <trkpt lat="39.09515" lon="40.81703">
        <ele>1527.637282</ele>
        <time>2021-11-16T17:10:29.284Z</time>
      </trkpt>
      <trkpt lat="39.0949" lon="40.81684">
        <ele>1524.096773</ele>
        <time>2021-11-16T17:10:33.050Z</time>
      </trkpt>
      <trkpt lat="39.09441" lon="40.817">
        <ele>1517.800041</ele>
        <time>2021-11-16T17:10:39.623Z</time>
      </trkpt>
      <trkpt lat="39.09296" lon="40.81687">
        <ele>1497.689471</ele>
        <time>2021-11-16T17:10:58.525Z</time>
      </trkpt>
      <trkpt lat="39.09283" lon="40.81696">
        <ele>1495.638293</ele>
        <time>2021-11-16T17:11:00.495Z</time>
      </trkpt>
      <trkpt lat="39.09279" lon="40.81711">
        <ele>1493.987006</ele>
        <time>2021-11-16T17:11:02.114Z</time>
      </trkpt>
      <trkpt lat="39.09275" lon="40.81778">
        <ele>1491.549515</ele>
        <time>2021-11-16T17:11:09.255Z</time>
      </trkpt>
      <trkpt lat="39.09265" lon="40.81798">
        <ele>1490.873902</ele>
        <time>2021-11-16T17:11:11.952Z</time>
      </trkpt>
      <trkpt lat="39.09239" lon="40.81833">
        <ele>1489.448098</ele>
        <time>2021-11-16T17:11:17.807Z</time>
      </trkpt>
      <trkpt lat="39.09235" lon="40.81853">
        <ele>1488.841331</ele>
        <time>2021-11-16T17:11:20.369Z</time>
      </trkpt>
      <trkpt lat="39.09238" lon="40.81875">
        <ele>1488.213757</ele>
        <time>2021-11-16T17:11:24.111Z</time>
      </trkpt>
      <trkpt lat="39.0928" lon="40.8202">
        <ele>1492.365965</ele>
        <time>2021-11-16T17:12:10.168Z</time>
      </trkpt>
      <trkpt lat="39.09289" lon="40.82074">
        <ele>1495.580027</ele>
        <time>2021-11-16T17:12:36.245Z</time>
      </trkpt>
      <trkpt lat="39.09283" lon="40.82091">
        <ele>1496.674948</ele>
        <time>2021-11-16T17:12:45.456Z</time>
      </trkpt>
      <trkpt lat="39.0927" lon="40.82103">
        <ele>1497.829919</ele>
        <time>2021-11-16T17:12:55.239Z</time>
      </trkpt>
      <trkpt lat="39.09245" lon="40.82101">
        <ele>1499.713264</ele>
        <time>2021-11-16T17:13:11.763Z</time>
      </trkpt>
      <trkpt lat="39.09063" lon="40.81936">
        <ele>1524.778799</ele>
        <time>2021-11-16T17:15:45.593Z</time>
      </trkpt>
      <trkpt lat="39.09023" lon="40.8191">
        <ele>1529.497238</ele>
        <time>2021-11-16T17:16:14.384Z</time>
      </trkpt>
      <trkpt lat="39.08749" lon="40.81793">
        <ele>1559.445982</ele>
        <time>2021-11-16T17:19:16.396Z</time>
      </trkpt>
      <trkpt lat="39.08662" lon="40.81696">
        <ele>1570.703985</ele>
        <time>2021-11-16T17:20:33.375Z</time>
      </trkpt>
      <trkpt lat="39.08638" lon="40.81682">
        <ele>1573.268185</ele>
        <time>2021-11-16T17:20:49.725Z</time>
      </trkpt>
      <trkpt lat="39.0853" lon="40.81652">
        <ele>1577.339858</ele>
        <time>2021-11-16T17:21:40.776Z</time>
      </trkpt>
      <trkpt lat="39.08464" lon="40.81622">
        <ele>1578.538962</ele>
        <time>2021-11-16T17:21:53.933Z</time>
      </trkpt>
      <trkpt lat="39.08449" lon="40.8161">
        <ele>1578.845796</ele>
        <time>2021-11-16T17:21:56.744Z</time>
      </trkpt>
      <trkpt lat="39.08389" lon="40.81538">
        <ele>1576.943932</ele>
        <time>2021-11-16T17:22:09.277Z</time>
      </trkpt>
      <trkpt lat="39.08372" lon="40.81525">
        <ele>1576.392205</ele>
        <time>2021-11-16T17:22:12.254Z</time>
      </trkpt>
      <trkpt lat="39.08352" lon="40.81527">
        <ele>1575.844415</ele>
        <time>2021-11-16T17:22:15.301Z</time>
      </trkpt>
      <trkpt lat="39.0834" lon="40.81533">
        <ele>1575.477204</ele>
        <time>2021-11-16T17:22:17.301Z</time>
      </trkpt>
      <trkpt lat="39.08186" lon="40.81766">
        <ele>1576.780739</ele>
        <time>2021-11-16T17:23:18.870Z</time>
      </trkpt>
      <trkpt lat="39.08168" lon="40.81778">
        <ele>1578.028293</ele>
        <time>2021-11-16T17:23:28.416Z</time>
      </trkpt>
      <trkpt lat="39.08149" lon="40.81782">
        <ele>1579.17058</ele>
        <time>2021-11-16T17:23:37.275Z</time>
      </trkpt>
      <trkpt lat="39.08129" lon="40.81776">
        <ele>1580.406983</ele>
        <time>2021-11-16T17:23:47.153Z</time>
      </trkpt>
      <trkpt lat="39.08112" lon="40.8176">
        <ele>1581.628551</ele>
        <time>2021-11-16T17:23:57.222Z</time>
      </trkpt>
      <trkpt lat="39.08102" lon="40.81737">
        <ele>1582.855758</ele>
        <time>2021-11-16T17:24:07.502Z</time>
      </trkpt>
      <trkpt lat="39.08098" lon="40.81708">
        <ele>1584.223278</ele>
        <time>2021-11-16T17:24:19.424Z</time>
      </trkpt>
      <trkpt lat="39.08081" lon="40.81393">
        <ele>1599.824866</ele>
        <time>2021-11-16T17:26:22.903Z</time>
      </trkpt>
      <trkpt lat="39.08078" lon="40.81363">
        <ele>1600.408929</ele>
        <time>2021-11-16T17:26:32.538Z</time>
      </trkpt>
      <trkpt lat="39.0807" lon="40.81332">
        <ele>1601.040151</ele>
        <time>2021-11-16T17:26:42.398Z</time>
      </trkpt>
      <trkpt lat="39.08051" lon="40.81303">
        <ele>1601.750176</ele>
        <time>2021-11-16T17:26:52.701Z</time>
      </trkpt>
      <trkpt lat="39.08025" lon="40.81281">
        <ele>1602.527951</ele>
        <time>2021-11-16T17:27:02.916Z</time>
      </trkpt>
      <trkpt lat="39.07889" lon="40.81175">
        <ele>1601.209505</ele>
        <time>2021-11-16T17:27:32.238Z</time>
      </trkpt>
      <trkpt lat="39.07778" lon="40.81081">
        <ele>1597.3435</ele>
        <time>2021-11-16T17:27:52.837Z</time>
      </trkpt>
      <trkpt lat="39.07761" lon="40.81073">
        <ele>1596.748705</ele>
        <time>2021-11-16T17:27:55.646Z</time>
      </trkpt>
      <trkpt lat="39.07742" lon="40.81075">
        <ele>1596.144271</ele>
        <time>2021-11-16T17:27:58.498Z</time>
      </trkpt>
      <trkpt lat="39.07731" lon="40.81086">
        <ele>1595.68342</ele>
        <time>2021-11-16T17:28:00.752Z</time>
      </trkpt>
      <trkpt lat="39.07726" lon="40.81103">
        <ele>1595.232494</ele>
        <time>2021-11-16T17:28:02.982Z</time>
      </trkpt>
      <trkpt lat="39.07733" lon="40.81248">
        <ele>1592.587752</ele>
        <time>2021-11-16T17:28:23.329Z</time>
      </trkpt>
      <trkpt lat="39.07731" lon="40.81302">
        <ele>1592.033353</ele>
        <time>2021-11-16T17:28:31.814Z</time>
      </trkpt>
      <trkpt lat="39.07723" lon="40.81322">
        <ele>1591.807668</ele>
        <time>2021-11-16T17:28:35.297Z</time>
      </trkpt>
      <trkpt lat="39.07712" lon="40.81336">
        <ele>1591.613246</ele>
        <time>2021-11-16T17:28:38.283Z</time>
      </trkpt>
      <trkpt lat="39.07507" lon="40.81476">
        <ele>1587.63406</ele>
        <time>2021-11-16T17:29:20.562Z</time>
      </trkpt>
      <trkpt lat="39.07481" lon="40.81488">
        <ele>1586.253903</ele>
        <time>2021-11-16T17:29:25.025Z</time>
      </trkpt>
      <trkpt lat="39.07427" lon="40.81489">
        <ele>1583.553573</ele>
        <time>2021-11-16T17:29:33.511Z</time>
      </trkpt>
      <trkpt lat="39.07399" lon="40.81474">
        <ele>1582.023124</ele>
        <time>2021-11-16T17:29:38.210Z</time>
      </trkpt>
      <trkpt lat="39.07227" lon="40.8136">
        <ele>1567.82725</ele>
        <time>2021-11-16T17:30:05.604Z</time>
      </trkpt>
      <trkpt lat="39.0708" lon="40.81276">
        <ele>1551.661338</ele>
        <time>2021-11-16T17:30:27.170Z</time>
      </trkpt>
      <trkpt lat="39.0694" lon="40.81184">
        <ele>1535.667306</ele>
        <time>2021-11-16T17:30:48.456Z</time>
      </trkpt>
      <trkpt lat="39.069" lon="40.81156">
        <ele>1531.332878</ele>
        <time>2021-11-16T17:30:54.729Z</time>
      </trkpt>
      <trkpt lat="39.06823" lon="40.81103">
        <ele>1523.520715</ele>
        <time>2021-11-16T17:31:06.844Z</time>
      </trkpt>
      <trkpt lat="39.0677" lon="40.81054">
        <ele>1518.185968</ele>
        <time>2021-11-16T17:31:15.980Z</time>
      </trkpt>
      <trkpt lat="39.06679" lon="40.80941">
        <ele>1508.355465</ele>
        <time>2021-11-16T17:31:33.793Z</time>
      </trkpt>
      <trkpt lat="39.06616" lon="40.80838">
        <ele>1501.106691</ele>
        <time>2021-11-16T17:31:48.264Z</time>
      </trkpt>
      <trkpt lat="39.06416" lon="40.80434">
        <ele>1479.894525</ele>
        <time>2021-11-16T17:32:43.421Z</time>
      </trkpt>
      <trkpt lat="39.06379" lon="40.80365">
        <ele>1476.507942</ele>
        <time>2021-11-16T17:32:53.358Z</time>
      </trkpt>
      <trkpt lat="39.06341" lon="40.8031">
        <ele>1473.622098</ele>
        <time>2021-11-16T17:33:01.970Z</time>
      </trkpt>
      <trkpt lat="39.06306" lon="40.80265">
        <ele>1471.123045</ele>
        <time>2021-11-16T17:33:09.415Z</time>
      </trkpt>
      <trkpt lat="39.06182" lon="40.80137">
        <ele>1463.196796</ele>
        <time>2021-11-16T17:33:33.313Z</time>
      </trkpt>
      <trkpt lat="39.05982" lon="40.79943">
        <ele>1452.274</ele>
        <time>2021-11-16T17:34:11.837Z</time>
      </trkpt>
      <trkpt lat="39.05944" lon="40.79896">
        <ele>1450.423672</ele>
        <time>2021-11-16T17:34:20.453Z</time>
      </trkpt>
      <trkpt lat="39.05916" lon="40.79851">
        <ele>1448.866514</ele>
        <time>2021-11-16T17:34:27.805Z</time>
      </trkpt>
      <trkpt lat="39.05897" lon="40.79799">
        <ele>1447.326108</ele>
        <time>2021-11-16T17:34:35.156Z</time>
      </trkpt>
      <trkpt lat="39.05853" lon="40.79599">
        <ele>1440.336809</ele>
        <time>2021-11-16T17:35:00.769Z</time>
      </trkpt>
      <trkpt lat="39.05839" lon="40.79531">
        <ele>1437.030791</ele>
        <time>2021-11-16T17:35:08.718Z</time>
      </trkpt>
      <trkpt lat="39.05831" lon="40.7946">
        <ele>1432.43829</ele>
        <time>2021-11-16T17:35:16.552Z</time>
      </trkpt>
      <trkpt lat="39.058" lon="40.79345">
        <ele>1424.676774</ele>
        <time>2021-11-16T17:35:29.489Z</time>
      </trkpt>
      <trkpt lat="39.05793" lon="40.79292">
        <ele>1421.293042</ele>
        <time>2021-11-16T17:35:35.276Z</time>
      </trkpt>
      <trkpt lat="39.05793" lon="40.79227">
        <ele>1417.26918</ele>
        <time>2021-11-16T17:35:42.224Z</time>
      </trkpt>
      <trkpt lat="39.05813" lon="40.79042">
        <ele>1408.034712</ele>
        <time>2021-11-16T17:36:03.050Z</time>
      </trkpt>
      <trkpt lat="39.05814" lon="40.79026">
        <ele>1407.590818</ele>
        <time>2021-11-16T17:36:04.999Z</time>
      </trkpt>
      <trkpt lat="39.05815" lon="40.79007">
        <ele>1407.075516</ele>
        <time>2021-11-16T17:36:07.344Z</time>
      </trkpt>
      <trkpt lat="39.05804" lon="40.78931">
        <ele>1404.947368</ele>
        <time>2021-11-16T17:36:17.332Z</time>
      </trkpt>
      <trkpt lat="39.05752" lon="40.7876">
        <ele>1403.315821</ele>
        <time>2021-11-16T17:36:47.791Z</time>
      </trkpt>
      <trkpt lat="39.05742" lon="40.78589">
        <ele>1401.777315</ele>
        <time>2021-11-16T17:37:18.659Z</time>
      </trkpt>
      <trkpt lat="39.05721" lon="40.78465">
        <ele>1399.24703</ele>
        <time>2021-11-16T17:37:35.163Z</time>
      </trkpt>
      <trkpt lat="39.05666" lon="40.78268">
        <ele>1390.783826</ele>
        <time>2021-11-16T17:37:58.671Z</time>
      </trkpt>
      <trkpt lat="39.05603" lon="40.78147">
        <ele>1387.262587</ele>
        <time>2021-11-16T17:38:15.854Z</time>
      </trkpt>
      <trkpt lat="39.05511" lon="40.77939">
        <ele>1386.98689</ele>
        <time>2021-11-16T17:39:02.712Z</time>
      </trkpt>
      <trkpt lat="39.05472" lon="40.77885">
        <ele>1388.025921</ele>
        <time>2021-11-16T17:39:22.679Z</time>
      </trkpt>
      <trkpt lat="39.0534" lon="40.7776">
        <ele>1390.6582</ele>
        <time>2021-11-16T17:40:12.744Z</time>
      </trkpt>
      <trkpt lat="39.05303" lon="40.77711">
        <ele>1391.476077</ele>
        <time>2021-11-16T17:40:25.732Z</time>
      </trkpt>
      <trkpt lat="39.05235" lon="40.77576">
        <ele>1392.384963</ele>
        <time>2021-11-16T17:40:54.955Z</time>
      </trkpt>
      <trkpt lat="39.05207" lon="40.7753">
        <ele>1392.675316</ele>
        <time>2021-11-16T17:41:06.203Z</time>
      </trkpt>
      <trkpt lat="39.05146" lon="40.77439">
        <ele>1394.422035</ele>
        <time>2021-11-16T17:41:33.122Z</time>
      </trkpt>
      <trkpt lat="39.05079" lon="40.77326">
        <ele>1396.874198</ele>
        <time>2021-11-16T17:42:10.202Z</time>
      </trkpt>
      <trkpt lat="39.05007" lon="40.77218">
        <ele>1398.915279</ele>
        <time>2021-11-16T17:42:45.464Z</time>
      </trkpt>
      <trkpt lat="39.04974" lon="40.77177">
        <ele>1399.756476</ele>
        <time>2021-11-16T17:42:57.982Z</time>
      </trkpt>
      <trkpt lat="39.04935" lon="40.77141">
        <ele>1399.628431</ele>
        <time>2021-11-16T17:43:09.712Z</time>
      </trkpt>
      <trkpt lat="39.049" lon="40.77119">
        <ele>1398.912247</ele>
        <time>2021-11-16T17:43:18.288Z</time>
      </trkpt>
      <trkpt lat="39.04741" lon="40.77043">
        <ele>1392.795922</ele>
        <time>2021-11-16T17:43:46.134Z</time>
      </trkpt>
      <trkpt lat="39.04715" lon="40.77024">
        <ele>1390.710282</ele>
        <time>2021-11-16T17:43:50.346Z</time>
      </trkpt>
      <trkpt lat="39.047" lon="40.76997">
        <ele>1388.861384</ele>
        <time>2021-11-16T17:43:53.981Z</time>
      </trkpt>
      <trkpt lat="39.0469" lon="40.76959">
        <ele>1386.654667</ele>
        <time>2021-11-16T17:43:58.251Z</time>
      </trkpt>
      <trkpt lat="39.0468" lon="40.76849">
        <ele>1378.452181</ele>
        <time>2021-11-16T17:44:09.752Z</time>
      </trkpt>
      <trkpt lat="39.04669" lon="40.76799">
        <ele>1373.804221</ele>
        <time>2021-11-16T17:44:15.134Z</time>
      </trkpt>
      <trkpt lat="39.04597" lon="40.76596">
        <ele>1356.381227</ele>
        <time>2021-11-16T17:44:38.339Z</time>
      </trkpt>
      <trkpt lat="39.04576" lon="40.76554">
        <ele>1353.037826</ele>
        <time>2021-11-16T17:44:43.830Z</time>
      </trkpt>
      <trkpt lat="39.04502" lon="40.76464">
        <ele>1346.557957</ele>
        <time>2021-11-16T17:44:59.081Z</time>
      </trkpt>
      <trkpt lat="39.04486" lon="40.7643">
        <ele>1345.488229</ele>
        <time>2021-11-16T17:45:04.071Z</time>
      </trkpt>
      <trkpt lat="39.04479" lon="40.76392">
        <ele>1344.399744</ele>
        <time>2021-11-16T17:45:09.254Z</time>
      </trkpt>
      <trkpt lat="39.04476" lon="40.76272">
        <ele>1341.160368</ele>
        <time>2021-11-16T17:45:24.850Z</time>
      </trkpt>
      <trkpt lat="39.04396" lon="40.75929">
        <ele>1332.452898</ele>
        <time>2021-11-16T17:46:09.548Z</time>
      </trkpt>
      <trkpt lat="39.04379" lon="40.75886">
        <ele>1331.426013</ele>
        <time>2021-11-16T17:46:15.825Z</time>
      </trkpt>
      <trkpt lat="39.04358" lon="40.75848">
        <ele>1330.76516</ele>
        <time>2021-11-16T17:46:22.502Z</time>
      </trkpt>
      <trkpt lat="39.04272" lon="40.75758">
        <ele>1331.324722</ele>
        <time>2021-11-16T17:46:47.774Z</time>
      </trkpt>
      <trkpt lat="39.04094" lon="40.7562">
        <ele>1334.231546</ele>
        <time>2021-11-16T17:47:51.903Z</time>
      </trkpt>
      <trkpt lat="39.04045" lon="40.7557">
        <ele>1334.25885</ele>
        <time>2021-11-16T17:48:08.005Z</time>
      </trkpt>
      <trkpt lat="39.04022" lon="40.75542">
        <ele>1333.763589</ele>
        <time>2021-11-16T17:48:14.600Z</time>
      </trkpt>
      <trkpt lat="39.03952" lon="40.75433">
        <ele>1332.048562</ele>
        <time>2021-11-16T17:48:33.400Z</time>
      </trkpt>
      <trkpt lat="39.03905" lon="40.75375">
        <ele>1329.402268</ele>
        <time>2021-11-16T17:48:43.547Z</time>
      </trkpt>
      <trkpt lat="39.0388" lon="40.75327">
        <ele>1327.487792</ele>
        <time>2021-11-16T17:48:50.345Z</time>
      </trkpt>
      <trkpt lat="39.03869" lon="40.75283">
        <ele>1325.963145</ele>
        <time>2021-11-16T17:48:55.777Z</time>
      </trkpt>
      <trkpt lat="39.03863" lon="40.75137">
        <ele>1321.100214</ele>
        <time>2021-11-16T17:49:13.349Z</time>
      </trkpt>
      <trkpt lat="39.03854" lon="40.75067">
        <ele>1318.736938</ele>
        <time>2021-11-16T17:49:21.995Z</time>
      </trkpt>
      <trkpt lat="39.03844" lon="40.75029">
        <ele>1317.409307</ele>
        <time>2021-11-16T17:49:26.842Z</time>
      </trkpt>
      <trkpt lat="39.03817" lon="40.74963">
        <ele>1314.488377</ele>
        <time>2021-11-16T17:49:35.852Z</time>
      </trkpt>
      <trkpt lat="39.03749" lon="40.74807">
        <ele>1306.981731</ele>
        <time>2021-11-16T17:49:56.450Z</time>
      </trkpt>
      <trkpt lat="39.03725" lon="40.74765">
        <ele>1304.415975</ele>
        <time>2021-11-16T17:50:02.326Z</time>
      </trkpt>
      <trkpt lat="39.03682" lon="40.7472">
        <ele>1300.866634</ele>
        <time>2021-11-16T17:50:10.310Z</time>
      </trkpt>
      <trkpt lat="39.03556" lon="40.74701">
        <ele>1293.02554</ele>
        <time>2021-11-16T17:50:28.713Z</time>
      </trkpt>
      <trkpt lat="39.03519" lon="40.74688">
        <ele>1290.85772</ele>
        <time>2021-11-16T17:50:34.393Z</time>
      </trkpt>
      <trkpt lat="39.03481" lon="40.74674">
        <ele>1288.621111</ele>
        <time>2021-11-16T17:50:40.304Z</time>
      </trkpt>
      <trkpt lat="39.03438" lon="40.74644">
        <ele>1285.885322</ele>
        <time>2021-11-16T17:50:47.602Z</time>
      </trkpt>
      <trkpt lat="39.03257" lon="40.74426">
        <ele>1272.096389</ele>
        <time>2021-11-16T17:51:24.707Z</time>
      </trkpt>
      <trkpt lat="39.0324" lon="40.74383">
        <ele>1269.766055</ele>
        <time>2021-11-16T17:51:30.102Z</time>
      </trkpt>
      <trkpt lat="39.03203" lon="40.74206">
        <ele>1261.821239</ele>
        <time>2021-11-16T17:51:50.616Z</time>
      </trkpt>
      <trkpt lat="39.03129" lon="40.7399">
        <ele>1254.407105</ele>
        <time>2021-11-16T17:52:19.642Z</time>
      </trkpt>
      <trkpt lat="39.03113" lon="40.73901">
        <ele>1252.494363</ele>
        <time>2021-11-16T17:52:31.945Z</time>
      </trkpt>
      <trkpt lat="39.03092" lon="40.73847">
        <ele>1251.240706</ele>
        <time>2021-11-16T17:52:40.066Z</time>
      </trkpt>
      <trkpt lat="39.03072" lon="40.73809">
        <ele>1250.890765</ele>
        <time>2021-11-16T17:52:46.335Z</time>
      </trkpt>
      <trkpt lat="39.03026" lon="40.73761">
        <ele>1250.420976</ele>
        <time>2021-11-16T17:52:57.645Z</time>
      </trkpt>
      <trkpt lat="39.02974" lon="40.73725">
        <ele>1249.959061</ele>
        <time>2021-11-16T17:53:09.907Z</time>
      </trkpt>
      <trkpt lat="39.02936" lon="40.7371">
        <ele>1249.80723</ele>
        <time>2021-11-16T17:53:19.216Z</time>
      </trkpt>
      <trkpt lat="39.02904" lon="40.73698">
        <ele>1250.05913</ele>
        <time>2021-11-16T17:53:27.808Z</time>
      </trkpt>
      <trkpt lat="39.02869" lon="40.73678">
        <ele>1250.34508</ele>
        <time>2021-11-16T17:53:37.308Z</time>
      </trkpt>
      <trkpt lat="39.02771" lon="40.736">
        <ele>1251.185585</ele>
        <time>2021-11-16T17:54:08.055Z</time>
      </trkpt>
      <trkpt lat="39.02751" lon="40.73584">
        <ele>1251.324558</ele>
        <time>2021-11-16T17:54:13.591Z</time>
      </trkpt>
      <trkpt lat="39.0267" lon="40.73499">
        <ele>1251.925765</ele>
        <time>2021-11-16T17:54:37.686Z</time>
      </trkpt>
      <trkpt lat="39.02597" lon="40.7347">
        <ele>1252.3107</ele>
        <time>2021-11-16T17:54:57.910Z</time>
      </trkpt>
      <trkpt lat="39.02553" lon="40.73458">
        <ele>1252.510351</ele>
        <time>2021-11-16T17:55:09.335Z</time>
      </trkpt>
      <trkpt lat="39.02453" lon="40.73432">
        <ele>1252.780635</ele>
        <time>2021-11-16T17:55:32.921Z</time>
      </trkpt>
      <trkpt lat="39.02418" lon="40.73416">
        <ele>1252.188157</ele>
        <time>2021-11-16T17:55:40.659Z</time>
      </trkpt>
      <trkpt lat="39.02386" lon="40.73365">
        <ele>1251.380578</ele>
        <time>2021-11-16T17:55:50.381Z</time>
      </trkpt>
      <trkpt lat="39.02204" lon="40.72989">
        <ele>1242.593493</ele>
        <time>2021-11-16T17:56:47.702Z</time>
      </trkpt>
      <trkpt lat="39.02173" lon="40.72907">
        <ele>1240.505966</ele>
        <time>2021-11-16T17:56:59.205Z</time>
      </trkpt>
      <trkpt lat="39.02136" lon="40.72722">
        <ele>1237.109292</ele>
        <time>2021-11-16T17:57:23.979Z</time>
      </trkpt>
      <trkpt lat="39.02109" lon="40.72654">
        <ele>1235.849446</ele>
        <time>2021-11-16T17:57:34.989Z</time>
      </trkpt>
      <trkpt lat="39.01996" lon="40.7242">
        <ele>1235.692371</ele>
        <time>2021-11-16T17:58:25.392Z</time>
      </trkpt>
      <trkpt lat="39.01923" lon="40.72251">
        <ele>1234.463609</ele>
        <time>2021-11-16T17:58:56.387Z</time>
      </trkpt>
      <trkpt lat="39.0191" lon="40.72209">
        <ele>1232.546773</ele>
        <time>2021-11-16T17:59:02.124Z</time>
      </trkpt>
      <trkpt lat="39.01888" lon="40.72064">
        <ele>1226.224212</ele>
        <time>2021-11-16T17:59:19.125Z</time>
      </trkpt>
      <trkpt lat="39.01877" lon="40.71928">
        <ele>1217.917207</ele>
        <time>2021-11-16T17:59:33.607Z</time>
      </trkpt>
      <trkpt lat="39.01887" lon="40.71873">
        <ele>1214.19281</ele>
        <time>2021-11-16T17:59:39.685Z</time>
      </trkpt>
      <trkpt lat="39.01901" lon="40.71841">
        <ele>1211.731124</ele>
        <time>2021-11-16T17:59:43.679Z</time>
      </trkpt>
      <trkpt lat="39.01931" lon="40.71777">
        <ele>1208.085768</ele>
        <time>2021-11-16T17:59:51.966Z</time>
      </trkpt>
      <trkpt lat="39.01943" lon="40.71736">
        <ele>1206.559038</ele>
        <time>2021-11-16T17:59:56.975Z</time>
      </trkpt>
      <trkpt lat="39.01927" lon="40.71574">
        <ele>1201.207108</ele>
        <time>2021-11-16T18:00:17.553Z</time>
      </trkpt>
      <trkpt lat="39.0191" lon="40.71535">
        <ele>1200.56024</ele>
        <time>2021-11-16T18:00:23.694Z</time>
      </trkpt>
      <trkpt lat="39.01861" lon="40.71461">
        <ele>1199.154783</ele>
        <time>2021-11-16T18:00:37.002Z</time>
      </trkpt>
      <trkpt lat="39.01801" lon="40.71342">
        <ele>1197.862464</ele>
        <time>2021-11-16T18:00:58.020Z</time>
      </trkpt>
      <trkpt lat="39.01764" lon="40.7124">
        <ele>1197.49391</ele>
        <time>2021-11-16T18:01:16.757Z</time>
      </trkpt>
      <trkpt lat="39.01734" lon="40.71135">
        <ele>1196.969247</ele>
        <time>2021-11-16T18:01:36.837Z</time>
      </trkpt>
      <trkpt lat="39.01682" lon="40.71018">
        <ele>1196.189793</ele>
        <time>2021-11-16T18:01:57.961Z</time>
      </trkpt>
      <trkpt lat="39.01503" lon="40.707">
        <ele>1190.021025</ele>
        <time>2021-11-16T18:02:50.561Z</time>
      </trkpt>
      <trkpt lat="39.0143" lon="40.70593">
        <ele>1187.962248</ele>
        <time>2021-11-16T18:03:10.175Z</time>
      </trkpt>
      <trkpt lat="39.01128" lon="40.70223">
        <ele>1183.59566</ele>
        <time>2021-11-16T18:04:29.879Z</time>
      </trkpt>
      <trkpt lat="39.00981" lon="40.70032">
        <ele>1183.192063</ele>
        <time>2021-11-16T18:05:16.025Z</time>
      </trkpt>
      <trkpt lat="39.00903" lon="40.69973">
        <ele>1183.613153</ele>
        <time>2021-11-16T18:05:36.761Z</time>
      </trkpt>
      <trkpt lat="39.00866" lon="40.69953">
        <ele>1184.171874</ele>
        <time>2021-11-16T18:05:46.163Z</time>
      </trkpt>
      <trkpt lat="39.00618" lon="40.69861">
        <ele>1189.496942</ele>
        <time>2021-11-16T18:07:05.422Z</time>
      </trkpt>
      <trkpt lat="39.00573" lon="40.6983">
        <ele>1190.981837</ele>
        <time>2021-11-16T18:07:25.204Z</time>
      </trkpt>
      <trkpt lat="39.00489" lon="40.69758">
        <ele>1194.815693</ele>
        <time>2021-11-16T18:08:03.708Z</time>
      </trkpt>
      <trkpt lat="39.00463" lon="40.69721">
        <ele>1196.262694</ele>
        <time>2021-11-16T18:08:17.151Z</time>
      </trkpt>
      <trkpt lat="39.00397" lon="40.69588">
        <ele>1201.306959</ele>
        <time>2021-11-16T18:09:04.532Z</time>
      </trkpt>
      <trkpt lat="39.00379" lon="40.69565">
        <ele>1202.375967</ele>
        <time>2021-11-16T18:09:14.303Z</time>
      </trkpt>
      <trkpt lat="39.0034" lon="40.69523">
        <ele>1204.468853</ele>
        <time>2021-11-16T18:09:34.620Z</time>
      </trkpt>
      <trkpt lat="39.00269" lon="40.69467">
        <ele>1208.226513</ele>
        <time>2021-11-16T18:10:08.785Z</time>
      </trkpt>
      <trkpt lat="39.00201" lon="40.69428">
        <ele>1211.580009</ele>
        <time>2021-11-16T18:10:39.582Z</time>
      </trkpt>
      <trkpt lat="39.00156" lon="40.69379">
        <ele>1213.990723</ele>
        <time>2021-11-16T18:11:01.935Z</time>
      </trkpt>
      <trkpt lat="39.00106" lon="40.6932">
        <ele>1216.462222</ele>
        <time>2021-11-16T18:11:26.755Z</time>
      </trkpt>
      <trkpt lat="39.00099" lon="40.69313">
        <ele>1216.784281</ele>
        <time>2021-11-16T18:11:30.049Z</time>
      </trkpt>
      <trkpt lat="39.00047" lon="40.69257">
        <ele>1219.278501</ele>
        <time>2021-11-16T18:11:55.118Z</time>
      </trkpt>
      <trkpt lat="39.00009" lon="40.69216">
        <ele>1219.630624</ele>
        <time>2021-11-16T18:12:13.598Z</time>
      </trkpt>
      <trkpt lat="38.99915" lon="40.69133">
        <ele>1220.152339</ele>
        <time>2021-11-16T18:12:40.473Z</time>
      </trkpt>
      <trkpt lat="38.99882" lon="40.69103">
        <ele>1219.137634</ele>
        <time>2021-11-16T18:12:46.982Z</time>
      </trkpt>
      <trkpt lat="38.99822" lon="40.6905">
        <ele>1215.024309</ele>
        <time>2021-11-16T18:12:57.814Z</time>
      </trkpt>
      <trkpt lat="38.99604" lon="40.68895">
        <ele>1199.42826</ele>
        <time>2021-11-16T18:13:33.346Z</time>
      </trkpt>
      <trkpt lat="38.99559" lon="40.68863">
        <ele>1197.153244</ele>
        <time>2021-11-16T18:13:41.447Z</time>
      </trkpt>
      <trkpt lat="38.99523" lon="40.68837">
        <ele>1195.822202</ele>
        <time>2021-11-16T18:13:48.032Z</time>
      </trkpt>
      <trkpt lat="38.99464" lon="40.68793">
        <ele>1193.56635</ele>
        <time>2021-11-16T18:13:59.849Z</time>
      </trkpt>
      <trkpt lat="38.99386" lon="40.68702">
        <ele>1190.336971</ele>
        <time>2021-11-16T18:14:17.441Z</time>
      </trkpt>
      <trkpt lat="38.99335" lon="40.68603">
        <ele>1187.624367</ele>
        <time>2021-11-16T18:14:32.453Z</time>
      </trkpt>
      <trkpt lat="38.99278" lon="40.68464">
        <ele>1183.791508</ele>
        <time>2021-11-16T18:14:52.513Z</time>
      </trkpt>
      <trkpt lat="38.99254" lon="40.68428">
        <ele>1182.59145</ele>
        <time>2021-11-16T18:14:58.794Z</time>
      </trkpt>
      <trkpt lat="38.99199" lon="40.68364">
        <ele>1179.8964</ele>
        <time>2021-11-16T18:15:10.482Z</time>
      </trkpt>
      <trkpt lat="38.99183" lon="40.68348">
        <ele>1179.026049</ele>
        <time>2021-11-16T18:15:13.669Z</time>
      </trkpt>
      <trkpt lat="38.99137" lon="40.683">
        <ele>1176.526365</ele>
        <time>2021-11-16T18:15:22.756Z</time>
      </trkpt>
      <trkpt lat="38.99128" lon="40.68291">
        <ele>1176.037565</ele>
        <time>2021-11-16T18:15:24.458Z</time>
      </trkpt>
      <trkpt lat="38.99083" lon="40.68227">
        <ele>1173.32325</ele>
        <time>2021-11-16T18:15:34.855Z</time>
      </trkpt>
      <trkpt lat="38.99066" lon="40.68197">
        <ele>1172.385694</ele>
        <time>2021-11-16T18:15:39.394Z</time>
      </trkpt>
      <trkpt lat="38.99048" lon="40.68166">
        <ele>1171.426399</ele>
        <time>2021-11-16T18:15:44.004Z</time>
      </trkpt>
      <trkpt lat="38.99045" lon="40.68152">
        <ele>1171.076728</ele>
        <time>2021-11-16T18:15:45.723Z</time>
      </trkpt>
      <trkpt lat="38.9902" lon="40.6809">
        <ele>1169.332253</ele>
        <time>2021-11-16T18:15:54.693Z</time>
      </trkpt>
      <trkpt lat="38.99004" lon="40.68047">
        <ele>1168.139445</ele>
        <time>2021-11-16T18:16:01.123Z</time>
      </trkpt>
      <trkpt lat="38.98982" lon="40.68004">
        <ele>1167.563494</ele>
        <time>2021-11-16T18:16:08.549Z</time>
      </trkpt>
      <trkpt lat="38.98922" lon="40.67883">
        <ele>1166.343191</ele>
        <time>2021-11-16T18:16:31.207Z</time>
      </trkpt>
      <trkpt lat="38.9886" lon="40.67756">
        <ele>1164.669343</ele>
        <time>2021-11-16T18:16:52.965Z</time>
      </trkpt>
      <trkpt lat="38.98843" lon="40.6773">
        <ele>1164.259248</ele>
        <time>2021-11-16T18:16:57.603Z</time>
      </trkpt>
      <trkpt lat="38.98813" lon="40.67697">
        <ele>1163.63962</ele>
        <time>2021-11-16T18:17:04.593Z</time>
      </trkpt>
      <trkpt lat="38.98812" lon="40.67692">
        <ele>1163.577001</ele>
        <time>2021-11-16T18:17:05.295Z</time>
      </trkpt>
      <trkpt lat="38.9881" lon="40.67687">
        <ele>1163.515956</ele>
        <time>2021-11-16T18:17:05.995Z</time>
      </trkpt>
      <trkpt lat="38.98807" lon="40.67682">
        <ele>1163.430079</ele>
        <time>2021-11-16T18:17:06.877Z</time>
      </trkpt>
      <trkpt lat="38.98797" lon="40.67677">
        <ele>1163.261672</ele>
        <time>2021-11-16T18:17:08.918Z</time>
      </trkpt>
      <trkpt lat="38.98791" lon="40.67678">
        <ele>1163.176348</ele>
        <time>2021-11-16T18:17:09.820Z</time>
      </trkpt>
      <trkpt lat="38.98776" lon="40.67665">
        <ele>1163.092814</ele>
        <time>2021-11-16T18:17:12.952Z</time>
      </trkpt>
      <trkpt lat="38.9869" lon="40.67635">
        <ele>1162.843938</ele>
        <time>2021-11-16T18:17:30.225Z</time>
      </trkpt>
      <trkpt lat="38.98673" lon="40.67631">
        <ele>1162.795553</ele>
        <time>2021-11-16T18:17:34.498Z</time>
      </trkpt>
      <trkpt lat="38.98615" lon="40.67617">
        <ele>1162.648046</ele>
        <time>2021-11-16T18:17:49.462Z</time>
      </trkpt>
      <trkpt lat="38.98604" lon="40.67616">
        <ele>1162.800885</ele>
        <time>2021-11-16T18:17:53.751Z</time>
      </trkpt>
      <trkpt lat="38.98544" lon="40.67614">
        <ele>1163.586455</ele>
        <time>2021-11-16T18:18:10.058Z</time>
      </trkpt>
      <trkpt lat="38.98517" lon="40.6762">
        <ele>1163.954601</ele>
        <time>2021-11-16T18:18:18.397Z</time>
      </trkpt>
      <trkpt lat="38.98493" lon="40.67628">
        <ele>1164.274226</ele>
        <time>2021-11-16T18:18:26.448Z</time>
      </trkpt>
      <trkpt lat="38.98481" lon="40.67634">
        <ele>1164.448024</ele>
        <time>2021-11-16T18:18:29.331Z</time>
      </trkpt>
      <trkpt lat="38.98383" lon="40.67698">
        <ele>1164.745409</ele>
        <time>2021-11-16T18:18:56.743Z</time>
      </trkpt>
      <trkpt lat="38.98358" lon="40.67707">
        <ele>1164.639862</ele>
        <time>2021-11-16T18:19:02.557Z</time>
      </trkpt>
      <trkpt lat="38.98343" lon="40.67711">
        <ele>1164.57774</ele>
        <time>2021-11-16T18:19:05.386Z</time>
      </trkpt>
      <trkpt lat="38.9831" lon="40.67713">
        <ele>1164.446687</ele>
        <time>2021-11-16T18:19:11.540Z</time>
      </trkpt>
      <trkpt lat="38.982" lon="40.67695">
        <ele>1163.875313</ele>
        <time>2021-11-16T18:19:31.975Z</time>
      </trkpt>
      <trkpt lat="38.98186" lon="40.67688">
        <ele>1163.78834</ele>
        <time>2021-11-16T18:19:34.880Z</time>
      </trkpt>
      <trkpt lat="38.98161" lon="40.67669">
        <ele>1163.620473</ele>
        <time>2021-11-16T18:19:40.850Z</time>
      </trkpt>
      <trkpt lat="38.98107" lon="40.67591">
        <ele>1163.604632</ele>
        <time>2021-11-16T18:19:59.443Z</time>
      </trkpt>
      <trkpt lat="38.98078" lon="40.67564">
        <ele>1164.279341</ele>
        <time>2021-11-16T18:20:08.559Z</time>
      </trkpt>
      <trkpt lat="38.97727" lon="40.67343">
        <ele>1174.276603</ele>
        <time>2021-11-16T18:22:16.261Z</time>
      </trkpt>
      <trkpt lat="38.97679" lon="40.67295">
        <ele>1176.347882</ele>
        <time>2021-11-16T18:22:38.341Z</time>
      </trkpt>
      <trkpt lat="38.97535" lon="40.67063">
        <ele>1187.283513</ele>
        <time>2021-11-16T18:24:15.380Z</time>
      </trkpt>
      <trkpt lat="38.975" lon="40.6702">
        <ele>1189.782847</ele>
        <time>2021-11-16T18:24:37.072Z</time>
      </trkpt>
      <trkpt lat="38.97475" lon="40.66991">
        <ele>1191.538333</ele>
        <time>2021-11-16T18:24:51.874Z</time>
      </trkpt>
      <trkpt lat="38.97473" lon="40.66986">
        <ele>1191.800854</ele>
        <time>2021-11-16T18:24:54.068Z</time>
      </trkpt>
      <trkpt lat="38.97469" lon="40.66982">
        <ele>1192.066642</ele>
        <time>2021-11-16T18:24:56.105Z</time>
      </trkpt>
      <trkpt lat="38.97464" lon="40.6698">
        <ele>1192.326342</ele>
        <time>2021-11-16T18:24:58.196Z</time>
      </trkpt>
      <trkpt lat="38.97459" lon="40.6698">
        <ele>1192.567655</ele>
        <time>2021-11-16T18:25:00.058Z</time>
      </trkpt>
      <trkpt lat="38.97443" lon="40.6697">
        <ele>1193.50734</ele>
        <time>2021-11-16T18:25:08.308Z</time>
      </trkpt>
      <trkpt lat="38.97334" lon="40.66928">
        <ele>1198.434257</ele>
        <time>2021-11-16T18:25:56.018Z</time>
      </trkpt>
      <trkpt lat="38.97246" lon="40.66862">
        <ele>1202.229786</ele>
        <time>2021-11-16T18:26:31.595Z</time>
      </trkpt>
      <trkpt lat="38.97119" lon="40.66712">
        <ele>1205.841423</ele>
        <time>2021-11-16T18:27:24.209Z</time>
      </trkpt>
      <trkpt lat="38.97035" lon="40.66634">
        <ele>1207.310048</ele>
        <time>2021-11-16T18:27:51.983Z</time>
      </trkpt>
      <trkpt lat="38.9689" lon="40.66515">
        <ele>1209.758287</ele>
        <time>2021-11-16T18:28:39.478Z</time>
      </trkpt>
      <trkpt lat="38.96849" lon="40.66477">
        <ele>1210.521487</ele>
        <time>2021-11-16T18:28:54.368Z</time>
      </trkpt>
      <trkpt lat="38.96692" lon="40.66304">
        <ele>1212.920529</ele>
        <time>2021-11-16T18:29:53.573Z</time>
      </trkpt>
      <trkpt lat="38.96501" lon="40.6617">
        <ele>1210.129936</ele>
        <time>2021-11-16T18:30:34.283Z</time>
      </trkpt>
      <trkpt lat="38.96317" lon="40.65944">
        <ele>1201.102941</ele>
        <time>2021-11-16T18:31:13.604Z</time>
      </trkpt>
      <trkpt lat="38.96272" lon="40.65903">
        <ele>1199.428644</ele>
        <time>2021-11-16T18:31:23.014Z</time>
      </trkpt>
      <trkpt lat="38.96227" lon="40.65876">
        <ele>1198.372409</ele>
        <time>2021-11-16T18:31:32.215Z</time>
      </trkpt>
      <trkpt lat="38.95803" lon="40.65736">
        <ele>1195.992067</ele>
        <time>2021-11-16T18:33:10.331Z</time>
      </trkpt>
      <trkpt lat="38.95743" lon="40.65709">
        <ele>1194.657842</ele>
        <time>2021-11-16T18:33:20.398Z</time>
      </trkpt>
      <trkpt lat="38.95661" lon="40.65647">
        <ele>1189.439687</ele>
        <time>2021-11-16T18:33:34.549Z</time>
      </trkpt>
      <trkpt lat="38.95601" lon="40.6557">
        <ele>1183.923425</ele>
        <time>2021-11-16T18:33:46.582Z</time>
      </trkpt>
      <trkpt lat="38.95562" lon="40.65482">
        <ele>1177.795437</ele>
        <time>2021-11-16T18:33:57.656Z</time>
      </trkpt>
      <trkpt lat="38.95483" lon="40.65279">
        <ele>1163.704604</ele>
        <time>2021-11-16T18:34:22.183Z</time>
      </trkpt>
      <trkpt lat="38.95451" lon="40.65221">
        <ele>1159.724191</ele>
        <time>2021-11-16T18:34:29.963Z</time>
      </trkpt>
      <trkpt lat="38.95401" lon="40.65153">
        <ele>1154.566939</ele>
        <time>2021-11-16T18:34:40.428Z</time>
      </trkpt>
      <trkpt lat="38.94722" lon="40.64484">
        <ele>1133.282705</ele>
        <time>2021-11-16T18:37:06.135Z</time>
      </trkpt>
      <trkpt lat="38.94524" lon="40.64306">
        <ele>1131.400421</ele>
        <time>2021-11-16T18:37:54.780Z</time>
      </trkpt>
      <trkpt lat="38.94409" lon="40.6422">
        <ele>1131.802267</ele>
        <time>2021-11-16T18:38:26.132Z</time>
      </trkpt>
      <trkpt lat="38.93988" lon="40.63925">
        <ele>1136.087969</ele>
        <time>2021-11-16T18:40:33.910Z</time>
      </trkpt>
      <trkpt lat="38.93959" lon="40.63893">
        <ele>1136.248253</ele>
        <time>2021-11-16T18:40:42.485Z</time>
      </trkpt>
      <trkpt lat="38.93891" lon="40.63772">
        <ele>1135.786409</ele>
        <time>2021-11-16T18:41:06.218Z</time>
      </trkpt>
      <trkpt lat="38.93872" lon="40.63739">
        <ele>1135.466683</ele>
        <time>2021-11-16T18:41:12.310Z</time>
      </trkpt>
      <trkpt lat="38.93792" lon="40.63595">
        <ele>1133.478565</ele>
        <time>2021-11-16T18:41:37.833Z</time>
      </trkpt>
      <trkpt lat="38.93502" lon="40.6308">
        <ele>1122.410291</ele>
        <time>2021-11-16T18:43:03.296Z</time>
      </trkpt>
      <trkpt lat="38.93459" lon="40.63011">
        <ele>1120.046659</ele>
        <time>2021-11-16T18:43:14.051Z</time>
      </trkpt>
      <trkpt lat="38.93384" lon="40.62913">
        <ele>1116.589007</ele>
        <time>2021-11-16T18:43:31.069Z</time>
      </trkpt>
      <trkpt lat="38.93354" lon="40.62871">
        <ele>1116.249382</ele>
        <time>2021-11-16T18:43:38.874Z</time>
      </trkpt>
      <trkpt lat="38.93251" lon="40.62739">
        <ele>1115.433012</ele>
        <time>2021-11-16T18:44:10.896Z</time>
      </trkpt>
      <trkpt lat="38.93191" lon="40.62664">
        <ele>1116.244814</ele>
        <time>2021-11-16T18:44:34.764Z</time>
      </trkpt>
      <trkpt lat="38.93151" lon="40.62596">
        <ele>1116.890027</ele>
        <time>2021-11-16T18:44:51.577Z</time>
      </trkpt>
      <trkpt lat="38.92997" lon="40.62225">
        <ele>1120.82695</ele>
        <time>2021-11-16T18:46:15.110Z</time>
      </trkpt>
      <trkpt lat="38.92965" lon="40.62161">
        <ele>1122.231679</ele>
        <time>2021-11-16T18:46:36.870Z</time>
      </trkpt>
      <trkpt lat="38.92884" lon="40.6204">
        <ele>1127.949528</ele>
        <time>2021-11-16T18:47:29.588Z</time>
      </trkpt>
      <trkpt lat="38.92802" lon="40.61937">
        <ele>1131.598005</ele>
        <time>2021-11-16T18:48:16.537Z</time>
      </trkpt>
      <trkpt lat="38.92719" lon="40.61846">
        <ele>1134.061893</ele>
        <time>2021-11-16T18:48:47.713Z</time>
      </trkpt>
      <trkpt lat="38.92559" lon="40.61695">
        <ele>1128.501229</ele>
        <time>2021-11-16T18:49:20.722Z</time>
      </trkpt>
      <trkpt lat="38.9249" lon="40.61616">
        <ele>1123.184635</ele>
        <time>2021-11-16T18:49:34.284Z</time>
      </trkpt>
      <trkpt lat="38.92378" lon="40.61463">
        <ele>1112.909556</ele>
        <time>2021-11-16T18:49:57.677Z</time>
      </trkpt>
      <trkpt lat="38.92211" lon="40.61186">
        <ele>1096.369536</ele>
        <time>2021-11-16T18:50:37.497Z</time>
      </trkpt>
      <trkpt lat="38.91783" lon="40.60267">
        <ele>1065.5449</ele>
        <time>2021-11-16T18:52:50.210Z</time>
      </trkpt>
      <trkpt lat="38.91727" lon="40.60172">
        <ele>1062.83336</ele>
        <time>2021-11-16T18:53:05.561Z</time>
      </trkpt>
      <trkpt lat="38.91694" lon="40.60125">
        <ele>1061.756539</ele>
        <time>2021-11-16T18:53:13.945Z</time>
      </trkpt>
      <trkpt lat="38.91631" lon="40.6005">
        <ele>1059.870201</ele>
        <time>2021-11-16T18:53:29.127Z</time>
      </trkpt>
      <trkpt lat="38.91342" lon="40.59751">
        <ele>1054.409606</ele>
        <time>2021-11-16T18:54:37.680Z</time>
      </trkpt>
      <trkpt lat="38.91323" lon="40.59719">
        <ele>1054.014735</ele>
        <time>2021-11-16T18:54:43.483Z</time>
      </trkpt>
      <trkpt lat="38.91321" lon="40.59712">
        <ele>1053.948545</ele>
        <time>2021-11-16T18:54:44.480Z</time>
      </trkpt>
      <trkpt lat="38.91328" lon="40.59638">
        <ele>1053.213834</ele>
        <time>2021-11-16T18:54:55.357Z</time>
      </trkpt>
      <trkpt lat="38.91337" lon="40.5951">
        <ele>1052.047502</ele>
        <time>2021-11-16T18:55:14.321Z</time>
      </trkpt>
      <trkpt lat="38.91331" lon="40.59391">
        <ele>1051.376625</ele>
        <time>2021-11-16T18:55:32.578Z</time>
      </trkpt>
      <trkpt lat="38.91317" lon="40.5925">
        <ele>1050.854995</ele>
        <time>2021-11-16T18:55:55.373Z</time>
      </trkpt>
      <trkpt lat="38.91246" lon="40.58911">
        <ele>1051.142091</ele>
        <time>2021-11-16T18:56:57.524Z</time>
      </trkpt>
      <trkpt lat="38.90926" lon="40.57378">
        <ele>1056.906314</ele>
        <time>2021-11-16T19:01:57.850Z</time>
      </trkpt>
      <trkpt lat="38.90922" lon="40.57356">
        <ele>1056.918571</ele>
        <time>2021-11-16T19:02:01.580Z</time>
      </trkpt>
      <trkpt lat="38.90884" lon="40.5718">
        <ele>1056.478611</ele>
        <time>2021-11-16T19:02:30.119Z</time>
      </trkpt>
      <trkpt lat="38.90878" lon="40.57148">
        <ele>1056.344674</ele>
        <time>2021-11-16T19:02:35.105Z</time>
      </trkpt>
      <trkpt lat="38.90868" lon="40.57091">
        <ele>1056.103814</ele>
        <time>2021-11-16T19:02:44.590Z</time>
      </trkpt>
      <trkpt lat="38.90854" lon="40.56965">
        <ele>1056.090824</ele>
        <time>2021-11-16T19:03:06.007Z</time>
      </trkpt>
      <trkpt lat="38.9082" lon="40.56369">
        <ele>1056.610959</ele>
        <time>2021-11-16T19:04:53.417Z</time>
      </trkpt>
      <trkpt lat="38.90819" lon="40.56356">
        <ele>1056.553442</ele>
        <time>2021-11-16T19:04:55.445Z</time>
      </trkpt>
      <trkpt lat="38.90811" lon="40.56221">
        <ele>1055.934668</ele>
        <time>2021-11-16T19:05:16.819Z</time>
      </trkpt>
      <trkpt lat="38.90808" lon="40.56178">
        <ele>1055.739697</ele>
        <time>2021-11-16T19:05:23.465Z</time>
      </trkpt>
      <trkpt lat="38.90796" lon="40.55891">
        <ele>1053.326318</ele>
        <time>2021-11-16T19:06:06.503Z</time>
      </trkpt>
      <trkpt lat="38.90794" lon="40.55868">
        <ele>1052.993316</ele>
        <time>2021-11-16T19:06:09.688Z</time>
      </trkpt>
      <trkpt lat="38.90794" lon="40.55862">
        <ele>1052.905326</ele>
        <time>2021-11-16T19:06:10.496Z</time>
      </trkpt>
      <trkpt lat="38.90792" lon="40.55856">
        <ele>1052.809742</ele>
        <time>2021-11-16T19:06:11.397Z</time>
      </trkpt>
      <trkpt lat="38.90785" lon="40.55816">
        <ele>1052.207199</ele>
        <time>2021-11-16T19:06:17.069Z</time>
      </trkpt>
      <trkpt lat="38.9075" lon="40.55428">
        <ele>1046.035279</ele>
        <time>2021-11-16T19:07:10.001Z</time>
      </trkpt>
      <trkpt lat="38.90748" lon="40.55414">
        <ele>1045.852986</ele>
        <time>2021-11-16T19:07:11.823Z</time>
      </trkpt>
      <trkpt lat="38.90743" lon="40.5535">
        <ele>1044.991451</ele>
        <time>2021-11-16T19:07:20.777Z</time>
      </trkpt>
      <trkpt lat="38.90736" lon="40.55281">
        <ele>1044.079276</ele>
        <time>2021-11-16T19:07:30.417Z</time>
      </trkpt>
      <trkpt lat="38.90728" lon="40.55185">
        <ele>1043.440631</ele>
        <time>2021-11-16T19:07:44.652Z</time>
      </trkpt>
      <trkpt lat="38.90716" lon="40.55054">
        <ele>1043.68517</ele>
        <time>2021-11-16T19:08:08.120Z</time>
      </trkpt>
      <trkpt lat="38.90708" lon="40.54965">
        <ele>1044.281728</ele>
        <time>2021-11-16T19:08:27.795Z</time>
      </trkpt>
      <trkpt lat="38.90697" lon="40.54847">
        <ele>1046.074616</ele>
        <time>2021-11-16T19:08:56.318Z</time>
      </trkpt>
      <trkpt lat="38.90694" lon="40.54805">
        <ele>1046.700237</ele>
        <time>2021-11-16T19:09:06.380Z</time>
      </trkpt>
      <trkpt lat="38.90692" lon="40.54787">
        <ele>1046.974275</ele>
        <time>2021-11-16T19:09:10.814Z</time>
      </trkpt>
      <trkpt lat="38.90686" lon="40.54672">
        <ele>1047.909086</ele>
        <time>2021-11-16T19:09:37.223Z</time>
      </trkpt>
      <trkpt lat="38.9068" lon="40.54561">
        <ele>1048.653944</ele>
        <time>2021-11-16T19:09:57.964Z</time>
      </trkpt>
      <trkpt lat="38.90682" lon="40.54556">
        <ele>1048.69382</ele>
        <time>2021-11-16T19:09:58.959Z</time>
      </trkpt>
      <trkpt lat="38.9068" lon="40.54539">
        <ele>1048.810437</ele>
        <time>2021-11-16T19:10:01.829Z</time>
      </trkpt>
      <trkpt lat="38.90677" lon="40.54534">
        <ele>1048.804357</ele>
        <time>2021-11-16T19:10:02.809Z</time>
      </trkpt>
      <trkpt lat="38.90651" lon="40.54319">
        <ele>1048.229284</ele>
        <time>2021-11-16T19:10:37.023Z</time>
      </trkpt>
      <trkpt lat="38.90624" lon="40.54007">
        <ele>1049.861037</ele>
        <time>2021-11-16T19:11:38.182Z</time>
      </trkpt>
      <trkpt lat="38.90603" lon="40.53757">
        <ele>1052.08901</ele>
        <time>2021-11-16T19:12:32.110Z</time>
      </trkpt>
      <trkpt lat="38.90585" lon="40.53571">
        <ele>1053.586891</ele>
        <time>2021-11-16T19:13:10.730Z</time>
      </trkpt>
      <trkpt lat="38.90582" lon="40.53538">
        <ele>1053.746689</ele>
        <time>2021-11-16T19:13:17.190Z</time>
      </trkpt>
      <trkpt lat="38.9058" lon="40.53524">
        <ele>1053.815252</ele>
        <time>2021-11-16T19:13:20.057Z</time>
      </trkpt>
      <trkpt lat="38.90576" lon="40.53474">
        <ele>1054.058998</ele>
        <time>2021-11-16T19:13:29.884Z</time>
      </trkpt>
      <trkpt lat="38.9057" lon="40.53413">
        <ele>1054.352813</ele>
        <time>2021-11-16T19:13:41.371Z</time>
      </trkpt>
      <trkpt lat="38.90557" lon="40.5332">
        <ele>1054.015275</ele>
        <time>2021-11-16T19:13:58.103Z</time>
      </trkpt>
      <trkpt lat="38.90539" lon="40.53252">
        <ele>1053.592364</ele>
        <time>2021-11-16T19:14:09.137Z</time>
      </trkpt>
      <trkpt lat="38.90527" lon="40.53211">
        <ele>1053.332258</ele>
        <time>2021-11-16T19:14:15.491Z</time>
      </trkpt>
      <trkpt lat="38.90515" lon="40.5317">
        <ele>1053.066559</ele>
        <time>2021-11-16T19:14:21.605Z</time>
      </trkpt>
      <trkpt lat="38.90481" lon="40.53111">
        <ele>1052.239374</ele>
        <time>2021-11-16T19:14:31.687Z</time>
      </trkpt>
      <trkpt lat="38.90417" lon="40.53011">
        <ele>1050.79107</ele>
        <time>2021-11-16T19:14:49.800Z</time>
      </trkpt>
      <trkpt lat="38.90378" lon="40.52956">
        <ele>1050.765521</ele>
        <time>2021-11-16T19:15:01.354Z</time>
      </trkpt>
      <trkpt lat="38.90163" lon="40.52667">
        <ele>1054.189044</ele>
        <time>2021-11-16T19:16:27.460Z</time>
      </trkpt>
      <trkpt lat="38.90098" lon="40.52558">
        <ele>1056.102039</ele>
        <time>2021-11-16T19:16:58.342Z</time>
      </trkpt>
      <trkpt lat="38.90096" lon="40.52554">
        <ele>1056.166363</ele>
        <time>2021-11-16T19:16:59.357Z</time>
      </trkpt>
      <trkpt lat="38.90081" lon="40.52536">
        <ele>1056.555278</ele>
        <time>2021-11-16T19:17:05.250Z</time>
      </trkpt>
      <trkpt lat="38.90021" lon="40.52462">
        <ele>1058.478708</ele>
        <time>2021-11-16T19:17:30.585Z</time>
      </trkpt>
      <trkpt lat="38.89951" lon="40.52369">
        <ele>1062.055198</ele>
        <time>2021-11-16T19:18:05.042Z</time>
      </trkpt>
      <trkpt lat="38.89943" lon="40.52359">
        <ele>1062.437125</ele>
        <time>2021-11-16T19:18:09.953Z</time>
      </trkpt>
      <trkpt lat="38.89894" lon="40.52277">
        <ele>1066.340186</ele>
        <time>2021-11-16T19:18:43.898Z</time>
      </trkpt>
      <trkpt lat="38.8985" lon="40.52188">
        <ele>1071.657777</ele>
        <time>2021-11-16T19:19:24.317Z</time>
      </trkpt>
      <trkpt lat="38.89811" lon="40.52087">
        <ele>1077.43481</ele>
        <time>2021-11-16T19:20:09.202Z</time>
      </trkpt>
      <trkpt lat="38.89776" lon="40.51985">
        <ele>1083.364601</ele>
        <time>2021-11-16T19:20:53.598Z</time>
      </trkpt>
      <trkpt lat="38.89753" lon="40.51886">
        <ele>1088.606174</ele>
        <time>2021-11-16T19:21:32.145Z</time>
      </trkpt>
      <trkpt lat="38.8974" lon="40.5179">
        <ele>1092.262339</ele>
        <time>2021-11-16T19:22:05.429Z</time>
      </trkpt>
      <trkpt lat="38.89734" lon="40.51669">
        <ele>1096.781113</ele>
        <time>2021-11-16T19:22:42.710Z</time>
      </trkpt>
      <trkpt lat="38.89728" lon="40.51559">
        <ele>1098.946179</ele>
        <time>2021-11-16T19:23:11.677Z</time>
      </trkpt>
      <trkpt lat="38.89721" lon="40.51462">
        <ele>1100.874621</ele>
        <time>2021-11-16T19:23:34.693Z</time>
      </trkpt>
      <trkpt lat="38.89718" lon="40.51401">
        <ele>1101.842648</ele>
        <time>2021-11-16T19:23:48.263Z</time>
      </trkpt>
      <trkpt lat="38.89702" lon="40.51162">
        <ele>1105.526749</ele>
        <time>2021-11-16T19:24:42.196Z</time>
      </trkpt>
      <trkpt lat="38.89688" lon="40.50875">
        <ele>1112.257342</ele>
        <time>2021-11-16T19:26:00.750Z</time>
      </trkpt>
      <trkpt lat="38.89683" lon="40.50794">
        <ele>1114.385432</ele>
        <time>2021-11-16T19:26:23.665Z</time>
      </trkpt>
      <trkpt lat="38.89676" lon="40.50672">
        <ele>1117.644504</ele>
        <time>2021-11-16T19:26:57.905Z</time>
      </trkpt>
      <trkpt lat="38.89675" lon="40.50658">
        <ele>1118.018571</ele>
        <time>2021-11-16T19:27:01.833Z</time>
      </trkpt>
      <trkpt lat="38.89665" lon="40.5051">
        <ele>1122.037635</ele>
        <time>2021-11-16T19:27:43.399Z</time>
      </trkpt>
      <trkpt lat="38.89661" lon="40.50421">
        <ele>1124.566906</ele>
        <time>2021-11-16T19:28:08.897Z</time>
      </trkpt>
      <trkpt lat="38.8966" lon="40.5041">
        <ele>1124.885163</ele>
        <time>2021-11-16T19:28:12.153Z</time>
      </trkpt>
      <trkpt lat="38.8964" lon="40.50087">
        <ele>1134.260302</ele>
        <time>2021-11-16T19:29:45.792Z</time>
      </trkpt>
      <trkpt lat="38.89627" lon="40.49856">
        <ele>1141.155084</ele>
        <time>2021-11-16T19:30:54.279Z</time>
      </trkpt>
      <trkpt lat="38.89623" lon="40.49786">
        <ele>1143.068492</ele>
        <time>2021-11-16T19:31:14.293Z</time>
      </trkpt>
      <trkpt lat="38.89619" lon="40.49693">
        <ele>1145.436165</ele>
        <time>2021-11-16T19:31:39.763Z</time>
      </trkpt>
      <trkpt lat="38.89611" lon="40.49585">
        <ele>1148.216192</ele>
        <time>2021-11-16T19:32:08.924Z</time>
      </trkpt>
      <trkpt lat="38.89589" lon="40.49171">
        <ele>1158.322579</ele>
        <time>2021-11-16T19:34:01.102Z</time>
      </trkpt>
      <trkpt lat="38.89589" lon="40.49144">
        <ele>1158.983423</ele>
        <time>2021-11-16T19:34:08.925Z</time>
      </trkpt>
      <trkpt lat="38.89591" lon="40.49138">
        <ele>1159.142291</ele>
        <time>2021-11-16T19:34:10.588Z</time>
      </trkpt>
      <trkpt lat="38.8959" lon="40.49131">
        <ele>1159.297631</ele>
        <time>2021-11-16T19:34:12.259Z</time>
      </trkpt>
      <trkpt lat="38.89588" lon="40.49125">
        <ele>1159.45059</ele>
        <time>2021-11-16T19:34:14.024Z</time>
      </trkpt>
      <trkpt lat="38.89583" lon="40.49103">
        <ele>1159.967207</ele>
        <time>2021-11-16T19:34:20.606Z</time>
      </trkpt>
      <trkpt lat="38.89567" lon="40.48805">
        <ele>1166.7396</ele>
        <time>2021-11-16T19:35:38.698Z</time>
      </trkpt>
      <trkpt lat="38.89564" lon="40.48763">
        <ele>1167.689425</ele>
        <time>2021-11-16T19:35:50.105Z</time>
      </trkpt>
      <trkpt lat="38.89563" lon="40.48751">
        <ele>1167.957992</ele>
        <time>2021-11-16T19:35:53.238Z</time>
      </trkpt>
      <trkpt lat="38.89561" lon="40.48619">
        <ele>1171.035839</ele>
        <time>2021-11-16T19:36:27.783Z</time>
      </trkpt>
      <trkpt lat="38.89564" lon="40.48581">
        <ele>1171.956839</ele>
        <time>2021-11-16T19:36:38.057Z</time>
      </trkpt>
      <trkpt lat="38.89567" lon="40.48511">
        <ele>1173.646628</ele>
        <time>2021-11-16T19:36:57.112Z</time>
      </trkpt>
      <trkpt lat="38.89578" lon="40.48451">
        <ele>1175.132968</ele>
        <time>2021-11-16T19:37:13.956Z</time>
      </trkpt>
      <trkpt lat="38.89595" lon="40.48363">
        <ele>1177.571526</ele>
        <time>2021-11-16T19:37:38.734Z</time>
      </trkpt>
      <trkpt lat="38.8962" lon="40.48265">
        <ele>1180.385394</ele>
        <time>2021-11-16T19:38:08.240Z</time>
      </trkpt>
      <trkpt lat="38.89656" lon="40.48165">
        <ele>1183.245018</ele>
        <time>2021-11-16T19:38:40.284Z</time>
      </trkpt>
      <trkpt lat="38.89697" lon="40.48077">
        <ele>1185.864735</ele>
        <time>2021-11-16T19:39:09.008Z</time>
      </trkpt>
      <trkpt lat="38.89804" lon="40.47877">
        <ele>1190.33689</ele>
        <time>2021-11-16T19:40:09.450Z</time>
      </trkpt>
      <trkpt lat="38.90108" lon="40.47358">
        <ele>1195.863606</ele>
        <time>2021-11-16T19:42:19.791Z</time>
      </trkpt>
      <trkpt lat="38.90117" lon="40.47336">
        <ele>1196.125687</ele>
        <time>2021-11-16T19:42:25.602Z</time>
      </trkpt>
      <trkpt lat="38.90121" lon="40.47333">
        <ele>1196.193125</ele>
        <time>2021-11-16T19:42:26.918Z</time>
      </trkpt>
      <trkpt lat="38.90126" lon="40.47323">
        <ele>1196.320326</ele>
        <time>2021-11-16T19:42:29.464Z</time>
      </trkpt>
      <trkpt lat="38.90126" lon="40.47317">
        <ele>1196.384949</ele>
        <time>2021-11-16T19:42:30.731Z</time>
      </trkpt>
      <trkpt lat="38.90133" lon="40.47298">
        <ele>1196.607568</ele>
        <time>2021-11-16T19:42:35.921Z</time>
      </trkpt>
      <trkpt lat="38.90182" lon="40.47135">
        <ele>1199.741183</ele>
        <time>2021-11-16T19:43:19.225Z</time>
      </trkpt>
      <trkpt lat="38.9021" lon="40.4701">
        <ele>1202.19391</ele>
        <time>2021-11-16T19:43:52.580Z</time>
      </trkpt>
      <trkpt lat="38.90336" lon="40.4618">
        <ele>1218.072615</ele>
        <time>2021-11-16T19:47:22.240Z</time>
      </trkpt>
      <trkpt lat="38.90371" lon="40.46005">
        <ele>1222.40076</ele>
        <time>2021-11-16T19:48:04.959Z</time>
      </trkpt>
      <trkpt lat="38.90467" lon="40.45621">
        <ele>1238.923984</ele>
        <time>2021-11-16T19:50:22.646Z</time>
      </trkpt>
      <trkpt lat="38.90488" lon="40.45545">
        <ele>1243.087607</ele>
        <time>2021-11-16T19:50:54.981Z</time>
      </trkpt>
      <trkpt lat="38.90506" lon="40.45496">
        <ele>1245.900178</ele>
        <time>2021-11-16T19:51:17.339Z</time>
      </trkpt>
      <trkpt lat="38.90597" lon="40.45292">
        <ele>1260.245453</ele>
        <time>2021-11-16T19:52:56.014Z</time>
      </trkpt>
      <trkpt lat="38.90664" lon="40.4513">
        <ele>1271.250453</ele>
        <time>2021-11-16T19:54:11.778Z</time>
      </trkpt>
      <trkpt lat="38.9073" lon="40.44907">
        <ele>1285.272415</ele>
        <time>2021-11-16T19:55:49.599Z</time>
      </trkpt>
      <trkpt lat="38.90839" lon="40.44679">
        <ele>1300.028823</ele>
        <time>2021-11-16T19:57:36.311Z</time>
      </trkpt>
      <trkpt lat="38.90893" lon="40.44599">
        <ele>1303.623014</ele>
        <time>2021-11-16T19:58:12.706Z</time>
      </trkpt>
      <trkpt lat="38.90922" lon="40.44568">
        <ele>1305.265952</ele>
        <time>2021-11-16T19:58:27.429Z</time>
      </trkpt>
      <trkpt lat="38.91002" lon="40.44507">
        <ele>1307.976612</ele>
        <time>2021-11-16T19:58:58.072Z</time>
      </trkpt>
      <trkpt lat="38.9108" lon="40.44427">
        <ele>1308.309056</ele>
        <time>2021-11-16T19:59:21.929Z</time>
      </trkpt>
      <trkpt lat="38.91145" lon="40.44338">
        <ele>1307.218459</ele>
        <time>2021-11-16T19:59:39.063Z</time>
      </trkpt>
      <trkpt lat="38.91185" lon="40.44261">
        <ele>1305.378718</ele>
        <time>2021-11-16T19:59:51.116Z</time>
      </trkpt>
      <trkpt lat="38.91245" lon="40.44121">
        <ele>1301.548206</ele>
        <time>2021-11-16T20:00:11.094Z</time>
      </trkpt>
      <trkpt lat="38.91293" lon="40.43992">
        <ele>1297.536028</ele>
        <time>2021-11-16T20:00:28.802Z</time>
      </trkpt>
      <trkpt lat="38.91393" lon="40.43689">
        <ele>1291.970742</ele>
        <time>2021-11-16T20:01:10.399Z</time>
      </trkpt>
      <trkpt lat="38.91476" lon="40.43511">
        <ele>1295.450535</ele>
        <time>2021-11-16T20:02:07.236Z</time>
      </trkpt>
      <trkpt lat="38.91556" lon="40.43315">
        <ele>1304.476803</ele>
        <time>2021-11-16T20:03:27.532Z</time>
      </trkpt>
      <trkpt lat="38.91619" lon="40.43202">
        <ele>1310.425326</ele>
        <time>2021-11-16T20:04:14.131Z</time>
      </trkpt>
      <trkpt lat="38.91745" lon="40.43044">
        <ele>1320.03741</ele>
        <time>2021-11-16T20:05:30.178Z</time>
      </trkpt>
      <trkpt lat="38.91788" lon="40.42969">
        <ele>1324.093937</ele>
        <time>2021-11-16T20:06:04.566Z</time>
      </trkpt>
      <trkpt lat="38.91813" lon="40.42901">
        <ele>1327.392159</ele>
        <time>2021-11-16T20:06:32.498Z</time>
      </trkpt>
      <trkpt lat="38.91861" lon="40.4272">
        <ele>1333.781382</ele>
        <time>2021-11-16T20:07:35.693Z</time>
      </trkpt>
      <trkpt lat="38.91891" lon="40.42556">
        <ele>1336.567635</ele>
        <time>2021-11-16T20:08:12.678Z</time>
      </trkpt>
      <trkpt lat="38.91898" lon="40.42496">
        <ele>1336.168127</ele>
        <time>2021-11-16T20:08:22.032Z</time>
      </trkpt>
      <trkpt lat="38.91905" lon="40.42246">
        <ele>1335.838837</ele>
        <time>2021-11-16T20:08:57.372Z</time>
      </trkpt>
      <trkpt lat="38.9191" lon="40.42157">
        <ele>1336.32939</ele>
        <time>2021-11-16T20:09:15.529Z</time>
      </trkpt>
      <trkpt lat="38.9193" lon="40.41954">
        <ele>1344.519455</ele>
        <time>2021-11-16T20:10:25.463Z</time>
      </trkpt>
      <trkpt lat="38.9193" lon="40.41868">
        <ele>1348.873106</ele>
        <time>2021-11-16T20:11:02.877Z</time>
      </trkpt>
      <trkpt lat="38.91903" lon="40.41749">
        <ele>1356.313989</ele>
        <time>2021-11-16T20:11:58.094Z</time>
      </trkpt>
      <trkpt lat="38.91836" lon="40.41593">
        <ele>1363.444789</ele>
        <time>2021-11-16T20:13:03.960Z</time>
      </trkpt>
      <trkpt lat="38.91773" lon="40.41474">
        <ele>1366.329091</ele>
        <time>2021-11-16T20:13:35.628Z</time>
      </trkpt>
      <trkpt lat="38.91668" lon="40.41333">
        <ele>1361.395573</ele>
        <time>2021-11-16T20:13:59.589Z</time>
      </trkpt>
      <trkpt lat="38.9165" lon="40.41302">
        <ele>1360.482387</ele>
        <time>2021-11-16T20:14:04.084Z</time>
      </trkpt>
      <trkpt lat="38.91634" lon="40.41261">
        <ele>1359.555434</ele>
        <time>2021-11-16T20:14:09.668Z</time>
      </trkpt>
      <trkpt lat="38.91628" lon="40.41228">
        <ele>1358.897241</ele>
        <time>2021-11-16T20:14:13.725Z</time>
      </trkpt>
      <trkpt lat="38.91629" lon="40.41193">
        <ele>1358.196075</ele>
        <time>2021-11-16T20:14:18.158Z</time>
      </trkpt>
      <trkpt lat="38.91639" lon="40.41157">
        <ele>1357.439523</ele>
        <time>2021-11-16T20:14:23.107Z</time>
      </trkpt>
      <trkpt lat="38.91721" lon="40.41012">
        <ele>1356.560124</ele>
        <time>2021-11-16T20:14:56.097Z</time>
      </trkpt>
      <trkpt lat="38.91749" lon="40.4097">
        <ele>1356.773132</ele>
        <time>2021-11-16T20:15:08.678Z</time>
      </trkpt>
      <trkpt lat="38.91762" lon="40.40936">
        <ele>1356.917733</ele>
        <time>2021-11-16T20:15:15.602Z</time>
      </trkpt>
      <trkpt lat="38.91767" lon="40.40916">
        <ele>1356.997826</ele>
        <time>2021-11-16T20:15:20.565Z</time>
      </trkpt>
      <trkpt lat="38.9177" lon="40.40905">
        <ele>1356.859115</ele>
        <time>2021-11-16T20:15:22.188Z</time>
      </trkpt>
      <trkpt lat="38.91781" lon="40.40833">
        <ele>1355.421847</ele>
        <time>2021-11-16T20:15:33.985Z</time>
      </trkpt>
      <trkpt lat="38.91783" lon="40.40651">
        <ele>1350.971364</ele>
        <time>2021-11-16T20:15:56.493Z</time>
      </trkpt>
      <trkpt lat="38.91798" lon="40.40551">
        <ele>1346.201986</ele>
        <time>2021-11-16T20:16:08.185Z</time>
      </trkpt>
      <trkpt lat="38.91839" lon="40.40463">
        <ele>1341.391913</ele>
        <time>2021-11-16T20:16:19.547Z</time>
      </trkpt>
      <trkpt lat="38.919" lon="40.4038">
        <ele>1334.462276</ele>
        <time>2021-11-16T20:16:32.163Z</time>
      </trkpt>
      <trkpt lat="38.91921" lon="40.40361">
        <ele>1332.462898</ele>
        <time>2021-11-16T20:16:35.761Z</time>
      </trkpt>
      <trkpt lat="38.91946" lon="40.40348">
        <ele>1330.352909</ele>
        <time>2021-11-16T20:16:39.561Z</time>
      </trkpt>
      <trkpt lat="38.91974" lon="40.40342">
        <ele>1328.172709</ele>
        <time>2021-11-16T20:16:43.468Z</time>
      </trkpt>
      <trkpt lat="38.91999" lon="40.40341">
        <ele>1326.431233</ele>
        <time>2021-11-16T20:16:46.875Z</time>
      </trkpt>
      <trkpt lat="38.92078" lon="40.40363">
        <ele>1320.784701</ele>
        <time>2021-11-16T20:16:58.335Z</time>
      </trkpt>
      <trkpt lat="38.92109" lon="40.40365">
        <ele>1318.646925</ele>
        <time>2021-11-16T20:17:02.782Z</time>
      </trkpt>
      <trkpt lat="38.92146" lon="40.40363">
        <ele>1316.114274</ele>
        <time>2021-11-16T20:17:08.145Z</time>
      </trkpt>
      <trkpt lat="38.92177" lon="40.40354">
        <ele>1314.620481</ele>
        <time>2021-11-16T20:17:12.909Z</time>
      </trkpt>
      <trkpt lat="38.92288" lon="40.40301">
        <ele>1310.79055</ele>
        <time>2021-11-16T20:17:31.934Z</time>
      </trkpt>
      <trkpt lat="38.92318" lon="40.40278">
        <ele>1309.661908</ele>
        <time>2021-11-16T20:17:38.450Z</time>
      </trkpt>
      <trkpt lat="38.92339" lon="40.40249">
        <ele>1309.267471</ele>
        <time>2021-11-16T20:17:44.612Z</time>
      </trkpt>
      <trkpt lat="38.92356" lon="40.40198">
        <ele>1308.97201</ele>
        <time>2021-11-16T20:17:53.249Z</time>
      </trkpt>
      <trkpt lat="38.9236" lon="40.4015">
        <ele>1308.712416</ele>
        <time>2021-11-16T20:18:01.012Z</time>
      </trkpt>
      <trkpt lat="38.92357" lon="40.40096">
        <ele>1308.416079</ele>
        <time>2021-11-16T20:18:10.125Z</time>
      </trkpt>
      <trkpt lat="38.92318" lon="40.39801">
        <ele>1306.487767</ele>
        <time>2021-11-16T20:18:57.106Z</time>
      </trkpt>
      <trkpt lat="38.92309" lon="40.39681">
        <ele>1304.302591</ele>
        <time>2021-11-16T20:19:13.749Z</time>
      </trkpt>
      <trkpt lat="38.92275" lon="40.39401">
        <ele>1296.835221</ele>
        <time>2021-11-16T20:19:48.888Z</time>
      </trkpt>
      <trkpt lat="38.92281" lon="40.39302">
        <ele>1293.832098</ele>
        <time>2021-11-16T20:20:00.626Z</time>
      </trkpt>
      <trkpt lat="38.92361" lon="40.3894">
        <ele>1284.533783</ele>
        <time>2021-11-16T20:20:47.386Z</time>
      </trkpt>
      <trkpt lat="38.92363" lon="40.38906">
        <ele>1284.351296</ele>
        <time>2021-11-16T20:20:54.717Z</time>
      </trkpt>
      <trkpt lat="38.92365" lon="40.38883">
        <ele>1284.740345</ele>
        <time>2021-11-16T20:21:00.382Z</time>
      </trkpt>
      <trkpt lat="38.92365" lon="40.38876">
        <ele>1284.84836</ele>
        <time>2021-11-16T20:21:01.644Z</time>
      </trkpt>
      <trkpt lat="38.92364" lon="40.3887">
        <ele>1284.950147</ele>
        <time>2021-11-16T20:21:02.853Z</time>
      </trkpt>
      <trkpt lat="38.92358" lon="40.38838">
        <ele>1285.502643</ele>
        <time>2021-11-16T20:21:11.649Z</time>
      </trkpt>
      <trkpt lat="38.92335" lon="40.38734">
        <ele>1287.327932</ele>
        <time>2021-11-16T20:21:41.068Z</time>
      </trkpt>
      <trkpt lat="38.92333" lon="40.38621">
        <ele>1288.331648</ele>
        <time>2021-11-16T20:22:10.438Z</time>
      </trkpt>
      <trkpt lat="38.92349" lon="40.38425">
        <ele>1288.868632</ele>
        <time>2021-11-16T20:22:41.727Z</time>
      </trkpt>
      <trkpt lat="38.92374" lon="40.38243">
        <ele>1288.113579</ele>
        <time>2021-11-16T20:23:10.239Z</time>
      </trkpt>
      <trkpt lat="38.9239" lon="40.38067">
        <ele>1289.893177</ele>
        <time>2021-11-16T20:23:45.541Z</time>
      </trkpt>
      <trkpt lat="38.92397" lon="40.38006">
        <ele>1290.560453</ele>
        <time>2021-11-16T20:24:01.421Z</time>
      </trkpt>
      <trkpt lat="38.92404" lon="40.37921">
        <ele>1293.685355</ele>
        <time>2021-11-16T20:24:26.424Z</time>
      </trkpt>
      <trkpt lat="38.92426" lon="40.37717">
        <ele>1301.694001</ele>
        <time>2021-11-16T20:25:37.514Z</time>
      </trkpt>
      <trkpt lat="38.92439" lon="40.37649">
        <ele>1304.825642</ele>
        <time>2021-11-16T20:26:02.353Z</time>
      </trkpt>
      <trkpt lat="38.9245" lon="40.37616">
        <ele>1306.405039</ele>
        <time>2021-11-16T20:26:14.976Z</time>
      </trkpt>
      <trkpt lat="38.92554" lon="40.37415">
        <ele>1316.788543</ele>
        <time>2021-11-16T20:27:40.033Z</time>
      </trkpt>
      <trkpt lat="38.92592" lon="40.3732">
        <ele>1320.57887</ele>
        <time>2021-11-16T20:28:14.169Z</time>
      </trkpt>
      <trkpt lat="38.92602" lon="40.37256">
        <ele>1322.4496</ele>
        <time>2021-11-16T20:28:33.608Z</time>
      </trkpt>
      <trkpt lat="38.92602" lon="40.37039">
        <ele>1327.574253</ele>
        <time>2021-11-16T20:29:30.623Z</time>
      </trkpt>
      <trkpt lat="38.92614" lon="40.36959">
        <ele>1329.051232</ele>
        <time>2021-11-16T20:29:49.647Z</time>
      </trkpt>
      <trkpt lat="38.92633" lon="40.36877">
        <ele>1330.627769</ele>
        <time>2021-11-16T20:30:09.255Z</time>
      </trkpt>
      <trkpt lat="38.92681" lon="40.36754">
        <ele>1333.220531</ele>
        <time>2021-11-16T20:30:42.368Z</time>
      </trkpt>
      <trkpt lat="38.9278" lon="40.36574">
        <ele>1338.653031</ele>
        <time>2021-11-16T20:31:42.923Z</time>
      </trkpt>
      <trkpt lat="38.92845" lon="40.36445">
        <ele>1343.330296</ele>
        <time>2021-11-16T20:32:28.171Z</time>
      </trkpt>
      <trkpt lat="38.92884" lon="40.3634">
        <ele>1347.192611</ele>
        <time>2021-11-16T20:33:04.975Z</time>
      </trkpt>
      <trkpt lat="38.92892" lon="40.36314">
        <ele>1348.105604</ele>
        <time>2021-11-16T20:33:13.469Z</time>
      </trkpt>
      <trkpt lat="38.92902" lon="40.36279">
        <ele>1349.225547</ele>
        <time>2021-11-16T20:33:25.418Z</time>
      </trkpt>
      <trkpt lat="38.92929" lon="40.3616">
        <ele>1352.915545</ele>
        <time>2021-11-16T20:34:03.080Z</time>
      </trkpt>
      <trkpt lat="38.93142" lon="40.35112">
        <ele>1378.131831</ele>
        <time>2021-11-16T20:38:46.154Z</time>
      </trkpt>
      <trkpt lat="38.93146" lon="40.35094">
        <ele>1378.692502</ele>
        <time>2021-11-16T20:38:51.573Z</time>
      </trkpt>
      <trkpt lat="38.93155" lon="40.35055">
        <ele>1379.90507</ele>
        <time>2021-11-16T20:39:03.758Z</time>
      </trkpt>
      <trkpt lat="38.93279" lon="40.34434">
        <ele>1404.673346</ele>
        <time>2021-11-16T20:42:30.722Z</time>
      </trkpt>
      <trkpt lat="38.9333" lon="40.34237">
        <ele>1416.075331</ele>
        <time>2021-11-16T20:43:58.864Z</time>
      </trkpt>
      <trkpt lat="38.93373" lon="40.34099">
        <ele>1425.044608</ele>
        <time>2021-11-16T20:45:02.544Z</time>
      </trkpt>
      <trkpt lat="38.9339" lon="40.34047">
        <ele>1426.558127</ele>
        <time>2021-11-16T20:45:22.464Z</time>
      </trkpt>
      <trkpt lat="38.93399" lon="40.34019">
        <ele>1427.192379</ele>
        <time>2021-11-16T20:45:32.781Z</time>
      </trkpt>
      <trkpt lat="38.93559" lon="40.33559">
        <ele>1436.721889</ele>
        <time>2021-11-16T20:47:29.401Z</time>
      </trkpt>
      <trkpt lat="38.93588" lon="40.33483">
        <ele>1437.808947</ele>
        <time>2021-11-16T20:47:47.165Z</time>
      </trkpt>
      <trkpt lat="38.93613" lon="40.33411">
        <ele>1439.133008</ele>
        <time>2021-11-16T20:48:04.909Z</time>
      </trkpt>
      <trkpt lat="38.93665" lon="40.33253">
        <ele>1442.339323</ele>
        <time>2021-11-16T20:48:48.352Z</time>
      </trkpt>
      <trkpt lat="38.93695" lon="40.33169">
        <ele>1444.577482</ele>
        <time>2021-11-16T20:49:12.972Z</time>
      </trkpt>
      <trkpt lat="38.93722" lon="40.3309">
        <ele>1446.761887</ele>
        <time>2021-11-16T20:49:36.963Z</time>
      </trkpt>
      <trkpt lat="38.9375" lon="40.32987">
        <ele>1449.66826</ele>
        <time>2021-11-16T20:50:07.803Z</time>
      </trkpt>
      <trkpt lat="38.93764" lon="40.32883">
        <ele>1452.663047</ele>
        <time>2021-11-16T20:50:37.700Z</time>
      </trkpt>
      <trkpt lat="38.93761" lon="40.32785">
        <ele>1455.622653</ele>
        <time>2021-11-16T20:51:06.103Z</time>
      </trkpt>
      <trkpt lat="38.9374" lon="40.32678">
        <ele>1459.665272</ele>
        <time>2021-11-16T20:51:40.021Z</time>
      </trkpt>
      <trkpt lat="38.93708" lon="40.32591">
        <ele>1463.211769</ele>
        <time>2021-11-16T20:52:12.303Z</time>
      </trkpt>
      <trkpt lat="38.93608" lon="40.32408">
        <ele>1473.729909</ele>
        <time>2021-11-16T20:53:34.294Z</time>
      </trkpt>
      <trkpt lat="38.93546" lon="40.32263">
        <ele>1481.311032</ele>
        <time>2021-11-16T20:54:34.144Z</time>
      </trkpt>
      <trkpt lat="38.93502" lon="40.32132">
        <ele>1487.803158</ele>
        <time>2021-11-16T20:55:23.042Z</time>
      </trkpt>
      <trkpt lat="38.9339" lon="40.31721">
        <ele>1508.744344</ele>
        <time>2021-11-16T20:58:00.686Z</time>
      </trkpt>
      <trkpt lat="38.93369" lon="40.31622">
        <ele>1514.800219</ele>
        <time>2021-11-16T20:58:42.926Z</time>
      </trkpt>
      <trkpt lat="38.93358" lon="40.31543">
        <ele>1519.573827</ele>
        <time>2021-11-16T20:59:17.601Z</time>
      </trkpt>
      <trkpt lat="38.93357" lon="40.3148">
        <ele>1523.485676</ele>
        <time>2021-11-16T20:59:44.932Z</time>
      </trkpt>
      <trkpt lat="38.93361" lon="40.31428">
        <ele>1526.858901</ele>
        <time>2021-11-16T21:00:08.087Z</time>
      </trkpt>
      <trkpt lat="38.93371" lon="40.31379">
        <ele>1530.044521</ele>
        <time>2021-11-16T21:00:29.567Z</time>
      </trkpt>
      <trkpt lat="38.93413" lon="40.31241">
        <ele>1538.977419</ele>
        <time>2021-11-16T21:01:31.344Z</time>
      </trkpt>
      <trkpt lat="38.93421" lon="40.31198">
        <ele>1541.455384</ele>
        <time>2021-11-16T21:01:49.000Z</time>
      </trkpt>
      <trkpt lat="38.93465" lon="40.30874">
        <ele>1559.098593</ele>
        <time>2021-11-16T21:03:56.658Z</time>
      </trkpt>
      <trkpt lat="38.93534" lon="40.3046">
        <ele>1578.734005</ele>
        <time>2021-11-16T21:06:25.787Z</time>
      </trkpt>
      <trkpt lat="38.93558" lon="40.30387">
        <ele>1582.674783</ele>
        <time>2021-11-16T21:06:55.506Z</time>
      </trkpt>
      <trkpt lat="38.93573" lon="40.30353">
        <ele>1584.922456</ele>
        <time>2021-11-16T21:07:10.840Z</time>
      </trkpt>
      <trkpt lat="38.93587" lon="40.30326">
        <ele>1586.766666</ele>
        <time>2021-11-16T21:07:23.669Z</time>
      </trkpt>
      <trkpt lat="38.93633" lon="40.30262">
        <ele>1591.773365</ele>
        <time>2021-11-16T21:07:59.609Z</time>
      </trkpt>
      <trkpt lat="38.93708" lon="40.30178">
        <ele>1599.257032</ele>
        <time>2021-11-16T21:08:53.766Z</time>
      </trkpt>
      <trkpt lat="38.93877" lon="40.30015">
        <ele>1614.302909</ele>
        <time>2021-11-16T21:10:43.698Z</time>
      </trkpt>
      <trkpt lat="38.94031" lon="40.29909">
        <ele>1623.676147</ele>
        <time>2021-11-16T21:12:00.401Z</time>
      </trkpt>
      <trkpt lat="38.94088" lon="40.29853">
        <ele>1626.696593</ele>
        <time>2021-11-16T21:12:26.684Z</time>
      </trkpt>
      <trkpt lat="38.94503" lon="40.29267">
        <ele>1641.063435</ele>
        <time>2021-11-16T21:15:40.316Z</time>
      </trkpt>
      <trkpt lat="38.94519" lon="40.29245">
        <ele>1641.456906</ele>
        <time>2021-11-16T21:15:47.321Z</time>
      </trkpt>
      <trkpt lat="38.94537" lon="40.29219">
        <ele>1641.909803</ele>
        <time>2021-11-16T21:15:55.202Z</time>
      </trkpt>
      <trkpt lat="38.94611" lon="40.29119">
        <ele>1643.274836</ele>
        <time>2021-11-16T21:16:24.403Z</time>
      </trkpt>
      <trkpt lat="38.94909" lon="40.28686">
        <ele>1645.682228</ele>
        <time>2021-11-16T21:18:08.215Z</time>
      </trkpt>
      <trkpt lat="38.94926" lon="40.28663">
        <ele>1645.94299</ele>
        <time>2021-11-16T21:18:15.767Z</time>
      </trkpt>
      <trkpt lat="38.94952" lon="40.28628">
        <ele>1646.509946</ele>
        <time>2021-11-16T21:18:28.175Z</time>
      </trkpt>
      <trkpt lat="38.95014" lon="40.28537">
        <ele>1650.223193</ele>
        <time>2021-11-16T21:19:03.611Z</time>
      </trkpt>
      <trkpt lat="38.95085" lon="40.2845">
        <ele>1654.208179</ele>
        <time>2021-11-16T21:19:42.750Z</time>
      </trkpt>
      <trkpt lat="38.95162" lon="40.2838">
        <ele>1658.924229</ele>
        <time>2021-11-16T21:20:21.743Z</time>
      </trkpt>
      <trkpt lat="38.95234" lon="40.28326">
        <ele>1663.296172</ele>
        <time>2021-11-16T21:20:57.016Z</time>
      </trkpt>
      <trkpt lat="38.95406" lon="40.28231">
        <ele>1675.757481</ele>
        <time>2021-11-16T21:22:29.381Z</time>
      </trkpt>
      <trkpt lat="38.9546" lon="40.28179">
        <ele>1680.793356</ele>
        <time>2021-11-16T21:23:06.983Z</time>
      </trkpt>
      <trkpt lat="38.95481" lon="40.2815">
        <ele>1683.090947</ele>
        <time>2021-11-16T21:23:23.811Z</time>
      </trkpt>
      <trkpt lat="38.95515" lon="40.28084">
        <ele>1687.489572</ele>
        <time>2021-11-16T21:23:55.593Z</time>
      </trkpt>
      <trkpt lat="38.95529" lon="40.28011">
        <ele>1689.459084</ele>
        <time>2021-11-16T21:24:22.162Z</time>
      </trkpt>
      <trkpt lat="38.95531" lon="40.27921">
        <ele>1691.804669</ele>
        <time>2021-11-16T21:24:46.654Z</time>
      </trkpt>
      <trkpt lat="38.95492" lon="40.27501">
        <ele>1694.122082</ele>
        <time>2021-11-16T21:25:56.494Z</time>
      </trkpt>
      <trkpt lat="38.9549" lon="40.27296">
        <ele>1697.487016</ele>
        <time>2021-11-16T21:26:49.301Z</time>
      </trkpt>
      <trkpt lat="38.95516" lon="40.26994">
        <ele>1704.670119</ele>
        <time>2021-11-16T21:28:15.571Z</time>
      </trkpt>
      <trkpt lat="38.95517" lon="40.26921">
        <ele>1705.976001</ele>
        <time>2021-11-16T21:28:32.675Z</time>
      </trkpt>
      <trkpt lat="38.95539" lon="40.26698">
        <ele>1706.597889</ele>
        <time>2021-11-16T21:29:11.696Z</time>
      </trkpt>
      <trkpt lat="38.95542" lon="40.26669">
        <ele>1706.617266</ele>
        <time>2021-11-16T21:29:16.250Z</time>
      </trkpt>
      <trkpt lat="38.95544" lon="40.26663">
        <ele>1706.621782</ele>
        <time>2021-11-16T21:29:17.285Z</time>
      </trkpt>
      <trkpt lat="38.95543" lon="40.26656">
        <ele>1706.625951</ele>
        <time>2021-11-16T21:29:18.296Z</time>
      </trkpt>
      <trkpt lat="38.95545" lon="40.26616">
        <ele>1706.653447</ele>
        <time>2021-11-16T21:29:24.949Z</time>
      </trkpt>
      <trkpt lat="38.9555" lon="40.26483">
        <ele>1706.74245</ele>
        <time>2021-11-16T21:29:48.015Z</time>
      </trkpt>
      <trkpt lat="38.95591" lon="40.26166">
        <ele>1709.714877</ele>
        <time>2021-11-16T21:30:57.966Z</time>
      </trkpt>
      <trkpt lat="38.95647" lon="40.25859">
        <ele>1711.600309</ele>
        <time>2021-11-16T21:32:00.081Z</time>
      </trkpt>
      <trkpt lat="38.9569" lon="40.25573">
        <ele>1712.709616</ele>
        <time>2021-11-16T21:32:50.537Z</time>
      </trkpt>
      <trkpt lat="38.95808" lon="40.24881">
        <ele>1730.766822</ele>
        <time>2021-11-16T21:36:11.677Z</time>
      </trkpt>
      <trkpt lat="38.95816" lon="40.24835">
        <ele>1730.91194</ele>
        <time>2021-11-16T21:36:22.071Z</time>
      </trkpt>
      <trkpt lat="38.95821" lon="40.24798">
        <ele>1731.026921</ele>
        <time>2021-11-16T21:36:29.454Z</time>
      </trkpt>
      <trkpt lat="38.95831" lon="40.24647">
        <ele>1731.211266</ele>
        <time>2021-11-16T21:36:53.272Z</time>
      </trkpt>
      <trkpt lat="38.95827" lon="40.24558">
        <ele>1730.129773</ele>
        <time>2021-11-16T21:37:05.350Z</time>
      </trkpt>
      <trkpt lat="38.95818" lon="40.24482">
        <ele>1729.192226</ele>
        <time>2021-11-16T21:37:16.011Z</time>
      </trkpt>
      <trkpt lat="38.9579" lon="40.24346">
        <ele>1728.27305</ele>
        <time>2021-11-16T21:37:36.722Z</time>
      </trkpt>
      <trkpt lat="38.95772" lon="40.24259">
        <ele>1727.931489</ele>
        <time>2021-11-16T21:37:51.431Z</time>
      </trkpt>
      <trkpt lat="38.95754" lon="40.24176">
        <ele>1728.244472</ele>
        <time>2021-11-16T21:38:07.121Z</time>
      </trkpt>
      <trkpt lat="38.9573" lon="40.2406">
        <ele>1729.733139</ele>
        <time>2021-11-16T21:38:32.713Z</time>
      </trkpt>
      <trkpt lat="38.95725" lon="40.24033">
        <ele>1730.081167</ele>
        <time>2021-11-16T21:38:39.565Z</time>
      </trkpt>
      <trkpt lat="38.95708" lon="40.23954">
        <ele>1731.954214</ele>
        <time>2021-11-16T21:39:01.495Z</time>
      </trkpt>
      <trkpt lat="38.95703" lon="40.2393">
        <ele>1732.811407</ele>
        <time>2021-11-16T21:39:08.620Z</time>
      </trkpt>
      <trkpt lat="38.95678" lon="40.23803">
        <ele>1737.405979</ele>
        <time>2021-11-16T21:39:50.508Z</time>
      </trkpt>
      <trkpt lat="38.95669" lon="40.23694">
        <ele>1742.344869</ele>
        <time>2021-11-16T21:40:29.810Z</time>
      </trkpt>
      <trkpt lat="38.95668" lon="40.23594">
        <ele>1747.429721</ele>
        <time>2021-11-16T21:41:07.941Z</time>
      </trkpt>
      <trkpt lat="38.95678" lon="40.23489">
        <ele>1752.594594</ele>
        <time>2021-11-16T21:41:50.537Z</time>
      </trkpt>
      <trkpt lat="38.95712" lon="40.23318">
        <ele>1760.630495</ele>
        <time>2021-11-16T21:42:54.974Z</time>
      </trkpt>
      <trkpt lat="38.95843" lon="40.22732">
        <ele>1770.034902</ele>
        <time>2021-11-16T21:45:18.377Z</time>
      </trkpt>
      <trkpt lat="38.95869" lon="40.22639">
        <ele>1770.690642</ele>
        <time>2021-11-16T21:45:34.543Z</time>
      </trkpt>
      <trkpt lat="38.95903" lon="40.22542">
        <ele>1769.687824</ele>
        <time>2021-11-16T21:45:50.482Z</time>
      </trkpt>
      <trkpt lat="38.95977" lon="40.22396">
        <ele>1767.531294</ele>
        <time>2021-11-16T21:46:15.138Z</time>
      </trkpt>
      <trkpt lat="38.96018" lon="40.22334">
        <ele>1766.033584</ele>
        <time>2021-11-16T21:46:26.015Z</time>
      </trkpt>
      <trkpt lat="38.9617" lon="40.22125">
        <ele>1759.877313</ele>
        <time>2021-11-16T21:47:02.656Z</time>
      </trkpt>
      <trkpt lat="38.96385" lon="40.21846">
        <ele>1751.316314</ele>
        <time>2021-11-16T21:47:53.706Z</time>
      </trkpt>
      <trkpt lat="38.96397" lon="40.21834">
        <ele>1750.907137</ele>
        <time>2021-11-16T21:47:56.137Z</time>
      </trkpt>
      <trkpt lat="38.96401" lon="40.21831">
        <ele>1750.773449</ele>
        <time>2021-11-16T21:47:56.993Z</time>
      </trkpt>
      <trkpt lat="38.96405" lon="40.21827">
        <ele>1750.636335</ele>
        <time>2021-11-16T21:47:57.851Z</time>
      </trkpt>
      <trkpt lat="38.96407" lon="40.21821">
        <ele>1750.50038</ele>
        <time>2021-11-16T21:47:58.699Z</time>
      </trkpt>
      <trkpt lat="38.96419" lon="40.218">
        <ele>1749.94101</ele>
        <time>2021-11-16T21:48:02.046Z</time>
      </trkpt>
      <trkpt lat="38.96524" lon="40.21636">
        <ele>1745.449517</ele>
        <time>2021-11-16T21:48:29.728Z</time>
      </trkpt>
      <trkpt lat="38.96542" lon="40.21591">
        <ele>1744.382258</ele>
        <time>2021-11-16T21:48:36.332Z</time>
      </trkpt>
      <trkpt lat="38.96558" lon="40.21529">
        <ele>1742.911454</ele>
        <time>2021-11-16T21:48:44.811Z</time>
      </trkpt>
      <trkpt lat="38.96572" lon="40.21449">
        <ele>1741.031044</ele>
        <time>2021-11-16T21:48:55.430Z</time>
      </trkpt>
      <trkpt lat="38.96574" lon="40.21397">
        <ele>1739.83479</ele>
        <time>2021-11-16T21:49:02.153Z</time>
      </trkpt>
      <trkpt lat="38.96565" lon="40.21293">
        <ele>1737.035705</ele>
        <time>2021-11-16T21:49:15.469Z</time>
      </trkpt>
      <trkpt lat="38.96555" lon="40.21242">
        <ele>1735.475446</ele>
        <time>2021-11-16T21:49:22.087Z</time>
      </trkpt>
      <trkpt lat="38.9611" lon="40.19387">
        <ele>1677.386359</ele>
        <time>2021-11-16T21:53:20.198Z</time>
      </trkpt>
      <trkpt lat="38.96065" lon="40.19277">
        <ele>1672.842021</ele>
        <time>2021-11-16T21:53:34.983Z</time>
      </trkpt>
      <trkpt lat="38.96044" lon="40.19241">
        <ele>1671.108092</ele>
        <time>2021-11-16T21:53:40.317Z</time>
      </trkpt>
      <trkpt lat="38.96001" lon="40.19194">
        <ele>1668.349482</ele>
        <time>2021-11-16T21:53:48.731Z</time>
      </trkpt>
      <trkpt lat="38.95959" lon="40.19156">
        <ele>1665.556964</ele>
        <time>2021-11-16T21:53:56.344Z</time>
      </trkpt>
      <trkpt lat="38.95797" lon="40.19042">
        <ele>1654.852378</ele>
        <time>2021-11-16T21:54:23.680Z</time>
      </trkpt>
      <trkpt lat="38.95741" lon="40.19005">
        <ele>1651.00284</ele>
        <time>2021-11-16T21:54:33.000Z</time>
      </trkpt>
      <trkpt lat="38.95559" lon="40.18885">
        <ele>1636.888514</ele>
        <time>2021-11-16T21:55:02.350Z</time>
      </trkpt>
      <trkpt lat="38.95525" lon="40.18859">
        <ele>1633.990576</ele>
        <time>2021-11-16T21:55:07.822Z</time>
      </trkpt>
      <trkpt lat="38.95479" lon="40.18824">
        <ele>1630.157596</ele>
        <time>2021-11-16T21:55:15.297Z</time>
      </trkpt>
      <trkpt lat="38.95388" lon="40.18761">
        <ele>1622.911719</ele>
        <time>2021-11-16T21:55:29.798Z</time>
      </trkpt>
      <trkpt lat="38.95293" lon="40.18694">
        <ele>1617.882249</ele>
        <time>2021-11-16T21:55:46.794Z</time>
      </trkpt>
      <trkpt lat="38.95259" lon="40.18663">
        <ele>1616.416009</ele>
        <time>2021-11-16T21:55:53.878Z</time>
      </trkpt>
      <trkpt lat="38.95226" lon="40.18611">
        <ele>1614.564231</ele>
        <time>2021-11-16T21:56:02.783Z</time>
      </trkpt>
      <trkpt lat="38.95187" lon="40.18536">
        <ele>1610.856765</ele>
        <time>2021-11-16T21:56:14.029Z</time>
      </trkpt>
      <trkpt lat="38.94984" lon="40.17878">
        <ele>1579.194285</ele>
        <time>2021-11-16T21:57:34.418Z</time>
      </trkpt>
      <trkpt lat="38.94975" lon="40.17706">
        <ele>1572.922931</ele>
        <time>2021-11-16T21:57:54.943Z</time>
      </trkpt>
      <trkpt lat="38.95013" lon="40.17333">
        <ele>1564.201633</ele>
        <time>2021-11-16T21:58:44.510Z</time>
      </trkpt>
      <trkpt lat="38.95039" lon="40.16982">
        <ele>1553.572688</ele>
        <time>2021-11-16T21:59:27.226Z</time>
      </trkpt>
      <trkpt lat="38.951" lon="40.1638">
        <ele>1535.502379</ele>
        <time>2021-11-16T22:00:41.914Z</time>
      </trkpt>
      <trkpt lat="38.95127" lon="40.16256">
        <ele>1531.503052</ele>
        <time>2021-11-16T22:00:57.827Z</time>
      </trkpt>
      <trkpt lat="38.95165" lon="40.16011">
        <ele>1523.081908</ele>
        <time>2021-11-16T22:01:27.960Z</time>
      </trkpt>
      <trkpt lat="38.95206" lon="40.15847">
        <ele>1516.368929</ele>
        <time>2021-11-16T22:01:48.195Z</time>
      </trkpt>
      <trkpt lat="38.95251" lon="40.15718">
        <ele>1510.312313</ele>
        <time>2021-11-16T22:02:04.393Z</time>
      </trkpt>
      <trkpt lat="38.95278" lon="40.1565">
        <ele>1506.894848</ele>
        <time>2021-11-16T22:02:13.163Z</time>
      </trkpt>
      <trkpt lat="38.95437" lon="40.15335">
        <ele>1489.757279</ele>
        <time>2021-11-16T22:02:56.157Z</time>
      </trkpt>
      <trkpt lat="38.95461" lon="40.15268">
        <ele>1486.108952</ele>
        <time>2021-11-16T22:03:04.598Z</time>
      </trkpt>
      <trkpt lat="38.95499" lon="40.15181">
        <ele>1480.980812</ele>
        <time>2021-11-16T22:03:15.764Z</time>
      </trkpt>
      <trkpt lat="38.95521" lon="40.15078">
        <ele>1475.272202</ele>
        <time>2021-11-16T22:03:27.695Z</time>
      </trkpt>
      <trkpt lat="38.9554" lon="40.14951">
        <ele>1467.198835</ele>
        <time>2021-11-16T22:03:41.893Z</time>
      </trkpt>
      <trkpt lat="38.95594" lon="40.14283">
        <ele>1422.202658</ele>
        <time>2021-11-16T22:04:54.242Z</time>
      </trkpt>
      <trkpt lat="38.95596" lon="40.14134">
        <ele>1412.227988</ele>
        <time>2021-11-16T22:05:10.321Z</time>
      </trkpt>
      <trkpt lat="38.95563" lon="40.13641">
        <ele>1378.180308</ele>
        <time>2021-11-16T22:06:03.725Z</time>
      </trkpt>
      <trkpt lat="38.95514" lon="40.13019">
        <ele>1330.381092</ele>
        <time>2021-11-16T22:07:09.844Z</time>
      </trkpt>
      <trkpt lat="38.95503" lon="40.1295">
        <ele>1324.725814</ele>
        <time>2021-11-16T22:07:17.297Z</time>
      </trkpt>
      <trkpt lat="38.9548" lon="40.12874">
        <ele>1318.280598</ele>
        <time>2021-11-16T22:07:25.832Z</time>
      </trkpt>
      <trkpt lat="38.95463" lon="40.12836">
        <ele>1314.792626</ele>
        <time>2021-11-16T22:07:30.488Z</time>
      </trkpt>
      <trkpt lat="38.95445" lon="40.12814">
        <ele>1312.272272</ele>
        <time>2021-11-16T22:07:33.850Z</time>
      </trkpt>
      <trkpt lat="38.95305" lon="40.12639">
        <ele>1295.678558</ele>
        <time>2021-11-16T22:08:01.009Z</time>
      </trkpt>
      <trkpt lat="38.95263" lon="40.12569">
        <ele>1290.801785</ele>
        <time>2021-11-16T22:08:10.780Z</time>
      </trkpt>
      <trkpt lat="38.95228" lon="40.12496">
        <ele>1285.98697</ele>
        <time>2021-11-16T22:08:20.462Z</time>
      </trkpt>
      <trkpt lat="38.95005" lon="40.11943">
        <ele>1253.594584</ele>
        <time>2021-11-16T22:09:30.379Z</time>
      </trkpt>
      <trkpt lat="38.94967" lon="40.11866">
        <ele>1248.755445</ele>
        <time>2021-11-16T22:09:40.533Z</time>
      </trkpt>
      <trkpt lat="38.9491" lon="40.11772">
        <ele>1242.045906</ele>
        <time>2021-11-16T22:09:53.787Z</time>
      </trkpt>
      <trkpt lat="38.94874" lon="40.11722">
        <ele>1238.20255</ele>
        <time>2021-11-16T22:10:01.315Z</time>
      </trkpt>
      <trkpt lat="38.94787" lon="40.11583">
        <ele>1227.443456</ele>
        <time>2021-11-16T22:10:20.891Z</time>
      </trkpt>
      <trkpt lat="38.94403" lon="40.11073">
        <ele>1183.844565</ele>
        <time>2021-11-16T22:11:37.788Z</time>
      </trkpt>
      <trkpt lat="38.94139" lon="40.10729">
        <ele>1173.531547</ele>
        <time>2021-11-16T22:12:41.006Z</time>
      </trkpt>
      <trkpt lat="38.93862" lon="40.1038">
        <ele>1182.881735</ele>
        <time>2021-11-16T22:14:49.501Z</time>
      </trkpt>
      <trkpt lat="38.9376" lon="40.10226">
        <ele>1190.264132</ele>
        <time>2021-11-16T22:16:00.389Z</time>
      </trkpt>
      <trkpt lat="38.93702" lon="40.10139">
        <ele>1193.618511</ele>
        <time>2021-11-16T22:16:36.477Z</time>
      </trkpt>
      <trkpt lat="38.93566" lon="40.09971">
        <ele>1195.951648</ele>
        <time>2021-11-16T22:17:27.131Z</time>
      </trkpt>
      <trkpt lat="38.93542" lon="40.0992">
        <ele>1195.499215</ele>
        <time>2021-11-16T22:17:35.899Z</time>
      </trkpt>
      <trkpt lat="38.93481" lon="40.09746">
        <ele>1193.196365</ele>
        <time>2021-11-16T22:18:01.918Z</time>
      </trkpt>
      <trkpt lat="38.93251" lon="40.09012">
        <ele>1178.034447</ele>
        <time>2021-11-16T22:19:46.716Z</time>
      </trkpt>
      <trkpt lat="38.93185" lon="40.08844">
        <ele>1173.466489</ele>
        <time>2021-11-16T22:20:10.513Z</time>
      </trkpt>
      <trkpt lat="38.93091" lon="40.08662">
        <ele>1167.825438</ele>
        <time>2021-11-16T22:20:37.677Z</time>
      </trkpt>
      <trkpt lat="38.93024" lon="40.08553">
        <ele>1164.496486</ele>
        <time>2021-11-16T22:20:55.337Z</time>
      </trkpt>
      <trkpt lat="38.92663" lon="40.0801">
        <ele>1152.236831</ele>
        <time>2021-11-16T22:22:32.322Z</time>
      </trkpt>
      <trkpt lat="38.92617" lon="40.07918">
        <ele>1150.136461</ele>
        <time>2021-11-16T22:22:46.729Z</time>
      </trkpt>
      <trkpt lat="38.9259" lon="40.07851">
        <ele>1148.689316</ele>
        <time>2021-11-16T22:22:56.582Z</time>
      </trkpt>
      <trkpt lat="38.92552" lon="40.07717">
        <ele>1145.956531</ele>
        <time>2021-11-16T22:23:15.309Z</time>
      </trkpt>
      <trkpt lat="38.92527" lon="40.07548">
        <ele>1143.008455</ele>
        <time>2021-11-16T22:23:38.374Z</time>
      </trkpt>
      <trkpt lat="38.92524" lon="40.07472">
        <ele>1141.857519</ele>
        <time>2021-11-16T22:23:48.814Z</time>
      </trkpt>
      <trkpt lat="38.92548" lon="40.0689">
        <ele>1134.205045</ele>
        <time>2021-11-16T22:25:10.841Z</time>
      </trkpt>
      <trkpt lat="38.92536" lon="40.06771">
        <ele>1132.852745</ele>
        <time>2021-11-16T22:25:28.084Z</time>
      </trkpt>
      <trkpt lat="38.92537" lon="40.06759">
        <ele>1132.718501</ele>
        <time>2021-11-16T22:25:29.782Z</time>
      </trkpt>
      <trkpt lat="38.92541" lon="40.06755">
        <ele>1132.648949</ele>
        <time>2021-11-16T22:25:30.678Z</time>
      </trkpt>
      <trkpt lat="38.92543" lon="40.0675">
        <ele>1132.584278</ele>
        <time>2021-11-16T22:25:31.512Z</time>
      </trkpt>
      <trkpt lat="38.92544" lon="40.06745">
        <ele>1132.519727</ele>
        <time>2021-11-16T22:25:32.331Z</time>
      </trkpt>
      <trkpt lat="38.92541" lon="40.06729">
        <ele>1132.331578</ele>
        <time>2021-11-16T22:25:34.765Z</time>
      </trkpt>
      <trkpt lat="38.92538" lon="40.06724">
        <ele>1132.267972</ele>
        <time>2021-11-16T22:25:35.581Z</time>
      </trkpt>
      <trkpt lat="38.92534" lon="40.06718">
        <ele>1132.173408</ele>
        <time>2021-11-16T22:25:36.801Z</time>
      </trkpt>
      <trkpt lat="38.92512" lon="40.06679">
        <ele>1131.689934</ele>
        <time>2021-11-16T22:25:43.891Z</time>
      </trkpt>
      <trkpt lat="38.92439" lon="40.06551">
        <ele>1130.126586</ele>
        <time>2021-11-16T22:26:06.895Z</time>
      </trkpt>
      <trkpt lat="38.92376" lon="40.06466">
        <ele>1129.001644</ele>
        <time>2021-11-16T22:26:24.171Z</time>
      </trkpt>
      <trkpt lat="38.92328" lon="40.0642">
        <ele>1128.270696</ele>
        <time>2021-11-16T22:26:35.352Z</time>
      </trkpt>
      <trkpt lat="38.92283" lon="40.06384">
        <ele>1127.663798</ele>
        <time>2021-11-16T22:26:45.208Z</time>
      </trkpt>
      <trkpt lat="38.92238" lon="40.06351">
        <ele>1127.581898</ele>
        <time>2021-11-16T22:26:55.537Z</time>
      </trkpt>
      <trkpt lat="38.9219" lon="40.06314">
        <ele>1127.494221</ele>
        <time>2021-11-16T22:27:07.172Z</time>
      </trkpt>
      <trkpt lat="38.9216" lon="40.06293">
        <ele>1127.441578</ele>
        <time>2021-11-16T22:27:14.767Z</time>
      </trkpt>
      <trkpt lat="38.92116" lon="40.06262">
        <ele>1127.728956</ele>
        <time>2021-11-16T22:27:27.043Z</time>
      </trkpt>
      <trkpt lat="38.92114" lon="40.0626">
        <ele>1127.782634</ele>
        <time>2021-11-16T22:27:27.950Z</time>
      </trkpt>
      <trkpt lat="38.91828" lon="40.06049">
        <ele>1135.906034</ele>
        <time>2021-11-16T22:29:14.219Z</time>
      </trkpt>
      <trkpt lat="38.91775" lon="40.06009">
        <ele>1138.529333</ele>
        <time>2021-11-16T22:29:37.868Z</time>
      </trkpt>
      <trkpt lat="38.91772" lon="40.06007">
        <ele>1138.678731</ele>
        <time>2021-11-16T22:29:40.099Z</time>
      </trkpt>
      <trkpt lat="38.9154" lon="40.05831">
        <ele>1151.464454</ele>
        <time>2021-11-16T22:31:32.967Z</time>
      </trkpt>
      <trkpt lat="38.91495" lon="40.05795">
        <ele>1153.980647</ele>
        <time>2021-11-16T22:31:54.461Z</time>
      </trkpt>
      <trkpt lat="38.91491" lon="40.05792">
        <ele>1154.219599</ele>
        <time>2021-11-16T22:31:57.192Z</time>
      </trkpt>
      <trkpt lat="38.91421" lon="40.05718">
        <ele>1158.310336</ele>
        <time>2021-11-16T22:32:34.043Z</time>
      </trkpt>
      <trkpt lat="38.91386" lon="40.05673">
        <ele>1160.513811</ele>
        <time>2021-11-16T22:32:53.409Z</time>
      </trkpt>
      <trkpt lat="38.91358" lon="40.05637">
        <ele>1162.206765</ele>
        <time>2021-11-16T22:33:08.605Z</time>
      </trkpt>
      <trkpt lat="38.9127" lon="40.05511">
        <ele>1167.383016</ele>
        <time>2021-11-16T22:34:00.202Z</time>
      </trkpt>
      <trkpt lat="38.91236" lon="40.05459">
        <ele>1168.97849</ele>
        <time>2021-11-16T22:34:18.634Z</time>
      </trkpt>
      <trkpt lat="38.91234" lon="40.05456">
        <ele>1169.040793</ele>
        <time>2021-11-16T22:34:20.202Z</time>
      </trkpt>
      <trkpt lat="38.91178" lon="40.05374">
        <ele>1170.690774</ele>
        <time>2021-11-16T22:34:46.204Z</time>
      </trkpt>
      <trkpt lat="38.91077" lon="40.05221">
        <ele>1173.130516</ele>
        <time>2021-11-16T22:35:26.148Z</time>
      </trkpt>
      <trkpt lat="38.90889" lon="40.04944">
        <ele>1178.671054</ele>
        <time>2021-11-16T22:36:49.599Z</time>
      </trkpt>
      <trkpt lat="38.90845" lon="40.04886">
        <ele>1182.11678</ele>
        <time>2021-11-16T22:37:13.931Z</time>
      </trkpt>
      <trkpt lat="38.90527" lon="40.04516">
        <ele>1206.772535</ele>
        <time>2021-11-16T22:40:34.679Z</time>
      </trkpt>
      <trkpt lat="38.9038" lon="40.04352">
        <ele>1219.253115</ele>
        <time>2021-11-16T22:42:09.548Z</time>
      </trkpt>
      <trkpt lat="38.90304" lon="40.04256">
        <ele>1224.132389</ele>
        <time>2021-11-16T22:42:58.262Z</time>
      </trkpt>
      <trkpt lat="38.89994" lon="40.03767">
        <ele>1240.167804</ele>
        <time>2021-11-16T22:45:57.760Z</time>
      </trkpt>
      <trkpt lat="38.8978" lon="40.03439">
        <ele>1226.624626</ele>
        <time>2021-11-16T22:46:48.216Z</time>
      </trkpt>
      <trkpt lat="38.89725" lon="40.03353">
        <ele>1222.230555</ele>
        <time>2021-11-16T22:47:00.882Z</time>
      </trkpt>
      <trkpt lat="38.89647" lon="40.03233">
        <ele>1216.902934</ele>
        <time>2021-11-16T22:47:19.569Z</time>
      </trkpt>
      <trkpt lat="38.89554" lon="40.03086">
        <ele>1212.46565</ele>
        <time>2021-11-16T22:47:44.691Z</time>
      </trkpt>
      <trkpt lat="38.89462" lon="40.02956">
        <ele>1208.863001</ele>
        <time>2021-11-16T22:48:08.557Z</time>
      </trkpt>
      <trkpt lat="38.89412" lon="40.02895">
        <ele>1206.623332</ele>
        <time>2021-11-16T22:48:19.288Z</time>
      </trkpt>
      <trkpt lat="38.89373" lon="40.02856">
        <ele>1204.75946</ele>
        <time>2021-11-16T22:48:26.807Z</time>
      </trkpt>
      <trkpt lat="38.89334" lon="40.02821">
        <ele>1202.940071</ele>
        <time>2021-11-16T22:48:34.177Z</time>
      </trkpt>
      <trkpt lat="38.89248" lon="40.02748">
        <ele>1201.078701</ele>
        <time>2021-11-16T22:48:51.125Z</time>
      </trkpt>
      <trkpt lat="38.89147" lon="40.02673">
        <ele>1200.957929</ele>
        <time>2021-11-16T22:49:21.936Z</time>
      </trkpt>
      <trkpt lat="38.89066" lon="40.02619">
        <ele>1202.087504</ele>
        <time>2021-11-16T22:49:52.660Z</time>
      </trkpt>
      <trkpt lat="38.89006" lon="40.02587">
        <ele>1202.959138</ele>
        <time>2021-11-16T22:50:11.647Z</time>
      </trkpt>
      <trkpt lat="38.88892" lon="40.0254">
        <ele>1200.20864</ele>
        <time>2021-11-16T22:50:33.413Z</time>
      </trkpt>
      <trkpt lat="38.88785" lon="40.0251">
        <ele>1195.783403</ele>
        <time>2021-11-16T22:50:49.689Z</time>
      </trkpt>
      <trkpt lat="38.88598" lon="40.02483">
        <ele>1185.053662</ele>
        <time>2021-11-16T22:51:16.916Z</time>
      </trkpt>
      <trkpt lat="38.88569" lon="40.0248">
        <ele>1184.373034</ele>
        <time>2021-11-16T22:51:21.338Z</time>
      </trkpt>
      <trkpt lat="38.88536" lon="40.02477">
        <ele>1183.581731</ele>
        <time>2021-11-16T22:51:26.812Z</time>
      </trkpt>
      <trkpt lat="38.88515" lon="40.02474">
        <ele>1183.069577</ele>
        <time>2021-11-16T22:51:30.704Z</time>
      </trkpt>
      <trkpt lat="38.88398" lon="40.02454">
        <ele>1182.246041</ele>
        <time>2021-11-16T22:51:58.117Z</time>
      </trkpt>
      <trkpt lat="38.88294" lon="40.02417">
        <ele>1184.112444</ele>
        <time>2021-11-16T22:52:32.498Z</time>
      </trkpt>
      <trkpt lat="38.88216" lon="40.02377">
        <ele>1185.83532</ele>
        <time>2021-11-16T22:52:58.842Z</time>
      </trkpt>
      <trkpt lat="38.88152" lon="40.02336">
        <ele>1187.41743</ele>
        <time>2021-11-16T22:53:21.546Z</time>
      </trkpt>
      <trkpt lat="38.88066" lon="40.02268">
        <ele>1188.988628</ele>
        <time>2021-11-16T22:53:51.534Z</time>
      </trkpt>
      <trkpt lat="38.88063" lon="40.02265">
        <ele>1189.031773</ele>
        <time>2021-11-16T22:53:53.060Z</time>
      </trkpt>
      <trkpt lat="38.88026" lon="40.02231">
        <ele>1189.475247</ele>
        <time>2021-11-16T22:54:05.102Z</time>
      </trkpt>
      <trkpt lat="38.87972" lon="40.02177">
        <ele>1190.155779</ele>
        <time>2021-11-16T22:54:21.737Z</time>
      </trkpt>
      <trkpt lat="38.87936" lon="40.02141">
        <ele>1189.559841</ele>
        <time>2021-11-16T22:54:31.713Z</time>
      </trkpt>
      <trkpt lat="38.87475" lon="40.01684">
        <ele>1176.941085</ele>
        <time>2021-11-16T22:56:13.025Z</time>
      </trkpt>
      <trkpt lat="38.87418" lon="40.01625">
        <ele>1174.502593</ele>
        <time>2021-11-16T22:56:24.306Z</time>
      </trkpt>
      <trkpt lat="38.87374" lon="40.01585">
        <ele>1172.562658</ele>
        <time>2021-11-16T22:56:32.603Z</time>
      </trkpt>
      <trkpt lat="38.8731" lon="40.0152">
        <ele>1169.454359</ele>
        <time>2021-11-16T22:56:45.286Z</time>
      </trkpt>
      <trkpt lat="38.87286" lon="40.01496">
        <ele>1168.281862</ele>
        <time>2021-11-16T22:56:50.208Z</time>
      </trkpt>
      <trkpt lat="38.87258" lon="40.01468">
        <ele>1166.935207</ele>
        <time>2021-11-16T22:56:56.051Z</time>
      </trkpt>
      <trkpt lat="38.87216" lon="40.01425">
        <ele>1165.546659</ele>
        <time>2021-11-16T22:57:05.322Z</time>
      </trkpt>
      <trkpt lat="38.87031" lon="40.01235">
        <ele>1159.182385</ele>
        <time>2021-11-16T22:57:45.897Z</time>
      </trkpt>
      <trkpt lat="38.87016" lon="40.01218">
        <ele>1158.566945</ele>
        <time>2021-11-16T22:57:49.160Z</time>
      </trkpt>
      <trkpt lat="38.86561" lon="40.0077">
        <ele>1135.656412</ele>
        <time>2021-11-16T22:59:18.676Z</time>
      </trkpt>
      <trkpt lat="38.86082" lon="40.00298">
        <ele>1113.519272</ele>
        <time>2021-11-16T23:00:53.571Z</time>
      </trkpt>
      <trkpt lat="38.8515" lon="39.9938">
        <ele>1105.514007</ele>
        <time>2021-11-16T23:04:55.513Z</time>
      </trkpt>
      <trkpt lat="38.84186" lon="39.98432">
        <ele>1078.223959</ele>
        <time>2021-11-16T23:08:23.874Z</time>
      </trkpt>
      <trkpt lat="38.84078" lon="39.98321">
        <ele>1076.29198</ele>
        <time>2021-11-16T23:08:49.580Z</time>
      </trkpt>
      <trkpt lat="38.83642" lon="39.97892">
        <ele>1073.948162</ele>
        <time>2021-11-16T23:10:43.432Z</time>
      </trkpt>
      <trkpt lat="38.83584" lon="39.97845">
        <ele>1074.143389</ele>
        <time>2021-11-16T23:10:59.772Z</time>
      </trkpt>
      <trkpt lat="38.83503" lon="39.97792">
        <ele>1075.093171</ele>
        <time>2021-11-16T23:11:23.315Z</time>
      </trkpt>
      <trkpt lat="38.83449" lon="39.97766">
        <ele>1076.227361</ele>
        <time>2021-11-16T23:11:40.816Z</time>
      </trkpt>
      <trkpt lat="38.83366" lon="39.97736">
        <ele>1077.903215</ele>
        <time>2021-11-16T23:12:09.064Z</time>
      </trkpt>
      <trkpt lat="38.8333" lon="39.97727">
        <ele>1078.433825</ele>
        <time>2021-11-16T23:12:20.957Z</time>
      </trkpt>
      <trkpt lat="38.83284" lon="39.97717">
        <ele>1079.110017</ele>
        <time>2021-11-16T23:12:36.022Z</time>
      </trkpt>
      <trkpt lat="38.82508" lon="39.97622">
        <ele>1090.479937</ele>
        <time>2021-11-16T23:16:09.933Z</time>
      </trkpt>
      <trkpt lat="38.82391" lon="39.97607">
        <ele>1091.179334</ele>
        <time>2021-11-16T23:16:45.800Z</time>
      </trkpt>
      <trkpt lat="38.82186" lon="39.97563">
        <ele>1088.60981</ele>
        <time>2021-11-16T23:17:24.641Z</time>
      </trkpt>
      <trkpt lat="38.82093" lon="39.9754">
        <ele>1086.08243</ele>
        <time>2021-11-16T23:17:39.202Z</time>
      </trkpt>
      <trkpt lat="38.81993" lon="39.97515">
        <ele>1082.915015</ele>
        <time>2021-11-16T23:17:55.270Z</time>
      </trkpt>
      <trkpt lat="38.81956" lon="39.97506">
        <ele>1081.734274</ele>
        <time>2021-11-16T23:18:02.022Z</time>
      </trkpt>
      <trkpt lat="38.8186" lon="39.97483">
        <ele>1082.465053</ele>
        <time>2021-11-16T23:18:24.705Z</time>
      </trkpt>
      <trkpt lat="38.81688" lon="39.97439">
        <ele>1086.207539</ele>
        <time>2021-11-16T23:19:21.989Z</time>
      </trkpt>
      <trkpt lat="38.81559" lon="39.97414">
        <ele>1090.494813</ele>
        <time>2021-11-16T23:20:09.855Z</time>
      </trkpt>
      <trkpt lat="38.81486" lon="39.97409">
        <ele>1093.167393</ele>
        <time>2021-11-16T23:20:37.353Z</time>
      </trkpt>
      <trkpt lat="38.81389" lon="39.97416">
        <ele>1096.497908</ele>
        <time>2021-11-16T23:21:12.835Z</time>
      </trkpt>
      <trkpt lat="38.81359" lon="39.97421">
        <ele>1097.341261</ele>
        <time>2021-11-16T23:21:23.262Z</time>
      </trkpt>
      <trkpt lat="38.81319" lon="39.97429">
        <ele>1098.500899</ele>
        <time>2021-11-16T23:21:37.220Z</time>
      </trkpt>
      <trkpt lat="38.81222" lon="39.97448">
        <ele>1101.115607</ele>
        <time>2021-11-16T23:22:09.102Z</time>
      </trkpt>
      <trkpt lat="38.81005" lon="39.97466">
        <ele>1104.27951</ele>
        <time>2021-11-16T23:23:10.594Z</time>
      </trkpt>
      <trkpt lat="38.80692" lon="39.97461">
        <ele>1106.023485</ele>
        <time>2021-11-16T23:24:25.917Z</time>
      </trkpt>
      <trkpt lat="38.79989" lon="39.97417">
        <ele>1107.080296</ele>
        <time>2021-11-16T23:27:06.049Z</time>
      </trkpt>
      <trkpt lat="38.78441" lon="39.97351">
        <ele>1110.021643</ele>
        <time>2021-11-16T23:33:16.832Z</time>
      </trkpt>
      <trkpt lat="38.77423" lon="39.9729">
        <ele>1037.299344</ele>
        <time>2021-11-16T23:35:40.903Z</time>
      </trkpt>
      <trkpt lat="38.7735" lon="39.97282">
        <ele>1033.201299</ele>
        <time>2021-11-16T23:35:51.784Z</time>
      </trkpt>
      <trkpt lat="38.77253" lon="39.97258">
        <ele>1028.471713</ele>
        <time>2021-11-16T23:36:07.107Z</time>
      </trkpt>
      <trkpt lat="38.77151" lon="39.9722">
        <ele>1025.288608</ele>
        <time>2021-11-16T23:36:24.724Z</time>
      </trkpt>
      <trkpt lat="38.7706" lon="39.97168">
        <ele>1022.821739</ele>
        <time>2021-11-16T23:36:41.851Z</time>
      </trkpt>
      <trkpt lat="38.76986" lon="39.97114">
        <ele>1021.046514</ele>
        <time>2021-11-16T23:36:56.813Z</time>
      </trkpt>
      <trkpt lat="38.76911" lon="39.97048">
        <ele>1019.268095</ele>
        <time>2021-11-16T23:37:12.878Z</time>
      </trkpt>
      <trkpt lat="38.76832" lon="39.96956">
        <ele>1017.282304</ele>
        <time>2021-11-16T23:37:31.974Z</time>
      </trkpt>
      <trkpt lat="38.76763" lon="39.96854">
        <ele>1015.368454</ele>
        <time>2021-11-16T23:37:50.938Z</time>
      </trkpt>
      <trkpt lat="38.7675" lon="39.9683">
        <ele>1014.958074</ele>
        <time>2021-11-16T23:37:54.972Z</time>
      </trkpt>
      <trkpt lat="38.76709" lon="39.96753">
        <ele>1013.631793</ele>
        <time>2021-11-16T23:38:07.955Z</time>
      </trkpt>
      <trkpt lat="38.76654" lon="39.9664">
        <ele>1011.219596</ele>
        <time>2021-11-16T23:38:25.950Z</time>
      </trkpt>
      <trkpt lat="38.76" lon="39.95288">
        <ele>980.279705</ele>
        <time>2021-11-16T23:41:55.828Z</time>
      </trkpt>
      <trkpt lat="38.75485" lon="39.94234">
        <ele>962.455806</ele>
        <time>2021-11-16T23:44:49.143Z</time>
      </trkpt>
      <trkpt lat="38.75141" lon="39.93532">
        <ele>955.775862</ele>
        <time>2021-11-16T23:46:54.076Z</time>
      </trkpt>
      <trkpt lat="38.74131" lon="39.91465">
        <ele>936.311507</ele>
        <time>2021-11-16T23:53:00.341Z</time>
      </trkpt>
      <trkpt lat="38.73886" lon="39.90964">
        <ele>930.825293</ele>
        <time>2021-11-16T23:54:25.908Z</time>
      </trkpt>
      <trkpt lat="38.73109" lon="39.89376">
        <ele>934.693301</ele>
        <time>2021-11-17T00:00:08.372Z</time>
      </trkpt>
      <trkpt lat="38.72916" lon="39.88983">
        <ele>937.953147</ele>
        <time>2021-11-17T00:01:44.084Z</time>
      </trkpt>
      <trkpt lat="38.7277" lon="39.88685">
        <ele>938.99913</ele>
        <time>2021-11-17T00:02:49.606Z</time>
      </trkpt>
      <trkpt lat="38.72724" lon="39.8859">
        <ele>938.861411</ele>
        <time>2021-11-17T00:03:08.355Z</time>
      </trkpt>
      <trkpt lat="38.72674" lon="39.88488">
        <ele>938.47064</ele>
        <time>2021-11-17T00:03:27.322Z</time>
      </trkpt>
      <trkpt lat="38.72619" lon="39.88367">
        <ele>937.776115</ele>
        <time>2021-11-17T00:03:49.051Z</time>
      </trkpt>
      <trkpt lat="38.72593" lon="39.88294">
        <ele>937.56122</ele>
        <time>2021-11-17T00:04:01.910Z</time>
      </trkpt>
      <trkpt lat="38.7257" lon="39.88228">
        <ele>937.450104</ele>
        <time>2021-11-17T00:04:14.026Z</time>
      </trkpt>
      <trkpt lat="38.72549" lon="39.88185">
        <ele>937.373929</ele>
        <time>2021-11-17T00:04:22.562Z</time>
      </trkpt>
      <trkpt lat="38.72545" lon="39.88179">
        <ele>937.362291</ele>
        <time>2021-11-17T00:04:23.837Z</time>
      </trkpt>
      <trkpt lat="38.72514" lon="39.88132">
        <ele>937.343764</ele>
        <time>2021-11-17T00:04:34.907Z</time>
      </trkpt>
      <trkpt lat="38.72481" lon="39.88077">
        <ele>937.557019</ele>
        <time>2021-11-17T00:04:47.516Z</time>
      </trkpt>
      <trkpt lat="38.72401" lon="39.87921">
        <ele>938.387169</ele>
        <time>2021-11-17T00:05:22.705Z</time>
      </trkpt>
      <trkpt lat="38.72351" lon="39.87821">
        <ele>939.471779</ele>
        <time>2021-11-17T00:05:47.564Z</time>
      </trkpt>
      <trkpt lat="38.72326" lon="39.87771">
        <ele>940.009826</ele>
        <time>2021-11-17T00:06:00.353Z</time>
      </trkpt>
      <trkpt lat="38.72247" lon="39.87617">
        <ele>942.802155</ele>
        <time>2021-11-17T00:06:43.758Z</time>
      </trkpt>
      <trkpt lat="38.72206" lon="39.87536">
        <ele>944.288124</ele>
        <time>2021-11-17T00:07:07.398Z</time>
      </trkpt>
      <trkpt lat="38.72171" lon="39.87467">
        <ele>945.509629</ele>
        <time>2021-11-17T00:07:26.980Z</time>
      </trkpt>
      <trkpt lat="38.7208" lon="39.87262">
        <ele>949.044344</ele>
        <time>2021-11-17T00:08:20.100Z</time>
      </trkpt>
      <trkpt lat="38.71974" lon="39.87049">
        <ele>953.434127</ele>
        <time>2021-11-17T00:09:21.684Z</time>
      </trkpt>
      <trkpt lat="38.71946" lon="39.86992">
        <ele>954.719825</ele>
        <time>2021-11-17T00:09:39.725Z</time>
      </trkpt>
      <trkpt lat="38.71828" lon="39.86736">
        <ele>960.210955</ele>
        <time>2021-11-17T00:10:54.159Z</time>
      </trkpt>
      <trkpt lat="38.71785" lon="39.86645">
        <ele>961.75837</ele>
        <time>2021-11-17T00:11:18.508Z</time>
      </trkpt>
      <trkpt lat="38.71711" lon="39.86496">
        <ele>963.769003</ele>
        <time>2021-11-17T00:11:57.394Z</time>
      </trkpt>
      <trkpt lat="38.71696" lon="39.86466">
        <ele>964.099979</ele>
        <time>2021-11-17T00:12:05.274Z</time>
      </trkpt>
      <trkpt lat="38.71661" lon="39.86396">
        <ele>964.867783</ele>
        <time>2021-11-17T00:12:22.999Z</time>
      </trkpt>
      <trkpt lat="38.71576" lon="39.86227">
        <ele>964.745701</ele>
        <time>2021-11-17T00:12:55.936Z</time>
      </trkpt>
      <trkpt lat="38.71522" lon="39.86118">
        <ele>965.191075</ele>
        <time>2021-11-17T00:13:17.891Z</time>
      </trkpt>
      <trkpt lat="38.71449" lon="39.85973">
        <ele>966.370384</ele>
        <time>2021-11-17T00:13:54.010Z</time>
      </trkpt>
      <trkpt lat="38.71382" lon="39.85839">
        <ele>968.49387</ele>
        <time>2021-11-17T00:14:32.035Z</time>
      </trkpt>
      <trkpt lat="38.7135" lon="39.85773">
        <ele>969.421917</ele>
        <time>2021-11-17T00:14:48.485Z</time>
      </trkpt>
      <trkpt lat="38.71299" lon="39.85668">
        <ele>970.782931</ele>
        <time>2021-11-17T00:15:14.386Z</time>
      </trkpt>
      <trkpt lat="38.71244" lon="39.85556">
        <ele>972.720909</ele>
        <time>2021-11-17T00:15:44.145Z</time>
      </trkpt>
      <trkpt lat="38.71192" lon="39.8545">
        <ele>975.00734</ele>
        <time>2021-11-17T00:16:15.464Z</time>
      </trkpt>
      <trkpt lat="38.71188" lon="39.8544">
        <ele>975.225585</ele>
        <time>2021-11-17T00:16:18.828Z</time>
      </trkpt>
      <trkpt lat="38.71165" lon="39.85394">
        <ele>976.377573</ele>
        <time>2021-11-17T00:16:33.342Z</time>
      </trkpt>
      <trkpt lat="38.71114" lon="39.85291">
        <ele>979.250587</ele>
        <time>2021-11-17T00:17:06.682Z</time>
      </trkpt>
      <trkpt lat="38.71022" lon="39.85107">
        <ele>983.58978</ele>
        <time>2021-11-17T00:18:03.901Z</time>
      </trkpt>
      <trkpt lat="38.70996" lon="39.85055">
        <ele>984.673513</ele>
        <time>2021-11-17T00:18:18.281Z</time>
      </trkpt>
      <trkpt lat="38.70914" lon="39.84888">
        <ele>986.503585</ele>
        <time>2021-11-17T00:18:58.576Z</time>
      </trkpt>
      <trkpt lat="38.70815" lon="39.84687">
        <ele>988.496011</ele>
        <time>2021-11-17T00:19:45.858Z</time>
      </trkpt>
      <trkpt lat="38.70776" lon="39.84609">
        <ele>989.741616</ele>
        <time>2021-11-17T00:20:06.258Z</time>
      </trkpt>
      <trkpt lat="38.70673" lon="39.844">
        <ele>995.838739</ele>
        <time>2021-11-17T00:21:12.725Z</time>
      </trkpt>
      <trkpt lat="38.70654" lon="39.84355">
        <ele>997.658785</ele>
        <time>2021-11-17T00:21:28.697Z</time>
      </trkpt>
      <trkpt lat="38.70645" lon="39.84335">
        <ele>998.510292</ele>
        <time>2021-11-17T00:21:36.287Z</time>
      </trkpt>
      <trkpt lat="38.70615" lon="39.84266">
        <ele>1001.329839</ele>
        <time>2021-11-17T00:22:02.826Z</time>
      </trkpt>
      <trkpt lat="38.70584" lon="39.84154">
        <ele>1006.916328</ele>
        <time>2021-11-17T00:22:46.084Z</time>
      </trkpt>
      <trkpt lat="38.70565" lon="39.84043">
        <ele>1012.569345</ele>
        <time>2021-11-17T00:23:28.994Z</time>
      </trkpt>
      <trkpt lat="38.70558" lon="39.83897">
        <ele>1020.43874</ele>
        <time>2021-11-17T00:24:26.485Z</time>
      </trkpt>
      <trkpt lat="38.70556" lon="39.83851">
        <ele>1022.920547</ele>
        <time>2021-11-17T00:24:44.420Z</time>
      </trkpt>
      <trkpt lat="38.70539" lon="39.83526">
        <ele>1040.958785</ele>
        <time>2021-11-17T00:26:52.485Z</time>
      </trkpt>
      <trkpt lat="38.70531" lon="39.83466">
        <ele>1044.574807</ele>
        <time>2021-11-17T00:27:17.850Z</time>
      </trkpt>
      <trkpt lat="38.7052" lon="39.83371">
        <ele>1050.323733</ele>
        <time>2021-11-17T00:27:59.015Z</time>
      </trkpt>
      <trkpt lat="38.70491" lon="39.83225">
        <ele>1057.392449</ele>
        <time>2021-11-17T00:28:59.492Z</time>
      </trkpt>
      <trkpt lat="38.70439" lon="39.83067">
        <ele>1062.513294</ele>
        <time>2021-11-17T00:29:50.166Z</time>
      </trkpt>
      <trkpt lat="38.70403" lon="39.82987">
        <ele>1062.635561</ele>
        <time>2021-11-17T00:30:05.749Z</time>
      </trkpt>
      <trkpt lat="38.70394" lon="39.82971">
        <ele>1062.662658</ele>
        <time>2021-11-17T00:30:08.614Z</time>
      </trkpt>
      <trkpt lat="38.7036" lon="39.82909">
        <ele>1062.539979</ele>
        <time>2021-11-17T00:30:19.065Z</time>
      </trkpt>
      <trkpt lat="38.69981" lon="39.82332">
        <ele>1046.683566</ele>
        <time>2021-11-17T00:31:56.779Z</time>
      </trkpt>
      <trkpt lat="38.69406" lon="39.81454">
        <ele>1033.001583</ele>
        <time>2021-11-17T00:34:39.277Z</time>
      </trkpt>
      <trkpt lat="38.69276" lon="39.81255">
        <ele>1034.336924</ele>
        <time>2021-11-17T00:35:39.899Z</time>
      </trkpt>
      <trkpt lat="38.69056" lon="39.80931">
        <ele>1030.992114</ele>
        <time>2021-11-17T00:36:46.959Z</time>
      </trkpt>
      <trkpt lat="38.6832" lon="39.79816">
        <ele>978.2986</ele>
        <time>2021-11-17T00:39:40.398Z</time>
      </trkpt>
      <trkpt lat="38.68202" lon="39.79668">
        <ele>969.988909</ele>
        <time>2021-11-17T00:40:05.308Z</time>
      </trkpt>
      <trkpt lat="38.67934" lon="39.79389">
        <ele>951.746672</ele>
        <time>2021-11-17T00:40:56.969Z</time>
      </trkpt>
      <trkpt lat="38.67863" lon="39.79303">
        <ele>946.389612</ele>
        <time>2021-11-17T00:41:11.489Z</time>
      </trkpt>
      <trkpt lat="38.67811" lon="39.79214">
        <ele>941.744019</ele>
        <time>2021-11-17T00:41:24.350Z</time>
      </trkpt>
      <trkpt lat="38.67759" lon="39.79142">
        <ele>937.630221</ele>
        <time>2021-11-17T00:41:35.849Z</time>
      </trkpt>
      <trkpt lat="38.67714" lon="39.7909">
        <ele>934.738282</ele>
        <time>2021-11-17T00:41:45.016Z</time>
      </trkpt>
      <trkpt lat="38.67657" lon="39.79046">
        <ele>931.709921</ele>
        <time>2021-11-17T00:41:55.211Z</time>
      </trkpt>
      <trkpt lat="38.67479" lon="39.7896">
        <ele>923.514658</ele>
        <time>2021-11-17T00:42:24.706Z</time>
      </trkpt>
      <trkpt lat="38.67365" lon="39.78861">
        <ele>918.044715</ele>
        <time>2021-11-17T00:42:46.319Z</time>
      </trkpt>
      <trkpt lat="38.67304" lon="39.78779">
        <ele>914.648967</ele>
        <time>2021-11-17T00:43:00.417Z</time>
      </trkpt>
      <trkpt lat="38.67104" lon="39.78432">
        <ele>902.3151</ele>
        <time>2021-11-17T00:43:54.182Z</time>
      </trkpt>
      <trkpt lat="38.67021" lon="39.78346">
        <ele>897.898323</ele>
        <time>2021-11-17T00:44:10.943Z</time>
      </trkpt>
      <trkpt lat="38.66924" lon="39.78281">
        <ele>893.184966</ele>
        <time>2021-11-17T00:44:27.687Z</time>
      </trkpt>
      <trkpt lat="38.66874" lon="39.7826">
        <ele>890.744334</ele>
        <time>2021-11-17T00:44:35.774Z</time>
      </trkpt>
      <trkpt lat="38.66728" lon="39.78213">
        <ele>883.864262</ele>
        <time>2021-11-17T00:44:58.766Z</time>
      </trkpt>
      <trkpt lat="38.66681" lon="39.78189">
        <ele>881.657219</ele>
        <time>2021-11-17T00:45:06.491Z</time>
      </trkpt>
      <trkpt lat="38.66614" lon="39.78145">
        <ele>878.361865</ele>
        <time>2021-11-17T00:45:18.190Z</time>
      </trkpt>
      <trkpt lat="38.666" lon="39.78133">
        <ele>877.643537</ele>
        <time>2021-11-17T00:45:20.744Z</time>
      </trkpt>
      <trkpt lat="38.66596" lon="39.78129">
        <ele>877.432369</ele>
        <time>2021-11-17T00:45:21.540Z</time>
      </trkpt>
      <trkpt lat="38.6658" lon="39.78115">
        <ele>876.735139</ele>
        <time>2021-11-17T00:45:24.701Z</time>
      </trkpt>
      <trkpt lat="38.66496" lon="39.78025">
        <ele>873.749488</ele>
        <time>2021-11-17T00:45:42.553Z</time>
      </trkpt>
      <trkpt lat="38.66453" lon="39.7796">
        <ele>872.032799</ele>
        <time>2021-11-17T00:45:54.456Z</time>
      </trkpt>
      <trkpt lat="38.66387" lon="39.77836">
        <ele>870.841557</ele>
        <time>2021-11-17T00:46:17.108Z</time>
      </trkpt>
      <trkpt lat="38.66174" lon="39.7736">
        <ele>868.01487</ele>
        <time>2021-11-17T00:47:43.524Z</time>
      </trkpt>
      <trkpt lat="38.65919" lon="39.76802">
        <ele>864.891746</ele>
        <time>2021-11-17T00:49:26.565Z</time>
      </trkpt>
      <trkpt lat="38.65805" lon="39.76554">
        <ele>861.752741</ele>
        <time>2021-11-17T00:50:07.558Z</time>
      </trkpt>
      <trkpt lat="38.65735" lon="39.76401">
        <ele>859.824295</ele>
        <time>2021-11-17T00:50:33.106Z</time>
      </trkpt>
      <trkpt lat="38.65642" lon="39.76198">
        <ele>857.884081</ele>
        <time>2021-11-17T00:51:08.505Z</time>
      </trkpt>
      <trkpt lat="38.65506" lon="39.75902">
        <ele>855.689754</ele>
        <time>2021-11-17T00:52:01.965Z</time>
      </trkpt>
      <trkpt lat="38.654" lon="39.75669">
        <ele>853.849299</ele>
        <time>2021-11-17T00:52:42.536Z</time>
      </trkpt>
      <trkpt lat="38.65328" lon="39.755">
        <ele>852.93337</ele>
        <time>2021-11-17T00:53:12.875Z</time>
      </trkpt>
      <trkpt lat="38.65241" lon="39.75242">
        <ele>852.576393</ele>
        <time>2021-11-17T00:54:00.485Z</time>
      </trkpt>
      <trkpt lat="38.6521" lon="39.75105">
        <ele>852.736955</ele>
        <time>2021-11-17T00:54:26.238Z</time>
      </trkpt>
      <trkpt lat="38.65177" lon="39.74927">
        <ele>853.198956</ele>
        <time>2021-11-17T00:55:00.097Z</time>
      </trkpt>
      <trkpt lat="38.65158" lon="39.74756">
        <ele>853.599231</ele>
        <time>2021-11-17T00:55:31.888Z</time>
      </trkpt>
      <trkpt lat="38.65146" lon="39.74601">
        <ele>853.720244</ele>
        <time>2021-11-17T00:55:59.450Z</time>
      </trkpt>
      <trkpt lat="38.65132" lon="39.74229">
        <ele>853.677623</ele>
        <time>2021-11-17T00:57:03.538Z</time>
      </trkpt>
      <trkpt lat="38.65129" lon="39.74128">
        <ele>853.761303</ele>
        <time>2021-11-17T00:57:21.577Z</time>
      </trkpt>
      <trkpt lat="38.65113" lon="39.73925">
        <ele>853.806923</ele>
        <time>2021-11-17T00:57:57.469Z</time>
      </trkpt>
      <trkpt lat="38.65094" lon="39.73789">
        <ele>853.748567</ele>
        <time>2021-11-17T00:58:20.786Z</time>
      </trkpt>
      <trkpt lat="38.65067" lon="39.73654">
        <ele>853.890257</ele>
        <time>2021-11-17T00:58:45.245Z</time>
      </trkpt>
      <trkpt lat="38.65033" lon="39.73502">
        <ele>854.169059</ele>
        <time>2021-11-17T00:59:14.500Z</time>
      </trkpt>
      <trkpt lat="38.64983" lon="39.73339">
        <ele>854.580205</ele>
        <time>2021-11-17T00:59:47.247Z</time>
      </trkpt>
      <trkpt lat="38.64917" lon="39.73172">
        <ele>854.438907</ele>
        <time>2021-11-17T01:00:19.551Z</time>
      </trkpt>
      <trkpt lat="38.6471" lon="39.72732">
        <ele>851.031214</ele>
        <time>2021-11-17T01:01:38.643Z</time>
      </trkpt>
      <trkpt lat="38.64531" lon="39.72397">
        <ele>845.317166</ele>
        <time>2021-11-17T01:02:34.117Z</time>
      </trkpt>
      <trkpt lat="38.64301" lon="39.71952">
        <ele>842.944311</ele>
        <time>2021-11-17T01:03:57.306Z</time>
      </trkpt>
      <trkpt lat="38.6426" lon="39.71902">
        <ele>843.895621</ele>
        <time>2021-11-17T01:04:12.204Z</time>
      </trkpt>
      <trkpt lat="38.64093" lon="39.71589">
        <ele>852.641102</ele>
        <time>2021-11-17T01:05:56.603Z</time>
      </trkpt>
      <trkpt lat="38.64079" lon="39.71554">
        <ele>854.006773</ele>
        <time>2021-11-17T01:06:09.144Z</time>
      </trkpt>
      <trkpt lat="38.64074" lon="39.71537">
        <ele>854.621827</ele>
        <time>2021-11-17T01:06:16.346Z</time>
      </trkpt>
      <trkpt lat="38.64071" lon="39.71502">
        <ele>855.833808</ele>
        <time>2021-11-17T01:06:27.194Z</time>
      </trkpt>
      <trkpt lat="38.64078" lon="39.71453">
        <ele>857.55686</ele>
        <time>2021-11-17T01:06:44.197Z</time>
      </trkpt>
      <trkpt lat="38.64175" lon="39.71287">
        <ele>862.967556</ele>
        <time>2021-11-17T01:07:45.029Z</time>
      </trkpt>
      <trkpt lat="38.64214" lon="39.71206">
        <ele>864.717411</ele>
        <time>2021-11-17T01:08:05.923Z</time>
      </trkpt>
      <trkpt lat="38.64229" lon="39.71166">
        <ele>864.67899</ele>
        <time>2021-11-17T01:08:14.768Z</time>
      </trkpt>
      <trkpt lat="38.6446" lon="39.70561">
        <ele>863.454431</ele>
        <time>2021-11-17T01:10:05.016Z</time>
      </trkpt>
      <trkpt lat="38.64527" lon="39.70372">
        <ele>862.503833</ele>
        <time>2021-11-17T01:10:37.253Z</time>
      </trkpt>
      <trkpt lat="38.64562" lon="39.70235">
        <ele>862.377614</ele>
        <time>2021-11-17T01:11:01.042Z</time>
      </trkpt>
      <trkpt lat="38.64582" lon="39.70118">
        <ele>862.817778</ele>
        <time>2021-11-17T01:11:24.029Z</time>
      </trkpt>
      <trkpt lat="38.64591" lon="39.70067">
        <ele>863.267805</ele>
        <time>2021-11-17T01:11:34.853Z</time>
      </trkpt>
      <trkpt lat="38.64657" lon="39.69716">
        <ele>867.08778</ele>
        <time>2021-11-17T01:12:54.140Z</time>
      </trkpt>
      <trkpt lat="38.64881" lon="39.68546">
        <ele>880.585238</ele>
        <time>2021-11-17T01:17:17.901Z</time>
      </trkpt>
      <trkpt lat="38.64906" lon="39.68349">
        <ele>882.532904</ele>
        <time>2021-11-17T01:17:59.714Z</time>
      </trkpt>
      <trkpt lat="38.64912" lon="39.68154">
        <ele>884.513609</ele>
        <time>2021-11-17T01:18:40.511Z</time>
      </trkpt>
      <trkpt lat="38.64909" lon="39.67998">
        <ele>888.344109</ele>
        <time>2021-11-17T01:19:19.480Z</time>
      </trkpt>
      <trkpt lat="38.64862" lon="39.6728">
        <ele>915.041134</ele>
        <time>2021-11-17T01:23:16.742Z</time>
      </trkpt>
      <trkpt lat="38.64846" lon="39.67179">
        <ele>917.995599</ele>
        <time>2021-11-17T01:23:49.714Z</time>
      </trkpt>
      <trkpt lat="38.64807" lon="39.67061">
        <ele>920.687315</ele>
        <time>2021-11-17T01:24:24.404Z</time>
      </trkpt>
      <trkpt lat="38.64083" lon="39.65139">
        <ele>916.181112</ele>
        <time>2021-11-17T01:30:12.025Z</time>
      </trkpt>
      <trkpt lat="38.64025" lon="39.6497">
        <ele>918.908508</ele>
        <time>2021-11-17T01:30:56.041Z</time>
      </trkpt>
      <trkpt lat="38.63986" lon="39.64829">
        <ele>922.221722</ele>
        <time>2021-11-17T01:31:36.688Z</time>
      </trkpt>
      <trkpt lat="38.63953" lon="39.64685">
        <ele>925.818402</ele>
        <time>2021-11-17T01:32:17.685Z</time>
      </trkpt>
      <trkpt lat="38.6393" lon="39.64554">
        <ele>929.006679</ele>
        <time>2021-11-17T01:32:54.046Z</time>
      </trkpt>
      <trkpt lat="38.6386" lon="39.63954">
        <ele>941.059785</ele>
        <time>2021-11-17T01:35:33.334Z</time>
      </trkpt>
      <trkpt lat="38.63755" lon="39.6297">
        <ele>944.981046</ele>
        <time>2021-11-17T01:38:39.152Z</time>
      </trkpt>
      <trkpt lat="38.63664" lon="39.62181">
        <ele>934.450757</ele>
        <time>2021-11-17T01:40:30.051Z</time>
      </trkpt>
      <trkpt lat="38.63659" lon="39.62058">
        <ele>932.770214</ele>
        <time>2021-11-17T01:40:47.502Z</time>
      </trkpt>
      <trkpt lat="38.63674" lon="39.61621">
        <ele>925.915064</ele>
        <time>2021-11-17T01:41:48.693Z</time>
      </trkpt>
      <trkpt lat="38.6368" lon="39.61424">
        <ele>920.00733</ele>
        <time>2021-11-17T01:42:13.322Z</time>
      </trkpt>
      <trkpt lat="38.63704" lon="39.60592">
        <ele>887.150706</ele>
        <time>2021-11-17T01:43:50.636Z</time>
      </trkpt>
      <trkpt lat="38.63701" lon="39.60492">
        <ele>884.059274</ele>
        <time>2021-11-17T01:44:02.595Z</time>
      </trkpt>
      <trkpt lat="38.63688" lon="39.60402">
        <ele>881.231611</ele>
        <time>2021-11-17T01:44:14.017Z</time>
      </trkpt>
      <trkpt lat="38.63669" lon="39.60329">
        <ele>880.326327</ele>
        <time>2021-11-17T01:44:24.456Z</time>
      </trkpt>
      <trkpt lat="38.63637" lon="39.60244">
        <ele>879.998477</ele>
        <time>2021-11-17T01:44:39.116Z</time>
      </trkpt>
      <trkpt lat="38.63491" lon="39.59896">
        <ele>882.459269</ele>
        <time>2021-11-17T01:46:04.668Z</time>
      </trkpt>
      <trkpt lat="38.6341" lon="39.5968">
        <ele>882.135077</ele>
        <time>2021-11-17T01:46:47.125Z</time>
      </trkpt>
      <trkpt lat="38.63375" lon="39.59516">
        <ele>880.137975</ele>
        <time>2021-11-17T01:47:10.035Z</time>
      </trkpt>
      <trkpt lat="38.63358" lon="39.59398">
        <ele>878.070633</ele>
        <time>2021-11-17T01:47:25.554Z</time>
      </trkpt>
      <trkpt lat="38.63306" lon="39.57375">
        <ele>857.034337</ele>
        <time>2021-11-17T01:52:20.026Z</time>
      </trkpt>
      <trkpt lat="38.63304" lon="39.57245">
        <ele>856.630521</ele>
        <time>2021-11-17T01:52:42.458Z</time>
      </trkpt>
      <trkpt lat="38.63295" lon="39.56865">
        <ele>860.518776</ele>
        <time>2021-11-17T01:54:05.227Z</time>
      </trkpt>
      <trkpt lat="38.63286" lon="39.567">
        <ele>862.249575</ele>
        <time>2021-11-17T01:54:41.660Z</time>
      </trkpt>
      <trkpt lat="38.63269" lon="39.5655">
        <ele>863.672564</ele>
        <time>2021-11-17T01:55:13.670Z</time>
      </trkpt>
      <trkpt lat="38.63239" lon="39.56405">
        <ele>864.307305</ele>
        <time>2021-11-17T01:55:43.205Z</time>
      </trkpt>
      <trkpt lat="38.63203" lon="39.56268">
        <ele>864.333787</ele>
        <time>2021-11-17T01:56:08.147Z</time>
      </trkpt>
      <trkpt lat="38.63168" lon="39.56167">
        <ele>863.921969</ele>
        <time>2021-11-17T01:56:25.514Z</time>
      </trkpt>
      <trkpt lat="38.63123" lon="39.56054">
        <ele>863.267503</ele>
        <time>2021-11-17T01:56:44.913Z</time>
      </trkpt>
      <trkpt lat="38.6307" lon="39.5594">
        <ele>862.479535</ele>
        <time>2021-11-17T01:57:05.434Z</time>
      </trkpt>
      <trkpt lat="38.6276" lon="39.55309">
        <ele>859.439782</ele>
        <time>2021-11-17T01:59:05.148Z</time>
      </trkpt>
      <trkpt lat="38.62643" lon="39.55071">
        <ele>858.184412</ele>
        <time>2021-11-17T01:59:49.273Z</time>
      </trkpt>
      <trkpt lat="38.62338" lon="39.54448">
        <ele>855.76827</ele>
        <time>2021-11-17T02:01:49.067Z</time>
      </trkpt>
      <trkpt lat="38.62295" lon="39.54341">
        <ele>855.719393</ele>
        <time>2021-11-17T02:02:07.854Z</time>
      </trkpt>
      <trkpt lat="38.62265" lon="39.54238">
        <ele>856.931515</ele>
        <time>2021-11-17T02:02:29.577Z</time>
      </trkpt>
      <trkpt lat="38.62232" lon="39.54098">
        <ele>858.831984</ele>
        <time>2021-11-17T02:03:08.331Z</time>
      </trkpt>
      <trkpt lat="38.62219" lon="39.53966">
        <ele>861.068541</ele>
        <time>2021-11-17T02:03:43.805Z</time>
      </trkpt>
      <trkpt lat="38.62178" lon="39.53262">
        <ele>860.790867</ele>
        <time>2021-11-17T02:05:41.759Z</time>
      </trkpt>
      <trkpt lat="38.62161" lon="39.53132">
        <ele>860.293868</ele>
        <time>2021-11-17T02:06:02.639Z</time>
      </trkpt>
      <trkpt lat="38.62133" lon="39.52993">
        <ele>859.687886</ele>
        <time>2021-11-17T02:06:25.523Z</time>
      </trkpt>
      <trkpt lat="38.62101" lon="39.52867">
        <ele>859.085732</ele>
        <time>2021-11-17T02:06:46.598Z</time>
      </trkpt>
      <trkpt lat="38.62079" lon="39.52803">
        <ele>858.769611</ele>
        <time>2021-11-17T02:06:57.600Z</time>
      </trkpt>
      <trkpt lat="38.62063" lon="39.52757">
        <ele>858.548709</ele>
        <time>2021-11-17T02:07:05.590Z</time>
      </trkpt>
      <trkpt lat="38.61971" lon="39.52544">
        <ele>857.59208</ele>
        <time>2021-11-17T02:07:44.488Z</time>
      </trkpt>
      <trkpt lat="38.61911" lon="39.52438">
        <ele>857.254554</ele>
        <time>2021-11-17T02:08:06.268Z</time>
      </trkpt>
      <trkpt lat="38.61019" lon="39.50909">
        <ele>854.065515</ele>
        <time>2021-11-17T02:13:26.153Z</time>
      </trkpt>
      <trkpt lat="38.60986" lon="39.50849">
        <ele>853.889654</ele>
        <time>2021-11-17T02:13:38.113Z</time>
      </trkpt>
      <trkpt lat="38.6095" lon="39.50783">
        <ele>853.698994</ele>
        <time>2021-11-17T02:13:51.350Z</time>
      </trkpt>
      <trkpt lat="38.60941" lon="39.50765">
        <ele>853.649469</ele>
        <time>2021-11-17T02:13:54.729Z</time>
      </trkpt>
      <trkpt lat="38.60899" lon="39.50678">
        <ele>853.538214</ele>
        <time>2021-11-17T02:14:11.891Z</time>
      </trkpt>
      <trkpt lat="38.60889" lon="39.50655">
        <ele>853.530947</ele>
        <time>2021-11-17T02:14:16.331Z</time>
      </trkpt>
      <trkpt lat="38.60826" lon="39.50506">
        <ele>853.523592</ele>
        <time>2021-11-17T02:14:46.248Z</time>
      </trkpt>
      <trkpt lat="38.6023" lon="39.49001">
        <ele>855.40274</ele>
        <time>2021-11-17T02:19:47.048Z</time>
      </trkpt>
      <trkpt lat="38.59287" lon="39.46601">
        <ele>858.420457</ele>
        <time>2021-11-17T02:27:46.414Z</time>
      </trkpt>
      <trkpt lat="38.59263" lon="39.46505">
        <ele>858.383693</ele>
        <time>2021-11-17T02:28:03.845Z</time>
      </trkpt>
      <trkpt lat="38.59244" lon="39.46408">
        <ele>858.346748</ele>
        <time>2021-11-17T02:28:20.858Z</time>
      </trkpt>
      <trkpt lat="38.5923" lon="39.46302">
        <ele>858.166034</ele>
        <time>2021-11-17T02:28:38.999Z</time>
      </trkpt>
      <trkpt lat="38.5922" lon="39.46202">
        <ele>857.996119</ele>
        <time>2021-11-17T02:28:55.875Z</time>
      </trkpt>
      <trkpt lat="38.59217" lon="39.46101">
        <ele>857.864604</ele>
        <time>2021-11-17T02:29:12.452Z</time>
      </trkpt>
      <trkpt lat="38.59232" lon="39.45883">
        <ele>857.914958</ele>
        <time>2021-11-17T02:29:49.823Z</time>
      </trkpt>
      <trkpt lat="38.59248" lon="39.45791">
        <ele>858.236622</ele>
        <time>2021-11-17T02:30:07.653Z</time>
      </trkpt>
      <trkpt lat="38.59295" lon="39.45601">
        <ele>859.452221</ele>
        <time>2021-11-17T02:30:48.536Z</time>
      </trkpt>
      <trkpt lat="38.59386" lon="39.4531">
        <ele>861.484748</ele>
        <time>2021-11-17T02:31:51.780Z</time>
      </trkpt>
      <trkpt lat="38.59414" lon="39.45198">
        <ele>861.65326</ele>
        <time>2021-11-17T02:32:12.372Z</time>
      </trkpt>
      <trkpt lat="38.5943" lon="39.45113">
        <ele>861.715373</ele>
        <time>2021-11-17T02:32:26.738Z</time>
      </trkpt>
      <trkpt lat="38.59445" lon="39.44973">
        <ele>862.816479</ele>
        <time>2021-11-17T02:32:52.584Z</time>
      </trkpt>
      <trkpt lat="38.59444" lon="39.44874">
        <ele>863.871722</ele>
        <time>2021-11-17T02:33:15.684Z</time>
      </trkpt>
      <trkpt lat="38.59438" lon="39.44784">
        <ele>865.282496</ele>
        <time>2021-11-17T02:33:40.165Z</time>
      </trkpt>
      <trkpt lat="38.59427" lon="39.44697">
        <ele>866.883018</ele>
        <time>2021-11-17T02:34:03.926Z</time>
      </trkpt>
      <trkpt lat="38.5941" lon="39.44613">
        <ele>868.339848</ele>
        <time>2021-11-17T02:34:25.188Z</time>
      </trkpt>
      <trkpt lat="38.592" lon="39.4388">
        <ele>862.167818</ele>
        <time>2021-11-17T02:36:20.856Z</time>
      </trkpt>
      <trkpt lat="38.5918" lon="39.43729">
        <ele>860.9933</ele>
        <time>2021-11-17T02:36:43.807Z</time>
      </trkpt>
      <trkpt lat="38.59179" lon="39.43642">
        <ele>860.799973</ele>
        <time>2021-11-17T02:36:57.652Z</time>
      </trkpt>
      <trkpt lat="38.59179" lon="39.43625">
        <ele>860.759867</ele>
        <time>2021-11-17T02:37:00.651Z</time>
      </trkpt>
      <trkpt lat="38.5918" lon="39.43582">
        <ele>860.663965</ele>
        <time>2021-11-17T02:37:07.959Z</time>
      </trkpt>
      <trkpt lat="38.59185" lon="39.43522">
        <ele>860.528663</ele>
        <time>2021-11-17T02:37:18.759Z</time>
      </trkpt>
      <trkpt lat="38.59211" lon="39.43369">
        <ele>861.042357</ele>
        <time>2021-11-17T02:37:47.997Z</time>
      </trkpt>
      <trkpt lat="38.59283" lon="39.43057">
        <ele>862.311941</ele>
        <time>2021-11-17T02:38:50.051Z</time>
      </trkpt>
      <trkpt lat="38.59293" lon="39.42968">
        <ele>862.677504</ele>
        <time>2021-11-17T02:39:07.017Z</time>
      </trkpt>
      <trkpt lat="38.59298" lon="39.42862">
        <ele>863.111093</ele>
        <time>2021-11-17T02:39:27.324Z</time>
      </trkpt>
      <trkpt lat="38.59294" lon="39.4277">
        <ele>863.427192</ele>
        <time>2021-11-17T02:39:44.917Z</time>
      </trkpt>
      <trkpt lat="38.59281" lon="39.42679">
        <ele>863.725452</ele>
        <time>2021-11-17T02:40:01.938Z</time>
      </trkpt>
      <trkpt lat="38.59235" lon="39.42503">
        <ele>864.526929</ele>
        <time>2021-11-17T02:40:35.966Z</time>
      </trkpt>
      <trkpt lat="38.58981" lon="39.41818">
        <ele>871.008436</ele>
        <time>2021-11-17T02:43:11.753Z</time>
      </trkpt>
      <trkpt lat="38.58906" lon="39.4162">
        <ele>875.559768</ele>
        <time>2021-11-17T02:44:13.673Z</time>
      </trkpt>
      <trkpt lat="38.58879" lon="39.41536">
        <ele>876.677977</ele>
        <time>2021-11-17T02:44:36.063Z</time>
      </trkpt>
      <trkpt lat="38.58557" lon="39.40692">
        <ele>876.787253</ele>
        <time>2021-11-17T02:47:15.165Z</time>
      </trkpt>
      <trkpt lat="38.58469" lon="39.40431">
        <ele>876.704375</ele>
        <time>2021-11-17T02:48:05.395Z</time>
      </trkpt>
      <trkpt lat="38.5847" lon="39.40425">
        <ele>876.698652</ele>
        <time>2021-11-17T02:48:06.387Z</time>
      </trkpt>
      <trkpt lat="38.58469" lon="39.4042">
        <ele>876.692885</ele>
        <time>2021-11-17T02:48:07.390Z</time>
      </trkpt>
      <trkpt lat="38.58468" lon="39.40414">
        <ele>876.687125</ele>
        <time>2021-11-17T02:48:08.379Z</time>
      </trkpt>
      <trkpt lat="38.58465" lon="39.40409">
        <ele>876.680706</ele>
        <time>2021-11-17T02:48:09.475Z</time>
      </trkpt>
      <trkpt lat="38.5846" lon="39.40406">
        <ele>876.674256</ele>
        <time>2021-11-17T02:48:10.577Z</time>
      </trkpt>
      <trkpt lat="38.58415" lon="39.40299">
        <ele>876.260399</ele>
        <time>2021-11-17T02:48:30.739Z</time>
      </trkpt>
      <trkpt lat="38.58153" lon="39.39603">
        <ele>868.920239</ele>
        <time>2021-11-17T02:50:24.578Z</time>
      </trkpt>
      <trkpt lat="38.58105" lon="39.39476">
        <ele>867.116085</ele>
        <time>2021-11-17T02:50:44.259Z</time>
      </trkpt>
      <trkpt lat="38.57966" lon="39.39104">
        <ele>860.720619</ele>
        <time>2021-11-17T02:51:40.592Z</time>
      </trkpt>
      <trkpt lat="38.57936" lon="39.39006">
        <ele>859.935829</ele>
        <time>2021-11-17T02:51:55.994Z</time>
      </trkpt>
      <trkpt lat="38.57916" lon="39.38922">
        <ele>859.438809</ele>
        <time>2021-11-17T02:52:09.838Z</time>
      </trkpt>
      <trkpt lat="38.57899" lon="39.38814">
        <ele>859.341076</ele>
        <time>2021-11-17T02:52:29.262Z</time>
      </trkpt>
      <trkpt lat="38.57898" lon="39.38811">
        <ele>859.356121</ele>
        <time>2021-11-17T02:52:30.176Z</time>
      </trkpt>
      <trkpt lat="38.57885" lon="39.38701">
        <ele>859.801327</ele>
        <time>2021-11-17T02:52:51.630Z</time>
      </trkpt>
      <trkpt lat="38.57884" lon="39.38685">
        <ele>859.863538</ele>
        <time>2021-11-17T02:52:54.737Z</time>
      </trkpt>
      <trkpt lat="38.5788" lon="39.38578">
        <ele>860.293713</ele>
        <time>2021-11-17T02:53:16.015Z</time>
      </trkpt>
      <trkpt lat="38.57881" lon="39.38471">
        <ele>860.723742</ele>
        <time>2021-11-17T02:53:36.526Z</time>
      </trkpt>
      <trkpt lat="38.57882" lon="39.38463">
        <ele>860.755539</ele>
        <time>2021-11-17T02:53:37.949Z</time>
      </trkpt>
      <trkpt lat="38.57893" lon="39.38349">
        <ele>860.931847</ele>
        <time>2021-11-17T02:53:58.700Z</time>
      </trkpt>
      <trkpt lat="38.57911" lon="39.38239">
        <ele>860.86983</ele>
        <time>2021-11-17T02:54:18.310Z</time>
      </trkpt>
      <trkpt lat="38.57942" lon="39.38115">
        <ele>860.320328</ele>
        <time>2021-11-17T02:54:39.118Z</time>
      </trkpt>
      <trkpt lat="38.58016" lon="39.3787">
        <ele>858.510875</ele>
        <time>2021-11-17T02:55:18.178Z</time>
      </trkpt>
      <trkpt lat="38.58166" lon="39.37374">
        <ele>855.225273</ele>
        <time>2021-11-17T02:56:40.503Z</time>
      </trkpt>
      <trkpt lat="38.58369" lon="39.36701">
        <ele>854.098605</ele>
        <time>2021-11-17T02:58:42.192Z</time>
      </trkpt>
      <trkpt lat="38.58419" lon="39.36486">
        <ele>854.429196</ele>
        <time>2021-11-17T02:59:22.456Z</time>
      </trkpt>
      <trkpt lat="38.58465" lon="39.36252">
        <ele>855.482325</ele>
        <time>2021-11-17T03:00:08.653Z</time>
      </trkpt>
      <trkpt lat="38.58476" lon="39.36204">
        <ele>855.839428</ele>
        <time>2021-11-17T03:00:18.710Z</time>
      </trkpt>
      <trkpt lat="38.58479" lon="39.36199">
        <ele>855.888727</ele>
        <time>2021-11-17T03:00:19.892Z</time>
      </trkpt>
      <trkpt lat="38.58481" lon="39.36194">
        <ele>855.939038</ele>
        <time>2021-11-17T03:00:21.144Z</time>
      </trkpt>
      <trkpt lat="38.58482" lon="39.36188">
        <ele>855.989021</ele>
        <time>2021-11-17T03:00:22.398Z</time>
      </trkpt>
      <trkpt lat="38.58482" lon="39.36182">
        <ele>856.036759</ele>
        <time>2021-11-17T03:00:23.588Z</time>
      </trkpt>
      <trkpt lat="38.5848" lon="39.36177">
        <ele>856.084386</ele>
        <time>2021-11-17T03:00:24.781Z</time>
      </trkpt>
      <trkpt lat="38.58477" lon="39.36172">
        <ele>856.135325</ele>
        <time>2021-11-17T03:00:26.118Z</time>
      </trkpt>
      <trkpt lat="38.58463" lon="39.36167">
        <ele>856.285</ele>
        <time>2021-11-17T03:00:29.745Z</time>
      </trkpt>
      <trkpt lat="38.58459" lon="39.36169">
        <ele>856.33542</ele>
        <time>2021-11-17T03:00:31.080Z</time>
      </trkpt>
      <trkpt lat="38.58446" lon="39.36171">
        <ele>856.465634</ele>
        <time>2021-11-17T03:00:34.330Z</time>
      </trkpt>
      <trkpt lat="38.5844" lon="39.36171">
        <ele>856.53471</ele>
        <time>2021-11-17T03:00:36.129Z</time>
      </trkpt>
      <trkpt lat="38.58432" lon="39.36169">
        <ele>856.617969</ele>
        <time>2021-11-17T03:00:38.195Z</time>
      </trkpt>
      <trkpt lat="38.58414" lon="39.36103">
        <ele>857.187375</ele>
        <time>2021-11-17T03:00:52.818Z</time>
      </trkpt>
      <trkpt lat="38.58383" lon="39.36038">
        <ele>857.939737</ele>
        <time>2021-11-17T03:01:09.316Z</time>
      </trkpt>
      <trkpt lat="38.58369" lon="39.36022">
        <ele>858.195729</ele>
        <time>2021-11-17T03:01:14.425Z</time>
      </trkpt>
      <trkpt lat="38.58313" lon="39.35988">
        <ele>859.055472</ele>
        <time>2021-11-17T03:01:31.792Z</time>
      </trkpt>
      <trkpt lat="38.58291" lon="39.35986">
        <ele>859.349265</ele>
        <time>2021-11-17T03:01:37.589Z</time>
      </trkpt>
      <trkpt lat="38.58247" lon="39.35996">
        <ele>859.983932</ele>
        <time>2021-11-17T03:01:50.513Z</time>
      </trkpt>
      <trkpt lat="38.58228" lon="39.35995">
        <ele>860.259528</ele>
        <time>2021-11-17T03:01:55.656Z</time>
      </trkpt>
      <trkpt lat="38.58185" lon="39.3597">
        <ele>860.972816</ele>
        <time>2021-11-17T03:02:08.949Z</time>
      </trkpt>
      <trkpt lat="38.58176" lon="39.35966">
        <ele>861.09974</ele>
        <time>2021-11-17T03:02:11.566Z</time>
      </trkpt>
      <trkpt lat="38.58163" lon="39.35961">
        <ele>861.313181</ele>
        <time>2021-11-17T03:02:15.460Z</time>
      </trkpt>
      <trkpt lat="38.57984" lon="39.35983">
        <ele>863.982845</ele>
        <time>2021-11-17T03:03:06.330Z</time>
      </trkpt>
      <trkpt lat="38.57961" lon="39.35983">
        <ele>864.333425</ele>
        <time>2021-11-17T03:03:13.079Z</time>
      </trkpt>
      <trkpt lat="38.57947" lon="39.35967">
        <ele>864.611202</ele>
        <time>2021-11-17T03:03:18.040Z</time>
      </trkpt>
      <trkpt lat="38.57946" lon="39.35954">
        <ele>864.753819</ele>
        <time>2021-11-17T03:03:20.987Z</time>
      </trkpt>
      <trkpt lat="38.57944" lon="39.35938">
        <ele>864.944247</ele>
        <time>2021-11-17T03:03:24.501Z</time>
      </trkpt>
      <trkpt lat="38.57943" lon="39.35739">
        <ele>866.99069</ele>
        <time>2021-11-17T03:04:07.595Z</time>
      </trkpt>
      <trkpt lat="38.57946" lon="39.35678">
        <ele>867.597523</ele>
        <time>2021-11-17T03:04:20.273Z</time>
      </trkpt>
      <trkpt lat="38.57958" lon="39.35637">
        <ele>867.943806</ele>
        <time>2021-11-17T03:04:29.439Z</time>
      </trkpt>
      <trkpt lat="38.57974" lon="39.35592">
        <ele>868.337786</ele>
        <time>2021-11-17T03:04:39.907Z</time>
      </trkpt>
      <trkpt lat="38.57972" lon="39.35557">
        <ele>868.611319</ele>
        <time>2021-11-17T03:04:47.097Z</time>
      </trkpt>
      <trkpt lat="38.5797" lon="39.35549">
        <ele>868.681982</ele>
        <time>2021-11-17T03:04:48.910Z</time>
      </trkpt>
      <trkpt lat="38.57955" lon="39.35493">
        <ele>869.1481</ele>
        <time>2021-11-17T03:05:00.949Z</time>
      </trkpt>
      <trkpt lat="38.57943" lon="39.35446">
        <ele>869.441985</ele>
        <time>2021-11-17T03:05:10.704Z</time>
      </trkpt>
      <trkpt lat="38.57929" lon="39.3543">
        <ele>869.501498</ele>
        <time>2021-11-17T03:05:15.804Z</time>
      </trkpt>
      <trkpt lat="38.57926" lon="39.35427">
        <ele>869.509803</ele>
        <time>2021-11-17T03:05:16.456Z</time>
      </trkpt>
      <trkpt lat="38.57938" lon="39.35305">
        <ele>869.799557</ele>
        <time>2021-11-17T03:05:39.287Z</time>
      </trkpt>
      <trkpt lat="38.57944" lon="39.35231">
        <ele>869.891263</ele>
        <time>2021-11-17T03:05:51.944Z</time>
      </trkpt>
      <trkpt lat="38.57944" lon="39.35224">
        <ele>869.86022</ele>
        <time>2021-11-17T03:05:53.180Z</time>
      </trkpt>
      <trkpt lat="38.57948" lon="39.35193">
        <ele>869.731262</ele>
        <time>2021-11-17T03:05:58.277Z</time>
      </trkpt>
      <trkpt lat="38.5798" lon="39.34903">
        <ele>868.182104</ele>
        <time>2021-11-17T03:06:44.216Z</time>
      </trkpt>
      <trkpt lat="38.58062" lon="39.34512">
        <ele>864.937884</ele>
        <time>2021-11-17T03:07:44.436Z</time>
      </trkpt>
      <trkpt lat="38.58106" lon="39.34238">
        <ele>863.349388</ele>
        <time>2021-11-17T03:08:27.601Z</time>
      </trkpt>
      <trkpt lat="38.58123" lon="39.34136">
        <ele>862.954381</ele>
        <time>2021-11-17T03:08:44.862Z</time>
      </trkpt>
      <trkpt lat="38.58131" lon="39.34111">
        <ele>862.896545</ele>
        <time>2021-11-17T03:08:49.349Z</time>
      </trkpt>
      <trkpt lat="38.58203" lon="39.33975">
        <ele>863.030075</ele>
        <time>2021-11-17T03:09:18.723Z</time>
      </trkpt>
      <trkpt lat="38.5825" lon="39.33915">
        <ele>863.055598</ele>
        <time>2021-11-17T03:09:34.218Z</time>
      </trkpt>
      <trkpt lat="38.58227" lon="39.33807">
        <ele>862.977308</ele>
        <time>2021-11-17T03:09:54.167Z</time>
      </trkpt>
      <trkpt lat="38.58224" lon="39.33796">
        <ele>862.969335</ele>
        <time>2021-11-17T03:09:55.965Z</time>
      </trkpt>
      <trkpt lat="38.58222" lon="39.3376">
        <ele>862.943715</ele>
        <time>2021-11-17T03:10:02.466Z</time>
      </trkpt>
      <trkpt lat="38.58222" lon="39.33757">
        <ele>862.942172</ele>
        <time>2021-11-17T03:10:02.756Z</time>
      </trkpt>
      <trkpt lat="38.58228" lon="39.33338">
        <ele>860.89238</ele>
        <time>2021-11-17T03:11:08.075Z</time>
      </trkpt>
      <trkpt lat="38.58233" lon="39.33316">
        <ele>860.775965</ele>
        <time>2021-11-17T03:11:11.664Z</time>
      </trkpt>
      <trkpt lat="38.58236" lon="39.33308">
        <ele>860.727657</ele>
        <time>2021-11-17T03:11:13.078Z</time>
      </trkpt>
      <trkpt lat="38.58245" lon="39.33281">
        <ele>860.577267</ele>
        <time>2021-11-17T03:11:17.723Z</time>
      </trkpt>
      <trkpt lat="38.58395" lon="39.32964">
        <ele>859.682869</ele>
        <time>2021-11-17T03:12:18.318Z</time>
      </trkpt>
      <trkpt lat="38.58404" lon="39.32951">
        <ele>859.671618</ele>
        <time>2021-11-17T03:12:21.355Z</time>
      </trkpt>
      <trkpt lat="38.58416" lon="39.32927">
        <ele>859.653665</ele>
        <time>2021-11-17T03:12:26.225Z</time>
      </trkpt>
      <trkpt lat="38.58432" lon="39.329">
        <ele>859.631375</ele>
        <time>2021-11-17T03:12:32.383Z</time>
      </trkpt>
      <trkpt lat="38.5849" lon="39.3286">
        <ele>859.951583</ele>
        <time>2021-11-17T03:12:47.838Z</time>
      </trkpt>
      <trkpt lat="38.58576" lon="39.32768">
        <ele>860.833925</ele>
        <time>2021-11-17T03:13:16.748Z</time>
      </trkpt>
      <trkpt lat="38.586" lon="39.32751">
        <ele>861.050407</ele>
        <time>2021-11-17T03:13:24.370Z</time>
      </trkpt>
      <trkpt lat="38.58621" lon="39.32742">
        <ele>861.233909</ele>
        <time>2021-11-17T03:13:30.315Z</time>
      </trkpt>
      <trkpt lat="38.58638" lon="39.32737">
        <ele>861.387002</ele>
        <time>2021-11-17T03:13:35.130Z</time>
      </trkpt>
      <trkpt lat="38.58659" lon="39.32732">
        <ele>861.569422</ele>
        <time>2021-11-17T03:13:40.869Z</time>
      </trkpt>
      <trkpt lat="38.58673" lon="39.32724">
        <ele>861.695362</ele>
        <time>2021-11-17T03:13:44.735Z</time>
      </trkpt>
      <trkpt lat="38.58688" lon="39.32704">
        <ele>861.880586</ele>
        <time>2021-11-17T03:13:50.417Z</time>
      </trkpt>
      <trkpt lat="38.58695" lon="39.32677">
        <ele>862.068592</ele>
        <time>2021-11-17T03:13:56.133Z</time>
      </trkpt>
      <trkpt lat="38.58708" lon="39.32628">
        <ele>862.410024</ele>
        <time>2021-11-17T03:14:06.267Z</time>
      </trkpt>
      <trkpt lat="38.58725" lon="39.3261">
        <ele>862.560322</ele>
        <time>2021-11-17T03:14:11.614Z</time>
      </trkpt>
      <trkpt lat="38.58848" lon="39.32523">
        <ele>862.795507</ele>
        <time>2021-11-17T03:14:43.472Z</time>
      </trkpt>
      <trkpt lat="38.58875" lon="39.32492">
        <ele>862.861477</ele>
        <time>2021-11-17T03:14:51.528Z</time>
      </trkpt>
      <trkpt lat="38.58899" lon="39.32451">
        <ele>863.004952</ele>
        <time>2021-11-17T03:15:00.639Z</time>
      </trkpt>
      <trkpt lat="38.5893" lon="39.32382">
        <ele>863.227713</ele>
        <time>2021-11-17T03:15:15.034Z</time>
      </trkpt>
      <trkpt lat="38.58938" lon="39.32364">
        <ele>863.286638</ele>
        <time>2021-11-17T03:15:19.054Z</time>
      </trkpt>
      <trkpt lat="38.58968" lon="39.32267">
        <ele>863.678072</ele>
        <time>2021-11-17T03:15:38.982Z</time>
      </trkpt>
      <trkpt lat="38.59014" lon="39.32085">
        <ele>864.852673</ele>
        <time>2021-11-17T03:16:17.056Z</time>
      </trkpt>
      <trkpt lat="38.59031" lon="39.31868">
        <ele>866.507588</ele>
        <time>2021-11-17T03:17:01.843Z</time>
      </trkpt>
      <trkpt lat="38.59041" lon="39.31831">
        <ele>866.787713</ele>
        <time>2021-11-17T03:17:09.911Z</time>
      </trkpt>
      <trkpt lat="38.59052" lon="39.31803">
        <ele>866.991493</ele>
        <time>2021-11-17T03:17:16.337Z</time>
      </trkpt>
      <trkpt lat="38.59067" lon="39.31782">
        <ele>867.174846</ele>
        <time>2021-11-17T03:17:22.091Z</time>
      </trkpt>
      <trkpt lat="38.59159" lon="39.31709">
        <ele>868.062748</ele>
        <time>2021-11-17T03:17:49.503Z</time>
      </trkpt>
      <trkpt lat="38.59278" lon="39.31616">
        <ele>868.901261</ele>
        <time>2021-11-17T03:18:23.904Z</time>
      </trkpt>
      <trkpt lat="38.59569" lon="39.31388">
        <ele>870.427003</ele>
        <time>2021-11-17T03:19:45.660Z</time>
      </trkpt>
      <trkpt lat="38.59584" lon="39.31377">
        <ele>870.501688</ele>
        <time>2021-11-17T03:19:49.658Z</time>
      </trkpt>
      <trkpt lat="38.59814" lon="39.31197">
        <ele>871.786515</ele>
        <time>2021-11-17T03:20:54.586Z</time>
      </trkpt>
      <trkpt lat="38.59886" lon="39.31137">
        <ele>872.314152</ele>
        <time>2021-11-17T03:21:16.020Z</time>
      </trkpt>
      <trkpt lat="38.60079" lon="39.30976">
        <ele>873.77822</ele>
        <time>2021-11-17T03:22:13.371Z</time>
      </trkpt>
      <trkpt lat="38.60096" lon="39.30961">
        <ele>873.905681</ele>
        <time>2021-11-17T03:22:18.332Z</time>
      </trkpt>
      <trkpt lat="38.60259" lon="39.30817">
        <ele>875.169813</ele>
        <time>2021-11-17T03:23:07.068Z</time>
      </trkpt>
      <trkpt lat="38.60301" lon="39.30777">
        <ele>875.584102</ele>
        <time>2021-11-17T03:23:20.607Z</time>
      </trkpt>
      <trkpt lat="38.60348" lon="39.30731">
        <ele>876.046663</ele>
        <time>2021-11-17T03:23:35.844Z</time>
      </trkpt>
      <trkpt lat="38.60553" lon="39.30535">
        <ele>877.850577</ele>
        <time>2021-11-17T03:24:40.228Z</time>
      </trkpt>
      <trkpt lat="38.60714" lon="39.30364">
        <ele>879.08685</ele>
        <time>2021-11-17T03:25:31.396Z</time>
      </trkpt>
      <trkpt lat="38.60726" lon="39.30349">
        <ele>879.1803</ele>
        <time>2021-11-17T03:25:35.329Z</time>
      </trkpt>
      <trkpt lat="38.60737" lon="39.30341">
        <ele>879.25314</ele>
        <time>2021-11-17T03:25:38.373Z</time>
      </trkpt>
      <trkpt lat="38.60746" lon="39.30335">
        <ele>879.307027</ele>
        <time>2021-11-17T03:25:40.727Z</time>
      </trkpt>
      <trkpt lat="38.60766" lon="39.30324">
        <ele>879.430882</ele>
        <time>2021-11-17T03:25:46.083Z</time>
      </trkpt>
      <trkpt lat="38.60785" lon="39.30316">
        <ele>879.545386</ele>
        <time>2021-11-17T03:25:51.219Z</time>
      </trkpt>
      <trkpt lat="38.60838" lon="39.30294">
        <ele>879.85043</ele>
        <time>2021-11-17T03:26:05.195Z</time>
      </trkpt>
      <trkpt lat="38.60848" lon="39.30291">
        <ele>879.90397</ele>
        <time>2021-11-17T03:26:07.733Z</time>
      </trkpt>
      <trkpt lat="38.60858" lon="39.30274">
        <ele>879.990695</ele>
        <time>2021-11-17T03:26:11.729Z</time>
      </trkpt>
      <trkpt lat="38.60866" lon="39.30265">
        <ele>880.050177</ele>
        <time>2021-11-17T03:26:14.470Z</time>
      </trkpt>
      <trkpt lat="38.6092" lon="39.30208">
        <ele>880.425424</ele>
        <time>2021-11-17T03:26:31.229Z</time>
      </trkpt>
      <trkpt lat="38.60941" lon="39.30182">
        <ele>880.581807</ele>
        <time>2021-11-17T03:26:38.147Z</time>
      </trkpt>
      <trkpt lat="38.60946" lon="39.30176">
        <ele>880.616308</ele>
        <time>2021-11-17T03:26:39.728Z</time>
      </trkpt>
      <trkpt lat="38.60953" lon="39.30166">
        <ele>880.673805</ele>
        <time>2021-11-17T03:26:42.339Z</time>
      </trkpt>
      <trkpt lat="38.6096" lon="39.30157">
        <ele>880.718281</ele>
        <time>2021-11-17T03:26:44.763Z</time>
      </trkpt>
      <trkpt lat="38.61007" lon="39.30096">
        <ele>881.020659</ele>
        <time>2021-11-17T03:27:01.396Z</time>
      </trkpt>
      <trkpt lat="38.6103" lon="39.30065">
        <ele>881.17087</ele>
        <time>2021-11-17T03:27:09.418Z</time>
      </trkpt>
      <trkpt lat="38.61037" lon="39.30056">
        <ele>881.214527</ele>
        <time>2021-11-17T03:27:11.679Z</time>
      </trkpt>
      <trkpt lat="38.6105" lon="39.3004">
        <ele>881.294906</ele>
        <time>2021-11-17T03:27:15.838Z</time>
      </trkpt>
      <trkpt lat="38.61119" lon="39.29952">
        <ele>881.794242</ele>
        <time>2021-11-17T03:27:38.756Z</time>
      </trkpt>
      <trkpt lat="38.61206" lon="39.29841">
        <ele>882.466579</ele>
        <time>2021-11-17T03:28:09.123Z</time>
      </trkpt>
      <trkpt lat="38.61214" lon="39.29831">
        <ele>882.595501</ele>
        <time>2021-11-17T03:28:11.808Z</time>
      </trkpt>
      <trkpt lat="38.61286" lon="39.29734">
        <ele>883.855281</ele>
        <time>2021-11-17T03:28:39.359Z</time>
      </trkpt>
      <trkpt lat="38.6136" lon="39.29602">
        <ele>885.731937</ele>
        <time>2021-11-17T03:29:16.207Z</time>
      </trkpt>
      <trkpt lat="38.6149" lon="39.29325">
        <ele>889.947376</ele>
        <time>2021-11-17T03:30:30.512Z</time>
      </trkpt>
      <trkpt lat="38.61494" lon="39.29289">
        <ele>890.399843</ele>
        <time>2021-11-17T03:30:38.359Z</time>
      </trkpt>
      <trkpt lat="38.61504" lon="39.29228">
        <ele>891.009992</ele>
        <time>2021-11-17T03:30:51.977Z</time>
      </trkpt>
      <trkpt lat="38.6152" lon="39.29164">
        <ele>891.569014</ele>
        <time>2021-11-17T03:31:06.171Z</time>
      </trkpt>
      <trkpt lat="38.6153" lon="39.29137">
        <ele>891.821018</ele>
        <time>2021-11-17T03:31:12.529Z</time>
      </trkpt>
      <trkpt lat="38.6153" lon="39.29102">
        <ele>892.113942</ele>
        <time>2021-11-17T03:31:19.744Z</time>
      </trkpt>
      <trkpt lat="38.61539" lon="39.29039">
        <ele>892.651794</ele>
        <time>2021-11-17T03:31:33.387Z</time>
      </trkpt>
      <trkpt lat="38.61555" lon="39.28955">
        <ele>893.393484</ele>
        <time>2021-11-17T03:31:52.216Z</time>
      </trkpt>
      <trkpt lat="38.61562" lon="39.28883">
        <ele>894.014632</ele>
        <time>2021-11-17T03:32:08.019Z</time>
      </trkpt>
      <trkpt lat="38.61574" lon="39.28838">
        <ele>894.419178</ele>
        <time>2021-11-17T03:32:18.145Z</time>
      </trkpt>
      <trkpt lat="38.61578" lon="39.28747">
        <ele>895.073534</ele>
        <time>2021-11-17T03:32:37.363Z</time>
      </trkpt>
      <trkpt lat="38.61588" lon="39.28718">
        <ele>895.28523</ele>
        <time>2021-11-17T03:32:43.821Z</time>
      </trkpt>
      <trkpt lat="38.61585" lon="39.28642">
        <ele>895.810316</ele>
        <time>2021-11-17T03:32:59.726Z</time>
      </trkpt>
      <trkpt lat="38.61594" lon="39.28618">
        <ele>895.988234</ele>
        <time>2021-11-17T03:33:05.080Z</time>
      </trkpt>
      <trkpt lat="38.61603" lon="39.28423">
        <ele>897.31053</ele>
        <time>2021-11-17T03:33:45.735Z</time>
      </trkpt>
      <trkpt lat="38.61598" lon="39.2841">
        <ele>897.411188</ele>
        <time>2021-11-17T03:33:48.862Z</time>
      </trkpt>
      <trkpt lat="38.61598" lon="39.2834">
        <ele>897.888501</ele>
        <time>2021-11-17T03:34:03.397Z</time>
      </trkpt>
      <trkpt lat="38.61612" lon="39.28232">
        <ele>898.653917</ele>
        <time>2021-11-17T03:34:26.171Z</time>
      </trkpt>
      <trkpt lat="38.61619" lon="39.28214">
        <ele>898.799213</ele>
        <time>2021-11-17T03:34:30.479Z</time>
      </trkpt>
      <trkpt lat="38.61624" lon="39.28002">
        <ele>900.439681</ele>
        <time>2021-11-17T03:35:14.870Z</time>
      </trkpt>
      <trkpt lat="38.61633" lon="39.27909">
        <ele>901.208286</ele>
        <time>2021-11-17T03:35:35.315Z</time>
      </trkpt>
      <trkpt lat="38.61668" lon="39.27742">
        <ele>902.784686</ele>
        <time>2021-11-17T03:36:13.574Z</time>
      </trkpt>
      <trkpt lat="38.61674" lon="39.27682">
        <ele>903.310485</ele>
        <time>2021-11-17T03:36:26.376Z</time>
      </trkpt>
      <trkpt lat="38.61678" lon="39.27635">
        <ele>903.591845</ele>
        <time>2021-11-17T03:36:36.276Z</time>
      </trkpt>
      <trkpt lat="38.6168" lon="39.27577">
        <ele>903.931389</ele>
        <time>2021-11-17T03:36:48.071Z</time>
      </trkpt>
      <trkpt lat="38.61673" lon="39.27521">
        <ele>904.268555</ele>
        <time>2021-11-17T03:36:59.616Z</time>
      </trkpt>
      <trkpt lat="38.61659" lon="39.27456">
        <ele>904.673586</ele>
        <time>2021-11-17T03:37:12.737Z</time>
      </trkpt>
      <trkpt lat="38.61658" lon="39.27308">
        <ele>905.821604</ele>
        <time>2021-11-17T03:37:43.485Z</time>
      </trkpt>
      <trkpt lat="38.61669" lon="39.27146">
        <ele>907.335674</ele>
        <time>2021-11-17T03:38:19.761Z</time>
      </trkpt>
      <trkpt lat="38.61678" lon="39.27115">
        <ele>907.698465</ele>
        <time>2021-11-17T03:38:27.401Z</time>
      </trkpt>
      <trkpt lat="38.61679" lon="39.2711">
        <ele>907.754488</ele>
        <time>2021-11-17T03:38:28.660Z</time>
      </trkpt>
      <trkpt lat="38.61681" lon="39.271">
        <ele>907.860713</ele>
        <time>2021-11-17T03:38:30.972Z</time>
      </trkpt>
      <trkpt lat="38.61683" lon="39.27085">
        <ele>908.020364</ele>
        <time>2021-11-17T03:38:34.303Z</time>
      </trkpt>
      <trkpt lat="38.61681" lon="39.27065">
        <ele>908.238847</ele>
        <time>2021-11-17T03:38:39.034Z</time>
      </trkpt>
      <trkpt lat="38.61672" lon="39.27026">
        <ele>908.674114</ele>
        <time>2021-11-17T03:38:48.182Z</time>
      </trkpt>
      <trkpt lat="38.6166" lon="39.26964">
        <ele>909.218992</ele>
        <time>2021-11-17T03:39:02.527Z</time>
      </trkpt>
      <trkpt lat="38.61655" lon="39.26939">
        <ele>909.41207</ele>
        <time>2021-11-17T03:39:07.974Z</time>
      </trkpt>
      <trkpt lat="38.6167" lon="39.26894">
        <ele>909.785896</ele>
        <time>2021-11-17T03:39:18.481Z</time>
      </trkpt>
      <trkpt lat="38.61663" lon="39.26873">
        <ele>909.957203</ele>
        <time>2021-11-17T03:39:23.135Z</time>
      </trkpt>
      <trkpt lat="38.61642" lon="39.26801">
        <ele>910.540773</ele>
        <time>2021-11-17T03:39:38.870Z</time>
      </trkpt>
      <trkpt lat="38.61635" lon="39.26768">
        <ele>910.715899</ele>
        <time>2021-11-17T03:39:45.718Z</time>
      </trkpt>
      <trkpt lat="38.61611" lon="39.2665">
        <ele>911.228742</ele>
        <time>2021-11-17T03:40:10.073Z</time>
      </trkpt>
      <trkpt lat="38.6163" lon="39.26627">
        <ele>911.371689</ele>
        <time>2021-11-17T03:40:16.939Z</time>
      </trkpt>
      <trkpt lat="38.61682" lon="39.26577">
        <ele>911.563303</ele>
        <time>2021-11-17T03:40:32.859Z</time>
      </trkpt>
      <trkpt lat="38.6172" lon="39.2657">
        <ele>911.535375</ele>
        <time>2021-11-17T03:40:41.920Z</time>
      </trkpt>
      <trkpt lat="38.61688" lon="39.26544">
        <ele>911.50766</ele>
        <time>2021-11-17T03:40:50.434Z</time>
      </trkpt>
      <trkpt lat="38.6167" lon="39.26531">
        <ele>911.492411</ele>
        <time>2021-11-17T03:40:54.925Z</time>
      </trkpt>
      <trkpt lat="38.61665" lon="39.26519">
        <ele>911.484333</ele>
        <time>2021-11-17T03:40:57.279Z</time>
      </trkpt>
      <trkpt lat="38.61646" lon="39.26462">
        <ele>911.441491</ele>
        <time>2021-11-17T03:41:07.256Z</time>
      </trkpt>
      <trkpt lat="38.61611" lon="39.26351">
        <ele>911.013196</ele>
        <time>2021-11-17T03:41:26.056Z</time>
      </trkpt>
      <trkpt lat="38.6159" lon="39.26254">
        <ele>910.655137</ele>
        <time>2021-11-17T03:41:42.230Z</time>
      </trkpt>
      <trkpt lat="38.61571" lon="39.2614">
        <ele>910.93544</ele>
        <time>2021-11-17T03:42:02.653Z</time>
      </trkpt>
      <trkpt lat="38.61538" lon="39.25802">
        <ele>912.785616</ele>
        <time>2021-11-17T03:43:09.575Z</time>
      </trkpt>
      <trkpt lat="38.61529" lon="39.25586">
        <ele>916.026628</ele>
        <time>2021-11-17T03:43:59.768Z</time>
      </trkpt>
      <trkpt lat="38.61529" lon="39.2557">
        <ele>916.271304</ele>
        <time>2021-11-17T03:44:03.965Z</time>
      </trkpt>
      <trkpt lat="38.61522" lon="39.2557">
        <ele>916.422315</ele>
        <time>2021-11-17T03:44:06.199Z</time>
      </trkpt>
      <trkpt lat="38.61523" lon="39.2551">
        <ele>918.207374</ele>
        <time>2021-11-17T03:44:22.729Z</time>
      </trkpt>
      <trkpt lat="38.61517" lon="39.25411">
        <ele>921.118384</ele>
        <time>2021-11-17T03:44:51.397Z</time>
      </trkpt>
      <trkpt lat="38.6148" lon="39.25226">
        <ele>927.282645</ele>
        <time>2021-11-17T03:45:53.453Z</time>
      </trkpt>
      <trkpt lat="38.61462" lon="39.25169">
        <ele>929.363933</ele>
        <time>2021-11-17T03:46:12.453Z</time>
      </trkpt>
      <trkpt lat="38.61452" lon="39.25138">
        <ele>930.520317</ele>
        <time>2021-11-17T03:46:22.193Z</time>
      </trkpt>
      <trkpt lat="38.61445" lon="39.25117">
        <ele>931.120363</ele>
        <time>2021-11-17T03:46:28.641Z</time>
      </trkpt>
      <trkpt lat="38.61428" lon="39.25085">
        <ele>931.756495</ele>
        <time>2021-11-17T03:46:39.293Z</time>
      </trkpt>
      <trkpt lat="38.61386" lon="39.2504">
        <ele>932.909376</ele>
        <time>2021-11-17T03:46:57.112Z</time>
      </trkpt>
      <trkpt lat="38.61373" lon="39.25026">
        <ele>933.267441</ele>
        <time>2021-11-17T03:47:02.377Z</time>
      </trkpt>
      <trkpt lat="38.61355" lon="39.24995">
        <ele>933.912186</ele>
        <time>2021-11-17T03:47:10.652Z</time>
      </trkpt>
      <trkpt lat="38.61246" lon="39.24835">
        <ele>935.774738</ele>
        <time>2021-11-17T03:47:51.846Z</time>
      </trkpt>
      <trkpt lat="38.6116" lon="39.24712">
        <ele>937.059286</ele>
        <time>2021-11-17T03:48:25.402Z</time>
      </trkpt>
      <trkpt lat="38.61083" lon="39.24597">
        <ele>938.334716</ele>
        <time>2021-11-17T03:48:58.421Z</time>
      </trkpt>
      <trkpt lat="38.61034" lon="39.24525">
        <ele>938.755821</ele>
        <time>2021-11-17T03:49:17.485Z</time>
      </trkpt>
      <trkpt lat="38.61008" lon="39.24481">
        <ele>938.99693</ele>
        <time>2021-11-17T03:49:27.864Z</time>
      </trkpt>
      <trkpt lat="38.60992" lon="39.24472">
        <ele>939.096013</ele>
        <time>2021-11-17T03:49:32.098Z</time>
      </trkpt>
      <trkpt lat="38.6098" lon="39.24514">
        <ele>939.25716</ele>
        <time>2021-11-17T03:49:39.892Z</time>
      </trkpt>
      <trkpt lat="38.6097" lon="39.24517">
        <ele>939.12936</ele>
        <time>2021-11-17T03:49:42.053Z</time>
      </trkpt>
      <trkpt lat="38.60941" lon="39.24508">
        <ele>938.758425</ele>
        <time>2021-11-17T03:49:48.201Z</time>
      </trkpt>
      <trkpt lat="38.60924" lon="39.24492">
        <ele>938.504667</ele>
        <time>2021-11-17T03:49:52.149Z</time>
      </trkpt>
      <trkpt lat="38.6087" lon="39.24443">
        <ele>937.700083</ele>
        <time>2021-11-17T03:50:04.191Z</time>
      </trkpt>
      <trkpt lat="38.60793" lon="39.24383">
        <ele>936.333765</ele>
        <time>2021-11-17T03:50:20.412Z</time>
      </trkpt>
      <trkpt lat="38.6063" lon="39.24243">
        <ele>932.963317</ele>
        <time>2021-11-17T03:50:54.987Z</time>
      </trkpt>
      <trkpt lat="38.60609" lon="39.24222">
        <ele>932.606381</ele>
        <time>2021-11-17T03:50:59.986Z</time>
      </trkpt>
      <trkpt lat="38.60592" lon="39.24198">
        <ele>932.273892</ele>
        <time>2021-11-17T03:51:04.746Z</time>
      </trkpt>
      <trkpt lat="38.60565" lon="39.24142">
        <ele>931.592578</ele>
        <time>2021-11-17T03:51:14.713Z</time>
      </trkpt>
      <trkpt lat="38.60549" lon="39.24097">
        <ele>931.283612</ele>
        <time>2021-11-17T03:51:22.272Z</time>
      </trkpt>
      <trkpt lat="38.60524" lon="39.23995">
        <ele>931.064779</ele>
        <time>2021-11-17T03:51:39.924Z</time>
      </trkpt>
      <trkpt lat="38.60512" lon="39.23902">
        <ele>930.872357</ele>
        <time>2021-11-17T03:51:56.374Z</time>
      </trkpt>
      <trkpt lat="38.60501" lon="39.23865">
        <ele>930.915701</ele>
        <time>2021-11-17T03:52:03.558Z</time>
      </trkpt>
      <trkpt lat="38.60496" lon="39.23855">
        <ele>930.93547</ele>
        <time>2021-11-17T03:52:05.670Z</time>
      </trkpt>
      <trkpt lat="38.60441" lon="39.23743">
        <ele>931.150067</ele>
        <time>2021-11-17T03:52:29.403Z</time>
      </trkpt>
      <trkpt lat="38.60427" lon="39.23719">
        <ele>931.199162</ele>
        <time>2021-11-17T03:52:34.827Z</time>
      </trkpt>
      <trkpt lat="38.6042" lon="39.23707">
        <ele>931.221919</ele>
        <time>2021-11-17T03:52:37.363Z</time>
      </trkpt>
      <trkpt lat="38.604" lon="39.23682">
        <ele>931.407344</ele>
        <time>2021-11-17T03:52:43.914Z</time>
      </trkpt>
      <trkpt lat="38.60311" lon="39.23634">
        <ele>932.152075</ele>
        <time>2021-11-17T03:53:08.389Z</time>
      </trkpt>
      <trkpt lat="38.60254" lon="39.23606">
        <ele>932.61839</ele>
        <time>2021-11-17T03:53:24.371Z</time>
      </trkpt>
      <trkpt lat="38.60215" lon="39.23575">
        <ele>933.212204</ele>
        <time>2021-11-17T03:53:36.782Z</time>
      </trkpt>
      <trkpt lat="38.60198" lon="39.23565">
        <ele>933.454982</ele>
        <time>2021-11-17T03:53:42.116Z</time>
      </trkpt>
      <trkpt lat="38.60165" lon="39.23546">
        <ele>933.915694</ele>
        <time>2021-11-17T03:53:52.047Z</time>
      </trkpt>
      <trkpt lat="38.60099" lon="39.23498">
        <ele>934.893084</ele>
        <time>2021-11-17T03:54:13.460Z</time>
      </trkpt>
      <trkpt lat="38.59986" lon="39.23387">
        <ele>936.239979</ele>
        <time>2021-11-17T03:54:50.501Z</time>
      </trkpt>
      <trkpt lat="38.59959" lon="39.23349">
        <ele>936.613316</ele>
        <time>2021-11-17T03:55:00.525Z</time>
      </trkpt>
      <trkpt lat="38.59928" lon="39.23293">
        <ele>936.840612</ele>
        <time>2021-11-17T03:55:13.991Z</time>
      </trkpt>
      <trkpt lat="38.5992" lon="39.23278">
        <ele>936.899972</ele>
        <time>2021-11-17T03:55:17.498Z</time>
      </trkpt>
      <trkpt lat="38.59905" lon="39.2325">
        <ele>937.010233</ele>
        <time>2021-11-17T03:55:23.899Z</time>
      </trkpt>
      <trkpt lat="38.59875" lon="39.23193">
        <ele>937.232031</ele>
        <time>2021-11-17T03:55:36.494Z</time>
      </trkpt>
      <trkpt lat="38.59858" lon="39.23162">
        <ele>937.356488</ele>
        <time>2021-11-17T03:55:43.327Z</time>
      </trkpt>
      <trkpt lat="38.59827" lon="39.23108">
        <ele>937.364378</ele>
        <time>2021-11-17T03:55:54.919Z</time>
      </trkpt>
      <trkpt lat="38.59805" lon="39.23069">
        <ele>937.364044</ele>
        <time>2021-11-17T03:56:03.150Z</time>
      </trkpt>
      <trkpt lat="38.59777" lon="39.2302">
        <ele>937.36363</ele>
        <time>2021-11-17T03:56:13.281Z</time>
      </trkpt>
      <trkpt lat="38.59752" lon="39.22965">
        <ele>937.431207</ele>
        <time>2021-11-17T03:56:24.048Z</time>
      </trkpt>
      <trkpt lat="38.59732" lon="39.2292">
        <ele>937.942084</ele>
        <time>2021-11-17T03:56:33.089Z</time>
      </trkpt>
      <trkpt lat="38.59695" lon="39.22788">
        <ele>939.352517</ele>
        <time>2021-11-17T03:57:03.764Z</time>
      </trkpt>
      <trkpt lat="38.59693" lon="39.22774">
        <ele>939.502081</ele>
        <time>2021-11-17T03:57:07.813Z</time>
      </trkpt>
      <trkpt lat="38.59692" lon="39.22762">
        <ele>939.620467</ele>
        <time>2021-11-17T03:57:10.495Z</time>
      </trkpt>
      <trkpt lat="38.59691" lon="39.22749">
        <ele>939.850711</ele>
        <time>2021-11-17T03:57:13.455Z</time>
      </trkpt>
      <trkpt lat="38.59689" lon="39.22732">
        <ele>940.258367</ele>
        <time>2021-11-17T03:57:18.518Z</time>
      </trkpt>
      <trkpt lat="38.59685" lon="39.22665">
        <ele>941.870288</ele>
        <time>2021-11-17T03:57:36.182Z</time>
      </trkpt>
      <trkpt lat="38.59679" lon="39.22608">
        <ele>943.263297</ele>
        <time>2021-11-17T03:57:52.606Z</time>
      </trkpt>
      <trkpt lat="38.59666" lon="39.22505">
        <ele>945.670015</ele>
        <time>2021-11-17T03:58:21.908Z</time>
      </trkpt>
      <trkpt lat="38.5965" lon="39.224">
        <ele>947.909662</ele>
        <time>2021-11-17T03:58:50.091Z</time>
      </trkpt>
      <trkpt lat="38.59646" lon="39.22371">
        <ele>948.517398</ele>
        <time>2021-11-17T03:58:57.187Z</time>
      </trkpt>
      <trkpt lat="38.59643" lon="39.2236">
        <ele>948.762016</ele>
        <time>2021-11-17T03:59:00.051Z</time>
      </trkpt>
      <trkpt lat="38.59632" lon="39.22319">
        <ele>949.677926</ele>
        <time>2021-11-17T03:59:10.671Z</time>
      </trkpt>
      <trkpt lat="38.59591" lon="39.2217">
        <ele>952.328908</ele>
        <time>2021-11-17T03:59:48.161Z</time>
      </trkpt>
      <trkpt lat="38.59573" lon="39.22104">
        <ele>953.483484</ele>
        <time>2021-11-17T04:00:04.997Z</time>
      </trkpt>
      <trkpt lat="38.5955" lon="39.22017">
        <ele>954.819192</ele>
        <time>2021-11-17T04:00:26.908Z</time>
      </trkpt>
      <trkpt lat="38.5953" lon="39.21949">
        <ele>955.846426</ele>
        <time>2021-11-17T04:00:43.929Z</time>
      </trkpt>
      <trkpt lat="38.59507" lon="39.21871">
        <ele>957.031579</ele>
        <time>2021-11-17T04:01:02.829Z</time>
      </trkpt>
      <trkpt lat="38.59459" lon="39.21655">
        <ele>959.305479</ele>
        <time>2021-11-17T04:01:50.471Z</time>
      </trkpt>
      <trkpt lat="38.59446" lon="39.21605">
        <ele>959.917154</ele>
        <time>2021-11-17T04:02:01.570Z</time>
      </trkpt>
      <trkpt lat="38.59427" lon="39.21529">
        <ele>960.856871</ele>
        <time>2021-11-17T04:02:18.905Z</time>
      </trkpt>
      <trkpt lat="38.59376" lon="39.21313">
        <ele>963.738208</ele>
        <time>2021-11-17T04:03:10.433Z</time>
      </trkpt>
      <trkpt lat="38.59355" lon="39.21256">
        <ele>964.596429</ele>
        <time>2021-11-17T04:03:25.007Z</time>
      </trkpt>
      <trkpt lat="38.59286" lon="39.21121">
        <ele>966.775256</ele>
        <time>2021-11-17T04:04:01.713Z</time>
      </trkpt>
      <trkpt lat="38.59208" lon="39.20845">
        <ele>970.314682</ele>
        <time>2021-11-17T04:05:08.357Z</time>
      </trkpt>
      <trkpt lat="38.59167" lon="39.20735">
        <ele>970.489672</ele>
        <time>2021-11-17T04:05:32.394Z</time>
      </trkpt>
      <trkpt lat="38.59144" lon="39.20658">
        <ele>970.064603</ele>
        <time>2021-11-17T04:05:45.009Z</time>
      </trkpt>
      <trkpt lat="38.59133" lon="39.20633">
        <ele>969.917155</ele>
        <time>2021-11-17T04:05:49.139Z</time>
      </trkpt>
      <trkpt lat="38.59093" lon="39.20566">
        <ele>969.012447</ele>
        <time>2021-11-17T04:06:00.655Z</time>
      </trkpt>
      <trkpt lat="38.59053" lon="39.20507">
        <ele>967.640698</ele>
        <time>2021-11-17T04:06:11.005Z</time>
      </trkpt>
      <trkpt lat="38.59025" lon="39.20483">
        <ele>966.891335</ele>
        <time>2021-11-17T04:06:16.568Z</time>
      </trkpt>
      <trkpt lat="38.5899" lon="39.20439">
        <ele>965.786204</ele>
        <time>2021-11-17T04:06:24.871Z</time>
      </trkpt>
      <trkpt lat="38.58869" lon="39.20368">
        <ele>964.693504</ele>
        <time>2021-11-17T04:06:50.568Z</time>
      </trkpt>
      <trkpt lat="38.58787" lon="39.20295">
        <ele>964.779665</ele>
        <time>2021-11-17T04:07:14.413Z</time>
      </trkpt>
      <trkpt lat="38.58767" lon="39.20286">
        <ele>964.987223</ele>
        <time>2021-11-17T04:07:19.581Z</time>
      </trkpt>
      <trkpt lat="38.58718" lon="39.20284">
        <ele>965.488203</ele>
        <time>2021-11-17T04:07:32.565Z</time>
      </trkpt>
      <trkpt lat="38.58622" lon="39.20234">
        <ele>966.671915</ele>
        <time>2021-11-17T04:08:02.352Z</time>
      </trkpt>
      <trkpt lat="38.58594" lon="39.20229">
        <ele>967.05274</ele>
        <time>2021-11-17T04:08:10.384Z</time>
      </trkpt>
      <trkpt lat="38.58584" lon="39.20223">
        <ele>967.198536</ele>
        <time>2021-11-17T04:08:13.562Z</time>
      </trkpt>
      <trkpt lat="38.58574" lon="39.20216">
        <ele>967.351651</ele>
        <time>2021-11-17T04:08:16.797Z</time>
      </trkpt>
      <trkpt lat="38.58561" lon="39.20196">
        <ele>967.621756</ele>
        <time>2021-11-17T04:08:21.943Z</time>
      </trkpt>
      <trkpt lat="38.58544" lon="39.20161">
        <ele>968.048613</ele>
        <time>2021-11-17T04:08:30.376Z</time>
      </trkpt>
      <trkpt lat="38.58534" lon="39.20136">
        <ele>968.340579</ele>
        <time>2021-11-17T04:08:36.374Z</time>
      </trkpt>
      <trkpt lat="38.58523" lon="39.20113">
        <ele>968.690258</ele>
        <time>2021-11-17T04:08:41.922Z</time>
      </trkpt>
      <trkpt lat="38.5851" lon="39.20102">
        <ele>969.059634</ele>
        <time>2021-11-17T04:08:46.200Z</time>
      </trkpt>
      <trkpt lat="38.58477" lon="39.20111">
        <ele>969.873426</ele>
        <time>2021-11-17T04:08:56.208Z</time>
      </trkpt>
      <trkpt lat="38.58473" lon="39.20112">
        <ele>969.968594</ele>
        <time>2021-11-17T04:08:57.150Z</time>
      </trkpt>
      <trkpt lat="38.58469" lon="39.20111">
        <ele>970.054601</ele>
        <time>2021-11-17T04:08:58.222Z</time>
      </trkpt>
      <trkpt lat="38.58463" lon="39.20108">
        <ele>970.222831</ele>
        <time>2021-11-17T04:09:00.373Z</time>
      </trkpt>
      <trkpt lat="38.5846" lon="39.20103">
        <ele>970.331434</ele>
        <time>2021-11-17T04:09:01.733Z</time>
      </trkpt>
      <trkpt lat="38.58459" lon="39.20102">
        <ele>970.366697</ele>
        <time>2021-11-17T04:09:02.219Z</time>
      </trkpt>
      <trkpt lat="38.58451" lon="39.20088">
        <ele>970.681367</ele>
        <time>2021-11-17T04:09:06.213Z</time>
      </trkpt>
      <trkpt lat="38.58446" lon="39.20076">
        <ele>970.942127</ele>
        <time>2021-11-17T04:09:09.448Z</time>
      </trkpt>
      <trkpt lat="38.58444" lon="39.20071">
        <ele>971.041559</ele>
        <time>2021-11-17T04:09:10.839Z</time>
      </trkpt>
      <trkpt lat="38.58436" lon="39.20063">
        <ele>971.274434</ele>
        <time>2021-11-17T04:09:13.958Z</time>
      </trkpt>
      <trkpt lat="38.5839" lon="39.20065">
        <ele>972.367445</ele>
        <time>2021-11-17T04:09:29.253Z</time>
      </trkpt>
      <trkpt lat="38.5838" lon="39.20056">
        <ele>972.649601</ele>
        <time>2021-11-17T04:09:33.290Z</time>
      </trkpt>
      <trkpt lat="38.58376" lon="39.20041">
        <ele>973.174487</ele>
        <time>2021-11-17T04:09:37.994Z</time>
      </trkpt>
      <trkpt lat="38.5838" lon="39.1994">
        <ele>977.754524</ele>
        <time>2021-11-17T04:10:11.561Z</time>
      </trkpt>
      <trkpt lat="38.58371" lon="39.1979">
        <ele>984.732811</ele>
        <time>2021-11-17T04:11:10.718Z</time>
      </trkpt>
      <trkpt lat="38.58342" lon="39.1969">
        <ele>990.164554</ele>
        <time>2021-11-17T04:11:53.790Z</time>
      </trkpt>
      <trkpt lat="38.58309" lon="39.19599">
        <ele>994.972814</ele>
        <time>2021-11-17T04:12:30.301Z</time>
      </trkpt>
      <trkpt lat="38.58299" lon="39.19549">
        <ele>995.6349</ele>
        <time>2021-11-17T04:12:45.837Z</time>
      </trkpt>
      <trkpt lat="38.58297" lon="39.19529">
        <ele>995.890811</ele>
        <time>2021-11-17T04:12:51.989Z</time>
      </trkpt>
      <trkpt lat="38.58291" lon="39.19467">
        <ele>996.698617</ele>
        <time>2021-11-17T04:13:06.810Z</time>
      </trkpt>
      <trkpt lat="38.58194" lon="39.19075">
        <ele>994.22356</ele>
        <time>2021-11-17T04:14:05.761Z</time>
      </trkpt>
      <trkpt lat="38.58172" lon="39.19014">
        <ele>993.52996</ele>
        <time>2021-11-17T04:14:15.288Z</time>
      </trkpt>
      <trkpt lat="38.58061" lon="39.1875">
        <ele>991.139523</ele>
        <time>2021-11-17T04:15:00.752Z</time>
      </trkpt>
      <trkpt lat="38.57937" lon="39.18476">
        <ele>989.658971</ele>
        <time>2021-11-17T04:15:50.013Z</time>
      </trkpt>
      <trkpt lat="38.57868" lon="39.1835">
        <ele>989.610322</ele>
        <time>2021-11-17T04:16:17.619Z</time>
      </trkpt>
      <trkpt lat="38.57848" lon="39.18262">
        <ele>990.277314</ele>
        <time>2021-11-17T04:16:36.233Z</time>
      </trkpt>
      <trkpt lat="38.5784" lon="39.18209">
        <ele>990.661628</ele>
        <time>2021-11-17T04:16:47.356Z</time>
      </trkpt>
      <trkpt lat="38.5777" lon="39.18034">
        <ele>991.867936</ele>
        <time>2021-11-17T04:17:27.982Z</time>
      </trkpt>
      <trkpt lat="38.57729" lon="39.17965">
        <ele>992.339716</ele>
        <time>2021-11-17T04:17:44.554Z</time>
      </trkpt>
      <trkpt lat="38.57626" lon="39.17856">
        <ele>992.475729</ele>
        <time>2021-11-17T04:18:14.386Z</time>
      </trkpt>
      <trkpt lat="38.575" lon="39.17705">
        <ele>992.436363</ele>
        <time>2021-11-17T04:18:51.623Z</time>
      </trkpt>
      <trkpt lat="38.57458" lon="39.17632">
        <ele>992.406391</ele>
        <time>2021-11-17T04:19:07.600Z</time>
      </trkpt>
      <trkpt lat="38.57421" lon="39.17584">
        <ele>992.532102</ele>
        <time>2021-11-17T04:19:20.088Z</time>
      </trkpt>
      <trkpt lat="38.57363" lon="39.17493">
        <ele>992.752307</ele>
        <time>2021-11-17T04:19:43.804Z</time>
      </trkpt>
      <trkpt lat="38.57336" lon="39.17452">
        <ele>992.671342</ele>
        <time>2021-11-17T04:19:52.835Z</time>
      </trkpt>
      <trkpt lat="38.57326" lon="39.17441">
        <ele>992.377497</ele>
        <time>2021-11-17T04:19:55.016Z</time>
      </trkpt>
      <trkpt lat="38.57322" lon="39.17436">
        <ele>992.250602</ele>
        <time>2021-11-17T04:19:56.238Z</time>
      </trkpt>
      <trkpt lat="38.57277" lon="39.17402">
        <ele>991.035036</ele>
        <time>2021-11-17T04:20:05.699Z</time>
      </trkpt>
      <trkpt lat="38.57268" lon="39.17421">
        <ele>990.618035</ele>
        <time>2021-11-17T04:20:10.996Z</time>
      </trkpt>
      <trkpt lat="38.57251" lon="39.17438">
        <ele>990.114742</ele>
        <time>2021-11-17T04:20:17.623Z</time>
      </trkpt>
      <trkpt lat="38.57243" lon="39.17444">
        <ele>989.893027</ele>
        <time>2021-11-17T04:20:20.350Z</time>
      </trkpt>
      <trkpt lat="38.57215" lon="39.17463">
        <ele>989.176869</ele>
        <time>2021-11-17T04:20:29.538Z</time>
      </trkpt>
      <trkpt lat="38.57195" lon="39.17479">
        <ele>988.614324</ele>
        <time>2021-11-17T04:20:36.829Z</time>
      </trkpt>
      <trkpt lat="38.57174" lon="39.17495">
        <ele>988.016308</ele>
        <time>2021-11-17T04:20:43.553Z</time>
      </trkpt>
      <trkpt lat="38.57168" lon="39.17506">
        <ele>987.74864</ele>
        <time>2021-11-17T04:20:46.786Z</time>
      </trkpt>
      <trkpt lat="38.57159" lon="39.1751">
        <ele>987.51394</ele>
        <time>2021-11-17T04:20:48.208Z</time>
      </trkpt>
      <trkpt lat="38.57142" lon="39.17505">
        <ele>987.073848</ele>
        <time>2021-11-17T04:20:50.954Z</time>
      </trkpt>
      <trkpt lat="38.57125" lon="39.17501">
        <ele>986.653295</ele>
        <time>2021-11-17T04:20:53.627Z</time>
      </trkpt>
      <trkpt lat="38.57117" lon="39.17486">
        <ele>986.300968</ele>
        <time>2021-11-17T04:20:55.897Z</time>
      </trkpt>
      <trkpt lat="38.57112" lon="39.17466">
        <ele>985.902454</ele>
        <time>2021-11-17T04:20:58.537Z</time>
      </trkpt>
      <trkpt lat="38.57102" lon="39.1746">
        <ele>985.629195</ele>
        <time>2021-11-17T04:21:00.266Z</time>
      </trkpt>
      <trkpt lat="38.57089" lon="39.17451">
        <ele>985.25145</ele>
        <time>2021-11-17T04:21:03.012Z</time>
      </trkpt>
      <trkpt lat="38.57068" lon="39.17408">
        <ele>984.27215</ele>
        <time>2021-11-17T04:21:10.896Z</time>
      </trkpt>
      <trkpt lat="38.57068" lon="39.17383">
        <ele>984.788653</ele>
        <time>2021-11-17T04:21:15.623Z</time>
      </trkpt>
      <trkpt lat="38.5705" lon="39.17337">
        <ele>986.198087</ele>
        <time>2021-11-17T04:21:27.491Z</time>
      </trkpt>
      <trkpt lat="38.57049" lon="39.17311">
        <ele>986.89893</ele>
        <time>2021-11-17T04:21:34.786Z</time>
      </trkpt>
      <trkpt lat="38.57044" lon="39.17298">
        <ele>987.297063</ele>
        <time>2021-11-17T04:21:38.505Z</time>
      </trkpt>
      <trkpt lat="38.57039" lon="39.17291">
        <ele>987.539358</ele>
        <time>2021-11-17T04:21:40.966Z</time>
      </trkpt>
      <trkpt lat="38.57031" lon="39.17281">
        <ele>987.927506</ele>
        <time>2021-11-17T04:21:45.087Z</time>
      </trkpt>
      <trkpt lat="38.57025" lon="39.17273">
        <ele>988.238587</ele>
        <time>2021-11-17T04:21:49.482Z</time>
      </trkpt>
      <trkpt lat="38.56991" lon="39.17173">
        <ele>992.022531</ele>
        <time>2021-11-17T04:22:27.059Z</time>
      </trkpt>
      <trkpt lat="38.56925" lon="39.16839">
        <ele>1012.474447</ele>
        <time>2021-11-17T04:24:52.119Z</time>
      </trkpt>
      <trkpt lat="38.56899" lon="39.16752">
        <ele>1018.134196</ele>
        <time>2021-11-17T04:25:31.178Z</time>
      </trkpt>
      <trkpt lat="38.56865" lon="39.16669">
        <ele>1023.129332</ele>
        <time>2021-11-17T04:26:09.082Z</time>
      </trkpt>
      <trkpt lat="38.56828" lon="39.1662">
        <ele>1026.725062</ele>
        <time>2021-11-17T04:26:34.415Z</time>
      </trkpt>
      <trkpt lat="38.56821" lon="39.16612">
        <ele>1027.381938</ele>
        <time>2021-11-17T04:26:39.685Z</time>
      </trkpt>
      <trkpt lat="38.56748" lon="39.16499">
        <ele>1034.084095</ele>
        <time>2021-11-17T04:27:32.499Z</time>
      </trkpt>
      <trkpt lat="38.56727" lon="39.16474">
        <ele>1035.613692</ele>
        <time>2021-11-17T04:27:45.333Z</time>
      </trkpt>
      <trkpt lat="38.56696" lon="39.16454">
        <ele>1037.487489</ele>
        <time>2021-11-17T04:27:59.491Z</time>
      </trkpt>
      <trkpt lat="38.56649" lon="39.16322">
        <ele>1042.898813</ele>
        <time>2021-11-17T04:28:45.088Z</time>
      </trkpt>
      <trkpt lat="38.5661" lon="39.16241">
        <ele>1046.195379</ele>
        <time>2021-11-17T04:29:14.825Z</time>
      </trkpt>
      <trkpt lat="38.56568" lon="39.16076">
        <ele>1052.269287</ele>
        <time>2021-11-17T04:30:09.093Z</time>
      </trkpt>
      <trkpt lat="38.56515" lon="39.15938">
        <ele>1057.623288</ele>
        <time>2021-11-17T04:30:57.664Z</time>
      </trkpt>
      <trkpt lat="38.56497" lon="39.15902">
        <ele>1059.108292</ele>
        <time>2021-11-17T04:31:11.242Z</time>
      </trkpt>
      <trkpt lat="38.56405" lon="39.15793">
        <ele>1064.524064</ele>
        <time>2021-11-17T04:32:01.011Z</time>
      </trkpt>
      <trkpt lat="38.5638" lon="39.15755">
        <ele>1066.008956</ele>
        <time>2021-11-17T04:32:16.173Z</time>
      </trkpt>
      <trkpt lat="38.56253" lon="39.15478">
        <ele>1074.810343</ele>
        <time>2021-11-17T04:33:47.522Z</time>
      </trkpt>
      <trkpt lat="38.56158" lon="39.15144">
        <ele>1082.422834</ele>
        <time>2021-11-17T04:35:17.555Z</time>
      </trkpt>
      <trkpt lat="38.56125" lon="39.15059">
        <ele>1084.482617</ele>
        <time>2021-11-17T04:35:41.892Z</time>
      </trkpt>
      <trkpt lat="38.56108" lon="39.14942">
        <ele>1087.367959</ele>
        <time>2021-11-17T04:36:14.123Z</time>
      </trkpt>
      <trkpt lat="38.56066" lon="39.14794">
        <ele>1091.779274</ele>
        <time>2021-11-17T04:36:59.437Z</time>
      </trkpt>
      <trkpt lat="38.5599" lon="39.14618">
        <ele>1098.17316</ele>
        <time>2021-11-17T04:38:00.400Z</time>
      </trkpt>
      <trkpt lat="38.56023" lon="39.14425">
        <ele>1104.624203</ele>
        <time>2021-11-17T04:39:01.104Z</time>
      </trkpt>
      <trkpt lat="38.56049" lon="39.14331">
        <ele>1107.909186</ele>
        <time>2021-11-17T04:39:31.686Z</time>
      </trkpt>
      <trkpt lat="38.56059" lon="39.14275">
        <ele>1109.616599</ele>
        <time>2021-11-17T04:39:48.458Z</time>
      </trkpt>
      <trkpt lat="38.56058" lon="39.14237">
        <ele>1110.792044</ele>
        <time>2021-11-17T04:39:59.871Z</time>
      </trkpt>
      <trkpt lat="38.56049" lon="39.14176">
        <ele>1112.643571</ele>
        <time>2021-11-17T04:40:17.724Z</time>
      </trkpt>
      <trkpt lat="38.56021" lon="39.14062">
        <ele>1116.282519</ele>
        <time>2021-11-17T04:40:52.559Z</time>
      </trkpt>
      <trkpt lat="38.56004" lon="39.1397">
        <ele>1119.15165</ele>
        <time>2021-11-17T04:41:20.335Z</time>
      </trkpt>
      <trkpt lat="38.5599" lon="39.13845">
        <ele>1122.957342</ele>
        <time>2021-11-17T04:41:58.728Z</time>
      </trkpt>
      <trkpt lat="38.55982" lon="39.1382">
        <ele>1123.730743</ele>
        <time>2021-11-17T04:42:06.880Z</time>
      </trkpt>
      <trkpt lat="38.55961" lon="39.13781">
        <ele>1125.138543</ele>
        <time>2021-11-17T04:42:21.489Z</time>
      </trkpt>
      <trkpt lat="38.55873" lon="39.13657">
        <ele>1129.356777</ele>
        <time>2021-11-17T04:43:07.865Z</time>
      </trkpt>
      <trkpt lat="38.55849" lon="39.13643">
        <ele>1129.968193</ele>
        <time>2021-11-17T04:43:16.128Z</time>
      </trkpt>
      <trkpt lat="38.558" lon="39.13631">
        <ele>1131.139977</ele>
        <time>2021-11-17T04:43:31.372Z</time>
      </trkpt>
      <trkpt lat="38.55769" lon="39.13606">
        <ele>1132.006478</ele>
        <time>2021-11-17T04:43:42.246Z</time>
      </trkpt>
      <trkpt lat="38.55752" lon="39.13579">
        <ele>1132.597709</ele>
        <time>2021-11-17T04:43:50.133Z</time>
      </trkpt>
      <trkpt lat="38.55748" lon="39.13555">
        <ele>1132.933511</ele>
        <time>2021-11-17T04:43:55.507Z</time>
      </trkpt>
      <trkpt lat="38.55753" lon="39.13536">
        <ele>1133.219434</ele>
        <time>2021-11-17T04:44:00.101Z</time>
      </trkpt>
      <trkpt lat="38.55799" lon="39.13481">
        <ele>1134.331869</ele>
        <time>2021-11-17T04:44:18.286Z</time>
      </trkpt>
      <trkpt lat="38.55815" lon="39.13449">
        <ele>1134.84881</ele>
        <time>2021-11-17T04:44:27.045Z</time>
      </trkpt>
      <trkpt lat="38.55818" lon="39.13421">
        <ele>1135.240985</ele>
        <time>2021-11-17T04:44:33.782Z</time>
      </trkpt>
      <trkpt lat="38.55809" lon="39.1327">
        <ele>1136.363647</ele>
        <time>2021-11-17T04:45:09.189Z</time>
      </trkpt>
      <trkpt lat="38.55794" lon="39.13202">
        <ele>1136.778456</ele>
        <time>2021-11-17T04:45:21.196Z</time>
      </trkpt>
      <trkpt lat="38.55779" lon="39.13157">
        <ele>1136.828641</ele>
        <time>2021-11-17T04:45:28.765Z</time>
      </trkpt>
      <trkpt lat="38.55774" lon="39.13123">
        <ele>1136.404948</ele>
        <time>2021-11-17T04:45:33.864Z</time>
      </trkpt>
      <trkpt lat="38.55774" lon="39.13112">
        <ele>1136.271214</ele>
        <time>2021-11-17T04:45:35.378Z</time>
      </trkpt>
      <trkpt lat="38.55776" lon="39.1307">
        <ele>1135.749741</ele>
        <time>2021-11-17T04:45:41.368Z</time>
      </trkpt>
      <trkpt lat="38.55776" lon="39.12984">
        <ele>1134.700591</ele>
        <time>2021-11-17T04:45:53.146Z</time>
      </trkpt>
      <trkpt lat="38.55766" lon="39.12924">
        <ele>1134.065795</ele>
        <time>2021-11-17T04:46:01.366Z</time>
      </trkpt>
      <trkpt lat="38.55758" lon="39.12697">
        <ele>1132.925287</ele>
        <time>2021-11-17T04:46:37.563Z</time>
      </trkpt>
      <trkpt lat="38.55766" lon="39.12676">
        <ele>1133.04323</ele>
        <time>2021-11-17T04:46:42.074Z</time>
      </trkpt>
      <trkpt lat="38.55782" lon="39.12665">
        <ele>1133.154733</ele>
        <time>2021-11-17T04:46:46.342Z</time>
      </trkpt>
      <trkpt lat="38.55824" lon="39.12658">
        <ele>1133.426124</ele>
        <time>2021-11-17T04:46:56.769Z</time>
      </trkpt>
      <trkpt lat="38.55858" lon="39.12641">
        <ele>1133.656169</ele>
        <time>2021-11-17T04:47:05.470Z</time>
      </trkpt>
      <trkpt lat="38.55892" lon="39.12615">
        <ele>1133.904924</ele>
        <time>2021-11-17T04:47:16.086Z</time>
      </trkpt>
      <trkpt lat="38.55917" lon="39.12588">
        <ele>1134.469116</ele>
        <time>2021-11-17T04:47:25.528Z</time>
      </trkpt>
      <trkpt lat="38.55929" lon="39.12575">
        <ele>1134.850256</ele>
        <time>2021-11-17T04:47:30.081Z</time>
      </trkpt>
      <trkpt lat="38.55945" lon="39.12561">
        <ele>1135.331744</ele>
        <time>2021-11-17T04:47:35.856Z</time>
      </trkpt>
      <trkpt lat="38.55966" lon="39.12559">
        <ele>1135.875104</ele>
        <time>2021-11-17T04:47:42.669Z</time>
      </trkpt>
      <trkpt lat="38.55979" lon="39.12559">
        <ele>1136.189104</ele>
        <time>2021-11-17T04:47:46.523Z</time>
      </trkpt>
      <trkpt lat="38.55956" lon="39.1252">
        <ele>1137.133062</ele>
        <time>2021-11-17T04:47:59.269Z</time>
      </trkpt>
      <trkpt lat="38.55934" lon="39.12352">
        <ele>1141.757904</ele>
        <time>2021-11-17T04:48:49.483Z</time>
      </trkpt>
      <trkpt lat="38.5591" lon="39.12266">
        <ele>1144.691185</ele>
        <time>2021-11-17T04:49:18.699Z</time>
      </trkpt>
      <trkpt lat="38.55915" lon="39.12197">
        <ele>1147.075649</ele>
        <time>2021-11-17T04:49:41.250Z</time>
      </trkpt>
      <trkpt lat="38.55911" lon="39.12178">
        <ele>1147.817334</ele>
        <time>2021-11-17T04:49:47.792Z</time>
      </trkpt>
      <trkpt lat="38.55904" lon="39.12157">
        <ele>1148.651412</ele>
        <time>2021-11-17T04:49:55.235Z</time>
      </trkpt>
      <trkpt lat="38.55862" lon="39.12108">
        <ele>1151.394017</ele>
        <time>2021-11-17T04:50:19.755Z</time>
      </trkpt>
      <trkpt lat="38.55845" lon="39.12075">
        <ele>1152.85211</ele>
        <time>2021-11-17T04:50:32.829Z</time>
      </trkpt>
      <trkpt lat="38.55848" lon="39.12034">
        <ele>1154.397408</ele>
        <time>2021-11-17T04:50:46.602Z</time>
      </trkpt>
      <trkpt lat="38.55839" lon="39.11762">
        <ele>1163.890969</ele>
        <time>2021-11-17T04:52:14.120Z</time>
      </trkpt>
      <trkpt lat="38.55834" lon="39.11727">
        <ele>1165.049207</ele>
        <time>2021-11-17T04:52:25.025Z</time>
      </trkpt>
      <trkpt lat="38.55813" lon="39.11673">
        <ele>1167.029663</ele>
        <time>2021-11-17T04:52:43.611Z</time>
      </trkpt>
      <trkpt lat="38.55789" lon="39.11543">
        <ele>1171.485883</ele>
        <time>2021-11-17T04:53:24.968Z</time>
      </trkpt>
      <trkpt lat="38.55788" lon="39.1151">
        <ele>1172.618257</ele>
        <time>2021-11-17T04:53:35.455Z</time>
      </trkpt>
      <trkpt lat="38.55801" lon="39.11463">
        <ele>1174.33336</ele>
        <time>2021-11-17T04:53:51.484Z</time>
      </trkpt>
      <trkpt lat="38.55792" lon="39.11433">
        <ele>1175.412096</ele>
        <time>2021-11-17T04:54:01.678Z</time>
      </trkpt>
      <trkpt lat="38.55791" lon="39.11411">
        <ele>1176.160266</ele>
        <time>2021-11-17T04:54:08.771Z</time>
      </trkpt>
      <trkpt lat="38.55769" lon="39.11353">
        <ele>1178.348454</ele>
        <time>2021-11-17T04:54:29.838Z</time>
      </trkpt>
      <trkpt lat="38.55672" lon="39.11175">
        <ele>1185.676031</ele>
        <time>2021-11-17T04:55:39.005Z</time>
      </trkpt>
      <trkpt lat="38.55632" lon="39.11129">
        <ele>1187.235385</ele>
        <time>2021-11-17T04:55:58.870Z</time>
      </trkpt>
      <trkpt lat="38.55578" lon="39.11078">
        <ele>1189.191429</ele>
        <time>2021-11-17T04:56:22.237Z</time>
      </trkpt>
      <trkpt lat="38.55557" lon="39.11006">
        <ele>1190.928737</ele>
        <time>2021-11-17T04:56:41.353Z</time>
      </trkpt>
      <trkpt lat="38.5552" lon="39.10918">
        <ele>1192.596346</ele>
        <time>2021-11-17T04:57:05.353Z</time>
      </trkpt>
      <trkpt lat="38.5548" lon="39.10806">
        <ele>1194.657022</ele>
        <time>2021-11-17T04:57:35.716Z</time>
      </trkpt>
      <trkpt lat="38.55442" lon="39.10793">
        <ele>1195.924151</ele>
        <time>2021-11-17T04:57:54.058Z</time>
      </trkpt>
      <trkpt lat="38.55324" lon="39.10728">
        <ele>1200.315816</ele>
        <time>2021-11-17T04:58:59.607Z</time>
      </trkpt>
      <trkpt lat="38.55172" lon="39.10635">
        <ele>1208.065925</ele>
        <time>2021-11-17T05:00:33.984Z</time>
      </trkpt>
      <trkpt lat="38.55084" lon="39.10573">
        <ele>1213.05696</ele>
        <time>2021-11-17T05:01:32.324Z</time>
      </trkpt>
      <trkpt lat="38.55025" lon="39.10518">
        <ele>1216.721817</ele>
        <time>2021-11-17T05:02:13.776Z</time>
      </trkpt>
      <trkpt lat="38.54979" lon="39.10487">
        <ele>1219.454718</ele>
        <time>2021-11-17T05:02:43.051Z</time>
      </trkpt>
      <trkpt lat="38.54947" lon="39.10474">
        <ele>1221.331291</ele>
        <time>2021-11-17T05:03:03.180Z</time>
      </trkpt>
      <trkpt lat="38.54935" lon="39.1047">
        <ele>1221.978717</ele>
        <time>2021-11-17T05:03:10.005Z</time>
      </trkpt>
      <trkpt lat="38.54913" lon="39.10453">
        <ele>1223.42063</ele>
        <time>2021-11-17T05:03:25.433Z</time>
      </trkpt>
      <trkpt lat="38.54892" lon="39.1044">
        <ele>1224.70169</ele>
        <time>2021-11-17T05:03:39.029Z</time>
      </trkpt>
      <trkpt lat="38.54861" lon="39.10435">
        <ele>1226.42973</ele>
        <time>2021-11-17T05:03:57.230Z</time>
      </trkpt>
      <trkpt lat="38.54848" lon="39.10438">
        <ele>1227.193068</ele>
        <time>2021-11-17T05:04:05.548Z</time>
      </trkpt>
      <trkpt lat="38.54803" lon="39.10449">
        <ele>1230.080362</ele>
        <time>2021-11-17T05:04:32.853Z</time>
      </trkpt>
      <trkpt lat="38.547" lon="39.10442">
        <ele>1237.709319</ele>
        <time>2021-11-17T05:05:42.926Z</time>
      </trkpt>
      <trkpt lat="38.54654" lon="39.10453">
        <ele>1241.152434</ele>
        <time>2021-11-17T05:06:14.774Z</time>
      </trkpt>
      <trkpt lat="38.54623" lon="39.10461">
        <ele>1243.317742</ele>
        <time>2021-11-17T05:06:36.915Z</time>
      </trkpt>
      <trkpt lat="38.54542" lon="39.10464">
        <ele>1248.82326</ele>
        <time>2021-11-17T05:07:33.415Z</time>
      </trkpt>
      <trkpt lat="38.54506" lon="39.1045">
        <ele>1251.301791</ele>
        <time>2021-11-17T05:07:56.871Z</time>
      </trkpt>
      <trkpt lat="38.54476" lon="39.1043">
        <ele>1253.573566</ele>
        <time>2021-11-17T05:08:16.596Z</time>
      </trkpt>
      <trkpt lat="38.54476" lon="39.1043">
        <ele>1253.573566</ele>
        <time>2021-11-17T05:08:16.652Z</time>
      </trkpt>
      <trkpt lat="38.54469" lon="39.10417">
        <ele>1253.788586</ele>
        <time>2021-11-17T05:08:21.200Z</time>
      </trkpt>
      <trkpt lat="38.5446" lon="39.10411">
        <ele>1253.76234</ele>
        <time>2021-11-17T05:08:25.116Z</time>
      </trkpt>
      <trkpt lat="38.54451" lon="39.10413">
        <ele>1253.737434</ele>
        <time>2021-11-17T05:08:28.278Z</time>
      </trkpt>
      <trkpt lat="38.5444" lon="39.1042">
        <ele>1253.707233</ele>
        <time>2021-11-17T05:08:31.868Z</time>
      </trkpt>
      <trkpt lat="38.5443" lon="39.10405">
        <ele>1253.666775</ele>
        <time>2021-11-17T05:08:38.917Z</time>
      </trkpt>
      <trkpt lat="38.54418" lon="39.10372">
        <ele>1253.595043</ele>
        <time>2021-11-17T05:08:45.630Z</time>
      </trkpt>
      <trkpt lat="38.54408" lon="39.10339">
        <ele>1253.52228</ele>
        <time>2021-11-17T05:08:51.518Z</time>
      </trkpt>
      <trkpt lat="38.5442" lon="39.10275">
        <ele>1253.391042</ele>
        <time>2021-11-17T05:09:00.576Z</time>
      </trkpt>
      <trkpt lat="38.54413" lon="39.10248">
        <ele>1252.98753</ele>
        <time>2021-11-17T05:09:04.329Z</time>
      </trkpt>
      <trkpt lat="38.54428" lon="39.10255">
        <ele>1252.021272</ele>
        <time>2021-11-17T05:09:06.675Z</time>
      </trkpt>
      <trkpt lat="38.5445" lon="39.10254">
        <ele>1250.666159</ele>
        <time>2021-11-17T05:09:10.225Z</time>
      </trkpt>
      <trkpt lat="38.54452" lon="39.10234">
        <ele>1249.707312</ele>
        <time>2021-11-17T05:09:12.540Z</time>
      </trkpt>
      <trkpt lat="38.54507" lon="39.10192">
        <ele>1245.720559</ele>
        <time>2021-11-17T05:09:22.445Z</time>
      </trkpt>
      <trkpt lat="38.54528" lon="39.1017">
        <ele>1244.075701</ele>
        <time>2021-11-17T05:09:26.421Z</time>
      </trkpt>
      <trkpt lat="38.54535" lon="39.10157">
        <ele>1243.302034</ele>
        <time>2021-11-17T05:09:28.190Z</time>
      </trkpt>
      <trkpt lat="38.54542" lon="39.10138">
        <ele>1242.23849</ele>
        <time>2021-11-17T05:09:30.774Z</time>
      </trkpt>
      <trkpt lat="38.54551" lon="39.10109">
        <ele>1240.49908</ele>
        <time>2021-11-17T05:09:34.245Z</time>
      </trkpt>
      <trkpt lat="38.54545" lon="39.10089">
        <ele>1239.229513</ele>
        <time>2021-11-17T05:09:36.911Z</time>
      </trkpt>
      <trkpt lat="38.54556" lon="39.10076">
        <ele>1238.141026</ele>
        <time>2021-11-17T05:09:40.692Z</time>
      </trkpt>
      <trkpt lat="38.54564" lon="39.10067">
        <ele>1237.345487</ele>
        <time>2021-11-17T05:09:43.551Z</time>
      </trkpt>
      <trkpt lat="38.54575" lon="39.10051">
        <ele>1236.163894</ele>
        <time>2021-11-17T05:09:47.772Z</time>
      </trkpt>
      <trkpt lat="38.54584" lon="39.10028">
        <ele>1234.707515</ele>
        <time>2021-11-17T05:09:52.856Z</time>
      </trkpt>
      <trkpt lat="38.54584" lon="39.1">
        <ele>1233.095778</ele>
        <time>2021-11-17T05:09:58.483Z</time>
      </trkpt>
      <trkpt lat="38.54581" lon="39.09972">
        <ele>1231.474543</ele>
        <time>2021-11-17T05:10:04.231Z</time>
      </trkpt>
      <trkpt lat="38.54595" lon="39.09877">
        <ele>1226.414313</ele>
        <time>2021-11-17T05:10:23.828Z</time>
      </trkpt>
      <trkpt lat="38.54647" lon="39.09739">
        <ele>1218.905406</ele>
        <time>2021-11-17T05:10:55.841Z</time>
      </trkpt>
      <trkpt lat="38.54665" lon="39.09682">
        <ele>1216.23717</ele>
        <time>2021-11-17T05:11:08.737Z</time>
      </trkpt>
      <trkpt lat="38.5472" lon="39.09459">
        <ele>1206.848251</ele>
        <time>2021-11-17T05:11:58.681Z</time>
      </trkpt>
      <trkpt lat="38.54803" lon="39.09225">
        <ele>1197.751665</ele>
        <time>2021-11-17T05:12:55.088Z</time>
      </trkpt>
      <trkpt lat="38.54851" lon="39.09055">
        <ele>1191.527669</ele>
        <time>2021-11-17T05:13:34.945Z</time>
      </trkpt>
      <trkpt lat="38.54862" lon="39.0901">
        <ele>1189.719948</ele>
        <time>2021-11-17T05:13:45.324Z</time>
      </trkpt>
      <trkpt lat="38.5492" lon="39.08754">
        <ele>1179.471481</ele>
        <time>2021-11-17T05:14:42.310Z</time>
      </trkpt>
      <trkpt lat="38.54964" lon="39.08533">
        <ele>1171.13141</ele>
        <time>2021-11-17T05:15:31.372Z</time>
      </trkpt>
      <trkpt lat="38.54968" lon="39.08486">
        <ele>1169.551231</ele>
        <time>2021-11-17T05:15:41.784Z</time>
      </trkpt>
      <trkpt lat="38.54957" lon="39.08361">
        <ele>1165.965797</ele>
        <time>2021-11-17T05:16:10.577Z</time>
      </trkpt>
      <trkpt lat="38.54963" lon="39.08289">
        <ele>1164.571834</ele>
        <time>2021-11-17T05:16:27.533Z</time>
      </trkpt>
      <trkpt lat="38.5502" lon="39.07919">
        <ele>1158.796596</ele>
        <time>2021-11-17T05:18:01.450Z</time>
      </trkpt>
      <trkpt lat="38.55022" lon="39.07869">
        <ele>1158.300714</ele>
        <time>2021-11-17T05:18:14.240Z</time>
      </trkpt>
      <trkpt lat="38.55033" lon="39.07588">
        <ele>1156.251262</ele>
        <time>2021-11-17T05:19:28.350Z</time>
      </trkpt>
      <trkpt lat="38.55042" lon="39.07558">
        <ele>1156.103413</ele>
        <time>2021-11-17T05:19:37.541Z</time>
      </trkpt>
      <trkpt lat="38.55067" lon="39.07503">
        <ele>1155.841248</ele>
        <time>2021-11-17T05:19:55.993Z</time>
      </trkpt>
      <trkpt lat="38.5516" lon="39.07245">
        <ele>1156.816586</ele>
        <time>2021-11-17T05:21:22.471Z</time>
      </trkpt>
      <trkpt lat="38.5516" lon="39.07241">
        <ele>1156.835711</ele>
        <time>2021-11-17T05:21:24.067Z</time>
      </trkpt>
      <trkpt lat="38.55186" lon="39.07251">
        <ele>1156.982243</ele>
        <time>2021-11-17T05:21:31.288Z</time>
      </trkpt>
      <trkpt lat="38.55199" lon="39.07253">
        <ele>1157.048512</ele>
        <time>2021-11-17T05:21:34.629Z</time>
      </trkpt>
      <trkpt lat="38.55218" lon="39.07255">
        <ele>1157.145635</ele>
        <time>2021-11-17T05:21:39.401Z</time>
      </trkpt>
      <trkpt lat="38.55221" lon="39.07254">
        <ele>1157.160915</ele>
        <time>2021-11-17T05:21:40.097Z</time>
      </trkpt>
      <trkpt lat="38.55247" lon="39.07249">
        <ele>1157.298069</ele>
        <time>2021-11-17T05:21:46.852Z</time>
      </trkpt>
      <trkpt lat="38.55253" lon="39.07243">
        <ele>1157.33871</ele>
        <time>2021-11-17T05:21:48.835Z</time>
      </trkpt>
      <trkpt lat="38.55271" lon="39.07179">
        <ele>1157.485382</ele>
        <time>2021-11-17T05:22:02.072Z</time>
      </trkpt>
      <trkpt lat="38.5527" lon="39.07147">
        <ele>1157.434102</ele>
        <time>2021-11-17T05:22:08.062Z</time>
      </trkpt>
      <trkpt lat="38.55298" lon="39.07148">
        <ele>1157.37712</ele>
        <time>2021-11-17T05:22:14.259Z</time>
      </trkpt>
      <trkpt lat="38.5532" lon="39.07139">
        <ele>1157.330283</ele>
        <time>2021-11-17T05:22:19.240Z</time>
      </trkpt>
      <trkpt lat="38.55334" lon="39.07134">
        <ele>1157.300614</ele>
        <time>2021-11-17T05:22:22.547Z</time>
      </trkpt>
      <trkpt lat="38.55375" lon="39.07103">
        <ele>1157.202361</ele>
        <time>2021-11-17T05:22:32.602Z</time>
      </trkpt>
      <trkpt lat="38.55454" lon="39.07006">
        <ele>1155.641913</ele>
        <time>2021-11-17T05:22:53.471Z</time>
      </trkpt>
      <trkpt lat="38.5555" lon="39.06871">
        <ele>1152.721235</ele>
        <time>2021-11-17T05:23:17.852Z</time>
      </trkpt>
      <trkpt lat="38.55594" lon="39.0681">
        <ele>1151.065168</ele>
        <time>2021-11-17T05:23:28.578Z</time>
      </trkpt>
      <trkpt lat="38.55675" lon="39.06708">
        <ele>1148.5125</ele>
        <time>2021-11-17T05:23:47.861Z</time>
      </trkpt>
      <trkpt lat="38.55824" lon="39.06489">
        <ele>1144.64809</ele>
        <time>2021-11-17T05:24:29.531Z</time>
      </trkpt>
      <trkpt lat="38.55839" lon="39.06475">
        <ele>1144.360932</ele>
        <time>2021-11-17T05:24:32.904Z</time>
      </trkpt>
      <trkpt lat="38.55847" lon="39.06472">
        <ele>1144.233118</ele>
        <time>2021-11-17T05:24:34.432Z</time>
      </trkpt>
      <trkpt lat="38.55945" lon="39.06479">
        <ele>1142.622195</ele>
        <time>2021-11-17T05:24:52.218Z</time>
      </trkpt>
      <trkpt lat="38.56034" lon="39.06492">
        <ele>1141.038608</ele>
        <time>2021-11-17T05:25:08.234Z</time>
      </trkpt>
      <trkpt lat="38.56169" lon="39.06479">
        <ele>1139.021098</ele>
        <time>2021-11-17T05:25:32.534Z</time>
      </trkpt>
      <trkpt lat="38.56178" lon="39.06479">
        <ele>1138.907753</ele>
        <time>2021-11-17T05:25:33.993Z</time>
      </trkpt>
      <trkpt lat="38.56198" lon="39.0648">
        <ele>1138.635752</ele>
        <time>2021-11-17T05:25:37.826Z</time>
      </trkpt>
      <trkpt lat="38.5629" lon="39.06477">
        <ele>1138.138344</ele>
        <time>2021-11-17T05:25:55.661Z</time>
      </trkpt>
      <trkpt lat="38.56356" lon="39.06478">
        <ele>1139.057433</ele>
        <time>2021-11-17T05:26:12.261Z</time>
      </trkpt>
      <trkpt lat="38.56402" lon="39.06469">
        <ele>1139.718497</ele>
        <time>2021-11-17T05:26:26.128Z</time>
      </trkpt>
      <trkpt lat="38.56429" lon="39.06457">
        <ele>1140.113174</ele>
        <time>2021-11-17T05:26:35.512Z</time>
      </trkpt>
      <trkpt lat="38.5648" lon="39.06425">
        <ele>1142.275876</ele>
        <time>2021-11-17T05:26:57.208Z</time>
      </trkpt>
      <trkpt lat="38.56555" lon="39.0635">
        <ele>1146.492608</ele>
        <time>2021-11-17T05:27:37.741Z</time>
      </trkpt>
      <trkpt lat="38.56581" lon="39.06317">
        <ele>1148.124158</ele>
        <time>2021-11-17T05:27:52.635Z</time>
      </trkpt>
      <trkpt lat="38.56587" lon="39.06311">
        <ele>1148.413291</ele>
        <time>2021-11-17T05:27:56.637Z</time>
      </trkpt>
      <trkpt lat="38.56594" lon="39.06305">
        <ele>1148.703072</ele>
        <time>2021-11-17T05:27:59.820Z</time>
      </trkpt>
      <trkpt lat="38.56603" lon="39.06299">
        <ele>1149.002552</ele>
        <time>2021-11-17T05:28:03.104Z</time>
      </trkpt>
      <trkpt lat="38.56613" lon="39.06291">
        <ele>1149.369058</ele>
        <time>2021-11-17T05:28:07.613Z</time>
      </trkpt>
      <trkpt lat="38.56661" lon="39.06239">
        <ele>1151.382674</ele>
        <time>2021-11-17T05:28:30.814Z</time>
      </trkpt>
      <trkpt lat="38.56708" lon="39.06163">
        <ele>1153.808101</ele>
        <time>2021-11-17T05:28:56.406Z</time>
      </trkpt>
      <trkpt lat="38.56742" lon="39.06123">
        <ele>1154.369147</ele>
        <time>2021-11-17T05:29:08.478Z</time>
      </trkpt>
      <trkpt lat="38.56776" lon="39.0609">
        <ele>1154.74287</ele>
        <time>2021-11-17T05:29:19.376Z</time>
      </trkpt>
      <trkpt lat="38.56926" lon="39.05929">
        <ele>1155.400565</ele>
        <time>2021-11-17T05:30:06.796Z</time>
      </trkpt>
      <trkpt lat="38.56991" lon="39.0586">
        <ele>1155.192091</ele>
        <time>2021-11-17T05:30:23.293Z</time>
      </trkpt>
      <trkpt lat="38.56999" lon="39.05857">
        <ele>1155.054403</ele>
        <time>2021-11-17T05:30:24.995Z</time>
      </trkpt>
      <trkpt lat="38.57025" lon="39.05853">
        <ele>1154.597759</ele>
        <time>2021-11-17T05:30:29.695Z</time>
      </trkpt>
      <trkpt lat="38.57047" lon="39.05853">
        <ele>1154.224804</ele>
        <time>2021-11-17T05:30:33.819Z</time>
      </trkpt>
      <trkpt lat="38.57048" lon="39.05853">
        <ele>1154.207648</ele>
        <time>2021-11-17T05:30:33.961Z</time>
      </trkpt>
      <trkpt lat="38.57055" lon="39.05853">
        <ele>1154.097467</ele>
        <time>2021-11-17T05:30:35.059Z</time>
      </trkpt>
      <trkpt lat="38.57073" lon="39.05854">
        <ele>1153.783329</ele>
        <time>2021-11-17T05:30:38.534Z</time>
      </trkpt>
      <trkpt lat="38.57077" lon="39.05853">
        <ele>1153.718252</ele>
        <time>2021-11-17T05:30:39.193Z</time>
      </trkpt>
      <trkpt lat="38.57079" lon="39.05854">
        <ele>1153.685612</ele>
        <time>2021-11-17T05:30:39.550Z</time>
      </trkpt>
      <trkpt lat="38.57095" lon="39.05866">
        <ele>1153.366814</ele>
        <time>2021-11-17T05:30:42.706Z</time>
      </trkpt>
      <trkpt lat="38.57138" lon="39.05883">
        <ele>1152.606305</ele>
        <time>2021-11-17T05:30:50.650Z</time>
      </trkpt>
      <trkpt lat="38.57166" lon="39.05887">
        <ele>1152.17512</ele>
        <time>2021-11-17T05:30:55.500Z</time>
      </trkpt>
      <trkpt lat="38.57265" lon="39.05904">
        <ele>1151.957874</ele>
        <time>2021-11-17T05:31:14.967Z</time>
      </trkpt>
      <trkpt lat="38.5728" lon="39.05901">
        <ele>1151.923118</ele>
        <time>2021-11-17T05:31:18.800Z</time>
      </trkpt>
      <trkpt lat="38.57303" lon="39.05918">
        <ele>1151.865846</ele>
        <time>2021-11-17T05:31:25.260Z</time>
      </trkpt>
      <trkpt lat="38.57318" lon="39.05933">
        <ele>1151.823936</ele>
        <time>2021-11-17T05:31:30.611Z</time>
      </trkpt>
      <trkpt lat="38.57327" lon="39.05944">
        <ele>1151.796643</ele>
        <time>2021-11-17T05:31:33.992Z</time>
      </trkpt>
      <trkpt lat="38.57341" lon="39.05916">
        <ele>1152.144058</ele>
        <time>2021-11-17T05:31:41.586Z</time>
      </trkpt>
      <trkpt lat="38.57347" lon="39.059">
        <ele>1152.36677</ele>
        <time>2021-11-17T05:31:45.459Z</time>
      </trkpt>
      <trkpt lat="38.57364" lon="39.05835">
        <ele>1153.226861</ele>
        <time>2021-11-17T05:32:01.671Z</time>
      </trkpt>
      <trkpt lat="38.57367" lon="39.05827">
        <ele>1153.341623</ele>
        <time>2021-11-17T05:32:03.872Z</time>
      </trkpt>
      <trkpt lat="38.57368" lon="39.05823">
        <ele>1153.39599</ele>
        <time>2021-11-17T05:32:04.956Z</time>
      </trkpt>
      <trkpt lat="38.57373" lon="39.05814">
        <ele>1153.530276</ele>
        <time>2021-11-17T05:32:07.333Z</time>
      </trkpt>
      <trkpt lat="38.57378" lon="39.05802">
        <ele>1153.708649</ele>
        <time>2021-11-17T05:32:10.856Z</time>
      </trkpt>
      <trkpt lat="38.57386" lon="39.05794">
        <ele>1153.862509</ele>
        <time>2021-11-17T05:32:13.875Z</time>
      </trkpt>
      <trkpt lat="38.57396" lon="39.0578">
        <ele>1154.099426</ele>
        <time>2021-11-17T05:32:18.204Z</time>
      </trkpt>
      <trkpt lat="38.57419" lon="39.05729">
        <ele>1154.784317</ele>
        <time>2021-11-17T05:32:32.093Z</time>
      </trkpt>
      <trkpt lat="38.57434" lon="39.05694">
        <ele>1155.123225</ele>
        <time>2021-11-17T05:32:41.151Z</time>
      </trkpt>
      <trkpt lat="38.57451" lon="39.05656">
        <ele>1155.493069</ele>
        <time>2021-11-17T05:32:50.633Z</time>
      </trkpt>
      <trkpt lat="38.57482" lon="39.05595">
        <ele>1156.108115</ele>
        <time>2021-11-17T05:33:05.559Z</time>
      </trkpt>
      <trkpt lat="38.57488" lon="39.05577">
        <ele>1156.269007</ele>
        <time>2021-11-17T05:33:09.300Z</time>
      </trkpt>
      <trkpt lat="38.57418" lon="39.05534">
        <ele>1157.046138</ele>
        <time>2021-11-17T05:33:29.514Z</time>
      </trkpt>
      <trkpt lat="38.57348" lon="39.05488">
        <ele>1157.795542</ele>
        <time>2021-11-17T05:33:50.418Z</time>
      </trkpt>
      <trkpt lat="38.57327" lon="39.05474">
        <ele>1158.015672</ele>
        <time>2021-11-17T05:33:56.455Z</time>
      </trkpt>
      <trkpt lat="38.57319" lon="39.05469">
        <ele>1158.097756</ele>
        <time>2021-11-17T05:33:58.811Z</time>
      </trkpt>
      <trkpt lat="38.5731" lon="39.05464">
        <ele>1158.195426</ele>
        <time>2021-11-17T05:34:01.401Z</time>
      </trkpt>
      <trkpt lat="38.57284" lon="39.0545">
        <ele>1158.419338</ele>
        <time>2021-11-17T05:34:08.647Z</time>
      </trkpt>
      <trkpt lat="38.57207" lon="39.05416">
        <ele>1158.976308</ele>
        <time>2021-11-17T05:34:29.136Z</time>
      </trkpt>
      <trkpt lat="38.5709" lon="39.05376">
        <ele>1159.939381</ele>
        <time>2021-11-17T05:34:58.647Z</time>
      </trkpt>
      <trkpt lat="38.5709" lon="39.05376">
        <ele>1159.939381</ele>
        <time>2021-11-17T05:34:58.649Z</time>
      </trkpt>
      <trkpt lat="38.57057" lon="39.05365">
        <ele>1160.29581</ele>
        <time>2021-11-17T05:35:07.186Z</time>
      </trkpt>
      <trkpt lat="38.56762" lon="39.05272">
        <ele>1164.211728</ele>
        <time>2021-11-17T05:36:30.793Z</time>
      </trkpt>
      <trkpt lat="38.56668" lon="39.05238">
        <ele>1166.085972</ele>
        <time>2021-11-17T05:37:00.398Z</time>
      </trkpt>
      <trkpt lat="38.56625" lon="39.05221">
        <ele>1166.967076</ele>
        <time>2021-11-17T05:37:14.487Z</time>
      </trkpt>
      <trkpt lat="38.5659" lon="39.05206">
        <ele>1167.663287</ele>
        <time>2021-11-17T05:37:25.798Z</time>
      </trkpt>
      <trkpt lat="38.56552" lon="39.05186">
        <ele>1168.424044</ele>
        <time>2021-11-17T05:37:38.320Z</time>
      </trkpt>
      <trkpt lat="38.56409" lon="39.05091">
        <ele>1171.206827</ele>
        <time>2021-11-17T05:38:25.567Z</time>
      </trkpt>
      <trkpt lat="38.56314" lon="39.05007">
        <ele>1172.727781</ele>
        <time>2021-11-17T05:38:57.122Z</time>
      </trkpt>
      <trkpt lat="38.56237" lon="39.04938">
        <ele>1173.786577</ele>
        <time>2021-11-17T05:39:21.138Z</time>
      </trkpt>
      <trkpt lat="38.56135" lon="39.04846">
        <ele>1175.191786</ele>
        <time>2021-11-17T05:39:54.164Z</time>
      </trkpt>
      <trkpt lat="38.56105" lon="39.0482">
        <ele>1175.863572</ele>
        <time>2021-11-17T05:40:04.131Z</time>
      </trkpt>
      <trkpt lat="38.5591" lon="39.04641">
        <ele>1180.913261</ele>
        <time>2021-11-17T05:41:17.992Z</time>
      </trkpt>
      <trkpt lat="38.5555" lon="39.04311">
        <ele>1193.228094</ele>
        <time>2021-11-17T05:43:47.043Z</time>
      </trkpt>
      <trkpt lat="38.55269" lon="39.04053">
        <ele>1203.376853</ele>
        <time>2021-11-17T05:45:44.662Z</time>
      </trkpt>
      <trkpt lat="38.55233" lon="39.04026">
        <ele>1204.44796</ele>
        <time>2021-11-17T05:45:58.739Z</time>
      </trkpt>
      <trkpt lat="38.55224" lon="39.04018">
        <ele>1204.734294</ele>
        <time>2021-11-17T05:46:02.516Z</time>
      </trkpt>
      <trkpt lat="38.55186" lon="39.03992">
        <ele>1205.8285</ele>
        <time>2021-11-17T05:46:16.729Z</time>
      </trkpt>
      <trkpt lat="38.55183" lon="39.03991">
        <ele>1205.90664</ele>
        <time>2021-11-17T05:46:17.939Z</time>
      </trkpt>
      <trkpt lat="38.55127" lon="39.03965">
        <ele>1207.428152</ele>
        <time>2021-11-17T05:46:36.803Z</time>
      </trkpt>
      <trkpt lat="38.55115" lon="39.0396">
        <ele>1207.7677</ele>
        <time>2021-11-17T05:46:41.147Z</time>
      </trkpt>
      <trkpt lat="38.55066" lon="39.03937">
        <ele>1208.738798</ele>
        <time>2021-11-17T05:46:56.306Z</time>
      </trkpt>
      <trkpt lat="38.5494" lon="39.03916">
        <ele>1210.938634</ele>
        <time>2021-11-17T05:47:32.885Z</time>
      </trkpt>
      <trkpt lat="38.54872" lon="39.03918">
        <ele>1211.947934</ele>
        <time>2021-11-17T05:47:52.353Z</time>
      </trkpt>
      <trkpt lat="38.54761" lon="39.03938">
        <ele>1213.539684</ele>
        <time>2021-11-17T05:48:23.455Z</time>
      </trkpt>
      <trkpt lat="38.54746" lon="39.03942">
        <ele>1213.716339</ele>
        <time>2021-11-17T05:48:28.188Z</time>
      </trkpt>
      <trkpt lat="38.54674" lon="39.03957">
        <ele>1214.051886</ele>
        <time>2021-11-17T05:48:46.947Z</time>
      </trkpt>
      <trkpt lat="38.54401" lon="39.04016">
        <ele>1214.44798</ele>
        <time>2021-11-17T05:49:48.149Z</time>
      </trkpt>
      <trkpt lat="38.54387" lon="39.04019">
        <ele>1214.45993</ele>
        <time>2021-11-17T05:49:51.055Z</time>
      </trkpt>
      <trkpt lat="38.54273" lon="39.04044">
        <ele>1214.641128</ele>
        <time>2021-11-17T05:50:17.594Z</time>
      </trkpt>
      <trkpt lat="38.54175" lon="39.04066">
        <ele>1214.906461</ele>
        <time>2021-11-17T05:50:40.516Z</time>
      </trkpt>
      <trkpt lat="38.5411" lon="39.04079">
        <ele>1215.178228</ele>
        <time>2021-11-17T05:50:56.434Z</time>
      </trkpt>
      <trkpt lat="38.53938" lon="39.04106">
        <ele>1216.414836</ele>
        <time>2021-11-17T05:51:38.517Z</time>
      </trkpt>
      <trkpt lat="38.53666" lon="39.04149">
        <ele>1219.865183</ele>
        <time>2021-11-17T05:52:55.435Z</time>
      </trkpt>
      <trkpt lat="38.53629" lon="39.04155">
        <ele>1220.246035</ele>
        <time>2021-11-17T05:53:05.263Z</time>
      </trkpt>
      <trkpt lat="38.53369" lon="39.04189">
        <ele>1223.337358</ele>
        <time>2021-11-17T05:54:13.278Z</time>
      </trkpt>
      <trkpt lat="38.53204" lon="39.04212">
        <ele>1226.309894</ele>
        <time>2021-11-17T05:55:05.520Z</time>
      </trkpt>
      <trkpt lat="38.53048" lon="39.04233">
        <ele>1227.141485</ele>
        <time>2021-11-17T05:55:48.705Z</time>
      </trkpt>
      <trkpt lat="38.52854" lon="39.04259">
        <ele>1223.734333</ele>
        <time>2021-11-17T05:56:22.206Z</time>
      </trkpt>
      <trkpt lat="38.52799" lon="39.04267">
        <ele>1222.219846</ele>
        <time>2021-11-17T05:56:30.960Z</time>
      </trkpt>
      <trkpt lat="38.52353" lon="39.04336">
        <ele>1208.660939</ele>
        <time>2021-11-17T05:57:45.295Z</time>
      </trkpt>
      <trkpt lat="38.51797" lon="39.04416">
        <ele>1189.583147</ele>
        <time>2021-11-17T05:59:15.479Z</time>
      </trkpt>
      <trkpt lat="38.51677" lon="39.04433">
        <ele>1185.58454</ele>
        <time>2021-11-17T05:59:34.288Z</time>
      </trkpt>
      <trkpt lat="38.51208" lon="39.04501">
        <ele>1174.346064</ele>
        <time>2021-11-17T06:00:56.006Z</time>
      </trkpt>
      <trkpt lat="38.51035" lon="39.04532">
        <ele>1170.599334</ele>
        <time>2021-11-17T06:01:26.585Z</time>
      </trkpt>
      <trkpt lat="38.5098" lon="39.04544">
        <ele>1169.358895</ele>
        <time>2021-11-17T06:01:36.155Z</time>
      </trkpt>
      <trkpt lat="38.50957" lon="39.04551">
        <ele>1168.809334</ele>
        <time>2021-11-17T06:01:40.155Z</time>
      </trkpt>
      <trkpt lat="38.50762" lon="39.04617">
        <ele>1164.493161</ele>
        <time>2021-11-17T06:02:14.826Z</time>
      </trkpt>
      <trkpt lat="38.50652" lon="39.04663">
        <ele>1162.598314</ele>
        <time>2021-11-17T06:02:35.513Z</time>
      </trkpt>
      <trkpt lat="38.50551" lon="39.04701">
        <ele>1163.782795</ele>
        <time>2021-11-17T06:02:59.050Z</time>
      </trkpt>
      <trkpt lat="38.50509" lon="39.04719">
        <ele>1164.278231</ele>
        <time>2021-11-17T06:03:11.849Z</time>
      </trkpt>
      <trkpt lat="38.50196" lon="39.04846">
        <ele>1180.315727</ele>
        <time>2021-11-17T06:05:31.053Z</time>
      </trkpt>
      <trkpt lat="38.50012" lon="39.04917">
        <ele>1193.031994</ele>
        <time>2021-11-17T06:07:10.044Z</time>
      </trkpt>
      <trkpt lat="38.50005" lon="39.04919">
        <ele>1193.480082</ele>
        <time>2021-11-17T06:07:14.303Z</time>
      </trkpt>
      <trkpt lat="38.49833" lon="39.04989">
        <ele>1203.41532</ele>
        <time>2021-11-17T06:08:36.423Z</time>
      </trkpt>
      <trkpt lat="38.498" lon="39.05003">
        <ele>1205.228485</ele>
        <time>2021-11-17T06:08:48.749Z</time>
      </trkpt>
      <trkpt lat="38.49723" lon="39.05037">
        <ele>1206.808556</ele>
        <time>2021-11-17T06:09:14.046Z</time>
      </trkpt>
      <trkpt lat="38.49546" lon="39.05112">
        <ele>1210.37476</ele>
        <time>2021-11-17T06:10:04.870Z</time>
      </trkpt>
      <trkpt lat="38.49542" lon="39.05114">
        <ele>1210.454346</ele>
        <time>2021-11-17T06:10:06.098Z</time>
      </trkpt>
      <trkpt lat="38.49384" lon="39.05178">
        <ele>1213.793241</ele>
        <time>2021-11-17T06:10:59.715Z</time>
      </trkpt>
      <trkpt lat="38.49197" lon="39.05231">
        <ele>1217.42388</ele>
        <time>2021-11-17T06:11:56.229Z</time>
      </trkpt>
      <trkpt lat="38.49126" lon="39.05238">
        <ele>1218.592407</ele>
        <time>2021-11-17T06:12:16.366Z</time>
      </trkpt>
      <trkpt lat="38.49065" lon="39.05236">
        <ele>1219.662514</ele>
        <time>2021-11-17T06:12:33.578Z</time>
      </trkpt>
      <trkpt lat="38.49044" lon="39.05234">
        <ele>1220.053918</ele>
        <time>2021-11-17T06:12:39.416Z</time>
      </trkpt>
      <trkpt lat="38.49038" lon="39.05233">
        <ele>1220.165471</ele>
        <time>2021-11-17T06:12:41.557Z</time>
      </trkpt>
      <trkpt lat="38.48972" lon="39.05218">
        <ele>1221.372917</ele>
        <time>2021-11-17T06:13:00.193Z</time>
      </trkpt>
      <trkpt lat="38.48824" lon="39.05161">
        <ele>1224.709676</ele>
        <time>2021-11-17T06:13:50.179Z</time>
      </trkpt>
      <trkpt lat="38.48806" lon="39.05149">
        <ele>1225.179457</ele>
        <time>2021-11-17T06:13:56.747Z</time>
      </trkpt>
      <trkpt lat="38.4877" lon="39.05124">
        <ele>1226.131408</ele>
        <time>2021-11-17T06:14:09.787Z</time>
      </trkpt>
      <trkpt lat="38.48737" lon="39.05102">
        <ele>1226.637954</ele>
        <time>2021-11-17T06:14:21.062Z</time>
      </trkpt>
      <trkpt lat="38.48403" lon="39.04878">
        <ele>1230.251378</ele>
        <time>2021-11-17T06:15:56.906Z</time>
      </trkpt>
      <trkpt lat="38.48291" lon="39.04763">
        <ele>1231.897927</ele>
        <time>2021-11-17T06:16:35.153Z</time>
      </trkpt>
      <trkpt lat="38.48203" lon="39.04636">
        <ele>1234.346072</ele>
        <time>2021-11-17T06:17:14.451Z</time>
      </trkpt>
      <trkpt lat="38.48166" lon="39.04569">
        <ele>1235.732231</ele>
        <time>2021-11-17T06:17:34.904Z</time>
      </trkpt>
      <trkpt lat="38.48112" lon="39.04445">
        <ele>1238.53719</ele>
        <time>2021-11-17T06:18:11.161Z</time>
      </trkpt>
      <trkpt lat="38.48076" lon="39.04322">
        <ele>1240.600381</ele>
        <time>2021-11-17T06:18:44.589Z</time>
      </trkpt>
      <trkpt lat="38.48069" lon="39.04301">
        <ele>1240.885604</ele>
        <time>2021-11-17T06:18:50.473Z</time>
      </trkpt>
      <trkpt lat="38.47946" lon="39.03746">
        <ele>1248.221061</ele>
        <time>2021-11-17T06:20:55.621Z</time>
      </trkpt>
      <trkpt lat="38.47937" lon="39.03702">
        <ele>1249.280449</ele>
        <time>2021-11-17T06:21:07.470Z</time>
      </trkpt>
      <trkpt lat="38.47959" lon="39.03637">
        <ele>1251.154135</ele>
        <time>2021-11-17T06:21:27.315Z</time>
      </trkpt>
      <trkpt lat="38.47971" lon="39.03597">
        <ele>1252.294155</ele>
        <time>2021-11-17T06:21:39.871Z</time>
      </trkpt>
      <trkpt lat="38.47944" lon="39.0349">
        <ele>1255.463772</ele>
        <time>2021-11-17T06:22:15.473Z</time>
      </trkpt>
      <trkpt lat="38.47924" lon="39.03393">
        <ele>1258.599148</ele>
        <time>2021-11-17T06:22:46.394Z</time>
      </trkpt>
      <trkpt lat="38.47908" lon="39.03253">
        <ele>1262.572239</ele>
        <time>2021-11-17T06:23:29.521Z</time>
      </trkpt>
      <trkpt lat="38.47897" lon="39.03215">
        <ele>1263.412401</ele>
        <time>2021-11-17T06:23:40.895Z</time>
      </trkpt>
      <trkpt lat="38.47892" lon="39.03157">
        <ele>1264.619949</ele>
        <time>2021-11-17T06:23:56.392Z</time>
      </trkpt>
      <trkpt lat="38.47891" lon="39.03148">
        <ele>1264.81596</ele>
        <time>2021-11-17T06:23:59.017Z</time>
      </trkpt>
      <trkpt lat="38.47887" lon="39.03053">
        <ele>1266.484044</ele>
        <time>2021-11-17T06:24:21.626Z</time>
      </trkpt>
      <trkpt lat="38.47873" lon="39.02972">
        <ele>1266.622145</ele>
        <time>2021-11-17T06:24:38.633Z</time>
      </trkpt>
      <trkpt lat="38.4786" lon="39.02945">
        <ele>1266.675105</ele>
        <time>2021-11-17T06:24:44.123Z</time>
      </trkpt>
      <trkpt lat="38.47845" lon="39.02902">
        <ele>1266.754256</ele>
        <time>2021-11-17T06:24:51.911Z</time>
      </trkpt>
      <trkpt lat="38.47846" lon="39.0289">
        <ele>1266.774174</ele>
        <time>2021-11-17T06:24:53.892Z</time>
      </trkpt>
      <trkpt lat="38.47819" lon="39.02812">
        <ele>1266.830091</ele>
        <time>2021-11-17T06:25:08.054Z</time>
      </trkpt>
      <trkpt lat="38.47787" lon="39.02753">
        <ele>1266.812796</ele>
        <time>2021-11-17T06:25:20.302Z</time>
      </trkpt>
      <trkpt lat="38.47746" lon="39.02771">
        <ele>1266.799429</ele>
        <time>2021-11-17T06:25:30.183Z</time>
      </trkpt>
      <trkpt lat="38.47737" lon="39.02771">
        <ele>1266.796476</ele>
        <time>2021-11-17T06:25:32.454Z</time>
      </trkpt>
      <trkpt lat="38.47667" lon="39.02436">
        <ele>1269.03279</ele>
        <time>2021-11-17T06:26:42.339Z</time>
      </trkpt>
      <trkpt lat="38.47657" lon="39.02403">
        <ele>1269.381862</ele>
        <time>2021-11-17T06:26:50.029Z</time>
      </trkpt>
      <trkpt lat="38.47626" lon="39.02265">
        <ele>1270.751018</ele>
        <time>2021-11-17T06:27:21.922Z</time>
      </trkpt>
      <trkpt lat="38.47608" lon="39.0217">
        <ele>1271.438106</ele>
        <time>2021-11-17T06:27:42.600Z</time>
      </trkpt>
      <trkpt lat="38.47599" lon="39.0211">
        <ele>1271.873383</ele>
        <time>2021-11-17T06:27:54.918Z</time>
      </trkpt>
      <trkpt lat="38.4759" lon="39.02045">
        <ele>1272.166062</ele>
        <time>2021-11-17T06:28:07.070Z</time>
      </trkpt>
      <trkpt lat="38.47584" lon="39.01909">
        <ele>1271.686772</ele>
        <time>2021-11-17T06:28:29.976Z</time>
      </trkpt>
      <trkpt lat="38.47585" lon="39.01877">
        <ele>1271.57118</ele>
        <time>2021-11-17T06:28:34.935Z</time>
      </trkpt>
      <trkpt lat="38.47586" lon="39.01737">
        <ele>1270.371841</ele>
        <time>2021-11-17T06:28:55.318Z</time>
      </trkpt>
      <trkpt lat="38.47588" lon="39.01703">
        <ele>1270.003295</ele>
        <time>2021-11-17T06:29:00.084Z</time>
      </trkpt>
      <trkpt lat="38.4759" lon="39.01634">
        <ele>1269.246291</ele>
        <time>2021-11-17T06:29:09.967Z</time>
      </trkpt>
      <trkpt lat="38.47592" lon="39.01557">
        <ele>1268.630471</ele>
        <time>2021-11-17T06:29:21.028Z</time>
      </trkpt>
      <trkpt lat="38.47597" lon="39.01369">
        <ele>1267.564066</ele>
        <time>2021-11-17T06:29:50.720Z</time>
      </trkpt>
      <trkpt lat="38.47602" lon="39.01202">
        <ele>1267.923704</ele>
        <time>2021-11-17T06:30:22.127Z</time>
      </trkpt>
      <trkpt lat="38.47606" lon="39.01058">
        <ele>1267.966031</ele>
        <time>2021-11-17T06:30:48.753Z</time>
      </trkpt>
      <trkpt lat="38.47608" lon="39.00938">
        <ele>1267.84672</ele>
        <time>2021-11-17T06:31:08.968Z</time>
      </trkpt>
      <trkpt lat="38.4761" lon="39.00853">
        <ele>1267.051056</ele>
        <time>2021-11-17T06:31:22.014Z</time>
      </trkpt>
      <trkpt lat="38.47629" lon="39.00113">
        <ele>1256.952327</ele>
        <time>2021-11-17T06:33:05.519Z</time>
      </trkpt>
      <trkpt lat="38.47632" lon="38.9998">
        <ele>1255.04932</ele>
        <time>2021-11-17T06:33:23.816Z</time>
      </trkpt>
      <trkpt lat="38.47635" lon="38.99883">
        <ele>1253.973664</ele>
        <time>2021-11-17T06:33:37.233Z</time>
      </trkpt>
      <trkpt lat="38.47639" lon="38.99736">
        <ele>1252.712925</ele>
        <time>2021-11-17T06:33:59.287Z</time>
      </trkpt>
      <trkpt lat="38.47652" lon="38.9924">
        <ele>1253.354655</ele>
        <time>2021-11-17T06:35:33.825Z</time>
      </trkpt>
      <trkpt lat="38.47654" lon="38.99149">
        <ele>1252.511799</ele>
        <time>2021-11-17T06:35:47.951Z</time>
      </trkpt>
      <trkpt lat="38.47682" lon="38.98069">
        <ele>1227.679562</ele>
        <time>2021-11-17T06:38:06.157Z</time>
      </trkpt>
      <trkpt lat="38.47689" lon="38.97954">
        <ele>1225.568568</ele>
        <time>2021-11-17T06:38:21.860Z</time>
      </trkpt>
      <trkpt lat="38.47694" lon="38.97793">
        <ele>1224.302907</ele>
        <time>2021-11-17T06:38:46.406Z</time>
      </trkpt>
      <trkpt lat="38.477" lon="38.97606">
        <ele>1222.739872</ele>
        <time>2021-11-17T06:39:17.438Z</time>
      </trkpt>
      <trkpt lat="38.47706" lon="38.97429">
        <ele>1219.698961</ele>
        <time>2021-11-17T06:39:42.368Z</time>
      </trkpt>
      <trkpt lat="38.47728" lon="38.96576">
        <ele>1186.394655</ele>
        <time>2021-11-17T06:41:22.694Z</time>
      </trkpt>
      <trkpt lat="38.47738" lon="38.96216">
        <ele>1170.50935</ele>
        <time>2021-11-17T06:42:04.308Z</time>
      </trkpt>
      <trkpt lat="38.47743" lon="38.96032">
        <ele>1163.007323</ele>
        <time>2021-11-17T06:42:26.134Z</time>
      </trkpt>
      <trkpt lat="38.47746" lon="38.95956">
        <ele>1160.100363</ele>
        <time>2021-11-17T06:42:35.114Z</time>
      </trkpt>
      <trkpt lat="38.47734" lon="38.9583">
        <ele>1155.469199</ele>
        <time>2021-11-17T06:42:50.137Z</time>
      </trkpt>
      <trkpt lat="38.47724" lon="38.95781">
        <ele>1153.914312</ele>
        <time>2021-11-17T06:42:56.226Z</time>
      </trkpt>
      <trkpt lat="38.47715" lon="38.95738">
        <ele>1152.516422</ele>
        <time>2021-11-17T06:43:01.805Z</time>
      </trkpt>
      <trkpt lat="38.47701" lon="38.95677">
        <ele>1150.585352</ele>
        <time>2021-11-17T06:43:09.623Z</time>
      </trkpt>
      <trkpt lat="38.47654" lon="38.95556">
        <ele>1147.284267</ele>
        <time>2021-11-17T06:43:27.184Z</time>
      </trkpt>
      <trkpt lat="38.47635" lon="38.95457">
        <ele>1145.063189</ele>
        <time>2021-11-17T06:43:40.861Z</time>
      </trkpt>
      <trkpt lat="38.47627" lon="38.95376">
        <ele>1142.977743</ele>
        <time>2021-11-17T06:43:51.376Z</time>
      </trkpt>
      <trkpt lat="38.47632" lon="38.95203">
        <ele>1138.089837</ele>
        <time>2021-11-17T06:44:12.885Z</time>
      </trkpt>
      <trkpt lat="38.47656" lon="38.94805">
        <ele>1124.117466</ele>
        <time>2021-11-17T06:45:00.906Z</time>
      </trkpt>
      <trkpt lat="38.47688" lon="38.94361">
        <ele>1109.076804</ele>
        <time>2021-11-17T06:45:55.030Z</time>
      </trkpt>
      <trkpt lat="38.47707" lon="38.94153">
        <ele>1101.656087</ele>
        <time>2021-11-17T06:46:20.469Z</time>
      </trkpt>
      <trkpt lat="38.47708" lon="38.94136">
        <ele>1101.054635</ele>
        <time>2021-11-17T06:46:22.415Z</time>
      </trkpt>
      <trkpt lat="38.47715" lon="38.94038">
        <ele>1097.43032</ele>
        <time>2021-11-17T06:46:34.074Z</time>
      </trkpt>
      <trkpt lat="38.47715" lon="38.93871">
        <ele>1091.240828</ele>
        <time>2021-11-17T06:46:53.660Z</time>
      </trkpt>
      <trkpt lat="38.47709" lon="38.93718">
        <ele>1087.133165</ele>
        <time>2021-11-17T06:47:12.957Z</time>
      </trkpt>
      <trkpt lat="38.47688" lon="38.93407">
        <ele>1080.77208</ele>
        <time>2021-11-17T06:47:55.481Z</time>
      </trkpt>
      <trkpt lat="38.47672" lon="38.93187">
        <ele>1074.635222</ele>
        <time>2021-11-17T06:48:23.294Z</time>
      </trkpt>
      <trkpt lat="38.47644" lon="38.92833">
        <ele>1060.791899</ele>
        <time>2021-11-17T06:49:05.136Z</time>
      </trkpt>
      <trkpt lat="38.47626" lon="38.92608">
        <ele>1051.170278</ele>
        <time>2021-11-17T06:49:31.505Z</time>
      </trkpt>
      <trkpt lat="38.47608" lon="38.92314">
        <ele>1037.865239</ele>
        <time>2021-11-17T06:50:05.708Z</time>
      </trkpt>
      <trkpt lat="38.47587" lon="38.9213">
        <ele>1030.116322</ele>
        <time>2021-11-17T06:50:26.904Z</time>
      </trkpt>
      <trkpt lat="38.4758" lon="38.92065">
        <ele>1027.613527</ele>
        <time>2021-11-17T06:50:34.820Z</time>
      </trkpt>
      <trkpt lat="38.47574" lon="38.92031">
        <ele>1026.323252</ele>
        <time>2021-11-17T06:50:38.994Z</time>
      </trkpt>
      <trkpt lat="38.47558" lon="38.91931">
        <ele>1023.799413</ele>
        <time>2021-11-17T06:50:52.330Z</time>
      </trkpt>
      <trkpt lat="38.47527" lon="38.91771">
        <ele>1020.890563</ele>
        <time>2021-11-17T06:51:15.558Z</time>
      </trkpt>
      <trkpt lat="38.47515" lon="38.91721">
        <ele>1019.488641</ele>
        <time>2021-11-17T06:51:22.581Z</time>
      </trkpt>
      <trkpt lat="38.47491" lon="38.91626">
        <ele>1016.778251</ele>
        <time>2021-11-17T06:51:35.255Z</time>
      </trkpt>
      <trkpt lat="38.47466" lon="38.91535">
        <ele>1013.907746</ele>
        <time>2021-11-17T06:51:46.889Z</time>
      </trkpt>
      <trkpt lat="38.47448" lon="38.9148">
        <ele>1011.460766</ele>
        <time>2021-11-17T06:51:53.896Z</time>
      </trkpt>
      <trkpt lat="38.47422" lon="38.91398">
        <ele>1007.855092</ele>
        <time>2021-11-17T06:52:04.272Z</time>
      </trkpt>
      <trkpt lat="38.47268" lon="38.90987">
        <ele>987.840928</ele>
        <time>2021-11-17T06:52:56.871Z</time>
      </trkpt>
      <trkpt lat="38.47107" lon="38.90555">
        <ele>971.855919</ele>
        <time>2021-11-17T06:53:54.471Z</time>
      </trkpt>
      <trkpt lat="38.4702" lon="38.90328">
        <ele>969.732476</ele>
        <time>2021-11-17T06:54:34.342Z</time>
      </trkpt>
      <trkpt lat="38.46974" lon="38.90207">
        <ele>969.968183</ele>
        <time>2021-11-17T06:55:02.195Z</time>
      </trkpt>
      <trkpt lat="38.46931" lon="38.90082">
        <ele>970.05417</ele>
        <time>2021-11-17T06:55:28.181Z</time>
      </trkpt>
      <trkpt lat="38.46861" lon="38.89893">
        <ele>966.880646</ele>
        <time>2021-11-17T06:55:56.717Z</time>
      </trkpt>
      <trkpt lat="38.46856" lon="38.8988">
        <ele>966.458803</ele>
        <time>2021-11-17T06:55:58.477Z</time>
      </trkpt>
      <trkpt lat="38.46352" lon="38.8854">
        <ele>917.472823</ele>
        <time>2021-11-17T06:58:59.472Z</time>
      </trkpt>
      <trkpt lat="38.46333" lon="38.88487">
        <ele>915.389906</ele>
        <time>2021-11-17T06:59:06.419Z</time>
      </trkpt>
      <trkpt lat="38.46303" lon="38.88394">
        <ele>911.232289</ele>
        <time>2021-11-17T06:59:18.348Z</time>
      </trkpt>
      <trkpt lat="38.46256" lon="38.88257">
        <ele>904.086824</ele>
        <time>2021-11-17T06:59:35.516Z</time>
      </trkpt>
      <trkpt lat="38.46221" lon="38.88143">
        <ele>896.580429</ele>
        <time>2021-11-17T06:59:49.028Z</time>
      </trkpt>
      <trkpt lat="38.46212" lon="38.88107">
        <ele>894.048489</ele>
        <time>2021-11-17T06:59:53.102Z</time>
      </trkpt>
      <trkpt lat="38.46176" lon="38.87952">
        <ele>883.353039</ele>
        <time>2021-11-17T07:00:10.547Z</time>
      </trkpt>
      <trkpt lat="38.46173" lon="38.8793">
        <ele>881.889185</ele>
        <time>2021-11-17T07:00:12.908Z</time>
      </trkpt>
      <trkpt lat="38.46153" lon="38.87815">
        <ele>874.210707</ele>
        <time>2021-11-17T07:00:25.897Z</time>
      </trkpt>
      <trkpt lat="38.46138" lon="38.87701">
        <ele>867.576833</ele>
        <time>2021-11-17T07:00:38.661Z</time>
      </trkpt>
      <trkpt lat="38.46123" lon="38.87519">
        <ele>858.118646</ele>
        <time>2021-11-17T07:00:59.418Z</time>
      </trkpt>
      <trkpt lat="38.46116" lon="38.87385">
        <ele>852.601931</ele>
        <time>2021-11-17T07:01:15.053Z</time>
      </trkpt>
      <trkpt lat="38.46119" lon="38.872">
        <ele>846.4516</ele>
        <time>2021-11-17T07:01:37.789Z</time>
      </trkpt>
      <trkpt lat="38.46117" lon="38.87128">
        <ele>844.312457</ele>
        <time>2021-11-17T07:01:46.940Z</time>
      </trkpt>
      <trkpt lat="38.4608" lon="38.86789">
        <ele>834.40313</ele>
        <time>2021-11-17T07:02:29.928Z</time>
      </trkpt>
      <trkpt lat="38.4606" lon="38.86689">
        <ele>831.057215</ele>
        <time>2021-11-17T07:02:42.452Z</time>
      </trkpt>
      <trkpt lat="38.4604" lon="38.86625">
        <ele>828.695797</ele>
        <time>2021-11-17T07:02:50.607Z</time>
      </trkpt>
      <trkpt lat="38.46024" lon="38.86576">
        <ele>826.651214</ele>
        <time>2021-11-17T07:02:56.929Z</time>
      </trkpt>
      <trkpt lat="38.45983" lon="38.86461">
        <ele>821.773292</ele>
        <time>2021-11-17T07:03:11.835Z</time>
      </trkpt>
      <trkpt lat="38.45931" lon="38.8631">
        <ele>816.087037</ele>
        <time>2021-11-17T07:03:31.524Z</time>
      </trkpt>
      <trkpt lat="38.45889" lon="38.86193">
        <ele>812.482707</ele>
        <time>2021-11-17T07:03:47.380Z</time>
      </trkpt>
      <trkpt lat="38.45828" lon="38.86011">
        <ele>809.326024</ele>
        <time>2021-11-17T07:04:15.950Z</time>
      </trkpt>
      <trkpt lat="38.45737" lon="38.85731">
        <ele>804.708102</ele>
        <time>2021-11-17T07:04:58.526Z</time>
      </trkpt>
      <trkpt lat="38.45733" lon="38.85714">
        <ele>804.373607</ele>
        <time>2021-11-17T07:05:00.634Z</time>
      </trkpt>
      <trkpt lat="38.4571" lon="38.85658">
        <ele>803.128297</ele>
        <time>2021-11-17T07:05:08.889Z</time>
      </trkpt>
      <trkpt lat="38.45706" lon="38.85648">
        <ele>802.906101</ele>
        <time>2021-11-17T07:05:10.342Z</time>
      </trkpt>
      <trkpt lat="38.45698" lon="38.85633">
        <ele>802.566554</ele>
        <time>2021-11-17T07:05:12.523Z</time>
      </trkpt>
      <trkpt lat="38.45596" lon="38.8543">
        <ele>798.10755</ele>
        <time>2021-11-17T07:05:45.087Z</time>
      </trkpt>
      <trkpt lat="38.45483" lon="38.85233">
        <ele>792.611384</ele>
        <time>2021-11-17T07:06:18.088Z</time>
      </trkpt>
      <trkpt lat="38.45406" lon="38.85106">
        <ele>784.188239</ele>
        <time>2021-11-17T07:06:36.210Z</time>
      </trkpt>
      <trkpt lat="38.45309" lon="38.8493">
        <ele>773.834564</ele>
        <time>2021-11-17T07:06:59.521Z</time>
      </trkpt>
      <trkpt lat="38.45278" lon="38.84881">
        <ele>771.067719</ele>
        <time>2021-11-17T07:07:07.222Z</time>
      </trkpt>
      <trkpt lat="38.45281" lon="38.84871">
        <ele>770.626952</ele>
        <time>2021-11-17T07:07:09.139Z</time>
      </trkpt>
      <trkpt lat="38.45281" lon="38.84861">
        <ele>770.18272</ele>
        <time>2021-11-17T07:07:10.558Z</time>
      </trkpt>
      <trkpt lat="38.45279" lon="38.84852">
        <ele>769.739522</ele>
        <time>2021-11-17T07:07:12.498Z</time>
      </trkpt>
      <trkpt lat="38.45274" lon="38.84844">
        <ele>769.912327</ele>
        <time>2021-11-17T07:07:14.035Z</time>
      </trkpt>
      <trkpt lat="38.45184" lon="38.84629">
        <ele>775.77949</ele>
        <time>2021-11-17T07:08:32.768Z</time>
      </trkpt>
      <trkpt lat="38.45026" lon="38.84243">
        <ele>775.36382</ele>
        <time>2021-11-17T07:09:46.309Z</time>
      </trkpt>
      <trkpt lat="38.44706" lon="38.83456">
        <ele>762.201389</ele>
        <time>2021-11-17T07:11:54.834Z</time>
      </trkpt>
      <trkpt lat="38.44448" lon="38.82841">
        <ele>751.5896</ele>
        <time>2021-11-17T07:13:35.989Z</time>
      </trkpt>
      <trkpt lat="38.44317" lon="38.82513">
        <ele>746.01637</ele>
        <time>2021-11-17T07:14:29.393Z</time>
      </trkpt>
      <trkpt lat="38.44196" lon="38.82183">
        <ele>741.27658</ele>
        <time>2021-11-17T07:15:23.207Z</time>
      </trkpt>
      <trkpt lat="38.44148" lon="38.82071">
        <ele>740.459627</ele>
        <time>2021-11-17T07:15:42.763Z</time>
      </trkpt>
      <trkpt lat="38.44102" lon="38.8194">
        <ele>739.394176</ele>
        <time>2021-11-17T07:16:06.464Z</time>
      </trkpt>
      <trkpt lat="38.43949" lon="38.81535">
        <ele>733.127822</ele>
        <time>2021-11-17T07:17:11.552Z</time>
      </trkpt>
      <trkpt lat="38.43929" lon="38.81492">
        <ele>731.17811</ele>
        <time>2021-11-17T07:17:17.487Z</time>
      </trkpt>
      <trkpt lat="38.43894" lon="38.81419">
        <ele>727.879707</ele>
        <time>2021-11-17T07:17:27.238Z</time>
      </trkpt>
      <trkpt lat="38.43843" lon="38.81344">
        <ele>723.908684</ele>
        <time>2021-11-17T07:17:38.233Z</time>
      </trkpt>
      <trkpt lat="38.43802" lon="38.81306">
        <ele>721.250357</ele>
        <time>2021-11-17T07:17:45.742Z</time>
      </trkpt>
      <trkpt lat="38.43728" lon="38.81261">
        <ele>716.983189</ele>
        <time>2021-11-17T07:17:58.561Z</time>
      </trkpt>
      <trkpt lat="38.4369" lon="38.81238">
        <ele>716.076873</ele>
        <time>2021-11-17T07:18:05.372Z</time>
      </trkpt>
      <trkpt lat="38.43602" lon="38.81184">
        <ele>714.238245</ele>
        <time>2021-11-17T07:18:21.609Z</time>
      </trkpt>
      <trkpt lat="38.43468" lon="38.81136">
        <ele>716.032947</ele>
        <time>2021-11-17T07:19:00.910Z</time>
      </trkpt>
      <trkpt lat="38.43396" lon="38.8111">
        <ele>718.074819</ele>
        <time>2021-11-17T07:19:29.118Z</time>
      </trkpt>
      <trkpt lat="38.43191" lon="38.80963">
        <ele>728.94231</ele>
        <time>2021-11-17T07:21:13.870Z</time>
      </trkpt>
      <trkpt lat="38.42949" lon="38.80814">
        <ele>733.983996</ele>
        <time>2021-11-17T07:22:26.702Z</time>
      </trkpt>
      <trkpt lat="38.42841" lon="38.80704">
        <ele>735.917502</ele>
        <time>2021-11-17T07:23:05.448Z</time>
      </trkpt>
      <trkpt lat="38.42755" lon="38.80584">
        <ele>737.485646</ele>
        <time>2021-11-17T07:23:41.886Z</time>
      </trkpt>
      <trkpt lat="38.42554" lon="38.80189">
        <ele>739.199704</ele>
        <time>2021-11-17T07:25:10.641Z</time>
      </trkpt>
      <trkpt lat="38.42378" lon="38.79829">
        <ele>739.076065</ele>
        <time>2021-11-17T07:26:20.403Z</time>
      </trkpt>
      <trkpt lat="38.42335" lon="38.79696">
        <ele>740.994519</ele>
        <time>2021-11-17T07:26:52.121Z</time>
      </trkpt>
      <trkpt lat="38.42278" lon="38.79389">
        <ele>748.384575</ele>
        <time>2021-11-17T07:28:22.744Z</time>
      </trkpt>
      <trkpt lat="38.42263" lon="38.79298">
        <ele>749.644106</ele>
        <time>2021-11-17T07:28:45.693Z</time>
      </trkpt>
      <trkpt lat="38.42248" lon="38.79205">
        <ele>750.925544</ele>
        <time>2021-11-17T07:29:06.045Z</time>
      </trkpt>
      <trkpt lat="38.4221" lon="38.78976">
        <ele>749.660411</ele>
        <time>2021-11-17T07:29:41.713Z</time>
      </trkpt>
      <trkpt lat="38.42193" lon="38.78874">
        <ele>748.477955</ele>
        <time>2021-11-17T07:29:56.406Z</time>
      </trkpt>
      <trkpt lat="38.42177" lon="38.78776">
        <ele>747.305154</ele>
        <time>2021-11-17T07:30:10.394Z</time>
      </trkpt>
      <trkpt lat="38.42149" lon="38.78596">
        <ele>746.240942</ele>
        <time>2021-11-17T07:30:38.908Z</time>
      </trkpt>
      <trkpt lat="38.42135" lon="38.78511">
        <ele>745.873708</ele>
        <time>2021-11-17T07:30:53.830Z</time>
      </trkpt>
      <trkpt lat="38.42088" lon="38.78218">
        <ele>745.42369</ele>
        <time>2021-11-17T07:31:44.684Z</time>
      </trkpt>
      <trkpt lat="38.42087" lon="38.78208">
        <ele>745.398914</ele>
        <time>2021-11-17T07:31:46.407Z</time>
      </trkpt>
      <trkpt lat="38.42083" lon="38.78185">
        <ele>745.343225</ele>
        <time>2021-11-17T07:31:50.300Z</time>
      </trkpt>
      <trkpt lat="38.42072" lon="38.78117">
        <ele>745.177972</ele>
        <time>2021-11-17T07:32:01.715Z</time>
      </trkpt>
      <trkpt lat="38.42041" lon="38.77922">
        <ele>744.423489</ele>
        <time>2021-11-17T07:32:33.499Z</time>
      </trkpt>
      <trkpt lat="38.4201" lon="38.77727">
        <ele>743.623513</ele>
        <time>2021-11-17T07:33:05.476Z</time>
      </trkpt>
      <trkpt lat="38.41974" lon="38.77537">
        <ele>743.139196</ele>
        <time>2021-11-17T07:33:37.034Z</time>
      </trkpt>
      <trkpt lat="38.41971" lon="38.77522">
        <ele>743.127884</ele>
        <time>2021-11-17T07:33:39.507Z</time>
      </trkpt>
      <trkpt lat="38.4193" lon="38.77378">
        <ele>743.216529</ele>
        <time>2021-11-17T07:34:06.700Z</time>
      </trkpt>
      <trkpt lat="38.4185" lon="38.77163">
        <ele>745.270939</ele>
        <time>2021-11-17T07:34:56.248Z</time>
      </trkpt>
      <trkpt lat="38.41724" lon="38.76923">
        <ele>748.993449</ele>
        <time>2021-11-17T07:36:04.893Z</time>
      </trkpt>
      <trkpt lat="38.41681" lon="38.76855">
        <ele>749.872765</ele>
        <time>2021-11-17T07:36:24.030Z</time>
      </trkpt>
      <trkpt lat="38.41631" lon="38.76792">
        <ele>749.963157</ele>
        <time>2021-11-17T07:36:40.249Z</time>
      </trkpt>
      <trkpt lat="38.41603" lon="38.76757">
        <ele>749.429868</ele>
        <time>2021-11-17T07:36:48.040Z</time>
      </trkpt>
      <trkpt lat="38.41543" lon="38.76681">
        <ele>748.276325</ele>
        <time>2021-11-17T07:37:03.093Z</time>
      </trkpt>
      <trkpt lat="38.41454" lon="38.76568">
        <ele>745.206287</ele>
        <time>2021-11-17T07:37:23.900Z</time>
      </trkpt>
      <trkpt lat="38.41417" lon="38.76521">
        <ele>743.798082</ele>
        <time>2021-11-17T07:37:32.528Z</time>
      </trkpt>
      <trkpt lat="38.41393" lon="38.7649">
        <ele>742.900821</ele>
        <time>2021-11-17T07:37:38.269Z</time>
      </trkpt>
      <trkpt lat="38.40977" lon="38.75949">
        <ele>729.567196</ele>
        <time>2021-11-17T07:39:20.789Z</time>
      </trkpt>
      <trkpt lat="38.40923" lon="38.75879">
        <ele>728.16377</ele>
        <time>2021-11-17T07:39:33.816Z</time>
      </trkpt>
      <trkpt lat="38.40921" lon="38.75876">
        <ele>728.120948</ele>
        <time>2021-11-17T07:39:34.149Z</time>
      </trkpt>
      <trkpt lat="38.40919" lon="38.75874">
        <ele>728.072276</ele>
        <time>2021-11-17T07:39:35.128Z</time>
      </trkpt>
      <trkpt lat="38.40898" lon="38.75846">
        <ele>727.509423</ele>
        <time>2021-11-17T07:39:40.741Z</time>
      </trkpt>
      <trkpt lat="38.40895" lon="38.75843">
        <ele>727.448518</ele>
        <time>2021-11-17T07:39:41.236Z</time>
      </trkpt>
      <trkpt lat="38.40894" lon="38.7584">
        <ele>727.40332</ele>
        <time>2021-11-17T07:39:42.548Z</time>
      </trkpt>
      <trkpt lat="38.40752" lon="38.75656">
        <ele>729.528317</ele>
        <time>2021-11-17T07:40:38.901Z</time>
      </trkpt>
      <trkpt lat="38.40725" lon="38.75619">
        <ele>729.894159</ele>
        <time>2021-11-17T07:40:50.872Z</time>
      </trkpt>
      <trkpt lat="38.40628" lon="38.75488">
        <ele>730.813347</ele>
        <time>2021-11-17T07:41:26.303Z</time>
      </trkpt>
      <trkpt lat="38.40601" lon="38.75447">
        <ele>730.527431</ele>
        <time>2021-11-17T07:41:34.446Z</time>
      </trkpt>
      <trkpt lat="38.40527" lon="38.75332">
        <ele>729.724624</ele>
        <time>2021-11-17T07:41:56.586Z</time>
      </trkpt>
      <trkpt lat="38.40426" lon="38.75148">
        <ele>728.722061</ele>
        <time>2021-11-17T07:42:31.898Z</time>
      </trkpt>
      <trkpt lat="38.40413" lon="38.75124">
        <ele>728.782184</ele>
        <time>2021-11-17T07:42:37.531Z</time>
      </trkpt>
      <trkpt lat="38.40322" lon="38.74957">
        <ele>729.311982</ele>
        <time>2021-11-17T07:43:16.700Z</time>
      </trkpt>
      <trkpt lat="38.40255" lon="38.74835">
        <ele>728.8149</ele>
        <time>2021-11-17T07:43:41.618Z</time>
      </trkpt>
      <trkpt lat="38.4015" lon="38.74638">
        <ele>727.579657</ele>
        <time>2021-11-17T07:44:17.671Z</time>
      </trkpt>
      <trkpt lat="38.40026" lon="38.74404">
        <ele>726.514537</ele>
        <time>2021-11-17T07:45:04.261Z</time>
      </trkpt>
      <trkpt lat="38.39955" lon="38.7427">
        <ele>725.6177</ele>
        <time>2021-11-17T07:45:29.810Z</time>
      </trkpt>
      <trkpt lat="38.39861" lon="38.74093">
        <ele>724.297132</ele>
        <time>2021-11-17T07:46:02.209Z</time>
      </trkpt>
      <trkpt lat="38.39814" lon="38.74005">
        <ele>723.650577</ele>
        <time>2021-11-17T07:46:18.814Z</time>
      </trkpt>
      <trkpt lat="38.39547" lon="38.73503">
        <ele>723.053843</ele>
        <time>2021-11-17T07:48:02.628Z</time>
      </trkpt>
      <trkpt lat="38.39314" lon="38.73066">
        <ele>723.130475</ele>
        <time>2021-11-17T07:49:34.947Z</time>
      </trkpt>
      <trkpt lat="38.3931" lon="38.73057">
        <ele>723.137668</ele>
        <time>2021-11-17T07:49:37.047Z</time>
      </trkpt>
      <trkpt lat="38.38965" lon="38.72404">
        <ele>723.775048</ele>
        <time>2021-11-17T07:51:58.480Z</time>
      </trkpt>
      <trkpt lat="38.38889" lon="38.72233">
        <ele>723.089778</ele>
        <time>2021-11-17T07:52:29.038Z</time>
      </trkpt>
      <trkpt lat="38.38871" lon="38.72182">
        <ele>722.819927</ele>
        <time>2021-11-17T07:52:37.691Z</time>
      </trkpt>
      <trkpt lat="38.38844" lon="38.72095">
        <ele>722.365491</ele>
        <time>2021-11-17T07:52:52.696Z</time>
      </trkpt>
      <trkpt lat="38.3881" lon="38.71986">
        <ele>722.020625</ele>
        <time>2021-11-17T07:53:12.358Z</time>
      </trkpt>
      <trkpt lat="38.38756" lon="38.71723">
        <ele>721.252836</ele>
        <time>2021-11-17T07:53:57.344Z</time>
      </trkpt>
      <trkpt lat="38.38739" lon="38.71584">
        <ele>720.925329</ele>
        <time>2021-11-17T07:54:19.861Z</time>
      </trkpt>
      <trkpt lat="38.3873" lon="38.71441">
        <ele>720.694966</ele>
        <time>2021-11-17T07:54:43.927Z</time>
      </trkpt>
      <trkpt lat="38.3873" lon="38.71378">
        <ele>720.818835</ele>
        <time>2021-11-17T07:54:55.356Z</time>
      </trkpt>
      <trkpt lat="38.38727" lon="38.71068">
        <ele>722.203642</ele>
        <time>2021-11-17T07:55:55.949Z</time>
      </trkpt>
      <trkpt lat="38.38728" lon="38.70279">
        <ele>725.124331</ele>
        <time>2021-11-17T07:58:25.709Z</time>
      </trkpt>
      <trkpt lat="38.38729" lon="38.69958">
        <ele>724.398407</ele>
        <time>2021-11-17T07:59:19.799Z</time>
      </trkpt>
      <trkpt lat="38.3873" lon="38.69379">
        <ele>720.895933</ele>
        <time>2021-11-17T08:00:47.736Z</time>
      </trkpt>
      <trkpt lat="38.3873" lon="38.69367">
        <ele>720.827788</ele>
        <time>2021-11-17T08:00:49.718Z</time>
      </trkpt>
      <trkpt lat="38.3873" lon="38.69344">
        <ele>720.780815</ele>
        <time>2021-11-17T08:00:53.745Z</time>
      </trkpt>
      <trkpt lat="38.38734" lon="38.68318">
        <ele>727.881871</ele>
        <time>2021-11-17T08:04:21.101Z</time>
      </trkpt>
      <trkpt lat="38.38736" lon="38.679">
        <ele>732.412818</ele>
        <time>2021-11-17T08:05:54.185Z</time>
      </trkpt>
      <trkpt lat="38.38736" lon="38.67853">
        <ele>732.861724</ele>
        <time>2021-11-17T08:06:04.214Z</time>
      </trkpt>
      <trkpt lat="38.38737" lon="38.67612">
        <ele>734.988064</ele>
        <time>2021-11-17T08:06:53.942Z</time>
      </trkpt>
      <trkpt lat="38.38738" lon="38.6708">
        <ele>739.223122</ele>
        <time>2021-11-17T08:08:44.057Z</time>
      </trkpt>
      <trkpt lat="38.38738" lon="38.67043">
        <ele>739.490657</ele>
        <time>2021-11-17T08:08:51.240Z</time>
      </trkpt>
      <trkpt lat="38.38739" lon="38.66537">
        <ele>743.809954</ele>
        <time>2021-11-17T08:10:32.417Z</time>
      </trkpt>
      <trkpt lat="38.38739" lon="38.65965">
        <ele>756.762749</ele>
        <time>2021-11-17T08:13:07.635Z</time>
      </trkpt>
      <trkpt lat="38.38733" lon="38.65805">
        <ele>761.112492</ele>
        <time>2021-11-17T08:13:52.948Z</time>
      </trkpt>
      <trkpt lat="38.38732" lon="38.65789">
        <ele>761.578453</ele>
        <time>2021-11-17T08:13:57.990Z</time>
      </trkpt>
      <trkpt lat="38.38727" lon="38.65713">
        <ele>763.711797</ele>
        <time>2021-11-17T08:14:19.577Z</time>
      </trkpt>
      <trkpt lat="38.38417" lon="38.63479">
        <ele>832.583809</ele>
        <time>2021-11-17T08:25:31.970Z</time>
      </trkpt>
      <trkpt lat="38.38377" lon="38.63212">
        <ele>839.810053</ele>
        <time>2021-11-17T08:26:48.160Z</time>
      </trkpt>
      <trkpt lat="38.3834" lon="38.63001">
        <ele>844.737306</ele>
        <time>2021-11-17T08:27:45.982Z</time>
      </trkpt>
      <trkpt lat="38.38302" lon="38.62833">
        <ele>848.019221</ele>
        <time>2021-11-17T08:28:28.634Z</time>
      </trkpt>
      <trkpt lat="38.38247" lon="38.62636">
        <ele>852.055487</ele>
        <time>2021-11-17T08:29:20.205Z</time>
      </trkpt>
      <trkpt lat="38.38132" lon="38.623">
        <ele>858.398778</ele>
        <time>2021-11-17T08:30:57.466Z</time>
      </trkpt>
      <trkpt lat="38.37375" lon="38.60498">
        <ele>829.739591</ele>
        <time>2021-11-17T08:35:42.544Z</time>
      </trkpt>
      <trkpt lat="38.37286" lon="38.60324">
        <ele>823.152264</ele>
        <time>2021-11-17T08:36:07.719Z</time>
      </trkpt>
      <trkpt lat="38.37253" lon="38.6026">
        <ele>820.95973</ele>
        <time>2021-11-17T08:36:16.921Z</time>
      </trkpt>
      <trkpt lat="38.36766" lon="38.59315">
        <ele>789.492958</ele>
        <time>2021-11-17T08:38:39.191Z</time>
      </trkpt>
      <trkpt lat="38.36705" lon="38.59188">
        <ele>785.64525</ele>
        <time>2021-11-17T08:38:58.120Z</time>
      </trkpt>
      <trkpt lat="38.36636" lon="38.58972">
        <ele>779.701837</ele>
        <time>2021-11-17T08:39:28.092Z</time>
      </trkpt>
      <trkpt lat="38.36612" lon="38.58837">
        <ele>775.669036</ele>
        <time>2021-11-17T08:39:45.532Z</time>
      </trkpt>
      <trkpt lat="38.36602" lon="38.58722">
        <ele>772.215207</ele>
        <time>2021-11-17T08:39:59.577Z</time>
      </trkpt>
      <trkpt lat="38.36592" lon="38.58378">
        <ele>764.414817</ele>
        <time>2021-11-17T08:40:41.730Z</time>
      </trkpt>
      <trkpt lat="38.3659" lon="38.58279">
        <ele>764.131088</ele>
        <time>2021-11-17T08:41:03.086Z</time>
      </trkpt>
      <trkpt lat="38.36584" lon="38.58001">
        <ele>778.39746</ele>
        <time>2021-11-17T08:42:55.638Z</time>
      </trkpt>
      <trkpt lat="38.36577" lon="38.57871">
        <ele>786.53401</ele>
        <time>2021-11-17T08:43:53.792Z</time>
      </trkpt>
      <trkpt lat="38.36558" lon="38.5777">
        <ele>792.547654</ele>
        <time>2021-11-17T08:44:36.511Z</time>
      </trkpt>
      <trkpt lat="38.3653" lon="38.57664">
        <ele>798.120967</ele>
        <time>2021-11-17T08:45:18.986Z</time>
      </trkpt>
      <trkpt lat="38.3633" lon="38.5708">
        <ele>824.773611</ele>
        <time>2021-11-17T08:48:57.114Z</time>
      </trkpt>
      <trkpt lat="38.36287" lon="38.56968">
        <ele>829.083463</ele>
        <time>2021-11-17T08:49:34.933Z</time>
      </trkpt>
      <trkpt lat="38.3621" lon="38.5681">
        <ele>832.702761</ele>
        <time>2021-11-17T08:50:22.070Z</time>
      </trkpt>
      <trkpt lat="38.3605" lon="38.56515">
        <ele>837.88664</ele>
        <time>2021-11-17T08:51:39.864Z</time>
      </trkpt>
      <trkpt lat="38.3603" lon="38.56479">
        <ele>838.85387</ele>
        <time>2021-11-17T08:51:51.517Z</time>
      </trkpt>
      <trkpt lat="38.35975" lon="38.56369">
        <ele>841.976186</ele>
        <time>2021-11-17T08:52:28.985Z</time>
      </trkpt>
      <trkpt lat="38.35933" lon="38.56261">
        <ele>846.254357</ele>
        <time>2021-11-17T08:53:07.202Z</time>
      </trkpt>
      <trkpt lat="38.35787" lon="38.55719">
        <ele>868.52673</ele>
        <time>2021-11-17T08:56:17.458Z</time>
      </trkpt>
      <trkpt lat="38.35771" lon="38.55682">
        <ele>870.212038</ele>
        <time>2021-11-17T08:56:31.742Z</time>
      </trkpt>
      <trkpt lat="38.35746" lon="38.55622">
        <ele>872.896137</ele>
        <time>2021-11-17T08:56:54.294Z</time>
      </trkpt>
      <trkpt lat="38.35696" lon="38.55536">
        <ele>877.177084</ele>
        <time>2021-11-17T08:57:30.569Z</time>
      </trkpt>
      <trkpt lat="38.35648" lon="38.55477">
        <ele>880.456012</ele>
        <time>2021-11-17T08:57:57.650Z</time>
      </trkpt>
      <trkpt lat="38.3545" lon="38.55309">
        <ele>892.447737</ele>
        <time>2021-11-17T08:59:38.561Z</time>
      </trkpt>
      <trkpt lat="38.35338" lon="38.55206">
        <ele>899.674045</ele>
        <time>2021-11-17T09:00:38.650Z</time>
      </trkpt>
      <trkpt lat="38.35244" lon="38.55104">
        <ele>906.130435</ele>
        <time>2021-11-17T09:01:32.432Z</time>
      </trkpt>
      <trkpt lat="38.35164" lon="38.55005">
        <ele>911.719947</ele>
        <time>2021-11-17T09:02:19.568Z</time>
      </trkpt>
      <trkpt lat="38.35082" lon="38.54893">
        <ele>917.617844</ele>
        <time>2021-11-17T09:03:08.968Z</time>
      </trkpt>
      <trkpt lat="38.35003" lon="38.54771">
        <ele>923.867984</ele>
        <time>2021-11-17T09:04:01.327Z</time>
      </trkpt>
      <trkpt lat="38.34912" lon="38.54593">
        <ele>932.898044</ele>
        <time>2021-11-17T09:05:14.953Z</time>
      </trkpt>
      <trkpt lat="38.34595" lon="38.53818">
        <ele>972.227014</ele>
        <time>2021-11-17T09:10:25.128Z</time>
      </trkpt>
      <trkpt lat="38.34498" lon="38.53615">
        <ele>983.033589</ele>
        <time>2021-11-17T09:11:50.176Z</time>
      </trkpt>
      <trkpt lat="38.34433" lon="38.53506">
        <ele>989.145682</ele>
        <time>2021-11-17T09:12:38.104Z</time>
      </trkpt>
      <trkpt lat="38.34361" lon="38.534">
        <ele>995.577339</ele>
        <time>2021-11-17T09:13:27.275Z</time>
      </trkpt>
      <trkpt lat="38.33618" lon="38.52362">
        <ele>1065.97765</ele>
        <time>2021-11-17T09:22:12.573Z</time>
      </trkpt>
      <trkpt lat="38.33518" lon="38.52234">
        <ele>1076.733767</ele>
        <time>2021-11-17T09:23:30.592Z</time>
      </trkpt>
      <trkpt lat="38.33435" lon="38.52142">
        <ele>1085.184692</ele>
        <time>2021-11-17T09:24:32.387Z</time>
      </trkpt>
      <trkpt lat="38.33249" lon="38.5197">
        <ele>1098.988238</ele>
        <time>2021-11-17T09:26:19.579Z</time>
      </trkpt>
      <trkpt lat="38.33198" lon="38.5191">
        <ele>1098.980633</ele>
        <time>2021-11-17T09:26:38.947Z</time>
      </trkpt>
      <trkpt lat="38.3315" lon="38.51839">
        <ele>1098.853742</ele>
        <time>2021-11-17T09:26:53.016Z</time>
      </trkpt>
      <trkpt lat="38.33117" lon="38.51772">
        <ele>1097.826045</ele>
        <time>2021-11-17T09:27:03.133Z</time>
      </trkpt>
      <trkpt lat="38.33092" lon="38.51691">
        <ele>1094.917878</ele>
        <time>2021-11-17T09:27:13.834Z</time>
      </trkpt>
      <trkpt lat="38.33075" lon="38.51612">
        <ele>1092.212725</ele>
        <time>2021-11-17T09:27:23.663Z</time>
      </trkpt>
      <trkpt lat="38.33068" lon="38.51526">
        <ele>1088.864111</ele>
        <time>2021-11-17T09:27:33.787Z</time>
      </trkpt>
      <trkpt lat="38.33072" lon="38.51442">
        <ele>1085.283203</ele>
        <time>2021-11-17T09:27:43.708Z</time>
      </trkpt>
      <trkpt lat="38.33076" lon="38.51419">
        <ele>1084.318337</ele>
        <time>2021-11-17T09:27:46.341Z</time>
      </trkpt>
      <trkpt lat="38.33086" lon="38.51359">
        <ele>1081.726561</ele>
        <time>2021-11-17T09:27:53.522Z</time>
      </trkpt>
      <trkpt lat="38.33199" lon="38.50797">
        <ele>1056.336906</ele>
        <time>2021-11-17T09:29:01.384Z</time>
      </trkpt>
      <trkpt lat="38.33205" lon="38.50756">
        <ele>1054.369027</ele>
        <time>2021-11-17T09:29:06.133Z</time>
      </trkpt>
      <trkpt lat="38.33228" lon="38.50601">
        <ele>1045.906614</ele>
        <time>2021-11-17T09:29:23.905Z</time>
      </trkpt>
      <trkpt lat="38.3324" lon="38.50446">
        <ele>1036.785226</ele>
        <time>2021-11-17T09:29:41.050Z</time>
      </trkpt>
      <trkpt lat="38.33246" lon="38.50252">
        <ele>1025.071671</ele>
        <time>2021-11-17T09:30:02.446Z</time>
      </trkpt>
      <trkpt lat="38.33241" lon="38.49932">
        <ele>1009.133198</ele>
        <time>2021-11-17T09:30:38.748Z</time>
      </trkpt>
      <trkpt lat="38.33233" lon="38.49593">
        <ele>998.061851</ele>
        <time>2021-11-17T09:31:20.783Z</time>
      </trkpt>
      <trkpt lat="38.33232" lon="38.49505">
        <ele>995.779184</ele>
        <time>2021-11-17T09:31:31.947Z</time>
      </trkpt>
      <trkpt lat="38.33228" lon="38.49346">
        <ele>992.170842</ele>
        <time>2021-11-17T09:31:52.800Z</time>
      </trkpt>
      <trkpt lat="38.33219" lon="38.488">
        <ele>979.805338</ele>
        <time>2021-11-17T09:33:04.686Z</time>
      </trkpt>
      <trkpt lat="38.33219" lon="38.48784">
        <ele>979.275861</ele>
        <time>2021-11-17T09:33:06.445Z</time>
      </trkpt>
      <trkpt lat="38.33226" lon="38.48637">
        <ele>974.428636</ele>
        <time>2021-11-17T09:33:24.067Z</time>
      </trkpt>
      <trkpt lat="38.33226" lon="38.4861">
        <ele>973.731912</ele>
        <time>2021-11-17T09:33:27.251Z</time>
      </trkpt>
      <trkpt lat="38.33209" lon="38.4783">
        <ele>958.513329</ele>
        <time>2021-11-17T09:35:11.185Z</time>
      </trkpt>
      <trkpt lat="38.33215" lon="38.47183">
        <ele>949.486892</ele>
        <time>2021-11-17T09:36:45.367Z</time>
      </trkpt>
      <trkpt lat="38.33222" lon="38.46451">
        <ele>929.714473</ele>
        <time>2021-11-17T09:38:15.699Z</time>
      </trkpt>
      <trkpt lat="38.33224" lon="38.46389">
        <ele>928.588712</ele>
        <time>2021-11-17T09:38:24.805Z</time>
      </trkpt>
      <trkpt lat="38.3324" lon="38.45957">
        <ele>927.293989</ele>
        <time>2021-11-17T09:39:39.861Z</time>
      </trkpt>
      <trkpt lat="38.33248" lon="38.45832">
        <ele>926.884045</ele>
        <time>2021-11-17T09:40:00.391Z</time>
      </trkpt>
      <trkpt lat="38.33263" lon="38.4572">
        <ele>926.11833</ele>
        <time>2021-11-17T09:40:17.694Z</time>
      </trkpt>
      <trkpt lat="38.33276" lon="38.45658">
        <ele>925.686797</ele>
        <time>2021-11-17T09:40:27.297Z</time>
      </trkpt>
      <trkpt lat="38.33297" lon="38.45611">
        <ele>925.353106</ele>
        <time>2021-11-17T09:40:35.413Z</time>
      </trkpt>
      <trkpt lat="38.33384" lon="38.45305">
        <ele>924.013482</ele>
        <time>2021-11-17T09:41:26.667Z</time>
      </trkpt>
      <trkpt lat="38.3339" lon="38.45284">
        <ele>923.977753</ele>
        <time>2021-11-17T09:41:30.593Z</time>
      </trkpt>
      <trkpt lat="38.33399" lon="38.45251">
        <ele>923.921461</ele>
        <time>2021-11-17T09:41:37.535Z</time>
      </trkpt>
      <trkpt lat="38.33443" lon="38.45098">
        <ele>924.545272</ele>
        <time>2021-11-17T09:42:08.849Z</time>
      </trkpt>
      <trkpt lat="38.33444" lon="38.45095">
        <ele>924.563624</ele>
        <time>2021-11-17T09:42:10.020Z</time>
      </trkpt>
      <trkpt lat="38.33489" lon="38.44947">
        <ele>925.041422</ele>
        <time>2021-11-17T09:42:40.616Z</time>
      </trkpt>
      <trkpt lat="38.33495" lon="38.44925">
        <ele>925.044746</ele>
        <time>2021-11-17T09:42:45.128Z</time>
      </trkpt>
      <trkpt lat="38.33532" lon="38.448">
        <ele>925.063149</ele>
        <time>2021-11-17T09:43:07.149Z</time>
      </trkpt>
      <trkpt lat="38.33579" lon="38.4464">
        <ele>924.597366</ele>
        <time>2021-11-17T09:43:35.191Z</time>
      </trkpt>
      <trkpt lat="38.33615" lon="38.44517">
        <ele>924.352853</ele>
        <time>2021-11-17T09:43:56.645Z</time>
      </trkpt>
      <trkpt lat="38.33647" lon="38.44379">
        <ele>924.221028</ele>
        <time>2021-11-17T09:44:21.601Z</time>
      </trkpt>
      <trkpt lat="38.33657" lon="38.44339">
        <ele>924.250206</ele>
        <time>2021-11-17T09:44:29.002Z</time>
      </trkpt>
      <trkpt lat="38.33657" lon="38.44336">
        <ele>924.257249</ele>
        <time>2021-11-17T09:44:29.681Z</time>
      </trkpt>
      <trkpt lat="38.33777" lon="38.43849">
        <ele>925.352542</ele>
        <time>2021-11-17T09:46:03.642Z</time>
      </trkpt>
      <trkpt lat="38.33844" lon="38.43589">
        <ele>925.645641</ele>
        <time>2021-11-17T09:46:52.719Z</time>
      </trkpt>
      <trkpt lat="38.33874" lon="38.43493">
        <ele>925.665551</ele>
        <time>2021-11-17T09:47:10.524Z</time>
      </trkpt>
      <trkpt lat="38.33885" lon="38.4346">
        <ele>925.561634</ele>
        <time>2021-11-17T09:47:16.616Z</time>
      </trkpt>
      <trkpt lat="38.33948" lon="38.43194">
        <ele>924.264175</ele>
        <time>2021-11-17T09:48:01.494Z</time>
      </trkpt>
      <trkpt lat="38.33953" lon="38.43175">
        <ele>924.102529</ele>
        <time>2021-11-17T09:48:04.571Z</time>
      </trkpt>
      <trkpt lat="38.3397" lon="38.43111">
        <ele>923.555107</ele>
        <time>2021-11-17T09:48:14.747Z</time>
      </trkpt>
      <trkpt lat="38.34031" lon="38.4289">
        <ele>920.703767</ele>
        <time>2021-11-17T09:48:47.830Z</time>
      </trkpt>
      <trkpt lat="38.3405" lon="38.42834">
        <ele>919.856673</ele>
        <time>2021-11-17T09:48:56.386Z</time>
      </trkpt>
      <trkpt lat="38.34063" lon="38.42794">
        <ele>919.199601</ele>
        <time>2021-11-17T09:49:02.363Z</time>
      </trkpt>
      <trkpt lat="38.34067" lon="38.42774">
        <ele>918.890325</ele>
        <time>2021-11-17T09:49:05.196Z</time>
      </trkpt>
      <trkpt lat="38.34083" lon="38.42687">
        <ele>917.531028</ele>
        <time>2021-11-17T09:49:17.460Z</time>
      </trkpt>
      <trkpt lat="38.34107" lon="38.42595">
        <ele>916.21812</ele>
        <time>2021-11-17T09:49:30.961Z</time>
      </trkpt>
      <trkpt lat="38.34135" lon="38.42482">
        <ele>915.184267</ele>
        <time>2021-11-17T09:49:47.733Z</time>
      </trkpt>
      <trkpt lat="38.34175" lon="38.42316">
        <ele>915.01089</ele>
        <time>2021-11-17T09:50:17.169Z</time>
      </trkpt>
      <trkpt lat="38.34188" lon="38.42262">
        <ele>915.384628</ele>
        <time>2021-11-17T09:50:28.590Z</time>
      </trkpt>
      <trkpt lat="38.34197" lon="38.42228">
        <ele>915.61686</ele>
        <time>2021-11-17T09:50:36.063Z</time>
      </trkpt>
      <trkpt lat="38.34241" lon="38.42057">
        <ele>919.100109</ele>
        <time>2021-11-17T09:51:20.449Z</time>
      </trkpt>
      <trkpt lat="38.34291" lon="38.41861">
        <ele>926.212455</ele>
        <time>2021-11-17T09:52:23.554Z</time>
      </trkpt>
      <trkpt lat="38.3436" lon="38.41589">
        <ele>939.55285</ele>
        <time>2021-11-17T09:54:15.723Z</time>
      </trkpt>
      <trkpt lat="38.34515" lon="38.40976">
        <ele>962.979732</ele>
        <time>2021-11-17T09:57:39.154Z</time>
      </trkpt>
      <trkpt lat="38.3452" lon="38.40957">
        <ele>963.631432</ele>
        <time>2021-11-17T09:57:46.133Z</time>
      </trkpt>
      <trkpt lat="38.34538" lon="38.40889">
        <ele>965.963843</ele>
        <time>2021-11-17T09:58:07.215Z</time>
      </trkpt>
      <trkpt lat="38.34589" lon="38.40702">
        <ele>969.827044</ele>
        <time>2021-11-17T09:58:59.828Z</time>
      </trkpt>
      <trkpt lat="38.3464" lon="38.40477">
        <ele>971.038083</ele>
        <time>2021-11-17T09:59:42.880Z</time>
      </trkpt>
      <trkpt lat="38.34652" lon="38.40421">
        <ele>971.126654</ele>
        <time>2021-11-17T09:59:52.101Z</time>
      </trkpt>
      <trkpt lat="38.34666" lon="38.40337">
        <ele>971.195433</ele>
        <time>2021-11-17T10:00:06.336Z</time>
      </trkpt>
      <trkpt lat="38.34682" lon="38.40238">
        <ele>971.276726</ele>
        <time>2021-11-17T10:00:24.199Z</time>
      </trkpt>
      <trkpt lat="38.34692" lon="38.40173">
        <ele>971.871209</ele>
        <time>2021-11-17T10:00:37.293Z</time>
      </trkpt>
      <trkpt lat="38.34694" lon="38.40155">
        <ele>972.145427</ele>
        <time>2021-11-17T10:00:41.096Z</time>
      </trkpt>
      <trkpt lat="38.34719" lon="38.39961">
        <ele>975.349251</ele>
        <time>2021-11-17T10:01:29.209Z</time>
      </trkpt>
      <trkpt lat="38.34745" lon="38.39755">
        <ele>980.738055</ele>
        <time>2021-11-17T10:02:28.148Z</time>
      </trkpt>
      <trkpt lat="38.34764" lon="38.39609">
        <ele>985.434228</ele>
        <time>2021-11-17T10:03:12.302Z</time>
      </trkpt>
      <trkpt lat="38.34795" lon="38.39382">
        <ele>993.413525</ele>
        <time>2021-11-17T10:04:24.619Z</time>
      </trkpt>
      <trkpt lat="38.34817" lon="38.39301">
        <ele>996.519279</ele>
        <time>2021-11-17T10:04:52.944Z</time>
      </trkpt>
      <trkpt lat="38.34916" lon="38.38997">
        <ele>1009.038924</ele>
        <time>2021-11-17T10:06:41.605Z</time>
      </trkpt>
      <trkpt lat="38.34946" lon="38.38865">
        <ele>1013.820971</ele>
        <time>2021-11-17T10:07:24.966Z</time>
      </trkpt>
      <trkpt lat="38.34953" lon="38.38806">
        <ele>1015.225452</ele>
        <time>2021-11-17T10:07:41.930Z</time>
      </trkpt>
      <trkpt lat="38.34953" lon="38.388">
        <ele>1015.369913</ele>
        <time>2021-11-17T10:07:44.173Z</time>
      </trkpt>
      <trkpt lat="38.34954" lon="38.38789">
        <ele>1015.628011</ele>
        <time>2021-11-17T10:07:46.906Z</time>
      </trkpt>
      <trkpt lat="38.34956" lon="38.38751">
        <ele>1016.520411</ele>
        <time>2021-11-17T10:07:57.369Z</time>
      </trkpt>
      <trkpt lat="38.34956" lon="38.38718">
        <ele>1017.296844</ele>
        <time>2021-11-17T10:08:05.378Z</time>
      </trkpt>
      <trkpt lat="38.34956" lon="38.38665">
        <ele>1018.552352</ele>
        <time>2021-11-17T10:08:18.498Z</time>
      </trkpt>
      <trkpt lat="38.34946" lon="38.38551">
        <ele>1020.320216</ele>
        <time>2021-11-17T10:08:44.669Z</time>
      </trkpt>
      <trkpt lat="38.34938" lon="38.38501">
        <ele>1021.056788</ele>
        <time>2021-11-17T10:08:55.572Z</time>
      </trkpt>
      <trkpt lat="38.34929" lon="38.38453">
        <ele>1021.758684</ele>
        <time>2021-11-17T10:09:06.446Z</time>
      </trkpt>
      <trkpt lat="38.34896" lon="38.38208">
        <ele>1026.783072</ele>
        <time>2021-11-17T10:10:11.357Z</time>
      </trkpt>
      <trkpt lat="38.34889" lon="38.37979">
        <ele>1031.18688</ele>
        <time>2021-11-17T10:11:10.625Z</time>
      </trkpt>
      <trkpt lat="38.3489" lon="38.3792">
        <ele>1031.372796</ele>
        <time>2021-11-17T10:11:22.953Z</time>
      </trkpt>
      <trkpt lat="38.34891" lon="38.37867">
        <ele>1031.432433</ele>
        <time>2021-11-17T10:11:33.232Z</time>
      </trkpt>
      <trkpt lat="38.34892" lon="38.37771">
        <ele>1031.539202</ele>
        <time>2021-11-17T10:11:48.757Z</time>
      </trkpt>
      <trkpt lat="38.34903" lon="38.37591">
        <ele>1030.223157</ele>
        <time>2021-11-17T10:12:15.023Z</time>
      </trkpt>
      <trkpt lat="38.34904" lon="38.37568">
        <ele>1030.020922</ele>
        <time>2021-11-17T10:12:18.164Z</time>
      </trkpt>
      <trkpt lat="38.34896" lon="38.37472">
        <ele>1029.502265</ele>
        <time>2021-11-17T10:12:33.632Z</time>
      </trkpt>
      <trkpt lat="38.34896" lon="38.37459">
        <ele>1029.491386</ele>
        <time>2021-11-17T10:12:36.157Z</time>
      </trkpt>
      <trkpt lat="38.34894" lon="38.3743">
        <ele>1029.465231</ele>
        <time>2021-11-17T10:12:40.698Z</time>
      </trkpt>
      <trkpt lat="38.34893" lon="38.37419">
        <ele>1029.455265</ele>
        <time>2021-11-17T10:12:43.060Z</time>
      </trkpt>
      <trkpt lat="38.34892" lon="38.37402">
        <ele>1029.439953</ele>
        <time>2021-11-17T10:12:46.258Z</time>
      </trkpt>
      <trkpt lat="38.34891" lon="38.3737">
        <ele>1029.41169</ele>
        <time>2021-11-17T10:12:51.944Z</time>
      </trkpt>
      <trkpt lat="38.34892" lon="38.37134">
        <ele>1029.128285</ele>
        <time>2021-11-17T10:13:33.371Z</time>
      </trkpt>
      <trkpt lat="38.34893" lon="38.3703">
        <ele>1028.984937</ele>
        <time>2021-11-17T10:13:49.414Z</time>
      </trkpt>
      <trkpt lat="38.34895" lon="38.36644">
        <ele>1028.956778</ele>
        <time>2021-11-17T10:14:56.108Z</time>
      </trkpt>
      <trkpt lat="38.34902" lon="38.36535">
        <ele>1029.443584</ele>
        <time>2021-11-17T10:15:18.356Z</time>
      </trkpt>
      <trkpt lat="38.34903" lon="38.36513">
        <ele>1029.592743</ele>
        <time>2021-11-17T10:15:23.051Z</time>
      </trkpt>
      <trkpt lat="38.34905" lon="38.36508">
        <ele>1029.628082</ele>
        <time>2021-11-17T10:15:24.251Z</time>
      </trkpt>
      <trkpt lat="38.34904" lon="38.36492">
        <ele>1029.733553</ele>
        <time>2021-11-17T10:15:27.290Z</time>
      </trkpt>
      <trkpt lat="38.34902" lon="38.36488">
        <ele>1029.768689</ele>
        <time>2021-11-17T10:15:28.403Z</time>
      </trkpt>
      <trkpt lat="38.34901" lon="38.36461">
        <ele>1029.948091</ele>
        <time>2021-11-17T10:15:34.118Z</time>
      </trkpt>
      <trkpt lat="38.34901" lon="38.36359">
        <ele>1030.586775</ele>
        <time>2021-11-17T10:15:55.089Z</time>
      </trkpt>
      <trkpt lat="38.34926" lon="38.35968">
        <ele>1030.182846</ele>
        <time>2021-11-17T10:17:05.231Z</time>
      </trkpt>
      <trkpt lat="38.34932" lon="38.35852">
        <ele>1027.962301</ele>
        <time>2021-11-17T10:17:20.550Z</time>
      </trkpt>
      <trkpt lat="38.34937" lon="38.35752">
        <ele>1024.716911</ele>
        <time>2021-11-17T10:17:32.864Z</time>
      </trkpt>
      <trkpt lat="38.34947" lon="38.35587">
        <ele>1018.417786</ele>
        <time>2021-11-17T10:17:52.129Z</time>
      </trkpt>
      <trkpt lat="38.34964" lon="38.35476">
        <ele>1013.653351</ele>
        <time>2021-11-17T10:18:05.221Z</time>
      </trkpt>
      <trkpt lat="38.34994" lon="38.35315">
        <ele>1008.294831</ele>
        <time>2021-11-17T10:18:24.990Z</time>
      </trkpt>
      <trkpt lat="38.35072" lon="38.34894">
        <ele>1000.318104</ele>
        <time>2021-11-17T10:19:22.565Z</time>
      </trkpt>
      <trkpt lat="38.35076" lon="38.34875">
        <ele>1000.178771</ele>
        <time>2021-11-17T10:19:26.365Z</time>
      </trkpt>
      <trkpt lat="38.35077" lon="38.34873">
        <ele>1000.159437</ele>
        <time>2021-11-17T10:19:26.846Z</time>
      </trkpt>
      <trkpt lat="38.3508" lon="38.34869">
        <ele>1000.123409</ele>
        <time>2021-11-17T10:19:27.969Z</time>
      </trkpt>
      <trkpt lat="38.35082" lon="38.34864">
        <ele>1000.086741</ele>
        <time>2021-11-17T10:19:28.988Z</time>
      </trkpt>
      <trkpt lat="38.35083" lon="38.34859">
        <ele>1000.050729</ele>
        <time>2021-11-17T10:19:30.059Z</time>
      </trkpt>
      <trkpt lat="38.35082" lon="38.34849">
        <ele>999.978472</ele>
        <time>2021-11-17T10:19:32.221Z</time>
      </trkpt>
      <trkpt lat="38.35081" lon="38.34844">
        <ele>999.941995</ele>
        <time>2021-11-17T10:19:33.171Z</time>
      </trkpt>
      <trkpt lat="38.35079" lon="38.3484">
        <ele>999.904257</ele>
        <time>2021-11-17T10:19:34.501Z</time>
      </trkpt>
      <trkpt lat="38.35068" lon="38.34831">
        <ele>999.794623</ele>
        <time>2021-11-17T10:19:37.451Z</time>
      </trkpt>
      <trkpt lat="38.35056" lon="38.34833">
        <ele>999.684265</ele>
        <time>2021-11-17T10:19:40.735Z</time>
      </trkpt>
      <trkpt lat="38.35052" lon="38.34836">
        <ele>999.646977</ele>
        <time>2021-11-17T10:19:41.996Z</time>
      </trkpt>
      <trkpt lat="38.35049" lon="38.34839">
        <ele>999.613262</ele>
        <time>2021-11-17T10:19:42.932Z</time>
      </trkpt>
      <trkpt lat="38.3501" lon="38.3483">
        <ele>1000.000346</ele>
        <time>2021-11-17T10:19:53.680Z</time>
      </trkpt>
      <trkpt lat="38.34962" lon="38.34804">
        <ele>1000.701076</ele>
        <time>2021-11-17T10:20:07.520Z</time>
      </trkpt>
      <trkpt lat="38.3496" lon="38.34801">
        <ele>1000.746575</ele>
        <time>2021-11-17T10:20:08.388Z</time>
      </trkpt>
      <trkpt lat="38.34957" lon="38.34798">
        <ele>1000.792979</ele>
        <time>2021-11-17T10:20:09.290Z</time>
      </trkpt>
      <trkpt lat="38.34947" lon="38.34716">
        <ele>1001.665706</ele>
        <time>2021-11-17T10:20:28.937Z</time>
      </trkpt>
      <trkpt lat="38.34938" lon="38.34657">
        <ele>1002.35782</ele>
        <time>2021-11-17T10:20:41.632Z</time>
      </trkpt>
      <trkpt lat="38.34925" lon="38.3456">
        <ele>1003.561192</ele>
        <time>2021-11-17T10:21:02.169Z</time>
      </trkpt>
      <trkpt lat="38.34923" lon="38.34546">
        <ele>1003.738283</ele>
        <time>2021-11-17T10:21:05.249Z</time>
      </trkpt>
      <trkpt lat="38.3492" lon="38.34519">
        <ele>1004.082244</ele>
        <time>2021-11-17T10:21:11.775Z</time>
      </trkpt>
      <trkpt lat="38.34918" lon="38.34494">
        <ele>1004.388374</ele>
        <time>2021-11-17T10:21:17.666Z</time>
      </trkpt>
      <trkpt lat="38.34911" lon="38.34412">
        <ele>1005.427505</ele>
        <time>2021-11-17T10:21:37.624Z</time>
      </trkpt>
      <trkpt lat="38.34901" lon="38.34306">
        <ele>1006.789071</ele>
        <time>2021-11-17T10:22:04.032Z</time>
      </trkpt>
      <trkpt lat="38.3489" lon="38.34167">
        <ele>1007.656752</ele>
        <time>2021-11-17T10:22:30.627Z</time>
      </trkpt>
      <trkpt lat="38.34875" lon="38.34018">
        <ele>1007.515529</ele>
        <time>2021-11-17T10:22:54.829Z</time>
      </trkpt>
      <trkpt lat="38.34866" lon="38.33898">
        <ele>1007.434143</ele>
        <time>2021-11-17T10:23:14.578Z</time>
      </trkpt>
      <trkpt lat="38.34865" lon="38.33887">
        <ele>1007.426593</ele>
        <time>2021-11-17T10:23:16.655Z</time>
      </trkpt>
      <trkpt lat="38.34847" lon="38.33681">
        <ele>1007.088192</ele>
        <time>2021-11-17T10:23:54.072Z</time>
      </trkpt>
      <trkpt lat="38.34846" lon="38.33657">
        <ele>1007.022095</ele>
        <time>2021-11-17T10:23:58.038Z</time>
      </trkpt>
      <trkpt lat="38.34845" lon="38.33632">
        <ele>1006.952134</ele>
        <time>2021-11-17T10:24:01.993Z</time>
      </trkpt>
      <trkpt lat="38.34843" lon="38.33605">
        <ele>1006.87815</ele>
        <time>2021-11-17T10:24:06.231Z</time>
      </trkpt>
      <trkpt lat="38.34835" lon="38.33527">
        <ele>1006.505546</ele>
        <time>2021-11-17T10:24:18.185Z</time>
      </trkpt>
      <trkpt lat="38.34831" lon="38.33474">
        <ele>1005.987027</ele>
        <time>2021-11-17T10:24:26.438Z</time>
      </trkpt>
      <trkpt lat="38.34826" lon="38.33416">
        <ele>1005.419123</ele>
        <time>2021-11-17T10:24:35.235Z</time>
      </trkpt>
      <trkpt lat="38.34823" lon="38.33398">
        <ele>1005.234525</ele>
        <time>2021-11-17T10:24:38.052Z</time>
      </trkpt>
      <trkpt lat="38.34821" lon="38.33377">
        <ele>1005.028358</ele>
        <time>2021-11-17T10:24:41.061Z</time>
      </trkpt>
      <trkpt lat="38.34819" lon="38.33356">
        <ele>1004.820947</ele>
        <time>2021-11-17T10:24:44.036Z</time>
      </trkpt>
      <trkpt lat="38.34812" lon="38.33286">
        <ele>1003.877511</ele>
        <time>2021-11-17T10:24:53.737Z</time>
      </trkpt>
      <trkpt lat="38.34804" lon="38.33203">
        <ele>1002.450893</ele>
        <time>2021-11-17T10:25:05.303Z</time>
      </trkpt>
      <trkpt lat="38.34801" lon="38.3317">
        <ele>1001.87943</ele>
        <time>2021-11-17T10:25:09.930Z</time>
      </trkpt>
      <trkpt lat="38.34777" lon="38.3292">
        <ele>996.41222</ele>
        <time>2021-11-17T10:25:43.209Z</time>
      </trkpt>
      <trkpt lat="38.34766" lon="38.32824">
        <ele>993.754229</ele>
        <time>2021-11-17T10:25:55.070Z</time>
      </trkpt>
      <trkpt lat="38.34763" lon="38.32783">
        <ele>992.406273</ele>
        <time>2021-11-17T10:26:00.157Z</time>
      </trkpt>
      <trkpt lat="38.34758" lon="38.3273">
        <ele>990.656116</ele>
        <time>2021-11-17T10:26:06.747Z</time>
      </trkpt>
      <trkpt lat="38.34761" lon="38.32696">
        <ele>989.556851</ele>
        <time>2021-11-17T10:26:10.839Z</time>
      </trkpt>
      <trkpt lat="38.34759" lon="38.32697">
        <ele>989.455969</ele>
        <time>2021-11-17T10:26:11.241Z</time>
      </trkpt>
      <trkpt lat="38.34751" lon="38.32692">
        <ele>989.078012</ele>
        <time>2021-11-17T10:26:12.654Z</time>
      </trkpt>
      <trkpt lat="38.3475" lon="38.32689">
        <ele>988.968661</ele>
        <time>2021-11-17T10:26:13.068Z</time>
      </trkpt>
      <trkpt lat="38.3475" lon="38.32685">
        <ele>988.857652</ele>
        <time>2021-11-17T10:26:13.465Z</time>
      </trkpt>
      <trkpt lat="38.34751" lon="38.32682">
        <ele>988.748517</ele>
        <time>2021-11-17T10:26:13.871Z</time>
      </trkpt>
      <trkpt lat="38.34753" lon="38.3268">
        <ele>988.640398</ele>
        <time>2021-11-17T10:26:14.269Z</time>
      </trkpt>
      <trkpt lat="38.34755" lon="38.32678">
        <ele>988.531629</ele>
        <time>2021-11-17T10:26:14.666Z</time>
      </trkpt>
      <trkpt lat="38.34764" lon="38.32683">
        <ele>988.124033</ele>
        <time>2021-11-17T10:26:16.172Z</time>
      </trkpt>
      <trkpt lat="38.34765" lon="38.32686">
        <ele>988.023943</ele>
        <time>2021-11-17T10:26:16.546Z</time>
      </trkpt>
      <trkpt lat="38.34811" lon="38.32567">
        <ele>983.684198</ele>
        <time>2021-11-17T10:26:32.463Z</time>
      </trkpt>
      <trkpt lat="38.34812" lon="38.32565">
        <ele>983.590808</ele>
        <time>2021-11-17T10:26:32.798Z</time>
      </trkpt>
      <trkpt lat="38.34815" lon="38.3256">
        <ele>983.41352</ele>
        <time>2021-11-17T10:26:33.487Z</time>
      </trkpt>
      <trkpt lat="38.34815" lon="38.32558">
        <ele>983.321656</ele>
        <time>2021-11-17T10:26:33.833Z</time>
      </trkpt>
      <trkpt lat="38.34861" lon="38.32437">
        <ele>979.192175</ele>
        <time>2021-11-17T10:26:50.611Z</time>
      </trkpt>
      <trkpt lat="38.34864" lon="38.32436">
        <ele>979.09441</ele>
        <time>2021-11-17T10:26:51.086Z</time>
      </trkpt>
      <trkpt lat="38.34867" lon="38.32435">
        <ele>978.999993</ele>
        <time>2021-11-17T10:26:51.544Z</time>
      </trkpt>
      <trkpt lat="38.34869" lon="38.32432">
        <ele>978.903627</ele>
        <time>2021-11-17T10:26:51.984Z</time>
      </trkpt>
      <trkpt lat="38.34871" lon="38.32425">
        <ele>978.714838</ele>
        <time>2021-11-17T10:26:52.955Z</time>
      </trkpt>
      <trkpt lat="38.3487" lon="38.32421">
        <ele>978.618384</ele>
        <time>2021-11-17T10:26:53.424Z</time>
      </trkpt>
      <trkpt lat="38.34875" lon="38.3239">
        <ele>977.82529</ele>
        <time>2021-11-17T10:26:57.357Z</time>
      </trkpt>
      <trkpt lat="38.34882" lon="38.32347">
        <ele>976.70736</ele>
        <time>2021-11-17T10:27:02.947Z</time>
      </trkpt>
      <trkpt lat="38.34882" lon="38.32343">
        <ele>976.595366</ele>
        <time>2021-11-17T10:27:03.460Z</time>
      </trkpt>
      <trkpt lat="38.34902" lon="38.32245">
        <ele>974.127495</ele>
        <time>2021-11-17T10:27:16.645Z</time>
      </trkpt>
      <trkpt lat="38.34927" lon="38.32116">
        <ele>971.623342</ele>
        <time>2021-11-17T10:27:34.886Z</time>
      </trkpt>
      <trkpt lat="38.34931" lon="38.321">
        <ele>971.317213</ele>
        <time>2021-11-17T10:27:37.061Z</time>
      </trkpt>
      <trkpt lat="38.3494" lon="38.32058">
        <ele>970.503914</ele>
        <time>2021-11-17T10:27:42.859Z</time>
      </trkpt>
      <trkpt lat="38.34943" lon="38.32056">
        <ele>970.411078</ele>
        <time>2021-11-17T10:27:43.535Z</time>
      </trkpt>
      <trkpt lat="38.34953" lon="38.32044">
        <ele>970.088189</ele>
        <time>2021-11-17T10:27:45.913Z</time>
      </trkpt>
      <trkpt lat="38.34965" lon="38.3204">
        <ele>969.842549</ele>
        <time>2021-11-17T10:27:48.074Z</time>
      </trkpt>
      <trkpt lat="38.34962" lon="38.32039">
        <ele>969.781764</ele>
        <time>2021-11-17T10:27:48.605Z</time>
      </trkpt>
      <trkpt lat="38.35008" lon="38.3201">
        <ele>968.755259</ele>
        <time>2021-11-17T10:27:57.611Z</time>
      </trkpt>
      <trkpt lat="38.35" lon="38.31906">
        <ele>967.135732</ele>
        <time>2021-11-17T10:28:11.854Z</time>
      </trkpt>
      <trkpt lat="38.34999" lon="38.31893">
        <ele>966.92708</ele>
        <time>2021-11-17T10:28:13.994Z</time>
      </trkpt>
      <trkpt lat="38.34997" lon="38.31831">
        <ele>966.33407</ele>
        <time>2021-11-17T10:28:23.493Z</time>
      </trkpt>
      <trkpt lat="38.34997" lon="38.31813">
        <ele>966.248105</ele>
        <time>2021-11-17T10:28:26.541Z</time>
      </trkpt>
      <trkpt lat="38.34993" lon="38.3175">
        <ele>965.954372</ele>
        <time>2021-11-17T10:28:36.585Z</time>
      </trkpt>
      <trkpt lat="38.3499" lon="38.31735">
        <ele>965.884169</ele>
        <time>2021-11-17T10:28:38.960Z</time>
      </trkpt>
      <trkpt lat="38.34981" lon="38.31713">
        <ele>965.769273</ele>
        <time>2021-11-17T10:28:43.142Z</time>
      </trkpt>
      <trkpt lat="38.34959" lon="38.3165">
        <ele>965.448523</ele>
        <time>2021-11-17T10:28:54.128Z</time>
      </trkpt>
      <trkpt lat="38.34993" lon="38.31631">
        <ele>965.309478</ele>
        <time>2021-11-17T10:29:02.612Z</time>
      </trkpt>
      <trkpt lat="38.35065" lon="38.31576">
        <ele>965.022094</ele>
        <time>2021-11-17T10:29:21.740Z</time>
      </trkpt>
      <trkpt lat="38.35089" lon="38.31555">
        <ele>964.921858</ele>
        <time>2021-11-17T10:29:27.688Z</time>
      </trkpt>
      <trkpt lat="38.35082" lon="38.3152">
        <ele>964.823347</ele>
        <time>2021-11-17T10:29:33.521Z</time>
      </trkpt>
      <trkpt lat="38.35076" lon="38.31486">
        <ele>964.791192</ele>
        <time>2021-11-17T10:29:39.663Z</time>
      </trkpt>
      <trkpt lat="38.3505" lon="38.31422">
        <ele>964.753468</ele>
        <time>2021-11-17T10:29:52.558Z</time>
      </trkpt>
      <trkpt lat="38.35011" lon="38.31363">
        <ele>964.712562</ele>
        <time>2021-11-17T10:30:07.503Z</time>
      </trkpt>
      <trkpt lat="38.34991" lon="38.31319">
        <ele>964.68586</ele>
        <time>2021-11-17T10:30:17.030Z</time>
      </trkpt>
      <trkpt lat="38.35002" lon="38.31272">
        <ele>964.353255</ele>
        <time>2021-11-17T10:30:25.383Z</time>
      </trkpt>
      <trkpt lat="38.35001" lon="38.31153">
        <ele>963.520041</ele>
        <time>2021-11-17T10:30:44.280Z</time>
      </trkpt>
      <trkpt lat="38.35011" lon="38.31021">
        <ele>963.082229</ele>
        <time>2021-11-17T10:31:04.383Z</time>
      </trkpt>
      <trkpt lat="38.35014" lon="38.30987">
        <ele>963.082229</ele>
        <time>2021-11-17T10:31:09.669Z</time>
      </trkpt>
      <trkpt lat="38.35016" lon="38.30968">
        <ele>963.082229</ele>
        <time>2021-11-17T10:31:12.551Z</time>
      </trkpt>
      <trkpt lat="38.3502" lon="38.30926">
        <ele>963.082229</ele>
        <time>2021-11-17T10:31:19.291Z</time>
      </trkpt>
    </trkseg>
  </trk>
</gpx>